Date time  Uvelocity_cm/s Vvelocity_cm/s W_velocity_cm/s horizontalSpeedCareful_cm/s TotalSpeedCareful_cm/s HorizontalWindDirection_deg WindElevation_deg SpeedOfSound_cm/sec Temperature_Kelvin pressure_mb2009/04/23 11:59:59.9    -270   -115     69    294    302 246.9  13.2  34162  289.59 0855.14
2009/04/23 12:00:00.0    -196    -72    132    209    247 249.8  35.5  34160  289.56 0855.14
2009/04/23 12:00:00.1    -244     -4      3    245    246 269.0   0.7  34162  289.61 0855.14
2009/04/23 12:00:00.2    -354    -14     33    355    357 267.7   5.4  34174  289.82 0855.14
2009/04/23 12:00:00.3    -346    -97     37    360    362 254.3   6.0  34172  289.76 0855.14
2009/04/23 12:00:00.4    -184   -240      6    303    304 217.4   1.2  34160  289.58 0855.14
2009/04/23 12:00:00.5     -67   -202      7    214    215 198.5   2.1  34158  289.53 0855.14
2009/04/23 12:00:00.6    -131   -139    -50    192    199 223.2 -14.7  34158  289.55 0855.14
2009/04/23 12:00:00.7    -114    -48     17    124    126 246.9   8.0  34160  289.57 0855.14
2009/04/23 12:00:00.8    -191    -39     38    196    200 258.3  11.1  34160  289.58 0855.14
2009/04/23 12:00:00.9    -246   -143    -62    285    292 239.8 -12.4  34170  289.75 0855.14
2009/04/23 12:00:01.0    -167   -287     71    333    341 210.3  12.2  34162  289.59 0855.14
2009/04/23 12:00:01.1    -276    -86     30    290    292 252.7   5.9  34150  289.41 0855.14
2009/04/23 12:00:01.2    -357    -50    -35    361    363 262.0  -5.6  34162  289.60 0855.14
2009/04/23 12:00:01.3    -256    -75    -54    267    273 253.6 -11.6  34162  289.61 0855.14
2009/04/23 12:00:01.4    -400   -255     36    475    477 237.5   4.4  34166  289.69 0855.14
2009/04/23 12:00:01.5    -257   -360    137    443    464 215.6  17.2  34156  289.49 0855.14
2009/04/23 12:00:01.6    -112   -320     93    340    353 199.4  15.3  34162  289.60 0855.14
2009/04/23 12:00:01.7    -189   -346    138    395    419 208.7  19.3  34152  289.43 0855.14
2009/04/23 12:00:01.8    -115   -373    217    391    447 197.2  31.4  34156  289.49 0855.14
2009/04/23 12:00:01.9    -214   -290    179    361    402 216.5  28.2  34156  289.50 0855.14
2009/04/23 12:00:02.0      52   -395    122    399    418 172.4  17.0  34158  289.53 0855.14
2009/04/23 12:00:02.1     286    -79    377    297    479 105.5  57.9  34158  289.53 0855.14
2009/04/23 12:00:02.2     330   -215    235    395    459 123.1  33.5  34158  289.53 0855.14
2009/04/23 12:00:02.3     177   -316    114    363    381 150.7  17.4  34152  289.45 0855.14
2009/04/23 12:00:02.4     214   -160    144    268    304 126.9  30.6  34144  289.31 0855.14
2009/04/23 12:00:02.5     248   -234    197    342    394 133.3  32.6  34156  289.50 0855.14
2009/04/23 12:00:02.6     132   -222     72    259    269 149.2  15.6  34152  289.42 0855.14
2009/04/23 12:00:02.7       7   -271     63    272    280 178.4  13.1  34154  289.47 0855.14
2009/04/23 12:00:02.8     -19   -257     90    258    274 184.4  19.2  34152  289.44 0855.14
2009/04/23 12:00:02.9      47   -104    199    115    229 155.5  67.5  34154  289.46 0855.14
2009/04/23 12:00:03.0     122   -143     64    189    200 139.5  18.9  34156  289.50 0855.14
2009/04/23 12:00:03.1     137   -224    -12    263    264 148.6  -2.8  34154  289.46 0855.14
2009/04/23 12:00:03.2      41   -275     50    279    284 171.5  10.3  34154  289.47 0855.14
2009/04/23 12:00:03.3      17   -247    139    248    284 176.0  31.4  34154  289.47 0855.14
2009/04/23 12:00:03.4      40   -107    164    115    200 159.5  61.5  34154  289.48 0855.14
2009/04/23 12:00:03.5      51   -155    158    164    227 161.5  49.0  34156  289.52 0855.14
2009/04/23 12:00:03.6      15   -141    152    142    208 173.8  52.1  34154  289.48 0855.14
2009/04/23 12:00:03.7      16   -149     29    150    153 173.8  11.1  34148  289.38 0855.14
2009/04/23 12:00:03.8      77   -106     92    132    160 143.9  38.4  34154  289.46 0855.14
2009/04/23 12:00:03.9     142   -231     84    272    285 148.4  17.3  34154  289.47 0855.14
2009/04/23 12:00:04.0      82   -267    102    280    298 163.0  21.0  34158  289.54 0855.14
2009/04/23 12:00:04.1     103   -186     91    213    231 151.0  24.6  34156  289.52 0855.14
2009/04/23 12:00:04.2      49   -163     78    171    187 163.1  26.4  34158  289.55 0855.14
2009/04/23 12:00:04.3      65   -225    171    235    290 163.7  39.7  34158  289.53 0855.16
2009/04/23 12:00:04.4      35   -226    172    229    286 171.1  40.7  34158  289.53 0855.16
2009/04/23 12:00:04.5      20   -169    180    171    248 173.1  51.4  34156  289.52 0855.16
2009/04/23 12:00:04.6       0    -89    129     90    157 180.4  61.5  34162  289.60 0855.16
2009/04/23 12:00:04.7      92   -255    180    272    326 160.2  36.6  34156  289.51 0855.16
2009/04/23 12:00:04.8     147   -293    199    329    384 153.3  34.1  34156  289.52 0855.16
2009/04/23 12:00:04.9       1   -277     99    278    296 179.8  19.6  34164  289.63 0855.16
2009/04/23 12:00:05.0     -98   -223     49    244    249 203.7  11.4  34172  289.78 0855.16
2009/04/23 12:00:05.1     -43   -101    170    110    202 203.2  64.4  34174  289.80 0855.16
2009/04/23 12:00:05.2    -149   -178     70    233    244 219.9  16.8  34164  289.64 0855.16
2009/04/23 12:00:05.3    -118   -296    122    319    341 201.8  22.0  34168  289.71 0855.16
2009/04/23 12:00:05.4     -79   -269     50    281    286 196.5  10.1  34168  289.70 0855.16
2009/04/23 12:00:05.5    -144   -356     60    385    390 202.1   8.9  34168  289.72 0855.16
2009/04/23 12:00:05.6    -198   -384     84    433    442 207.3  11.0  34174  289.80 0855.16
2009/04/23 12:00:05.7     -49   -182    206    189    279 195.2  52.7  34174  289.80 0855.16
2009/04/23 12:00:05.8    -265   -207    -10    337    338 232.0  -1.8  34168  289.71 0855.16
2009/04/23 12:00:05.9    -121   -224     94    255    271 208.5  21.0  34168  289.71 0855.16
2009/04/23 12:00:06.0    -130   -246    155    279    319 207.9  31.5  34182  289.95 0855.16
2009/04/23 12:00:06.1     -16   -208     67    209    220 184.5  17.9  34178  289.89 0855.16
2009/04/23 12:00:06.2    -102   -204     97    229    248 206.7  24.2  34176  289.83 0855.16
2009/04/23 12:00:06.3     -58   -217     84    225    240 195.2  21.3  34176  289.83 0855.15
2009/04/23 12:00:06.4    -162   -202      8    259    260 218.7   1.8  34176  289.83 0855.15
2009/04/23 12:00:06.5    -157   -216     33    268    271 216.1   7.1  34176  289.83 0855.15
2009/04/23 12:00:06.6    -199   -286     17    349    350 214.8   2.8  34162  289.62 0855.15
2009/04/23 12:00:06.7    -106   -403     10    417    418 194.8   1.5  34164  289.65 0855.15
2009/04/23 12:00:06.8      21   -328     59    329    335 176.3  10.2  34164  289.65 0855.15
2009/04/23 12:00:06.9    -132   -330    104    356    371 201.8  16.3  34160  289.57 0855.15
2009/04/23 12:00:07.0     -26   -352    124    353    375 184.3  19.4  34162  289.59 0855.15
2009/04/23 12:00:07.1      13   -222    139    223    262 176.6  35.2  34168  289.70 0855.15
2009/04/23 12:00:07.2      31   -322    195    324    378 174.4  33.8  34162  289.62 0855.15
2009/04/23 12:00:07.3      28   -284    120    286    310 174.2  24.1  34158  289.54 0855.15
2009/04/23 12:00:07.4      24   -319    132    320    346 175.6  23.7  34156  289.52 0855.15
2009/04/23 12:00:07.5      57   -252    123    259    286 167.1  27.2  34158  289.53 0855.15
2009/04/23 12:00:07.6      -7   -250     94    251    268 181.8  21.5  34164  289.64 0855.15
2009/04/23 12:00:07.7     -66   -297    -38    305    308 192.7  -7.2  34166  289.66 0855.15
2009/04/23 12:00:07.8     -42   -317    -40    320    323 187.6  -7.2  34162  289.61 0855.15
2009/04/23 12:00:07.9      13   -290    -31    291    293 177.3  -6.2  34158  289.54 0855.15
2009/04/23 12:00:08.0      73   -271     13    281    282 164.9   2.8  34162  289.59 0855.15
2009/04/23 12:00:08.1      19   -251     18    252    253 175.6   4.2  34160  289.56 0855.15
2009/04/23 12:00:08.2       0   -286     65    287    295 179.9  12.9  34160  289.58 0855.15
2009/04/23 12:00:08.3       4   -294     69    295    303 179.1  13.2  34156  289.51 0855.15
2009/04/23 12:00:08.4      14   -276     56    277    283 177.1  11.6  34158  289.53 0855.15
2009/04/23 12:00:08.5     -31   -281     13    283    284 186.5   2.8  34162  289.59 0855.15
2009/04/23 12:00:08.6      16   -255      0    256    257 176.4   0.0  34158  289.53 0855.15
2009/04/23 12:00:08.7      89   -312     46    325    329 164.0   8.1  34160  289.56 0855.15
2009/04/23 12:00:08.8     141   -326     87    356    367 156.6  13.8  34158  289.55 0855.15
2009/04/23 12:00:08.9     126   -288    151    315    349 156.4  27.3  34158  289.54 0855.15
2009/04/23 12:00:09.0      72   -279    192    289    346 165.5  36.6  34160  289.57 0855.15
2009/04/23 12:00:09.1      28   -274    168    276    323 174.0  34.3  34160  289.56 0855.15
2009/04/23 12:00:09.2      41   -239    173    243    298 170.2  39.3  34160  289.56 0855.15
2009/04/23 12:00:09.3      62   -282    176    289    338 167.5  34.2  34158  289.54 0855.15
2009/04/23 12:00:09.4      89   -278    190    293    349 162.2  35.7  34158  289.55 0855.15
2009/04/23 12:00:09.5      84   -277    148    290    325 163.1  29.2  34156  289.51 0855.15
2009/04/23 12:00:09.6      70   -297    175    306    352 166.7  32.3  34158  289.54 0855.15
2009/04/23 12:00:09.7      67   -287    186    295    348 166.7  35.5  34158  289.54 0855.15
2009/04/23 12:00:09.8      80   -307    151    318    352 165.3  27.2  34156  289.50 0855.15
2009/04/23 12:00:09.9     115   -287    156    310    347 158.2  28.7  34156  289.52 0855.15
2009/04/23 12:00:10.0     123   -282    144    308    340 156.4  27.0  34156  289.50 0855.15
2009/04/23 12:00:10.1     127   -293    141    320    349 156.6  25.3  34158  289.55 0855.15
2009/04/23 12:00:10.2     156   -294    115    333    353 152.0  19.2  34158  289.55 0855.15
2009/04/23 12:00:10.3     167   -315    129    357    380 152.0  19.9  34156  289.52 0855.15
2009/04/23 12:00:10.4     118   -268    104    294    311 156.2  20.2  34158  289.53 0855.15
2009/04/23 12:00:10.5      74   -244     79    256    269 163.1  17.3  34160  289.56 0855.15
2009/04/23 12:00:10.6     102   -204    119    229    258 153.3  29.8  34158  289.54 0855.15
2009/04/23 12:00:10.7      74   -189    105    204    229 158.6  29.3  34156  289.52 0855.15
2009/04/23 12:00:10.8     131   -181     88    224    240 144.2  22.5  34158  289.53 0855.15
2009/04/23 12:00:10.9     120   -204    110    237    261 149.5  26.6  34158  289.53 0855.15
2009/04/23 12:00:11.0      68   -211    148    222    266 162.0  36.7  34156  289.49 0855.15
2009/04/23 12:00:11.1      70   -194    128    207    243 160.2  34.8  34158  289.55 0855.15
2009/04/23 12:00:11.2      48   -213     95    219    238 167.1  25.1  34160  289.57 0855.15
2009/04/23 12:00:11.3       0   -342     93    343    356 180.0  15.2  34158  289.54 0855.15
2009/04/23 12:00:11.4      55   -336     87    341    353 170.7  14.4  34158  289.54 0855.15
2009/04/23 12:00:11.5      84   -267     96    281    298 162.4  18.9  34158  289.54 0855.15
2009/04/23 12:00:11.6      91   -228    102    246    266 158.2  23.8  34160  289.56 0855.15
2009/04/23 12:00:11.7      79   -254     19    267    268 162.6   4.2  34162  289.59 0855.15
2009/04/23 12:00:11.8     -65   -196     32    207    210 198.5   9.0  34162  289.62 0855.15
2009/04/23 12:00:11.9     -42   -138     21    145    147 196.9   8.5  34160  289.58 0855.15
2009/04/23 12:00:12.0      16   -169    -47    170    176 174.4 -20.0  34162  289.62 0855.15
2009/04/23 12:00:12.1     -47   -234    -36    239    242 191.6  -8.6  34164  289.64 0855.15
2009/04/23 12:00:12.2      -5   -330     39    331    334 180.9   6.8  34164  289.64 0855.15
2009/04/23 12:00:12.3      71   -255     85    265    279 164.4  17.9  34158  289.54 0855.11
2009/04/23 12:00:12.4     139   -247     35    284    287 150.6   7.2  34158  289.54 0855.11
2009/04/23 12:00:12.5     137   -266    115    300    321 152.8  22.0  34156  289.49 0855.11
2009/04/23 12:00:12.6      83   -192     93    210    229 156.6  25.3  34158  289.55 0855.11
2009/04/23 12:00:12.7      74   -152     -7    170    171 153.9  -2.6  34158  289.53 0855.11
2009/04/23 12:00:12.8      86   -154    -23    177    179 150.8  -7.7  34160  289.57 0855.11
2009/04/23 12:00:12.9      96   -175    -57    200    207 151.1 -20.7  34160  289.57 0855.11
2009/04/23 12:00:13.0     106   -154    -56    188    197 145.5 -16.6  34160  289.58 0855.11
2009/04/23 12:00:13.1     125   -144    -32    191    194 139.0  -9.6  34160  289.57 0855.11
2009/04/23 12:00:13.2     116   -163     -7    201    202 144.6  -2.2  34160  289.58 0855.11
2009/04/23 12:00:13.3     102   -216    -19    240    241 154.6  -4.6  34164  289.63 0855.11
2009/04/23 12:00:13.4      92   -212    -42    232    236 156.6 -10.5  34164  289.64 0855.11
2009/04/23 12:00:13.5      83   -209    -28    226    228 158.2  -7.2  34160  289.57 0855.11
2009/04/23 12:00:13.6     135   -219    -37    258    261 148.4  -8.3  34160  289.56 0855.11
2009/04/23 12:00:13.7     130   -276     13    306    307 154.8   2.5  34156  289.51 0855.11
2009/04/23 12:00:13.8     135   -245     28    280    282 151.1   5.9  34156  289.49 0855.11
2009/04/23 12:00:13.9     138   -213     38    255    258 147.0   8.5  34158  289.53 0855.11
2009/04/23 12:00:14.0     150   -231     64    276    284 147.0  13.1  34158  289.53 0855.11
2009/04/23 12:00:14.1     138   -213     39    255    259 147.0   8.8  34156  289.51 0855.11
2009/04/23 12:00:14.2     206   -233     32    312    314 138.5   5.9  34156  289.51 0855.11
2009/04/23 12:00:14.3     212   -212     27    301    303 135.0   5.2  34158  289.53 0855.09
2009/04/23 12:00:14.4     197   -189     92    274    290 133.8  18.6  34160  289.56 0855.09
2009/04/23 12:00:14.5     209   -178     66    275    283 130.4  13.5  34160  289.58 0855.09
2009/04/23 12:00:14.6     183   -143     77    233    246 128.0  18.4  34162  289.59 0855.09
2009/04/23 12:00:14.7     178    -95     71    202    215 118.2  19.4  34162  289.60 0855.09
2009/04/23 12:00:14.8     104    -92     34    140    145 131.4  13.7  34160  289.57 0855.09
2009/04/23 12:00:14.9     113    -93     40    147    153 129.5  15.2  34160  289.58 0855.09
2009/04/23 12:00:15.0      49    -90     54    103    116 151.1  29.8  34158  289.55 0855.09
2009/04/23 12:00:15.1      43    -41     57     60     82 134.0  49.0  34162  289.60 0855.09
2009/04/23 12:00:15.2      20    -50     74     54     91 158.2  60.0  34164  289.63 0855.09
2009/04/23 12:00:15.3      50    -60     55     79     96 140.4  38.0  34166  289.69 0855.09
2009/04/23 12:00:15.4      71    -82     82    109    136 139.0  40.7  34162  289.60 0855.09
2009/04/23 12:00:15.5      55    -73     94     92    131 143.0  50.1  34162  289.62 0855.09
2009/04/23 12:00:15.6      63    -60    100     88    133 133.6  54.2  34164  289.63 0855.09
2009/04/23 12:00:15.7      99    -92     96    136    166 133.1  38.8  34162  289.62 0855.09
2009/04/23 12:00:15.8      80    -91     98    122    156 138.6  43.0  34164  289.65 0855.09
2009/04/23 12:00:15.9      66    -62     50     91    103 133.1  31.4  34158  289.55 0855.09
2009/04/23 12:00:16.0      72    -58     14     93     95 129.1   9.0  34162  289.60 0855.09
2009/04/23 12:00:16.1      84    -98    -16    130    132 139.5  -7.3  34162  289.62 0855.09
2009/04/23 12:00:16.2      90   -109     -5    142    143 140.3  -2.2  34158  289.55 0855.09
2009/04/23 12:00:16.3     134   -147    -33    200    203 137.7  -9.6  34160  289.58 0855.10
2009/04/23 12:00:16.4     139   -129    -14    190    191 132.9  -4.4  34160  289.58 0855.10
2009/04/23 12:00:16.5     132   -120     21    179    181 132.4   6.7  34158  289.55 0855.10
2009/04/23 12:00:16.6      93   -127     37    158    163 143.9  13.2  34160  289.57 0855.10
2009/04/23 12:00:16.7     101   -104     -6    146    147 135.9  -2.6  34158  289.55 0855.10
2009/04/23 12:00:16.8      86    -86      3    122    123 134.9   1.8  34158  289.53 0855.10
2009/04/23 12:00:16.9     111    -83     27    139    142 126.9  11.0  34158  289.53 0855.10
2009/04/23 12:00:17.0      87    -92     20    127    129 136.7   9.0  34158  289.55 0855.10
2009/04/23 12:00:17.1      75   -107     19    131    133 144.8   8.5  34160  289.57 0855.10
2009/04/23 12:00:17.2     111    -68     56    131    142 121.5  24.1  34158  289.53 0855.10
2009/04/23 12:00:17.3     105    -67     47    125    133 122.5  21.0  34158  289.53 0855.10
2009/04/23 12:00:17.4      90    -45     49    101    112 116.6  27.3  34160  289.57 0855.10
2009/04/23 12:00:17.5      57    -45     62     73     95 128.6  44.3  34162  289.60 0855.10
2009/04/23 12:00:17.6      25    -33     59     42     72 142.2  60.6  34162  289.62 0855.10
2009/04/23 12:00:17.7       3    -38     65     39     75 175.5  64.7  34160  289.58 0855.10
2009/04/23 12:00:17.8       0    -56     73     57     92 180.9  57.5  34160  289.58 0855.10
2009/04/23 12:00:17.9       9    -52     77     53     93 169.3  62.6  34164  289.63 0855.10
2009/04/23 12:00:18.0       4    -56     76     57     95 175.6  59.4  34160  289.58 0855.10
2009/04/23 12:00:18.1     -26     22     81     35     88 309.6  75.0  34168  289.70 0855.10
2009/04/23 12:00:18.2      -2    -38     68     39     78 184.4  67.7  34164  289.63 0855.10
2009/04/23 12:00:18.3       5    -69     59     70     91 175.6  44.3  34160  289.58 0855.10
2009/04/23 12:00:18.4     -23    -30     72     39     81 217.8  69.3  34162  289.62 0855.10
2009/04/23 12:00:18.5       1    -21     59     22     62 175.5  79.2  34168  289.72 0855.10
2009/04/23 12:00:18.6       6      5     67      8     67  50.5  90.0  34168  289.72 0855.10
2009/04/23 12:00:18.7       0      6     55      7     55 355.5  90.0  34170  289.74 0855.10
2009/04/23 12:00:18.8       2     27     24     28     36   4.5  45.8  34168  289.72 0855.10
2009/04/23 12:00:18.9     -10      0     24     11     26 265.6  75.0  34168  289.72 0855.10
2009/04/23 12:00:19.0     -26    -26     73     37     81 225.0  71.4  34166  289.69 0855.10
2009/04/23 12:00:19.1      22    -35     65     42     77 148.4  64.6  34166  289.67 0855.10
2009/04/23 12:00:19.2      52      3     37     53     64  86.5  38.6  34164  289.65 0855.10
2009/04/23 12:00:19.3      38    -30     43     49     65 128.6  46.9  34170  289.74 0855.10
2009/04/23 12:00:19.4     -10    -10     49     15     51 225.0  81.8  34170  289.74 0855.10
2009/04/23 12:00:19.5       9    -67     51     68     85 171.9  40.7  34164  289.65 0855.10
2009/04/23 12:00:19.6     -29    -78    141     84    164 200.5  66.4  34168  289.70 0855.10
2009/04/23 12:00:19.7      38     21     83     44     93  60.2  69.8  34176  289.84 0855.10
2009/04/23 12:00:19.8       4   -168    137    169    217 178.4  43.5  34162  289.62 0855.10
2009/04/23 12:00:19.9     -42   -141    112    148    185 196.5  41.2  34162  289.62 0855.10
2009/04/23 12:00:20.0     -62   -173    181    184    258 199.8  49.8  34164  289.63 0855.10
2009/04/23 12:00:20.1     -71   -185    189    199    274 201.2  48.5  34164  289.63 0855.10
2009/04/23 12:00:20.2     -41   -195    135    200    241 192.0  37.3  34162  289.62 0855.10
2009/04/23 12:00:20.3     -26   -179    123    181    218 188.5  37.6  34164  289.65 0855.10
2009/04/23 12:00:20.4     -44   -166     65    172    183 195.1  21.5  34164  289.63 0855.10
2009/04/23 12:00:20.5    -121   -212     -2    245    246 209.6  -0.5  34164  289.64 0855.10
2009/04/23 12:00:20.6     -71   -197      4    210    211 200.0   1.2  34160  289.58 0855.10
2009/04/23 12:00:20.7     -48   -155     25    163    165 197.4   8.8  34164  289.65 0855.10
2009/04/23 12:00:20.8     -41   -125     69    132    148 198.3  29.3  34162  289.62 0855.10
2009/04/23 12:00:20.9     -41   -106     68    114    132 201.4  34.0  34166  289.67 0855.10
2009/04/23 12:00:21.0       7   -140     76    141    160 176.9  30.6  34166  289.67 0855.10
2009/04/23 12:00:21.1       2   -152     51    153    162 179.1  18.4  34166  289.67 0855.10
2009/04/23 12:00:21.2     -30   -149     51    153    162 191.6  18.6  34166  289.67 0855.10
2009/04/23 12:00:21.4     -36   -135      7    140    141 195.1   2.9  34168  289.70 0855.10
2009/04/23 12:00:21.5     -16   -152     27    153    156 186.2  10.1  34166  289.69 0855.10
2009/04/23 12:00:21.6     -15   -145      3    146    147 186.2   1.2  34166  289.67 0855.10
2009/04/23 12:00:21.7      -3   -125     44    126    134 181.8  19.4  34166  289.69 0855.10
2009/04/23 12:00:21.8       9   -122     32    123    128 175.5  14.7  34166  289.67 0855.10
2009/04/23 12:00:21.9      58    -83     21    102    105 145.3  11.6  34170  289.74 0855.10
2009/04/23 12:00:22.0     114    -57     34    128    133 116.6  15.2  34168  289.72 0855.10
2009/04/23 12:00:22.1     117    -89    -30    148    151 127.3 -11.5  34166  289.69 0855.10
2009/04/23 12:00:22.2     127    -98    -29    161    164 127.8 -10.3  34168  289.70 0855.10
2009/04/23 12:00:22.3     177    -89    -31    199    202 116.9  -9.0  34166  289.69 0855.10
2009/04/23 12:00:22.4     179    -81     32    197    200 114.4   9.5  34166  289.69 0855.08
2009/04/23 12:00:22.5     155    -94     35    182    186 121.1  11.0  34162  289.62 0855.08
2009/04/23 12:00:22.6     114   -113     65    161    173 134.8  23.0  34164  289.65 0855.08
2009/04/23 12:00:22.7     125   -133     -3    183    184 136.8  -1.1  34164  289.65 0855.08
2009/04/23 12:00:22.8      70   -196     30    209    212 160.4   8.2  34166  289.69 0855.08
2009/04/23 12:00:22.9     123   -175    -44    215    220 144.8 -11.6  34164  289.63 0855.08
2009/04/23 12:00:23.0      34   -171     47    175    182 168.7  15.2  34162  289.62 0855.08
2009/04/23 12:00:23.1      73   -176     63    191    202 157.5  18.4  34162  289.62 0855.08
2009/04/23 12:00:23.2      49   -149     64    157    169 161.7  23.4  34164  289.63 0855.08
2009/04/23 12:00:23.3      42   -152      0    158    159 164.4  -0.3  34162  289.62 0855.08
2009/04/23 12:00:23.4      88   -121    -27    150    153 143.9 -10.3  34164  289.65 0855.07
2009/04/23 12:00:23.5     127    -81    -41    151    156 122.5 -20.0  34166  289.67 0855.07
2009/04/23 12:00:23.6     134    -54    -40    145    151 112.2 -15.4  34168  289.70 0855.07
2009/04/23 12:00:23.7     155    -77    -52    174    182 116.6 -16.8  34166  289.67 0855.07
2009/04/23 12:00:23.8     158    -49     -3    166    167 107.5  -1.3  34164  289.65 0855.07
2009/04/23 12:00:23.9     128     -9    -26    129    132  94.3 -11.5  34166  289.67 0855.07
2009/04/23 12:00:24.0      87     55    -42    104    112  57.6 -27.4  34164  289.65 0855.07
2009/04/23 12:00:24.1     104     47    -31    115    120  65.6 -15.4  34166  289.69 0855.07
2009/04/23 12:00:24.2      85     53    -31    101    105  58.0 -22.3  34164  289.65 0855.07
2009/04/23 12:00:24.3      29     54    -87     62    106  28.1 -65.5  34168  289.70 0855.07
2009/04/23 12:00:24.4      46     27    -96     54    110  59.3 -72.7  34168  289.70 0855.07
2009/04/23 12:00:24.5      17    -67   -109     70    129 165.7 -69.0  34166  289.67 0855.07
2009/04/23 12:00:24.6      33   -216   -165    219    274 171.1 -45.3  34162  289.59 0855.07
2009/04/23 12:00:24.7      14   -173   -110    174    205 175.1 -39.9  34162  289.60 0855.07
2009/04/23 12:00:24.8      10   -164   -152    165    224 176.2 -52.3  34164  289.63 0855.07
2009/04/23 12:00:24.9     -76    -97   -142    124    188 218.3 -58.7  34164  289.65 0855.07
2009/04/23 12:00:25.0    -173   -178    -70    249    258 224.1 -20.4  34164  289.63 0855.07
2009/04/23 12:00:25.1    -111   -251   -100    275    292 203.8 -25.3  34158  289.53 0855.07
2009/04/23 12:00:25.2     -76   -158   -101    176    202 205.6 -37.1  34162  289.60 0855.07
2009/04/23 12:00:25.3     -67   -114    -79    133    154 210.7 -38.4  34160  289.58 0855.07
2009/04/23 12:00:25.4    -114    -37    -89    121    150 251.8 -44.1  34164  289.65 0855.09
2009/04/23 12:00:25.5     -84   -162    -53    183    190 207.6 -21.0  34164  289.65 0855.09
2009/04/23 12:00:25.6     -36   -136    -76    141    160 195.1 -35.0  34162  289.60 0855.09
2009/04/23 12:00:25.7     -58   -161    -24    172    174 200.0  -8.0  34162  289.60 0855.09
2009/04/23 12:00:25.8    -200   -251      5    322    323 218.5   1.0  34158  289.53 0855.09
2009/04/23 12:00:25.9    -178   -261    -58    317    323 214.3 -10.4  34162  289.59 0855.09
2009/04/23 12:00:26.0    -111   -291     56    312    318 200.9  10.2  34154  289.47 0855.09
2009/04/23 12:00:26.1     -62   -222    100    231    251 195.6  24.9  34162  289.59 0855.09
2009/04/23 12:00:26.2     -32   -227     47    230    235 188.1  11.6  34160  289.58 0855.09
2009/04/23 12:00:26.3    -165   -226      3    280    281 216.1   0.7  34168  289.70 0855.09
2009/04/23 12:00:26.4    -112   -255    -40    279    282 203.7  -8.2  34164  289.64 0855.09
2009/04/23 12:00:26.5     -34   -278   -100    281    299 187.1 -19.7  34162  289.59 0855.09
2009/04/23 12:00:26.6      26   -231    -36    233    236 173.5  -8.8  34162  289.59 0855.09
2009/04/23 12:00:26.7     -63   -188     76    199    213 198.5  21.5  34162  289.62 0855.09
2009/04/23 12:00:26.8     -66   -257     46    266    271 194.5   9.9  34162  289.61 0855.09
2009/04/23 12:00:26.9      55   -205    116    213    242 164.8  31.0  34164  289.64 0855.09
2009/04/23 12:00:27.0      40   -193    103    198    223 168.2  29.5  34164  289.65 0855.09
2009/04/23 12:00:27.1      70   -253     68    263    272 164.4  14.5  34162  289.61 0855.09
2009/04/23 12:00:27.2      88   -333     43    345    348 165.1   7.2  34164  289.64 0855.09
2009/04/23 12:00:27.3     113   -278    -51    301    306 157.9  -9.8  34162  289.61 0855.09
2009/04/23 12:00:27.4      91   -256    -48    272    277 160.4 -10.1  34166  289.66 0855.11
2009/04/23 12:00:27.5       7   -253     98    254    272 178.2  22.1  34166  289.66 0855.11
2009/04/23 12:00:27.6      92   -242     -9    260    261 159.1  -2.1  34164  289.64 0855.11
2009/04/23 12:00:27.7     106   -198    -58    225    233 151.9 -14.5  34164  289.63 0855.11
2009/04/23 12:00:27.8      73   -213    -71    226    237 161.1 -17.5  34166  289.66 0855.11
2009/04/23 12:00:27.9      21   -246     -9    248    249 174.9  -2.2  34166  289.68 0855.11
2009/04/23 12:00:28.0      21   -276    -45    277    281 175.5  -9.3  34166  289.66 0855.11
2009/04/23 12:00:28.1      38   -338    -31    341    343 173.5  -5.3  34166  289.67 0855.11
2009/04/23 12:00:28.2       0   -346    -59    347    352 180.0  -9.7  34168  289.71 0855.11
2009/04/23 12:00:28.3       6   -420     10    421    422 179.1   1.5  34164  289.63 0855.11
2009/04/23 12:00:28.4       9   -364     15    365    366 178.5   2.5  34162  289.62 0855.11
2009/04/23 12:00:28.5      -4   -307    -22    308    309 180.9  -4.1  34166  289.66 0855.11
2009/04/23 12:00:28.6      58   -275      7    282    283 168.0   1.6  34164  289.63 0855.11
2009/04/23 12:00:28.7      48   -323    -22    327    328 171.4  -3.9  34164  289.63 0855.11
2009/04/23 12:00:28.8      12   -347    -16    348    349 177.9  -2.7  34164  289.64 0855.11
2009/04/23 12:00:28.9      73   -271    -26    281    283 164.8  -5.4  34166  289.66 0855.11
2009/04/23 12:00:29.0      78   -282    -37    293    296 164.4  -7.2  34160  289.58 0855.11
2009/04/23 12:00:29.1      41   -277    -48    281    286 171.5  -9.8  34162  289.59 0855.11
2009/04/23 12:00:29.2      78   -263    -35    275    278 163.3  -7.3  34162  289.61 0855.11
2009/04/23 12:00:29.3      78   -280    -76    291    301 164.4 -14.7  34164  289.63 0855.11
2009/04/23 12:00:29.4      80   -298    -91    309    323 164.8 -16.5  34164  289.63 0855.08
2009/04/23 12:00:29.5      79   -313   -105    324    341 165.7 -18.1  34162  289.62 0855.08
2009/04/23 12:00:29.6      78   -281    -89    292    306 164.4 -16.9  34162  289.61 0855.08
2009/04/23 12:00:29.7      84   -275    -77    288    299 163.0 -15.0  34160  289.58 0855.08
2009/04/23 12:00:29.8      80   -282    -68    294    302 164.2 -13.2  34158  289.54 0855.08
2009/04/23 12:00:29.9      76   -283    -64    294    302 164.9 -12.4  34156  289.51 0855.08
2009/04/23 12:00:30.0      86   -269    -67    283    291 162.2 -13.4  34156  289.49 0855.08
2009/04/23 12:00:30.1      68   -237    -85    247    262 164.0 -19.1  34158  289.53 0855.08
2009/04/23 12:00:30.2      59   -235    -67    243    253 165.7 -15.5  34156  289.51 0855.08
2009/04/23 12:00:30.3      51   -256    -63    262    270 168.7 -13.7  34158  289.53 0855.08
2009/04/23 12:00:30.4      -5   -296    -40    297    300 181.0  -7.7  34158  289.53 0855.08
2009/04/23 12:00:30.5     -21   -295    -65    296    304 184.2 -12.4  34156  289.51 0855.08
2009/04/23 12:00:30.6     -26   -297    -54    299    304 185.1 -10.3  34168  289.71 0855.08
2009/04/23 12:00:30.7     -33   -306    -39    308    311 186.2  -7.3  34170  289.73 0855.08
2009/04/23 12:00:30.8       1   -340     -8    341    342 179.8  -1.4  34168  289.72 0855.08
2009/04/23 12:00:30.9     -34   -316    -32    318    320 186.3  -5.9  34162  289.59 0855.08
2009/04/23 12:00:31.0     -54   -313    -42    318    321 189.8  -7.7  34166  289.66 0855.08
2009/04/23 12:00:31.1     -78   -385    -88    394    404 191.6 -12.6  34164  289.64 0855.08
2009/04/23 12:00:31.2     -83   -377    -70    387    394 192.5 -10.3  34162  289.59 0855.08
2009/04/23 12:00:31.3    -144   -361    -52    390    394 201.8  -7.7  34168  289.71 0855.08
2009/04/23 12:00:31.4    -173   -338    -60    380    385 207.2  -9.1  34164  289.65 0855.07
2009/04/23 12:00:31.5    -156   -280   -100    321    337 209.2 -17.3  34158  289.55 0855.07
2009/04/23 12:00:31.6     -91   -291    -39    306    309 197.4  -7.3  34162  289.59 0855.07
2009/04/23 12:00:31.7    -100   -312    -10    328    329 197.9  -1.8  34170  289.73 0855.07
2009/04/23 12:00:31.8    -107   -352    -72    369    377 196.9 -11.1  34168  289.72 0855.07
2009/04/23 12:00:31.9    -116   -257    -81    282    293 204.3 -20.7  34162  289.59 0855.07
2009/04/23 12:00:32.0      67   -255     27    264    266 165.1   5.9  34162  289.61 0855.07
2009/04/23 12:00:32.1      68   -313     43    321    324 167.7   7.8  34164  289.63 0855.07
2009/04/23 12:00:32.2      53   -315     37    320    323 170.3   6.6  34162  289.59 0855.07
2009/04/23 12:00:32.3      32   -295     41    297    300 173.8   8.0  34160  289.58 0855.07
2009/04/23 12:00:32.4      28   -287      8    289    290 174.4   1.6  34162  289.59 0855.07
2009/04/23 12:00:32.5     -40   -257    -33    261    264 188.9  -7.2  34160  289.58 0855.07
2009/04/23 12:00:32.6     -12   -219    -56    220    228 183.1 -14.3  34162  289.62 0855.07
2009/04/23 12:00:32.7     -27   -195    -70    197    210 188.0 -19.7  34162  289.62 0855.07
2009/04/23 12:00:32.8     -24   -177    -49    179    186 188.0 -15.5  34164  289.65 0855.07
2009/04/23 12:00:32.9     -25   -196    -65    198    208 187.3 -23.6  34154  289.48 0855.07
2009/04/23 12:00:33.0     -13   -201    -71    202    215 183.8 -19.4  34154  289.46 0855.07
2009/04/23 12:00:33.1     -17   -219    -52    220    227 184.7 -13.4  34154  289.46 0855.07
2009/04/23 12:00:33.2     -20   -205    -57    207    215 185.8 -15.4  34158  289.53 0855.07
2009/04/23 12:00:33.3       0   -209    -49    210    216 179.8 -13.3  34158  289.55 0855.07
2009/04/23 12:00:33.4      66   -223    -74    233    245 163.5 -17.6  34162  289.61 0855.06
2009/04/23 12:00:33.5      92   -224    -22    243    245 157.5  -5.2  34164  289.63 0855.06
2009/04/23 12:00:33.6      71   -230    -48    241    246 162.8 -11.3  34160  289.58 0855.06
2009/04/23 12:00:33.7      18   -238    -31    239    242 175.5  -7.5  34166  289.66 0855.06
2009/04/23 12:00:33.8      48   -211    -12    217    218 167.1  -3.3  34164  289.63 0855.06
2009/04/23 12:00:33.9      14   -184    -22    185    187 175.5  -6.9  34164  289.63 0855.06
2009/04/23 12:00:34.0      14   -178    -25    179    181 175.3  -8.2  34162  289.62 0855.06
2009/04/23 12:00:34.1      22   -172    -23    174    176 172.7  -7.7  34164  289.65 0855.06
2009/04/23 12:00:34.2       3   -146    -24    147    150 178.6  -9.3  34160  289.58 0855.06
2009/04/23 12:00:34.3     -22   -169    -35    171    175 187.6 -11.6  34160  289.58 0855.06
2009/04/23 12:00:34.4     -25   -184    -23    186    188 187.8  -7.3  34164  289.65 0855.06
2009/04/23 12:00:34.5     -10   -168    -33    169    173 183.4 -11.1  34164  289.63 0855.06
2009/04/23 12:00:34.6      30   -147     35    151    156 168.4  13.2  34166  289.67 0855.06
2009/04/23 12:00:34.7     -13   -174     24    175    177 184.4   8.0  34162  289.62 0855.06
2009/04/23 12:00:34.8      -3   -173     34    174    178 181.1  11.1  34164  289.63 0855.06
2009/04/23 12:00:34.9     -36   -180     34    184    188 191.3  10.6  34166  289.69 0855.06
2009/04/23 12:00:35.0     -55   -186     16    195    196 196.5   4.9  34166  289.69 0855.06
2009/04/23 12:00:35.1     -72   -163     21    179    181 203.8   6.7  34166  289.69 0855.06
2009/04/23 12:00:35.2     -68   -172      1    186    187 201.6   0.5  34168  289.72 0855.06
2009/04/23 12:00:35.3     -71   -175      9    189    190 202.1   2.8  34172  289.77 0855.06
2009/04/23 12:00:35.4     -76   -165    -11    182    183 204.9  -3.7  34170  289.74 0855.07
2009/04/23 12:00:35.5     -50   -180      1    187    188 195.6   0.5  34168  289.70 0855.07
2009/04/23 12:00:35.6     -43   -172     -3    178    179 194.0  -1.3  34166  289.67 0855.07
2009/04/23 12:00:35.7     -56   -168     -6    178    179 198.5  -2.2  34162  289.62 0855.07
2009/04/23 12:00:35.8     -65   -176     10    188    189 200.3   3.1  34166  289.67 0855.07
2009/04/23 12:00:35.9     -52   -176     40    184    189 196.7  12.4  34160  289.58 0855.07
2009/04/23 12:00:36.0     -50   -150     31    159    163 198.7  11.1  34164  289.63 0855.07
2009/04/23 12:00:36.1     -72   -141     -1    159    160 207.2  -0.7  34166  289.67 0855.07
2009/04/23 12:00:36.2     -57   -144     20    156    158 201.8   7.5  34162  289.60 0855.07
2009/04/23 12:00:36.3     -32   -141     18    145    147 192.9   7.1  34162  289.62 0855.07
2009/04/23 12:00:36.4     -24   -154     21    156    158 188.9   7.8  34160  289.58 0855.07
2009/04/23 12:00:36.5      -8   -166     -1    167    168 182.9  -0.5  34162  289.60 0855.07
2009/04/23 12:00:36.6     -15   -182     16    183    184 184.9   5.2  34162  289.62 0855.07
2009/04/23 12:00:36.7      12   -149     12    150    151 175.1   4.9  34162  289.60 0855.07
2009/04/23 12:00:36.8       0   -194     -7    195    196 179.8  -2.2  34164  289.63 0855.07
2009/04/23 12:00:36.9       9   -167      1    168    169 176.9   0.5  34162  289.60 0855.07
2009/04/23 12:00:37.0      21   -186     44    188    194 173.5  13.2  34160  289.57 0855.07
2009/04/23 12:00:37.1     -42   -205     37    210    214 191.6  10.1  34162  289.62 0855.07
2009/04/23 12:00:37.2     -11   -171     57    172    182 183.8  18.6  34164  289.65 0855.07
2009/04/23 12:00:37.3     -17   -112     31    114    119 188.9  15.3  34162  289.60 0855.07
2009/04/23 12:00:37.4      22   -133     71    135    152 170.3  29.8  34164  289.65 0855.08
2009/04/23 12:00:37.5      26   -184     67    186    197 171.8  20.7  34162  289.62 0855.08
2009/04/23 12:00:37.6      49   -150     79    158    176 161.7  28.2  34164  289.65 0855.08
2009/04/23 12:00:37.7      61   -129     89    143    168 154.5  35.2  34166  289.67 0855.08
2009/04/23 12:00:37.8      74   -146    112    164    198 153.0  37.6  34166  289.69 0855.08
2009/04/23 12:00:37.9      59   -153    104    165    195 158.8  35.5  34164  289.65 0855.08
2009/04/23 12:00:38.0      67   -157    112    171    204 156.8  36.0  34166  289.67 0855.08
2009/04/23 12:00:38.1      76   -149    134    168    214 152.8  43.0  34170  289.74 0855.08
2009/04/23 12:00:38.2      31   -152    123    156    198 168.5  42.2  34168  289.72 0855.08
2009/04/23 12:00:38.3      25   -128     88    131    157 168.9  37.0  34166  289.69 0855.08
2009/04/23 12:00:38.4      22   -107     51    110    121 168.0  26.6  34164  289.65 0855.08
2009/04/23 12:00:38.5      10   -114     46    115    123 174.7  23.0  34166  289.69 0855.08
2009/04/23 12:00:38.6      17   -121     29    123    127 172.0  13.2  34164  289.63 0855.08
2009/04/23 12:00:38.7      -2   -134     36    135    140 180.9  15.2  34166  289.67 0855.08
2009/04/23 12:00:38.8       3   -149     58    150    160 178.6  22.3  34166  289.67 0855.08
2009/04/23 12:00:38.9       9   -131     52    132    141 176.0  23.0  34164  289.65 0855.08
2009/04/23 12:00:39.0      13   -123     49    124    133 173.7  22.5  34168  289.70 0855.08
2009/04/23 12:00:39.1      20   -100     66    103    122 168.4  35.6  34168  289.72 0855.08
2009/04/23 12:00:39.2      16   -123     38    125    131 172.4  17.3  34168  289.70 0855.08
2009/04/23 12:00:39.3      -4   -142     27    143    146 181.8  11.0  34168  289.70 0855.08
2009/04/23 12:00:39.4       2   -138     -3    139    140 179.1  -1.3  34168  289.72 0855.08
2009/04/23 12:00:39.5      10   -122     -6    123    124 175.1  -3.1  34170  289.75 0855.08
2009/04/23 12:00:39.6      -8   -105    -20    106    108 184.4 -10.9  34168  289.72 0855.08
2009/04/23 12:00:39.7      -2   -134      0    135    136 180.9   0.2  34166  289.69 0855.08
2009/04/23 12:00:39.8     -24   -140      7    143    144 189.8   2.8  34166  289.69 0855.08
2009/04/23 12:00:39.9     -10   -137     -3    138    139 184.5  -1.3  34174  289.80 0855.08
2009/04/23 12:00:40.0     -18   -144     -8    146    147 187.1  -3.1  34174  289.82 0855.08
2009/04/23 12:00:40.1     -31   -172     -8    175    176 190.5  -2.8  34172  289.79 0855.08
2009/04/23 12:00:40.2     -12   -155     18    156    158 184.5   6.7  34166  289.69 0855.08
2009/04/23 12:00:40.3      -9   -126     14    127    128 184.5   6.5  34168  289.72 0855.08
2009/04/23 12:00:40.4       0   -100    -25    101    105 179.5 -13.9  34176  289.85 0855.08
2009/04/23 12:00:40.5       8   -102      5    103    104 175.1   2.9  34172  289.79 0855.08
2009/04/23 12:00:40.6      12   -114     38    115    122 173.8  18.4  34166  289.69 0855.08
2009/04/23 12:00:40.7      -1   -126     44    127    135 180.9  19.2  34166  289.69 0855.08
2009/04/23 12:00:40.8     -18   -103     42    105    113 190.2  23.0  34166  289.69 0855.08
2009/04/23 12:00:40.9     -22   -133     47    135    144 189.8  19.2  34166  289.67 0855.08
2009/04/23 12:00:41.0     -20   -117     40    119    126 189.8  18.9  34170  289.74 0855.08
2009/04/23 12:00:41.1      -8   -103     17    104    106 184.5   9.5  34172  289.77 0855.08
2009/04/23 12:00:41.2     -29   -100     18    105    107 196.5  10.1  34166  289.67 0855.08
2009/04/23 12:00:41.3     -24   -101     43    104    112 193.8  23.1  34164  289.65 0855.08
2009/04/23 12:00:41.4     -19    -79     56     82     99 193.4  38.0  34168  289.70 0855.07
2009/04/23 12:00:41.5     -42    -80     61     91    109 208.1  37.0  34168  289.70 0855.07
2009/04/23 12:00:41.6     -53    -97     65    111    128 209.0  33.5  34166  289.69 0855.07
2009/04/23 12:00:41.7     -78    -61     67    100    120 231.8  37.4  34168  289.72 0855.07
2009/04/23 12:00:41.8     -63    -88     71    109    130 215.6  36.0  34170  289.75 0855.07
2009/04/23 12:00:41.9     -55    -58     95     81    124 223.7  54.8  34172  289.79 0855.07
2009/04/23 12:00:42.0    -125    -17     39    127    134 262.0  17.3  34174  289.82 0855.07
2009/04/23 12:00:42.1    -116    -36     45    122    130 252.7  20.9  34178  289.87 0855.07
2009/04/23 12:00:42.2     -69    -61     92     93    130 228.2  50.0  34174  289.82 0855.07
2009/04/23 12:00:42.3     -71     58     93     92    130 309.1  50.1  34174  289.82 0855.07
2009/04/23 12:00:42.4    -111     37     -7    118    119 288.6  -3.7  34174  289.82 0855.07
2009/04/23 12:00:42.5     -80    -18    -24     83     86 257.2 -21.2  34174  289.80 0855.07
2009/04/23 12:00:42.6     -85    -36    -11     93     94 246.9  -7.3  34174  289.80 0855.07
2009/04/23 12:00:42.7     -86    -41     -3     96     97 244.6  -2.2  34172  289.79 0855.07
2009/04/23 12:00:42.8     -46    -31    -11     56     58 235.8 -11.3  34170  289.74 0855.07
2009/04/23 12:00:42.9     -24     -1     36     25     43 265.6  61.5  34172  289.77 0855.07
2009/04/23 12:00:43.0     -62     60     47     87     98 314.0  31.3  34184  289.97 0855.07
2009/04/23 12:00:43.1     -45     37     64     59     87 309.6  52.2  34180  289.92 0855.07
2009/04/23 12:00:43.2     -78    -26     45     83     94 251.6  31.4  34174  289.82 0855.07
2009/04/23 12:00:43.3    -113    -15     54    115    127 262.1  27.1  34178  289.87 0855.07
2009/04/23 12:00:43.4     -62    -43     54     76     93 234.9  39.1  34178  289.89 0855.08
2009/04/23 12:00:43.5     -33    -36     75     50     90 222.3  63.6  34178  289.87 0855.08
2009/04/23 12:00:43.6     -37    -78     76     87    115 205.4  45.4  34170  289.75 0855.08
2009/04/23 12:00:43.7     -45   -101     72    111    132 204.1  35.6  34172  289.77 0855.08
2009/04/23 12:00:43.8     -33    -99     45    105    114 198.5  24.1  34174  289.82 0855.08
2009/04/23 12:00:43.9      18    -77     52     80     95 166.6  35.6  34180  289.92 0855.08
2009/04/23 12:00:44.0      12    -81     73     82    109 171.5  46.4  34174  289.82 0855.08
2009/04/23 12:00:44.1     -36    -81     73     89    115 204.1  43.7  34166  289.67 0855.08
2009/04/23 12:00:44.2       0    -57     76     58     95 179.1  58.5  34176  289.84 0855.08
2009/04/23 12:00:44.3     -26    -75     94     80    123 199.2  54.8  34170  289.75 0855.08
2009/04/23 12:00:44.4     -67    -92     69    114    133 216.1  34.4  34164  289.65 0855.08
2009/04/23 12:00:44.5    -103    -97     70    142    158 226.9  28.2  34168  289.70 0855.08
2009/04/23 12:00:44.6    -159   -112    107    195    222 234.9  31.4  34176  289.84 0855.08
2009/04/23 12:00:44.7    -123   -125     57    176    186 224.5  18.1  34178  289.89 0855.08
2009/04/23 12:00:44.8     -77   -120     96    143    172 212.6  36.7  34176  289.84 0855.08
2009/04/23 12:00:44.9     -74   -107     35    131    136 214.7  15.3  34202  290.28 0855.08
2009/04/23 12:00:45.0     -62   -132     51    147    156 205.3  19.4  34192  290.13 0855.08
2009/04/23 12:00:45.1     -55   -160     16    170    171 199.2   5.4  34192  290.13 0855.08
2009/04/23 12:00:45.2     -59   -164     12    175    176 199.8   4.2  34184  289.97 0855.08
2009/04/23 12:00:45.3     -31   -146     57    150    160 192.0  21.5  34182  289.96 0855.08
2009/04/23 12:00:45.4     -35   -156     84    161    181 192.9  29.8  34180  289.91 0855.08
2009/04/23 12:00:45.5     -23   -113     53    116    127 191.5  26.2  34178  289.87 0855.08
2009/04/23 12:00:45.6     -40    -87     53     96    109 204.9  31.4  34180  289.92 0855.08
2009/04/23 12:00:45.7       1    -92     56     93    108 179.1  34.4  34176  289.85 0855.08
2009/04/23 12:00:45.8     -32    -81     17     88     90 201.8  11.1  34174  289.80 0855.08
2009/04/23 12:00:45.9       0    -71     27     72     76 180.0  20.0  34172  289.79 0855.08
2009/04/23 12:00:46.0     -45   -136     21    144    146 198.3   8.5  34174  289.82 0855.08
2009/04/23 12:00:46.1     -68   -168     33    182    185 202.1  10.3  34180  289.91 0855.08
2009/04/23 12:00:46.2     -55   -197     13    205    206 195.8   3.8  34206  290.35 0855.08
2009/04/23 12:00:46.3     -52   -181     51    189    196 196.0  15.3  34190  290.09 0855.08
2009/04/23 12:00:46.4     -84   -178     31    198    201 205.4   8.9  34196  290.19 0855.07
2009/04/23 12:00:46.5     -80   -177     -3    195    196 204.5  -1.2  34192  290.11 0855.07
2009/04/23 12:00:46.6     -87   -184      8    204    205 205.3   2.5  34182  289.94 0855.07
2009/04/23 12:00:46.7     -64   -197      0    208    209 198.0   0.2  34170  289.74 0855.07
2009/04/23 12:00:46.8     -33   -191    -29    195    198 190.0  -8.6  34174  289.80 0855.07
2009/04/23 12:00:46.9      -7   -184      0    185    186 182.2   0.2  34170  289.74 0855.07
2009/04/23 12:00:47.0     -14   -189     44    190    196 184.5  13.1  34168  289.72 0855.07
2009/04/23 12:00:47.1       3   -197     69    198    210 179.0  19.2  34170  289.75 0855.07
2009/04/23 12:00:47.2      28   -166     78    169    186 170.4  26.6  34178  289.87 0855.07
2009/04/23 12:00:47.3     -39   -131    104    137    172 197.0  41.2  34174  289.82 0855.07
2009/04/23 12:00:47.4     -81   -127      7    151    152 212.6   2.9  34184  289.99 0855.07
2009/04/23 12:00:47.5     -47   -104    -14    115    116 204.5  -7.3  34194  290.16 0855.07
2009/04/23 12:00:47.6     -66   -139     27    155    158 205.5   9.9  34184  289.97 0855.07
2009/04/23 12:00:47.7       7   -182    -10    183    184 177.5  -3.3  34192  290.11 0855.07
2009/04/23 12:00:47.8      34   -193      5    197    198 170.0   1.6  34168  289.72 0855.07
2009/04/23 12:00:47.9      30   -196     16    199    200 171.3   4.9  34170  289.74 0855.07
2009/04/23 12:00:48.0      32   -173      3    176    177 169.5   1.0  34168  289.72 0855.07
2009/04/23 12:00:48.1       2   -163     16    164    165 179.3   5.7  34168  289.70 0855.07
2009/04/23 12:00:48.2      -2   -157     -6    158    159 180.9  -2.2  34168  289.72 0855.07
2009/04/23 12:00:48.3      28   -133     49    137    145 168.0  20.0  34168  289.72 0855.07
2009/04/23 12:00:48.4      50   -138     44    148    155 159.9  16.8  34170  289.75 0855.07
2009/04/23 12:00:48.5      66   -149     13    164    165 155.9   4.6  34172  289.77 0855.07
2009/04/23 12:00:48.6      51   -149     12    158    159 160.8   4.6  34178  289.89 0855.07
2009/04/23 12:00:48.7      39   -156     12    162    163 165.7   4.2  34176  289.84 0855.07
2009/04/23 12:00:48.8      16   -173     33    174    178 174.7  10.8  34178  289.87 0855.07
2009/04/23 12:00:48.9      26   -183     13    185    186 171.8   4.2  34176  289.85 0855.07
2009/04/23 12:00:49.1      38   -201     -5    205    206 169.1  -1.6  34176  289.84 0855.07
2009/04/23 12:00:49.2     -14   -168     11    169    170 185.1   3.8  34174  289.82 0855.07
2009/04/23 12:00:49.3     -53   -133    -18    144    146 201.9  -7.2  34174  289.80 0855.07
2009/04/23 12:00:49.4       6   -147     38    148    153 177.3  14.7  34174  289.82 0855.07
2009/04/23 12:00:49.5     -56   -169     13    179    180 198.5   4.4  34182  289.96 0855.07
2009/04/23 12:00:49.6     -17   -146     -3    148    149 186.7  -1.3  34178  289.89 0855.07
2009/04/23 12:00:49.7      21   -121      5    123    124 169.8   2.3  34182  289.94 0855.07
2009/04/23 12:00:49.8     -38   -132    -22    138    140 196.0  -9.4  34202  290.30 0855.07
2009/04/23 12:00:49.9      28   -138     49    141    150 168.5  19.2  34186  290.02 0855.07
2009/04/23 12:00:50.0     -34   -157      0    161    162 192.5   0.2  34206  290.35 0855.07
2009/04/23 12:00:50.1     -13   -179    -51    180    188 184.2 -16.0  34210  290.41 0855.07
2009/04/23 12:00:50.2      -8   -200    -31    201    204 182.5  -8.8  34200  290.26 0855.07
2009/04/23 12:00:50.3      56   -167      9    177    178 161.5   2.9  34202  290.28 0855.07
2009/04/23 12:00:50.4      80   -167    -51    186    194 154.5 -15.5  34196  290.18 0855.07
2009/04/23 12:00:50.5      29   -150     24    153    155 168.9   9.0  34210  290.41 0855.06
2009/04/23 12:00:50.6     -10   -214     80    215    229 182.9  21.0  34218  290.55 0855.06
2009/04/23 12:00:50.7     -58   -242     48    249    254 193.6  11.1  34192  290.10 0855.06
2009/04/23 12:00:50.8     -60   -152     73    164    179 201.8  25.7  34176  289.85 0855.06
2009/04/23 12:00:50.9     -68   -116     90    135    162 210.3  37.0  34178  289.87 0855.06
2009/04/23 12:00:51.0     -22   -131     56    133    144 189.8  23.6  34188  290.06 0855.06
2009/04/23 12:00:51.1    -101   -138    -45    172    178 216.1 -14.7  34190  290.08 0855.06
2009/04/23 12:00:51.2     -45   -149     19    156    158 197.0   7.2  34212  290.45 0855.06
2009/04/23 12:00:51.3     -36   -134     74    139    157 195.1  30.1  34206  290.35 0855.06
2009/04/23 12:00:51.4     -34   -114     82    120    145 196.9  37.6  34196  290.19 0855.06
2009/04/23 12:00:51.5     -46   -101     65    112    129 204.5  32.9  34228  290.72 0855.06
2009/04/23 12:00:51.6     -31    -55     85     64    106 209.0  59.4  34208  290.38 0855.06
2009/04/23 12:00:51.7     -55     -8     75     56     93 261.2  59.4  34186  290.01 0855.06
2009/04/23 12:00:51.8     -55    -23     67     60     89 247.4  53.7  34180  289.92 0855.06
2009/04/23 12:00:51.9     -63    -63     82     90    121 225.0  47.5  34194  290.14 0855.06
2009/04/23 12:00:52.0    -158    -80     13    178    179 243.1   4.2  34216  290.52 0855.06
2009/04/23 12:00:52.1    -132   -163     11    211    212 219.0   3.1  34208  290.38 0855.06
2009/04/23 12:00:52.2    -139   -168     -4    219    220 219.6  -1.2  34200  290.25 0855.06
2009/04/23 12:00:52.3    -142   -160    -20    215    217 221.7  -5.4  34196  290.18 0855.06
2009/04/23 12:00:52.4    -119   -181    -10    217    218 213.4  -2.8  34182  289.94 0855.06
2009/04/23 12:00:52.5    -102   -185    -13    212    213 208.9  -3.7  34182  289.96 0855.05
2009/04/23 12:00:52.6     -64   -190      0    201    202 198.7   0.0  34182  289.96 0855.05
2009/04/23 12:00:52.7     -35   -174     35    178    182 191.6  11.1  34186  290.01 0855.05
2009/04/23 12:00:52.8     -31   -153     31    157    161 191.6  11.4  34186  290.02 0855.05
2009/04/23 12:00:52.9     -75   -157      0    175    176 205.6  -0.3  34182  289.96 0855.05
2009/04/23 12:00:53.0     -88   -128    -19    156    158 214.7  -7.2  34200  290.25 0855.05
2009/04/23 12:00:53.1     -75   -137      3    157    158 208.9   1.2  34200  290.26 0855.05
2009/04/23 12:00:53.2     -67   -136     -3    152    153 206.3  -1.3  34204  290.33 0855.05
2009/04/23 12:00:53.3     -49   -137     13    146    147 200.0   5.4  34214  290.48 0855.05
2009/04/23 12:00:53.4     -52   -129      6    140    141 201.8   2.8  34204  290.31 0855.05
2009/04/23 12:00:53.5     -43   -119      5    127    128 200.0   2.3  34186  290.01 0855.05
2009/04/23 12:00:53.6     -22    -99    -34    102    108 192.5 -18.7  34200  290.26 0855.05
2009/04/23 12:00:53.7     -16   -122    -36    124    129 187.6 -21.7  34196  290.19 0855.05
2009/04/23 12:00:53.8      21   -151      4    153    154 172.0   1.8  34184  289.99 0855.05
2009/04/23 12:00:53.9      40   -138     39    144    150 163.5  15.3  34192  290.11 0855.05
2009/04/23 12:00:54.0      -2   -178     85    179    198 180.9  27.3  34188  290.06 0855.05
2009/04/23 12:00:54.1      15   -194     91    195    215 175.5  27.1  34194  290.16 0855.05
2009/04/23 12:00:54.2      -7   -158    111    159    193 182.7  38.4  34186  290.01 0855.05
2009/04/23 12:00:54.3      -2   -154    119    155    195 181.0  41.6  34194  290.16 0855.05
2009/04/23 12:00:54.4     -13   -177     95    178    201 184.4  30.3  34192  290.13 0855.05
2009/04/23 12:00:54.5       3   -185     82    186    203 179.0  25.1  34186  290.01 0855.04
2009/04/23 12:00:54.6      -7   -180     66    181    192 182.5  20.4  34178  289.89 0855.04
2009/04/23 12:00:54.7     -44   -166     70    172    185 194.9  23.1  34186  290.02 0855.04
2009/04/23 12:00:54.8     -81   -178     92    196    216 204.5  27.1  34206  290.35 0855.04
2009/04/23 12:00:54.9     -80   -171     86    190    208 205.2  26.2  34208  290.38 0855.04
2009/04/23 12:00:55.0     -51   -156    115    165    201 198.0  38.4  34202  290.30 0855.04
2009/04/23 12:00:55.1     -30   -156    100    160    188 191.1  35.5  34190  290.09 0855.04
2009/04/23 12:00:55.2     -40   -192    120    197    230 191.8  34.4  34210  290.41 0855.04
2009/04/23 12:00:55.3     -18   -187     96    188    211 185.6  29.2  34186  290.02 0855.04
2009/04/23 12:00:55.4     -24   -224     90    226    243 186.3  22.8  34188  290.03 0855.04
2009/04/23 12:00:55.5     -15   -197     86    198    215 184.4  25.1  34188  290.06 0855.04
2009/04/23 12:00:55.6     -49   -218     76    224    237 192.9  18.9  34196  290.19 0855.04
2009/04/23 12:00:55.7     -42   -240     52    244    250 190.0  12.2  34188  290.03 0855.04
2009/04/23 12:00:55.8     -40   -205     47    209    215 191.1  12.9  34186  290.01 0855.04
2009/04/23 12:00:55.9     -24   -183     10    185    186 187.6   3.1  34182  289.96 0855.04
2009/04/23 12:00:56.0     -12   -181      0    182    183 184.0   0.2  34184  289.97 0855.04
2009/04/23 12:00:56.1     -22   -174      5    176    177 187.3   1.8  34186  290.02 0855.04
2009/04/23 12:00:56.2     -44   -164     20    170    172 195.1   6.7  34184  289.97 0855.04
2009/04/23 12:00:56.3     -55   -166      8    176    177 198.5   2.8  34182  289.94 0855.04
2009/04/23 12:00:56.4     -59   -201     29    210    213 196.5   8.0  34178  289.89 0855.04
2009/04/23 12:00:56.5     -58   -204     40    213    217 196.0  10.8  34176  289.84 0855.03
2009/04/23 12:00:56.6     -14   -234    108    235    258 183.6  26.4  34178  289.88 0855.03
2009/04/23 12:00:56.7     -30   -222     83    225    239 187.8  21.0  34176  289.85 0855.03
2009/04/23 12:00:56.8     -29   -206     72    209    222 188.2  19.2  34176  289.84 0855.03
2009/04/23 12:00:56.9     -59   -206     85    215    231 196.0  23.0  34178  289.87 0855.03
2009/04/23 12:00:57.0     -52   -208     77    215    228 194.0  20.4  34176  289.85 0855.03
2009/04/23 12:00:57.1      -3   -212     94    213    232 181.0  25.2  34180  289.91 0855.03
2009/04/23 12:00:57.2     -20   -265    118    266    290 184.4  25.3  34182  289.93 0855.03
2009/04/23 12:00:57.3     -19   -257     90    258    274 184.4  19.2  34180  289.90 0855.03
2009/04/23 12:00:57.4      -1   -230    108    231    255 180.5  27.0  34182  289.95 0855.03
2009/04/23 12:00:57.5      30   -211    126    214    248 171.9  33.4  34184  289.98 0855.03
2009/04/23 12:00:57.6      16   -210    114    211    239 175.5  30.6  34182  289.96 0855.03
2009/04/23 12:00:57.7     -15   -231     82    232    246 183.8  20.0  34180  289.90 0855.03
2009/04/23 12:00:57.8     -39   -225     73    229    241 190.0  17.7  34182  289.93 0855.03
2009/04/23 12:00:57.9     -44   -199     73    204    216 192.5  20.4  34178  289.89 0855.03
2009/04/23 12:00:58.0     -64   -185     72    196    208 199.2  21.0  34182  289.94 0855.03
2009/04/23 12:00:58.1     -67   -168     87    181    200 201.8  27.4  34182  289.96 0855.03
2009/04/23 12:00:58.2     -93   -116     88    149    173 218.7  33.7  34184  289.97 0855.03
2009/04/23 12:00:58.3     -70   -111     74    132    151 212.5  31.4  34186  290.02 0855.03
2009/04/23 12:00:58.4     -61   -129    106    143    178 205.5  40.1  34188  290.06 0855.03
2009/04/23 12:00:58.5     -14   -157    131    158    205 185.3  43.8  34184  289.99 0855.05
2009/04/23 12:00:58.6      74   -116    102    138    171 147.4  40.4  34178  289.89 0855.05
2009/04/23 12:00:58.7      77   -172     92    189    210 155.9  27.4  34178  289.87 0855.05
2009/04/23 12:00:58.8      93   -128    144    159    214 144.0  47.1  34178  289.87 0855.05
2009/04/23 12:00:58.9      41   -112    144    120    187 160.0  56.3  34176  289.84 0855.05
2009/04/23 12:00:59.0     111    -83    110    139    177 126.9  42.7  34178  289.87 0855.05
2009/04/23 12:00:59.1     121   -146    129    190    229 140.4  37.4  34174  289.82 0855.05
2009/04/23 12:00:59.2     124   -221     89    254    270 150.6  19.4  34178  289.86 0855.05
2009/04/23 12:00:59.3      94   -204    100    225    246 155.1  25.7  34176  289.83 0855.05
2009/04/23 12:00:59.4      49   -202    106    209    234 166.2  29.1  34176  289.84 0855.05
2009/04/23 12:00:59.5      59   -220     59    229    237 164.8  14.5  34176  289.85 0855.05
2009/04/23 12:00:59.6      58   -190     93    199    219 162.8  27.1  34170  289.74 0855.05
2009/04/23 12:00:59.7      96   -174    102    199    223 151.1  29.3  34174  289.80 0855.05
2009/04/23 12:00:59.8     105   -190     59    218    227 151.0  15.3  34172  289.77 0855.05
2009/04/23 12:00:59.9     111   -188    120    219    249 149.3  31.0  34172  289.78 0855.05
2009/04/23 12:01:00.0     113   -134    123    176    214 139.9  38.0  34170  289.75 0855.05
2009/04/23 12:01:00.1      88   -146    125    171    211 148.8  39.7  34172  289.77 0855.05
2009/04/23 12:01:00.2     128   -153    137    200    242 140.1  37.6  34172  289.79 0855.05
2009/04/23 12:01:00.3      96   -203    145    225    267 154.7  35.6  34172  289.78 0855.05
2009/04/23 12:01:00.4      75   -221    108    234    257 161.1  26.6  34172  289.78 0855.05
2009/04/23 12:01:00.5     119   -177    110    214    240 146.2  29.3  34174  289.80 0855.06
2009/04/23 12:01:00.6     104   -179    106    208    233 149.9  29.2  34174  289.82 0855.06
2009/04/23 12:01:00.7     150   -122    101    194    218 129.3  29.5  34172  289.77 0855.06
2009/04/23 12:01:00.8     130   -149     70    198    211 138.8  19.6  34172  289.77 0855.06
2009/04/23 12:01:00.9     108   -114     63    158    170 136.7  22.5  34172  289.77 0855.06
2009/04/23 12:01:01.0     113    -38    100    120    156 108.6  44.3  34176  289.84 0855.06
2009/04/23 12:01:01.1     104    -52     91    117    148 116.6  41.7  34178  289.89 0855.06
2009/04/23 12:01:01.2      86    -25     70     90    114 106.4  42.2  34176  289.85 0855.06
2009/04/23 12:01:01.3      77    -44     49     89    101 119.8  31.4  34178  289.87 0855.06
2009/04/23 12:01:01.4      50     -3     52     51     72  93.5  49.1  34180  289.91 0855.06
2009/04/23 12:01:01.5      46    -32     51     57     76 125.1  47.9  34178  289.89 0855.06
2009/04/23 12:01:01.6      52    -21     57     57     80 112.6  50.1  34182  289.96 0855.06
2009/04/23 12:01:01.7      38    -46     67     61     90 140.4  52.7  34180  289.92 0855.06
2009/04/23 12:01:01.8      98    -60     69    115    134 121.5  34.4  34176  289.85 0855.06
2009/04/23 12:01:01.9      60    -80     76    101    126 143.0  40.7  34176  289.84 0855.06
2009/04/23 12:01:02.0      63   -106     54    124    135 149.2  25.1  34174  289.80 0855.06
2009/04/23 12:01:02.1     104   -104     12    148    149 135.1   4.9  34172  289.79 0855.06
2009/04/23 12:01:02.2      97   -117     -6    153    154 140.3  -2.2  34174  289.80 0855.06
2009/04/23 12:01:02.3      46   -101     63    112    128 155.5  31.9  34168  289.72 0855.06
2009/04/23 12:01:02.4      82    -88     78    121    143 137.2  35.6  34172  289.79 0855.06
2009/04/23 12:01:02.5      78    -78    104    111    152 135.3  48.0  34174  289.80 0855.04
2009/04/23 12:01:02.6      94    -35    112    101    150 110.4  53.3  34176  289.84 0855.04
2009/04/23 12:01:02.7     105    -34     94    111    145 108.2  44.3  34174  289.82 0855.04
2009/04/23 12:01:02.8     105    -50    100    117    153 115.8  44.8  34176  289.84 0855.04
2009/04/23 12:01:02.9      96    -74     90    122    151 127.8  39.7  34176  289.84 0855.04
2009/04/23 12:01:03.0      74    -53     62     92    110 125.5  37.0  34176  289.84 0855.04
2009/04/23 12:01:03.1      72    -56     54     92    106 127.8  33.5  34174  289.82 0855.04
2009/04/23 12:01:03.2      32    -76     40     83     92 156.8  27.2  34178  289.87 0855.04
2009/04/23 12:01:03.3      59    -72     61     94    112 140.4  35.6  34176  289.84 0855.04
2009/04/23 12:01:03.4      38    -78     64     87    108 153.7  40.1  34178  289.87 0855.04
2009/04/23 12:01:03.5      34   -111     70    117    136 163.1  34.0  34180  289.92 0855.04
2009/04/23 12:01:03.6      33   -101     60    107    122 161.7  31.4  34180  289.91 0855.04
2009/04/23 12:01:03.7      25   -110     47    113    122 167.1  23.6  34180  289.91 0855.04
2009/04/23 12:01:03.8      20   -121     55    123    134 170.2  25.7  34178  289.89 0855.04
2009/04/23 12:01:03.9      34   -107     81    113    139 162.2  39.5  34176  289.85 0855.04
2009/04/23 12:01:04.0      22   -123     77    126    147 169.8  35.0  34180  289.91 0855.04
2009/04/23 12:01:04.1      10   -132     85    133    157 175.6  35.7  34178  289.89 0855.04
2009/04/23 12:01:04.2      19   -133     87    135    160 171.9  36.0  34184  289.97 0855.04
2009/04/23 12:01:04.3      16   -166     99    167    194 174.4  33.7  34182  289.94 0855.04
2009/04/23 12:01:04.4      36   -160     96    165    190 167.3  32.9  34180  289.92 0855.04
2009/04/23 12:01:04.5      56   -146    102    157    187 159.1  35.7  34180  289.91 0855.02
2009/04/23 12:01:04.6      43   -204     90    209    227 168.0  24.9  34178  289.87 0855.02
2009/04/23 12:01:04.7      49   -220    129    226    260 167.3  32.3  34174  289.81 0855.02
2009/04/23 12:01:04.8      92   -251    117    268    292 159.9  25.1  34174  289.80 0855.02
2009/04/23 12:01:04.9      15   -268    110    269    290 176.6  23.4  34174  289.81 0855.02
2009/04/23 12:01:05.0      65   -202    106    213    237 162.0  28.2  34170  289.75 0855.02
2009/04/23 12:01:05.1      54   -345     76    350    359 171.1  12.3  34176  289.84 0855.02
2009/04/23 12:01:05.2      92   -294     62    309    316 162.6  11.4  34168  289.71 0855.02
2009/04/23 12:01:05.3     149   -291     98    328    343 152.8  16.6  34172  289.77 0855.02
2009/04/23 12:01:05.4     164   -296    120    339    360 151.0  19.6  34172  289.79 0855.02
2009/04/23 12:01:05.5      91   -300    117    314    335 163.1  21.4  34174  289.80 0855.01
2009/04/23 12:01:05.6      87   -339    112    351    369 165.6  17.7  34178  289.86 0855.01
2009/04/23 12:01:05.7      42   -337    111    340    358 172.9  18.1  34174  289.81 0855.01
2009/04/23 12:01:05.8     100   -289    100    307    324 160.8  18.1  34174  289.80 0855.01
2009/04/23 12:01:05.9      58   -287    109    294    313 168.4  21.4  34172  289.78 0855.01
2009/04/23 12:01:06.0     108   -269    121    291    315 158.1  23.9  34172  289.78 0855.01
2009/04/23 12:01:06.1     143   -279     24    314    315 152.8   4.4  34176  289.83 0855.01
2009/04/23 12:01:06.2     111   -327     75    346    355 161.2  12.3  34162  289.59 0855.01
2009/04/23 12:01:06.3     192   -378     43    425    428 153.0   5.9  34166  289.66 0855.01
2009/04/23 12:01:06.4     102   -401     60    414    419 165.7   8.3  34164  289.65 0855.01
2009/04/23 12:01:06.5     127   -393     91    414    425 162.1  12.5  34162  289.61 0855.01
2009/04/23 12:01:06.6      60   -439     31    444    446 172.2   4.0  34166  289.66 0855.01
2009/04/23 12:01:06.7      83   -453     47    461    464 169.5   5.9  34162  289.61 0855.01
2009/04/23 12:01:06.8      53   -480     29    484    485 173.7   3.5  34162  289.61 0855.01
2009/04/23 12:01:06.9      60   -391    124    396    416 171.2  17.4  34168  289.70 0855.01
2009/04/23 12:01:07.0      37   -407    111    409    424 174.7  15.2  34168  289.72 0855.01
2009/04/23 12:01:07.1      30   -382     70    384    391 175.4  10.4  34166  289.69 0855.01
2009/04/23 12:01:07.2       4   -398    -15    399    400 179.3  -2.2  34168  289.71 0855.01
2009/04/23 12:01:07.3      21   -424    -38    425    427 177.1  -5.2  34166  289.66 0855.01
2009/04/23 12:01:07.4      67   -467   -112    472    486 171.8 -13.4  34146  289.34 0855.01
2009/04/23 12:01:07.5      66   -531   -126    536    551 172.9 -13.3  34146  289.35 0855.00
2009/04/23 12:01:07.6      54   -500   -142    504    524 173.8 -15.8  34150  289.39 0855.00
2009/04/23 12:01:07.7      89   -472   -133    481    500 169.3 -15.5  34146  289.32 0855.00
2009/04/23 12:01:07.8     -39   -361    -46    364    367 186.2  -7.2  34158  289.55 0855.00
2009/04/23 12:01:07.9      30   -480   -122    481    497 176.4 -14.3  34146  289.35 0855.00
2009/04/23 12:01:08.0     127   -540    -43    555    557 166.7  -4.5  34142  289.28 0855.00
2009/04/23 12:01:08.1      20   -508   -111    509    522 177.7 -12.4  34152  289.42 0855.00
2009/04/23 12:01:08.2      79   -458    -67    465    470 170.2  -8.3  34146  289.35 0855.00
2009/04/23 12:01:08.3      41   -440    -41    443    446 174.7  -5.3  34150  289.39 0855.00
2009/04/23 12:01:08.4      10   -415    -23    416    417 178.6  -3.3  34152  289.43 0855.00
2009/04/23 12:01:08.5      -4   -395     11    396    397 180.6   1.7  34156  289.50 0855.00
2009/04/23 12:01:08.6      25   -357     -3    358    359 175.9  -0.6  34152  289.45 0855.00
2009/04/23 12:01:08.7      10   -362     36    363    365 178.3   5.8  34158  289.54 0855.00
2009/04/23 12:01:08.8      20   -384     31    385    387 177.0   4.7  34166  289.69 0855.00
2009/04/23 12:01:08.9      45   -365    -25    368    369 172.9  -4.0  34148  289.38 0855.00
2009/04/23 12:01:09.0      70   -340    -32    348    350 168.3  -5.4  34146  289.35 0855.00
2009/04/23 12:01:09.1       9   -290     95    291    307 178.2  18.1  34156  289.49 0855.00
2009/04/23 12:01:09.2     -50   -355    130    359    381 188.1  20.7  34162  289.60 0855.00
2009/04/23 12:01:09.3     -63   -333    150    340    371 190.8  25.2  34164  289.65 0855.00
2009/04/23 12:01:09.4     -47   -281    104    286    304 189.6  20.9  34184  289.98 0855.00
2009/04/23 12:01:09.5      14   -301      2    302    303 177.3   0.5  34172  289.78 0855.00
2009/04/23 12:01:09.6      59   -302    -22    308    309 168.9  -4.1  34174  289.81 0855.00
2009/04/23 12:01:09.7      61   -300    -17    307    308 168.4  -3.2  34156  289.49 0855.00
2009/04/23 12:01:09.8      36   -260     78    263    275 172.0  16.6  34176  289.83 0855.00
2009/04/23 12:01:09.9     -23   -300    119    301    323 184.5  22.8  34168  289.70 0855.00
2009/04/23 12:01:10.0     -53   -315    160    320    357 189.7  28.6  34152  289.45 0855.00
2009/04/23 12:01:10.1      95   -326    140    340    367 163.7  23.6  34148  289.38 0855.00
2009/04/23 12:01:10.2     102   -285     53    303    308 160.2  10.0  34154  289.46 0855.00
2009/04/23 12:01:10.3     181   -273     13    328    329 146.4   2.3  34170  289.73 0855.00
2009/04/23 12:01:10.4     167   -298    -30    342    344 150.7  -5.1  34148  289.38 0855.00
2009/04/23 12:01:10.5     144   -256    -16    295    296 150.6  -3.1  34150  289.39 0855.00
2009/04/23 12:01:10.6     136   -273     47    306    310 153.5   8.9  34148  289.37 0855.00
2009/04/23 12:01:10.7     175   -228     50    288    293 142.4  10.0  34148  289.37 0855.00
2009/04/23 12:01:10.8     126   -197    -22    234    236 147.4  -5.4  34150  289.41 0855.00
2009/04/23 12:01:10.9      91   -206     -4    226    227 156.2  -1.1  34154  289.46 0855.00
2009/04/23 12:01:11.0      80   -157      9    177    178 152.8   3.1  34148  289.38 0855.00
2009/04/23 12:01:11.1      89   -221    140    239    276 158.1  33.1  34152  289.44 0855.00
2009/04/23 12:01:11.2      48   -162    166    170    237 163.3  49.4  34156  289.50 0855.00
2009/04/23 12:01:11.3     111   -170    203    204    287 146.8  50.0  34160  289.58 0855.00
2009/04/23 12:01:11.4     215   -214    207    304    367 134.8  37.6  34162  289.59 0855.00
2009/04/23 12:01:11.5      86   -353    273    364    455 166.2  40.6  34158  289.55 0855.03
2009/04/23 12:01:11.6      -2   -300    274    301    407 180.5  47.0  34168  289.72 0855.03
2009/04/23 12:01:11.7      24   -238    230    240    332 174.0  48.7  34172  289.78 0855.03
2009/04/23 12:01:11.8      47    -99    223    110    248 154.6  71.9  34174  289.80 0855.03
2009/04/23 12:01:11.9      54    -13    152     56    161 104.2  79.2  34172  289.77 0855.03
2009/04/23 12:01:12.0      29   -228    132    230    265 172.7  32.4  34156  289.49 0855.03
2009/04/23 12:01:12.1       4   -264    143    265    301 179.1  31.0  34156  289.51 0855.03
2009/04/23 12:01:12.2      84   -375     72    385    392 167.3  10.6  34158  289.54 0855.03
2009/04/23 12:01:12.3     100   -362    101    376    390 164.5  15.1  34158  289.54 0855.03
2009/04/23 12:01:12.4     128   -366     77    388    396 160.7  11.3  34158  289.54 0855.03
2009/04/23 12:01:12.5     100   -324     32    340    342 162.8   5.4  34162  289.60 0855.03
2009/04/23 12:01:12.6     120   -340     84    361    371 160.4  13.1  34162  289.59 0855.03
2009/04/23 12:01:12.7     129   -293    130    321    346 156.3  23.2  34156  289.52 0855.03
2009/04/23 12:01:12.8     127   -288    104    315    332 156.2  18.4  34158  289.54 0855.03
2009/04/23 12:01:12.9      67   -245    112    255    278 164.6  25.2  34160  289.58 0855.03
2009/04/23 12:01:13.0      59   -220     81    228    241 164.9  20.0  34160  289.58 0855.03
2009/04/23 12:01:13.1      41   -204     37    209    213 168.7  10.1  34160  289.57 0855.03
2009/04/23 12:01:13.2      46   -226      3    231    232 168.4   0.8  34162  289.62 0855.03
2009/04/23 12:01:13.3      12   -158     30    159    162 175.6  10.8  34166  289.67 0855.03
2009/04/23 12:01:13.4      33   -144     85    148    170 167.1  32.4  34162  289.62 0855.03
2009/04/23 12:01:13.5      31    -83     74     89    115 159.5  43.8  34164  289.65 0855.05
2009/04/23 12:01:13.6      85    -86     26    122    125 135.5  12.2  34166  289.69 0855.05
2009/04/23 12:01:13.7      88      1     66     89    110  88.7  40.1  34166  289.69 0855.05
2009/04/23 12:01:13.8      -7    -51     74     52     90 188.0  61.5  34172  289.77 0855.05
2009/04/23 12:01:13.9      -3   -175     58    176    186 181.1  18.4  34160  289.58 0855.05
2009/04/23 12:01:14.0     -49   -198     80    205    220 194.0  22.5  34166  289.67 0855.05
2009/04/23 12:01:14.1     -27   -158     45    161    168 190.0  15.8  34162  289.62 0855.05
2009/04/23 12:01:14.2     -39   -143     42    149    155 195.2  15.8  34160  289.58 0855.05
2009/04/23 12:01:14.3     -15   -154      7    155    156 185.8   2.8  34160  289.58 0855.05
2009/04/23 12:01:14.4      10   -179     11    180    181 176.6   3.6  34156  289.52 0855.05
2009/04/23 12:01:14.5      41   -163     48    169    176 165.7  16.0  34156  289.52 0855.05
2009/04/23 12:01:14.6      21   -127     47    129    137 170.2  21.0  34162  289.60 0855.05
2009/04/23 12:01:14.7       0   -139     60    140    152 180.4  24.6  34160  289.57 0855.05
2009/04/23 12:01:14.8       9   -123     51    124    134 175.5  23.1  34160  289.57 0855.05
2009/04/23 12:01:14.9       7   -108     65    109    126 176.0  33.5  34158  289.53 0855.05
2009/04/23 12:01:15.0       0   -115     39    116    123 180.0  18.9  34162  289.60 0855.05
2009/04/23 12:01:15.1       5   -108     66    109    127 177.3  34.0  34168  289.72 0855.05
2009/04/23 12:01:15.2       2   -107     82    108    135 178.6  41.6  34170  289.74 0855.05
2009/04/23 12:01:15.3     -22   -131    108    133    171 189.8  43.5  34166  289.67 0855.05
2009/04/23 12:01:15.4      12    -74    108     76    132 170.2  61.5  34166  289.69 0855.05
2009/04/23 12:01:15.5      22    -47     55     53     76 154.5  50.1  34166  289.67 0855.06
2009/04/23 12:01:15.6     -51    -78     45     94    104 213.4  27.3  34164  289.65 0855.06
2009/04/23 12:01:15.7     -73   -140    134    158    207 207.6  44.5  34168  289.70 0855.06
2009/04/23 12:01:15.8      20   -218     75    220    233 174.7  18.9  34166  289.67 0855.06
2009/04/23 12:01:15.9     103   -203    131    228    262 152.9  32.4  34170  289.73 0855.06
2009/04/23 12:01:16.0      65   -205     76    216    228 162.4  20.0  34170  289.74 0855.06
2009/04/23 12:01:16.1      74   -179     39    194    198 157.5  11.4  34174  289.80 0855.06
2009/04/23 12:01:16.2      91   -132    -10    161    162 145.5  -3.7  34168  289.70 0855.06
2009/04/23 12:01:16.3     -32   -158    125    162    204 191.6  41.6  34170  289.75 0855.06
2009/04/23 12:01:16.4     -37    -93     67    101    121 201.8  37.0  34184  289.97 0855.06
2009/04/23 12:01:16.5      38    -28     44     48     65 126.0  47.9  34182  289.94 0855.06
2009/04/23 12:01:16.6      63    -17     65     66     92 105.1  50.5  34196  290.19 0855.06
2009/04/23 12:01:16.7     131    -17     79    133    154  97.5  34.0  34226  290.69 0855.06
2009/04/23 12:01:16.9      83     -5     28     84     89  93.5  18.9  34228  290.72 0855.06
2009/04/23 12:01:17.0      32      4    -18     33     37  82.1 -35.8  34234  290.84 0855.06
2009/04/23 12:01:17.1     214     -2     74    215    228  90.6  19.2  34238  290.91 0855.06
2009/04/23 12:01:17.2     220     92     60    239    247  67.3  14.2  34266  291.36 0855.06
2009/04/23 12:01:17.3     171    156     79    232    246  47.6  18.9  34272  291.46 0855.06
2009/04/23 12:01:17.4     176    182     49    254    259  44.1  11.0  34252  291.14 0855.06
2009/04/23 12:01:17.5     158    129     94    205    225  50.7  26.6  34256  291.20 0855.06
2009/04/23 12:01:17.6     242     20     68    243    253  85.2  15.8  34256  291.21 0855.07
2009/04/23 12:01:17.7     269      8     42    270    274  88.3   8.9  34244  290.99 0855.07
2009/04/23 12:01:17.8     227    134     90    264    280  59.4  18.9  34210  290.41 0855.07
2009/04/23 12:01:17.9     249     39    218    253    333  81.0  45.1  34240  290.92 0855.07
2009/04/23 12:01:18.0     275      6     91    276    291  88.7  18.4  34224  290.66 0855.07
2009/04/23 12:01:18.1     283     -4    100    284    302  90.8  19.5  34212  290.44 0855.07
2009/04/23 12:01:18.2     218    -86     29    235    237 111.5   7.2  34224  290.66 0855.07
2009/04/23 12:01:18.3     201    -74     40    215    219 110.2  10.6  34222  290.62 0855.07
2009/04/23 12:01:18.4     230      6     45    231    236  88.3  11.1  34206  290.34 0855.07
2009/04/23 12:01:18.5     198     -3     55    199    207  90.9  15.6  34192  290.13 0855.07
2009/04/23 12:01:18.6     217      3     81    218    232  89.1  21.0  34184  289.99 0855.07
2009/04/23 12:01:18.7     225     -8     96    226    245  92.1  24.6  34192  290.12 0855.07
2009/04/23 12:01:18.8     202     24     71    204    217  83.0  19.2  34188  290.06 0855.07
2009/04/23 12:01:18.9     345     72    110    353    370  78.2  17.3  34192  290.11 0855.07
2009/04/23 12:01:19.0     310    105    102    328    344  71.3  17.4  34210  290.42 0855.07
2009/04/23 12:01:19.1     309    159    152    348    379  62.7  25.1  34238  290.88 0855.07
2009/04/23 12:01:19.2     295    168    119    340    360  60.3  20.0  34244  291.00 0855.07
2009/04/23 12:01:19.3     244    134     95    279    296  61.1  18.9  34248  291.05 0855.07
2009/04/23 12:01:19.4     216    237     86    321    333  42.3  15.1  34248  291.05 0855.07
2009/04/23 12:01:19.5     291    177    117    341    361  58.7  19.1  34228  290.74 0855.07
2009/04/23 12:01:19.6     282    222    125    359    381  51.8  19.2  34216  290.52 0855.07
2009/04/23 12:01:19.7     281    245    112    374    391  48.9  16.7  34206  290.35 0855.07
2009/04/23 12:01:19.8     270    210    101    343    358  52.1  16.5  34210  290.43 0855.07
2009/04/23 12:01:19.9     258    238     69    352    359  47.3  11.1  34216  290.52 0855.07
2009/04/23 12:01:20.0     213    217     47    305    309  44.5   8.9  34216  290.51 0855.07
2009/04/23 12:01:20.1     110    200    173    229    287  28.7  40.9  34216  290.53 0855.07
2009/04/23 12:01:20.2      75    189    117    204    235  21.6  32.3  34212  290.47 0855.07
2009/04/23 12:01:20.3      60    156    116    168    204  21.2  37.8  34212  290.47 0855.07
2009/04/23 12:01:20.4      34    178     82    182    199  10.9  25.9  34222  290.64 0855.07
2009/04/23 12:01:20.5     102    140     71    174    187  36.3  23.1  34210  290.43 0855.07
2009/04/23 12:01:20.6      71    126     71    145    161  29.4  28.0  34208  290.40 0855.07
2009/04/23 12:01:20.7      57    124     46    137    145  24.9  18.9  34210  290.41 0855.07
2009/04/23 12:01:20.8      67    144     50    159    167  24.9  17.7  34212  290.45 0855.07
2009/04/23 12:01:20.9      41    122     30    129    133  18.7  13.1  34200  290.26 0855.07
2009/04/23 12:01:21.0      64     75     51     99    111  40.5  29.3  34202  290.30 0855.07
2009/04/23 12:01:21.1      30     64     -3     72     73  25.5  -3.1  34196  290.18 0855.07
2009/04/23 12:01:21.2      13     41     92     44    101  17.8  72.9  34196  290.19 0855.07
2009/04/23 12:01:21.3      52     53    104     75    128  44.2  60.6  34196  290.18 0855.07
2009/04/23 12:01:21.4      21     37     21     43     47  29.9  28.2  34198  290.23 0855.07
2009/04/23 12:01:21.5      91     34    -27     98    102  69.6 -15.5  34198  290.21 0855.07
2009/04/23 12:01:21.6     150     50    -14    159    160  71.4  -5.2  34196  290.19 0855.08
2009/04/23 12:01:21.7      87     87     54    124    135  45.0  25.1  34202  290.30 0855.08
2009/04/23 12:01:21.8     -86    134     93    160    185 327.4  32.9  34250  291.09 0855.08
2009/04/23 12:01:21.9      13    176     98    177    202   4.2  31.4  34218  290.57 0855.08
2009/04/23 12:01:22.0     102    194     22    220    222  27.6   5.9  34202  290.28 0855.08
2009/04/23 12:01:22.1      47    201     15    207    208  13.3   4.2  34220  290.58 0855.08
2009/04/23 12:01:22.2      66    163     87    176    196  22.1  28.2  34212  290.45 0855.08
2009/04/23 12:01:22.3      63    169    117    181    215  20.7  35.7  34210  290.43 0855.08
2009/04/23 12:01:22.4      53    182     22    190    192  16.3   6.9  34210  290.41 0855.08
2009/04/23 12:01:22.5      32    260    181    263    319   7.1  37.8  34224  290.65 0855.08
2009/04/23 12:01:22.6      35    249    157    252    296   8.1  35.0  34218  290.56 0855.08
2009/04/23 12:01:22.7      76    139    155    159    222  28.9  49.4  34208  290.38 0855.08
2009/04/23 12:01:22.8     228    155    142    276    310  55.8  29.3  34220  290.58 0855.08
2009/04/23 12:01:22.9     122    150    147    194    243  39.2  40.7  34220  290.60 0855.08
2009/04/23 12:01:23.0     -12    160    164    161    229 355.6  50.2  34216  290.53 0855.08
2009/04/23 12:01:23.1     -11    185    180    186    258 356.4  49.0  34224  290.66 0855.08
2009/04/23 12:01:23.2    -130    246     97    279    296 332.1  19.2  34250  291.09 0855.08
2009/04/23 12:01:23.3    -157    232     38    281    284 325.9   7.8  34244  291.00 0855.08
2009/04/23 12:01:23.4    -165    226     43    281    285 323.9   8.8  34238  290.90 0855.08
2009/04/23 12:01:23.5     -91    239     78    256    268 339.1  17.1  34280  291.61 0855.08
2009/04/23 12:01:23.6     -16    153    172    154    230 353.8  53.5  34250  291.09 0855.08
2009/04/23 12:01:23.7     112    169    177    204    270  33.6  45.4  34270  291.44 0855.08
2009/04/23 12:01:23.8     144    180    168    231    285  38.7  39.7  34282  291.63 0855.08
2009/04/23 12:01:23.9     132    195    222    236    324  34.2  48.2  34288  291.75 0855.08
2009/04/23 12:01:24.0     124    195    194    232    302  32.5  43.8  34306  292.04 0855.08
2009/04/23 12:01:24.1      24    214    199    216    293   6.5  47.9  34268  291.41 0855.08
2009/04/23 12:01:24.2     128    159    190    205    279  38.7  47.9  34270  291.43 0855.08
2009/04/23 12:01:24.3     195    235    222    306    378  39.7  39.7  34284  291.68 0855.08
2009/04/23 12:01:24.4     474    391    218    615    652  50.5  20.3  34206  290.35 0855.08
2009/04/23 12:01:24.5     505    315     94    596    604  58.0   9.0  34220  290.59 0855.08
2009/04/23 12:01:24.6     516    237    202    569    605  65.3  19.6  34240  290.92 0855.08
2009/04/23 12:01:24.7     572    322    346    657    742  60.6  30.0  34202  290.28 0855.08
2009/04/23 12:01:24.8     547    474    287    724    778  49.1  22.8  34150  289.41 0855.08
2009/04/23 12:01:24.9     803    434    317    913    967  61.6  19.2  34172  289.79 0855.08
2009/04/23 12:01:25.0     762    595    289    968   1011  52.0  16.6  34138  289.20 0855.08
2009/04/23 12:01:25.1     650    617     28    897    898  46.5   1.8  34142  289.28 0855.08
2009/04/23 12:01:25.2     429    547     72    696    700  38.1   6.0  34146  289.32 0855.08
2009/04/23 12:01:25.3      70    704    -26    708    709   5.7  -2.1  34156  289.49 0855.08
2009/04/23 12:01:25.4     227    650    138    689    703  19.3  11.3  34150  289.39 0855.08
2009/04/23 12:01:25.5     323    524     90    616    623  31.6   8.3  34136  289.18 0855.08
2009/04/23 12:01:25.6     392    506    -31    641    642  37.8  -2.8  34144  289.30 0855.08
2009/04/23 12:01:25.7     258    426     -6    499    500  31.2  -0.7  34142  289.25 0855.08
2009/04/23 12:01:25.8     187    395    -55    438    442  25.3  -7.2  34148  289.36 0855.08
2009/04/23 12:01:25.9     100    459   -166    471    500  12.4 -19.4  34156  289.49 0855.08
2009/04/23 12:01:26.0     170    360   -155    399    428  25.3 -26.7  34164  289.63 0855.08
2009/04/23 12:01:26.1      27    217   -145    219    262   7.1 -40.9  34170  289.73 0855.08
2009/04/23 12:01:26.2     100    226   -132    248    280  23.8 -34.7  34166  289.66 0855.08
2009/04/23 12:01:26.3      76    204   -176    218    280  20.5 -47.7  34172  289.78 0855.08
2009/04/23 12:01:26.4     132    273   -150    304    338  25.9 -32.6  34182  289.93 0855.08
2009/04/23 12:01:26.5     113    379   -135    396    419  16.6 -18.9  34176  289.85 0855.08
2009/04/23 12:01:26.6     112    398    -16    414    415  15.8  -2.2  34150  289.41 0855.09
2009/04/23 12:01:26.7    -201    335    -52    391    395 329.0  -7.6  34144  289.30 0855.09
2009/04/23 12:01:26.8    -311    436   -138    536    554 324.5 -14.5  34140  289.23 0855.09
2009/04/23 12:01:26.9    -271    462    -96    536    545 329.6 -10.2  34138  289.19 0855.09
2009/04/23 12:01:27.0    -251    362   -121    441    458 325.3 -15.4  34136  289.16 0855.09
2009/04/23 12:01:27.1    -257    299    -66    395    401 319.4  -9.5  34136  289.18 0855.09
2009/04/23 12:01:27.2    -133    224    -27    261    263 329.3  -6.0  34140  289.24 0855.09
2009/04/23 12:01:27.3      84    372   -178    382    421  12.8 -31.5  34132  289.11 0855.09
2009/04/23 12:01:27.4     -13    264   -277    265    383 357.1 -55.9  34142  289.25 0855.09
2009/04/23 12:01:27.5     242    275   -191    367    413  41.3 -34.0  34136  289.15 0855.09
2009/04/23 12:01:27.6     319    132   -140    346    373  67.5 -27.5  34142  289.25 0855.09
2009/04/23 12:01:27.7     285     34     30    288    290  83.0   6.0  34138  289.20 0855.09
2009/04/23 12:01:27.8     187   -130    -70    228    238 124.9 -22.1  34136  289.17 0855.09
2009/04/23 12:01:27.9     207    114   -132    237    271  61.2 -35.8  34140  289.24 0855.09
2009/04/23 12:01:28.0     331    246    -69    413    419  53.4  -9.6  34140  289.22 0855.09
2009/04/23 12:01:28.1     416    110    108    431    445  75.1  14.2  34140  289.22 0855.09
2009/04/23 12:01:28.2     347     74    -90    355    367  77.9 -14.3  34140  289.23 0855.09
2009/04/23 12:01:28.3     181    146    -79    233    247  51.1 -18.7  34144  289.29 0855.09
2009/04/23 12:01:28.4     266    203   -122    335    356  52.7 -25.3  34146  289.32 0855.09
2009/04/23 12:01:28.5     262    279     -9    383    384  43.2  -1.4  34138  289.20 0855.09
2009/04/23 12:01:28.6     270    226    -46    353    356  50.0  -7.5  34142  289.25 0855.09
2009/04/23 12:01:28.7     319    267    126    417    436  50.1  16.8  34152  289.43 0855.09
2009/04/23 12:01:28.8     223    250     94    336    350  41.7  15.7  34142  289.26 0855.09
2009/04/23 12:01:28.9     227    277    133    359    382  39.4  21.3  34140  289.23 0855.09
2009/04/23 12:01:29.0     300    297    154    423    450  45.4  20.9  34132  289.11 0855.09
2009/04/23 12:01:29.1     362    238     17    434    435  56.7   2.3  34140  289.22 0855.09
2009/04/23 12:01:29.2     297    222     39    372    375  53.2   6.0  34136  289.18 0855.09
2009/04/23 12:01:29.3     362    316     21    481    482  48.8   2.5  34142  289.25 0855.09
2009/04/23 12:01:29.4     316    268     92    415    426  49.7  12.6  34142  289.27 0855.09
2009/04/23 12:01:29.5     259    253     47    363    367  45.7   7.4  34136  289.15 0855.09
2009/04/23 12:01:29.6     246    254     24    354    355  44.0   4.0  34136  289.18 0855.09
2009/04/23 12:01:29.7     180    283    116    336    356  32.5  19.2  34136  289.16 0855.09
2009/04/23 12:01:29.8     236    305    111    386    402  37.8  16.1  34134  289.13 0855.09
2009/04/23 12:01:29.9     169    293    149    339    370  29.9  25.2  34142  289.26 0855.09
2009/04/23 12:01:30.0     275    228    146    358    386  50.4  23.4  34290  291.78 0855.09
2009/04/23 12:01:30.1     278    329    185    431    469  40.2  24.8  34216  290.53 0855.09
2009/04/23 12:01:30.2      83    301    131    313    339  15.4  24.1  34188  290.03 0855.09
2009/04/23 12:01:30.3      70    368     98    375    388  10.9  14.7  34204  290.33 0855.09
2009/04/23 12:01:30.4      81    399     49    408    411  11.6   6.9  34178  289.87 0855.09
2009/04/23 12:01:30.5      42    393    109    396    411   6.2  15.4  34278  291.58 0855.09
2009/04/23 12:01:30.6      16    455     22    456    457   2.1   2.8  34262  291.29 0855.10
2009/04/23 12:01:30.7     -30    307    239    309    390 354.4  41.7  34284  291.69 0855.10
2009/04/23 12:01:30.8     308    264    202    406    453  49.4  28.4  34250  291.09 0855.10
2009/04/23 12:01:30.9     246    361    154    438    464  34.3  20.1  34258  291.24 0855.10
2009/04/23 12:01:31.0     224    328    108    398    413  34.3  15.2  34276  291.55 0855.10
2009/04/23 12:01:31.1     124    444     70    462    468  15.6   8.7  34196  290.18 0855.10
2009/04/23 12:01:31.2    -125    512    -11    528    529 346.2  -1.3  34130  289.07 0855.10
2009/04/23 12:01:31.3     -21    452    -82    453    461 357.3 -10.3  34192  290.11 0855.10
2009/04/23 12:01:31.4     -50    293    106    298    316 350.3  20.3  34228  290.71 0855.10
2009/04/23 12:01:31.5     176    320     69    366    373  28.8  10.7  34238  290.89 0855.10
2009/04/23 12:01:31.6     121    377    159    396    426  17.8  23.0  34272  291.48 0855.10
2009/04/23 12:01:31.7     303    317    100    439    451  43.7  12.9  34232  290.80 0855.10
2009/04/23 12:01:31.8     364    483    102    605    614  37.0   9.6  34230  290.76 0855.10
2009/04/23 12:01:31.9     310    329    123    453    470  43.3  15.3  34220  290.60 0855.10
2009/04/23 12:01:32.0     297    474    146    560    579  32.1  14.7  34210  290.41 0855.10
2009/04/23 12:01:32.1     310    435    164    535    560  35.5  17.0  34204  290.31 0855.10
2009/04/23 12:01:32.2     287    508     46    584    586  29.5   4.6  34186  290.00 0855.10
2009/04/23 12:01:32.3     335    412    255    532    589  39.1  27.3  34208  290.37 0855.10
2009/04/23 12:01:32.4     521    543    276    753    801  43.8  21.0  34186  290.02 0855.10
2009/04/23 12:01:32.5     653    489     77    817    821  53.2   5.4  34174  289.81 0855.10
2009/04/23 12:01:32.6     488    589    205    766    793  39.6  15.0  34198  290.22 0855.09
2009/04/23 12:01:32.7     591    591    299    837    890  45.0  19.7  34174  289.81 0855.09
2009/04/23 12:01:32.8     372    578    173    688    710  32.8  14.2  34158  289.55 0855.09
2009/04/23 12:01:32.9     350    688    195    773    798  27.0  14.2  34138  289.19 0855.09
2009/04/23 12:01:33.0     397    534    126    666    678  36.6  10.7  34140  289.24 0855.09
2009/04/23 12:01:33.1     325    583     59    668    671  29.2   5.1  34154  289.46 0855.09
2009/04/23 12:01:33.2     266    449     68    522    527  30.7   7.5  34276  291.54 0855.09
2009/04/23 12:01:33.3     326    332    165    466    495  44.4  19.5  34256  291.20 0855.09
2009/04/23 12:01:33.4     312    301    221    434    487  46.0  29.1  34232  290.78 0855.09
2009/04/23 12:01:33.5     274    252    242    373    444  47.3  35.9  34222  290.63 0855.09
2009/04/23 12:01:33.6     283    262    189    386    429  47.2  28.0  34218  290.56 0855.09
2009/04/23 12:01:33.7     277    258    122    379    399  47.1  17.9  34178  289.86 0855.09
2009/04/23 12:01:33.8     420    166     18    452    453  68.4   2.3  34168  289.72 0855.09
2009/04/23 12:01:33.9     438    181     54    475    479  67.5   6.5  34198  290.22 0855.09
2009/04/23 12:01:34.0     420    151    145    447    471  70.2  18.0  34202  290.28 0855.09
2009/04/23 12:01:34.1     327    108    121    345    366  71.6  19.4  34168  289.71 0855.09
2009/04/23 12:01:34.2     454    163    119    483    498  70.2  13.9  34186  290.01 0855.09
2009/04/23 12:01:34.4     453    143     80    475    482  72.5   9.6  34196  290.18 0855.09
2009/04/23 12:01:34.4     455    157     88    482    490  70.9  10.4  34202  290.29 0855.09
2009/04/23 12:01:34.5     426    112     95    441    452  75.2  12.2  34192  290.11 0855.09
2009/04/23 12:01:34.6     414    105     78    428    436  75.7  10.4  34200  290.26 0855.09
2009/04/23 12:01:34.7     351    212    -22    411    412  58.8  -3.2  34156  289.51 0855.09
2009/04/23 12:01:34.8     298    164     73    341    349  61.2  12.2  34178  289.86 0855.09
2009/04/23 12:01:34.9     248    138     95    285    301  60.9  18.5  34170  289.75 0855.09
2009/04/23 12:01:35.0     208    123     47    242    247  59.4  11.0  34168  289.70 0855.09
2009/04/23 12:01:35.1     296    179    128    346    368  58.8  21.1  34146  289.35 0855.09
2009/04/23 12:01:35.2     316    138    103    346    362  66.4  16.7  34148  289.37 0855.09
2009/04/23 12:01:35.3     283     48     78    288    299  80.3  15.2  34164  289.63 0855.09
2009/04/23 12:01:35.4     385      0     69    386    393  90.1  10.2  34178  289.86 0855.09
2009/04/23 12:01:35.5     343    120     50    364    368  70.6   7.9  34188  290.03 0855.09
2009/04/23 12:01:35.7     309     13     41    310    313  87.5   7.6  34192  290.10 0855.09
2009/04/23 12:01:35.7     336     30     61    338    344  84.8  10.2  34210  290.42 0855.09
2009/04/23 12:01:35.8     255     89     30    271    273  70.7   6.5  34154  289.46 0855.09
2009/04/23 12:01:35.9     158     -3     45    159    166  91.3  16.0  34216  290.52 0855.09
2009/04/23 12:01:36.0     241    -32     25    244    246  97.7   5.9  34222  290.63 0855.09
2009/04/23 12:01:36.1     190    -87    -16    210    211 114.6  -4.4  34214  290.48 0855.09
2009/04/23 12:01:36.2     163    -45     -5    170    171 105.7  -1.8  34214  290.50 0855.09
2009/04/23 12:01:36.3     149      0     30    150    154  90.4  11.4  34214  290.50 0855.09
2009/04/23 12:01:36.4     225    -27     90    227    244  97.0  22.5  34232  290.78 0855.09
2009/04/23 12:01:36.5     227    -22    -12    229    230  95.7  -3.2  34216  290.52 0855.09
2009/04/23 12:01:36.6     226     28     -9    228    229  82.8  -2.3  34236  290.87 0855.09
2009/04/23 12:01:36.7     134    -85    -33    159    163 122.4 -11.9  34218  290.57 0855.09
2009/04/23 12:01:36.8     192    -73      4    206    207 110.8   1.2  34208  290.40 0855.09
2009/04/23 12:01:36.9     235    -78    177    248    304 108.4  39.3  34210  290.42 0855.09
2009/04/23 12:01:37.0     339   -139    200    367    417 112.3  31.0  34216  290.52 0855.09
2009/04/23 12:01:37.1     345    -68    181    352    395 101.2  29.3  34214  290.50 0855.09
2009/04/23 12:01:37.2     241    -18    189    242    307  94.3  41.7  34226  290.70 0855.09
2009/04/23 12:01:37.3     299    -74    220    309    379 103.9  39.0  34202  290.30 0855.09
2009/04/23 12:01:37.4     314   -103    106    331    348 108.3  17.8  34212  290.47 0855.09
2009/04/23 12:01:37.5     344    -93    100    357    371 105.2  15.7  34212  290.45 0855.09
2009/04/23 12:01:37.6     269   -270    -76    382    390 135.1 -11.3  34212  290.45 0855.09
2009/04/23 12:01:37.7     157   -221   -131    272    301 144.6 -31.7  34210  290.42 0855.09
2009/04/23 12:01:37.8     133   -196    -70    237    247 145.8 -21.2  34208  290.39 0855.09
2009/04/23 12:01:37.9      53   -122     22    134    136 156.4   9.5  34212  290.47 0855.09
2009/04/23 12:01:38.0      64    -65     28     92     97 135.5  16.8  34212  290.45 0855.09
2009/04/23 12:01:38.2      68    -32      3     76     77 115.4   2.9  34212  290.47 0855.09
2009/04/23 12:01:38.2      23    -30      4     38     39 142.2   6.9  34208  290.40 0855.09
2009/04/23 12:01:38.3      39    -43     -3     59     60 137.7  -3.1  34210  290.41 0855.09
2009/04/23 12:01:38.4      20    -50     11     54     56 158.2  12.2  34206  290.36 0855.09
2009/04/23 12:01:38.5      36   -112     43    118    125 162.2  20.4  34204  290.31 0855.09
2009/04/23 12:01:38.6      12   -134     87    135    160 174.7  36.0  34198  290.23 0855.10
2009/04/23 12:01:38.7      30   -180    138    183    229 170.4  40.9  34200  290.25 0855.10
2009/04/23 12:01:38.8      67   -196     62    208    218 161.1  16.6  34182  289.96 0855.10
2009/04/23 12:01:38.9      72   -191     32    205    208 159.3   8.9  34168  289.72 0855.10
2009/04/23 12:01:39.0       2   -146     51    147    156 179.1  19.2  34178  289.87 0855.10
2009/04/23 12:01:39.1      66   -146     26    161    164 155.5   9.3  34188  290.04 0855.10
2009/04/23 12:01:39.2      11   -178     45    179    185 176.4  14.3  34168  289.72 0855.10
2009/04/23 12:01:39.3      56   -232     62    239    248 166.4  14.7  34170  289.73 0855.10
2009/04/23 12:01:39.4      59   -285     64    292    299 168.2  12.4  34166  289.66 0855.10
2009/04/23 12:01:39.5     -17   -244     67    245    255 184.0  15.3  34176  289.85 0855.10
2009/04/23 12:01:39.6      23   -228    112    230    255 174.2  27.8  34184  289.97 0855.10
2009/04/23 12:01:39.7      39   -230    126    234    265 170.4  30.8  34180  289.90 0855.10
2009/04/23 12:01:39.8       0   -254     90    255    271 180.0  19.4  34188  290.05 0855.10
2009/04/23 12:01:39.9     -33   -239     72    242    253 188.0  16.6  34194  290.15 0855.10
2009/04/23 12:01:40.0     -77   -264     83    276    289 196.3  16.8  34192  290.10 0855.10
2009/04/23 12:01:40.1     -66   -303     86    311    323 192.4  15.6  34182  289.93 0855.10
2009/04/23 12:01:40.2     -51   -296     47    301    305 189.8   8.9  34172  289.76 0855.10
2009/04/23 12:01:40.3     -22   -268    112    269    291 184.7  24.1  34174  289.80 0855.10
2009/04/23 12:01:40.4     -40   -328     59    331    337 187.0  10.2  34182  289.93 0855.10
2009/04/23 12:01:40.5     -47   -303     71    307    316 188.9  13.1  34180  289.92 0855.10
2009/04/23 12:01:40.6     -57   -279     78    285    296 191.6  15.3  34184  289.98 0855.10
2009/04/23 12:01:40.7      -6   -261     71    262    272 181.4  15.3  34182  289.95 0855.10
2009/04/23 12:01:40.8     -32   -221     61    224    233 188.2  15.3  34182  289.94 0855.10
2009/04/23 12:01:40.9     -19   -176     61    178    189 186.2  18.9  34180  289.92 0855.10
2009/04/23 12:01:41.0     -43   -207     34    212    215 191.8   9.3  34182  289.96 0855.10
2009/04/23 12:01:41.1     -60   -223     79    232    246 195.2  18.9  34192  290.12 0855.10
2009/04/23 12:01:41.2     -68   -258    132    267    297 194.9  28.2  34182  289.93 0855.10
2009/04/23 12:01:41.3     -76   -252    118    264    289 196.9  25.9  34182  289.95 0855.10
2009/04/23 12:01:41.4     -25   -187    103    189    215 187.8  31.3  34178  289.87 0855.10
2009/04/23 12:01:41.5      30   -204    119    207    238 171.5  32.4  34172  289.77 0855.10
2009/04/23 12:01:41.6     100   -201    192    225    295 153.5  44.8  34174  289.80 0855.10
2009/04/23 12:01:41.7      84   -117    176    145    228 144.4  56.4  34174  289.80 0855.10
2009/04/23 12:01:41.8      82   -145    175    167    241 150.4  51.2  34170  289.74 0855.10
2009/04/23 12:01:41.9      18   -228    249    229    338 175.3  52.6  34162  289.61 0855.10
2009/04/23 12:01:42.0      29   -286    202    288    351 174.2  38.5  34164  289.64 0855.10
2009/04/23 12:01:42.1     -21   -310    188    311    363 184.0  33.8  34162  289.62 0855.10
2009/04/23 12:01:42.2     -28   -257     50    259    264 186.3  11.0  34160  289.58 0855.10
2009/04/23 12:01:42.3     -60   -253     31    261    263 193.4   6.9  34164  289.63 0855.10
2009/04/23 12:01:42.4     -85   -181    108    201    228 205.3  30.8  34166  289.69 0855.10
2009/04/23 12:01:42.5      55   -224     77    231    244 166.2  18.5  34168  289.70 0855.10
2009/04/23 12:01:42.6      49   -232    156    238    284 168.0  36.5  34166  289.68 0855.10
2009/04/23 12:01:42.7     -89   -385    159    396    426 193.0  23.0  34156  289.49 0855.10
2009/04/23 12:01:42.8     -82   -434    113    442    457 190.7  14.4  34162  289.61 0855.10
2009/04/23 12:01:43.0     -25   -431     60    432    437 183.4   7.9  34162  289.60 0855.10
2009/04/23 12:01:43.0     -63   -321    163    328    366 191.1  28.4  34178  289.86 0855.10
2009/04/23 12:01:43.1     114   -285     15    308    309 158.2   2.9  34184  289.98 0855.10
2009/04/23 12:01:43.2     168   -304     -6    348    349 151.0  -1.1  34172  289.76 0855.10
2009/04/23 12:01:43.3      -7   -306    -27    307    309 181.4  -5.1  34168  289.70 0855.10
2009/04/23 12:01:43.4     124   -294    -41    320    323 157.1  -7.5  34170  289.75 0855.10
2009/04/23 12:01:43.5     118   -232     23    261    263 153.0   5.2  34168  289.71 0855.10
2009/04/23 12:01:43.6      93   -215    -67    235    244 156.6 -20.8  34168  289.71 0855.10
2009/04/23 12:01:43.8      39   -136    -94    142    170 164.0 -40.9  34162  289.60 0855.10
2009/04/23 12:01:43.8     124    -68     84    142    164 118.8  33.7  34170  289.75 0855.10
2009/04/23 12:01:43.9     -14    -77    146     79    166 190.7  69.3  34168  289.70 0855.10
2009/04/23 12:01:44.0    -289   -128     89    317    330 246.0  15.7  34192  290.10 0855.10
2009/04/23 12:01:44.2    -258   -187     38    319    322 234.1   6.9  34184  289.97 0855.10
2009/04/23 12:01:44.3    -286   -380     71    476    482 217.0   8.5  34176  289.83 0855.10
2009/04/23 12:01:44.4    -200   -361     67    413    419 209.0   9.2  34170  289.73 0855.10
2009/04/23 12:01:44.5    -255   -168     91    306    320 236.5  16.6  34194  290.14 0855.10
2009/04/23 12:01:44.6    -252   -227     19    340    341 228.0   3.2  34182  289.93 0855.10
2009/04/23 12:01:44.7    -247   -229     25    338    339 227.2   4.3  34172  289.77 0855.10
2009/04/23 12:01:44.8     -54   -157     75    167    183 198.9  25.7  34168  289.72 0855.10
2009/04/23 12:01:44.9    -145   -146     11    206    207 224.8   3.3  34184  289.99 0855.10
2009/04/23 12:01:45.0    -165   -199    -14    259    260 219.6  -3.1  34164  289.63 0855.10
2009/04/23 12:01:45.1    -289   -228    -77    369    378 231.7 -11.9  34164  289.65 0855.10
2009/04/23 12:01:45.2    -376   -143   -105    403    417 249.1 -14.6  34176  289.83 0855.10
2009/04/23 12:01:45.3    -306    -27    -60    308    314 264.8 -11.1  34168  289.71 0855.10
2009/04/23 12:01:45.4    -226    -49     86    232    247 257.6  21.3  34176  289.85 0855.10
2009/04/23 12:01:45.5    -312   -122     41    336    339 248.6   7.1  34174  289.81 0855.10
2009/04/23 12:01:45.6    -442   -132     35    462    464 253.3   4.4  34176  289.83 0855.10
2009/04/23 12:01:45.7    -329    -87    -91    341    353 255.1 -15.0  34166  289.67 0855.10
2009/04/23 12:01:45.8    -293   -199    -65    355    361 235.8 -10.5  34160  289.57 0855.10
2009/04/23 12:01:45.9    -145   -153    104    212    236 223.4  28.2  34162  289.62 0855.10
2009/04/23 12:01:46.0     -39   -164     46    169    176 193.6  15.2  34166  289.67 0855.10
2009/04/23 12:01:46.1      45   -185     18    191    192 166.2   5.4  34166  289.69 0855.10
2009/04/23 12:01:46.2      57   -171    -24    181    183 161.5  -7.7  34168  289.72 0855.10
2009/04/23 12:01:46.3     140   -122     52    187    195 131.1  15.6  34172  289.77 0855.10
2009/04/23 12:01:46.4     174   -130     77    218    232 126.6  19.6  34170  289.74 0855.10
2009/04/23 12:01:46.5     165   -111     77    200    214 124.0  21.7  34170  289.75 0855.10
2009/04/23 12:01:46.6     170   -129     38    214    218 127.1  10.1  34168  289.70 0855.10
2009/04/23 12:01:46.7     192   -105    -39    220    224 118.8 -10.3  34162  289.62 0855.11
2009/04/23 12:01:46.8     208    -91      9    228    229 113.7   2.5  34164  289.63 0855.11
2009/04/23 12:01:46.9     251     -4     35    252    255  91.0   8.0  34164  289.63 0855.11
2009/04/23 12:01:47.0     193      5    117    194    226  88.5  34.0  34162  289.62 0855.11
2009/04/23 12:01:47.1     179    -13    197    180    266  94.3  53.0  34162  289.59 0855.11
2009/04/23 12:01:47.2     197     71    119    210    241  70.1  32.3  34164  289.63 0855.11
2009/04/23 12:01:47.3     158     61    164    170    236  68.7  49.0  34164  289.63 0855.11
2009/04/23 12:01:47.4     145    -20    208    147    254  97.9  61.3  34160  289.58 0855.11
2009/04/23 12:01:47.5      62     24    189     67    200  68.3  79.9  34166  289.69 0855.11
2009/04/23 12:01:47.6     122    -10    189    123    225  94.8  64.4  34164  289.65 0855.11
2009/04/23 12:01:47.7      45     29    154     54    163  57.5  80.2  34164  289.63 0855.11
2009/04/23 12:01:47.8      -4   -116    169    117    205 182.2  62.4  34166  289.69 0855.11
2009/04/23 12:01:47.9      51   -243     98    249    267 168.0  22.8  34162  289.61 0855.11
2009/04/23 12:01:48.0      40   -260    149    264    303 171.1  31.9  34158  289.53 0855.11
2009/04/23 12:01:48.1     101   -374    122    388    407 164.8  17.5  34154  289.48 0855.11
2009/04/23 12:01:48.2     -23   -310    132    311    337 184.4  24.2  34144  289.30 0855.11
2009/04/23 12:01:48.3      56   -226    241    233    335 166.0  51.1  34154  289.47 0855.11
2009/04/23 12:01:48.4     -75   -218    290    231    370 199.2  57.6  34152  289.42 0855.11
2009/04/23 12:01:48.5     -84   -359    235    369    437 193.3  35.6  34150  289.39 0855.11
2009/04/23 12:01:48.6       0     23    249     24    250 359.1  90.0  34160  289.58 0855.11
2009/04/23 12:01:48.7      48   -266    208    271    341 169.8  41.4  34154  289.47 0855.11
2009/04/23 12:01:48.8     148   -473    205    496    536 162.6  23.6  34160  289.58 0855.11
2009/04/23 12:01:48.9     124   -441    265    459    530 164.2  32.6  34156  289.50 0855.11
2009/04/23 12:01:49.0     189   -433    278    473    548 156.4  33.0  34156  289.50 0855.11
2009/04/23 12:01:49.1     138   -258    304    293    422 151.9  51.2  34150  289.40 0855.11
2009/04/23 12:01:49.2     168    -87    288    190    345 117.3  63.6  34156  289.51 0855.11
2009/04/23 12:01:49.3     435    -84    307    444    539 101.0  38.0  34160  289.56 0855.11
2009/04/23 12:01:49.4     363   -120    306    383    490 108.4  42.7  34160  289.56 0855.11
2009/04/23 12:01:49.5     384   -304    254    490    551 128.4  29.6  34150  289.40 0855.11
2009/04/23 12:01:49.6     312    -18    340    313    462  93.4  52.6  34148  289.38 0855.11
2009/04/23 12:01:49.7     172   -170    272    242    364 134.7  54.0  34156  289.52 0855.10
2009/04/23 12:01:49.8     202   -274    275    341    438 143.6  43.0  34152  289.44 0855.10
2009/04/23 12:01:49.9     141   -161    312    215    378 138.8  62.4  34154  289.48 0855.10
2009/04/23 12:01:50.0     256   -211    365    332    493 129.5  53.2  34142  289.26 0855.10
2009/04/23 12:01:50.1     188   -113    316    220    385 120.9  62.0  34142  289.25 0855.10
2009/04/23 12:01:50.2      47      3    312     48    315  85.6  90.0  34152  289.44 0855.10
2009/04/23 12:01:50.3      15    132    273    133    303   6.7  72.7  34154  289.47 0855.10
2009/04/23 12:01:50.4     139    -17    312    141    342  97.0  74.1  34146  289.32 0855.10
2009/04/23 12:01:50.5      30      0    249     31    250  89.2  90.0  34156  289.50 0855.10
2009/04/23 12:01:50.6      32      2    177     33    180  85.6  90.0  34152  289.45 0855.10
2009/04/23 12:01:50.7      24    -75    220     79    233 162.2  79.9  34158  289.55 0855.10
2009/04/23 12:01:50.8     114   -261    272    285    393 156.4  48.7  34154  289.47 0855.10
2009/04/23 12:01:50.9     -23   -191    283    193    342 186.9  62.5  34140  289.22 0855.10
2009/04/23 12:01:51.0     158   -123    234    201    308 128.0  55.3  34156  289.51 0855.10
2009/04/23 12:01:51.1      52   -326    263    331    422 170.9  42.7  34148  289.37 0855.10
2009/04/23 12:01:51.2     106   -392    369    407    549 164.9  46.9  34150  289.40 0855.10
2009/04/23 12:01:51.3    -185   -419    384    459    598 203.9  44.1  34152  289.45 0855.10
2009/04/23 12:01:51.4    -225   -437    313    492    583 207.3  35.5  34150  289.41 0855.10
2009/04/23 12:01:51.5    -321   -432    312    539    622 216.6  32.7  34148  289.36 0855.10
2009/04/23 12:01:51.6    -310   -439    299    538    615 215.2  31.4  34146  289.34 0855.10
2009/04/23 12:01:51.7    -144   -502    297    523    601 196.1  32.3  34156  289.52 0855.09
2009/04/23 12:01:51.8     -93   -375    323    387    504 194.0  44.1  34152  289.42 0855.09
2009/04/23 12:01:51.9    -185   -391    390    433    582 205.4  46.6  34154  289.48 0855.09
2009/04/23 12:01:52.0    -271   -491    351    561    661 208.9  35.1  34152  289.45 0855.09
2009/04/23 12:01:52.1     -77   -351    381    360    524 192.5  51.9  34144  289.30 0855.09
2009/04/23 12:01:52.2    -272   -441    473    519    702 211.6  47.1  34156  289.50 0855.09
2009/04/23 12:01:52.3    -420   -476    107    635    645 221.4   9.6  34156  289.52 0855.09
2009/04/23 12:01:52.4    -417   -494    216    647    683 220.2  18.5  34162  289.61 0855.09
2009/04/23 12:01:52.5    -310   -493    336    583    672 212.1  32.6  34156  289.52 0855.09
2009/04/23 12:01:52.6     -65   -405    414    411    583 189.1  50.2  34154  289.48 0855.09
2009/04/23 12:01:52.7    -201   -436    470    481    672 204.7  49.3  34146  289.33 0855.09
2009/04/23 12:01:52.8    -252   -507     79    567    573 206.4   8.0  34160  289.56 0855.09
2009/04/23 12:01:52.9    -127   -310    211    336    396 202.3  35.1  34148  289.38 0855.09
2009/04/23 12:01:53.0     -28   -329    252    331    416 184.9  41.1  34136  289.16 0855.09
2009/04/23 12:01:53.1     -81   -198    255    215    333 202.3  55.7  34156  289.49 0855.09
2009/04/23 12:01:53.2      -5   -142    191    143    238 182.2  59.4  34150  289.41 0855.09
2009/04/23 12:01:53.3      15    -77    155     79    173 168.4  71.1  34150  289.41 0855.09
2009/04/23 12:01:53.4      35    -95    222    102    244 159.5  73.8  34146  289.35 0855.09
2009/04/23 12:01:53.5     -59     41    176     73    190 305.1  76.6  34154  289.48 0855.09
2009/04/23 12:01:53.6    -144    -17    129    146    194 263.0  46.2  34148  289.38 0855.09
2009/04/23 12:01:53.7    -266    -26     94    268    285 264.3  19.4  34142  289.27 0855.08
2009/04/23 12:01:53.8    -337    236     31    412    414 305.1   4.4  34154  289.46 0855.08
2009/04/23 12:01:53.9    -314      0    174    315    359 270.0  31.4  34142  289.25 0855.08
2009/04/23 12:01:54.0    -169    139    281    220    356 309.5  58.2  34152  289.44 0855.08
2009/04/23 12:01:54.1    -268     73    297    278    406 285.3  52.2  34146  289.32 0855.08
2009/04/23 12:01:54.2    -225    178    179    288    339 308.4  35.0  34162  289.59 0855.08
2009/04/23 12:01:54.3    -179    202    185    271    328 318.5  37.7  34160  289.56 0855.08
2009/04/23 12:01:54.4    -313    174    202    359    411 299.1  31.7  34158  289.54 0855.08
2009/04/23 12:01:54.5    -275    -53    153    281    319 259.0  31.0  34154  289.47 0855.08
2009/04/23 12:01:54.6    -207    -36     96    211    231 260.1  26.2  34150  289.40 0855.08
2009/04/23 12:01:54.7     -75     42     91     87    125 299.3  51.2  34154  289.48 0855.08
2009/04/23 12:01:54.8     -50     23    153     56    162 294.4  79.5  34158  289.55 0855.08
2009/04/23 12:01:54.9      29    -90    102     95    139 162.2  52.2  34152  289.45 0855.08
2009/04/23 12:01:55.0     104    -66    180    124    218 122.5  62.4  34146  289.35 0855.08
2009/04/23 12:01:55.1      95   -125    130    158    204 142.6  43.7  34148  289.38 0855.08
2009/04/23 12:01:55.2     133    -22    122    135    181  99.6  47.1  34152  289.45 0855.08
2009/04/23 12:01:55.3     134     62    143    148    205  65.2  49.0  34152  289.43 0855.08
2009/04/23 12:01:55.4      77    -15    143     79    163 101.5  68.5  34154  289.46 0855.08
2009/04/23 12:01:55.5      87    -39     67     96    117 114.0  38.0  34152  289.43 0855.08
2009/04/23 12:01:55.6     -29     45     56     54     77 327.5  49.1  34154  289.48 0855.08
2009/04/23 12:01:55.7     -33     67     55     75     93 333.7  40.1  34156  289.52 0855.07
2009/04/23 12:01:55.8      27    103     87    107    137  15.1  43.7  34156  289.50 0855.07
2009/04/23 12:01:55.9      17     84     54     86    101  12.0  35.5  34156  289.50 0855.07
2009/04/23 12:01:56.0      39    117     31    124    128  18.7  14.3  34154  289.48 0855.07
2009/04/23 12:01:56.1       3    142     33    143    147   1.4  13.2  34154  289.46 0855.07
2009/04/23 12:01:56.2     -17    152     31    154    158 353.3  11.4  34154  289.46 0855.07
2009/04/23 12:01:56.3      30    120     46    124    132  14.3  21.0  34156  289.50 0855.07
2009/04/23 12:01:56.4       6     85     43     86     96   4.5  28.2  34154  289.48 0855.07
2009/04/23 12:01:56.5     -17     77     37     79     87 347.5  26.6  34156  289.50 0855.07
2009/04/23 12:01:56.6     -35     56     13     67     69 327.5  11.1  34156  289.50 0855.07
2009/04/23 12:01:56.7       0     41      7     42     43 359.1  10.1  34156  289.52 0855.07
2009/04/23 12:01:56.8     -20     30     10     37     39 325.7  16.3  34158  289.53 0855.07
2009/04/23 12:01:56.9     -14     40     -1     43     44 340.8  -2.2  34156  289.50 0855.07
2009/04/23 12:01:57.0      -5     68    -16     69     71 355.6 -13.4  34156  289.52 0855.07
2009/04/23 12:01:57.1      -2     58      3     59     60 360.0   2.9  34160  289.57 0855.07
2009/04/23 12:01:57.2      16     62     27     65     70  15.1  24.1  34160  289.58 0855.07
2009/04/23 12:01:57.3      92    104    -17    139    141  41.5  -7.2  34158  289.55 0855.07
2009/04/23 12:01:57.4     134     95    -37    165    170  54.5 -12.6  34160  289.57 0855.07
2009/04/23 12:01:57.5     161    110    -19    196    197  55.6  -5.6  34160  289.57 0855.07
2009/04/23 12:01:57.6     201    176    -86    268    281  48.7 -23.0  34162  289.59 0855.07
2009/04/23 12:01:57.7     121    192    -17    228    229  32.3  -4.4  34166  289.67 0855.07
2009/04/23 12:01:57.8     141     89     73    167    182  57.8  25.1  34154  289.48 0855.07
2009/04/23 12:01:57.9     173     14     98    174    199  85.2  31.9  34156  289.52 0855.07
2009/04/23 12:01:58.0     217     64    103    227    249  73.4  26.2  34170  289.73 0855.07
2009/04/23 12:01:58.1     110     76     73    134    152  55.4  31.3  34166  289.69 0855.07
2009/04/23 12:01:58.2      65    172    -14    184    185  20.7  -4.4  34168  289.70 0855.07
2009/04/23 12:01:58.3     154    154     72    219    231  45.0  18.4  34176  289.84 0855.07
2009/04/23 12:01:58.4     202    183     53    273    279  47.8  11.1  34184  289.97 0855.07
2009/04/23 12:01:58.5     122    251    -36    280    283  25.9  -7.3  34170  289.73 0855.07
2009/04/23 12:01:58.6     194    202    -60    281    288  43.9 -12.2  34166  289.66 0855.07
2009/04/23 12:01:58.7     173    131   -210    218    302  52.9 -53.4  34172  289.76 0855.07
2009/04/23 12:01:58.8     362    166    -71    399    406  65.3 -10.1  34224  290.67 0855.07
2009/04/23 12:01:58.9     290    183    -45    343    347  57.7  -7.6  34212  290.47 0855.07
2009/04/23 12:01:59.0     200    106     28    227    229  62.0   7.1  34206  290.35 0855.07
2009/04/23 12:01:59.1     262     81    -55    275    281  72.7 -11.5  34222  290.61 0855.07
2009/04/23 12:01:59.2     189     40    -24    194    196  77.8  -7.2  34184  289.99 0855.07
2009/04/23 12:01:59.3     229     61    -86    238    253  75.0 -24.8  34186  290.00 0855.07
2009/04/23 12:01:59.4     133     31    -90    137    163  76.7 -40.7  34202  290.30 0855.07
2009/04/23 12:01:59.5     149     54    -54    159    169  70.0 -18.9  34192  290.13 0855.07
2009/04/23 12:01:59.6     164    -32     62    168    179 101.0  21.3  34174  289.82 0855.07
2009/04/23 12:01:59.7     191     11     12    192    193  86.7   3.8  34184  289.99 0855.07
2009/04/23 12:01:59.8     169     25     -9    171    172  81.4  -3.1  34234  290.82 0855.07
2009/04/23 12:01:59.9     176     -8     68    177    189  92.6  22.0  34186  290.02 0855.07
2009/04/23 12:02:00.0     121    -39    100    128    162 108.2  42.2  34170  289.75 0855.07
2009/04/23 12:02:00.1      35    -28     94     45    104 128.6  72.8  34174  289.82 0855.07
2009/04/23 12:02:00.2       1     21     81     22     83   4.5  84.4  34182  289.94 0855.07
2009/04/23 12:02:00.3       7     -6     90     10     90 133.1  90.0  34184  289.97 0855.07
2009/04/23 12:02:00.4      -1     -6     67      7     67 189.7  90.0  34182  289.96 0855.07
2009/04/23 12:02:00.5     -37      7     44     38     58 281.4  54.3  34182  289.94 0855.07
2009/04/23 12:02:00.6     -80     -6     30     81     86 265.7  20.4  34180  289.92 0855.07
2009/04/23 12:02:00.7    -109    -51    -25    121    124 244.6 -11.9  34176  289.84 0855.07
2009/04/23 12:02:00.8    -198    -47   -142    204    248 256.5 -42.8  34158  289.54 0855.07
2009/04/23 12:02:00.9    -245     -4   -112    246    270 269.0 -30.6  34154  289.46 0855.07
2009/04/23 12:02:01.0    -216     43   -115    221    249 281.4 -33.9  34158  289.53 0855.07
2009/04/23 12:02:01.1    -133     19    -41    135    142 278.4 -17.0  34166  289.69 0855.07
2009/04/23 12:02:01.2    -103     57     36    118    124 298.9  17.3  34168  289.72 0855.07
2009/04/23 12:02:01.3    -181    151     11    236    237 309.8   2.8  34166  289.66 0855.07
2009/04/23 12:02:01.4     -95    131     89    162    184 324.0  31.4  34168  289.70 0855.07
2009/04/23 12:02:01.5     -25    181    124    183    221 352.0  37.4  34174  289.80 0855.07
2009/04/23 12:02:01.6     -63    180    132    191    232 340.6  37.6  34168  289.72 0855.07
2009/04/23 12:02:01.7      27    166    121    169    207   9.3  39.3  34166  289.69 0855.07
2009/04/23 12:02:01.8     -27    118    115    122    167 347.1  48.2  34166  289.67 0855.07
2009/04/23 12:02:01.9    -106    108     46    152    160 315.5  17.1  34172  289.77 0855.07
2009/04/23 12:02:02.0     -98     90     31    134    138 312.7  13.1  34168  289.70 0855.07
2009/04/23 12:02:02.1     -86    127     19    154    156 325.7   7.2  34162  289.62 0855.07
2009/04/23 12:02:02.2    -108    134    -26    173    175 321.0  -8.6  34166  289.67 0855.07
2009/04/23 12:02:02.3     -45    137     -7    145    146 341.7  -3.1  34164  289.63 0855.07
2009/04/23 12:02:02.4    -125     34      2    130    131 285.5   1.2  34164  289.65 0855.07
2009/04/23 12:02:02.5    -136    -54    -29    147    150 248.2 -11.3  34176  289.84 0855.07
2009/04/23 12:02:02.6    -107    -28    -65    111    128 254.9 -37.9  34196  290.18 0855.07
2009/04/23 12:02:02.7    -193     36    -25    197    199 280.8  -7.3  34196  290.19 0855.07
2009/04/23 12:02:02.8    -262     52    -87    268    281 281.2 -23.3  34216  290.51 0855.07
2009/04/23 12:02:02.9    -237     67   -169    247    299 285.9 -42.0  34182  289.95 0855.07
2009/04/23 12:02:03.0    -262    130     41    293    296 296.4   8.0  34184  289.97 0855.07
2009/04/23 12:02:03.1    -197     97     75    220    233 296.2  18.9  34186  290.02 0855.07
2009/04/23 12:02:03.2    -133     39     82    139    161 286.4  33.1  34186  290.01 0855.07
2009/04/23 12:02:03.3     -72     59     59     94    110 309.5  35.5  34178  289.87 0855.07
2009/04/23 12:02:03.4     -81    -26     51     86     99 252.3  33.5  34178  289.89 0855.07
2009/04/23 12:02:03.5    -165    -99     60    193    203 239.1  17.4  34182  289.94 0855.07
2009/04/23 12:02:03.6    -171   -116     53    207    214 235.8  14.5  34184  289.97 0855.07
2009/04/23 12:02:03.7    -150   -181     69    236    247 219.6  16.4  34190  290.09 0855.08
2009/04/23 12:02:03.8    -165   -202      3    261    262 219.2   0.8  34180  289.90 0855.08
2009/04/23 12:02:03.9    -140   -140     62    199    209 225.0  17.4  34190  290.09 0855.08
2009/04/23 12:02:04.0     -82   -147     46    169    176 209.2  15.2  34186  290.02 0855.08
2009/04/23 12:02:04.1     -66   -139     36    154    159 205.4  13.2  34180  289.91 0855.08
2009/04/23 12:02:04.2     -79   -185     55    202    210 203.2  15.3  34172  289.77 0855.08
2009/04/23 12:02:04.3     -52   -143     18    153    155 200.1   6.7  34172  289.77 0855.08
2009/04/23 12:02:04.4     -59   -139     14    152    153 203.2   5.4  34170  289.74 0855.08
2009/04/23 12:02:04.5     -91   -147     49    174    181 211.9  15.8  34176  289.85 0855.08
2009/04/23 12:02:04.6    -123   -148     58    193    202 219.6  16.8  34180  289.92 0855.08
2009/04/23 12:02:04.7    -127   -153     88    199    217 219.7  25.2  34178  289.89 0855.08
2009/04/23 12:02:04.8    -130   -157     92    204    223 219.6  25.9  34174  289.80 0855.08
2009/04/23 12:02:04.9    -140   -203     89    247    262 214.7  20.7  34170  289.73 0855.08
2009/04/23 12:02:05.0    -237   -150      4    281    282 237.6   0.8  34196  290.19 0855.08
2009/04/23 12:02:05.1    -221   -175     38    283    286 231.6   7.8  34196  290.19 0855.08
2009/04/23 12:02:05.2    -186   -199     39    273    276 223.0   8.2  34186  290.00 0855.08
2009/04/23 12:02:05.3    -218   -147     46    264    269 235.9  10.0  34186  290.00 0855.08
2009/04/23 12:02:05.4    -142   -177     41    228    232 218.7  10.3  34176  289.84 0855.08
2009/04/23 12:02:05.5    -128   -164     65    209    219 217.9  17.3  34178  289.87 0855.08
2009/04/23 12:02:05.6     -58   -225     24    233    235 194.5   6.0  34168  289.71 0855.08
2009/04/23 12:02:05.7    -106   -265    -11    286    287 201.8  -2.2  34158  289.53 0855.09
2009/04/23 12:02:05.8    -107   -277    -43    298    302 201.2  -8.2  34158  289.54 0855.09
2009/04/23 12:02:05.9     -69   -258    -10    268    269 195.1  -2.2  34162  289.59 0855.09
2009/04/23 12:02:06.0     -20   -179     74    181    195 186.5  23.4  34158  289.53 0855.09
2009/04/23 12:02:06.1      -6   -140    131    141    192 182.7  47.9  34160  289.58 0855.09
2009/04/23 12:02:06.2      64   -147    122    161    202 156.4  41.2  34158  289.55 0855.09
2009/04/23 12:02:06.3      84   -231    130    247    279 159.9  30.1  34160  289.58 0855.09
2009/04/23 12:02:06.4     -15   -223    134    224    261 184.0  34.0  34158  289.53 0855.09
2009/04/23 12:02:06.5     -67   -221     99    232    252 196.9  24.3  34162  289.61 0855.09
2009/04/23 12:02:06.6     -83   -250     -3    264    265 198.5  -0.7  34158  289.53 0855.09
2009/04/23 12:02:06.7     -60   -205     73    214    227 196.5  18.9  34158  289.53 0855.09
2009/04/23 12:02:06.8     -92   -246     68    263    272 200.7  14.5  34158  289.54 0855.09
2009/04/23 12:02:06.9     -61   -233     70    241    252 194.7  16.3  34158  289.54 0855.09
2009/04/23 12:02:07.0     -67   -221     27    232    234 197.0   6.9  34162  289.59 0855.09
2009/04/23 12:02:07.1     -69   -197     98    209    230 199.4  27.1  34160  289.57 0855.09
2009/04/23 12:02:07.2     -85   -202    122    220    251 202.9  31.6  34164  289.64 0855.09
2009/04/23 12:02:07.3     -16   -207     82    208    223 184.5  22.8  34160  289.58 0855.09
2009/04/23 12:02:07.4      28   -234     71    236    247 173.1  16.8  34162  289.61 0855.09
2009/04/23 12:02:07.5      77   -190     90    206    224 157.9  25.2  34162  289.62 0855.09
2009/04/23 12:02:07.6     120   -152    100    194    218 141.7  29.3  34162  289.60 0855.09
2009/04/23 12:02:07.7     127    -61     92    142    169 115.8  36.0  34162  289.60 0855.08
2009/04/23 12:02:07.8       8      3     93      9     93  64.7  90.0  34166  289.69 0855.08
2009/04/23 12:02:07.9      27     43     54     51     74  32.5  51.2  34170  289.75 0855.08
2009/04/23 12:02:08.0      -7   -110    173    111    205 184.0  64.6  34166  289.67 0855.08
2009/04/23 12:02:08.2     -26   -183    208    185    278 188.2  54.0  34162  289.59 0855.08
2009/04/23 12:02:08.2      63    -77    101    100    142 140.8  50.1  34166  289.69 0855.08
2009/04/23 12:02:08.3      78    -77     88    110    140 134.6  43.3  34164  289.63 0855.08
2009/04/23 12:02:08.4      47     -2     87     48     99  93.5  68.8  34172  289.77 0855.08
2009/04/23 12:02:08.5      45    -37    101     59    116 129.5  66.8  34168  289.70 0855.08
2009/04/23 12:02:08.6      32    -91    132     97    163 160.4  60.3  34164  289.63 0855.08
2009/04/23 12:02:08.7      24   -140    102    143    175 170.2  38.8  34166  289.67 0855.08
2009/04/23 12:02:08.8     -14   -139     77    140    159 185.8  31.0  34160  289.58 0855.08
2009/04/23 12:02:08.9     -15    -85     66     87    109 190.2  41.2  34162  289.60 0855.08
2009/04/23 12:02:09.0     -51   -100     42    113    120 207.2  21.0  34162  289.62 0855.08
2009/04/23 12:02:09.1     -17    -33     43     38     57 207.2  53.3  34164  289.63 0855.08
2009/04/23 12:02:09.2       3     33     40     34     52   6.2  55.4  34166  289.67 0855.08
2009/04/23 12:02:09.3      45     40     52     61     80  48.7  44.8  34168  289.70 0855.08
2009/04/23 12:02:09.4      19      4     61     20     64  76.7  80.7  34168  289.72 0855.08
2009/04/23 12:02:09.5      52     76     -2     93     94  34.3  -1.8  34164  289.63 0855.08
2009/04/23 12:02:09.6     118    116     12    166    167  45.3   4.2  34160  289.57 0855.08
2009/04/23 12:02:09.7     198     64     -8    209    210  72.1  -2.2  34164  289.65 0855.08
2009/04/23 12:02:09.8     147     89      8    173    174  58.7   2.8  34166  289.67 0855.08
2009/04/23 12:02:09.9     179     94     -2    203    204  62.2  -0.7  34168  289.70 0855.08
2009/04/23 12:02:10.0     103    103     34    146    150  45.1  13.2  34168  289.72 0855.08
2009/04/23 12:02:10.1      35     81     63     89    109  23.6  39.1  34168  289.72 0855.08
2009/04/23 12:02:10.2      26     59     70     65     95  24.5  52.2  34170  289.74 0855.08
2009/04/23 12:02:10.3      92     45     81    103    131  63.8  42.7  34172  289.79 0855.08
2009/04/23 12:02:10.4      77    101     79    128    150  37.4  35.5  34178  289.87 0855.08
2009/04/23 12:02:10.5      33     40     98     52    110  39.6  69.8  34174  289.82 0855.08
2009/04/23 12:02:10.6      -7     33     97     34    102 346.6  80.7  34178  289.89 0855.08
2009/04/23 12:02:10.7      73     31     76     80    110  66.5  48.5  34172  289.79 0855.07
2009/04/23 12:02:10.8      87     84     56    122    134  46.0  27.1  34172  289.77 0855.07
2009/04/23 12:02:11.0     -13    114    105    115    155 353.3  47.9  34170  289.74 0855.07
2009/04/23 12:02:11.1     -17    201     91    202    221 355.1  25.7  34166  289.69 0855.07
2009/04/23 12:02:11.2     -62    162    164    174    239 339.1  48.5  34164  289.63 0855.07
2009/04/23 12:02:11.3     -47    140    184    148    236 341.3  57.1  34174  289.82 0855.07
2009/04/23 12:02:11.4     -17    183    133    184    227 354.7  39.5  34240  290.92 0855.07
2009/04/23 12:02:11.5       6    192     77    193    207   2.0  23.0  34218  290.55 0855.07
2009/04/23 12:02:11.6     -37    119      0    125    126 342.6  -0.3  34210  290.41 0855.07
2009/04/23 12:02:11.7     -69    101     82    123    147 325.7  36.5  34216  290.53 0855.07
2009/04/23 12:02:11.8    -110     47     60    120    134 293.5  28.7  34208  290.38 0855.07
2009/04/23 12:02:11.9    -132    -35     42    137    144 254.9  17.3  34202  290.30 0855.07
2009/04/23 12:02:12.0    -138     10     81    139    160 274.4  32.9  34202  290.30 0855.07
2009/04/23 12:02:12.1     -98     80     81    127    150 309.1  35.6  34220  290.58 0855.07
2009/04/23 12:02:12.2    -120     67     79    138    159 299.3  32.4  34218  290.55 0855.07
2009/04/23 12:02:12.3    -113     -5     66    114    131 267.4  32.9  34210  290.41 0855.07
2009/04/23 12:02:12.4    -125    -92     58    156    166 233.6  21.5  34204  290.33 0855.07
2009/04/23 12:02:12.5    -135    -41    -39    142    148 253.2 -15.5  34206  290.35 0855.07
2009/04/23 12:02:12.6    -103    -34    -18    109    111 251.8  -9.3  34204  290.31 0855.07
2009/04/23 12:02:12.7     -57     11    -29     59     65 281.4 -32.6  34198  290.21 0855.07
2009/04/23 12:02:12.8      45    -63    -24     78     81 143.9 -22.3  34196  290.18 0855.05
2009/04/23 12:02:12.9     -37    -58     41     70     81 212.6  32.9  34196  290.18 0855.05
2009/04/23 12:02:13.0      -2     -6     49      7     49 198.3  90.0  34204  290.31 0855.05
2009/04/23 12:02:13.1     -74    -45     62     87    106 238.5  39.1  34198  290.23 0855.05
2009/04/23 12:02:13.2    -112    -44     28    121    125 248.3  13.2  34186  290.01 0855.05
2009/04/23 12:02:13.3     -68    -43     42     81     91 237.5  29.3  34182  289.94 0855.05
2009/04/23 12:02:13.4    -122     -9    -34    123    128 265.6 -15.5  34188  290.06 0855.05
2009/04/23 12:02:13.5     -95     31     15    100    102 288.2   8.5  34230  290.77 0855.05
2009/04/23 12:02:13.6     -60     80     15    101    103 323.0   8.5  34228  290.74 0855.05
2009/04/23 12:02:13.7      97    -14     57     99    114  98.4  32.9  34210  290.43 0855.05
2009/04/23 12:02:13.8     192     16     88    193    212  85.2  26.2  34208  290.40 0855.05
2009/04/23 12:02:13.9     102    -17    106    104    148  99.7  50.1  34210  290.43 0855.05
2009/04/23 12:02:14.0     -32    -30    115     44    123 226.9  78.6  34210  290.43 0855.05
2009/04/23 12:02:14.1     211     71    121    223    253  71.2  31.3  34236  290.87 0855.05
2009/04/23 12:02:14.2     204    112    137    233    270  61.1  33.5  34206  290.36 0855.05
2009/04/23 12:02:14.3     115     62    150    131    199  61.6  54.3  34198  290.23 0855.05
2009/04/23 12:02:14.4     103    162     94    193    214  32.6  27.4  34198  290.23 0855.05
2009/04/23 12:02:14.5      65    167    128    180    220  21.4  39.3  34194  290.14 0855.05
2009/04/23 12:02:14.6     228    138    161    267    311  58.7  34.0  34172  289.78 0855.05
2009/04/23 12:02:14.7     104    111    216    153    264  43.3  61.3  34178  289.88 0855.05
2009/04/23 12:02:14.8     130    126    101    182    208  45.8  31.4  34172  289.77 0855.05
2009/04/23 12:02:14.9      70    -14    140     72    157 101.5  70.8  34176  289.85 0855.05
2009/04/23 12:02:15.0      60     63     85     88    122  43.7  49.4  34178  289.89 0855.05
2009/04/23 12:02:15.1      23     21     44     32     54  46.9  60.5  34176  289.85 0855.05
2009/04/23 12:02:15.2      -7    -22     -2     24     25 198.5  -5.2  34178  289.89 0855.05
2009/04/23 12:02:15.3      14   -186     45    187    193 175.6  13.5  34184  289.97 0855.05
2009/04/23 12:02:15.4     -13   -223    -28    224    226 183.4  -7.2  34182  289.96 0855.05
2009/04/23 12:02:15.5      29   -183    -79    186    202 170.9 -28.7  34182  289.96 0855.05
2009/04/23 12:02:15.6      39    -82    -48     91    102 154.6 -34.2  34182  289.96 0855.05
2009/04/23 12:02:15.7      99     -4     24    100    103  92.6  13.7  34186  290.02 0855.05
2009/04/23 12:02:15.8     292     26     22    294    295  84.8   4.4  34184  289.98 0855.05
2009/04/23 12:02:15.9     332      9     -9    333    334  88.4  -1.7  34192  290.10 0855.05
2009/04/23 12:02:16.0     435    162     65    465    470  69.6   8.0  34174  289.81 0855.05
2009/04/23 12:02:16.1     442    200     12    486    487  65.6   1.5  34182  289.95 0855.05
2009/04/23 12:02:16.2     487    -27    274    488    559  93.3  31.9  34186  290.02 0855.05
2009/04/23 12:02:16.3     448    -53    297    452    540  96.8  36.4  34182  289.93 0855.05
2009/04/23 12:02:16.4     266   -146    236    304    384 118.9  41.7  34182  289.94 0855.05
2009/04/23 12:02:16.5     305   -276    254    412    484 132.1  34.6  34180  289.92 0855.05
2009/04/23 12:02:16.6     317   -483    288    579    646 146.7  28.4  34184  289.99 0855.05
2009/04/23 12:02:16.7     232   -418    297    479    563 151.0  34.9  34182  289.96 0855.05
2009/04/23 12:02:16.8     148   -503    311    525    610 163.6  33.5  34180  289.90 0855.06
2009/04/23 12:02:16.9     348   -447    314    567    648 142.1  31.4  34168  289.70 0855.06
2009/04/23 12:02:17.0     355   -304    325    468    569 130.6  38.3  34180  289.92 0855.06
2009/04/23 12:02:17.1     434   -436    399    616    733 135.1  35.9  34178  289.88 0855.06
2009/04/23 12:02:17.2     350   -478    385    593    707 143.8  36.2  34176  289.83 0855.06
2009/04/23 12:02:17.3     355   -436    341    563    658 140.8  34.2  34178  289.87 0855.06
2009/04/23 12:02:17.4     291   -388    267    486    554 143.2  31.3  34176  289.84 0855.06
2009/04/23 12:02:17.5     293   -383    248    483    542 142.6  29.3  34174  289.82 0855.06
2009/04/23 12:02:17.6     216   -436    340    487    593 153.6  38.4  34188  290.04 0855.06
2009/04/23 12:02:17.7      75   -524    290    530    604 171.8  31.3  34202  290.27 0855.06
2009/04/23 12:02:17.8      96   -465    362    475    597 168.3  41.2  34180  289.90 0855.06
2009/04/23 12:02:17.9      15   -247    329    248    412 176.5  59.4  34184  289.98 0855.06
2009/04/23 12:02:18.0     223   -554    387    598    712 158.1  35.9  34198  290.22 0855.06
2009/04/23 12:02:18.1     137   -558    401    575    701 166.2  38.4  34204  290.33 0855.06
2009/04/23 12:02:18.2    -250   -816    183    854    874 197.1  12.1  34188  290.05 0855.06
2009/04/23 12:02:18.3    -184   -805    289    826    876 192.9  19.3  34182  289.93 0855.06
2009/04/23 12:02:18.4     124   -759    144    770    784 170.7  10.6  34190  290.07 0855.06
2009/04/23 12:02:18.5      68   -737    272    741    789 174.7  21.1  34176  289.83 0855.06
2009/04/23 12:02:18.6     205   -692    -21    722    723 163.5  -1.7  34168  289.72 0855.06
2009/04/23 12:02:18.7     184   -698     94    722    729 165.2   7.5  34172  289.76 0855.06
2009/04/23 12:02:18.8      20   -773    -43    774    776 178.5  -3.2  34166  289.69 0855.06
2009/04/23 12:02:18.9     -40   -713     73    715    719 183.3   5.9  34160  289.57 0855.06
2009/04/23 12:02:19.0    -211   -484    -47    529    532 203.6  -5.1  34162  289.60 0855.06
2009/04/23 12:02:19.1    -476   -693     27    842    843 214.5   1.9  34164  289.65 0855.06
2009/04/23 12:02:19.2     131   -619    305    633    702 168.0  27.7  34146  289.34 0855.06
2009/04/23 12:02:19.3      77   -509    230    515    564 171.3  25.7  34158  289.55 0855.06
2009/04/23 12:02:19.4     -43   -458     30    461    463 185.4   3.8  34158  289.55 0855.06
2009/04/23 12:02:19.5       0   -497    111    498    511 179.9  12.6  34152  289.44 0855.06
2009/04/23 12:02:19.6     -16   -518    107    519    531 181.8  11.7  34160  289.57 0855.06
2009/04/23 12:02:19.7     -43   -509    100    511    521 184.9  11.1  34156  289.52 0855.06
2009/04/23 12:02:19.8    -111   -553     79    564    570 191.4   8.0  34160  289.58 0855.06
2009/04/23 12:02:19.9       7   -511    102    512    523 179.1  11.3  34164  289.64 0855.06
2009/04/23 12:02:20.0       7   -417    181    418    455 179.0  25.0  34154  289.48 0855.06
2009/04/23 12:02:20.1     -25   -383     98    384    397 183.8  14.3  34146  289.32 0855.06
2009/04/23 12:02:20.2     -65   -327    195    334    386 191.4  33.0  34164  289.64 0855.06
2009/04/23 12:02:20.3    -132   -208    297    247    386 212.5  56.3  34184  289.99 0855.06
2009/04/23 12:02:20.4     -15   -196    282    197    343 184.5  61.7  34174  289.80 0855.06
2009/04/23 12:02:20.5      12   -120    203    121    236 174.2  66.7  34176  289.84 0855.06
2009/04/23 12:02:20.6     -63   -173    229    185    294 200.0  56.9  34172  289.76 0855.06
2009/04/23 12:02:20.7     -38   -160    207    165    264 193.6  57.3  34172  289.76 0855.06
2009/04/23 12:02:20.8       1   -117    178    118    213 179.1  63.6  34184  289.97 0855.06
2009/04/23 12:02:20.9      -3   -239    170    240    294 180.9  39.1  34164  289.63 0855.06
2009/04/23 12:02:21.0     -21   -240    271    241    362 185.1  53.9  34164  289.64 0855.06
2009/04/23 12:02:21.1     -75   -277    308    288    421 195.2  52.2  34162  289.62 0855.06
2009/04/23 12:02:21.2    -167   -317    284    359    457 207.9  42.3  34160  289.58 0855.06
2009/04/23 12:02:21.3    -248   -301    276    391    478 219.5  38.6  34170  289.75 0855.06
2009/04/23 12:02:21.4    -270   -370    200    459    500 216.1  25.1  34166  289.66 0855.06
2009/04/23 12:02:21.5    -237   -246    209    342    400 223.9  34.4  34154  289.48 0855.06
2009/04/23 12:02:21.6    -240   -261    212    355    413 222.6  33.6  34178  289.86 0855.06
2009/04/23 12:02:21.7    -239   -309    169    391    425 217.7  25.0  34168  289.70 0855.06
2009/04/23 12:02:21.8    -354   -236     59    426    430 236.3   7.9  34180  289.90 0855.06
2009/04/23 12:02:21.9    -285   -140    -37    318    321 243.8  -6.7  34198  290.22 0855.06
2009/04/23 12:02:22.0    -306   -123      0    331    332 248.0   0.1  34174  289.81 0855.06
2009/04/23 12:02:22.1    -272   -184    -30    329    331 235.9  -5.3  34170  289.74 0855.06
2009/04/23 12:02:22.2    -368   -170    -54    406    410 245.2  -7.6  34170  289.73 0855.06
2009/04/23 12:02:22.3    -464      0   -138    465    486 270.0 -16.5  34202  290.29 0855.06
2009/04/23 12:02:22.4    -448     17   -102    449    461 272.3 -12.9  34180  289.92 0855.06
2009/04/23 12:02:22.5    -429      6   -231    430    488 270.8 -35.1  34174  289.81 0855.06
2009/04/23 12:02:22.6    -437    -33   -124    439    456 265.7 -20.4  34174  289.82 0855.06
2009/04/23 12:02:22.7    -380     42    -93    383    395 276.4 -13.7  34178  289.89 0855.06
2009/04/23 12:02:22.8    -414    -70    -84    420    429 260.4 -11.3  34178  289.88 0855.07
2009/04/23 12:02:22.9    -441   -152   -135    467    486 251.0 -21.1  34192  290.10 0855.07
2009/04/23 12:02:23.0    -437   -105   -179    450    484 256.4 -27.2  34190  290.08 0855.07
2009/04/23 12:02:23.1    -421   -100   -145    433    457 256.6 -18.6  34170  289.73 0855.07
2009/04/23 12:02:23.2    -554    -32   -117    556    569 266.6 -11.9  34182  289.96 0855.07
2009/04/23 12:02:23.3    -544     26   -166    545    569 272.8 -21.8  34186  290.01 0855.07
2009/04/23 12:02:23.4    -403    -98    -60    415    420 256.3  -8.3  34190  290.07 0855.07
2009/04/23 12:02:23.5    -511   -113    -46    524    527 257.5  -5.1  34190  290.09 0855.07
2009/04/23 12:02:23.6    -488    -65    -58    493    497 262.4  -6.8  34174  289.81 0855.07
2009/04/23 12:02:23.7    -411    -83    -82    420    429 258.5 -11.1  34182  289.94 0855.07
2009/04/23 12:02:23.8    -451   -171    -54    483    487 249.2  -6.5  34188  290.03 0855.07
2009/04/23 12:02:23.9    -491     41    -89    493    502 274.8 -10.2  34166  289.69 0855.07
2009/04/23 12:02:24.0    -328     91   -120    341    361 285.5 -24.5  34172  289.79 0855.07
2009/04/23 12:02:24.1    -297     97   -105    313    330 288.2 -23.5  34172  289.76 0855.07
2009/04/23 12:02:24.2    -517     91   -187    526    559 280.0 -19.6  34162  289.62 0855.07
2009/04/23 12:02:24.3    -484    116   -176    498    528 283.5 -24.7  34170  289.74 0855.07
2009/04/23 12:02:24.4    -528    136     47    546    549 284.5   5.0  34174  289.82 0855.07
2009/04/23 12:02:24.5    -490     24     14    491    492 272.9   1.7  34186  290.00 0855.07
2009/04/23 12:02:24.6    -472     68   -137    477    497 278.3 -16.0  34170  289.74 0855.07
2009/04/23 12:02:24.7    -370    218    125    430    449 300.6  16.3  34158  289.53 0855.07
2009/04/23 12:02:24.8    -286    182    143    340    368 302.5  24.2  34172  289.77 0855.09
2009/04/23 12:02:24.9    -260     19    107    261    282 274.3  23.4  34168  289.70 0855.09
2009/04/23 12:02:25.0    -309    119     -6    332    333 291.1  -1.2  34170  289.74 0855.09
2009/04/23 12:02:25.1    -272    149     28    311    313 298.8   5.3  34168  289.71 0855.09
2009/04/23 12:02:25.2    -233    128     31    267    269 298.9   6.7  34174  289.81 0855.09
2009/04/23 12:02:25.3    -320     44   -132    324    349 277.9 -27.8  34178  289.89 0855.09
2009/04/23 12:02:25.4    -300     92    -73    314    323 287.1 -13.1  34166  289.68 0855.09
2009/04/23 12:02:25.5    -408    130    -16    429    430 287.7  -2.2  34178  289.88 0855.09
2009/04/23 12:02:25.6    -534     79     23    540    541 278.5   2.5  34182  289.96 0855.09
2009/04/23 12:02:25.7    -440     26     65    441    446 273.5   8.5  34170  289.75 0855.09
2009/04/23 12:02:25.8    -481     -7     -7    482    483 269.1  -0.9  34176  289.83 0855.09
2009/04/23 12:02:25.9    -542     83    -30    549    550 278.7  -3.1  34178  289.89 0855.09
2009/04/23 12:02:26.0    -387     66    -56    393    398 279.8  -8.2  34172  289.79 0855.09
2009/04/23 12:02:26.1    -205    257    167    330    369 321.4  28.9  34174  289.82 0855.09
2009/04/23 12:02:26.2    -218    205    105    300    318 313.2  19.3  34174  289.81 0855.09
2009/04/23 12:02:26.3    -383    134     40    406    408 289.3   5.7  34172  289.78 0855.09
2009/04/23 12:02:26.4    -401     16    126    402    422 272.4  17.4  34170  289.75 0855.09
2009/04/23 12:02:26.5    -434    -47    -66    437    442 263.8  -8.6  34176  289.83 0855.09
2009/04/23 12:02:26.6    -365     60    -35    370    372 279.4  -5.5  34164  289.64 0855.09
2009/04/23 12:02:26.7    -325      5    -12    326    327 270.9  -2.2  34174  289.80 0855.09
2009/04/23 12:02:26.8    -362     75    118    370    389 281.8  17.7  34168  289.72 0855.09
2009/04/23 12:02:26.9    -299    100    175    316    361 288.6  31.4  34172  289.76 0855.09
2009/04/23 12:02:27.0    -283     99    125    300    325 289.3  23.9  34176  289.85 0855.09
2009/04/23 12:02:27.1    -311    138     89    341    353 293.9  14.7  34180  289.91 0855.09
2009/04/23 12:02:27.2    -243    119    151    271    310 296.2  31.4  34168  289.71 0855.09
2009/04/23 12:02:27.3    -211    116    123    241    270 298.9  29.2  34164  289.64 0855.09
2009/04/23 12:02:27.4    -125     45    180    133    223 290.0  60.5  34168  289.72 0855.09
2009/04/23 12:02:27.5    -143   -147    169    206    266 224.3  43.7  34178  289.86 0855.09
2009/04/23 12:02:27.6    -154    -84      0    176    177 241.4  -0.3  34174  289.80 0855.09
2009/04/23 12:02:27.7    -249    -21     72    250    261 265.0  16.0  34170  289.75 0855.09
2009/04/23 12:02:27.8    -187    -17     22    188    190 264.5   6.7  34174  289.82 0855.09
2009/04/23 12:02:27.9    -134     -6    -22    135    137 267.4  -9.3  34178  289.89 0855.09
2009/04/23 12:02:28.0    -121     52     38    132    138 293.5  16.3  34184  289.97 0855.09
2009/04/23 12:02:28.1    -141     92     -6    169    170 303.1  -2.2  34178  289.89 0855.09
2009/04/23 12:02:28.2    -128     21    -30    130    134 279.7 -13.3  34174  289.82 0855.09
2009/04/23 12:02:28.3     -89    -49    -47    102    112 241.1 -31.0  34172  289.79 0855.09
2009/04/23 12:02:28.4     -36    -26    -63     45     77 234.0 -65.0  34168  289.70 0855.09
2009/04/23 12:02:28.5     107     -7    -38    108    114  93.9 -23.3  34172  289.79 0855.09
2009/04/23 12:02:28.6       3   -199      4    200    201 179.0   1.2  34178  289.89 0855.09
2009/04/23 12:02:28.7     -69   -247     -3    257    258 195.8  -0.7  34190  290.07 0855.09
2009/04/23 12:02:28.8     -31   -162     42    166    172 190.9  14.3  34188  290.04 0855.08
2009/04/23 12:02:28.9      24    -30     -4     39     40 140.4  -6.2  34182  289.96 0855.08
2009/04/23 12:02:29.0     141    -91    -47    168    175 122.9 -15.8  34178  289.89 0855.08
2009/04/23 12:02:29.1     127   -122     16    177    178 133.8   5.4  34178  289.89 0855.08
2009/04/23 12:02:29.2    -109     -8   -139    110    177 265.7 -61.9  34180  289.92 0855.08
2009/04/23 12:02:29.3    -116    -45   -116    125    170 248.7 -52.1  34178  289.89 0855.08
2009/04/23 12:02:29.4    -127   -127   -137    180    226 224.9 -45.8  34182  289.94 0855.08
2009/04/23 12:02:29.5    -126   -110   -148    168    223 228.9 -50.3  34178  289.89 0855.08
2009/04/23 12:02:29.6      22    -29   -107     37    113 142.2 -85.6  34180  289.91 0855.08
2009/04/23 12:02:29.7      26     13    -54     30     61  62.9 -73.2  34184  289.97 0855.08
2009/04/23 12:02:29.8      44     65    -55     79     96  34.3 -42.4  34180  289.91 0855.06
2009/04/23 12:02:29.9     -47     56    -59     74     94 320.4 -47.1  34178  289.89 0855.06
2009/04/23 12:02:30.0    -105     24    -95    108    143 283.3 -50.3  34180  289.91 0855.06
2009/04/23 12:02:30.1    -100      7    -99    101    141 274.4 -54.3  34182  289.94 0855.06
2009/04/23 12:02:30.2    -162   -175     -2    239    240 222.8  -0.5  34188  290.03 0855.06
2009/04/23 12:02:30.3    -252    -41    -27    256    258 260.8  -6.2  34180  289.90 0855.06
2009/04/23 12:02:30.4    -209   -165    -78    267    279 231.6 -16.4  34182  289.93 0855.06
2009/04/23 12:02:30.5    -140   -237    -87    276    290 210.5 -17.5  34180  289.92 0855.06
2009/04/23 12:02:30.6     -88   -274    -57    288    294 197.9 -11.3  34186  290.02 0855.06
2009/04/23 12:02:30.7     -99   -107    -40    147    153 222.8 -15.4  34186  290.01 0855.06
2009/04/23 12:02:30.8     -59     -3    -58     60     83 266.5 -54.4  34186  290.02 0855.06
2009/04/23 12:02:30.9    -130    203   -145    242    282 327.3 -38.1  34176  289.83 0855.06
2009/04/23 12:02:31.0     -87    216   -104    233    255 338.1 -30.1  34180  289.92 0855.06
2009/04/23 12:02:31.1      13    191    -84    192    209   4.0 -29.6  34172  289.79 0855.06
2009/04/23 12:02:31.2      41    175    -51    180    188  13.4 -15.8  34176  289.85 0855.06
2009/04/23 12:02:31.3     162    134     28    211    213  50.5   7.8  34172  289.77 0855.06
2009/04/23 12:02:31.4     145    112     92    184    205  52.5  28.5  34166  289.67 0855.06
2009/04/23 12:02:31.5      67     51     95     85    127  52.7  53.7  34170  289.74 0855.06
2009/04/23 12:02:31.6     105     31     21    110    113  73.6  11.0  34170  289.75 0855.06
2009/04/23 12:02:31.7     144     11     21    145    147  85.6   8.5  34176  289.84 0855.06
2009/04/23 12:02:31.8     217     64     62    227    236  73.4  15.3  34166  289.68 0855.07
2009/04/23 12:02:31.9     190     89     72    210    223  64.8  18.9  34174  289.80 0855.07
2009/04/23 12:02:32.0     190     15     94    191    212  85.2  28.0  34176  289.85 0855.07
2009/04/23 12:02:32.1     146     -4    146    147    207  91.7  50.0  34172  289.77 0855.07
2009/04/23 12:02:32.2     156    -15     98    157    185  95.7  35.2  34168  289.72 0855.07
2009/04/23 12:02:32.3     198     -3    144    199    245  90.9  39.7  34166  289.69 0855.07
2009/04/23 12:02:32.4     202     -8    116    203    233  92.4  32.4  34172  289.77 0855.07
2009/04/23 12:02:32.5     184    -22    103    186    212  97.0  31.4  34174  289.80 0855.07
2009/04/23 12:02:32.6     281    -46    184    285    339  99.5  35.7  34176  289.83 0855.07
2009/04/23 12:02:32.7     245    -39    137    249    284  99.2  31.3  34172  289.76 0855.07
2009/04/23 12:02:32.8     249    -35    131    252    284  98.0  29.3  34178  289.86 0855.07
2009/04/23 12:02:32.9     215    -43    178    220    282 101.4  43.5  34182  289.93 0855.07
2009/04/23 12:02:33.0      82   -166    105    186    213 153.7  32.1  34176  289.85 0855.07
2009/04/23 12:02:33.1      78    -51    106     94    141 122.9  53.7  34176  289.85 0855.07
2009/04/23 12:02:33.2     167      1     41    168    174  89.6  13.9  34182  289.96 0855.07
2009/04/23 12:02:33.3     140     49     23    149    151  70.5   8.9  34186  290.01 0855.07
2009/04/23 12:02:33.4      50     90    123    104    161  29.0  55.6  34228  290.72 0855.07
2009/04/23 12:02:33.5     -16    -50     82     53     97 198.7  64.6  34212  290.45 0855.07
2009/04/23 12:02:33.6     -16    -47     85     50     98 198.7  67.2  34228  290.74 0855.07
2009/04/23 12:02:33.7     -32    -97     61    103    119 198.3  33.5  34218  290.57 0855.07
2009/04/23 12:02:33.8    -106    -99     93    146    173 226.9  35.5  34206  290.35 0855.04
2009/04/23 12:02:33.9     -43   -123    137    131    189 199.6  51.2  34202  290.30 0855.04
2009/04/23 12:02:34.0    -100   -181    130    207    244 209.0  35.5  34222  290.63 0855.04
2009/04/23 12:02:34.1     -25    -63    103     68    123 201.8  64.1  34212  290.45 0855.04
2009/04/23 12:02:34.2     -53    -79    132     96    163 213.8  60.5  34182  289.96 0855.04
2009/04/23 12:02:34.3     -10   -233    217    234    319 182.7  47.8  34182  289.93 0855.04
2009/04/23 12:02:34.4     -24   -365    282    366    462 183.9  41.6  34170  289.75 0855.04
2009/04/23 12:02:34.5     -64   -296    289    303    418 192.3  48.7  34182  289.93 0855.04
2009/04/23 12:02:34.6     -43   -258    207    262    333 189.6  42.3  34174  289.81 0855.04
2009/04/23 12:02:34.7     -49   -316    191    320    372 188.9  33.5  34164  289.65 0855.04
2009/04/23 12:02:34.8    -190   -397    160    441    469 205.6  20.8  34184  289.99 0855.04
2009/04/23 12:02:34.9    -160   -344     95    380    392 205.0  14.2  34182  289.94 0855.04
2009/04/23 12:02:35.0    -223   -299     18    374    375 216.8   2.8  34198  290.20 0855.04
2009/04/23 12:02:35.1    -289   -386     41    483    485 216.9   4.9  34192  290.13 0855.04
2009/04/23 12:02:35.2    -238   -261     51    354    358 222.3   8.3  34188  290.04 0855.04
2009/04/23 12:02:35.3    -215   -444    235    494    547 205.9  27.3  34162  289.62 0855.04
2009/04/23 12:02:35.4    -133   -468    196    487    524 195.9  23.1  34162  289.62 0855.04
2009/04/23 12:02:35.5     -71   -339    149    347    377 191.9  24.8  34162  289.59 0855.04
2009/04/23 12:02:35.6    -131   -289    244    318    400 204.5  41.5  34166  289.67 0855.04
2009/04/23 12:02:35.7     -67   -289    228    297    374 193.1  41.5  34162  289.62 0855.04
2009/04/23 12:02:35.8     -75   -223    188    236    301 198.7  42.7  34162  289.61 0855.02
2009/04/23 12:02:35.9    -104   -158    130    190    230 213.4  37.6  34162  289.60 0855.02
2009/04/23 12:02:36.0       1    -14     93     15     94 175.6  90.0  34176  289.85 0855.02
2009/04/23 12:02:36.1     -31   -155    105    159    190 191.5  36.5  34164  289.65 0855.02
2009/04/23 12:02:36.2     -25   -239     97    241    259 186.0  23.1  34164  289.64 0855.02
2009/04/23 12:02:36.3     -30   -304     -1    306    307 185.8  -0.3  34164  289.63 0855.02
2009/04/23 12:02:36.4     -51   -273    -55    278    284 190.7 -11.3  34162  289.59 0855.02
2009/04/23 12:02:36.5    -144    -48   -189    152    242 251.4 -61.7  34164  289.63 0855.02
2009/04/23 12:02:36.6    -188     48   -156    195    249 284.4 -47.2  34164  289.63 0855.02
2009/04/23 12:02:36.7    -176     67   -126    189    227 290.8 -41.1  34168  289.72 0855.02
2009/04/23 12:02:36.8    -322     85    -42    333    336 284.8  -7.3  34172  289.79 0855.02
2009/04/23 12:02:37.0    -434     33    -14    436    437 274.4  -1.9  34166  289.66 0855.02
2009/04/23 12:02:37.1    -477   -116   -146    491    513 256.3 -16.6  34166  289.69 0855.02
2009/04/23 12:02:37.2    -511    -87   -179    519    549 260.3 -24.3  34160  289.58 0855.02
2009/04/23 12:02:37.3    -439    -43   -162    442    470 264.3 -25.4  34152  289.43 0855.02
2009/04/23 12:02:37.4    -359    -21   -231    360    427 266.6 -40.0  34162  289.61 0855.02
2009/04/23 12:02:37.5    -350    -33   -164    352    388 264.5 -31.5  34172  289.79 0855.02
2009/04/23 12:02:37.6    -324     24   -128    325    349 274.4 -27.1  34168  289.71 0855.02
2009/04/23 12:02:37.7    -162    297     -4    339    340 331.3  -0.7  34166  289.69 0855.02
2009/04/23 12:02:37.8    -168    220    -37    278    281 322.6  -7.7  34162  289.61 0855.02
2009/04/23 12:02:37.9     -73    132    -52    151    160 331.0 -19.1  34160  289.57 0855.02
2009/04/23 12:02:38.0    -208    195    102    286    303 313.1  20.2  34166  289.68 0855.02
2009/04/23 12:02:38.1    -256    135     90    290    304 297.9  17.3  34164  289.64 0855.02
2009/04/23 12:02:38.2    -217    138     35    258    261 302.6   7.8  34164  289.64 0855.02
2009/04/23 12:02:38.3    -209    171     49    271    276 309.3  10.3  34166  289.68 0855.02
2009/04/23 12:02:38.4    -247    204    -86    321    333 309.5 -15.0  34172  289.76 0855.02
2009/04/23 12:02:38.5    -219    360     -8    422    423 328.7  -1.2  34180  289.92 0855.02
2009/04/23 12:02:38.6    -219    388    -32    446    448 330.6  -4.1  34182  289.95 0855.02
2009/04/23 12:02:38.7    -205    396    -17    447    448 332.6  -2.2  34174  289.80 0855.02
2009/04/23 12:02:38.8    -184    386    -10    428    429 334.5  -1.4  34160  289.58 0855.02
2009/04/23 12:02:38.9    -218    239     59    324    330 317.6  10.3  34164  289.64 0855.02
2009/04/23 12:02:39.0    -273    253   -132    373    396 312.9 -19.6  34184  289.99 0855.02
2009/04/23 12:02:39.1    -274    265   -129    382    403 314.0 -23.6  34172  289.79 0855.02
2009/04/23 12:02:39.2    -326    322   -148    459    482 314.7 -22.9  34168  289.71 0855.02
2009/04/23 12:02:39.3    -362    341    -19    498    499 313.3  -2.2  34174  289.81 0855.02
2009/04/23 12:02:39.4    -374    360    -37    520    522 313.9  -4.1  34156  289.51 0855.02
2009/04/23 12:02:39.5    -348    314   -103    469    481 312.1 -12.4  34156  289.52 0855.02
2009/04/23 12:02:39.6    -535    338   -166    633    655 302.3 -14.7  34162  289.62 0855.02
2009/04/23 12:02:39.7    -495    291    -77    575    581 300.4  -7.7  34166  289.66 0855.02
2009/04/23 12:02:39.8    -198    315    207    373    426 327.9  31.4  34172  289.77 0855.02
2009/04/23 12:02:39.9    -133    268    151    300    335 333.5  28.7  34186  290.00 0855.02
2009/04/23 12:02:40.0     -79    325    146    335    365 346.2  25.1  34202  290.30 0855.02
2009/04/23 12:02:40.1    -196    370    105    419    433 332.0  14.2  34188  290.05 0855.02
2009/04/23 12:02:40.2    -116    407     25    424    425 344.1   3.5  34204  290.33 0855.02
2009/04/23 12:02:40.3     -79    372     12    381    382 348.0   1.9  34194  290.15 0855.02
2009/04/23 12:02:40.4     -98    361    -63    375    381 344.7  -9.6  34176  289.84 0855.02
2009/04/23 12:02:40.5     -69    334     98    342    356 348.3  16.0  34198  290.20 0855.02
2009/04/23 12:02:40.6      -9    193    196    194    275 357.1  50.1  34182  289.95 0855.02
2009/04/23 12:02:40.7     -87    211    194    229    300 337.5  44.5  34186  290.00 0855.02
2009/04/23 12:02:40.8       9    243    217    244    326   2.2  46.3  34184  289.98 0855.02
2009/04/23 12:02:40.9       0    199    209    200    289   0.0  51.2  34210  290.41 0855.02
2009/04/23 12:02:41.0     -14    221    194    222    294 356.4  45.8  34202  290.27 0855.02
2009/04/23 12:02:41.1    -107    311    137    330    357 341.0  23.8  34222  290.62 0855.02
2009/04/23 12:02:41.2    -108    279    140    300    331 338.8  26.9  34224  290.66 0855.02
2009/04/23 12:02:41.3       0    233    187    234    299 359.8  42.7  34210  290.41 0855.02
2009/04/23 12:02:41.4     -63    177    179    189    260 340.2  48.2  34244  291.00 0855.02
2009/04/23 12:02:41.5      15     71    158     73    174  12.5  73.5  34226  290.69 0855.02
2009/04/23 12:02:41.6     219    168    178    277    329  52.5  35.6  34204  290.31 0855.02
2009/04/23 12:02:41.7     202    280    133    346    370  35.9  22.0  34192  290.13 0855.02
2009/04/23 12:02:41.8     212    240    200    321    378  41.4  35.0  34202  290.30 0855.02
2009/04/23 12:02:41.9     228    241    241    333    411  43.4  39.5  34238  290.91 0855.00
2009/04/23 12:02:42.0     604    259    265    658    709  66.8  23.2  34184  289.97 0855.00
2009/04/23 12:02:42.1     369    344    229    505    554  47.0  26.2  34262  291.31 0855.00
2009/04/23 12:02:42.2     602    331    177    687    710  61.2  14.5  34182  289.96 0855.00
2009/04/23 12:02:42.3     626    264    176    680    703  67.1  14.5  34160  289.58 0855.00
2009/04/23 12:02:42.4     476    177    194    508    543  69.6  22.0  34162  289.62 0855.00
2009/04/23 12:02:42.5     635    136    113    650    660  77.8   9.9  34172  289.77 0855.00
2009/04/23 12:02:42.6     584    158     85    606    613  74.9   8.0  34166  289.69 0855.00
2009/04/23 12:02:42.7     518     71    164    523    549  82.2  17.4  34174  289.82 0855.00
2009/04/23 12:02:42.8     516    151    244    538    590  73.6  26.2  34170  289.73 0855.00
2009/04/23 12:02:42.9     646    109    305    656    723  80.4  26.7  34168  289.72 0855.00
2009/04/23 12:02:43.0     735    -95    491    742    889  97.4  36.5  34198  290.21 0855.00
2009/04/23 12:02:43.1     737   -114    463    746    878  98.8  34.8  34222  290.61 0855.00
2009/04/23 12:02:43.2     615   -244    354    662    750 111.7  30.5  34246  291.03 0855.00
2009/04/23 12:02:43.3     366   -448    174    579    605 140.8  16.8  34180  289.91 0855.00
2009/04/23 12:02:43.4     291   -508    237    586    632 150.2  23.2  34200  290.25 0855.00
2009/04/23 12:02:43.5     304   -493    296    580    651 148.4  29.2  34212  290.45 0855.00
2009/04/23 12:02:43.6     260   -568    319    625    701 155.4  29.2  34180  289.90 0855.00
2009/04/23 12:02:43.7      66   -476    229    481    532 172.0  27.3  34180  289.91 0855.00
2009/04/23 12:02:43.8     154   -352    294    385    484 156.3  41.2  34166  289.68 0855.00
2009/04/23 12:02:43.9     109   -241    294    265    395 155.5  53.4  34186  290.01 0855.00
2009/04/23 12:02:44.0     136   -288    302    319    439 154.7  48.4  34178  289.87 0855.00
2009/04/23 12:02:44.1     213   -223    286    309    421 136.3  47.7  34172  289.76 0855.00
2009/04/23 12:02:44.2     104   -360    297    375    478 163.9  42.6  34174  289.82 0855.00
2009/04/23 12:02:44.3     112   -219    231    247    338 152.8  48.0  34178  289.88 0855.00
2009/04/23 12:02:44.4      41    -22    164     47    170 118.9  83.9  34178  289.87 0855.00
2009/04/23 12:02:44.5      83   -209    278    226    358 158.2  56.8  34188  290.03 0855.00
2009/04/23 12:02:44.6     -21     38    172     44    177 330.1  85.4  34188  290.06 0855.00
2009/04/23 12:02:44.7     -38   -134    329    140    357 196.0  75.7  34194  290.15 0855.00
2009/04/23 12:02:44.8      -4   -314    329    315    455 180.9  51.4  34202  290.28 0855.00
2009/04/23 12:02:44.9     -61   -228    235    237    333 195.1  49.9  34188  290.03 0855.00
2009/04/23 12:02:45.0      91   -300    285    314    424 163.0  46.9  34188  290.03 0855.00
2009/04/23 12:02:45.1      43   -279    299    283    411 171.1  52.0  34178  289.89 0855.00
2009/04/23 12:02:45.2      34   -383    320    385    500 174.9  43.8  34164  289.64 0855.00
2009/04/23 12:02:45.3      23   -339    284    340    443 176.0  44.0  34162  289.61 0855.00
2009/04/23 12:02:45.4      94   -311    311    326    450 163.1  48.5  34164  289.65 0855.00
2009/04/23 12:02:45.5      -8   -296    247    297    386 181.6  43.8  34184  289.99 0855.00
2009/04/23 12:02:45.6     -14   -353    227    354    420 182.3  35.6  34196  290.18 0855.00
2009/04/23 12:02:45.7      -7   -226    263    227    347 181.8  55.0  34176  289.83 0855.00
2009/04/23 12:02:45.8       1    -60    138     61    150 179.0  74.9  34174  289.82 0855.00
2009/04/23 12:02:45.9     -62   -183    266    194    329 198.7  60.4  34164  289.63 0854.99
2009/04/23 12:02:46.0     -64   -194    231    205    308 198.3  54.2  34162  289.61 0854.99
2009/04/23 12:02:46.1    -116   -193    156    226    274 211.0  38.0  34184  289.97 0854.99
2009/04/23 12:02:46.2     -64   -147    169    161    233 203.6  51.4  34164  289.63 0854.99
2009/04/23 12:02:46.3       1    -72    155     73    171 179.1  73.1  34174  289.80 0854.99
2009/04/23 12:02:46.4     -31    -49    172     59    181 212.6  81.0  34172  289.77 0854.99
2009/04/23 12:02:46.5     -46   -116    186    126    224 201.8  62.7  34172  289.77 0854.99
2009/04/23 12:02:46.6     -23      3    109     24    111 277.9  89.0  34174  289.82 0854.99
2009/04/23 12:02:46.7      -2     89     99     90    133 358.2  52.7  34174  289.80 0854.99
2009/04/23 12:02:46.8      20     49     88     54    103  22.7  64.7  34172  289.79 0854.99
2009/04/23 12:02:46.9      -2    -36    118     37    123 184.4  82.3  34170  289.74 0854.99
2009/04/23 12:02:47.0     -60    -62     70     87    111 223.7  43.7  34166  289.67 0854.99
2009/04/23 12:02:47.1     -98      7     42     99    107 274.4  23.6  34168  289.70 0854.99
2009/04/23 12:02:47.2     -82    -78    100    114    151 226.4  45.8  34164  289.65 0854.99
2009/04/23 12:02:47.3    -111   -249    125    273    300 204.1  26.2  34170  289.73 0854.99
2009/04/23 12:02:47.4    -124   -280     85    307    319 203.8  15.6  34178  289.86 0854.99
2009/04/23 12:02:47.5    -131   -245    -18    278    279 208.1  -3.9  34170  289.73 0854.99
2009/04/23 12:02:47.6    -143   -158    104    214    237 222.1  28.0  34172  289.79 0854.99
2009/04/23 12:02:47.7    -177    -15     62    178    189 265.0  19.2  34180  289.91 0854.99
2009/04/23 12:02:47.8     -81     62     27    103    107 307.3  14.7  34202  290.30 0854.99
2009/04/23 12:02:47.9       0    -63    123     64    138 180.9  70.8  34202  290.28 0855.00
2009/04/23 12:02:48.0     -59    -17     87     62    106 253.2  61.1  34210  290.41 0855.00
2009/04/23 12:02:48.1    -103     77    118    129    174 306.9  47.1  34232  290.79 0855.00
2009/04/23 12:02:48.2    -120     16    106    122    161 278.0  45.6  34234  290.84 0855.00
2009/04/23 12:02:48.3     161    125    -81    204    219  52.2 -27.4  34228  290.72 0855.00
2009/04/23 12:02:48.4     256    132    134    289    318  62.7  26.5  34192  290.12 0855.00
2009/04/23 12:02:48.5     371    131    228    394    455  70.4  32.7  34202  290.29 0855.00
2009/04/23 12:02:48.6     437    159    231    466    520  70.0  28.2  34222  290.62 0855.00
2009/04/23 12:02:48.7     297    105    221    316    385  70.5  38.4  34212  290.45 0855.00
2009/04/23 12:02:48.8     222    100    179    244    302  65.6  39.7  34208  290.37 0855.00
2009/04/23 12:02:48.9     243     65    225    252    337  75.0  46.5  34194  290.15 0855.00
2009/04/23 12:02:49.0      95     84    208    128    244  48.6  65.6  34216  290.53 0855.00
2009/04/23 12:02:49.1      54     34    174     65    185  57.6  79.2  34216  290.52 0855.00
2009/04/23 12:02:49.2      30     19    182     36    185  57.6  89.1  34198  290.23 0855.00
2009/04/23 12:02:49.3      82    -10    177     83    195  97.5  73.1  34190  290.08 0855.00
2009/04/23 12:02:49.4       6    -33    140     34    144 168.4  86.4  34200  290.25 0855.00
2009/04/23 12:02:49.5     -68   -146    181    162    242 204.9  53.5  34198  290.21 0855.00
2009/04/23 12:02:49.6     -51   -191    151    198    249 195.2  41.2  34190  290.07 0855.00
2009/04/23 12:02:49.7      58    -77    124     97    157 143.0  57.9  34180  289.92 0855.00
2009/04/23 12:02:49.8      73    -47    105     88    137 122.9  56.3  34182  289.94 0855.00
2009/04/23 12:02:49.9     166   -252    169    302    346 146.6  31.6  34178  289.89 0855.00
2009/04/23 12:02:50.0      94   -235    234    254    345 158.1  47.6  34180  289.92 0855.00
2009/04/23 12:02:50.1     150    -98    212    180    278 123.1  55.4  34188  290.03 0855.00
2009/04/23 12:02:50.2      50    -34    183     61    192 124.2  81.0  34188  290.04 0855.00
2009/04/23 12:02:50.3      64     21    172     68    184  71.6  77.4  34198  290.21 0855.00
2009/04/23 12:02:50.4     -33   -110    247    116    272 196.9  73.1  34194  290.15 0855.00
2009/04/23 12:02:50.5     -38      0    200     39    203 269.2  89.8  34198  290.21 0855.00
2009/04/23 12:02:50.6     123    -13    235    124    265  96.2  70.0  34190  290.09 0855.00
2009/04/23 12:02:50.7      91   -110    251    143    288 140.4  67.8  34194  290.14 0855.00
2009/04/23 12:02:50.8      11    158    173    159    234   4.0  52.7  34198  290.23 0855.00
2009/04/23 12:02:50.9    -206     82    197    222    296 291.8  46.2  34190  290.09 0855.02
2009/04/23 12:02:51.0      25      0    113     26    115  90.0  88.0  34190  290.09 0855.02
2009/04/23 12:02:51.1     -28   -138    119    141    184 191.5  44.5  34192  290.11 0855.02
2009/04/23 12:02:51.2     -96   -387    278    399    486 194.1  38.3  34184  289.99 0855.02
2009/04/23 12:02:51.3    -152   -265    223    306    378 209.9  39.7  34182  289.93 0855.02
2009/04/23 12:02:51.4    -300   -204    194    363    411 235.8  30.3  34182  289.94 0855.02
2009/04/23 12:02:51.5    -133   -262    126    294    319 207.0  24.6  34184  289.98 0855.02
2009/04/23 12:02:51.6    -223     -3    133    224    260 269.1  33.5  34186  290.02 0855.02
2009/04/23 12:02:51.7    -143    112     63    182    193 308.0  19.2  34194  290.14 0855.02
2009/04/23 12:02:51.8    -140    -83    105    163    193 239.3  35.6  34192  290.13 0855.02
2009/04/23 12:02:51.9       0    -54    127     55    138 180.9  75.0  34188  290.04 0855.02
2009/04/23 12:02:52.0      32   -191    100    194    218 170.4  29.3  34186  290.02 0855.02
2009/04/23 12:02:52.1      71   -157     57    173    183 155.5  18.4  34186  290.02 0855.02
2009/04/23 12:02:52.2      76   -128     72    150    166 149.3  27.3  34188  290.04 0855.02
2009/04/23 12:02:52.3      87   -185     63    205    215 154.8  17.3  34188  290.06 0855.02
2009/04/23 12:02:52.4     108   -109    151    154    215 135.5  49.8  34186  290.01 0855.02
2009/04/23 12:02:52.5     145    -90    181    171    249 122.0  51.6  34190  290.08 0855.02
2009/04/23 12:02:52.6     161    -41    216    167    273 104.4  58.5  34190  290.09 0855.02
2009/04/23 12:02:52.7     111   -142    185    181    258 142.2  50.7  34188  290.05 0855.02
2009/04/23 12:02:52.8     160   -337    279    374    466 154.5  40.4  34176  289.83 0855.02
2009/04/23 12:02:52.9      88   -458    386    467    605 169.1  43.7  34184  289.99 0855.03
2009/04/23 12:02:53.0      67   -240    299    250    389 164.4  56.0  34192  290.11 0855.03
2009/04/23 12:02:53.1      81   -287    331    299    446 164.2  53.3  34186  290.02 0855.03
2009/04/23 12:02:53.2       0   -381    359    382    524 179.9  48.0  34178  289.88 0855.03
2009/04/23 12:02:53.3     -32   -298    354    300    464 186.2  55.6  34194  290.16 0855.03
2009/04/23 12:02:53.4     -94   -433    349    444    564 192.3  42.2  34182  289.94 0855.03
2009/04/23 12:02:53.5      73   -310    370    319    488 166.6  54.9  34178  289.88 0855.03
2009/04/23 12:02:53.6      46   -268    396    273    480 170.2  62.1  34170  289.73 0855.03
2009/04/23 12:02:53.7     -14   -300    429    301    524 182.7  61.7  34170  289.75 0855.03
2009/04/23 12:02:53.8      -7   -386    438    387    584 181.2  54.2  34182  289.94 0855.03
2009/04/23 12:02:53.9     -53   -310    412    315    518 189.8  58.9  34168  289.72 0855.03
2009/04/23 12:02:54.0      72   -320    352    329    481 167.3  52.2  34178  289.88 0855.03
2009/04/23 12:02:54.1     -73   -447    427    454    623 189.3  48.2  34166  289.69 0855.03
2009/04/23 12:02:54.2    -136   -385    351    409    538 199.5  45.0  34172  289.79 0855.03
2009/04/23 12:02:54.3    -257   -473    315    539    624 208.5  33.0  34182  289.93 0855.03
2009/04/23 12:02:54.4    -217   -353    349    415    542 211.6  44.3  34176  289.83 0855.03
2009/04/23 12:02:54.5    -208   -434    294    482    564 205.6  34.4  34174  289.82 0855.03
2009/04/23 12:02:54.6    -189   -382    225    427    482 206.3  30.1  34172  289.78 0855.03
2009/04/23 12:02:54.7    -265   -370    197    456    496 215.6  24.8  34166  289.69 0855.03
2009/04/23 12:02:54.8    -309   -337    189    458    495 222.5  23.6  34172  289.79 0855.03
2009/04/23 12:02:54.9    -298   -295    164    420    450 225.3  22.7  34180  289.92 0855.03
2009/04/23 12:02:55.0    -361   -439    229    569    613 219.5  23.1  34166  289.68 0855.03
2009/04/23 12:02:55.1    -490   -196    173    528    556 248.2  18.2  34180  289.90 0855.03
2009/04/23 12:02:55.2    -394   -240    -59    462    466 238.7  -7.4  34176  289.84 0855.03
2009/04/23 12:02:55.3    -463   -257    -20    530    531 241.0  -2.2  34178  289.87 0855.03
2009/04/23 12:02:55.4    -433   -270    -19    511    512 238.0  -2.2  34170  289.74 0855.03
2009/04/23 12:02:55.5    -427   -310    -10    528    529 234.0  -1.2  34178  289.87 0855.03
2009/04/23 12:02:55.6    -419   -231    -21    479    480 241.1  -2.6  34202  290.27 0855.03
2009/04/23 12:02:55.7    -540   -110    -43    552    554 258.4  -4.5  34168  289.72 0855.03
2009/04/23 12:02:55.8    -412   -262     37    489    491 237.5   4.4  34168  289.71 0855.03
2009/04/23 12:02:55.9    -234   -177     98    294    311 232.9  18.5  34176  289.83 0855.03
2009/04/23 12:02:56.0    -227   -128     74    261    272 240.5  15.8  34176  289.83 0855.03
2009/04/23 12:02:56.1    -185   -262    -80    321    331 215.2 -14.1  34174  289.81 0855.03
2009/04/23 12:02:56.2    -177   -136   -151    224    270 232.5 -41.7  34180  289.92 0855.03
2009/04/23 12:02:56.3      -9   -202   -113    203    232 182.6 -35.8  34170  289.74 0855.03
2009/04/23 12:02:56.4     -37   -197    -76    201    214 190.7 -25.7  34168  289.70 0855.03
2009/04/23 12:02:56.5    -133   -196    -29    237    239 214.2  -7.2  34164  289.63 0855.03
2009/04/23 12:02:56.6    -150   -164    -17    223    224 222.5  -4.4  34170  289.74 0855.03
2009/04/23 12:02:56.7     -50   -212    -52    218    225 193.3 -13.4  34164  289.65 0855.03
2009/04/23 12:02:56.8      44   -217    -53    222    229 168.4 -13.4  34162  289.60 0855.03
2009/04/23 12:02:56.9     111   -252     -5    276    277 156.2  -1.2  34164  289.64 0855.01
2009/04/23 12:02:57.0      24   -225   -138    227    265 173.7 -38.8  34172  289.76 0855.01
2009/04/23 12:02:57.1     162   -326   -143    365    392 153.5 -27.1  34162  289.62 0855.01
2009/04/23 12:02:57.2     248   -359   -143    437    460 145.4 -18.2  34160  289.58 0855.01
2009/04/23 12:02:57.3     192   -300   -129    357    379 147.4 -25.1  34154  289.48 0855.01
2009/04/23 12:02:57.4     276   -283   -135    396    418 135.8 -23.7  34162  289.61 0855.01
2009/04/23 12:02:57.5     309   -204   -128    371    392 123.5 -24.0  34156  289.52 0855.01
2009/04/23 12:02:57.6     215   -136   -137    255    289 122.5 -35.0  34158  289.54 0855.01
2009/04/23 12:02:57.7     132   -159    -98    207    229 140.4 -31.6  34162  289.62 0855.01
2009/04/23 12:02:57.8      88   -190   -127    210    245 155.1 -38.4  34162  289.61 0855.01
2009/04/23 12:02:57.9     195   -144    -95    243    260 126.4 -26.9  34162  289.59 0855.01
2009/04/23 12:02:58.0     199    -40    -25    203    205 101.4  -7.2  34154  289.48 0855.01
2009/04/23 12:02:58.1     170     -7     13    171    172  92.6   4.4  34156  289.52 0855.01
2009/04/23 12:02:58.2     176    -42     42    182    187 103.5  13.2  34156  289.52 0855.01
2009/04/23 12:02:58.3      88   -125     59    154    164 144.8  21.5  34162  289.60 0855.01
2009/04/23 12:02:58.4     152   -138    -14    206    207 132.4  -3.9  34158  289.53 0855.01
2009/04/23 12:02:58.5     184   -209    -37    279    282 138.6  -7.7  34154  289.46 0855.01
2009/04/23 12:02:58.6     193   -206    -32    283    285 136.8  -6.5  34154  289.46 0855.01
2009/04/23 12:02:58.7     160   -193    -69    251    261 140.3 -15.5  34154  289.46 0855.01
2009/04/23 12:02:58.8     157   -158    -67    223    233 135.2 -16.8  34156  289.50 0855.01
2009/04/23 12:02:58.9      87   -141   -135    166    213 148.4 -47.9  34160  289.57 0855.00
2009/04/23 12:02:59.0      58   -158   -115    169    204 159.7 -42.0  34160  289.57 0855.00
2009/04/23 12:02:59.1      54    -87   -160    103    190 148.4 -69.0  34162  289.60 0855.00
2009/04/23 12:02:59.2      52   -146    -98    156    184 160.4 -39.9  34162  289.60 0855.00
2009/04/23 12:02:59.3      77   -153    -77    172    188 153.3 -30.1  34162  289.60 0855.00
2009/04/23 12:02:59.4     109   -151    -50    187    194 144.2 -15.2  34164  289.63 0855.00
2009/04/23 12:02:59.5     142   -108    -23    179    181 127.5  -7.3  34164  289.63 0855.00
2009/04/23 12:02:59.6     154   -131     29    203    206 130.4   8.2  34166  289.69 0855.00
2009/04/23 12:02:59.7     120   -112     89    165    187 133.1  30.8  34164  289.65 0855.00
2009/04/23 12:02:59.8      27   -176     61    179    190 171.1  18.9  34162  289.60 0855.00
2009/04/23 12:02:59.9     117   -187     31    221    224 147.9   8.0  34166  289.69 0855.00
2009/04/23 12:03:00.0      87   -137     59    163    173 147.5  20.4  34166  289.67 0855.00
2009/04/23 12:03:00.1      39   -119     59    126    139 161.5  27.1  34166  289.67 0855.00
2009/04/23 12:03:00.2      97    -41     12    106    107 113.1   6.9  34168  289.70 0855.00
2009/04/23 12:03:00.3     126    -25     -9    129    130 101.5  -4.1  34164  289.65 0855.00
2009/04/23 12:03:00.4     190    -16      9    191    192  95.0   2.8  34168  289.70 0855.00
2009/04/23 12:03:00.5     116    -27     23    120    123 103.3  11.1  34166  289.67 0855.00
2009/04/23 12:03:00.6     155   -127     25    201    203 129.5   7.2  34160  289.57 0855.00
2009/04/23 12:03:00.7     122   -129     48    178    185 136.6  15.3  34156  289.50 0855.00
2009/04/23 12:03:00.8     102   -131     47    167    174 142.1  15.8  34158  289.53 0855.00
2009/04/23 12:03:00.9      75   -185     40    200    205 157.7  11.4  34158  289.55 0854.96
2009/04/23 12:03:01.0     -30   -187     63    190    201 189.3  18.4  34162  289.62 0854.96
2009/04/23 12:03:01.1    -123   -203     37    238    241 211.2   8.9  34164  289.63 0854.96
2009/04/23 12:03:01.2     -92   -215     43    234    239 203.2  10.6  34162  289.61 0854.96
2009/04/23 12:03:01.3     -43   -214     -1    219    220 191.6  -0.5  34162  289.60 0854.96
2009/04/23 12:03:01.4     -31   -177     30    180    183 190.2   9.5  34160  289.57 0854.96
2009/04/23 12:03:01.5     -50   -125     11    135    136 201.9   5.0  34162  289.62 0854.96
2009/04/23 12:03:01.6    -123   -168    -49    209    215 216.1 -13.4  34162  289.62 0854.96
2009/04/23 12:03:01.7     -68   -104    174    125    214 213.0  60.8  34152  289.45 0854.96
2009/04/23 12:03:01.8     -69   -259    232    269    355 195.1  45.4  34150  289.40 0854.96
2009/04/23 12:03:01.9    -119   -386    196    405    449 197.2  27.4  34148  289.38 0854.96
2009/04/23 12:03:02.1    -170   -318    161    361    395 208.2  25.7  34148  289.38 0854.96
2009/04/23 12:03:02.1    -182   -238     98    300    316 217.4  18.1  34152  289.44 0854.96
2009/04/23 12:03:02.2    -142   -214     17    257    258 213.6   3.8  34152  289.44 0854.96
2009/04/23 12:03:02.3     -70   -127     59    146    157 208.9  23.0  34146  289.35 0854.96
2009/04/23 12:03:02.4     -23    -72    184     76    199 198.3  76.6  34158  289.53 0854.96
2009/04/23 12:03:02.5     -17    -56    174     59    183 196.9  81.2  34160  289.57 0854.96
2009/04/23 12:03:02.6     -15    -47    143     50    151 198.3  81.2  34158  289.53 0854.96
2009/04/23 12:03:02.7     -10   -227    196    228    300 182.7  45.1  34156  289.49 0854.96
2009/04/23 12:03:02.8      32   -221    195    224    296 171.8  45.8  34152  289.44 0854.96
2009/04/23 12:03:02.9      20   -129    183    131    225 171.1  60.6  34156  289.50 0854.95
2009/04/23 12:03:03.0     -40   -168    208    173    270 193.4  56.3  34156  289.49 0854.95
2009/04/23 12:03:03.1      -5   -152     88    153    176 182.2  32.4  34154  289.48 0854.95
2009/04/23 12:03:03.2      82   -231    161    246    294 160.4  36.3  34156  289.51 0854.95
2009/04/23 12:03:03.4     -12   -195    149    196    246 183.8  41.2  34152  289.43 0854.95
2009/04/23 12:03:03.5     -32   -237    145    240    280 187.8  34.0  34156  289.49 0854.95
2009/04/23 12:03:03.6      40   -236     78    240    253 170.4  18.1  34158  289.54 0854.95
2009/04/23 12:03:03.7      47   -189    127    195    232 166.0  35.6  34150  289.40 0854.95
2009/04/23 12:03:03.8      87   -200    168    219    276 156.4  41.6  34162  289.59 0854.95
2009/04/23 12:03:03.9      43   -230    195    235    305 169.3  43.8  34158  289.53 0854.95
2009/04/23 12:03:04.0      13   -122    153    123    196 173.8  56.9  34156  289.50 0854.95
2009/04/23 12:03:04.1      81   -101     71    130    148 141.3  31.3  34156  289.52 0854.95
2009/04/23 12:03:04.2      80   -148     52    169    178 151.5  17.3  34152  289.45 0854.95
2009/04/23 12:03:04.3     -37   -242    -45    245    250 188.7 -10.5  34154  289.46 0854.95
2009/04/23 12:03:04.4     -79   -337     57    347    352 193.2   9.4  34152  289.42 0854.95
2009/04/23 12:03:04.5     -94   -305     88    320    332 197.2  15.4  34150  289.39 0854.95
2009/04/23 12:03:04.6      11   -302     80    303    314 177.8  14.9  34154  289.47 0854.95
2009/04/23 12:03:04.7      63   -208    165    218    273 163.1  40.7  34154  289.46 0854.95
2009/04/23 12:03:04.8     -32   -288     43    290    294 186.5   8.5  34152  289.44 0854.95
2009/04/23 12:03:04.9     -95   -354     31    367    369 195.1   5.0  34150  289.40 0854.95
2009/04/23 12:03:05.0    -148   -269     98    308    324 208.9  17.7  34154  289.46 0854.97
2009/04/23 12:03:05.1    -177   -373     49    413    416 205.4   6.8  34152  289.43 0854.97
2009/04/23 12:03:05.2    -166   -464    112    493    506 199.7  12.9  34152  289.44 0854.97
2009/04/23 12:03:05.3    -210   -412     48    463    466 207.1   6.0  34150  289.40 0854.97
2009/04/23 12:03:05.4    -167   -327    165    368    403 207.0  25.9  34154  289.47 0854.97
2009/04/23 12:03:05.5     -71   -343    158    351    384 191.8  25.9  34152  289.43 0854.97
2009/04/23 12:03:05.6      16   -256    185    257    316 176.4  39.3  34152  289.42 0854.97
2009/04/23 12:03:05.7     207   -223    197    305    363 137.2  35.7  34152  289.43 0854.97
2009/04/23 12:03:05.8     235   -243     35    339    341 135.9   6.0  34154  289.47 0854.97
2009/04/23 12:03:05.9     176   -275    -33    327    329 147.3  -5.9  34148  289.37 0854.97
2009/04/23 12:03:06.0     144   -532      0    552    553 164.9   0.0  34152  289.45 0854.97
2009/04/23 12:03:06.1      54   -454    -99    458    469 173.1 -12.3  34150  289.39 0854.97
2009/04/23 12:03:06.2      78   -499    -28    506    507 171.1  -3.2  34150  289.40 0854.97
2009/04/23 12:03:06.3      33   -534    -88    536    544 176.4  -9.4  34150  289.41 0854.97
2009/04/23 12:03:06.4    -100   -574   -162    583    606 189.9 -15.5  34152  289.44 0854.97
2009/04/23 12:03:06.5    -113   -716    -17    726    727 189.0  -1.4  34142  289.28 0854.97
2009/04/23 12:03:06.6    -161   -579     69    602    607 195.6   6.6  34150  289.41 0854.97
2009/04/23 12:03:06.7    -368   -592    -88    698    704 211.9  -7.2  34152  289.44 0854.97
2009/04/23 12:03:06.8    -440   -482    -90    653    660 222.4  -7.9  34148  289.38 0854.97
2009/04/23 12:03:06.9    -294   -499     -6    580    581 210.5  -0.6  34150  289.39 0854.97
2009/04/23 12:03:07.0    -195   -512   -136    549    566 200.9 -13.9  34152  289.45 0855.00
2009/04/23 12:03:07.1    -186   -550   -137    581    597 198.7 -13.3  34152  289.42 0855.00
2009/04/23 12:03:07.2    -190   -663   -134    690    703 196.0 -11.0  34142  289.25 0855.00
2009/04/23 12:03:07.3      11   -679   -118    680    691 179.0  -9.9  34136  289.16 0855.00
2009/04/23 12:03:07.4     -68   -702    -56    706    709 185.6  -4.6  34136  289.15 0855.00
2009/04/23 12:03:07.5    -106   -663    -99    672    680 189.1  -8.4  34132  289.09 0855.00
2009/04/23 12:03:07.6     -33   -666    -79    667    672 182.9  -6.8  34132  289.09 0855.00
2009/04/23 12:03:07.7     -26   -644   -106    645    654 182.4  -9.4  34140  289.23 0855.00
2009/04/23 12:03:07.8    -177   -679   -198    702    729 194.6 -20.5  34136  289.15 0855.00
2009/04/23 12:03:07.9     -81   -591   -175    597    622 187.8 -21.1  34142  289.26 0855.00
2009/04/23 12:03:08.0    -193   -597   -191    628    657 197.9 -17.0  34138  289.21 0855.00
2009/04/23 12:03:08.1    -215   -491   -164    537    562 203.7 -17.0  34140  289.23 0855.00
2009/04/23 12:03:08.2    -158   -490    -36    515    517 197.9  -4.0  34136  289.17 0855.00
2009/04/23 12:03:08.3    -291   -412    -15    505    506 215.3  -1.8  34146  289.32 0855.00
2009/04/23 12:03:08.4    -159   -472    -21    499    500 198.7  -2.5  34142  289.27 0855.00
2009/04/23 12:03:08.5    -293   -564     -7    636    637 207.5  -0.7  34152  289.43 0855.00
2009/04/23 12:03:08.6    -315   -568    -49    650    652 209.0  -4.4  34146  289.33 0855.00
2009/04/23 12:03:08.7    -431   -564     23    710    711 217.4   1.9  34148  289.37 0855.00
2009/04/23 12:03:08.8    -229   -778   -235    811    845 196.4 -16.2  34142  289.28 0855.00
2009/04/23 12:03:08.9    -334   -642   -272    724    773 207.5 -26.1  34142  289.28 0855.00
2009/04/23 12:03:09.0    -203   -506   -211    546    585 201.9 -26.5  34128  289.02 0855.00
2009/04/23 12:03:09.1    -290   -498    283    577    642 210.2  28.1  34144  289.30 0855.00
2009/04/23 12:03:09.2    -129   -548    283    563    630 193.3  28.7  34132  289.10 0855.00
2009/04/23 12:03:09.3    -188   -394    167    437    467 205.5  22.0  34134  289.14 0855.00
2009/04/23 12:03:09.4    -167   -301    121    345    366 209.1  19.4  34144  289.30 0855.00
2009/04/23 12:03:09.5    -289   -233     18    372    373 231.1   2.8  34142  289.26 0855.00
2009/04/23 12:03:09.6    -134   -198    -18    240    241 214.1  -4.4  34142  289.27 0855.00
2009/04/23 12:03:09.7      20   -374   -129    375    396 176.9 -24.3  34142  289.28 0855.00
2009/04/23 12:03:09.8      91   -547    -91    555    563 170.6  -9.3  34142  289.28 0855.00
2009/04/23 12:03:09.9      -2   -553    -70    554    559 180.2  -7.2  34144  289.31 0855.00
2009/04/23 12:03:10.0     -50   -461     73    464    470 186.2   9.0  34144  289.30 0855.00
2009/04/23 12:03:10.1     -47   -437     80    440    448 186.2  10.4  34136  289.17 0855.00
2009/04/23 12:03:10.2      18   -357     18    358    359 177.0   2.9  34146  289.33 0855.00
2009/04/23 12:03:10.3     -60   -299    -20    306    307 191.5  -3.9  34142  289.27 0855.00
2009/04/23 12:03:10.4    -107   -340    150    357    387 197.6  24.1  34144  289.30 0855.00
2009/04/23 12:03:10.5      21   -163    -45    165    172 172.4 -15.5  34134  289.14 0855.00
2009/04/23 12:03:10.6     -62   -318   -244    325    406 191.1 -45.1  34144  289.30 0855.00
2009/04/23 12:03:10.7     -32   -346     62    348    354 185.3  10.2  34146  289.33 0855.00
2009/04/23 12:03:10.8     -77   -331     56    340    345 193.1   9.4  34146  289.33 0855.00
2009/04/23 12:03:10.9     -85   -372    -12    382    383 192.9  -1.9  34146  289.33 0855.00
2009/04/23 12:03:11.0    -119   -298   -111    322    341 201.9 -19.1  34142  289.28 0855.00
2009/04/23 12:03:11.1    -167   -437   -139    468    489 200.9 -16.5  34146  289.32 0855.00
2009/04/23 12:03:11.2    -243   -539    -32    592    593 204.3  -3.2  34150  289.39 0855.00
2009/04/23 12:03:11.3    -357   -265    -73    446    453 233.4  -9.3  34146  289.33 0855.00
2009/04/23 12:03:11.4    -426   -111    -46    441    444 255.3  -6.1  34152  289.43 0855.00
2009/04/23 12:03:11.5    -574   -473   -107    744    752 230.5  -8.2  34136  289.18 0855.00
2009/04/23 12:03:11.6    -390   -534   -230    662    700 216.1 -24.3  34142  289.27 0855.00
2009/04/23 12:03:11.7    -312   -488   -190    580    610 212.6 -23.3  34148  289.36 0855.00
2009/04/23 12:03:11.8    -433   -485   -129    651    664 221.8 -11.2  34144  289.29 0855.00
2009/04/23 12:03:11.9    -503   -279   -167    576    600 241.0 -16.2  34138  289.20 0855.00
2009/04/23 12:03:12.0    -465   -256   -142    531    550 241.2 -15.1  34142  289.26 0854.98
2009/04/23 12:03:12.1    -326   -207   -269    387    471 237.6 -42.8  34144  289.29 0854.98
2009/04/23 12:03:12.2    -120   -106   -242    161    290 228.7 -68.0  34136  289.17 0854.98
2009/04/23 12:03:12.3      31    -42   -135     53    145 143.9 -81.5  34150  289.40 0854.98
2009/04/23 12:03:12.4     -60   -171    -72    182    195 199.4 -27.4  34140  289.23 0854.98
2009/04/23 12:03:12.5    -347   -406    108    535    546 220.5  11.5  34146  289.33 0854.98
2009/04/23 12:03:12.6    -140   -487    -74    507    513 196.1  -8.4  34150  289.39 0854.98
2009/04/23 12:03:12.7     -12   -404     42    405    408 181.8   6.0  34150  289.39 0854.98
2009/04/23 12:03:12.8    -135   -514    -87    532    540 194.8  -9.3  34150  289.41 0854.98
2009/04/23 12:03:12.9    -209   -420   -126    470    487 206.5 -15.0  34146  289.32 0854.98
2009/04/23 12:03:13.0    -251   -301    -64    393    399 219.8  -9.3  34146  289.35 0854.98
2009/04/23 12:03:13.1    -269   -301     20    404    405 221.8   2.9  34146  289.33 0854.98
2009/04/23 12:03:13.2    -333   -265     37    426    428 231.5   5.1  34148  289.38 0854.98
2009/04/23 12:03:13.3    -321   -371    -33    491    493 220.9  -3.9  34150  289.39 0854.98
2009/04/23 12:03:13.4    -413   -471    -68    627    631 221.3  -6.2  34148  289.37 0854.98
2009/04/23 12:03:13.5    -339   -358    -35    494    496 223.5  -4.1  34146  289.34 0854.98
2009/04/23 12:03:13.6    -286   -295   -103    412    425 224.1 -14.1  34148  289.36 0854.98
2009/04/23 12:03:13.7    -296   -126     27    322    324 246.9   4.9  34150  289.39 0854.98
2009/04/23 12:03:13.8    -182   -124     40    221    225 235.8  10.3  34148  289.38 0854.98
2009/04/23 12:03:13.9    -270   -177    169    324    365 236.7  29.6  34142  289.26 0854.98
2009/04/23 12:03:14.0     -53   -222    261    229    347 193.6  54.3  34150  289.39 0854.99
2009/04/23 12:03:14.1     161   -292    104    334    350 151.1  17.3  34146  289.33 0854.99
2009/04/23 12:03:14.2     280   -532     61    602    606 152.3   5.8  34150  289.39 0854.99
2009/04/23 12:03:14.3     241   -489    -39    546    548 153.7  -4.1  34146  289.35 0854.99
2009/04/23 12:03:14.4     158   -604    160    625    646 165.3  14.4  34138  289.20 0854.99
2009/04/23 12:03:14.5     168   -473    182    503    535 160.4  19.9  34142  289.28 0854.99
2009/04/23 12:03:14.6     108   -579    236    589    634 169.4  23.0  34146  289.35 0854.99
2009/04/23 12:03:14.7      30   -333    119    335    356 174.8  19.6  34134  289.13 0854.99
2009/04/23 12:03:14.8       1   -345    -83    346    356 179.7 -13.6  34132  289.10 0854.99
2009/04/23 12:03:14.9     176   -603   -211    629    664 163.7 -18.6  34142  289.28 0854.99
2009/04/23 12:03:15.0     197   -731   -186    758    781 164.9 -13.8  34138  289.19 0854.99
2009/04/23 12:03:15.1     209   -682   -227    714    750 163.0 -17.7  34142  289.26 0854.99
2009/04/23 12:03:15.2     283   -488   -141    565    583 149.9 -14.0  34122  288.93 0854.99
2009/04/23 12:03:15.3     -25   -411    -58    412    417 183.5  -8.0  34138  289.19 0854.99
2009/04/23 12:03:15.4     122   -229    221    260    341 152.0  44.7  34130  289.07 0854.99
2009/04/23 12:03:15.5     211   -456    140    503    523 155.2  15.6  34142  289.28 0854.99
2009/04/23 12:03:15.6     151   -523    -59    545    549 163.9  -6.2  34132  289.11 0854.99
2009/04/23 12:03:15.7      98   -509    162    519    544 169.0  17.4  34140  289.24 0854.99
2009/04/23 12:03:15.8      84   -444      7    452    453 169.3   1.0  34142  289.26 0854.99
2009/04/23 12:03:15.9     244   -440     18    504    505 151.0   2.1  34136  289.17 0854.99
2009/04/23 12:03:16.0     180   -427     -9    464    465 157.2  -1.2  34146  289.34 0855.01
2009/04/23 12:03:16.1     165   -487     98    515    525 161.2  10.8  34140  289.24 0855.01
2009/04/23 12:03:16.2      59   -426     42    431    434 172.0   5.7  34142  289.27 0855.01
2009/04/23 12:03:16.3     -36   -467    -32    469    471 184.5  -4.0  34140  289.23 0855.01
2009/04/23 12:03:16.4      -8   -448    -78    449    456 181.1  -9.9  34144  289.31 0855.01
2009/04/23 12:03:16.5     -35   -581    -42    583    585 183.5  -4.1  34146  289.32 0855.01
2009/04/23 12:03:16.6     -64   -638     31    642    643 185.8   2.8  34144  289.31 0855.01
2009/04/23 12:03:16.7     -77   -613     14    618    619 187.2   1.4  34150  289.40 0855.01
2009/04/23 12:03:16.8    -123   -665    -37    677    679 190.5  -3.2  34148  289.38 0855.01
2009/04/23 12:03:16.9    -177   -724   -103    746    754 193.8  -7.9  34134  289.12 0855.01
2009/04/23 12:03:17.0      60   -733    -65    736    740 175.3  -5.1  34148  289.38 0855.01
2009/04/23 12:03:17.1      53   -631     82    634    640 175.2   7.4  34142  289.28 0855.01
2009/04/23 12:03:17.2      85   -512     25    520    521 170.6   2.8  34148  289.38 0855.01
2009/04/23 12:03:17.3       4   -501    111    502    515 179.5  12.5  34140  289.23 0855.01
2009/04/23 12:03:17.4      -5   -512     25    513    514 180.6   2.8  34148  289.37 0855.01
2009/04/23 12:03:17.5     146   -622    108    640    650 166.7   9.6  34138  289.20 0855.01
2009/04/23 12:03:17.6     181   -631    134    657    671 164.0  11.6  34142  289.27 0855.01
2009/04/23 12:03:17.7      -2   -546    182    547    577 180.3  18.4  34134  289.13 0855.01
2009/04/23 12:03:17.8    -251   -519    -22    577    578 205.9  -2.2  34144  289.30 0855.01
2009/04/23 12:03:17.9    -388   -511    -49    642    644 217.2  -4.4  34142  289.28 0855.01
2009/04/23 12:03:18.0    -533   -451    -68    699    703 229.8  -5.6  34136  289.17 0855.03
2009/04/23 12:03:18.1    -535   -407    -99    673    681 232.7  -8.4  34158  289.53 0855.03
2009/04/23 12:03:18.2    -276   -433   -170    514    542 212.5 -18.3  34152  289.43 0855.03
2009/04/23 12:03:18.3    -210   -451   -139    498    517 205.0 -20.2  34146  289.32 0855.03
2009/04/23 12:03:18.4    -136   -517   -158    535    559 194.8 -16.5  34148  289.36 0855.03
2009/04/23 12:03:18.5     -99   -456   -102    467    479 192.3 -12.4  34152  289.44 0855.03
2009/04/23 12:03:18.6    -103   -595     18    605    606 189.9   1.8  34148  289.37 0855.03
2009/04/23 12:03:18.7      -1   -691     96    692    699 180.1   7.9  34152  289.42 0855.03
2009/04/23 12:03:18.8     186   -754    -30    777    778 166.1  -2.3  34146  289.34 0855.03
2009/04/23 12:03:18.9      34   -892    -34    893    894 177.8  -2.2  34140  289.22 0855.03
2009/04/23 12:03:19.0      16   -949      0    950    951 179.0   0.0  34136  289.17 0855.03
2009/04/23 12:03:19.1      62   -986     14    988    989 176.4   0.8  34142  289.26 0855.03
2009/04/23 12:03:19.2      38   -856    111    857    865 177.4   7.4  34140  289.24 0855.03
2009/04/23 12:03:19.3      87   -987     52    992    994 174.9   3.0  34132  289.10 0855.03
2009/04/23 12:03:19.4      99   -911    165    917    932 173.8  10.2  34132  289.11 0855.03
2009/04/23 12:03:19.5     -72   -950     63    953    956 184.4   3.8  34146  289.32 0855.03
2009/04/23 12:03:19.6      39   -903    -14    904    905 177.5  -0.9  34146  289.34 0855.03
2009/04/23 12:03:19.7     -13   -774   -118    775    784 181.0  -8.7  34136  289.15 0855.03
2009/04/23 12:03:19.8     -16   -942   -146    943    955 181.0  -8.8  34140  289.22 0855.03
2009/04/23 12:03:19.9      34   -923   -143    924    935 177.9  -8.8  34136  289.18 0855.03
2009/04/23 12:03:20.0     118   -868    -53    876    878 172.2  -3.5  34136  289.15 0855.06
2009/04/23 12:03:20.1      75   -740   -107    744    752 174.2  -8.2  34136  289.16 0855.06
2009/04/23 12:03:20.2     -27   -596   -139    597    614 182.7 -13.2  34136  289.17 0855.06
2009/04/23 12:03:20.3     -71   -766    -63    770    773 185.4  -4.7  34138  289.20 0855.06
2009/04/23 12:03:20.4       9   -734    -29    735    736 179.3  -2.3  34134  289.12 0855.06
2009/04/23 12:03:20.5       9   -635    -33    636    637 179.1  -3.0  34136  289.15 0855.06
2009/04/23 12:03:20.6     -94   -712    225    719    754 187.6  17.4  34142  289.28 0855.06
2009/04/23 12:03:20.7    -150   -612   -122    631    643 193.8 -11.0  34140  289.23 0855.06
2009/04/23 12:03:20.8    -116   -666   -150    677    694 189.9 -12.5  34142  289.27 0855.06
2009/04/23 12:03:20.9    -102   -758      1    765    766 187.7   0.1  34144  289.31 0855.06
2009/04/23 12:03:21.0    -376   -856    -89    936    941 203.7  -5.5  34124  288.96 0855.06
2009/04/23 12:03:21.1    -386   -669   -267    773    818 210.0 -19.1  34148  289.37 0855.06
2009/04/23 12:03:21.2    -402   -744    -75    846    850 208.4  -5.1  34142  289.27 0855.06
2009/04/23 12:03:21.3    -416   -597   -133    728    741 214.9 -10.4  34144  289.31 0855.06
2009/04/23 12:03:21.4    -395   -539    -43    669    671 216.2  -3.7  34148  289.36 0855.06
2009/04/23 12:03:21.5    -391   -495    -74    631    636 218.3  -6.7  34148  289.38 0855.06
2009/04/23 12:03:21.6    -216   -622    -44    659    661 199.2  -3.9  34146  289.32 0855.06
2009/04/23 12:03:21.7    -261   -603     36    658    660 203.4   3.1  34144  289.31 0855.06
2009/04/23 12:03:21.8    -204   -607     33    641    642 198.6   3.0  34146  289.35 0855.06
2009/04/23 12:03:21.9     -45   -744    -35    746    747 183.5  -2.7  34134  289.12 0855.06
2009/04/23 12:03:22.0     -13   -684    106    685    694 181.2   8.8  34128  289.04 0855.07
2009/04/23 12:03:22.1    -423   -613   -138    745    758 214.6 -10.5  34130  289.07 0855.07
2009/04/23 12:03:22.2    -298   -745   -180    803    824 201.8 -12.7  34126  288.98 0855.07
2009/04/23 12:03:22.3    -253   -693   -160    739    757 200.1 -12.3  34118  288.87 0855.07
2009/04/23 12:03:22.4    -274   -668   -132    723    735 202.3 -10.4  34126  289.00 0855.07
2009/04/23 12:03:22.5    -196   -631   -172    661    683 197.3 -14.6  34122  288.94 0855.07
2009/04/23 12:03:22.6    -198   -580   -191    614    643 198.9 -17.3  34126  288.99 0855.07
2009/04/23 12:03:22.7    -209   -507   -196    549    584 202.4 -19.7  34130  289.05 0855.07
2009/04/23 12:03:22.8    -261   -438   -154    510    532 210.8 -21.7  34134  289.14 0855.07
2009/04/23 12:03:22.9    -398   -486    -96    629    637 219.3  -8.7  34132  289.11 0855.07
2009/04/23 12:03:23.0    -478   -472   -108    673    682 225.4  -9.1  34138  289.21 0855.07
2009/04/23 12:03:23.1    -319   -469   -145    568    587 214.3 -14.4  34130  289.05 0855.07
2009/04/23 12:03:23.2    -327   -434    -69    544    549 217.0  -7.3  34134  289.13 0855.07
2009/04/23 12:03:23.3    -299   -469   -167    557    582 212.5 -16.7  34138  289.20 0855.07
2009/04/23 12:03:23.4    -267   -487   -135    556    573 208.7 -13.7  34142  289.28 0855.07
2009/04/23 12:03:23.5    -331   -431   -140    544    562 217.5 -14.5  34142  289.28 0855.07
2009/04/23 12:03:23.6    -349   -411   -149    540    561 220.4 -15.4  34144  289.31 0855.07
2009/04/23 12:03:23.7    -358   -483   -110    602    612 216.5 -10.4  34138  289.19 0855.07
2009/04/23 12:03:23.8    -385   -386    -20    546    547 224.9  -2.1  34142  289.28 0855.07
2009/04/23 12:03:23.9    -337   -303    -22    454    455 228.0  -2.8  34146  289.33 0855.07
2009/04/23 12:03:24.0    -328   -424   -154    537    558 217.8 -20.7  34142  289.26 0855.05
2009/04/23 12:03:24.1    -475   -234   -223    530    575 243.8 -28.6  34148  289.38 0855.05
2009/04/23 12:03:24.2    -422    -97   -198    434    477 257.0 -30.6  34144  289.31 0855.05
2009/04/23 12:03:24.3    -285    -44   -110    289    309 261.2 -26.1  34144  289.31 0855.05
2009/04/23 12:03:24.4    -213    -70   -241    225    329 251.8 -56.6  34142  289.27 0855.05
2009/04/23 12:03:24.5    -132     97   -189    165    250 306.4 -58.7  34136  289.18 0855.05
2009/04/23 12:03:24.6    -125     86    -87    153    176 304.6 -36.5  34144  289.30 0855.05
2009/04/23 12:03:24.7    -141    -26    -61    144    156 259.4 -28.5  34136  289.18 0855.05
2009/04/23 12:03:24.8     -78    -65    -10    102    103 230.4  -5.6  34142  289.26 0855.05
2009/04/23 12:03:24.9     -38      2     56     39     68 274.3  61.5  34144  289.30 0855.05
2009/04/23 12:03:25.0      49     -9     60     50     78 101.5  55.4  34144  289.31 0855.05
2009/04/23 12:03:25.1      84    -63     51    105    116 126.9  27.3  34142  289.26 0855.05
2009/04/23 12:03:25.2     141   -103     61    175    186 126.2  19.2  34138  289.21 0855.05
2009/04/23 12:03:25.3      88   -141    108    167    198 148.1  35.7  34140  289.24 0855.05
2009/04/23 12:03:25.4     223   -183     39    289    292 129.5   7.8  34140  289.24 0855.05
2009/04/23 12:03:25.5     246   -341    -27    421    422 144.2  -3.8  34144  289.29 0855.05
2009/04/23 12:03:25.6     252   -270   -109    370    386 136.9 -16.5  34142  289.26 0855.05
2009/04/23 12:03:25.7     171   -321   -119    364    382 151.9 -23.5  34142  289.26 0855.05
2009/04/23 12:03:25.8     205   -385   -135    437    457 151.9 -22.2  34146  289.33 0855.05
2009/04/23 12:03:25.9     238   -422    -73    485    491 150.6  -8.6  34134  289.13 0855.05
2009/04/23 12:03:26.0     230   -505      9    555    556 155.5   1.0  34128  289.02 0855.01
2009/04/23 12:03:26.1      28   -472     47    473    476 176.6   5.7  34134  289.13 0855.01
2009/04/23 12:03:26.2     150   -555     33    576    577 164.9   3.3  34134  289.14 0855.01
2009/04/23 12:03:26.3      82   -582    114    588    599 171.9  11.0  34136  289.15 0855.01
2009/04/23 12:03:26.4     188   -557    119    589    601 161.3  11.5  34140  289.24 0855.01
2009/04/23 12:03:26.5     201   -563    141    599    616 160.3  13.3  34138  289.20 0855.01
2009/04/23 12:03:26.6     166   -604    127    627    640 164.6  11.5  34136  289.16 0855.01
2009/04/23 12:03:26.7     167   -587    147    611    629 164.1  13.6  34132  289.11 0855.01
2009/04/23 12:03:26.8     227   -532     43    579    581 156.9   4.3  34138  289.20 0855.01
2009/04/23 12:03:26.9     189   -416    127    458    476 155.5  15.6  34136  289.17 0855.01
2009/04/23 12:03:27.0     125   -419   -105    438    451 163.4 -13.6  34138  289.21 0855.01
2009/04/23 12:03:27.1     150   -445    -14    470    471 161.3  -1.8  34136  289.18 0855.01
2009/04/23 12:03:27.2     -46   -495     28    498    499 185.3   3.3  34136  289.15 0855.01
2009/04/23 12:03:27.3     -87   -614     59    621    624 188.1   5.5  34128  289.04 0855.01
2009/04/23 12:03:27.4      84   -385    165    395    428 167.6  24.1  34136  289.17 0855.01
2009/04/23 12:03:27.5     136   -384    281    408    495 160.4  37.9  34140  289.23 0855.01
2009/04/23 12:03:27.6     126   -371    278    393    481 161.2  38.7  34144  289.29 0855.01
2009/04/23 12:03:27.7     316   -305    197    440    482 134.0  25.8  34142  289.25 0855.01
2009/04/23 12:03:27.8     117   -138    126    182    221 139.7  37.8  34134  289.13 0855.01
2009/04/23 12:03:27.9     -43    -27    122     52    132 237.6  75.5  34148  289.38 0855.01
2009/04/23 12:03:28.0     -20     30     60     37     70 325.7  64.7  34152  289.43 0855.00
2009/04/23 12:03:28.1     -53    -10     97     55    111 258.5  68.3  34146  289.33 0855.00
2009/04/23 12:03:28.2       3    -30     59     31     66 173.8  69.8  34142  289.28 0855.00
2009/04/23 12:03:28.3      63    -62     55     89    104 134.6  35.5  34142  289.26 0855.00
2009/04/23 12:03:28.4      35    -22    -73     42     84 122.5 -71.6  34140  289.23 0855.00
2009/04/23 12:03:28.5     -20    -79    -94     82    124 194.3 -58.7  34140  289.24 0855.00
2009/04/23 12:03:28.6      24   -165    -90    167    189 171.5 -35.2  34136  289.18 0855.00
2009/04/23 12:03:28.7      88   -194    -83    214    229 155.5 -26.7  34138  289.19 0855.00
2009/04/23 12:03:28.8      63   -312     41    319    322 168.5   7.4  34134  289.14 0855.00
2009/04/23 12:03:28.9     158   -407    -20    437    438 158.7  -2.7  34138  289.21 0855.00
2009/04/23 12:03:29.0     124   -283     76    310    320 156.4  13.9  34138  289.20 0855.00
2009/04/23 12:03:29.1     162   -289    181    332    378 150.7  31.0  34136  289.18 0855.00
2009/04/23 12:03:29.2     102   -261    231    281    363 158.6  43.7  34138  289.20 0855.00
2009/04/23 12:03:29.3      57   -164    111    174    206 160.6  35.5  34140  289.24 0855.00
2009/04/23 12:03:29.4     212   -412     28    464    465 152.7   3.5  34136  289.17 0855.00
2009/04/23 12:03:29.6     157   -383     29    414    415 157.7   4.0  34138  289.19 0855.00
2009/04/23 12:03:29.7     176   -363    105    404    418 154.1  14.6  34142  289.26 0855.00
2009/04/23 12:03:29.8     115   -288    -12    311    312 158.2  -2.2  34140  289.22 0855.00
2009/04/23 12:03:29.9      42   -278     60    282    289 171.3  12.0  34142  289.25 0855.00
2009/04/23 12:03:30.0     207   -220    -19    303    304 136.7  -3.7  34140  289.22 0855.00
2009/04/23 12:03:30.1     211   -222    -36    307    310 136.6  -6.7  34142  289.25 0855.00
2009/04/23 12:03:30.2     205    -94     19    226    227 114.8   4.9  34142  289.28 0855.00
2009/04/23 12:03:30.3     118   -110    -64    162    174 133.1 -26.9  34142  289.26 0855.00
2009/04/23 12:03:30.4     164    -32    -52    168    175 101.0 -22.8  34140  289.23 0855.00
2009/04/23 12:03:30.5     165     -7    -65    166    178  92.6 -26.9  34142  289.26 0855.00
2009/04/23 12:03:30.6     139     23    -45    142    150  80.3 -17.6  34138  289.21 0855.00
2009/04/23 12:03:30.7     131     24     -4    134    135  79.4  -1.8  34142  289.26 0855.00
2009/04/23 12:03:30.8      79     42      6     90     91  62.0   3.8  34142  289.26 0855.00
2009/04/23 12:03:30.9      61     30      0     68     69  63.8   0.8  34142  289.26 0855.00
2009/04/23 12:03:31.0      60     44    -19     75     78  54.0 -14.5  34136  289.18 0855.00
2009/04/23 12:03:31.1      82     44      4     94     95  61.6   2.9  34140  289.23 0855.00
2009/04/23 12:03:31.2     134    126    -26    185    187  46.7  -8.0  34144  289.30 0855.00
2009/04/23 12:03:31.3     163     95    -10    189    190  59.8  -3.1  34156  289.52 0855.00
2009/04/23 12:03:31.4     171    188    -79    255    266  42.3 -22.3  34154  289.46 0855.00
2009/04/23 12:03:31.5     174    217    -77    279    290  38.8 -15.4  34158  289.53 0855.00
2009/04/23 12:03:31.6     265    223    -40    347    350  49.8  -6.7  34154  289.48 0855.00
2009/04/23 12:03:31.7     188    166     12    251    252  48.6   2.9  34160  289.58 0855.00
2009/04/23 12:03:31.8     159     53     48    168    175  71.6  16.0  34152  289.45 0855.00
2009/04/23 12:03:31.9     112    -37     53    119    130 108.6  25.7  34150  289.40 0855.00
2009/04/23 12:03:32.0      26      8     65     28     70  71.8  75.0  34162  289.62 0855.00
2009/04/23 12:03:32.1      38    -84     -3     93     94 155.5  -2.2  34154  289.46 0854.99
2009/04/23 12:03:32.2      83   -130    -35    155    160 147.5 -12.9  34144  289.30 0854.99
2009/04/23 12:03:32.3     144   -130    -17    195    196 132.2  -5.2  34142  289.28 0854.99
2009/04/23 12:03:32.4     156   -156      1    221    222 135.0   0.5  34142  289.28 0854.99
2009/04/23 12:03:32.5     152   -123     15    196    197 128.9   4.6  34142  289.28 0854.99
2009/04/23 12:03:32.6     121   -100     32    158    162 129.6  11.4  34144  289.30 0854.99
2009/04/23 12:03:32.7      46   -187     43    193    198 166.0  12.6  34144  289.30 0854.99
2009/04/23 12:03:32.8      27   -194     38    197    201 171.9  11.1  34146  289.35 0854.99
2009/04/23 12:03:32.9     114   -187     34    220    223 148.6   9.0  34142  289.28 0854.99
2009/04/23 12:03:33.0     129   -181     69    223    234 144.6  17.3  34144  289.30 0854.99
2009/04/23 12:03:33.1     110   -140     64    179    190 141.7  20.0  34144  289.30 0854.99
2009/04/23 12:03:33.2      72   -151     69    168    181 154.6  23.4  34144  289.31 0854.99
2009/04/23 12:03:33.3      42   -142     81    149    169 163.5  30.8  34144  289.31 0854.99
2009/04/23 12:03:33.4      37   -193     28    197    200 169.1   8.2  34144  289.31 0854.99
2009/04/23 12:03:33.5      41   -205     68    210    221 168.5  18.1  34144  289.31 0854.99
2009/04/23 12:03:33.6      52   -218     75    225    238 166.6  18.6  34148  289.36 0854.99
2009/04/23 12:03:33.7       8   -214     65    215    225 177.8  16.8  34144  289.30 0854.99
2009/04/23 12:03:33.8      41   -241     88    245    260 170.2  20.4  34150  289.39 0854.99
2009/04/23 12:03:33.9      16   -234     90    235    251 176.0  22.0  34150  289.41 0854.99
2009/04/23 12:03:34.0     176   -205     94    271    287 139.5  19.2  34148  289.37 0854.99
2009/04/23 12:03:34.1     108   -219    108    245    267 153.7  25.2  34148  289.36 0854.99
2009/04/23 12:03:34.2     112   -203    100    232    252 151.1  24.9  34148  289.37 0854.99
2009/04/23 12:03:34.3     101   -218    147    241    282 155.1  34.4  34148  289.36 0854.99
2009/04/23 12:03:34.4      86   -282    155    295    333 163.0  30.0  34148  289.37 0854.99
2009/04/23 12:03:34.5      39   -252    158    256    300 171.1  35.0  34152  289.44 0854.99
2009/04/23 12:03:34.6      50   -286    186    291    345 170.0  35.6  34146  289.34 0854.99
2009/04/23 12:03:34.7      40   -208    183    212    280 169.1  45.4  34152  289.44 0854.99
2009/04/23 12:03:34.8      25   -210    173    212    273 173.1  43.5  34152  289.42 0854.99
2009/04/23 12:03:34.9       3   -199    167    200    260 179.0  44.1  34152  289.42 0854.99
2009/04/23 12:03:35.0     -28   -255    115    257    281 186.5  25.7  34150  289.39 0854.99
2009/04/23 12:03:35.1    -100   -232    140    253    289 203.4  31.4  34150  289.41 0854.99
2009/04/23 12:03:35.2    -100   -238     57    259    266 202.7  12.4  34152  289.42 0854.99
2009/04/23 12:03:35.3    -131   -205     47    244    249 212.5  11.1  34158  289.53 0854.99
2009/04/23 12:03:35.4    -125   -217     48    251    256 210.1  11.0  34156  289.49 0854.99
2009/04/23 12:03:35.5    -141   -224     47    265    270 212.3  10.1  34162  289.61 0854.99
2009/04/23 12:03:35.6    -169   -191     55    256    262 221.4  12.2  34158  289.54 0854.99
2009/04/23 12:03:35.7    -168   -200    107    262    283 220.1  23.1  34162  289.59 0854.99
2009/04/23 12:03:35.8    -170   -226    108    284    303 217.0  22.0  34158  289.53 0854.99
2009/04/23 12:03:35.9    -171   -228    144    286    320 216.9  28.7  34156  289.51 0854.99
2009/04/23 12:03:36.0    -175   -205    124    270    297 220.5  26.4  34158  289.53 0854.99
2009/04/23 12:03:36.1    -272    -99     -5    290    291 250.0  -1.2  34168  289.71 0854.99
2009/04/23 12:03:36.2    -245    -80    -36    258    261 251.8  -8.0  34162  289.61 0854.99
2009/04/23 12:03:36.3    -181   -119    -36    217    221 236.7  -9.6  34164  289.63 0854.99
2009/04/23 12:03:36.4    -175     11    -38    176    181 273.9 -12.4  34162  289.60 0854.99
2009/04/23 12:03:36.5    -265    -20     32    266    268 265.6   6.9  34170  289.73 0854.99
2009/04/23 12:03:36.6    -348    -11     63    349    355 268.1  10.4  34198  290.21 0854.99
2009/04/23 12:03:36.7    -387    -95     17    399    400 256.2   2.5  34182  289.96 0854.99
2009/04/23 12:03:36.8    -390    -72     62    397    402 259.5   9.0  34188  290.03 0854.99
2009/04/23 12:03:36.9    -364    -43    -80    367    376 263.1 -12.4  34188  290.03 0854.99
2009/04/23 12:03:37.0    -163   -207    -38    264    267 218.3  -8.3  34164  289.63 0854.99
2009/04/23 12:03:37.1     -52   -123   -119    134    179 203.2 -50.8  34194  290.16 0854.98
2009/04/23 12:03:37.2     -38     26   -130     47    138 304.2 -83.6  34172  289.77 0854.98
2009/04/23 12:03:37.3    -128    -21    -71    130    148 260.3 -35.7  34156  289.52 0854.98
2009/04/23 12:03:37.4    -175      3    121    176    213 271.3  37.6  34168  289.72 0854.98
2009/04/23 12:03:37.5    -220      0      1    221    222 269.9   0.5  34176  289.84 0854.98
2009/04/23 12:03:37.6    -256     -8   -117    257    282 268.1 -30.6  34180  289.90 0854.98
2009/04/23 12:03:37.7    -176     67     23    189    191 291.1   7.1  34184  289.97 0854.98
2009/04/23 12:03:37.8    -189     59     40    199    204 287.5  11.4  34176  289.84 0854.98
2009/04/23 12:03:37.9    -234    159    -34    284    287 304.2  -6.9  34174  289.81 0854.98
2009/04/23 12:03:38.0    -222    185    -63    290    297 309.8 -12.4  34170  289.73 0854.98
2009/04/23 12:03:38.1    -160    193     -1    251    252 320.3  -0.3  34174  289.81 0854.98
2009/04/23 12:03:38.2    -114    231    -10    258    259 333.7  -2.2  34174  289.80 0854.98
2009/04/23 12:03:38.3     -18    137    -75    139    157 352.4 -35.2  34174  289.82 0854.98
2009/04/23 12:03:38.4     -75    117   -126    140    188 327.4 -51.3  34174  289.80 0854.98
2009/04/23 12:03:38.5      19     57    -64     61     88  18.7 -55.1  34172  289.77 0854.98
2009/04/23 12:03:38.6      26    -14    -29     30     41 118.9 -54.4  34174  289.80 0854.98
2009/04/23 12:03:38.7     -70    -84    -57    110    123 219.6 -33.7  34172  289.79 0854.98
2009/04/23 12:03:38.8     -47   -195    -99    201    224 193.6 -32.6  34174  289.80 0854.98
2009/04/23 12:03:38.9    -111   -243    -95    268    284 204.5 -24.6  34164  289.64 0854.98
2009/04/23 12:03:39.0     -85   -228   -192    244    310 200.5 -46.8  34180  289.90 0854.98
2009/04/23 12:03:39.1     -34   -310   -164    312    352 186.3 -34.4  34178  289.87 0854.98
2009/04/23 12:03:39.2     -53   -365   -124    369    390 188.3 -18.6  34174  289.82 0854.98
2009/04/23 12:03:39.3     -89   -377    -76    388    396 193.3 -11.1  34170  289.74 0854.98
2009/04/23 12:03:39.4    -114   -460    -40    475    477 194.0  -4.9  34172  289.76 0854.98
2009/04/23 12:03:39.5     -29   -499    -10    500    501 183.4  -1.2  34172  289.76 0854.98
2009/04/23 12:03:39.6      37   -483    -97    485    495 175.6 -11.3  34172  289.79 0854.98
2009/04/23 12:03:39.7      42   -386   -139    389    414 173.8 -19.7  34174  289.82 0854.98
2009/04/23 12:03:39.8     174   -383   -149    421    447 155.5 -19.6  34182  289.94 0854.98
2009/04/23 12:03:39.9     316   -365   -135    483    501 139.1 -20.2  34188  290.05 0854.98
2009/04/23 12:03:40.0     225   -331   -160    401    431 145.7 -27.4  34188  290.04 0854.98
2009/04/23 12:03:40.1     178   -420    -58    457    461 157.1  -7.3  34182  289.95 0854.98
2009/04/23 12:03:40.2     199   -264     41    331    334 142.9   7.2  34182  289.93 0854.98
2009/04/23 12:03:40.3     251   -207     33    326    328 129.5   5.8  34182  289.93 0854.98
2009/04/23 12:03:40.4     240   -183     56    302    308 127.3  10.6  34168  289.70 0854.98
2009/04/23 12:03:40.5     329   -142    -70    359    366 113.3 -11.1  34162  289.60 0854.98
2009/04/23 12:03:40.6     321     37    169    324    365  83.4  29.6  34148  289.37 0854.98
2009/04/23 12:03:40.7     378    144    146    405    430  69.1  20.7  34178  289.88 0854.98
2009/04/23 12:03:40.8     497    138    126    516    532  74.4  13.8  34204  290.33 0854.98
2009/04/23 12:03:40.9     559    171    115    585    597  73.0  11.1  34188  290.05 0854.98
2009/04/23 12:03:41.0     378     43     28    381    382  83.4   4.2  34174  289.81 0854.98
2009/04/23 12:03:41.1     328    -36    107    331    348  96.4  17.9  34178  289.86 0855.01
2009/04/23 12:03:41.2     127     40    203    134    243  72.3  63.6  34178  289.89 0855.01
2009/04/23 12:03:41.3      17      1    161     18    162  85.6  90.0  34184  289.99 0855.01
2009/04/23 12:03:41.4      83    -60    134    103    169 126.0  58.7  34180  289.91 0855.01
2009/04/23 12:03:41.5     164    -32    159    168    231 101.0  48.2  34174  289.82 0855.01
2009/04/23 12:03:41.6     206    -16    157    207    259  94.6  40.9  34170  289.73 0855.01
2009/04/23 12:03:41.7     417    155    145    446    469  69.6  18.0  34160  289.58 0855.01
2009/04/23 12:03:41.8     244    142    197    283    344  59.8  38.4  34160  289.56 0855.01
2009/04/23 12:03:41.9     218    -49    172    224    282 102.8  41.6  34166  289.66 0855.01
2009/04/23 12:03:42.0     314      9    150    315    348  88.3  27.3  34164  289.65 0855.01
2009/04/23 12:03:42.1     337    177    169    381    416  62.3  25.3  34168  289.70 0855.01
2009/04/23 12:03:42.2     214    122    297    247    386  60.2  56.3  34196  290.18 0855.01
2009/04/23 12:03:42.3     184    109    264    215    340  59.3  56.6  34212  290.46 0855.01
2009/04/23 12:03:42.4       2   -117    178    118    213 178.6  63.6  34174  289.80 0855.01
2009/04/23 12:03:42.5      39   -259    253    262    364 171.3  49.1  34166  289.67 0855.01
2009/04/23 12:03:42.6     134   -334    274    361    453 158.1  41.1  34162  289.61 0855.01
2009/04/23 12:03:42.7     162   -445    263    474    542 160.0  31.4  34158  289.53 0855.01
2009/04/23 12:03:42.8     202   -494    207    534    572 157.7  22.3  34160  289.57 0855.01
2009/04/23 12:03:42.9     143   -463    211    485    528 162.8  25.1  34158  289.54 0855.01
2009/04/23 12:03:43.0      14   -393    236    394    459 177.9  33.7  34164  289.63 0855.01
2009/04/23 12:03:43.1    -129   -423    160    443    472 197.0  19.9  34174  289.80 0855.05
2009/04/23 12:03:43.2       6   -401    167    402    435 179.0  23.9  34168  289.72 0855.05
2009/04/23 12:03:43.3      17   -371    173    372    410 177.3  26.6  34170  289.74 0855.05
2009/04/23 12:03:43.4      67   -310    230    318    392 167.7  39.5  34170  289.74 0855.05
2009/04/23 12:03:43.5     135   -306    157    335    369 156.2  27.1  34162  289.60 0855.05
2009/04/23 12:03:43.6      97   -287    241    304    387 161.3  42.4  34162  289.60 0855.05
2009/04/23 12:03:43.7      23   -367    348    368    506 176.3  48.4  34162  289.61 0855.05
2009/04/23 12:03:43.8     -13   -300    273    301    406 182.6  46.9  34166  289.67 0855.05
2009/04/23 12:03:43.9     -57   -328    258    334    422 189.9  41.7  34164  289.64 0855.05
2009/04/23 12:03:44.0     -64   -268    271    276    386 193.4  49.7  34170  289.74 0855.05
2009/04/23 12:03:44.1     -54   -289    230    295    374 190.7  41.9  34168  289.71 0855.05
2009/04/23 12:03:44.2     -75   -308    240    318    398 193.8  40.8  34166  289.67 0855.05
2009/04/23 12:03:44.3    -134   -329    230    356    423 202.2  35.7  34166  289.68 0855.05
2009/04/23 12:03:44.4     -80   -263    179    275    328 196.9  36.2  34168  289.70 0855.05
2009/04/23 12:03:44.5     -55   -262     79    268    280 192.0  16.4  34164  289.64 0855.05
2009/04/23 12:03:44.6     -20   -264     27    265    267 184.4   5.9  34166  289.66 0855.05
2009/04/23 12:03:44.7      -4   -270     63    271    279 181.0  13.2  34168  289.71 0855.05
2009/04/23 12:03:44.8     -34   -231     62    234    243 188.5  15.0  34170  289.75 0855.05
2009/04/23 12:03:44.9     -30   -196     20    199    201 188.7   5.9  34168  289.70 0855.05
2009/04/23 12:03:45.0    -105   -117      1    158    159 221.9   0.5  34170  289.74 0855.05
2009/04/23 12:03:45.1    -190    -47     35    196    200 255.8  10.3  34176  289.85 0855.08
2009/04/23 12:03:45.2    -153    -45    -38    160    165 253.6 -13.4  34180  289.91 0855.08
2009/04/23 12:03:45.3    -182    -74    -43    197    202 247.8 -12.4  34182  289.96 0855.08
2009/04/23 12:03:45.4    -222    -73   -225    234    324 251.8 -53.4  34176  289.85 0855.08
2009/04/23 12:03:45.5    -182   -200    -95    271    287 222.3 -24.4  34192  290.10 0855.08
2009/04/23 12:03:45.6    -133    -63   -103    148    180 244.8 -42.8  34194  290.14 0855.08
2009/04/23 12:03:45.7      -8    -40    -75     41     85 192.5 -73.2  34200  290.25 0855.08
2009/04/23 12:03:45.8      53   -131    -23    142    144 157.7  -9.4  34200  290.25 0855.08
2009/04/23 12:03:45.9      83    -82    -46    117    125 134.6 -26.9  34200  290.26 0855.08
2009/04/23 12:03:46.0      32    -99    -21    105    108 161.7 -11.3  34200  290.26 0855.08
2009/04/23 12:03:46.1      43    -65     33     79     85 146.6  24.1  34200  290.25 0855.08
2009/04/23 12:03:46.2      31   -176     64    179    190 170.0  20.0  34186  290.02 0855.08
2009/04/23 12:03:46.3    -104   -210    101    235    255 206.3  24.9  34184  289.98 0855.08
2009/04/23 12:03:46.4     -37   -124    162    130    207 196.9  57.1  34184  289.97 0855.08
2009/04/23 12:03:46.5     -51   -136    139    146    201 200.5  48.5  34184  289.99 0855.08
2009/04/23 12:03:46.6     -20    -37    129     43    135 209.0  81.0  34184  289.99 0855.08
2009/04/23 12:03:46.7    -188   -119     57    223    231 237.6  14.5  34194  290.14 0855.08
2009/04/23 12:03:46.8    -153   -126    100    199    222 230.5  28.7  34188  290.06 0855.08
2009/04/23 12:03:46.9    -155   -128    134    202    242 230.5  36.5  34188  290.04 0855.08
2009/04/23 12:03:47.0    -196   -128    143    235    275 236.9  34.2  34188  290.05 0855.08
2009/04/23 12:03:47.1    -141    -47    131    149    198 251.4  45.9  34186  290.02 0855.06
2009/04/23 12:03:47.2    -142     -6    115    143    183 267.4  43.0  34188  290.06 0855.06
2009/04/23 12:03:47.3    -138    -60    143    151    207 246.5  48.5  34182  289.96 0855.06
2009/04/23 12:03:47.4    -173    -88    142    195    241 243.1  39.7  34180  289.92 0855.06
2009/04/23 12:03:47.5     -94   -103    133    140    193 222.3  48.5  34186  290.01 0855.06
2009/04/23 12:03:47.6     -88    -36    132     96    163 247.8  60.5  34180  289.92 0855.06
2009/04/23 12:03:47.7     -36     15     92     40    100 292.6  75.0  34184  289.97 0855.06
2009/04/23 12:03:47.8    -118      0     77    119    141 270.0  35.6  34182  289.94 0855.06
2009/04/23 12:03:47.9    -109   -109     57    155    165 225.0  20.7  34182  289.94 0855.06
2009/04/23 12:03:48.0     -86   -112     98    142    172 217.8  37.8  34186  290.02 0855.06
2009/04/23 12:03:48.1     -97   -121    109    156    190 218.7  38.4  34182  289.96 0855.06
2009/04/23 12:03:48.2     -83   -128    129    153    200 213.0  44.5  34178  289.89 0855.06
2009/04/23 12:03:48.3    -109   -107     84    153    174 225.6  31.4  34188  290.04 0855.06
2009/04/23 12:03:48.4    -138   -131     37    191    195 226.7  11.0  34188  290.06 0855.06
2009/04/23 12:03:48.5    -164   -131     84    211    227 231.4  23.0  34204  290.33 0855.06
2009/04/23 12:03:48.6    -222    -96    100    243    262 246.5  23.4  34214  290.49 0855.06
2009/04/23 12:03:48.7    -194   -160     54    252    258 230.4  12.2  34206  290.34 0855.06
2009/04/23 12:03:48.8    -168   -231     75    286    296 216.1  14.7  34208  290.37 0855.06
2009/04/23 12:03:48.9    -161   -221     53    274    280 216.1  11.1  34196  290.17 0855.06
2009/04/23 12:03:49.0    -199   -243      6    315    316 219.4   1.1  34214  290.49 0855.06
2009/04/23 12:03:49.1    -128   -222    156    257    300 210.1  34.4  34228  290.71 0855.06
2009/04/23 12:03:49.2    -243   -145     68    284    293 239.1  13.5  34222  290.63 0855.06
2009/04/23 12:03:49.3    -268   -242     42    362    365 228.0   6.7  34184  289.98 0855.06
2009/04/23 12:03:49.4    -120   -189    121    225    255 212.5  30.6  34194  290.14 0855.06
2009/04/23 12:03:49.5    -181   -131    167    224    279 234.0  40.6  34194  290.15 0855.06
2009/04/23 12:03:49.6    -309   -101    155    326    360 251.8  27.2  34228  290.71 0855.06
2009/04/23 12:03:49.7    -271   -153    108    312    331 240.5  19.2  34206  290.34 0855.06
2009/04/23 12:03:49.8    -218    -72    108    230    254 251.6  27.1  34206  290.34 0855.06
2009/04/23 12:03:49.9    -233   -148    190    277    335 237.5  37.8  34198  290.22 0855.06
2009/04/23 12:03:50.0    -112    -71    151    133    201 237.5  54.2  34202  290.28 0855.06
2009/04/23 12:03:50.1    -102   -188    165    215    271 208.5  41.4  34180  289.92 0855.06
2009/04/23 12:03:50.2    -115   -194     87    226    242 210.7  22.0  34162  289.59 0855.06
2009/04/23 12:03:50.3    -209   -178     69    275    284 229.6  14.2  34160  289.58 0855.06
2009/04/23 12:03:50.4    -124   -203    128    239    271 211.4  30.6  34162  289.61 0855.06
2009/04/23 12:03:50.5    -131   -192    132    233    267 214.3  32.1  34162  289.59 0855.06
2009/04/23 12:03:50.6    -170   -192    108    257    278 221.5  24.1  34162  289.61 0855.06
2009/04/23 12:03:50.7    -156   -171     72    232    244 222.3  17.3  34162  289.59 0855.06
2009/04/23 12:03:50.8    -168   -168     50    238    244 225.0  12.0  34166  289.66 0855.06
2009/04/23 12:03:50.9    -183   -192     22    266    268 223.7   4.9  34166  289.68 0855.06
2009/04/23 12:03:51.0    -110   -252     24    276    278 203.6   5.0  34162  289.59 0855.06
2009/04/23 12:03:51.1     -66   -277      4    285    286 193.4   1.0  34162  289.59 0855.06
2009/04/23 12:03:51.2     -33   -307    -17    309    310 186.2  -3.3  34162  289.59 0855.06
2009/04/23 12:03:51.3      98   -224    -49    245    250 156.3 -11.5  34160  289.56 0855.06
2009/04/23 12:03:51.4     156   -234     -6    282    283 146.4  -1.3  34150  289.39 0855.06
2009/04/23 12:03:51.5     137   -227     -5    266    267 149.0  -1.2  34154  289.47 0855.06
2009/04/23 12:03:51.6     -14   -184    -45    185    191 184.5 -13.7  34154  289.48 0855.06
2009/04/23 12:03:51.7     -59   -177    -41    187    192 198.5 -12.6  34162  289.60 0855.06
2009/04/23 12:03:51.8     -10   -220     87    221    237 182.6  22.8  34156  289.50 0855.06
2009/04/23 12:03:51.9      19   -303     53    304    309 176.4  10.0  34150  289.41 0855.06
2009/04/23 12:03:52.1      27   -293     80    295    306 174.6  15.3  34144  289.31 0855.06
2009/04/23 12:03:52.1      70   -331     56    339    344 168.0   9.4  34150  289.40 0855.06
2009/04/23 12:03:52.2      13   -251     44    252    256 176.9  10.1  34150  289.41 0855.06
2009/04/23 12:03:52.4      72   -219     72    231    243 161.7  17.4  34150  289.39 0855.06
2009/04/23 12:03:52.4     133   -248     20    282    283 151.7   4.2  34152  289.42 0855.06
2009/04/23 12:03:52.5      70   -252     -5    262    263 164.4  -1.2  34148  289.37 0855.06
2009/04/23 12:03:52.6     152   -276     69    316    324 151.1  12.4  34158  289.53 0855.06
2009/04/23 12:03:52.7     155   -265    134    308    335 149.7  25.0  34152  289.44 0855.06
2009/04/23 12:03:52.8     113   -309     55    330    335 159.9   9.5  34162  289.59 0855.06
2009/04/23 12:03:52.9     178   -272     76    326    335 146.8  13.1  34154  289.47 0855.06
2009/04/23 12:03:53.0     193   -304     32    361    363 147.5   5.2  34148  289.37 0855.06
2009/04/23 12:03:53.1     204   -327     11    386    387 148.1   1.7  34152  289.42 0855.00
2009/04/23 12:03:53.2     148   -350     15    381    382 157.1   2.3  34154  289.48 0855.00
2009/04/23 12:03:53.3     118   -345     34    365    367 161.1   5.4  34152  289.43 0855.00
2009/04/23 12:03:53.4     102   -323     94    339    352 162.4  15.6  34148  289.38 0855.00
2009/04/23 12:03:53.5     173   -335     28    378    379 152.6   4.4  34154  289.47 0855.00
2009/04/23 12:03:53.6     218   -370     54    430    434 149.4   7.2  34150  289.39 0855.00
2009/04/23 12:03:53.7     221   -341      7    407    408 147.0   1.1  34154  289.48 0855.00
2009/04/23 12:03:53.8     166   -285     16    330    331 149.8   2.8  34152  289.45 0855.00
2009/04/23 12:03:53.9     138   -323    -16    352    353 156.8  -2.6  34156  289.52 0855.00
2009/04/23 12:03:54.0     167   -284    -71    330    338 149.6 -12.3  34158  289.55 0855.00
2009/04/23 12:03:54.1     176   -273    -65    325    332 147.2 -11.3  34156  289.50 0855.00
2009/04/23 12:03:54.2     184   -286    -57    341    346 147.3  -9.5  34152  289.45 0855.00
2009/04/23 12:03:54.3     145   -291     29    326    328 153.5   5.1  34160  289.58 0855.00
2009/04/23 12:03:54.4     175   -242     37    299    302 144.0   7.1  34158  289.53 0855.00
2009/04/23 12:03:54.5      62   -229     89    238    254 164.8  21.3  34168  289.71 0855.00
2009/04/23 12:03:54.6     105   -229    108    253    275 155.3  24.6  34156  289.51 0855.00
2009/04/23 12:03:54.7     101   -231    -14    253    254 156.4  -3.2  34164  289.64 0855.00
2009/04/23 12:03:54.8      74   -244    -68    256    266 163.1 -15.0  34164  289.64 0855.00
2009/04/23 12:03:54.9      25   -309    -48    311    315 175.3  -8.8  34166  289.66 0855.00
2009/04/23 12:03:55.0     -49   -364    -60    368    374 187.7  -9.3  34152  289.43 0855.00
2009/04/23 12:03:55.1      93   -293    -70    308    316 162.4 -12.9  34146  289.34 0855.03
2009/04/23 12:03:55.2      28   -305    -86    307    319 174.6 -15.7  34144  289.29 0855.03
2009/04/23 12:03:55.3      52   -305    -81    310    321 170.2 -14.8  34140  289.22 0855.03
2009/04/23 12:03:55.4      38   -327   -115    330    350 173.3 -19.3  34146  289.33 0855.03
2009/04/23 12:03:55.5     -22   -297    -43    298    302 184.4  -8.2  34160  289.56 0855.03
2009/04/23 12:03:55.6      -8   -247    -75    248    260 182.0 -16.8  34154  289.46 0855.03
2009/04/23 12:03:55.7     -38   -272    -17    275    276 188.1  -3.7  34152  289.42 0855.03
2009/04/23 12:03:55.8      63   -263    -75    271    281 166.4 -20.2  34152  289.42 0855.03
2009/04/23 12:03:55.9     118   -274   -102    299    315 156.6 -23.9  34144  289.31 0855.03
2009/04/23 12:03:56.0     125   -244    -34    275    278 152.8  -7.2  34144  289.31 0855.03
2009/04/23 12:03:56.1      95   -240    -42    259    263 158.4  -9.3  34146  289.32 0855.04
2009/04/23 12:03:56.2      93   -246    -31    264    266 159.3  -6.7  34146  289.34 0855.04
2009/04/23 12:03:56.3      96   -224    -16    244    245 156.8  -3.9  34148  289.37 0855.04
2009/04/23 12:03:56.4     111   -225     26    251    253 153.7   5.9  34152  289.42 0855.04
2009/04/23 12:03:56.5     169   -211     13    271    272 141.2   2.8  34144  289.29 0855.04
2009/04/23 12:03:56.6     134   -210     53    250    256 147.5  12.1  34142  289.27 0855.04
2009/04/23 12:03:56.8      91   -204    101    224    245 155.9  26.2  34150  289.41 0855.04
2009/04/23 12:03:56.9     145   -220     77    264    276 146.6  16.3  34148  289.37 0855.04
2009/04/23 12:03:57.0     162   -149     -1    221    222 132.7  -0.5  34146  289.33 0855.04
2009/04/23 12:03:57.1      57   -172    -64    182    194 161.7 -19.6  34148  289.36 0855.04
2009/04/23 12:03:57.2      99   -130    -29    164    167 142.8 -10.3  34148  289.38 0855.04
2009/04/23 12:03:57.3      28    -67      3     73     74 157.3   2.9  34150  289.40 0855.04
2009/04/23 12:03:57.4      -9    -27     36     29     46 200.0  57.5  34150  289.40 0855.04
2009/04/23 12:03:57.5     -56    -96     47    112    121 210.3  24.1  34148  289.38 0855.04
2009/04/23 12:03:57.6    -116   -156     42    195    200 216.7  12.4  34150  289.40 0855.04
2009/04/23 12:03:57.7    -122   -164     10    205    206 216.7   2.9  34144  289.31 0855.04
2009/04/23 12:03:57.8     -47   -169     18    176    177 195.6   5.9  34150  289.40 0855.04
2009/04/23 12:03:57.9      14   -157    -29    158    161 174.7 -10.5  34146  289.35 0855.04
2009/04/23 12:03:58.0      54   -135     -2    146    147 158.2  -1.2  34146  289.33 0855.04
2009/04/23 12:03:58.1      68   -123     27    141    144 151.1  11.1  34148  289.38 0855.04
2009/04/23 12:03:58.2      60   -109     34    125    130 151.0  15.3  34146  289.35 0855.02
2009/04/23 12:03:58.3      52   -100     28    113    117 152.4  14.3  34146  289.35 0855.02
2009/04/23 12:03:58.4      53   -118     30    130    134 155.5  13.2  34146  289.33 0855.02
2009/04/23 12:03:58.5      56   -130      7    142    143 156.4   2.9  34146  289.33 0855.02
2009/04/23 12:03:58.6      18   -104     13    106    107 170.2   7.5  34142  289.28 0855.02
2009/04/23 12:03:58.7     -29    -93     41     98    106 197.4  23.6  34146  289.33 0855.02
2009/04/23 12:03:58.8     -66   -112     17    131    133 210.7   7.5  34146  289.35 0855.02
2009/04/23 12:03:58.9     -72    -86     21    113    115 220.1  10.6  34148  289.38 0855.02
2009/04/23 12:03:59.0    -193   -108    -56    222    230 240.7 -14.3  34154  289.46 0855.02
2009/04/23 12:03:59.1    -204   -148    -27    253    255 234.1  -6.2  34156  289.51 0855.02
2009/04/23 12:03:59.2    -143   -161    -77    216    230 221.7 -19.6  34152  289.45 0855.02
2009/04/23 12:03:59.3    -112   -156    -39    193    197 215.8 -11.5  34150  289.40 0855.02
2009/04/23 12:03:59.4     -41   -187    -24    192    194 192.5  -7.3  34152  289.43 0855.02
2009/04/23 12:03:59.5     -95   -107    -58    144    155 221.4 -27.4  34150  289.40 0855.02
2009/04/23 12:03:59.6     -63   -119    -38    135    140 208.1 -20.2  34148  289.38 0855.02
2009/04/23 12:03:59.7      29   -158    -48    161    169 169.5 -16.8  34146  289.35 0855.02
2009/04/23 12:03:59.8     108   -183     -4    213    214 149.3  -1.3  34150  289.40 0855.02
2009/04/23 12:03:59.9     114   -160     35    197    201 144.4  10.1  34148  289.38 0855.02
2009/04/23 12:04:00.0      90   -140     59    167    177 147.3  20.2  34148  289.36 0855.02
2009/04/23 12:04:00.1      28   -184    -12    187    188 171.3  -3.7  34146  289.35 0855.02
2009/04/23 12:04:00.2      43   -160    -15    166    167 164.9  -5.4  34148  289.36 0854.98
2009/04/23 12:04:00.3      49   -157    -47    165    172 162.4 -16.0  34146  289.35 0854.98
2009/04/23 12:04:00.4      44   -103    -38    113    119 156.8 -23.6  34150  289.40 0854.98
2009/04/23 12:04:00.5      20   -117    -54    119    130 170.2 -30.6  34148  289.38 0854.98
2009/04/23 12:04:00.6      27   -103    -59    107    122 165.3 -35.8  34146  289.35 0854.98
2009/04/23 12:04:00.7      -8    -26    -57     28     63 198.5 -77.2  34148  289.36 0854.98
2009/04/23 12:04:00.8      34     35    -55     50     74  44.1 -56.6  34150  289.41 0854.98
2009/04/23 12:04:00.9     101    -48    -64    112    128 115.4 -36.8  34154  289.46 0854.98
2009/04/23 12:04:01.0     150    -93    -49    177    184 122.0 -15.5  34150  289.40 0854.98
2009/04/23 12:04:01.1     170    -87    -55    192    199 117.1 -20.7  34146  289.33 0854.98
2009/04/23 12:04:01.2     185    -92    -34    207    210 116.4  -9.4  34150  289.40 0854.98
2009/04/23 12:04:01.3     180    -75     -7    196    197 112.6  -2.2  34146  289.35 0854.98
2009/04/23 12:04:01.4     226    -41     -4    230    231 100.4  -1.1  34146  289.33 0854.98
2009/04/23 12:04:01.5     225    -57     -2    233    234 104.2  -0.5  34146  289.34 0854.98
2009/04/23 12:04:01.6     216    -50     45    222    227 103.3  11.4  34150  289.41 0854.98
2009/04/23 12:04:01.7     195    -12     53    196    204  93.7  15.3  34150  289.40 0854.98
2009/04/23 12:04:01.8     204    -64    101    214    236 107.5  27.1  34148  289.38 0854.98
2009/04/23 12:04:01.9     231    -39     64    235    244  99.6  15.3  34150  289.41 0854.98
2009/04/23 12:04:02.0     205    -64     96    215    235 107.5  25.7  34150  289.41 0854.98
2009/04/23 12:04:02.1     189    -60    123    199    233 107.7  35.2  34156  289.50 0854.98
2009/04/23 12:04:02.2     105    -40    137    113    177 110.8  56.3  34154  289.48 0854.94
2009/04/23 12:04:02.3      17    -21    114     28    117 140.4  85.9  34160  289.58 0854.94
2009/04/23 12:04:02.4      24     34    112     42    119  35.2  79.1  34162  289.62 0854.94
2009/04/23 12:04:02.5      18      6    111     20    112  70.0  90.0  34162  289.62 0854.94
2009/04/23 12:04:02.6      10    -25     96     27     99 158.2  84.4  34166  289.67 0854.94
2009/04/23 12:04:02.7     -18     26     90     32     95 325.7  80.7  34162  289.60 0854.94
2009/04/23 12:04:02.8      78    -17    118     81    143 102.8  62.6  34160  289.58 0854.94
2009/04/23 12:04:02.9      44      0    104     45    113  89.2  75.5  34160  289.58 0854.94
2009/04/23 12:04:03.0      21     25     81     33     87  39.6  77.1  34160  289.58 0854.94
2009/04/23 12:04:03.1      59     36     81     70    107  58.5  54.8  34158  289.55 0854.94
2009/04/23 12:04:03.2     109     -2     98    110    147  91.3  46.4  34156  289.50 0854.94
2009/04/23 12:04:03.3     109    -41     77    117    140 110.8  36.5  34152  289.45 0854.94
2009/04/23 12:04:03.4     129     26    132    132    186  78.5  50.1  34156  289.52 0854.94
2009/04/23 12:04:03.5      95    -37     63    102    119 111.3  34.4  34152  289.45 0854.94
2009/04/23 12:04:03.6      30    -30     84     43     94 135.0  70.8  34152  289.45 0854.94
2009/04/23 12:04:03.7      47     26     88     54    103  61.1  64.7  34150  289.41 0854.94
2009/04/23 12:04:03.8      82     27    121     87    149  71.6  60.6  34152  289.43 0854.94
2009/04/23 12:04:03.9      21     13     84     26     87  57.6  81.8  34158  289.55 0854.94
2009/04/23 12:04:04.0     -21     16     90     27     93 307.8  82.3  34164  289.65 0854.94
2009/04/23 12:04:04.1      -3     57     61     58     84 356.4  51.2  34162  289.60 0854.94
2009/04/23 12:04:04.2     -38    -25     80     46     92 235.8  67.2  34156  289.52 0854.93
2009/04/23 12:04:04.3       1    -47     91     48    102 178.2  70.4  34160  289.57 0854.93
2009/04/23 12:04:04.4     -29    -81     40     87     95 200.0  26.6  34152  289.43 0854.93
2009/04/23 12:04:04.5     -44    -65     30     79     84 214.3  21.0  34150  289.41 0854.93
2009/04/23 12:04:04.6     -33   -123      1    128    129 195.2   0.7  34150  289.41 0854.93
2009/04/23 12:04:04.7     -54    -44     29     70     75 230.5  23.1  34152  289.45 0854.93
2009/04/23 12:04:04.8     -78    -68     47    104    114 228.7  26.2  34162  289.60 0854.93
2009/04/23 12:04:04.9     -96    -83     26    128    131 229.1  11.6  34160  289.58 0854.93
2009/04/23 12:04:05.0     -56   -138     33    150    154 202.3  12.4  34160  289.58 0854.93
2009/04/23 12:04:05.1      63   -100     53    119    130 147.5  25.7  34152  289.43 0854.93
2009/04/23 12:04:05.2      70    -45     78     84    114 122.5  48.0  34154  289.48 0854.93
2009/04/23 12:04:05.3      12    -12     92     18     93 135.0  89.1  34160  289.57 0854.93
2009/04/23 12:04:05.4     -22     26     89     35     95 320.3  77.6  34160  289.58 0854.93
2009/04/23 12:04:05.5     -81    -11     97     82    127 261.6  55.4  34164  289.65 0854.93
2009/04/23 12:04:05.6      34    -76     87     84    120 155.5  51.2  34164  289.65 0854.93
2009/04/23 12:04:05.7      61      1    106     62    122  88.3  66.8  34168  289.72 0854.93
2009/04/23 12:04:05.8      58     28     93     65    113  63.8  62.1  34166  289.67 0854.93
2009/04/23 12:04:05.9      88     58     97    106    143  56.7  47.9  34160  289.58 0854.93
2009/04/23 12:04:06.0      68     68    120     97    154  45.0  56.4  34162  289.60 0854.93
2009/04/23 12:04:06.1     115     73    135    137    192  57.6  50.0  34156  289.50 0854.93
2009/04/23 12:04:06.2      93     96    123    134    181  44.1  47.7  34158  289.53 0854.94
2009/04/23 12:04:06.3      59     71     91     93    130  40.1  50.0  34158  289.53 0854.94
2009/04/23 12:04:06.4      40     71     93     82    123  29.9  54.2  34160  289.58 0854.94
2009/04/23 12:04:06.5      29     92     91     97    133  17.4  48.5  34158  289.53 0854.94
2009/04/23 12:04:06.6      31     46     94     56    109  34.3  66.2  34164  289.65 0854.94
2009/04/23 12:04:06.7      44     14    105     47    115  71.6  74.0  34164  289.65 0854.94
2009/04/23 12:04:06.8      69    116    114    136    177  30.8  44.3  34158  289.53 0854.94
2009/04/23 12:04:06.9      45    172     97    178    202  14.7  31.3  34162  289.60 0854.94
2009/04/23 12:04:07.0      44    211    121    216    247  12.0  31.6  34166  289.66 0854.94
2009/04/23 12:04:07.1      27    267    131    269    299   5.8  27.8  34176  289.85 0854.94
2009/04/23 12:04:07.2     -27    419     50    420    423 356.2   6.8  34212  290.44 0854.94
2009/04/23 12:04:07.3     -49    393     44    397    400 352.8   6.4  34244  291.01 0854.94
2009/04/23 12:04:07.4       5    369     44    370    373   0.9   6.9  34256  291.20 0854.94
2009/04/23 12:04:07.5      95    284    110    300    319  18.5  21.0  34222  290.63 0854.94
2009/04/23 12:04:07.6     106    350    117    366    385  16.9  17.8  34242  290.98 0854.94
2009/04/23 12:04:07.7     153    360    112    392    408  23.0  16.0  34240  290.94 0854.94
2009/04/23 12:04:07.8      58    286    204    293    357  11.6  38.3  34216  290.52 0854.94
2009/04/23 12:04:07.9     133    293    174    322    366  24.5  30.8  34246  291.03 0854.94
2009/04/23 12:04:08.0     211    226    173    310    355  43.0  31.6  34246  291.03 0854.94
2009/04/23 12:04:08.1     190    214    140    287    319  41.7  27.9  34240  290.93 0854.94
2009/04/23 12:04:08.2      27    231    109    233    257   6.9  27.0  34234  290.82 0854.95
2009/04/23 12:04:08.3     124    126     84    178    196  44.5  27.1  34206  290.35 0854.95
2009/04/23 12:04:08.4     148    133    112    200    229  48.0  31.4  34200  290.25 0854.95
2009/04/23 12:04:08.5     217     72    151    229    274  71.6  36.7  34198  290.20 0854.95
2009/04/23 12:04:08.6     233     80    198    247    316  71.0  42.7  34258  291.22 0854.95
2009/04/23 12:04:08.7     195    107    183    223    288  61.1  43.7  34246  291.02 0854.95
2009/04/23 12:04:08.8     152    108    151    187    240  54.7  43.0  34252  291.13 0854.95
2009/04/23 12:04:08.9     152      2    119    153    193  89.1  42.0  34202  290.28 0854.95
2009/04/23 12:04:09.0     183    123     97    221    241  55.9  25.1  34188  290.03 0854.95
2009/04/23 12:04:09.1     203    191     65    279    287  46.8  13.1  34174  289.80 0854.95
2009/04/23 12:04:09.2     133    135    171    190    255  44.5  46.9  34200  290.24 0854.95
2009/04/23 12:04:09.3     212    198     76    291    301  46.9  14.7  34232  290.80 0854.95
2009/04/23 12:04:09.4     178    164    172    243    297  47.3  38.8  34252  291.12 0854.95
2009/04/23 12:04:09.5     302    207    -73    367    375  55.5 -11.3  34210  290.43 0854.95
2009/04/23 12:04:09.6     270    239     32    361    363  48.4   5.1  34182  289.96 0854.95
2009/04/23 12:04:09.7     202    229     41    306    309  41.5   7.8  34194  290.15 0854.95
2009/04/23 12:04:09.8     471     95    -74    481    487  78.5  -8.8  34192  290.10 0854.95
2009/04/23 12:04:09.9     441    153    -60    467    471  70.8  -7.3  34192  290.13 0854.95
2009/04/23 12:04:10.0     575    295     55    647    650  62.8   4.9  34168  289.70 0854.95
2009/04/23 12:04:10.1     531    246    -32    586    587  65.2  -3.2  34174  289.81 0854.95
2009/04/23 12:04:10.2     495      7    203    496    535  89.2  23.5  34170  289.75 0854.98
2009/04/23 12:04:10.3     556    -41    196    558    591  94.3  20.2  34166  289.69 0854.98
2009/04/23 12:04:10.4     689    -79    319    694    763  96.6  26.4  34224  290.67 0854.98
2009/04/23 12:04:10.5     607    -64    336    611    697  96.1  31.3  34194  290.14 0854.98
2009/04/23 12:04:10.6     541   -207    178    580    607 110.9  17.1  34170  289.73 0854.98
2009/04/23 12:04:10.7     559    -12    130    560    575  91.3  13.1  34166  289.68 0854.98
2009/04/23 12:04:10.8     561     16    164    562    586  88.3  16.3  34182  289.95 0854.98
2009/04/23 12:04:10.9     553    -12     57    554    557  91.3   5.9  34218  290.55 0854.98
2009/04/23 12:04:11.0     424     19     65    425    430  87.3   8.7  34242  290.97 0854.98
2009/04/23 12:04:11.1     382   -160    124    415    434 112.7  16.7  34214  290.50 0854.98
2009/04/23 12:04:11.2     299   -264     54    400    404 131.5   7.8  34218  290.55 0854.98
2009/04/23 12:04:11.3     286   -226    120    365    385 128.3  18.2  34232  290.81 0854.98
2009/04/23 12:04:11.4     325   -232    154    400    428 125.5  22.1  34200  290.24 0854.98
2009/04/23 12:04:11.5     351   -197     93    403    414 119.3  13.1  34198  290.22 0854.98
2009/04/23 12:04:11.6     408   -103    112    421    436 104.2  14.9  34164  289.65 0854.98
2009/04/23 12:04:11.7     380   -114    211    397    449 106.8  30.3  34206  290.34 0854.98
2009/04/23 12:04:11.8     367   -133    200    391    439 110.0  29.2  34214  290.48 0854.98
2009/04/23 12:04:11.9     339   -111    211    357    414 108.2  33.4  34212  290.47 0854.98
2009/04/23 12:04:12.0     374   -162    181    408    446 113.5  25.3  34216  290.51 0854.98
2009/04/23 12:04:12.1     313   -177    175    360    400 119.5  27.8  34238  290.88 0854.98
2009/04/23 12:04:12.2     286   -163    141    330    358 119.8  24.6  34248  291.06 0854.99
2009/04/23 12:04:12.3     289   -132    176    318    363 114.6  31.4  34246  291.03 0854.99
2009/04/23 12:04:12.4     318   -174    168    363    399 118.8  26.4  34226  290.69 0854.99
2009/04/23 12:04:12.5     340   -125    146    363    391 110.3  23.1  34238  290.88 0854.99
2009/04/23 12:04:12.6     362    -86    215    373    430 103.4  32.6  34196  290.17 0854.99
2009/04/23 12:04:12.7     397    -97    228    409    468 103.8  31.7  34202  290.28 0854.99
2009/04/23 12:04:12.8     368    -88    259    379    459 103.6  37.6  34196  290.19 0854.99
2009/04/23 12:04:12.9     284    -23    266    285    389  94.8  47.9  34194  290.16 0854.99
2009/04/23 12:04:13.0     257     11    246    258    356  87.4  48.6  34194  290.15 0854.99
2009/04/23 12:04:13.1     403    -54    284    407    496  97.7  38.4  34178  289.86 0854.99
2009/04/23 12:04:13.2     183   -181    264    258    369 134.8  50.6  34188  290.03 0854.99
2009/04/23 12:04:13.3     152   -108    245    187    308 125.3  58.7  34184  289.98 0854.99
2009/04/23 12:04:13.4      80    -81    256    114    280 135.3  74.8  34184  289.97 0854.99
2009/04/23 12:04:13.5       2     13    269     14    269  11.6  90.0  34184  289.97 0854.99
2009/04/23 12:04:13.6      15   -142    288    143    321 173.7  71.7  34214  290.48 0854.99
2009/04/23 12:04:13.7      -2    -32    295     33    296 184.4  90.0  34216  290.51 0854.99
2009/04/23 12:04:13.8    -144   -321    377    352    515 204.2  52.2  34182  289.96 0854.99
2009/04/23 12:04:13.9    -495   -163    389    522    651 251.7  40.4  34182  289.93 0854.99
2009/04/23 12:04:14.0    -303   -380    202    487    527 218.6  23.7  34262  291.29 0854.99
2009/04/23 12:04:14.1    -183   -524     69    556    561 199.3   7.1  34166  289.68 0854.99
2009/04/23 12:04:14.2    -209   -481     15    525    526 203.5   1.7  34192  290.11 0855.03
2009/04/23 12:04:14.3     -93   -448     65    458    463 191.8   8.1  34162  289.60 0855.03
2009/04/23 12:04:14.4      13   -357    257    358    440 177.8  39.3  34172  289.78 0855.03
2009/04/23 12:04:14.5      86   -328    208    340    398 165.3  34.4  34170  289.74 0855.03
2009/04/23 12:04:14.6      76   -335    121    344    364 167.1  20.1  34166  289.69 0855.03
2009/04/23 12:04:14.7      90   -298    143    312    343 163.1  26.5  34172  289.79 0855.03
2009/04/23 12:04:14.8      84   -272    143    285    318 162.8  28.7  34176  289.83 0855.03
2009/04/23 12:04:14.9     126   -288    181    315    363 156.3  32.6  34180  289.91 0855.03
2009/04/23 12:04:15.0      88   -241    163    257    304 159.9  35.5  34178  289.88 0855.03
2009/04/23 12:04:15.1      58   -198    130    207    244 163.7  35.5  34180  289.90 0855.03
2009/04/23 12:04:15.2      57   -183    157    192    248 162.6  43.7  34178  289.89 0855.03
2009/04/23 12:04:15.3      25   -183    136    185    229 172.0  39.7  34176  289.84 0855.03
2009/04/23 12:04:15.4      -3   -127    131    128    183 181.4  50.7  34174  289.82 0855.03
2009/04/23 12:04:15.5     -18   -128    139    130    190 188.0  52.2  34178  289.87 0855.03
2009/04/23 12:04:15.6     -14   -132     76    133    153 186.3  32.4  34174  289.80 0855.03
2009/04/23 12:04:15.7     -47   -131     45    140    148 200.0  17.9  34170  289.75 0855.03
2009/04/23 12:04:15.8     -48   -110     -6    121    122 203.6  -3.2  34174  289.82 0855.03
2009/04/23 12:04:15.9     -48    -86     25     99    103 209.0  14.3  34178  289.87 0855.03
2009/04/23 12:04:16.0     -32   -105     82    110    137 196.9  40.7  34176  289.84 0855.03
2009/04/23 12:04:16.1     -31   -152     37    156    161 191.5  13.5  34174  289.80 0855.03
2009/04/23 12:04:16.2       0   -150     47    151    159 180.4  17.3  34170  289.75 0855.07
2009/04/23 12:04:16.3     -26   -185     95    187    209 188.0  29.1  34172  289.77 0855.07
2009/04/23 12:04:16.4      15   -136     82    137    159 173.7  33.7  34172  289.79 0855.07
2009/04/23 12:04:16.5      25   -147      6    150    151 170.3   2.3  34170  289.75 0855.07
2009/04/23 12:04:16.6      73   -123     18    144    146 149.3   7.1  34170  289.74 0855.07
2009/04/23 12:04:16.7      70    -77     11    105    106 137.7   6.5  34172  289.77 0855.07
2009/04/23 12:04:16.8      92    -12    -17     93     95  97.9 -10.9  34172  289.77 0855.07
2009/04/23 12:04:16.9      33     -5    -41     34     53  99.7 -60.7  34178  289.89 0855.07
2009/04/23 12:04:17.0      11    -36    -40     38     55 161.7 -54.5  34180  289.92 0855.07
2009/04/23 12:04:17.1     -23    -23     20     33     38 225.1  35.5  34192  290.11 0855.07
2009/04/23 12:04:17.2     -23     43     62     49     79 331.9  57.5  34190  290.09 0855.10
2009/04/23 12:04:17.3     -58    -38     96     70    118 236.7  60.5  34192  290.13 0855.10
2009/04/23 12:04:17.4     -76   -135     80    155    174 209.4  29.3  34174  289.82 0855.10
2009/04/23 12:04:17.5     -56   -140    117    151    191 201.8  42.0  34172  289.77 0855.10
2009/04/23 12:04:17.6     -85   -133    122    159    200 212.6  41.6  34172  289.79 0855.10
2009/04/23 12:04:17.7     -35   -129    132    134    188 195.6  50.0  34166  289.69 0855.10
2009/04/23 12:04:17.8     -45   -164    132    171    216 195.6  41.7  34166  289.69 0855.10
2009/04/23 12:04:17.9     -21   -149    136    151    203 188.0  46.9  34170  289.74 0855.10
2009/04/23 12:04:18.0       4   -162    172    163    236 178.4  51.6  34172  289.79 0855.10
2009/04/23 12:04:18.1      13   -132    145    133    196 174.2  52.7  34170  289.75 0855.10
2009/04/23 12:04:18.2      14   -191    168    192    255 175.6  45.8  34170  289.75 0855.10
2009/04/23 12:04:18.3      -3   -201    153    202    253 180.9  40.7  34170  289.75 0855.10
2009/04/23 12:04:18.4       3   -193    188    194    270 178.9  49.2  34174  289.80 0855.10
2009/04/23 12:04:18.5       4   -207    158    208    261 178.9  40.9  34170  289.75 0855.10
2009/04/23 12:04:18.6     -41   -231    143    235    275 190.2  34.2  34170  289.73 0855.10
2009/04/23 12:04:18.7     -50   -230    134    236    271 192.3  32.3  34170  289.75 0855.10
2009/04/23 12:04:18.8     -44   -257    155    261    303 189.7  33.5  34172  289.76 0855.10
2009/04/23 12:04:18.9     -25   -258    140    260    295 185.6  30.8  34176  289.83 0855.10
2009/04/23 12:04:19.0     -64   -230    155    239    284 195.6  35.7  34192  290.10 0855.10
2009/04/23 12:04:19.1     -17   -200    130    201    239 185.1  36.0  34198  290.23 0855.10
2009/04/23 12:04:19.2      -8   -177    124    178    216 182.7  38.4  34184  289.99 0855.10
2009/04/23 12:04:19.3      -9   -154    149    155    215 183.6  49.2  34178  289.89 0855.10
2009/04/23 12:04:19.4     -62   -212    193    221    293 196.3  45.8  34218  290.54 0855.10
2009/04/23 12:04:19.5     -83   -186    152    204    254 204.1  40.6  34202  290.27 0855.10
2009/04/23 12:04:19.6    -119   -158    134    198    239 217.0  37.4  34196  290.19 0855.10
2009/04/23 12:04:19.7     -53   -146    129    156    202 200.0  43.8  34176  289.84 0855.10
2009/04/23 12:04:19.8     -21   -152    143    154    210 188.0  47.9  34174  289.82 0855.10
2009/04/23 12:04:19.9      19   -192    142    194    240 174.2  39.9  34174  289.82 0855.10
2009/04/23 12:04:20.0      48   -153    120    161    200 162.6  40.4  34174  289.80 0855.10
2009/04/23 12:04:20.1       1   -117     91    118    149 179.1  41.7  34178  289.89 0855.10
2009/04/23 12:04:20.2      41   -112     99    120    155 160.0  43.7  34176  289.85 0855.10
2009/04/23 12:04:20.3     116     16    146    118    187  82.1  56.6  34178  289.87 0855.10
2009/04/23 12:04:20.4      -6    -58    114     59    128 186.2  71.0  34172  289.79 0855.10
2009/04/23 12:04:20.5      50   -151    149    160    218 161.7  47.9  34176  289.84 0855.10
2009/04/23 12:04:20.6      32   -159    141    163    215 168.4  45.6  34174  289.82 0855.10
2009/04/23 12:04:20.7      11   -145    109    146    182 175.5  40.4  34172  289.79 0855.10
2009/04/23 12:04:20.8      26   -116    148    119    189 167.1  56.9  34174  289.82 0855.10
2009/04/23 12:04:20.9       6    -99    121    100    156 176.4  56.1  34172  289.79 0855.10
2009/04/23 12:04:21.0      34    -54    123     65    139 147.5  69.8  34178  289.87 0855.10
2009/04/23 12:04:21.1     -21    -29     77     36     85 216.1  73.5  34180  289.91 0855.10
2009/04/23 12:04:21.2       6     21    115     23    117  16.9  89.0  34178  289.89 0855.09
2009/04/23 12:04:21.3     -10      1    118     11    118 277.9  90.0  34188  290.04 0855.09
2009/04/23 12:04:21.4       8    -26    102     28    105 161.7  84.8  34188  290.04 0855.09
2009/04/23 12:04:21.5       4     -2     74      5     74 122.4  90.0  34190  290.08 0855.09
2009/04/23 12:04:21.6     -11   -150    161    151    220 184.5  52.1  34172  289.77 0855.09
2009/04/23 12:04:21.7     -32   -137    151    141    206 193.4  52.2  34168  289.72 0855.09
2009/04/23 12:04:21.8     -57   -136    202    148    250 202.7  60.3  34166  289.69 0855.09
2009/04/23 12:04:21.9    -106   -156    162    190    249 214.3  44.8  34166  289.67 0855.09
2009/04/23 12:04:22.0     -39   -156    169    162    234 194.3  51.2  34164  289.65 0855.09
2009/04/23 12:04:22.1     -68   -192    162    204    260 199.6  42.7  34166  289.66 0855.09
2009/04/23 12:04:22.2     -34   -157    163    161    229 192.5  50.1  34166  289.67 0855.09
2009/04/23 12:04:22.3     -24   -141    175    144    226 189.8  56.4  34166  289.67 0855.09
2009/04/23 12:04:22.4     -84   -115    198    143    244 216.1  60.8  34172  289.77 0855.09
2009/04/23 12:04:22.5     -75   -185    199    200    282 202.3  50.0  34166  289.66 0855.09
2009/04/23 12:04:22.6     -88    -94    187    130    227 223.2  62.1  34172  289.77 0855.09
2009/04/23 12:04:22.7    -105    -54    131    119    176 242.9  53.0  34178  289.87 0855.09
2009/04/23 12:04:22.8       7     19     12     21     24  21.8  31.4  34184  289.97 0855.09
2009/04/23 12:04:22.9     136     49    -29    145    148  70.1 -11.3  34182  289.96 0855.09
2009/04/23 12:04:23.0     109    -30     50    114    124 105.5  25.1  34180  289.92 0855.09
2009/04/23 12:04:23.1      45   -147    111    154    189 163.0  39.5  34174  289.82 0855.09
2009/04/23 12:04:23.2      28   -119     63    123    138 166.6  29.3  34170  289.74 0855.09
2009/04/23 12:04:23.3      41   -104     52    113    124 158.2  26.6  34174  289.80 0855.09
2009/04/23 12:04:23.4      16    -78     38     80     88 168.4  27.2  34170  289.75 0855.09
2009/04/23 12:04:23.5      73   -136     62    155    166 151.9  23.0  34168  289.72 0855.09
2009/04/23 12:04:23.6      10   -131     46    132    140 175.5  19.2  34166  289.69 0855.09
2009/04/23 12:04:23.7     -28   -145     40    148    154 191.1  15.2  34166  289.67 0855.09
2009/04/23 12:04:23.8       0   -141      1    142    143 180.0   0.7  34164  289.65 0855.09
2009/04/23 12:04:23.9       2   -147     -8    148    149 179.0  -3.2  34170  289.74 0855.09
2009/04/23 12:04:24.0     -33   -144     26    148    151 193.3  10.1  34192  290.13 0855.09
2009/04/23 12:04:24.1     -60    -79     12    100    101 217.4   7.1  34180  289.92 0855.09
2009/04/23 12:04:24.2     -95    -44    -33    105    110 245.2 -23.3  34196  290.18 0855.09
2009/04/23 12:04:24.3     -77    -64     41    101    109 230.5  23.0  34196  290.18 0855.09
2009/04/23 12:04:24.4     -44    -89     55    100    114 206.7  31.4  34192  290.11 0855.09
2009/04/23 12:04:24.6     -10   -135     17    136    138 184.5   7.5  34186  290.01 0855.09
2009/04/23 12:04:24.7      57   -168     46    178    184 161.3  14.7  34168  289.70 0855.09
2009/04/23 12:04:24.8     -11   -216     56    217    225 183.1  14.5  34164  289.65 0855.09
2009/04/23 12:04:24.9     -18   -218     81    219    233 184.9  21.0  34160  289.58 0855.09
2009/04/23 12:04:25.0     -26   -363    113    364    382 184.1  17.3  34160  289.57 0855.09
2009/04/23 12:04:25.1      16   -281     88    282    296 176.6  17.3  34156  289.51 0855.09
2009/04/23 12:04:25.2     106   -337    134    354    378 162.5  21.7  34154  289.48 0855.09
2009/04/23 12:04:25.3     115   -376     15    394    395 163.0   2.2  34158  289.54 0855.08
2009/04/23 12:04:25.4      87   -414     50    424    427 168.1   6.8  34154  289.46 0855.08
2009/04/23 12:04:25.5      99   -372    -86    386    396 165.0 -12.7  34156  289.52 0855.08
2009/04/23 12:04:25.6     151   -506    -60    529    533 163.3  -6.5  34152  289.43 0855.08
2009/04/23 12:04:25.7      68   -438    104    444    457 171.2  13.2  34156  289.51 0855.08
2009/04/23 12:04:25.8      56   -341      9    346    347 170.7   1.6  34158  289.54 0855.08
2009/04/23 12:04:25.9     130   -296    -14    324    325 156.2  -2.6  34154  289.46 0855.08
2009/04/23 12:04:26.0     178   -387     29    426    427 155.3   3.9  34154  289.46 0855.08
2009/04/23 12:04:26.1     199   -417     -9    463    464 154.5  -1.2  34152  289.43 0855.08
2009/04/23 12:04:26.2     186   -462    -48    499    502 158.1  -5.6  34152  289.42 0855.08
2009/04/23 12:04:26.3     189   -432     -5    472    473 156.3  -0.7  34150  289.39 0855.08
2009/04/23 12:04:26.4     156   -398   -129    428    447 158.5 -21.7  34154  289.46 0855.08
2009/04/23 12:04:26.5     142   -409   -128    434    452 160.8 -21.2  34152  289.44 0855.08
2009/04/23 12:04:26.6     135   -374   -152    398    426 160.1 -26.4  34154  289.48 0855.08
2009/04/23 12:04:26.7     104   -408    -88    422    432 165.6 -11.9  34146  289.34 0855.08
2009/04/23 12:04:26.8     126   -465    -42    482    484 164.8  -5.1  34136  289.18 0855.08
2009/04/23 12:04:26.9     112   -487    -76    500    506 167.0  -8.7  34136  289.15 0855.08
2009/04/23 12:04:27.0     124   -459    -44    476    479 164.9  -5.3  34132  289.10 0855.08
2009/04/23 12:04:27.1     116   -446    -34    461    463 165.3  -4.2  34132  289.11 0855.08
2009/04/23 12:04:27.2     102   -477    -21    488    489 167.9  -2.5  34136  289.15 0855.08
2009/04/23 12:04:27.3      98   -476     -7    487    488 168.3  -0.9  34136  289.18 0855.06
2009/04/23 12:04:27.4      26   -402     68    403    409 176.3   9.7  34132  289.09 0855.06
2009/04/23 12:04:27.5      88   -434     68    443    449 168.5   8.8  34134  289.14 0855.06
2009/04/23 12:04:27.6     108   -492      1    504    505 167.6   0.2  34140  289.23 0855.06
2009/04/23 12:04:27.7      57   -354     -1    359    360 170.8  -0.3  34138  289.21 0855.06
2009/04/23 12:04:27.8      66   -404    -22    410    411 170.7  -3.1  34144  289.31 0855.06
2009/04/23 12:04:27.9      69   -403    -59    410    415 170.2  -8.2  34144  289.31 0855.06
2009/04/23 12:04:28.0     111   -365     28    382    383 163.1   4.3  34142  289.26 0855.06
2009/04/23 12:04:28.1     110   -379     27    395    396 163.7   4.0  34142  289.28 0855.06
2009/04/23 12:04:28.2     130   -337     41    362    365 158.8   6.6  34142  289.28 0855.06
2009/04/23 12:04:28.3      59   -327     13    333    334 169.7   2.3  34140  289.23 0855.06
2009/04/23 12:04:28.4      -5   -305    -87    306    318 181.0 -20.5  34146  289.32 0855.06
2009/04/23 12:04:28.5      26   -222    -43    224    229 173.3 -10.9  34144  289.30 0855.06
2009/04/23 12:04:28.6      71   -241    -30    252    254 163.5  -6.9  34144  289.31 0855.06
2009/04/23 12:04:28.7      89   -292    -39    306    309 163.1  -7.3  34144  289.29 0855.06
2009/04/23 12:04:28.8     138   -409    -67    432    438 161.3  -8.8  34132  289.11 0855.06
2009/04/23 12:04:28.9     101   -404    -43    417    420 165.9  -6.0  34136  289.16 0855.06
2009/04/23 12:04:29.0     101   -513      7    523    524 168.8   0.8  34134  289.13 0855.06
2009/04/23 12:04:29.1      88   -505     80    513    520 170.1   8.9  34130  289.06 0855.06
2009/04/23 12:04:29.2      56   -469     74    473    479 173.2   8.9  34136  289.15 0855.06
2009/04/23 12:04:29.3      47   -470     97    473    484 174.2  11.7  34140  289.23 0855.07
2009/04/23 12:04:29.4      59   -479     78    483    490 172.9   9.2  34136  289.15 0855.07
2009/04/23 12:04:29.5      52   -479     46    482    485 173.8   5.5  34136  289.18 0855.07
2009/04/23 12:04:29.6      98   -474    -62    485    489 168.3  -7.3  34136  289.18 0855.07
2009/04/23 12:04:29.7      97   -480    -53    490    493 168.5  -6.2  34132  289.10 0855.07
2009/04/23 12:04:29.8      16   -459    -73    460    466 178.0  -9.1  34138  289.19 0855.07
2009/04/23 12:04:29.9     121   -471    -98    487    497 165.6 -11.5  34136  289.18 0855.07
2009/04/23 12:04:30.0      80   -511      4    518    519 171.1   0.5  34140  289.23 0855.07
2009/04/23 12:04:30.1     114   -454    100    469    480 165.9  12.1  34140  289.22 0855.07
2009/04/23 12:04:30.2       4   -328    -12    329    330 179.3  -2.2  34138  289.20 0855.07
2009/04/23 12:04:30.3      -3   -458     29    459    460 180.5   3.6  34140  289.24 0855.07
2009/04/23 12:04:30.4     137   -543    112    560    572 165.8  11.3  34140  289.24 0855.07
2009/04/23 12:04:30.5     -16   -501    217    502    546 181.9  24.9  34132  289.11 0855.07
2009/04/23 12:04:30.6      58   -494    185    498    531 173.2  21.4  34138  289.19 0855.07
2009/04/23 12:04:30.7     179   -531    240    561    610 161.3  24.6  34142  289.25 0855.07
2009/04/23 12:04:30.8      27   -504    200    505    543 176.9  22.9  34136  289.16 0855.07
2009/04/23 12:04:30.9     131   -503    157    520    544 165.3  16.8  34134  289.14 0855.07
2009/04/23 12:04:31.0     170   -527    115    554    566 162.1  11.8  34138  289.21 0855.07
2009/04/23 12:04:31.1      82   -599    -12    605    606 172.2  -1.2  34140  289.24 0855.07
2009/04/23 12:04:31.2     131   -560     81    576    582 166.8   8.0  34142  289.27 0855.07
2009/04/23 12:04:31.3     102   -517     92    528    537 168.8   9.9  34140  289.23 0855.09
2009/04/23 12:04:31.4      58   -485     38    489    491 173.1   4.5  34142  289.25 0855.09
2009/04/23 12:04:31.5      80   -463     19    471    472 170.1   2.3  34140  289.22 0855.09
2009/04/23 12:04:31.6     101   -455    -33    467    469 167.4  -4.1  34140  289.23 0855.09
2009/04/23 12:04:31.7     129   -491    -65    508    513 165.2  -7.3  34140  289.23 0855.09
2009/04/23 12:04:31.8     103   -497    -27    508    509 168.2  -3.1  34146  289.35 0855.09
2009/04/23 12:04:31.9      81   -473    -11    481    482 170.2  -1.4  34146  289.35 0855.09
2009/04/23 12:04:32.0      81   -449    -38    457    459 169.7  -4.9  34150  289.39 0855.09
2009/04/23 12:04:32.1       9   -450    -83    451    459 178.8 -10.5  34148  289.38 0855.09
2009/04/23 12:04:32.2      33   -467   -133    469    487 175.9 -20.5  34146  289.32 0855.09
2009/04/23 12:04:32.3      35   -481   -145    483    505 175.8 -16.8  34146  289.35 0855.09
2009/04/23 12:04:32.4      29   -478   -139    479    498 176.5 -21.1  34140  289.23 0855.09
2009/04/23 12:04:32.5     105   -471   -151    483    506 167.4 -22.4  34142  289.28 0855.09
2009/04/23 12:04:32.6      66   -453   -141    458    480 171.7 -17.2  34142  289.27 0855.09
2009/04/23 12:04:32.7      20   -460   -143    461    483 177.4 -17.3  34140  289.23 0855.09
2009/04/23 12:04:32.8      32   -456   -143    458    479 176.0 -22.3  34136  289.18 0855.09
2009/04/23 12:04:32.9      30   -476   -203    477    518 176.4 -29.0  34140  289.22 0855.09
2009/04/23 12:04:33.0     -49   -491   -278    494    566 185.8 -36.3  34142  289.28 0855.09
2009/04/23 12:04:33.1    -105   -415   -285    429    515 194.3 -41.3  34140  289.23 0855.09
2009/04/23 12:04:33.2     -26   -319   -270    321    419 184.7 -48.6  34132  289.10 0855.09
2009/04/23 12:04:33.3     -47   -434   -206    437    483 186.2 -31.5  34130  289.06 0855.10
2009/04/23 12:04:33.4      76   -487    -72    494    500 171.1  -8.4  34136  289.18 0855.10
2009/04/23 12:04:33.5     126   -571     21    585    586 167.5   2.1  34120  288.88 0855.10
2009/04/23 12:04:33.6     156   -464     67    490    495 161.4   7.8  34130  289.06 0855.10
2009/04/23 12:04:33.7     107   -416     17    430    431 165.5   2.3  34134  289.14 0855.10
2009/04/23 12:04:33.8     169   -469   -125    499    515 160.1 -14.1  34130  289.06 0855.10
2009/04/23 12:04:33.9     198   -441    -23    484    485 155.8  -2.8  34126  289.01 0855.10
2009/04/23 12:04:34.0     120   -461     -2    477    478 165.3  -0.3  34126  289.01 0855.10
2009/04/23 12:04:34.1     131   -515     -4    532    533 165.7  -0.5  34130  289.06 0855.10
2009/04/23 12:04:34.2     164   -411    -30    443    444 158.2  -3.9  34132  289.09 0855.10
2009/04/23 12:04:34.3     107   -456    -18    469    470 166.7  -2.2  34126  288.98 0855.10
2009/04/23 12:04:34.4     119   -442      0    458    459 164.9   0.0  34124  288.97 0855.10
2009/04/23 12:04:34.5      59   -413     42    418    421 171.8   5.8  34130  289.05 0855.10
2009/04/23 12:04:34.6      65   -440     62    445    450 171.5   8.0  34130  289.07 0855.10
2009/04/23 12:04:34.7     -13   -422    175    423    457 181.8  23.7  34132  289.11 0855.10
2009/04/23 12:04:34.8       0   -384    204    385    435 180.0  30.2  34132  289.09 0855.10
2009/04/23 12:04:34.9     -45   -457     78    460    467 185.7   9.7  34128  289.04 0855.10
2009/04/23 12:04:35.0     -58   -264    -98    271    288 192.5 -25.3  34134  289.14 0855.10
2009/04/23 12:04:35.1     -91   -249   -109    266    287 200.1 -27.8  34132  289.10 0855.10
2009/04/23 12:04:35.2     -87   -263    -13    278    279 198.3  -2.8  34134  289.14 0855.10
2009/04/23 12:04:35.3     -72   -267    -55    277    283 195.2 -11.3  34134  289.14 0855.06
2009/04/23 12:04:35.4     -57   -230    -48    238    244 194.0 -11.6  34134  289.14 0855.06
2009/04/23 12:04:35.5    -109   -224    -37    250    253 205.9  -8.6  34132  289.09 0855.06
2009/04/23 12:04:35.6    -142   -322     22    353    354 203.8   3.6  34134  289.13 0855.06
2009/04/23 12:04:35.7     -54   -318      4    323    324 189.7   0.7  34136  289.15 0855.06
2009/04/23 12:04:35.8     -79   -390    -18    399    400 191.6  -2.7  34132  289.11 0855.06
2009/04/23 12:04:35.9     -68   -415    -16    421    422 189.4  -2.3  34132  289.11 0855.06
2009/04/23 12:04:36.0       6   -362     80    363    372 179.0  12.5  34132  289.10 0855.06
2009/04/23 12:04:36.1       5   -367     -7    368    369 179.1  -1.2  34134  289.13 0855.06
2009/04/23 12:04:36.2       0   -316    -12    317    318 180.0  -2.2  34134  289.14 0855.06
2009/04/23 12:04:36.3      35   -286     -1    289    290 172.9  -0.3  34134  289.14 0855.06
2009/04/23 12:04:36.4      23   -302     14    303    304 175.5   2.8  34134  289.14 0855.06
2009/04/23 12:04:36.5      35   -284      1    287    288 172.8   0.2  34132  289.10 0855.06
2009/04/23 12:04:36.6      28   -301     25    303    305 174.7   4.9  34140  289.22 0855.06
2009/04/23 12:04:36.7      36   -276     34    279    282 172.4   7.1  34140  289.22 0855.06
2009/04/23 12:04:36.8      66   -255     -9    264    265 165.3  -2.1  34140  289.22 0855.06
2009/04/23 12:04:36.9      51   -204    -26    211    213 166.0  -7.2  34134  289.14 0855.06
2009/04/23 12:04:37.0      15   -185    -21    186    188 175.1  -6.7  34134  289.14 0855.06
2009/04/23 12:04:37.1      -8   -198      3    199    200 182.5   1.0  34136  289.18 0855.06
2009/04/23 12:04:37.2      -2   -192     41    193    198 180.7  12.0  34136  289.18 0855.06
2009/04/23 12:04:37.3      18   -216     44    217    222 175.1  11.4  34140  289.23 0855.07
2009/04/23 12:04:37.4      -3   -238     55    239    246 180.9  13.1  34138  289.20 0855.07
2009/04/23 12:04:37.5      12   -238     53    239    245 177.1  12.6  34138  289.19 0855.07
2009/04/23 12:04:37.6     -22   -213     93    215    234 186.0  25.1  34138  289.21 0855.07
2009/04/23 12:04:37.7       0   -255    121    256    283 180.1  27.1  34140  289.24 0855.07
2009/04/23 12:04:37.8     -23   -280    134    282    312 184.9  27.3  34142  289.25 0855.07
2009/04/23 12:04:37.9      10   -267    141    268    302 177.8  29.8  34140  289.24 0855.07
2009/04/23 12:04:38.0     -70   -258     83    268    281 195.2  17.3  34144  289.29 0855.07
2009/04/23 12:04:38.1     -88   -274    109    288    307 197.8  21.7  34140  289.22 0855.07
2009/04/23 12:04:38.2      90   -390     94    401    412 167.0  13.2  34138  289.21 0855.07
2009/04/23 12:04:38.3       1   -488    176    489    519 179.8  20.7  34148  289.37 0855.05
2009/04/23 12:04:38.4       6   -393    125    394    414 179.1  17.7  34144  289.31 0855.05
2009/04/23 12:04:38.5     128   -420    -17    440    441 163.0  -2.2  34140  289.22 0855.05
2009/04/23 12:04:38.6      79   -458     40    465    467 170.2   5.0  34140  289.23 0855.05
2009/04/23 12:04:38.7      42   -427     30    430    432 174.3   4.0  34142  289.27 0855.05
2009/04/23 12:04:38.8     -58   -405   -106    410    424 188.2 -14.5  34138  289.21 0855.05
2009/04/23 12:04:38.9    -157   -480    -87    506    514 198.2  -9.8  34140  289.22 0855.05
2009/04/23 12:04:39.0    -118   -576    -74    589    594 191.6  -7.2  34146  289.32 0855.05
2009/04/23 12:04:39.1    -199   -512      0    550    551 201.3   0.0  34134  289.13 0855.05
2009/04/23 12:04:39.2    -225   -448    -19    502    503 206.7  -2.2  34134  289.13 0855.05
2009/04/23 12:04:39.3    -191   -451    -30    490    491 203.0  -3.5  34134  289.13 0855.05
2009/04/23 12:04:39.4     -79   -393    -15    401    402 191.5  -2.2  34132  289.10 0855.05
2009/04/23 12:04:39.5       9   -397      1    398    399 178.6   0.2  34130  289.08 0855.05
2009/04/23 12:04:39.6      44   -408     49    411    414 173.8   6.9  34138  289.21 0855.05
2009/04/23 12:04:39.7     181   -511     99    543    552 160.5  10.4  34144  289.29 0855.05
2009/04/23 12:04:39.8     110   -574    184    585    614 169.1  17.5  34148  289.37 0855.05
2009/04/23 12:04:39.9      90   -624    115    631    642 171.8  10.4  34140  289.23 0855.05
2009/04/23 12:04:40.0      74   -638    134    643    657 173.3  11.8  34142  289.28 0855.05
2009/04/23 12:04:40.1     -12   -726    115    727    737 181.0   9.0  34144  289.30 0855.05
2009/04/23 12:04:40.2     -67   -845      0    848    849 184.6   0.0  34136  289.17 0855.05
2009/04/23 12:04:40.3     -63   -812    -37    815    816 184.5  -2.6  34142  289.28 0855.02
2009/04/23 12:04:40.4     -87   -726   -196    732    758 186.9 -15.0  34140  289.23 0855.02
2009/04/23 12:04:40.5     -69   -684    -74    688    693 185.8  -6.2  34138  289.21 0855.02
2009/04/23 12:04:40.6     -54   -693    -59    696    699 184.5  -4.9  34138  289.20 0855.02
2009/04/23 12:04:40.7     138   -683    -96    697    704 168.5  -7.9  34138  289.20 0855.02
2009/04/23 12:04:40.8     199   -893      7    916    917 167.4   0.5  34136  289.17 0855.02
2009/04/23 12:04:40.9     198   -906     74    928    932 167.6   4.6  34132  289.10 0855.02
2009/04/23 12:04:41.0     247   -834     83    870    875 163.5   5.5  34136  289.15 0855.02
2009/04/23 12:04:41.1     108   -760   -111    768    777 171.9  -8.2  34140  289.24 0855.02
2009/04/23 12:04:41.2     125   -902   -235    911    941 172.1 -14.5  34140  289.24 0855.02
2009/04/23 12:04:41.3      76   -847   -205    851    876 174.8 -13.6  34140  289.22 0855.02
2009/04/23 12:04:41.4      24   -783   -145    784    798 178.2 -10.5  34144  289.29 0855.02
2009/04/23 12:04:41.5       1   -653   -105    654    663 179.9  -9.1  34136  289.17 0855.02
2009/04/23 12:04:41.6      46   -677    -98    679    687 176.1  -8.3  34140  289.22 0855.02
2009/04/23 12:04:41.7      31   -566    -62    567    571 176.9  -6.3  34138  289.19 0855.02
2009/04/23 12:04:41.8      52   -531    -56    534    538 174.3  -6.1  34138  289.19 0855.02
2009/04/23 12:04:41.9      41   -459    -52    461    464 174.8  -6.5  34138  289.19 0855.02
2009/04/23 12:04:42.0     167   -509   -147    536    555 161.8 -20.0  34146  289.33 0855.02
2009/04/23 12:04:42.1     101   -533    -49    543    546 169.2  -5.2  34140  289.24 0855.02
2009/04/23 12:04:42.2      85   -596    -13    603    604 171.9  -1.3  34142  289.25 0855.02
2009/04/23 12:04:42.3      48   -542   -131    545    561 174.9 -13.6  34142  289.28 0855.00
2009/04/23 12:04:42.4      57   -602   -131    605    620 174.6 -12.3  34142  289.25 0855.00
2009/04/23 12:04:42.5      12   -722    -28    723    724 179.0  -2.2  34142  289.27 0855.00
2009/04/23 12:04:42.6     -52   -668      5    671    672 184.5   0.5  34144  289.31 0855.00
2009/04/23 12:04:42.7      13   -621     25    622    623 178.8   2.3  34142  289.25 0855.00
2009/04/23 12:04:42.8       9   -609     73    610    615 179.1   6.9  34144  289.29 0855.00
2009/04/23 12:04:42.9     104   -608     16    618    619 170.2   1.5  34144  289.31 0855.00
2009/04/23 12:04:43.0     175   -631    -26    655    656 164.5  -2.3  34144  289.30 0855.00
2009/04/23 12:04:43.1     206   -655     -5    687    688 162.5  -0.5  34142  289.26 0855.00
2009/04/23 12:04:43.2     111   -678    -20    688    689 170.7  -1.7  34138  289.21 0855.00
2009/04/23 12:04:43.3      95   -650      0    657    658 171.7   0.0  34138  289.21 0855.00
2009/04/23 12:04:43.4     155   -629    -18    648    649 166.1  -1.6  34138  289.20 0855.00
2009/04/23 12:04:43.5     148   -605      5    623    624 166.2   0.5  34142  289.28 0855.00
2009/04/23 12:04:43.6     211   -612    -78    648    653 161.0  -6.9  34142  289.26 0855.00
2009/04/23 12:04:43.7     163   -670   -136    690    704 166.3 -11.2  34134  289.13 0855.00
2009/04/23 12:04:43.8     134   -650     12    664    665 168.3   1.1  34132  289.09 0855.00
2009/04/23 12:04:43.9      78   -653     61    658    662 173.1   5.3  34144  289.31 0855.00
2009/04/23 12:04:44.0      85   -615    109    621    631 172.1  10.0  34142  289.25 0855.00
2009/04/23 12:04:44.1     125   -572      7    586    587 167.6   0.7  34144  289.30 0855.00
2009/04/23 12:04:44.2     140   -590    -76    607    612 166.6  -7.2  34146  289.32 0855.00
2009/04/23 12:04:44.3     121   -666    -26    677    678 169.7  -2.2  34136  289.17 0854.99
2009/04/23 12:04:44.4     132   -553     -2    569    570 166.5  -0.3  34140  289.22 0854.99
2009/04/23 12:04:44.5     264   -530    -11    593    594 153.5  -1.2  34140  289.22 0854.99
2009/04/23 12:04:44.6     164   -502      4    529    530 161.9   0.5  34142  289.26 0854.99
2009/04/23 12:04:44.7      58   -577    101    581    590 174.2   9.9  34148  289.36 0854.99
2009/04/23 12:04:44.8      40   -517     57    519    523 175.5   6.4  34144  289.29 0854.99
2009/04/23 12:04:44.9      65   -552     78    556    562 173.2   8.0  34146  289.35 0854.99
2009/04/23 12:04:45.0      20   -440     38    441    443 177.3   5.0  34144  289.29 0854.99
2009/04/23 12:04:45.1      -1   -485    103    486    497 180.2  12.0  34142  289.27 0854.99
2009/04/23 12:04:45.2      68   -419    138    425    447 170.7  18.0  34142  289.26 0854.99
2009/04/23 12:04:45.3       7   -346     41    347    350 178.8   6.9  34146  289.33 0854.99
2009/04/23 12:04:45.4      -9   -288     66    289    297 181.8  12.9  34148  289.37 0854.99
2009/04/23 12:04:45.5      25   -303    106    305    323 175.1  19.2  34144  289.31 0854.99
2009/04/23 12:04:45.6      95   -294    179    310    357 162.0  32.7  34146  289.35 0854.99
2009/04/23 12:04:45.7     -57   -328    162    334    371 189.9  27.8  34146  289.33 0854.99
2009/04/23 12:04:45.8     -48   -281    165    286    330 189.8  32.8  34148  289.37 0854.99
2009/04/23 12:04:45.9       5   -298    168    299    342 179.0  31.6  34146  289.35 0854.99
2009/04/23 12:04:46.0     -19   -355    106    356    372 183.1  16.6  34146  289.32 0854.99
2009/04/23 12:04:46.1       0   -346    128    347    369 179.9  21.0  34146  289.35 0854.99
2009/04/23 12:04:46.2     -23   -324    174    325    368 184.2  30.5  34150  289.40 0854.99
2009/04/23 12:04:46.3      26   -238    189    240    305 173.7  42.4  34144  289.31 0854.97
2009/04/23 12:04:46.4      49   -189    138    196    239 165.5  38.6  34146  289.33 0854.97
2009/04/23 12:04:46.5      97   -206     76    228    241 154.7  18.6  34148  289.37 0854.97
2009/04/23 12:04:46.6       7   -202    144    203    248 178.0  38.6  34148  289.37 0854.97
2009/04/23 12:04:46.7      14   -189    145    190    239 175.5  41.2  34144  289.31 0854.97
2009/04/23 12:04:46.8      -7   -164     72    165    180 182.7  25.1  34144  289.31 0854.97
2009/04/23 12:04:46.9      -8    -32    137     34    141 195.1  86.4  34154  289.46 0854.97
2009/04/23 12:04:47.0     -13     35    135     38    140 340.0  84.4  34160  289.57 0854.97
2009/04/23 12:04:47.1      52     92    197    106    223  29.4  69.3  34160  289.58 0854.97
2009/04/23 12:04:47.2     125     81    176    150    231  57.1  55.4  34156  289.52 0854.97
2009/04/23 12:04:47.3     192    120    175    227    286  58.0  41.6  34196  290.17 0854.97
2009/04/23 12:04:47.4     278    153     72    318    327  61.2  12.8  34162  289.61 0854.97
2009/04/23 12:04:47.5     256     98     43    275    279  68.9   9.0  34160  289.58 0854.97
2009/04/23 12:04:47.6     308    152     94    344    357  63.6  15.3  34212  290.45 0854.97
2009/04/23 12:04:47.7     177    146    161    230    280  50.5  38.4  34194  290.14 0854.97
2009/04/23 12:04:47.8     -86    -70    111    111    156 230.9  50.1  34182  289.96 0854.97
2009/04/23 12:04:47.9    -209   -225     99    308    324 222.8  17.9  34158  289.53 0854.97
2009/04/23 12:04:48.0    -174   -287     13    336    337 211.3   2.2  34152  289.45 0854.97
2009/04/23 12:04:48.1    -128   -123     38    178    183 226.2  12.2  34154  289.48 0854.97
2009/04/23 12:04:48.2     -98   -171    120    198    231 209.9  34.4  34150  289.41 0854.97
2009/04/23 12:04:48.3     -33    -88     82     95    125 200.9  45.8  34158  289.53 0854.94
2009/04/23 12:04:48.4     -60    -93     38    111    118 213.0  19.2  34158  289.55 0854.94
2009/04/23 12:04:48.5      84    -31      6     90     91 110.4   3.8  34160  289.58 0854.94
2009/04/23 12:04:48.6      88    -39     47     97    107 114.0  27.3  34164  289.63 0854.94
2009/04/23 12:04:48.7     -42   -161    128    167    210 194.9  41.6  34156  289.52 0854.94
2009/04/23 12:04:48.8    -155   -145    -26    213    215 226.9  -7.2  34152  289.45 0854.94
2009/04/23 12:04:48.9    -146   -188    -28    239    241 217.9  -6.7  34154  289.46 0854.94
2009/04/23 12:04:49.0    -112   -138    -58    178    187 219.0 -23.6  34154  289.48 0854.94
2009/04/23 12:04:49.1      -2     18    -14     19     23 352.0 -46.1  34156  289.50 0854.94
2009/04/23 12:04:49.2     106     61     90    123    152  59.8  39.7  34160  289.58 0854.94
2009/04/23 12:04:49.3     142      6    108    143    179  87.4  40.7  34162  289.60 0854.94
2009/04/23 12:04:49.4      33     43    159     55    168  37.0  80.5  34200  290.26 0854.94
2009/04/23 12:04:49.5      -4      7    106      9    106 327.5  90.0  34190  290.09 0854.94
2009/04/23 12:04:49.6     -38     38    106     55    119 315.0  70.8  34198  290.23 0854.94
2009/04/23 12:04:49.7    -119    -68     48    138    147 240.2  19.4  34194  290.16 0854.94
2009/04/23 12:04:49.8     -96   -131     75    163    179 216.1  26.6  34196  290.19 0854.94
2009/04/23 12:04:49.9    -152    -71    106    168    198 244.8  35.5  34198  290.23 0854.94
2009/04/23 12:04:50.0    -194   -113     48    225    231 239.6  12.2  34190  290.08 0854.94
2009/04/23 12:04:50.1    -137    -96     -5    168    169 234.9  -1.8  34162  289.60 0854.94
2009/04/23 12:04:50.2    -163    -87     84    186    204 241.8  25.9  34190  290.08 0854.94
2009/04/23 12:04:50.3    -194    -68    115    206    235 250.5  31.4  34196  290.18 0854.93
2009/04/23 12:04:50.4    -215    -24     98    217    238 263.4  25.9  34200  290.25 0854.93
2009/04/23 12:04:50.5    -201   -113    118    231    259 240.7  29.2  34192  290.10 0854.93
2009/04/23 12:04:50.6    -153   -181    181    238    299 220.3  41.2  34182  289.93 0854.93
2009/04/23 12:04:50.7    -152   -162    139    223    262 223.2  35.2  34198  290.22 0854.93
2009/04/23 12:04:50.8    -165    -89    107    188    216 241.6  31.9  34188  290.04 0854.93
2009/04/23 12:04:50.9    -124   -108    160    165    229 228.9  49.4  34176  289.84 0854.93
2009/04/23 12:04:51.0     -98   -104     73    144    161 223.2  28.7  34182  289.94 0854.93
2009/04/23 12:04:51.1    -162    -72    104    178    206 246.0  33.1  34188  290.04 0854.93
2009/04/23 12:04:51.2    -269    -28    239    271    361 263.9  45.9  34184  289.99 0854.93
2009/04/23 12:04:51.3    -222   -136    202    261    330 238.5  41.7  34180  289.90 0854.93
2009/04/23 12:04:51.4    -149   -219    198    266    331 214.3  40.4  34176  289.83 0854.93
2009/04/23 12:04:51.5    -154   -128    141    201    245 230.2  38.6  34184  289.97 0854.93
2009/04/23 12:04:51.6    -207   -146    212    254    330 234.9  44.2  34170  289.73 0854.93
2009/04/23 12:04:51.7    -226   -205    131    306    332 227.8  24.5  34166  289.68 0854.93
2009/04/23 12:04:51.8    -213   -217     16    305    306 224.5   3.1  34170  289.75 0854.93
2009/04/23 12:04:51.9    -231   -198      4    305    306 229.5   0.8  34190  290.07 0854.93
2009/04/23 12:04:52.0    -265   -129     62    295    302 244.0  12.0  34204  290.32 0854.93
2009/04/23 12:04:52.1    -251   -147    -75    292    302 239.6 -14.5  34190  290.07 0854.93
2009/04/23 12:04:52.2    -325    -73    -46    334    338 257.3  -7.9  34212  290.47 0854.93
2009/04/23 12:04:52.3    -289    -25    -53    291    296 265.0 -10.5  34208  290.39 0854.93
2009/04/23 12:04:52.5    -257    -45    -78    262    273 259.9 -21.7  34206  290.34 0854.93
2009/04/23 12:04:52.6    -179    -24    -50    181    188 262.1 -15.5  34184  289.99 0854.93
2009/04/23 12:04:52.7    -237    -34    -63    240    249 261.6 -14.7  34206  290.34 0854.93
2009/04/23 12:04:52.8    -262      3    -67    263    272 270.8 -14.3  34208  290.37 0854.93
2009/04/23 12:04:52.9    -253     -4   -116    254    279 269.0 -30.6  34222  290.61 0854.93
2009/04/23 12:04:53.0    -246    -30    -75    248    260 263.0 -17.0  34204  290.31 0854.93
2009/04/23 12:04:53.1    -245    -17   -109    246    269 265.9 -30.1  34212  290.46 0854.93
2009/04/23 12:04:53.2    -218     25    -65    220    229 276.6 -21.5  34196  290.18 0854.93
2009/04/23 12:04:53.3    -184      0    -23    185    187 270.0  -7.3  34196  290.19 0854.93
2009/04/23 12:04:53.4    -143     18     65    145    158 277.5  25.9  34204  290.31 0854.93
2009/04/23 12:04:53.5     -98     12     30     99    104 277.5  17.3  34202  290.28 0854.93
2009/04/23 12:04:53.6     -85    -28    -17     90     92 251.4 -10.9  34202  290.30 0854.93
2009/04/23 12:04:53.7    -159   -158    -46    225    230 225.3 -11.6  34182  289.96 0854.93
2009/04/23 12:04:53.8    -136   -127    -15    187    188 226.9  -4.9  34186  290.01 0854.93
2009/04/23 12:04:53.9     -68   -143    -29    159    162 205.4 -10.5  34190  290.09 0854.93
2009/04/23 12:04:54.0     -27   -190     23    192    194 188.1   6.9  34184  289.99 0854.93
2009/04/23 12:04:54.1     -47   -161     62    168    179 196.5  21.3  34180  289.92 0854.93
2009/04/23 12:04:54.2    -112   -165    112    200    229 214.3  31.4  34194  290.16 0854.93
2009/04/23 12:04:54.3    -107   -134     74    172    187 218.5  24.9  34198  290.23 0854.93
2009/04/23 12:04:54.4    -127   -137     47    187    193 222.8  14.3  34196  290.19 0854.93
2009/04/23 12:04:54.5    -253     18   -126    254    283 274.3 -32.6  34176  289.85 0854.93
2009/04/23 12:04:54.6    -140   -125    -32    189    192 228.2  -9.6  34196  290.19 0854.93
2009/04/23 12:04:54.7     -96    -73    -19    121    123 232.7  -9.3  34202  290.28 0854.93
2009/04/23 12:04:54.8    -141   -114    -52    182    190 231.1 -16.0  34198  290.21 0854.93
2009/04/23 12:04:54.9    -175    -69     29    189    192 248.3   8.8  34204  290.33 0854.93
2009/04/23 12:04:55.0    -169    -80     38    188    192 244.7  11.4  34210  290.41 0854.93
2009/04/23 12:04:55.1    -192   -126     51    230    236 236.7  12.6  34222  290.63 0854.93
2009/04/23 12:04:55.2    -179   -149     19    233    234 230.2   4.9  34220  290.58 0854.93
2009/04/23 12:04:55.3    -185    -63     68    196    208 251.2  19.2  34232  290.79 0854.93
2009/04/23 12:04:55.4    -124    -64     49    140    149 242.5  19.4  34230  290.77 0854.93
2009/04/23 12:04:55.5     -91    -75     44    119    126 230.5  20.9  34226  290.70 0854.93
2009/04/23 12:04:55.6    -100    -95     19    139    141 226.4   8.0  34220  290.58 0854.93
2009/04/23 12:04:55.7     -17   -130    -17    132    134 187.6  -7.3  34202  290.30 0854.93
2009/04/23 12:04:55.8      -9   -115    -23    116    119 184.5 -11.3  34188  290.04 0854.93
2009/04/23 12:04:55.9     -29   -136      7    140    141 192.0   2.9  34172  289.79 0854.93
2009/04/23 12:04:56.0     -25   -173     23    175    177 188.5   7.5  34172  289.77 0854.93
2009/04/23 12:04:56.1     -28   -200      6    203    204 188.1   1.8  34172  289.79 0854.93
2009/04/23 12:04:56.2     -31   -191      9    194    195 189.3   2.9  34176  289.85 0854.93
2009/04/23 12:04:56.3     -51   -191     10    198    199 195.1   3.1  34184  289.99 0854.93
2009/04/23 12:04:56.4     -29   -186     18    189    190 189.1   5.7  34174  289.82 0854.94
2009/04/23 12:04:56.5     -34   -248     15    251    252 188.0   3.6  34176  289.85 0854.94
2009/04/23 12:04:56.6     -49   -157     24    165    167 197.4   8.5  34178  289.87 0854.94
2009/04/23 12:04:56.7     -82   -173     28    192    195 205.6   8.5  34178  289.87 0854.94
2009/04/23 12:04:56.8     -61   -151     -2    164    165 202.1  -0.7  34178  289.87 0854.94
2009/04/23 12:04:56.9       8   -200    -15    201    202 177.5  -4.4  34182  289.94 0854.94
2009/04/23 12:04:57.0      59   -278     29    285    287 168.0   5.9  34168  289.71 0854.94
2009/04/23 12:04:57.1      16   -260     -7    261    262 176.4  -1.6  34172  289.76 0854.94
2009/04/23 12:04:57.2     -54   -199    -35    207    210 195.2  -9.6  34174  289.80 0854.94
2009/04/23 12:04:57.3     -39   -220    -49    224    230 190.2 -12.4  34172  289.79 0854.94
2009/04/23 12:04:57.4     -41   -241    -35    245    248 189.8  -8.2  34170  289.73 0854.94
2009/04/23 12:04:57.5     -44   -228     -4    233    234 191.1  -1.2  34170  289.75 0854.94
2009/04/23 12:04:57.6     -40   -229    -12    233    234 190.0  -3.2  34170  289.75 0854.94
2009/04/23 12:04:57.7       2   -217     56    218    226 179.3  14.5  34170  289.74 0854.94
2009/04/23 12:04:57.8       0   -291     31    292    294 180.0   6.1  34170  289.75 0854.94
2009/04/23 12:04:57.9       3   -270      5    271    272 179.3   1.2  34172  289.78 0854.94
2009/04/23 12:04:58.0      47   -299      6    303    304 170.9   1.2  34172  289.78 0854.94
2009/04/23 12:04:58.1      45   -236      4    241    242 169.1   1.0  34176  289.83 0854.94
2009/04/23 12:04:58.2     -49   -157    -54    165    173 197.4 -23.6  34176  289.84 0854.94
2009/04/23 12:04:58.3     -51    -80    -89     96    130 212.6 -52.3  34182  289.94 0854.94
2009/04/23 12:04:58.4     -62   -114    -89    130    157 208.5 -42.2  34180  289.92 0854.96
2009/04/23 12:04:58.5     -17   -176    -66    177    188 185.6 -25.7  34186  290.01 0854.96
2009/04/23 12:04:58.6     -21   -125   -115    127    171 189.7 -51.3  34182  289.96 0854.96
2009/04/23 12:04:58.7    -102   -127   -104    164    194 218.7 -39.9  34196  290.18 0854.96
2009/04/23 12:04:58.8     -76   -148    -93    167    191 207.2 -35.8  34194  290.16 0854.96
2009/04/23 12:04:58.9     -77   -213    -29    227    229 200.0  -7.3  34184  289.99 0854.96
2009/04/23 12:04:59.0      -4   -281    -84    282    295 181.0 -16.6  34192  290.10 0854.96
2009/04/23 12:04:59.1     -35   -287    -51    290    295 187.1 -10.1  34188  290.05 0854.96
2009/04/23 12:04:59.2     -98   -244    -33    264    267 201.9  -7.2  34170  289.73 0854.96
2009/04/23 12:04:59.3    -105   -317     41    335    338 198.4   7.1  34174  289.82 0854.96
2009/04/23 12:04:59.4     -65   -363      0    369    370 190.2   0.0  34178  289.87 0854.97
2009/04/23 12:04:59.5     -51   -381     14    385    386 187.7   2.1  34178  289.86 0854.97
2009/04/23 12:04:59.6     -38   -372     72    374    381 185.9  11.0  34174  289.82 0854.97
2009/04/23 12:04:59.7     -50   -353    107    357    373 188.1  16.7  34172  289.79 0854.97
2009/04/23 12:04:59.8     -87   -341    131    353    376 194.4  21.4  34168  289.71 0854.97
2009/04/23 12:04:59.9     -38   -339    136    342    368 186.5  22.9  34172  289.76 0854.97
2009/04/23 12:05:00.0     -23   -296    166    297    340 184.5  31.6  34174  289.81 0854.97
2009/04/23 12:05:00.1     -47   -326    120    330    351 188.2  20.9  34172  289.79 0854.97
2009/04/23 12:05:00.2      24   -273     25    275    277 174.9   5.2  34176  289.85 0854.97
2009/04/23 12:05:00.3    -122   -231     15    262    263 207.9   3.3  34176  289.83 0854.97
2009/04/23 12:05:00.4    -127   -268      0    297    298 205.5   0.0  34174  289.81 0854.97
2009/04/23 12:05:00.5    -154   -281      6    321    322 208.7   1.1  34172  289.76 0854.97
2009/04/23 12:05:00.6    -138   -186     50    232    238 216.5  12.2  34174  289.81 0854.97
2009/04/23 12:05:00.7     -43   -113     53    122    133 200.9  25.1  34172  289.77 0854.97
2009/04/23 12:05:00.8     -89   -168    158    191    247 207.9  43.7  34174  289.80 0854.97
2009/04/23 12:05:00.9    -165   -193     49    255    260 220.6  11.0  34170  289.73 0854.97
2009/04/23 12:05:01.0     -43   -336     -7    339    340 187.3  -1.3  34166  289.69 0854.97
2009/04/23 12:05:01.1    -140   -281     41    314    317 206.5   7.5  34170  289.75 0854.97
2009/04/23 12:05:01.2     -70   -194     98    207    229 200.0  27.2  34168  289.70 0854.97
2009/04/23 12:05:01.3     -55   -234    103    241    262 193.4  24.3  34170  289.75 0854.97
2009/04/23 12:05:01.4     -29   -316    126    318    342 185.3  22.9  34172  289.76 0854.98
2009/04/23 12:05:01.5     -87   -395    146    405    431 192.5  19.9  34168  289.70 0854.98
2009/04/23 12:05:01.6     -93   -393     82    405    414 193.4  11.6  34172  289.78 0854.98
2009/04/23 12:05:01.7     -18   -390    102    391    405 182.7  14.6  34172  289.77 0854.98
2009/04/23 12:05:01.8     -32   -359     50    361    365 185.2   7.9  34176  289.84 0854.98
2009/04/23 12:05:01.9     -64   -337     83    344    354 190.9  13.7  34178  289.86 0854.98
2009/04/23 12:05:02.0     -11   -370     66    371    377 181.8  10.1  34174  289.82 0854.98
2009/04/23 12:05:02.1       1   -347    -23    348    349 179.8  -3.9  34172  289.76 0854.98
2009/04/23 12:05:02.2      -6   -345    -18    346    347 181.2  -3.1  34172  289.77 0854.98
2009/04/23 12:05:02.3     -10   -305     20    306    307 182.0   3.8  34172  289.76 0854.98
2009/04/23 12:05:02.4     -17   -293     20    294    295 183.5   3.9  34172  289.76 0854.98
2009/04/23 12:05:02.5       8   -259      7    260    261 178.2   1.7  34172  289.78 0854.98
2009/04/23 12:05:02.6    -105   -285    -28    304    306 200.3  -5.4  34170  289.75 0854.98
2009/04/23 12:05:02.7    -135   -282     23    313    314 205.6   4.4  34172  289.78 0854.98
2009/04/23 12:05:02.8    -118   -295     -2    318    319 201.9  -0.4  34166  289.66 0854.98
2009/04/23 12:05:02.9    -151   -246     85    289    302 211.6  16.5  34174  289.81 0854.98
2009/04/23 12:05:03.0    -121   -283     48    308    312 203.2   8.9  34172  289.78 0854.98
2009/04/23 12:05:03.1     -84   -280     57    293    299 196.7  11.1  34172  289.76 0854.98
2009/04/23 12:05:03.2     -64   -338    100    345    360 190.7  16.1  34172  289.76 0854.98
2009/04/23 12:05:03.3     -50   -328    162    332    369 188.8  27.9  34170  289.74 0854.98
2009/04/23 12:05:03.4     -18   -225    102    226    247 184.7  26.2  34172  289.78 0855.00
2009/04/23 12:05:03.5     -71   -232    113    243    267 197.2  27.1  34176  289.83 0855.00
2009/04/23 12:05:03.6    -146   -229     79    272    284 212.6  16.3  34170  289.73 0855.00
2009/04/23 12:05:03.7    -232   -198     51    306    311 229.5   9.5  34174  289.80 0855.00
2009/04/23 12:05:03.8    -162   -205    103    262    281 218.3  22.5  34176  289.83 0855.00
2009/04/23 12:05:03.9     -83   -281    128    294    320 196.5  25.0  34174  289.81 0855.00
2009/04/23 12:05:04.0     -63   -309    143    316    346 191.6  26.0  34176  289.84 0855.00
2009/04/23 12:05:04.1     -67   -330    140    337    364 191.6  23.9  34172  289.79 0855.00
2009/04/23 12:05:04.2     -88   -242    208    258    331 200.0  43.1  34176  289.85 0855.00
2009/04/23 12:05:04.3      -1   -117    196    118    228 180.9  66.2  34172  289.77 0855.00
2009/04/23 12:05:04.4     -16    -49    125     52    135 198.3  76.6  34180  289.91 0855.00
2009/04/23 12:05:04.5      47    -76    148     90    173 148.4  65.4  34174  289.82 0855.00
2009/04/23 12:05:04.6      19   -140    169    142    220 172.0  56.1  34174  289.80 0855.00
2009/04/23 12:05:04.7       0    -97    180     98    204 179.5  68.9  34172  289.79 0855.00
2009/04/23 12:05:04.8      39   -103    167    111    200 159.1  63.2  34174  289.80 0855.00
2009/04/23 12:05:04.9     -14    -89    170     91    192 188.9  69.6  34178  289.89 0855.00
2009/04/23 12:05:05.0    -147   -166    250    222    334 221.5  53.9  34188  290.03 0855.00
2009/04/23 12:05:05.1    -256   -187    113    318    337 233.8  20.2  34188  290.04 0855.00
2009/04/23 12:05:05.2    -111   -162    230    197    302 214.5  55.4  34190  290.09 0855.00
2009/04/23 12:05:05.3    -155   -126    183    201    271 230.9  47.1  34196  290.19 0855.00
2009/04/23 12:05:05.4     -81   -250    172    263    314 198.0  36.3  34176  289.85 0855.01
2009/04/23 12:05:05.5     -69   -207    150    219    265 198.5  37.8  34180  289.90 0855.01
2009/04/23 12:05:05.6      14   -204    135    205    245 176.0  36.5  34174  289.81 0855.01
2009/04/23 12:05:05.7     -66   -200    124    211    244 198.3  33.4  34178  289.86 0855.01
2009/04/23 12:05:05.8     -38   -196     98    200    222 191.1  28.0  34176  289.84 0855.01
2009/04/23 12:05:05.9      -2   -167    117    168    204 180.9  38.0  34174  289.80 0855.01
2009/04/23 12:05:06.0     -33   -124    127    129    181 195.2  49.8  34176  289.85 0855.01
2009/04/23 12:05:06.1     -81   -128    119    152    193 212.5  42.2  34174  289.82 0855.01
2009/04/23 12:05:06.2     -59   -108     79    124    147 208.5  35.5  34174  289.80 0855.01
2009/04/23 12:05:06.3     -34    -94     35    101    108 200.0  19.4  34174  289.82 0855.01
2009/04/23 12:05:06.4      27   -103     46    107    116 165.3  24.6  34174  289.80 0855.01
2009/04/23 12:05:06.5     121      5    131    122    179  87.4  52.2  34178  289.89 0855.01
2009/04/23 12:05:06.6      30      6     71     31     77  78.5  75.0  34182  289.94 0855.01
2009/04/23 12:05:06.7       4     43    103     44    112   5.3  76.1  34186  290.01 0855.01
2009/04/23 12:05:06.8     -34     27     81     44     92 308.6  69.3  34184  289.99 0855.01
2009/04/23 12:05:06.9     -22    -40     98     46    108 209.0  73.1  34188  290.04 0855.01
2009/04/23 12:05:07.0     -27    -37     88     47     99 216.1  69.3  34182  289.96 0855.01
2009/04/23 12:05:07.1      57    -61    106     84    135 136.8  57.5  34186  290.01 0855.01
2009/04/23 12:05:07.2     -19    -94    138     96    168 191.5  61.8  34182  289.96 0855.01
2009/04/23 12:05:07.3       0    -35    103     36    109 180.9  81.2  34186  290.02 0855.01
2009/04/23 12:05:07.4      11    -43    113     45    121 165.7  77.1  34182  289.94 0855.01
2009/04/23 12:05:07.5      -1    -22    113     23    115 182.7  89.0  34186  290.01 0855.01
2009/04/23 12:05:07.6     -10    -67     92     68    114 188.9  60.5  34182  289.96 0855.01
2009/04/23 12:05:07.7       9    -83    105     84    134 173.8  56.9  34180  289.92 0855.01
2009/04/23 12:05:07.8      25   -102     96    106    143 166.2  47.9  34180  289.91 0855.01
2009/04/23 12:05:07.9      60    -91     77    110    134 146.6  38.0  34178  289.89 0855.01
2009/04/23 12:05:08.0      36   -107     80    114    139 161.3  39.1  34176  289.85 0855.01
2009/04/23 12:05:08.1      47    -64     70     80    106 143.9  46.4  34176  289.85 0855.01
2009/04/23 12:05:08.2      51    -61     85     80    116 140.4  51.6  34176  289.84 0855.01
2009/04/23 12:05:08.3      -1    -62     85     63    105 181.8  60.0  34178  289.89 0855.01
2009/04/23 12:05:08.4      -2   -152     48    153    161 181.0  17.7  34176  289.85 0855.01
2009/04/23 12:05:08.5      -3   -214     58    215    223 181.0  15.2  34178  289.87 0855.01
2009/04/23 12:05:08.6     -36   -118     87    124    151 197.0  38.6  34172  289.77 0855.01
2009/04/23 12:05:08.7      -2    -79    102     80    129 181.8  57.9  34178  289.87 0855.01
2009/04/23 12:05:08.8      66    -10     91     67    113  98.8  60.0  34182  289.94 0855.01
2009/04/23 12:05:08.9     113    -37    138    119    182 108.2  54.8  34176  289.85 0855.01
2009/04/23 12:05:09.0      90    -74    126    117    171 129.6  52.2  34176  289.85 0855.01
2009/04/23 12:05:09.1      75    -28     83     81    115 110.8  50.1  34176  289.84 0855.01
2009/04/23 12:05:09.2      67    -20    144     70    160 106.8  72.1  34174  289.82 0855.01
2009/04/23 12:05:09.3      10     35     85     37     92  16.9  75.0  34178  289.89 0855.01
2009/04/23 12:05:09.4     -60     21     29     64     70 290.0  27.1  34182  289.96 0855.01
2009/04/23 12:05:09.5     -52     14     18     54     57 285.1  18.4  34182  289.96 0855.01
2009/04/23 12:05:09.6     -93    -34     27    100    104 249.6  15.3  34178  289.89 0855.01
2009/04/23 12:05:09.7     -82    -82     23    117    120 225.1  11.1  34180  289.91 0855.01
2009/04/23 12:05:09.8     -79    -33     28     86     91 247.4  18.4  34184  289.97 0855.01
2009/04/23 12:05:09.9     -89    -64     40    110    117 234.0  20.9  34188  290.04 0855.01
2009/04/23 12:05:10.0     -72   -105     26    128    131 214.3  11.6  34186  290.02 0855.01
2009/04/23 12:05:10.1     -57    -68     -3     89     90 220.1  -2.2  34190  290.09 0855.01
2009/04/23 12:05:10.2     -49    -67     18     84     86 216.5  12.2  34188  290.06 0855.01
2009/04/23 12:05:10.3     -17    -38     30     42     51 204.5  39.7  34182  289.96 0855.01
2009/04/23 12:05:10.4      34    -60     11     70     71 150.1   9.0  34178  289.89 0855.01
2009/04/23 12:05:10.5       7    -89    -19     90     93 175.5 -12.4  34178  289.89 0855.01
2009/04/23 12:05:10.6      -5    -81     -3     82     83 183.6  -2.6  34178  289.87 0855.01
2009/04/23 12:05:10.7      -3    -93      4     94     95 182.2   2.9  34172  289.79 0855.01
2009/04/23 12:05:10.8      28    -87     -3     92     93 161.7  -2.2  34172  289.77 0855.01
2009/04/23 12:05:10.9      23    -95     -7     98     99 166.2  -4.1  34172  289.79 0855.01
2009/04/23 12:05:11.0      29    -60     23     67     72 153.7  19.4  34172  289.77 0855.01
2009/04/23 12:05:11.1      21    -64     36     68     76 161.7  30.3  34172  289.77 0855.01
2009/04/23 12:05:11.2      22    -59     26     64     69 159.1  23.0  34174  289.80 0855.01
2009/04/23 12:05:11.3      26    -63      3     69     70 157.3   2.9  34174  289.80 0855.01
2009/04/23 12:05:11.4      29    -75     -7     81     82 158.6  -5.2  34174  289.82 0855.01
2009/04/23 12:05:11.5      35    -98    -21    105    108 160.0 -11.3  34174  289.80 0855.01
2009/04/23 12:05:11.6      33    -99    -48    105    115 161.3 -31.0  34170  289.74 0855.01
2009/04/23 12:05:11.7       7    -67    -20     68     70 173.8 -21.7  34172  289.77 0855.01
2009/04/23 12:05:11.8      29    -65     14     72     74 155.5  11.0  34168  289.72 0855.01
2009/04/23 12:05:11.9      14    -74      7     76     77 169.3   5.9  34170  289.74 0855.01
2009/04/23 12:05:12.0     -21   -105     29    108    113 191.6  15.3  34172  289.77 0855.01
2009/04/23 12:05:12.1       2   -116     23    117    120 178.6  11.1  34172  289.79 0855.01
2009/04/23 12:05:12.2     -16   -118     10    120    121 188.0   5.0  34172  289.77 0855.01
2009/04/23 12:05:12.3     -22   -111     14    114    115 191.5   7.5  34174  289.80 0855.01
2009/04/23 12:05:12.4      -7    -93     16     94     96 184.9  10.1  34174  289.80 0855.01
2009/04/23 12:05:12.5       1   -116     -9    117    118 179.1  -4.6  34172  289.77 0855.01
2009/04/23 12:05:12.6      35   -132    -81    137    159 164.9 -37.9  34166  289.69 0855.01
2009/04/23 12:05:12.7      59   -134    -98    147    176 156.3 -41.1  34168  289.72 0855.01
2009/04/23 12:05:12.8     108   -138    -73    176    190 141.9 -28.0  34166  289.67 0855.01
2009/04/23 12:05:12.9     108   -137    -31    175    178 141.7 -10.3  34168  289.72 0855.01
2009/04/23 12:05:13.0     148   -153     -8    214    215 135.9  -2.2  34166  289.69 0855.01
2009/04/23 12:05:13.1     151   -151     27    214    216 135.0   7.2  34170  289.74 0855.01
2009/04/23 12:05:13.2     138   -161     24    213    215 139.5   6.5  34168  289.70 0855.01
2009/04/23 12:05:13.3      32   -179      3    182    183 169.8   1.0  34168  289.72 0855.01
2009/04/23 12:05:13.4      45   -204      0    209    210 167.5   0.2  34170  289.74 0854.99
2009/04/23 12:05:13.5     126   -221    -11    255    256 150.4  -2.6  34172  289.76 0854.99
2009/04/23 12:05:13.6     105   -262      4    283    284 158.1   0.8  34170  289.73 0854.99
2009/04/23 12:05:13.7     116   -255     50    281    286 155.5  10.1  34172  289.78 0854.99
2009/04/23 12:05:13.8     126   -268     82    297    309 154.7  15.6  34172  289.78 0854.99
2009/04/23 12:05:13.9     163   -307     35    348    350 152.0   5.8  34174  289.82 0854.99
2009/04/23 12:05:14.0     135   -287    -12    318    319 154.7  -2.2  34176  289.85 0854.99
2009/04/23 12:05:14.1     110   -260    -25    283    285 157.1  -5.2  34174  289.81 0854.99
2009/04/23 12:05:14.2      55   -274     29    280    282 168.7   6.1  34174  289.81 0854.99
2009/04/23 12:05:14.3      73   -306     52    315    320 166.6   9.5  34174  289.81 0854.99
2009/04/23 12:05:14.4      44   -256     68    260    269 170.2  14.7  34172  289.78 0854.99
2009/04/23 12:05:14.5      46   -260     72    265    275 170.0  15.3  34178  289.88 0854.99
2009/04/23 12:05:14.6      52   -257     90    263    279 168.4  18.9  34176  289.85 0854.99
2009/04/23 12:05:14.7      68   -253    113    263    286 164.9  25.1  34176  289.83 0854.99
2009/04/23 12:05:14.8      87   -276     83    290    302 162.4  16.0  34176  289.83 0854.99
2009/04/23 12:05:14.9      41   -297     25    301    303 172.0   4.9  34176  289.83 0854.99
2009/04/23 12:05:15.0     -38   -260     31    263    265 188.5   6.9  34176  289.85 0854.99
2009/04/23 12:05:15.1      -9   -322     70    323    331 181.7  12.3  34174  289.80 0854.99
2009/04/23 12:05:15.2      24   -335     75    336    345 175.9  12.6  34178  289.86 0854.99
2009/04/23 12:05:15.3      81   -301     42    312    315 164.8   7.8  34176  289.85 0854.99
2009/04/23 12:05:15.4      56   -312    -12    318    319 169.8  -2.2  34178  289.88 0854.98
2009/04/23 12:05:15.5      -7   -329    128    330    353 181.4  22.4  34178  289.89 0854.98
2009/04/23 12:05:15.6      20   -345     39    346    349 176.6   6.5  34182  289.94 0854.98
2009/04/23 12:05:15.7    -118   -381      1    400    401 197.3   0.2  34198  290.21 0854.98
2009/04/23 12:05:15.8     -70   -409     21    416    417 189.8   2.9  34180  289.92 0854.98
2009/04/23 12:05:15.9     -59   -408     37    413    415 188.2   5.2  34184  289.97 0854.98
2009/04/23 12:05:16.0      38   -355    109    358    375 173.8  17.0  34180  289.91 0854.98
2009/04/23 12:05:16.1       0   -354     80    355    365 180.0  12.8  34178  289.87 0854.98
2009/04/23 12:05:16.2      32   -300     97    302    318 173.8  17.8  34178  289.88 0854.98
2009/04/23 12:05:16.3      95   -218     42    238    242 156.4  10.1  34176  289.85 0854.98
2009/04/23 12:05:16.5     180   -174     68    251    261 134.0  15.3  34176  289.85 0854.98
2009/04/23 12:05:16.5     111   -264      1    287    288 157.1   0.2  34178  289.86 0854.98
2009/04/23 12:05:16.6     -48   -280      8    285    286 189.8   1.7  34172  289.78 0854.98
2009/04/23 12:05:16.7     -40   -307    -51    310    315 187.6  -9.5  34176  289.85 0854.98
2009/04/23 12:05:16.9      41   -396    -52    399    403 174.1  -7.5  34182  289.93 0854.98
2009/04/23 12:05:16.9      49   -407    -59    411    416 173.0  -8.2  34182  289.94 0854.98
2009/04/23 12:05:17.0      94   -402    -53    413    417 166.8  -7.3  34182  289.94 0854.98
2009/04/23 12:05:17.1      45   -321    -31    325    327 171.9  -5.5  34178  289.86 0854.98
2009/04/23 12:05:17.2     183   -279     25    334    335 146.7   4.3  34168  289.72 0854.98
2009/04/23 12:05:17.3      51   -273    -83    278    291 169.4 -16.6  34168  289.71 0854.98
2009/04/23 12:05:17.4      91   -343    -31    355    357 165.1  -5.1  34174  289.81 0854.99
2009/04/23 12:05:17.5     105   -440      2    453    454 166.6   0.4  34176  289.83 0854.99
2009/04/23 12:05:17.6      93   -455    108    465    478 168.4  13.1  34176  289.84 0854.99
2009/04/23 12:05:17.7     165   -436     91    467    477 159.2  11.1  34172  289.76 0854.99
2009/04/23 12:05:17.8     121   -546     63    560    564 167.5   6.5  34168  289.72 0854.99
2009/04/23 12:05:17.9     269   -629    134    685    699 156.8  11.1  34164  289.65 0854.99
2009/04/23 12:05:18.0     277   -562    183    627    654 153.7  16.3  34158  289.55 0854.99
2009/04/23 12:05:18.1     187   -672    150    698    715 164.4  12.1  34152  289.45 0854.99
2009/04/23 12:05:18.2     140   -471    342    492    599 163.4  38.3  34156  289.51 0854.99
2009/04/23 12:05:18.3     267   -381    315    466    562 144.9  37.3  34164  289.63 0854.99
2009/04/23 12:05:18.4     163   -521     71    547    552 162.6   7.4  34158  289.55 0854.99
2009/04/23 12:05:18.5     198   -508    216    546    587 158.7  23.0  34156  289.51 0854.99
2009/04/23 12:05:18.6     196   -525     37    561    563 159.5   3.8  34154  289.48 0854.99
2009/04/23 12:05:18.7     250   -575     65    627    631 156.5   6.0  34156  289.50 0854.99
2009/04/23 12:05:18.8     215   -456    118    505    519 154.8  13.2  34156  289.52 0854.99
2009/04/23 12:05:18.9     292   -421     -2    513    514 145.3  -0.3  34154  289.47 0854.99
2009/04/23 12:05:19.0     153   -533     65    555    559 164.0   6.7  34154  289.46 0854.99
2009/04/23 12:05:19.2     176   -421     59    457    461 157.3   7.4  34154  289.48 0854.99
2009/04/23 12:05:19.3     147   -311     60    345    351 154.7   9.9  34150  289.40 0854.99
2009/04/23 12:05:19.4     119   -297    130    321    346 158.2  23.2  34160  289.57 0854.99
2009/04/23 12:05:19.5     132   -442    114    462    476 163.3  13.9  34156  289.49 0855.00
2009/04/23 12:05:19.6     167   -349    195    388    434 154.4  28.7  34156  289.51 0855.00
2009/04/23 12:05:19.7     341   -220    110    407    422 122.9  15.2  34160  289.56 0855.00
2009/04/23 12:05:19.8     333   -309     89    455    464 132.9  11.1  34154  289.48 0855.00
2009/04/23 12:05:19.9     319   -320    -27    453    454 135.1  -3.5  34154  289.48 0855.00
2009/04/23 12:05:20.0     131   -410    149    431    457 162.2  19.1  34154  289.48 0855.00
2009/04/23 12:05:20.1     150   -260    -61    301    308 150.1 -11.6  34156  289.51 0855.00
2009/04/23 12:05:20.2      97   -153     23    182    184 147.5   7.2  34154  289.48 0855.00
2009/04/23 12:05:20.3      36   -259    118    262    287 172.0  25.9  34152  289.42 0855.00
2009/04/23 12:05:20.4     -17   -282     90    283    297 183.5  17.7  34160  289.56 0855.00
2009/04/23 12:05:20.5     133   -216    133    254    286 148.4  29.8  34142  289.27 0855.01
2009/04/23 12:05:20.6      24   -345    197    346    398 175.9  32.3  34152  289.43 0855.01
2009/04/23 12:05:20.7     -15   -313    241    314    395 182.9  41.4  34156  289.52 0855.01
2009/04/23 12:05:20.8     -66   -324    287    331    438 191.7  45.5  34154  289.48 0855.01
2009/04/23 12:05:20.9     -58   -342    184    347    392 189.7  30.2  34156  289.52 0855.01
2009/04/23 12:05:21.0    -139   -352    197    379    427 201.6  29.6  34154  289.46 0855.01
2009/04/23 12:05:21.1     -45   -289    208    293    359 188.9  38.8  34154  289.48 0855.01
2009/04/23 12:05:21.2      29   -317    263    319    413 174.7  43.7  34154  289.47 0855.01
2009/04/23 12:05:21.3      -5   -289    225    290    367 181.1  41.7  34158  289.54 0855.01
2009/04/23 12:05:21.4      53   -212    144    219    262 166.0  36.3  34160  289.58 0855.01
2009/04/23 12:05:21.5     -34   -160     96    164    190 192.0  33.1  34160  289.57 0855.01
2009/04/23 12:05:21.6    -110   -160     62    195    205 214.5  17.7  34160  289.57 0855.01
2009/04/23 12:05:21.7     -67    -98     40    119    126 214.3  18.9  34160  289.58 0855.01
2009/04/23 12:05:21.8      42   -171     85    177    196 166.0  27.3  34160  289.58 0855.01
2009/04/23 12:05:21.9      38   -152     95    157    183 165.7  34.4  34158  289.53 0855.01
2009/04/23 12:05:22.0     116   -134     71    178    191 139.0  23.0  34158  289.55 0855.01
2009/04/23 12:05:22.1     109    -60     96    125    157 118.8  41.7  34160  289.57 0855.01
2009/04/23 12:05:22.2      37    -44     97     58    113 140.4  66.2  34160  289.58 0855.01
2009/04/23 12:05:22.3      25     14     75     29     80  61.1  77.6  34162  289.62 0855.01
2009/04/23 12:05:22.4      32     20     61     38     71  57.6  64.7  34164  289.65 0855.01
2009/04/23 12:05:22.5      28     19     56     34     65  55.8  64.7  34160  289.58 0855.00
2009/04/23 12:05:22.6      71     14     13     73     75  78.5  10.1  34162  289.60 0855.00
2009/04/23 12:05:22.7     141     28      3    144    145  78.6   1.2  34162  289.60 0855.00
2009/04/23 12:05:22.8     124     33     11    129    130  74.9   4.9  34158  289.55 0855.00
2009/04/23 12:05:22.9     129     83    -52    154    163  57.1 -18.7  34158  289.55 0855.00
2009/04/23 12:05:23.0     119     33    -82    124    148  74.5 -40.9  34160  289.58 0855.00
2009/04/23 12:05:23.1      95     51   -124    109    165  61.6 -58.7  34162  289.60 0855.00
2009/04/23 12:05:23.2     103     18    -63    105    122  79.9 -37.9  34160  289.58 0855.00
2009/04/23 12:05:23.3     122     48     -5    132    133  68.3  -2.2  34156  289.52 0855.00
2009/04/23 12:05:23.4     135     63    -24    150    153  64.8  -9.3  34160  289.58 0855.00
2009/04/23 12:05:23.5     194    -31    -32    197    200  99.2  -9.4  34160  289.58 0855.00
2009/04/23 12:05:23.6     215     -9    -35    216    219  92.6  -9.4  34170  289.74 0855.00
2009/04/23 12:05:23.7     248     58     16    255    256  76.7   3.8  34176  289.85 0855.00
2009/04/23 12:05:23.8     181    129     52    223    230  54.5  13.2  34182  289.94 0855.00
2009/04/23 12:05:23.9     195     99     38    219    223  63.0   9.9  34196  290.19 0855.00
2009/04/23 12:05:24.0     220     52     79    227    241  76.7  19.2  34198  290.20 0855.00
2009/04/23 12:05:24.1     154     48     20    162    164  72.5   7.2  34194  290.14 0855.00
2009/04/23 12:05:24.2      75     24      8     79     80  71.8   5.9  34196  290.18 0855.00
2009/04/23 12:05:24.3      37     75     22     84     87  26.3  14.7  34192  290.11 0855.00
2009/04/23 12:05:24.4      22     56     -4     61     62  21.9  -4.1  34190  290.09 0855.00
2009/04/23 12:05:24.5     101     32     45    106    115  72.3  24.1  34186  290.01 0855.01
2009/04/23 12:05:24.6     183    -50    -24    190    192 105.5  -7.2  34180  289.91 0855.01
2009/04/23 12:05:24.7     129     -9    -16    130    132  94.4  -7.3  34192  290.13 0855.01
2009/04/23 12:05:24.8      77     -6     27     78     83  94.8  19.4  34200  290.26 0855.01
2009/04/23 12:05:24.9      90    -63     57    110    123 125.1  29.3  34196  290.18 0855.01
2009/04/23 12:05:25.0      85    -64     59    107    122 126.9  31.4  34188  290.04 0855.01
2009/04/23 12:05:25.1      93    -43     59    103    118 115.2  32.4  34188  290.04 0855.01
2009/04/23 12:05:25.2      78    -43     44     90    100 118.9  27.8  34192  290.11 0855.01
2009/04/23 12:05:25.3     100     -6     77    101    127  93.5  41.7  34182  289.96 0855.01
2009/04/23 12:05:25.4      80     11     78     81    112  81.6  49.0  34184  289.97 0855.01
2009/04/23 12:05:25.5      95     19     71     97    120  78.6  39.7  34176  289.84 0855.01
2009/04/23 12:05:25.6      85     11     49     86     98  82.5  31.9  34172  289.77 0855.01
2009/04/23 12:05:25.7      41     27     62     50     79  56.7  56.9  34176  289.84 0855.01
2009/04/23 12:05:25.8      53     43     66     69     95  51.4  49.0  34180  289.91 0855.01
2009/04/23 12:05:25.9      41     74     54     85    100  29.4  35.5  34182  289.94 0855.01
2009/04/23 12:05:26.0      68     71     61     99    116  44.1  35.5  34184  289.99 0855.01
2009/04/23 12:05:26.1      76     51     81     92    122  55.8  45.9  34202  290.30 0855.01
2009/04/23 12:05:26.2     112     24     96    115    149  77.6  43.8  34200  290.26 0855.01
2009/04/23 12:05:26.3      92     34     85     99    130  69.6  45.4  34194  290.16 0855.01
2009/04/23 12:05:26.4     110     22     82    113    139  78.5  39.7  34198  290.23 0855.01
2009/04/23 12:05:26.5     118     14    117    119    166  83.0  49.8  34206  290.36 0855.01
2009/04/23 12:05:26.6     109     68    105    129    166  58.0  43.7  34212  290.45 0855.01
2009/04/23 12:05:26.7     116     60     51    131    140  62.5  23.0  34180  289.92 0855.01
2009/04/23 12:05:26.8     211     23     80    213    227  83.8  21.5  34188  290.06 0855.01
2009/04/23 12:05:26.9     194     72    115    207    236  69.6  31.4  34238  290.89 0855.01
2009/04/23 12:05:27.0     218    111     29    245    247  62.9   6.9  34188  290.03 0855.01
2009/04/23 12:05:27.1     206    119     70    239    250  60.0  16.4  34188  290.03 0855.01
2009/04/23 12:05:27.2     200     49     97    207    228  76.1  27.1  34184  289.99 0855.01
2009/04/23 12:05:27.3     154     34    110    158    192  77.2  38.0  34182  289.96 0855.01
2009/04/23 12:05:27.4     141      0     80    142    162  90.0  32.1  34168  289.72 0855.01
2009/04/23 12:05:27.5     147     -3     72    148    164  91.3  28.0  34170  289.74 0855.01
2009/04/23 12:05:27.6     125    -22    114    127    170 100.1  46.6  34168  289.70 0855.01
2009/04/23 12:05:27.7     128    -25    103    131    166 101.4  42.4  34170  289.75 0855.01
2009/04/23 12:05:27.8     207      8    137    208    249  87.6  36.5  34180  289.90 0855.01
2009/04/23 12:05:27.9     147     -9    125    148    193  93.5  44.1  34180  289.92 0855.01
2009/04/23 12:05:28.0     108    -13     91    109    141  97.0  43.8  34182  289.96 0855.01
2009/04/23 12:05:28.1      80     11    119     81    143  82.1  62.6  34188  290.06 0855.01
2009/04/23 12:05:28.2     109    -22    147    112    184 101.4  59.2  34184  289.97 0855.01
2009/04/23 12:05:28.3     -45    -55     98     72    121 219.6  60.0  34180  289.92 0855.01
2009/04/23 12:05:28.4     -14   -173    197    174    262 184.9  54.0  34190  290.07 0855.01
2009/04/23 12:05:28.5      -3   -205    230    206    308 180.9  53.7  34182  289.95 0854.99
2009/04/23 12:05:28.6      34   -105    184    111    214 161.7  66.2  34184  289.99 0854.99
2009/04/23 12:05:28.7     -75   -228    257    241    352 198.3  52.1  34182  289.93 0854.99
2009/04/23 12:05:28.8     -71   -259    210    269    341 195.4  41.9  34180  289.92 0854.99
2009/04/23 12:05:28.9     -45   -253    201    258    327 190.2  42.0  34188  290.03 0854.99
2009/04/23 12:05:29.0     -99   -249    198    269    334 201.8  40.0  34192  290.10 0854.99
2009/04/23 12:05:29.1     -40   -122    180    129    221 198.3  60.6  34192  290.13 0854.99
2009/04/23 12:05:29.2       0    -86    147     87    170 180.4  66.8  34206  290.35 0854.99
2009/04/23 12:05:29.3      68     22    186     72    199  71.8  77.8  34196  290.18 0854.99
2009/04/23 12:05:29.4     149     30    177    152    233  78.5  55.0  34198  290.23 0854.99
2009/04/23 12:05:29.5     -17    -17    151     25    153 225.0  90.0  34206  290.36 0854.99
2009/04/23 12:05:29.6     -50    -83    142     98    172 211.2  62.4  34208  290.38 0854.99
2009/04/23 12:05:29.7     -74   -129     82    149    170 209.9  31.0  34200  290.26 0854.99
2009/04/23 12:05:29.8    -152   -191     84    245    260 218.5  18.9  34196  290.17 0854.99
2009/04/23 12:05:29.9    -140   -207     96    251    268 214.1  22.0  34190  290.09 0854.99
2009/04/23 12:05:30.0    -135   -188    101    232    253 215.8  25.1  34186  290.02 0854.99
2009/04/23 12:05:30.1    -102   -208     75    232    244 206.3  17.9  34174  289.81 0854.99
2009/04/23 12:05:30.2    -100   -233     69    254    264 203.2  15.3  34168  289.70 0854.99
2009/04/23 12:05:30.3     -61   -273     43    280    284 192.7   8.9  34166  289.68 0854.99
2009/04/23 12:05:30.4     -70   -238    -12    249    250 196.5  -2.8  34168  289.71 0854.99
2009/04/23 12:05:30.5     -46   -270      3    274    275 189.7   0.8  34166  289.66 0854.97
2009/04/23 12:05:30.6     -32   -260     76    263    274 187.1  16.3  34166  289.66 0854.97
2009/04/23 12:05:30.7      38   -269     49    272    277 171.9  10.3  34168  289.71 0854.97
2009/04/23 12:05:30.8      24   -266     23    268    270 174.7   5.0  34170  289.75 0854.97
2009/04/23 12:05:30.9     -11   -273     53    274    280 182.5  11.1  34170  289.75 0854.97
2009/04/23 12:05:31.0      -9   -288     27    289    291 181.8   5.4  34168  289.70 0854.97
2009/04/23 12:05:31.1     -19   -248     21    249    250 184.4   4.9  34168  289.70 0854.97
2009/04/23 12:05:31.2     -13   -263     19    264    265 182.9   4.2  34168  289.71 0854.97
2009/04/23 12:05:31.3     -46   -223     27    228    230 191.8   6.9  34168  289.72 0854.97
2009/04/23 12:05:31.4      -6   -260     94    261    278 181.4  19.9  34170  289.73 0854.97
2009/04/23 12:05:31.5     -29   -268     48    270    275 186.3  10.1  34176  289.83 0854.97
2009/04/23 12:05:31.6     -45   -283     94    287    303 189.1  18.1  34172  289.78 0854.97
2009/04/23 12:05:31.7     -43   -339     74    342    351 187.3  12.3  34178  289.86 0854.97
2009/04/23 12:05:31.8     -57   -364     74    369    377 189.0  11.3  34174  289.82 0854.97
2009/04/23 12:05:31.9     -54   -331     80    336    346 189.3  13.5  34174  289.81 0854.97
2009/04/23 12:05:32.0     -46   -271    110    276    297 189.8  23.0  34178  289.86 0854.97
2009/04/23 12:05:32.1     -16   -235     84    236    250 184.0  20.0  34176  289.83 0854.97
2009/04/23 12:05:32.2     -50   -212     83    218    233 193.3  21.5  34176  289.84 0854.97
2009/04/23 12:05:32.3     -53   -228    149    235    278 193.1  35.5  34184  289.98 0854.97
2009/04/23 12:05:32.4     -58   -228     78    236    249 194.3  18.4  34182  289.93 0854.97
2009/04/23 12:05:32.5     -56   -221     50    229    235 194.3  12.4  34182  289.94 0854.97
2009/04/23 12:05:32.6     -55   -202     38    210    214 195.4  10.3  34180  289.92 0854.97
2009/04/23 12:05:32.7     -78   -201    -27    216    218 201.4  -7.3  34180  289.91 0854.97
2009/04/23 12:05:32.8    -104   -237     -1    259    260 203.7  -0.3  34186  290.00 0854.97
2009/04/23 12:05:32.9    -120   -232    -10    262    263 207.4  -2.2  34190  290.07 0854.97
2009/04/23 12:05:33.0     -98   -237    -10    257    258 202.5  -2.3  34192  290.10 0854.97
2009/04/23 12:05:33.1    -105   -249      1    271    272 202.9   0.2  34194  290.14 0854.97
2009/04/23 12:05:33.2     -29   -328     28    330    332 185.2   4.9  34192  290.11 0854.97
2009/04/23 12:05:33.3     -75   -357     24    365    366 191.9   3.8  34184  289.98 0854.97
2009/04/23 12:05:33.4     -91   -301     43    315    318 196.9   7.9  34190  290.09 0854.97
2009/04/23 12:05:33.5     -92   -326     40    339    342 195.9   6.9  34194  290.16 0854.97
2009/04/23 12:05:33.6    -122   -308     42    332    335 201.6   7.2  34196  290.18 0854.97
2009/04/23 12:05:33.7     -34   -307      4    309    310 186.5   0.8  34188  290.05 0854.97
2009/04/23 12:05:33.8     -92   -289     12    304    305 197.8   2.3  34184  289.97 0854.97
2009/04/23 12:05:33.9     -83   -248    -34    262    265 198.7  -7.5  34184  289.98 0854.97
2009/04/23 12:05:34.0      -5   -208     21    209    211 181.6   5.9  34178  289.89 0854.97
2009/04/23 12:05:34.1     -18   -166     39    168    173 186.2  13.2  34178  289.87 0854.97
2009/04/23 12:05:34.2     -46   -153     14    161    162 196.9   5.2  34178  289.87 0854.97
2009/04/23 12:05:34.3    -165   -176     45    242    247 223.2  10.6  34178  289.88 0854.97
2009/04/23 12:05:34.4    -201   -176     -9    268    269 228.7  -2.1  34176  289.85 0854.97
2009/04/23 12:05:34.5    -254   -180    -35    312    315 234.7  -6.5  34178  289.88 0854.98
2009/04/23 12:05:34.6    -311   -120    -45    334    337 248.9  -7.7  34180  289.91 0854.98
2009/04/23 12:05:34.7    -260   -188   -110    322    341 234.1 -18.9  34172  289.76 0854.98
2009/04/23 12:05:34.8    -142   -195     63    242    251 216.1  14.7  34168  289.71 0854.98
2009/04/23 12:05:34.9    -100   -106    147    146    207 223.3  50.1  34178  289.89 0854.98
2009/04/23 12:05:35.0    -208    -97     88    230    246 244.8  22.0  34186  290.02 0854.98
2009/04/23 12:05:35.1    -164   -135    -70    213    225 230.4 -18.3  34176  289.85 0854.98
2009/04/23 12:05:35.2    -288      0    -98    289    306 270.1 -18.8  34172  289.78 0854.98
2009/04/23 12:05:35.3    -438    -39   -116    440    456 264.8 -14.8  34178  289.87 0854.98
2009/04/23 12:05:35.4    -502    -36     -2    504    505 265.9  -0.3  34172  289.79 0854.98
2009/04/23 12:05:35.5    -367   -147    -30    396    398 248.2  -4.4  34188  290.04 0854.98
2009/04/23 12:05:35.6    -255   -111   -100    279    297 246.5 -19.7  34206  290.34 0854.98
2009/04/23 12:05:35.7    -226   -227   -112    321    339 224.9 -24.3  34198  290.21 0854.98
2009/04/23 12:05:35.8    -335   -286   -125    441    459 229.5 -15.9  34174  289.82 0854.98
2009/04/23 12:05:35.9    -364   -275   -161    457    485 233.0 -19.5  34160  289.57 0854.98
2009/04/23 12:05:36.0    -466   -266   -177    537    565 240.2 -23.6  34160  289.57 0854.98
2009/04/23 12:05:36.1    -469   -239   -180    527    556 243.0 -23.9  34158  289.55 0854.98
2009/04/23 12:05:36.2    -481   -286   -159    560    582 239.3 -20.5  34156  289.52 0854.98
2009/04/23 12:05:36.3    -413   -299   -165    511    536 234.1 -23.2  34162  289.60 0854.98
2009/04/23 12:05:36.4    -399   -289   -190    493    528 234.0 -26.7  34158  289.54 0854.98
2009/04/23 12:05:36.5    -334   -287   -181    441    476 229.3 -28.0  34166  289.69 0855.00
2009/04/23 12:05:36.6    -209   -334   -140    395    419 212.0 -24.6  34182  289.95 0855.00
2009/04/23 12:05:36.7    -265   -255   -103    368    383 226.1 -15.7  34178  289.89 0855.00
2009/04/23 12:05:36.8    -309   -134   -164    338    375 246.5 -32.2  34174  289.82 0855.00
2009/04/23 12:05:36.9    -181   -156    -36    240    243 229.3  -8.6  34192  290.12 0855.00
2009/04/23 12:05:37.0    -146   -188     -7    239    240 217.9  -1.8  34196  290.17 0855.00
2009/04/23 12:05:37.1    -125   -150    -57    196    204 219.6 -21.2  34190  290.09 0855.00
2009/04/23 12:05:37.2    -319   -106   -135    337    363 251.6 -27.4  34192  290.10 0855.00
2009/04/23 12:05:37.3     -62   -184     74    195    208 198.7  21.5  34190  290.08 0855.00
2009/04/23 12:05:37.4      19   -254    -12    255    256 175.6  -2.8  34184  289.97 0855.00
2009/04/23 12:05:37.5    -164   -268   -223    315    385 211.4 -43.2  34178  289.89 0855.00
2009/04/23 12:05:37.6    -271   -242   -110    364    380 228.3 -21.8  34184  289.99 0855.00
2009/04/23 12:05:37.7    -255   -310    -81    402    411 219.4 -11.5  34178  289.87 0855.00
2009/04/23 12:05:37.8    -167   -398   -226    432    487 202.8 -34.3  34162  289.59 0855.00
2009/04/23 12:05:37.9    -217   -295   -117    367    385 216.3 -22.9  34192  290.11 0855.00
2009/04/23 12:05:38.0     -24   -464    -68    465    470 183.0  -8.4  34184  289.98 0855.00
2009/04/23 12:05:38.1      44   -490      3    493    494 174.8   0.4  34184  289.98 0855.00
2009/04/23 12:05:38.2     -14   -398    -27    399    400 182.1  -3.9  34178  289.89 0855.00
2009/04/23 12:05:38.3     -54   -394    -43    398    401 187.9  -6.2  34178  289.89 0855.00
2009/04/23 12:05:38.4     -42   -418    -16    421    422 185.8  -2.2  34186  290.02 0855.00
2009/04/23 12:05:38.5     -50   -478    -49    481    484 186.0  -5.9  34182  289.96 0855.02
2009/04/23 12:05:38.6     -18   -467    -17    468    469 182.3  -2.1  34178  289.86 0855.02
2009/04/23 12:05:38.7     -83   -445    -58    453    457 190.6  -7.3  34172  289.78 0855.02
2009/04/23 12:05:38.8     -16   -465    -48    466    469 182.0  -6.0  34176  289.84 0855.02
2009/04/23 12:05:38.9     -52   -403    -42    407    410 187.4  -6.0  34174  289.82 0855.02
2009/04/23 12:05:39.0     -12   -386     16    387    388 181.9   2.5  34172  289.76 0855.02
2009/04/23 12:05:39.1      61   -400    -48    405    408 171.3  -6.9  34174  289.80 0855.02
2009/04/23 12:05:39.2      68   -357    -48    364    368 169.1  -7.6  34174  289.82 0855.02
2009/04/23 12:05:39.3       5   -259    -67    260    269 178.9 -14.5  34172  289.78 0855.02
2009/04/23 12:05:39.4      43   -306    -33    310    312 171.9  -6.2  34174  289.80 0855.02
2009/04/23 12:05:39.5     128   -344    -21    368    369 159.5  -3.3  34172  289.77 0855.02
2009/04/23 12:05:39.6      52   -374     21    378    379 172.1   3.3  34178  289.86 0855.02
2009/04/23 12:05:39.7      19   -346     38    347    350 176.8   6.4  34180  289.91 0855.02
2009/04/23 12:05:39.8      31   -341     59    343    349 174.8   9.9  34172  289.76 0855.02
2009/04/23 12:05:39.9      98   -327     68    342    349 163.2  11.3  34178  289.86 0855.02
2009/04/23 12:05:40.0      73   -338     33    346    348 167.7   5.5  34176  289.84 0855.02
2009/04/23 12:05:40.1      49   -350     32    354    356 171.9   5.3  34182  289.94 0855.02
2009/04/23 12:05:40.2      31   -291     23    293    294 173.8   4.6  34182  289.95 0855.02
2009/04/23 12:05:40.3      87   -246     71    262    272 160.4  15.2  34180  289.90 0855.02
2009/04/23 12:05:40.4     131   -245     28    278    280 151.9   5.9  34180  289.90 0855.02
2009/04/23 12:05:40.5      96   -290     13    306    307 161.7   2.5  34178  289.88 0855.02
2009/04/23 12:05:40.6     125   -263     -9    292    293 154.5  -1.8  34176  289.85 0855.02
2009/04/23 12:05:40.7      31   -256     -5    258    259 172.9  -1.3  34182  289.95 0855.02
2009/04/23 12:05:40.8      74   -222     48    235    240 161.5  11.6  34180  289.90 0855.02
2009/04/23 12:05:40.9      68   -203     43    215    220 161.3  11.4  34178  289.89 0855.02
2009/04/23 12:05:41.0      41   -184     22    189    191 167.3   6.7  34184  289.99 0855.02
2009/04/23 12:05:41.1      62   -174     56    185    194 160.2  16.8  34180  289.91 0855.02
2009/04/23 12:05:41.2      32   -158     49    162    170 168.4  16.8  34184  289.97 0855.02
2009/04/23 12:05:41.3      22    -96     -2     99    100 166.6  -1.3  34186  290.01 0855.02
2009/04/23 12:05:41.4      47    -74     59     88    105 147.5  36.5  34182  289.94 0855.02
2009/04/23 12:05:41.5     -40   -132    123    139    185 196.9  46.2  34180  289.91 0855.02
2009/04/23 12:05:41.6      24    -61    111     66    129 158.2  66.7  34190  290.08 0855.02
2009/04/23 12:05:41.7      10    -63    113     64    129 170.2  68.3  34184  289.99 0855.02
2009/04/23 12:05:41.8     -72   -221     90    233    249 198.0  22.0  34178  289.88 0855.02
2009/04/23 12:05:41.9     -82   -232     91    247    263 199.4  21.0  34180  289.92 0855.02
2009/04/23 12:05:42.0     -75   -218    157    231    279 199.2  37.6  34174  289.81 0855.02
2009/04/23 12:05:42.1     -56   -213     68    221    232 194.7  17.1  34176  289.84 0855.02
2009/04/23 12:05:42.3     -31   -199     71    202    215 188.9  19.4  34176  289.84 0855.02
2009/04/23 12:05:42.3     -20   -191     91    193    213 186.2  27.2  34176  289.85 0855.02
2009/04/23 12:05:42.4     -78   -163    125    181    219 205.6  38.0  34176  289.85 0855.02
2009/04/23 12:05:42.5    -117   -194    102    227    248 211.2  26.2  34176  289.83 0855.02
2009/04/23 12:05:42.6    -119   -171     69    209    221 215.0  18.4  34176  289.84 0855.02
2009/04/23 12:05:42.7    -101   -178     74    205    217 209.6  20.7  34176  289.84 0855.02
2009/04/23 12:05:42.8    -125   -197     81    234    248 212.5  19.2  34176  289.83 0855.02
2009/04/23 12:05:42.9     -74   -133    129    153    200 209.0  44.5  34178  289.89 0855.02
2009/04/23 12:05:43.0     -30   -100     98    105    143 196.9  48.0  34178  289.89 0855.02
2009/04/23 12:05:43.1     -29    -84     99     90    133 199.2  52.7  34178  289.89 0855.02
2009/04/23 12:05:43.2      -5    -46     90     47    101 187.1  70.4  34186  290.01 0855.02
2009/04/23 12:05:43.3      -3    -40     57     41     70 185.3  60.5  34186  290.02 0855.02
2009/04/23 12:05:43.4      25    -42     51     50     71 149.3  50.1  34192  290.13 0855.02
2009/04/23 12:05:43.5      12    -11     46     17     49 133.3  81.2  34196  290.18 0855.02
2009/04/23 12:05:43.6      -7    -35     33     36     48 191.6  49.0  34192  290.13 0855.02
2009/04/23 12:05:43.7      -6    -66     40     67     78 185.3  34.4  34188  290.04 0855.02
2009/04/23 12:05:43.8     -22    -68     41     72     82 198.3  31.9  34184  289.97 0855.02
2009/04/23 12:05:43.9     -63    -62     30     89     95 225.1  18.9  34184  289.97 0855.02
2009/04/23 12:05:44.0    -154    -98     45    183    189 237.5  13.9  34186  290.02 0855.02
2009/04/23 12:05:44.1    -232    -72     -9    243    244 252.7  -2.2  34216  290.51 0855.02
2009/04/23 12:05:44.2    -164    -58     28    175    178 250.5   9.3  34196  290.18 0855.02
2009/04/23 12:05:44.3    -114   -138     11    180    181 219.6   3.8  34194  290.16 0855.02
2009/04/23 12:05:44.4     -48   -127     82    136    158 200.9  34.0  34186  290.01 0855.02
2009/04/23 12:05:44.5     -33   -100     90    106    139 198.7  44.3  34182  289.94 0855.02
2009/04/23 12:05:44.6     -54    -93     56    108    121 210.3  29.3  34186  290.02 0855.02
2009/04/23 12:05:44.7      -8    -96     71     97    120 185.3  39.7  34188  290.04 0855.02
2009/04/23 12:05:44.8      -8   -112     57    113    126 184.5  29.2  34184  289.99 0855.02
2009/04/23 12:05:44.9      -4   -108     91    109    141 182.2  43.8  34178  289.89 0855.02
2009/04/23 12:05:45.0    -105   -165    107    196    223 212.5  31.3  34184  289.99 0855.02
2009/04/23 12:05:45.1    -193   -160     -9    251    252 230.4  -2.2  34200  290.24 0855.02
2009/04/23 12:05:45.2    -162   -123      9    204    205 232.9   2.8  34202  290.30 0855.02
2009/04/23 12:05:45.3    -167   -155    -20    228    229 227.1  -5.1  34210  290.41 0855.02
2009/04/23 12:05:45.5    -279   -180     31    333    335 237.1   5.4  34212  290.47 0855.02
2009/04/23 12:05:45.6    -226   -176     39    287    290 232.2   7.8  34206  290.36 0855.03
2009/04/23 12:05:45.7    -193   -254     59    320    326 217.2  10.6  34194  290.15 0855.03
2009/04/23 12:05:45.8    -170   -241    -38    296    299 215.2  -7.3  34206  290.36 0855.03
2009/04/23 12:05:45.9     -17   -234     78    235    248 184.4  18.6  34182  289.95 0855.03
2009/04/23 12:05:46.0    -117   -197     33    230    233 210.8   8.2  34188  290.06 0855.03
2009/04/23 12:05:46.1     -55   -194    107    202    228 196.0  30.1  34174  289.82 0855.03
2009/04/23 12:05:46.2     -17   -160     90    161    184 186.2  31.6  34178  289.87 0855.03
2009/04/23 12:05:46.3       2   -149     82    150    170 179.0  31.0  34182  289.94 0855.03
2009/04/23 12:05:46.4      43   -128     59    136    148 161.3  25.1  34176  289.85 0855.03
2009/04/23 12:05:46.5      60   -168     57    179    188 160.2  17.7  34184  289.99 0855.03
2009/04/23 12:05:46.6      82   -188     46    206    212 156.4  12.6  34184  289.97 0855.03
2009/04/23 12:05:46.7      64   -264     53    272    278 166.2  11.0  34180  289.92 0855.03
2009/04/23 12:05:46.8      78   -286    104    297    314 164.6  20.1  34174  289.80 0855.03
2009/04/23 12:05:46.9      48   -309    129    313    338 171.1  23.6  34172  289.77 0855.03
2009/04/23 12:05:47.0      49   -303    197    308    365 170.7  35.6  34160  289.57 0855.03
2009/04/23 12:05:47.1      50   -292    257    297    392 170.2  45.4  34168  289.71 0855.03
2009/04/23 12:05:47.2       0   -279    234    280    364 180.0  44.1  34172  289.79 0855.03
2009/04/23 12:05:47.3     -63   -287    227    294    371 192.5  41.6  34178  289.86 0855.03
2009/04/23 12:05:47.4     -98   -326    199    341    394 196.8  33.0  34180  289.91 0855.03
2009/04/23 12:05:47.5     -91   -369    194    381    427 193.9  29.1  34180  289.90 0855.03
2009/04/23 12:05:47.6     -57   -328    116    334    354 189.9  19.2  34178  289.87 0855.03
2009/04/23 12:05:47.7    -168   -341    140    381    405 206.2  21.0  34176  289.84 0855.03
2009/04/23 12:05:47.8    -210   -281     81    351    361 216.8  13.1  34178  289.89 0855.03
2009/04/23 12:05:47.9    -209   -304    -11    370    371 214.5  -1.7  34174  289.82 0855.03
2009/04/23 12:05:48.0    -155   -341     91    375    386 204.4  13.7  34174  289.81 0855.03
2009/04/23 12:05:48.1     -38   -418     74    420    427 185.3  10.1  34166  289.66 0855.03
2009/04/23 12:05:48.2     -25   -566    116    567    579 182.6  11.6  34176  289.83 0855.03
2009/04/23 12:05:48.3    -110   -486    -10    499    500 192.8  -1.2  34182  289.95 0855.03
2009/04/23 12:05:48.4      -8   -436     85    437    446 181.1  11.1  34150  289.39 0855.03
2009/04/23 12:05:48.5     -20   -438    224    439    492 182.7  29.2  34166  289.66 0855.03
2009/04/23 12:05:48.6     -32   -419     85    421    430 184.5  11.5  34170  289.75 0855.03
2009/04/23 12:05:48.7     -52   -437    146    441    465 186.8  18.4  34180  289.90 0855.03
2009/04/23 12:05:48.8     -94   -382    107    394    409 193.9  15.2  34176  289.85 0855.03
2009/04/23 12:05:48.9    -165   -402     24    435    436 202.3   3.2  34184  289.97 0855.03
2009/04/23 12:05:49.0    -224   -386    -21    447    448 210.1  -2.8  34186  290.02 0855.03
2009/04/23 12:05:49.1    -296   -337    -91    449    459 221.3 -11.5  34190  290.07 0855.03
2009/04/23 12:05:49.2    -255   -376    -29    455    456 214.2  -3.7  34184  289.99 0855.03
2009/04/23 12:05:49.3    -236   -326     -1    403    404 216.0  -0.3  34166  289.66 0855.03
2009/04/23 12:05:49.4    -205   -342   -131    399    419 210.9 -23.6  34146  289.33 0855.03
2009/04/23 12:05:49.5    -121   -229    113    260    283 207.9  25.1  34168  289.70 0855.03
2009/04/23 12:05:49.6    -152   -273     29    313    315 209.2   5.3  34178  289.88 0855.04
2009/04/23 12:05:49.7     -89   -258     20    273    274 199.1   4.4  34168  289.71 0855.04
2009/04/23 12:05:49.8    -101   -266    131    285    313 201.0  26.4  34166  289.66 0855.04
2009/04/23 12:05:49.9    -137   -246    102    282    299 209.2  20.9  34162  289.61 0855.04
2009/04/23 12:05:50.0    -112   -246     63    271    279 204.5  13.2  34164  289.64 0855.04
2009/04/23 12:05:50.1     -25   -259    137    261    294 185.6  29.8  34166  289.66 0855.04
2009/04/23 12:05:50.2     -98   -265     55    283    289 200.3  11.1  34162  289.61 0855.04
2009/04/23 12:05:50.3     -63   -209    130    219    254 196.9  33.5  34176  289.83 0855.04
2009/04/23 12:05:50.4     -55   -206     27    214    216 195.1   7.2  34168  289.72 0855.04
2009/04/23 12:05:50.5     -40   -195     -4    200    201 191.6  -1.3  34168  289.72 0855.04
2009/04/23 12:05:50.6     -25   -165     68    167    180 188.7  23.1  34168  289.70 0855.04
2009/04/23 12:05:50.7      50   -126     36    136    141 158.2  15.2  34170  289.74 0855.04
2009/04/23 12:05:50.8      31   -131    -29    135    139 166.6 -12.4  34166  289.69 0855.04
2009/04/23 12:05:50.9       0   -167     44    168    174 180.2  14.7  34168  289.70 0855.04
2009/04/23 12:05:51.0     -53   -162    -38    171    176 198.3 -12.6  34168  289.70 0855.04
2009/04/23 12:05:51.1      46    -45    -19     65     67 134.0 -21.7  34168  289.72 0855.04
2009/04/23 12:05:51.2      85    -22    -41     88     97 104.6 -31.0  34168  289.70 0855.04
2009/04/23 12:05:51.3     114     88     86    145    168  52.2  33.5  34168  289.72 0855.04
2009/04/23 12:05:51.4      99     12    124    100    159  83.0  57.1  34170  289.75 0855.04
2009/04/23 12:05:51.5      38     46     90     60    108  39.7  63.6  34174  289.80 0855.04
2009/04/23 12:05:51.6       1     68     65     69     94   1.0  49.0  34176  289.85 0855.04
2009/04/23 12:05:51.7     -63     84     74    106    129 323.0  38.0  34174  289.80 0855.04
2009/04/23 12:05:51.8     -74     68     40    101    108 312.7  23.0  34170  289.74 0855.04
2009/04/23 12:05:51.9    -165     -1    -24    166    168 269.6  -8.2  34178  289.89 0855.04
2009/04/23 12:05:52.0    -120    -16    -15    122    123 262.1  -7.2  34196  290.18 0855.04
2009/04/23 12:05:52.1    -258    -57    102    265    283 257.4  22.0  34170  289.75 0855.04
2009/04/23 12:05:52.2    -280   -296    114    408    424 223.5  15.7  34158  289.55 0855.04
2009/04/23 12:05:52.3     -66   -264    200    273    338 194.0  39.8  34158  289.53 0855.04
2009/04/23 12:05:52.4    -137   -318    158    347    381 203.3  26.3  34148  289.38 0855.04
2009/04/23 12:05:52.5    -240   -318    228    399    459 217.1  32.3  34148  289.38 0855.04
2009/04/23 12:05:52.6    -186   -257    116    318    338 216.0  21.0  34150  289.40 0855.04
2009/04/23 12:05:52.7      -3   -194    132    195    235 181.0  37.6  34158  289.55 0855.04
2009/04/23 12:05:52.8     -32   -228    194    231    301 188.0  44.3  34164  289.64 0855.04
2009/04/23 12:05:52.9     -31   -199    256    202    326 188.9  57.8  34164  289.63 0855.04
2009/04/23 12:05:53.0       0   -274    245    275    368 180.0  46.3  34166  289.69 0855.04
2009/04/23 12:05:53.1    -192   -352    264    401    480 208.6  36.5  34160  289.56 0855.04
2009/04/23 12:05:53.2    -286   -313      0    425    426 222.4   0.1  34174  289.82 0855.04
2009/04/23 12:05:53.3    -103   -283    122    302    325 200.0  23.4  34172  289.78 0855.04
2009/04/23 12:05:53.4    -242   -149    198    285    347 238.4  38.3  34170  289.73 0855.04
2009/04/23 12:05:53.5    -409    -34    137    411    434 265.2  18.4  34182  289.94 0855.04
2009/04/23 12:05:53.6    -490    -87     25    498    499 259.9   2.9  34172  289.79 0855.01
2009/04/23 12:05:53.7    -532    -93    -69    541    546 260.0  -7.4  34172  289.77 0855.01
2009/04/23 12:05:53.8    -596   -198     16    629    630 251.6   1.5  34168  289.70 0855.01
2009/04/23 12:05:53.9    -567   -211     40    606    608 249.6   3.8  34174  289.81 0855.01
2009/04/23 12:05:54.0    -568   -196     17    602    603 250.9   1.7  34176  289.85 0855.01
2009/04/23 12:05:54.1    -616   -157   -220    636    674 255.7 -19.1  34164  289.65 0855.01
2009/04/23 12:05:54.2    -589   -109   -174    599    623 259.5 -21.0  34168  289.72 0855.01
2009/04/23 12:05:54.3    -476   -231   -136    530    548 244.1 -14.4  34162  289.60 0855.01
2009/04/23 12:05:54.4    -429   -291    -89    519    527 235.8  -9.8  34168  289.70 0855.01
2009/04/23 12:05:54.5    -377   -140   -203    403    451 249.5 -33.3  34178  289.87 0855.01
2009/04/23 12:05:54.6    -206   -263    -16    335    336 218.1  -2.8  34182  289.94 0855.01
2009/04/23 12:05:54.7     -98   -289    -33    306    308 198.7  -6.2  34168  289.70 0855.01
2009/04/23 12:05:54.8    -119   -344    -28    365    367 199.2  -4.5  34154  289.47 0855.01
2009/04/23 12:05:54.9    -132   -333    -10    359    360 201.6  -1.7  34144  289.30 0855.01
2009/04/23 12:05:55.0    -152   -338    -61    371    377 204.2  -9.3  34150  289.40 0855.01
2009/04/23 12:05:55.1    -167   -442    -46    473    476 200.8  -5.6  34152  289.42 0855.01
2009/04/23 12:05:55.2    -145   -386     20    413    414 200.7   2.8  34158  289.53 0855.01
2009/04/23 12:05:55.3     -34   -470     96    472    482 184.2  11.6  34158  289.54 0855.01
2009/04/23 12:05:55.4      39   -562    168    564    589 176.0  16.6  34152  289.44 0855.01
2009/04/23 12:05:55.5      13   -469    208    470    513 178.4  25.3  34148  289.37 0855.01
2009/04/23 12:05:55.6     120   -419     41    436    439 164.0   5.4  34152  289.44 0855.00
2009/04/23 12:05:55.7     243   -324     92    406    417 143.2  12.8  34146  289.33 0855.00
2009/04/23 12:05:55.8     323   -161    -72    361    369 116.5 -11.3  34148  289.37 0855.00
2009/04/23 12:05:55.9     209    -78    104    224    246 110.4  26.6  34142  289.25 0855.00
2009/04/23 12:05:56.0     153   -109    141    189    235 125.5  40.7  34144  289.30 0855.00
2009/04/23 12:05:56.1      19   -201    132    202    241 174.4  36.3  34148  289.36 0855.00
2009/04/23 12:05:56.2     -59   -163    144    174    225 200.0  43.8  34140  289.24 0855.00
2009/04/23 12:05:56.3       1    -70     -1     71     72 179.0  -1.2  34144  289.30 0855.00
2009/04/23 12:05:56.4      72   -113     12    135    136 147.4   5.4  34140  289.23 0855.00
2009/04/23 12:05:56.5     129   -166    -35    211    214 142.2  -9.6  34146  289.33 0855.00
2009/04/23 12:05:56.6      83   -169    -25    189    191 153.9  -7.7  34146  289.35 0855.00
2009/04/23 12:05:56.7      96   -188    -61    212    220 153.0 -21.0  34146  289.33 0855.00
2009/04/23 12:05:56.8      47   -233     27    238    240 168.5   6.5  34146  289.34 0855.00
2009/04/23 12:05:56.9      16   -267     62    268    276 176.5  13.1  34138  289.20 0855.00
2009/04/23 12:05:57.0     -18   -294    106    295    314 183.6  19.9  34148  289.36 0855.00
2009/04/23 12:05:57.1      59   -310    135    316    343 169.1  24.6  34142  289.28 0855.00
2009/04/23 12:05:57.2     150   -252    137    294    324 149.2  26.9  34148  289.37 0855.00
2009/04/23 12:05:57.3      -6   -344     92    345    358 181.0  15.0  34146  289.33 0855.00
2009/04/23 12:05:57.4      22   -287     -5    288    289 175.6  -1.2  34154  289.47 0855.00
2009/04/23 12:05:57.5     -20   -191   -164    193    253 186.2 -49.2  34146  289.32 0855.00
2009/04/23 12:05:57.6     101   -182    -58    209    217 151.0 -15.5  34148  289.36 0854.96
2009/04/23 12:05:57.7      95   -158    -65    185    196 148.8 -24.6  34142  289.28 0854.96
2009/04/23 12:05:57.8      68   -119    -43    138    144 150.1 -22.8  34144  289.31 0854.96
2009/04/23 12:05:57.9      37    -54      8     66     67 145.7   6.9  34144  289.30 0854.96
2009/04/23 12:05:58.0       0    -54     40     55     68 180.9  39.7  34146  289.33 0854.96
2009/04/23 12:05:58.1     -19     14     37     24     44 306.0  63.6  34150  289.40 0854.96
2009/04/23 12:05:58.2     -72     47    -24     87     91 303.3 -15.5  34146  289.35 0854.96
2009/04/23 12:05:58.3     -53     75    -44     93    102 324.8 -31.5  34146  289.35 0854.96
2009/04/23 12:05:58.4     -52     82    -39     98    105 327.5 -27.4  34148  289.36 0854.96
2009/04/23 12:05:58.5     -77     63    -55    100    114 309.6 -35.8  34148  289.38 0854.96
2009/04/23 12:05:58.6     -50     68    -72     85    111 323.5 -48.7  34150  289.41 0854.96
2009/04/23 12:05:58.7      68     86    -43    110    118  38.3 -26.9  34152  289.45 0854.96
2009/04/23 12:05:58.8      73     30    -22     80     82  67.4 -20.2  34152  289.45 0854.96
2009/04/23 12:05:58.9      65      0     13     66     68  90.0  11.1  34154  289.48 0854.96
2009/04/23 12:05:59.0      40     -3     50     41     64  95.2  56.4  34156  289.50 0854.96
2009/04/23 12:05:59.1      54     21     53     59     79  68.3  47.5  34154  289.48 0854.96
2009/04/23 12:05:59.2     149     26     41    152    158  79.9  15.3  34150  289.41 0854.96
2009/04/23 12:05:59.3     176     69     76    190    204  68.5  23.0  34146  289.33 0854.96
2009/04/23 12:05:59.4     150     93    126    177    217  58.2  39.1  34150  289.41 0854.96
2009/04/23 12:05:59.5     106    106     -3    151    152  45.1  -1.3  34148  289.36 0854.96
2009/04/23 12:05:59.6      30    141     32    145    149  12.0  12.6  34146  289.35 0854.95
2009/04/23 12:05:59.7      28    120     68    124    141  13.4  31.3  34154  289.48 0854.95
2009/04/23 12:05:59.8       1    108    102    109    149   1.0  48.0  34148  289.36 0854.95
2009/04/23 12:05:59.9     -81    116    109    142    179 324.8  41.4  34152  289.43 0854.95
2009/04/23 12:06:00.0     -74     86     40    114    120 319.5  20.0  34148  289.38 0854.95
2009/04/23 12:06:00.1     -68    113     67    133    148 328.8  28.7  34148  289.36 0854.95
2009/04/23 12:06:00.2    -194    177      3    263    264 312.4   0.8  34148  289.37 0854.95
2009/04/23 12:06:00.3    -246    215    -10    327    328 311.2  -1.8  34146  289.34 0854.95
2009/04/23 12:06:00.4    -190    123    -66    227    236 303.1 -20.8  34156  289.51 0854.95
2009/04/23 12:06:00.5     -25    179     39    181    186 352.0  12.4  34148  289.38 0854.95
2009/04/23 12:06:00.6      64    201    -18    212    213  17.8  -5.1  34146  289.33 0854.95
2009/04/23 12:06:00.7      46    127     44    136    143  20.0  17.9  34150  289.41 0854.95
2009/04/23 12:06:00.8     -37    163     36    168    172 347.1  12.2  34154  289.46 0854.95
2009/04/23 12:06:00.9      66    141     50    156    164  25.3  17.9  34152  289.45 0854.95
2009/04/23 12:06:01.0      45     43    102     63    119  46.8  65.7  34154  289.46 0854.95
2009/04/23 12:06:01.1     -81    -13    101     83    130 260.8  56.4  34158  289.55 0854.95
2009/04/23 12:06:01.2    -214     73     66    227    237 288.8  16.3  34150  289.39 0854.95
2009/04/23 12:06:01.3    -247     70     40    257    261 285.9   9.0  34154  289.46 0854.95
2009/04/23 12:06:01.4    -146    -82     90    168    190 240.7  30.6  34158  289.53 0854.95
2009/04/23 12:06:01.5     -61   -108    110    125    166 209.4  45.8  34154  289.48 0854.95
2009/04/23 12:06:01.6    -340     -8     38    341    344 268.5   6.5  34152  289.42 0854.94
2009/04/23 12:06:01.7    -525    -28    -44    526    529 266.9  -4.9  34154  289.46 0854.94
2009/04/23 12:06:01.8    -557    -46     53    559    562 265.2   5.4  34160  289.57 0854.94
2009/04/23 12:06:01.9    -642    -65   -131    646    660 264.2 -11.5  34166  289.67 0854.94
2009/04/23 12:06:02.0    -688    -91   -178    695    718 262.4 -14.4  34168  289.72 0854.94
2009/04/23 12:06:02.1    -518    -32     67    520    525 266.4   7.4  34150  289.40 0854.94
2009/04/23 12:06:02.2    -420   -171    136    454    474 247.8  16.7  34146  289.34 0854.94
2009/04/23 12:06:02.3    -416   -224     80    473    480 241.7   9.6  34146  289.32 0854.94
2009/04/23 12:06:02.4    -468   -350    136    585    601 233.2  13.1  34144  289.30 0854.94
2009/04/23 12:06:02.5    -321   -291    -58    434    438 227.8  -7.7  34166  289.66 0854.94
2009/04/23 12:06:02.6    -461   -387    169    602    626 230.0  15.7  34154  289.47 0854.93
2009/04/23 12:06:02.7    -672    -95    -87    679    685 261.9  -7.4  34158  289.53 0854.93
2009/04/23 12:06:02.8    -588   -272    107    648    657 245.2   9.4  34148  289.38 0854.93
2009/04/23 12:06:02.9    -585   -179    -20    612    613 252.9  -1.9  34166  289.68 0854.93
2009/04/23 12:06:03.0    -556   -284   -187    625    652 242.9 -21.6  34162  289.62 0854.93
2009/04/23 12:06:03.1    -539   -497    -33    734    735 227.3  -2.6  34142  289.26 0854.93
2009/04/23 12:06:03.2    -224   -553     78    597    602 202.1   7.5  34144  289.30 0854.93
2009/04/23 12:06:03.3    -268   -378     72    464    470 215.4   8.9  34142  289.28 0854.93
2009/04/23 12:06:03.4    -137   -270   -108    304    323 207.0 -19.7  34148  289.36 0854.93
2009/04/23 12:06:03.5    -208   -397     67    449    455 207.7   8.5  34148  289.36 0854.93
2009/04/23 12:06:03.6    -427   -412     -2    594    595 226.0  -0.3  34148  289.37 0854.93
2009/04/23 12:06:03.7     -64   -376   -106    382    397 189.8 -15.5  34146  289.35 0854.93
2009/04/23 12:06:03.8    -140   -423    -89    446    455 198.3 -11.3  34148  289.38 0854.93
2009/04/23 12:06:03.9     -71   -565   -134    570    586 187.2 -13.3  34150  289.41 0854.93
2009/04/23 12:06:04.0     102   -543    -21    553    554 169.3  -2.2  34146  289.33 0854.93
2009/04/23 12:06:04.1      64   -537    203    541    577 173.1  21.6  34144  289.31 0854.93
2009/04/23 12:06:04.2      49   -104    156    116    194 154.6  60.0  34152  289.45 0854.93
2009/04/23 12:06:04.3     273   -531    180    598    625 152.8  16.8  34142  289.26 0854.93
2009/04/23 12:06:04.4     -15    106    227    108    251 351.5  72.9  34150  289.40 0854.93
2009/04/23 12:06:04.5     -42     67    185     80    201 327.5  75.3  34158  289.55 0854.93
2009/04/23 12:06:04.6     208     21    244    210    321  84.1  54.9  34148  289.37 0854.94
2009/04/23 12:06:04.8     139     86    286    164    329  58.2  67.5  34150  289.39 0854.94
2009/04/23 12:06:04.8     209    -34    254    212    330  99.5  56.0  34142  289.27 0854.94
2009/04/23 12:06:04.9       0     30    173     31    175 359.1  90.0  34162  289.60 0854.94
2009/04/23 12:06:05.0     130    -67    203    147    250 117.5  60.5  34152  289.43 0854.94
2009/04/23 12:06:05.1     144    -35    146    149    208 103.7  49.8  34148  289.38 0854.94
2009/04/23 12:06:05.2      90      4      4     91     92  87.0   2.8  34142  289.28 0854.94
2009/04/23 12:06:05.3      -7     17    -28     19     33 338.2 -67.0  34144  289.30 0854.94
2009/04/23 12:06:05.4     -26    -11   -124     29    127 246.5 -90.0  34144  289.31 0854.94
2009/04/23 12:06:05.5    -144    -73    -61    162    173 242.9 -25.7  34144  289.31 0854.94
2009/04/23 12:06:05.6    -120    -79    -20    144    146 236.7  -8.2  34154  289.48 0854.94
2009/04/23 12:06:05.7    -213    -29    -72    216    227 262.1 -23.6  34156  289.52 0854.94
2009/04/23 12:06:05.8    -173      0      3    174    175 270.0   1.2  34152  289.45 0854.94
2009/04/23 12:06:05.9    -121    -27    -34    125    130 257.2 -15.5  34156  289.52 0854.94
2009/04/23 12:06:06.0     -84    -24      3     88     89 253.6   2.3  34158  289.53 0854.94
2009/04/23 12:06:06.1     -63     30     24     70     75 295.4  18.9  34154  289.46 0854.94
2009/04/23 12:06:06.2     -78     49    107     93    141 302.0  54.3  34156  289.52 0854.94
2009/04/23 12:06:06.3    -102     34    146    108    181 288.6  60.0  34162  289.62 0854.94
2009/04/23 12:06:06.4    -220     81     78    235    248 290.2  18.4  34162  289.61 0854.94
2009/04/23 12:06:06.5    -255    139     99    291    308 298.6  18.9  34150  289.39 0854.94
2009/04/23 12:06:06.6    -303    181     -1    354    355 300.9  -0.2  34162  289.62 0854.95
2009/04/23 12:06:06.7    -342    182     72    388    395 298.0  10.6  34154  289.47 0854.95
2009/04/23 12:06:06.8    -314     84     27    326    328 285.0   4.9  34152  289.42 0854.95
2009/04/23 12:06:06.9    -314      0     39    315    318 270.1   7.2  34144  289.31 0854.95
2009/04/23 12:06:07.0    -407     54    199    411    456 277.7  27.7  34156  289.49 0854.95
2009/04/23 12:06:07.1     -48   -208    140    214    255 193.1  36.5  34150  289.41 0854.95
2009/04/23 12:06:07.2      69    -53    181     88    201 127.8  72.4  34152  289.45 0854.95
2009/04/23 12:06:07.3       9   -297    248    298    387 178.2  43.8  34148  289.37 0854.95
2009/04/23 12:06:07.4      -1   -300    128    301    327 180.2  24.5  34144  289.31 0854.95
2009/04/23 12:06:07.5      19   -276     -5    277    278 176.0  -1.1  34146  289.32 0854.95
2009/04/23 12:06:07.6      90   -361    -48    373    377 165.9  -7.3  34148  289.38 0854.95
2009/04/23 12:06:07.7     244   -174     64    300    307 125.5  12.2  34146  289.32 0854.95
2009/04/23 12:06:07.8    -233    -76     85    246    261 251.8  19.2  34160  289.56 0854.95
2009/04/23 12:06:07.9    -243   -343    -44    421    424 215.4  -6.0  34174  289.82 0854.95
2009/04/23 12:06:08.0    -125   -263     41    292    295 205.5   8.0  34168  289.70 0854.95
2009/04/23 12:06:08.1    -343   -245   -100    422    434 234.4 -13.4  34182  289.95 0854.95
2009/04/23 12:06:08.2    -305   -335    -25    454    455 222.3  -3.2  34190  290.07 0854.95
2009/04/23 12:06:08.3    -303   -343    -10    458    459 221.4  -1.3  34192  290.12 0854.95
2009/04/23 12:06:08.4    -191   -247     44    313    317 217.8   8.1  34188  290.03 0854.95
2009/04/23 12:06:08.5    -188   -264     73    325    334 215.5  12.8  34182  289.96 0854.95
2009/04/23 12:06:08.6     -97   -335     32    349    351 196.3   5.3  34164  289.64 0854.96
2009/04/23 12:06:08.7       0   -286     75    287    297 180.0  14.7  34158  289.54 0854.96
2009/04/23 12:06:08.8     -43   -225    119    230    258 190.9  29.3  34156  289.49 0854.96
2009/04/23 12:06:08.9    -203   -324     66    383    389 212.0   9.9  34162  289.62 0854.96
2009/04/23 12:06:09.0    -202   -346     23    401    402 210.3   3.3  34160  289.57 0854.96
2009/04/23 12:06:09.1     -99   -247     69    267    276 201.8  14.7  34154  289.46 0854.96
2009/04/23 12:06:09.2     -67   -330     76    337    346 191.5  12.8  34154  289.48 0854.96
2009/04/23 12:06:09.3    -151   -284    114    322    341 208.1  20.1  34152  289.45 0854.96
2009/04/23 12:06:09.4    -160   -320     83    358    368 206.6  13.1  34154  289.47 0854.96
2009/04/23 12:06:09.5    -169   -274     23    323    324 211.7   4.2  34152  289.44 0854.96
2009/04/23 12:06:09.6    -197   -191     34    275    278 225.8   7.1  34148  289.37 0854.96
2009/04/23 12:06:09.7    -310   -295     23    428    429 226.4   3.1  34166  289.68 0854.96
2009/04/23 12:06:09.8    -285   -283    -32    402    404 225.2  -4.6  34154  289.48 0854.96
2009/04/23 12:06:09.9    -207   -402    193    453    492 207.3  24.5  34142  289.28 0854.96
2009/04/23 12:06:10.0     -45   -545    223    547    590 184.8  23.5  34144  289.30 0854.96
2009/04/23 12:06:10.1    -135   -458    248    478    538 196.5  29.5  34148  289.36 0854.96
2009/04/23 12:06:10.2    -213   -440     55    490    494 205.9   6.5  34142  289.27 0854.96
2009/04/23 12:06:10.3    -158   -306     95    345    358 207.4  15.4  34146  289.35 0854.96
2009/04/23 12:06:10.4    -265   -300    159    401    431 221.5  23.0  34142  289.27 0854.96
2009/04/23 12:06:10.5    -192   -204    176    281    331 223.3  35.2  34146  289.32 0854.96
2009/04/23 12:06:10.6     107    -40     28    115    119 110.8  13.7  34154  289.46 0854.96
2009/04/23 12:06:10.7     124    -79    186    148    237 122.4  57.5  34164  289.63 0854.96
2009/04/23 12:06:10.8      76   -155    176    173    246 153.9  50.4  34156  289.50 0854.96
2009/04/23 12:06:10.9     173   -130    181    217    282 126.9  43.8  34154  289.46 0854.96
2009/04/23 12:06:11.0      70   -109    152    130    200 147.4  55.0  34150  289.41 0854.96
2009/04/23 12:06:11.1      92    -28    172     97    197 107.3  68.3  34152  289.43 0854.96
2009/04/23 12:06:11.2     110    110    188    156    244  45.1  56.3  34150  289.41 0854.96
2009/04/23 12:06:11.3      85     33    134     92    162  68.7  62.4  34160  289.57 0854.96
2009/04/23 12:06:11.4    -173   -171    105    244    265 225.2  24.9  34156  289.51 0854.96
2009/04/23 12:06:11.5    -206   -148     92    254    271 234.3  19.9  34154  289.46 0854.96
2009/04/23 12:06:11.6     -76   -167    110    184    214 204.5  33.7  34150  289.41 0854.96
2009/04/23 12:06:11.7     -26   -225     91    227    244 186.7  23.0  34150  289.41 0854.96
2009/04/23 12:06:11.8      51   -191    111    198    226 164.9  31.4  34148  289.36 0854.96
2009/04/23 12:06:11.9      73   -220    188    233    299 161.5  43.3  34146  289.32 0854.96
2009/04/23 12:06:12.1      -3   -340    201    341    395 180.6  33.3  34148  289.38 0854.96
2009/04/23 12:06:12.1      -6   -448    188    449    486 180.8  24.1  34146  289.35 0854.96
2009/04/23 12:06:12.2      32   -403    238    405    469 175.4  33.1  34148  289.36 0854.96
2009/04/23 12:06:12.4      68   -381    206    388    439 169.8  30.2  34150  289.41 0854.96
2009/04/23 12:06:12.5     118   -463     67    478    483 165.7   8.0  34150  289.40 0854.96
2009/04/23 12:06:12.6     -65   -279    210    287    355 193.3  39.8  34150  289.40 0854.96
2009/04/23 12:06:12.7      70   -431    266    437    511 170.7  34.1  34156  289.49 0854.95
2009/04/23 12:06:12.8      40   -391    312    394    502 174.0  42.6  34152  289.44 0854.95
2009/04/23 12:06:12.9      14   -355    307    356    470 177.7  45.2  34156  289.49 0854.95
2009/04/23 12:06:13.0      81   -442    272    450    525 169.5  34.1  34152  289.44 0854.95
2009/04/23 12:06:13.1      62   -504    205    508    547 172.9  23.1  34154  289.46 0854.95
2009/04/23 12:06:13.2     -58   -354    226    359    424 189.3  35.5  34154  289.48 0854.95
2009/04/23 12:06:13.3     -12   -399    159    400    430 181.8  23.0  34160  289.56 0854.95
2009/04/23 12:06:13.4      70   -599    210    604    639 173.3  20.0  34150  289.40 0854.95
2009/04/23 12:06:13.5     137   -411    266    434    509 161.6  34.4  34156  289.50 0854.95
2009/04/23 12:06:13.6     107   -381    308    396    501 164.2  41.9  34160  289.57 0854.95
2009/04/23 12:06:13.7      56   -455    262    459    528 172.9  32.3  34156  289.52 0854.95
2009/04/23 12:06:13.8      14   -294    291    295    414 177.1  49.8  34146  289.33 0854.95
2009/04/23 12:06:13.9       8   -130    240    131    273 176.4  68.9  34158  289.53 0854.95
2009/04/23 12:06:14.0      16   -278    226    279    359 176.6  43.3  34156  289.52 0854.95
2009/04/23 12:06:14.1     133   -152    202    202    285 138.8  50.1  34160  289.56 0854.95
2009/04/23 12:06:14.2     198   -151    267    250    365 127.3  52.2  34158  289.55 0854.95
2009/04/23 12:06:14.3     164   -103    203    194    280 122.2  51.4  34164  289.64 0854.95
2009/04/23 12:06:14.4     169    -41    129    174    216 103.7  40.1  34160  289.57 0854.95
2009/04/23 12:06:14.5       2     -7     82      8     82 161.5  90.0  34166  289.67 0854.95
2009/04/23 12:06:14.6     -89    -46     47    101    111 242.9  27.1  34164  289.65 0854.95
2009/04/23 12:06:14.7     -50   -161     30    169    172 197.4  10.3  34162  289.60 0854.93
2009/04/23 12:06:14.8      38   -228    -64    232    240 170.4 -20.2  34160  289.58 0854.93
2009/04/23 12:06:14.9      31   -171   -112    174    206 169.5 -40.0  34166  289.67 0854.93
2009/04/23 12:06:15.0      37   -158   -127    163    206 166.6 -46.4  34164  289.63 0854.93
2009/04/23 12:06:15.1       2   -186    -65    187    197 179.1 -24.4  34160  289.57 0854.93
2009/04/23 12:06:15.2     124   -372   -115    393    409 161.6 -21.1  34156  289.51 0854.93
2009/04/23 12:06:15.3     147   -374    -51    403    407 158.5  -7.2  34150  289.39 0854.93
2009/04/23 12:06:15.4     185   -422    -42    461    464 156.3  -5.3  34152  289.43 0854.93
2009/04/23 12:06:15.5     221   -366    -16    428    429 148.8  -2.2  34156  289.51 0854.93
2009/04/23 12:06:15.6     124   -345    -80    367    376 160.2 -12.4  34154  289.48 0854.93
2009/04/23 12:06:15.7     159   -294     38    335    338 151.6   6.6  34156  289.50 0854.93
2009/04/23 12:06:15.8     189   -282     47    340    344 146.1   7.9  34154  289.47 0854.93
2009/04/23 12:06:15.9     140   -268     55    303    309 152.4  10.3  34150  289.41 0854.93
2009/04/23 12:06:16.0     108   -264     77    286    297 157.7  15.2  34152  289.44 0854.93
2009/04/23 12:06:16.1     112   -273     29    296    298 157.7   5.7  34154  289.47 0854.93
2009/04/23 12:06:16.2      64   -305    -11    312    313 168.0  -2.1  34158  289.53 0854.93
2009/04/23 12:06:16.3      47   -238    -86    243    258 168.7 -19.6  34158  289.54 0854.93
2009/04/23 12:06:16.4      37   -181    -53    185    193 168.4 -16.0  34160  289.57 0854.93
2009/04/23 12:06:16.5      81   -212      2    228    229 159.1   0.7  34160  289.58 0854.93
2009/04/23 12:06:16.6      98   -192    -48    216    222 152.8 -12.6  34164  289.65 0854.93
2009/04/23 12:06:16.7      10   -215    -92    216    234 177.1 -29.0  34164  289.63 0854.92
2009/04/23 12:06:16.8      32   -159   -111    163    197 168.4 -42.0  34164  289.63 0854.92
2009/04/23 12:06:16.9      53   -202    -79    210    224 165.1 -25.7  34164  289.63 0854.92
2009/04/23 12:06:17.0      68   -207    -75    219    231 161.7 -23.3  34164  289.63 0854.92
2009/04/23 12:06:17.1      93   -302    -45    317    321 162.8  -8.2  34152  289.42 0854.92
2009/04/23 12:06:17.2     123   -281    -52    307    312 156.3  -9.7  34146  289.34 0854.92
2009/04/23 12:06:17.3     124   -303    -25    328    330 157.7  -4.5  34152  289.45 0854.92
2009/04/23 12:06:17.4      44   -312      4    316    317 171.9   0.9  34154  289.46 0854.92
2009/04/23 12:06:17.5     -27   -321     13    323    324 184.9   2.4  34160  289.56 0854.92
2009/04/23 12:06:17.6     -18   -260    -82    261    274 184.0 -17.6  34158  289.54 0854.92
2009/04/23 12:06:17.7       3   -305    -29    306    308 179.3  -5.6  34158  289.54 0854.92
2009/04/23 12:06:17.8       7   -305     24    306    308 178.6   4.6  34156  289.51 0854.92
2009/04/23 12:06:17.9     -15   -236    115    237    263 183.8  27.4  34154  289.46 0854.92
2009/04/23 12:06:18.0       0   -235    140    236    274 180.2  33.4  34158  289.54 0854.92
2009/04/23 12:06:18.1      23   -302    140    303    333 175.5  26.5  34152  289.44 0854.92
2009/04/23 12:06:18.2     249   -340    156    422    449 143.7  21.1  34148  289.36 0854.92
2009/04/23 12:06:18.3     254   -426     99    496    506 149.2  11.3  34146  289.32 0854.92
2009/04/23 12:06:18.4     170   -645    156    667    686 165.2  13.2  34148  289.36 0854.92
2009/04/23 12:06:18.5     179   -637    257    662    710 164.3  22.3  34146  289.34 0854.92
2009/04/23 12:06:18.6     167   -580    272    604    662 163.9  25.8  34136  289.15 0854.92
2009/04/23 12:06:18.7     207   -599    228    634    673 160.9  20.7  34134  289.12 0854.92
2009/04/23 12:06:18.8     179   -589    -40    616    618 163.1  -3.7  34146  289.35 0854.92
2009/04/23 12:06:18.9     113   -759     22    768    769 171.5   1.7  34154  289.46 0854.92
2009/04/23 12:06:19.0     165   -727    -36    746    747 167.2  -2.8  34154  289.48 0854.92
2009/04/23 12:06:19.1      38   -741    -80    742    747 177.0  -6.2  34154  289.46 0854.92
2009/04/23 12:06:19.2      13   -710    -84    711    717 178.9  -6.8  34156  289.50 0854.92
2009/04/23 12:06:19.3      49   -627    -91    630    637 175.5  -8.2  34154  289.48 0854.92
2009/04/23 12:06:19.4     -18   -598    -32    599    600 181.8  -3.1  34152  289.42 0854.92
2009/04/23 12:06:19.5    -101   -499   -124    510    525 191.5 -13.7  34152  289.45 0854.92
2009/04/23 12:06:19.6      11   -408   -147    409    435 178.4 -19.8  34162  289.61 0854.92
2009/04/23 12:06:19.7     129   -388   -123    409    427 161.6 -21.7  34158  289.53 0854.92
2009/04/23 12:06:19.8      34   -324   -131    326    351 173.9 -27.4  34158  289.54 0854.92
2009/04/23 12:06:19.9    -178   -486     16    518    519 200.2   1.8  34156  289.49 0854.92
2009/04/23 12:06:20.0    -142   -476    -46    497    500 196.6  -5.4  34164  289.64 0854.92
2009/04/23 12:06:20.1    -182   -489     -8    522    523 200.4  -0.9  34162  289.62 0854.92
2009/04/23 12:06:20.2    -171   -471     24    502    503 200.0   2.8  34160  289.57 0854.92
2009/04/23 12:06:20.3    -158   -428    -17    457    458 200.3  -2.2  34158  289.55 0854.92
2009/04/23 12:06:20.4     -58   -417    -72    422    429 188.0  -9.7  34158  289.53 0854.92
2009/04/23 12:06:20.5      10   -407   -126    408    427 178.5 -22.3  34154  289.48 0854.92
2009/04/23 12:06:20.6     -10   -421    -92    422    433 181.5 -12.4  34158  289.53 0854.92
2009/04/23 12:06:20.7    -193   -369   -115    417    433 207.7 -15.4  34164  289.65 0854.93
2009/04/23 12:06:20.8    -115   -378   -142    396    421 196.9 -19.8  34154  289.46 0854.93
2009/04/23 12:06:20.9     -67   -295    -85    303    315 192.9 -15.8  34152  289.42 0854.93
2009/04/23 12:06:21.0     -73   -306    -53    315    320 193.4  -9.7  34158  289.53 0854.93
2009/04/23 12:06:21.1    -193   -276     -6    337    338 215.0  -1.2  34152  289.45 0854.93
2009/04/23 12:06:21.2    -103   -379   -116    393    410 195.3 -16.5  34148  289.36 0854.93
2009/04/23 12:06:21.3    -233   -393    -25    457    458 210.7  -3.1  34150  289.39 0854.93
2009/04/23 12:06:21.4    -145   -303    -61    337    343 205.6 -10.4  34148  289.37 0854.93
2009/04/23 12:06:21.5    -180   -312    -24    361    362 209.9  -3.9  34152  289.45 0854.93
2009/04/23 12:06:21.6    -291   -229    -82    371    381 231.7 -12.5  34148  289.37 0854.93
2009/04/23 12:06:21.7    -140   -344    -74    372    380 202.2 -11.3  34152  289.43 0854.93
2009/04/23 12:06:21.8       1   -297      8    298    299 179.8   1.7  34154  289.46 0854.93
2009/04/23 12:06:21.9      79   -276    101    288    306 164.0  19.4  34152  289.44 0854.93
2009/04/23 12:06:22.0      73   -259    151    270    309 164.2  31.4  34144  289.29 0854.93
2009/04/23 12:06:22.1     -24   -140    187    143    235 189.8  58.7  34148  289.36 0854.93
2009/04/23 12:06:22.2      94   -186    169    209    268 153.0  43.5  34152  289.44 0854.93
2009/04/23 12:06:22.3      96   -101    160    140    212 136.3  54.3  34152  289.43 0854.93
2009/04/23 12:06:22.4     -63   -210    159    220    271 196.7  39.5  34154  289.46 0854.93
2009/04/23 12:06:22.5     -80   -365    157    374    405 192.5  24.2  34146  289.33 0854.93
2009/04/23 12:06:22.6     -47   -366    137    369    393 187.4  21.4  34148  289.37 0854.93
2009/04/23 12:06:22.7     -10   -422    -16    423    424 181.4  -2.2  34146  289.34 0854.94
2009/04/23 12:06:22.8      26   -379     21    380    381 176.0   3.3  34142  289.26 0854.94
2009/04/23 12:06:22.9      26   -343    134    344    369 175.6  22.4  34146  289.33 0854.94
2009/04/23 12:06:23.0      43   -297    180    301    350 171.8  33.8  34146  289.33 0854.94
2009/04/23 12:06:23.1     131   -198    194    238    307 146.4  43.7  34146  289.32 0854.94
2009/04/23 12:06:23.2     205   -239    168    315    357 139.4  30.3  34146  289.35 0854.94
2009/04/23 12:06:23.3     166   -227    110    282    302 143.9  22.5  34150  289.39 0854.94
2009/04/23 12:06:23.4     104   -210     80    235    249 153.5  18.9  34148  289.37 0854.94
2009/04/23 12:06:23.5     119   -158    -57    199    207 143.0 -20.7  34146  289.35 0854.94
2009/04/23 12:06:23.6     154    -93    -48    181    188 121.1 -15.0  34148  289.38 0854.94
2009/04/23 12:06:23.7     133   -159    -72    208    220 140.1 -23.8  34140  289.24 0854.94
2009/04/23 12:06:23.8     196   -161     30    254    256 129.5   6.9  34146  289.32 0854.94
2009/04/23 12:06:23.9     201   -188     27    276    278 133.2   5.7  34146  289.34 0854.94
2009/04/23 12:06:24.0     215   -244     86    326    338 138.6  14.9  34146  289.35 0854.94
2009/04/23 12:06:24.1     213   -245    112    325    344 139.0  19.1  34144  289.30 0854.94
2009/04/23 12:06:24.2     100   -260    120    279    303 158.8  25.1  34144  289.31 0854.94
2009/04/23 12:06:24.3     196   -264    129    330    354 143.4  22.5  34146  289.32 0854.94
2009/04/23 12:06:24.4     188   -227    177    295    344 140.3  34.0  34138  289.20 0854.94
2009/04/23 12:06:24.5     147   -328    177    360    401 155.8  28.1  34146  289.32 0854.94
2009/04/23 12:06:24.6      69   -344    203    351    405 168.6  32.7  34144  289.30 0854.94
2009/04/23 12:06:24.7      89   -293    223    307    379 163.0  39.5  34146  289.35 0854.94
2009/04/23 12:06:24.8      15   -326    233    327    401 177.3  39.1  34148  289.37 0854.94
2009/04/23 12:06:24.9      54   -373    258    378    457 171.7  37.6  34146  289.33 0854.94
2009/04/23 12:06:25.0     -25   -351    234    352    422 184.2  36.6  34148  289.37 0854.94
2009/04/23 12:06:25.1      71   -347    267    355    444 168.3  40.7  34150  289.41 0854.94
2009/04/23 12:06:25.2     102   -288    252    306    396 160.4  43.7  34148  289.37 0854.94
2009/04/23 12:06:25.3     134   -292    258    322    412 155.3  42.8  34152  289.43 0854.94
2009/04/23 12:06:25.4     -51   -298    236    303    384 189.7  41.9  34152  289.45 0854.94
2009/04/23 12:06:25.5       2   -201    254    202    324 179.3  57.5  34152  289.42 0854.94
2009/04/23 12:06:25.6     -32   -226    252    229    340 188.2  53.2  34156  289.51 0854.94
2009/04/23 12:06:25.7     -29   -247    256    249    357 186.7  50.9  34156  289.49 0854.92
2009/04/23 12:06:25.8      21   -235    213    237    318 174.7  46.6  34156  289.51 0854.92
2009/04/23 12:06:25.9      27   -194    232    196    303 171.9  55.8  34158  289.54 0854.92
2009/04/23 12:06:26.0     -19   -251    253    252    357 184.5  50.1  34156  289.49 0854.92
2009/04/23 12:06:26.1     -58   -285    299    292    417 191.6  50.8  34158  289.54 0854.92
2009/04/23 12:06:26.2     -13   -278    231    279    362 182.7  43.8  34154  289.47 0854.92
2009/04/23 12:06:26.3       0   -294    255    295    389 180.0  45.4  34158  289.54 0854.92
2009/04/23 12:06:26.4      -3   -305    209    306    370 180.7  37.6  34156  289.50 0854.92
2009/04/23 12:06:26.5    -101   -426    205    438    483 193.4  27.0  34156  289.50 0854.92
2009/04/23 12:06:26.6     152   -292    189    330    380 152.5  32.4  34156  289.52 0854.92
2009/04/23 12:06:26.7     137   -323    308    351    466 157.0  45.8  34156  289.49 0854.92
2009/04/23 12:06:26.8     178   -246    221    304    375 144.0  39.7  34162  289.59 0854.92
2009/04/23 12:06:26.9     140   -378    153    404    432 159.6  21.8  34158  289.53 0854.92
2009/04/23 12:06:27.0     130   -480    126    498    514 164.9  14.3  34152  289.44 0854.92
2009/04/23 12:06:27.1     219   -447    213    498    541 153.9  24.6  34152  289.43 0854.92
2009/04/23 12:06:27.2     280   -501    307    575    651 150.8  30.5  34154  289.48 0854.92
2009/04/23 12:06:27.3     313   -234    160    392    423 126.8  23.4  34156  289.49 0854.92
2009/04/23 12:06:27.4     180   -309    315    358    476 149.8  45.9  34154  289.46 0854.92
2009/04/23 12:06:27.5     152   -298     65    335    342 152.9  11.1  34156  289.50 0854.92
2009/04/23 12:06:27.6      15   -182    -55    183    192 175.1 -16.8  34156  289.50 0854.92
2009/04/23 12:06:27.7     212   -191    -60    286    293 132.0 -11.9  34154  289.47 0854.88
2009/04/23 12:06:27.8     179   -217    -21    282    283 140.4  -4.4  34156  289.49 0854.88
2009/04/23 12:06:27.9     -21   -260    184    261    319 184.7  38.7  34140  289.22 0854.88
2009/04/23 12:06:28.0       7    -58    264     59    270 172.9  88.0  34136  289.18 0854.88
2009/04/23 12:06:28.1     -97   -223    152    244    287 203.6  35.2  34136  289.15 0854.88
2009/04/23 12:06:28.2    -129   -298     82    325    336 203.5  14.2  34138  289.21 0854.88
2009/04/23 12:06:28.3    -177   -298     30    347    349 210.7   5.0  34134  289.13 0854.88
2009/04/23 12:06:28.4    -150   -292   -107    329    347 207.2 -18.0  34132  289.10 0854.88
2009/04/23 12:06:28.5     -18   -235    -42    236    240 184.4 -10.1  34136  289.17 0854.88
2009/04/23 12:06:28.6     -16   -212      0    213    214 184.5  -0.3  34150  289.41 0854.88
2009/04/23 12:06:28.7      57    -97     13    113    114 149.7   6.9  34152  289.45 0854.88
2009/04/23 12:06:28.8     196     -3     51    197    204  90.9  14.5  34152  289.45 0854.88
2009/04/23 12:06:28.9     298    -36     68    301    309  97.0  12.9  34158  289.53 0854.88
2009/04/23 12:06:29.0     360    -57    179    365    406  99.1  28.1  34158  289.55 0854.88
2009/04/23 12:06:29.1     309   -116     85    331    342 110.6  14.5  34146  289.32 0854.88
2009/04/23 12:06:29.2     135   -161    252    211    328 140.1  56.0  34154  289.46 0854.88
2009/04/23 12:06:29.3     -59    -49    194     77    208 230.4  77.4  34156  289.50 0854.88
2009/04/23 12:06:29.4      -6    171    167    172    239 357.8  49.2  34160  289.57 0854.88
2009/04/23 12:06:29.5    -128    177     26    219    221 324.0   6.9  34150  289.40 0854.88
2009/04/23 12:06:29.6     123    191    166    228    282  32.7  39.7  34158  289.54 0854.88
2009/04/23 12:06:29.7     177     77    143    193    240  66.5  40.4  34160  289.57 0854.88
2009/04/23 12:06:29.8     138     71    114    156    193  62.9  39.7  34158  289.55 0854.88
2009/04/23 12:06:29.9     107    100    243    147    284  46.9  66.0  34212  290.46 0854.88
2009/04/23 12:06:30.0     130    -15    138    131    190  96.6  51.6  34196  290.18 0854.88
2009/04/23 12:06:30.1     -78     65    157    102    187 310.0  64.4  34204  290.31 0854.88
2009/04/23 12:06:30.2    -262    -50    114    267    290 259.2  24.6  34182  289.95 0854.88
2009/04/23 12:06:30.3    -272     86     81    286    298 287.5  15.8  34172  289.76 0854.88
2009/04/23 12:06:30.4    -422      0    -24    423    424 270.0  -3.3  34158  289.53 0854.88
2009/04/23 12:06:30.5    -352     14     70    353    361 272.4  11.3  34146  289.35 0854.88
2009/04/23 12:06:30.6    -431    -22    166    432    462 267.0  22.2  34170  289.73 0854.88
2009/04/23 12:06:30.7    -453     40    112    455    469 275.1  13.9  34162  289.59 0854.88
2009/04/23 12:06:30.8    -459    -77    -77    466    473 260.4  -9.4  34156  289.49 0854.88
2009/04/23 12:06:30.9    -297   -139    157    328    363 244.9  27.3  34172  289.76 0854.88
2009/04/23 12:06:31.0    -376    -16    102    377    391 267.5  15.2  34162  289.62 0854.88
2009/04/23 12:06:31.1    -354     36    149    356    385 275.9  23.9  34166  289.69 0854.88
2009/04/23 12:06:31.2    -328    130     83    354    364 291.7  13.3  34160  289.57 0854.88
2009/04/23 12:06:31.3    -372      3    -14    373    374 270.6  -2.2  34164  289.64 0854.88
2009/04/23 12:06:31.4    -382    -60   -114    387    404 261.0 -16.5  34168  289.72 0854.88
2009/04/23 12:06:31.5    -525    -36    -47    527    530 266.0  -5.2  34168  289.72 0854.88
2009/04/23 12:06:31.6    -567     -3     12    568    569 269.7   1.2  34172  289.79 0854.88
2009/04/23 12:06:31.7    -395   -115     82    412    421 253.7  11.3  34164  289.65 0854.89
2009/04/23 12:06:31.8    -312    -68    194    320    374 257.6  34.1  34166  289.69 0854.89
2009/04/23 12:06:31.9    -211   -181     93    279    295 229.3  18.4  34168  289.71 0854.89
2009/04/23 12:06:32.0    -257    -60     26    264    266 256.8   5.7  34166  289.68 0854.89
2009/04/23 12:06:32.1    -310    -76   -109    320    338 256.1 -23.7  34168  289.72 0854.89
2009/04/23 12:06:32.2    -141   -144   -210    202    291 224.3 -55.6  34136  289.17 0854.89
2009/04/23 12:06:32.3    -181   -114    -96    215    235 237.8 -30.1  34146  289.33 0854.89
2009/04/23 12:06:32.4    -411   -150   -121    438    455 250.0 -15.5  34144  289.29 0854.89
2009/04/23 12:06:32.5    -413    -33   -140    415    439 265.4 -18.7  34164  289.63 0854.89
2009/04/23 12:06:32.6    -426     35   -144    428    451 274.7 -23.6  34168  289.72 0854.89
2009/04/23 12:06:32.7    -322    160   -170    360    398 296.4 -31.5  34162  289.59 0854.89
2009/04/23 12:06:32.8    -355    144    -84    384    394 292.1 -12.4  34166  289.67 0854.89
2009/04/23 12:06:32.9    -202     41   -106    207    232 281.5 -33.7  34148  289.38 0854.89
2009/04/23 12:06:33.0    -234    159   -273    283    393 304.2 -53.4  34126  289.01 0854.89
2009/04/23 12:06:33.1    -327     50   -278    331    432 278.7 -48.7  34132  289.10 0854.89
2009/04/23 12:06:33.2    -407     57   -229    412    471 278.0 -35.8  34132  289.09 0854.89
2009/04/23 12:06:33.3    -405     30   -350    407    536 274.3 -49.4  34138  289.20 0854.89
2009/04/23 12:06:33.4    -382    317   -260    497    560 309.7 -34.2  34140  289.23 0854.89
2009/04/23 12:06:33.5    -354    320    -26    478    479 312.1  -3.2  34142  289.28 0854.89
2009/04/23 12:06:33.6    -336    100   -137    351    376 286.6 -27.1  34138  289.21 0854.89
2009/04/23 12:06:33.7    -204     67    -61    215    224 288.2 -16.0  34138  289.21 0854.90
2009/04/23 12:06:33.8    -169     75    -47    185    191 294.0 -14.3  34142  289.28 0854.90
2009/04/23 12:06:33.9     -70     98    -37    121    126 324.4 -22.3  34146  289.33 0854.90
2009/04/23 12:06:34.0    -168    240    -60    294    301 325.0 -11.6  34144  289.29 0854.90
2009/04/23 12:06:34.1    -262    245   -110    359    375 313.1 -21.9  34136  289.18 0854.90
2009/04/23 12:06:34.2    -135     61   -207    149    255 294.4 -65.0  34126  289.01 0854.90
2009/04/23 12:06:34.3    -189    120   -147    225    268 302.5 -40.7  34146  289.32 0854.90
2009/04/23 12:06:34.4    -114     67   -125    133    182 300.7 -52.6  34142  289.28 0854.90
2009/04/23 12:06:34.5     -67     -3   -143     68    158 267.4 -77.6  34146  289.33 0854.90
2009/04/23 12:06:34.6      56     13    -53     58     78  76.7 -52.3  34144  289.30 0854.90
2009/04/23 12:06:34.7    -186    139     11    233    234 306.9   2.9  34152  289.42 0854.90
2009/04/23 12:06:34.8    -110    172   -103    205    229 327.4 -33.1  34144  289.30 0854.90
2009/04/23 12:06:34.9     -16    102    160    104    190 350.7  64.4  34152  289.43 0854.90
2009/04/23 12:06:35.0     -30    397    108    399    414 355.7  15.2  34138  289.19 0854.90
2009/04/23 12:06:35.1      22   -112     90    115    146 168.5  41.7  34140  289.24 0854.90
2009/04/23 12:06:35.2    -104   -144    110    178    209 215.8  35.0  34144  289.31 0854.90
2009/04/23 12:06:35.3     -33   -184     76    187    201 190.2  23.1  34144  289.30 0854.90
2009/04/23 12:06:35.4     -33   -248     44    251    255 187.6  10.1  34144  289.31 0854.90
2009/04/23 12:06:35.5    -113   -205     92    235    252 208.9  22.3  34144  289.29 0854.90
2009/04/23 12:06:35.6     -55   -194    164    202    260 196.0  43.5  34148  289.37 0854.90
2009/04/23 12:06:35.7     -25   -260     97    262    279 185.6  21.0  34142  289.25 0854.92
2009/04/23 12:06:35.8     -33   -148    188    152    241 192.9  56.9  34150  289.40 0854.92
2009/04/23 12:06:35.9      -3    -46    127     47    135 184.5  79.2  34150  289.40 0854.92
2009/04/23 12:06:36.0      95   -164    136    190    233 149.7  39.3  34150  289.40 0854.92
2009/04/23 12:06:36.1     185   -112    174    217    278 121.1  42.7  34144  289.29 0854.92
2009/04/23 12:06:36.2      28   -230    246    232    338 172.9  52.0  34150  289.41 0854.92
2009/04/23 12:06:36.3     -54   -331    264    336    427 189.3  42.2  34146  289.32 0854.92
2009/04/23 12:06:36.4    -162   -263    253    310    400 211.6  43.6  34148  289.37 0854.92
2009/04/23 12:06:36.5     -54   -285    246    291    381 190.9  44.4  34148  289.38 0854.92
2009/04/23 12:06:36.6     -70   -547    311    552    633 187.3  32.0  34148  289.37 0854.92
2009/04/23 12:06:36.7    -154   -546    282    568    634 195.8  28.4  34142  289.27 0854.92
2009/04/23 12:06:36.8    -264   -469    269    539    602 209.4  28.6  34150  289.41 0854.92
2009/04/23 12:06:36.9    -227   -480    208    532    571 205.3  22.5  34150  289.40 0854.92
2009/04/23 12:06:37.0    -173   -425    141    459    481 202.2  17.1  34146  289.34 0854.92
2009/04/23 12:06:37.1    -127   -311    206    337    394 202.3  34.3  34144  289.30 0854.92
2009/04/23 12:06:37.2    -209   -352    165    410    441 210.7  23.1  34160  289.56 0854.92
2009/04/23 12:06:37.3    -307   -316     42    441    444 224.2   5.5  34162  289.61 0854.92
2009/04/23 12:06:37.4    -211   -239    -65    320    327 221.4 -11.6  34158  289.54 0854.92
2009/04/23 12:06:37.5    -218   -314     29    383    385 214.7   4.4  34150  289.40 0854.92
2009/04/23 12:06:37.6    -252   -270    129    370    391 223.0  20.0  34146  289.35 0854.92
2009/04/23 12:06:37.7    -186   -180     41    259    263 226.0   9.0  34152  289.42 0854.94
2009/04/23 12:06:37.8    -215   -275     97    350    364 218.0  15.6  34146  289.33 0854.94
2009/04/23 12:06:37.9    -102   -480      7    491    492 192.0   0.9  34146  289.34 0854.94
2009/04/23 12:06:38.1     -78   -406    -16    414    415 191.0  -2.2  34148  289.38 0854.94
2009/04/23 12:06:38.2      40   -232    -83    236    251 170.0 -19.4  34144  289.29 0854.94
2009/04/23 12:06:38.3      16   -277    169    278    325 176.6  34.2  34144  289.31 0854.94
2009/04/23 12:06:38.4       6   -387    165    388    421 179.0  24.3  34142  289.27 0854.94
2009/04/23 12:06:38.4      27   -352     77    354    363 175.5  12.4  34142  289.26 0854.94
2009/04/23 12:06:38.6     -26   -299     89    301    314 185.1  16.5  34144  289.29 0854.94
2009/04/23 12:06:38.7     -56   -271    106    277    296 191.8  22.0  34142  289.27 0854.94
2009/04/23 12:06:38.8    -129   -204    108    242    265 212.5  25.9  34144  289.29 0854.94
2009/04/23 12:06:38.9    -111   -122     61    166    176 222.3  21.3  34146  289.35 0854.94
2009/04/23 12:06:39.0    -108    -86     95    139    168 231.4  37.6  34146  289.35 0854.94
2009/04/23 12:06:39.1    -112   -176    142    209    252 212.6  37.3  34150  289.41 0854.94
2009/04/23 12:06:39.2    -137   -105      3    173    174 232.5   1.0  34150  289.40 0854.94
2009/04/23 12:06:39.3    -145    -70     51    162    171 244.2  17.7  34148  289.38 0854.94
2009/04/23 12:06:39.4     -93    -45     60    104    120 244.2  32.9  34148  289.38 0854.94
2009/04/23 12:06:39.5     -70    -68     71     98    121 225.6  39.7  34150  289.41 0854.94
2009/04/23 12:06:39.6    -103   -103      0    146    147 224.9  -0.3  34152  289.43 0854.94
2009/04/23 12:06:39.7     -37   -100     81    107    134 200.5  41.2  34148  289.38 0854.94
2009/04/23 12:06:39.8     -38    -75     92     85    125 206.7  52.2  34150  289.41 0854.96
2009/04/23 12:06:39.9    -163     54     46    172    179 288.4  15.0  34154  289.48 0854.96
2009/04/23 12:06:40.0     -33     84     33     91     96 338.2  20.0  34154  289.48 0854.96
2009/04/23 12:06:40.1    -153    182    -21    238    239 319.9  -5.2  34160  289.56 0854.96
2009/04/23 12:06:40.2    -189    214      8    286    287 318.5   1.7  34154  289.47 0854.96
2009/04/23 12:06:40.3    -181    198     89    269    284 317.6  18.4  34152  289.42 0854.96
2009/04/23 12:06:40.4    -133    268     96    300    316 333.5  17.8  34150  289.41 0854.96
2009/04/23 12:06:40.5     -78    194     78    210    224 338.2  21.0  34156  289.52 0854.96
2009/04/23 12:06:40.6     -44    188    120    194    228 346.6  35.2  34156  289.50 0854.96
2009/04/23 12:06:40.7     -11     54    148     56    158 348.4  78.4  34156  289.52 0854.96
2009/04/23 12:06:40.8     -54    -58    138     80    159 223.2  67.2  34160  289.58 0854.96
2009/04/23 12:06:40.9     -50   -133    148    143    205 200.5  51.2  34154  289.46 0854.96
2009/04/23 12:06:41.0    -119   -163     89    202    220 216.1  25.2  34154  289.48 0854.96
2009/04/23 12:06:41.1    -105   -216     52    241    247 205.9  12.2  34152  289.42 0854.96
2009/04/23 12:06:41.2    -102   -230     87    252    267 204.1  19.2  34156  289.49 0854.96
2009/04/23 12:06:41.3      -1   -227     44    228    233 180.5  11.1  34158  289.55 0854.96
2009/04/23 12:06:41.4      56   -194     78    203    217 163.7  22.3  34156  289.52 0854.96
2009/04/23 12:06:41.5     132   -168      2    214    215 141.9   0.7  34158  289.53 0854.96
2009/04/23 12:06:41.6      64   -170    -43    182    188 159.3 -13.4  34156  289.52 0854.96
2009/04/23 12:06:41.7     130    -90    -14    159    160 124.6  -5.4  34158  289.53 0854.96
2009/04/23 12:06:41.8     189   -129     -4    230    231 124.4  -1.1  34158  289.53 0854.97
2009/04/23 12:06:41.9     132   -134    109    189    218 135.5  32.7  34152  289.45 0854.97
2009/04/23 12:06:42.0     178    -50     84    186    204 105.9  25.9  34152  289.43 0854.97
2009/04/23 12:06:42.1     172    -10     11    173    174  93.5   3.8  34150  289.41 0854.97
2009/04/23 12:06:42.2     161     12     63    162    173  85.6  22.0  34152  289.43 0854.97
2009/04/23 12:06:42.3     170    118    134    208    247  55.1  35.7  34154  289.47 0854.97
2009/04/23 12:06:42.4     -23     65    125     70    143 340.0  68.8  34158  289.55 0854.97
2009/04/23 12:06:42.5     -99    179    132    205    243 331.0  35.6  34152  289.43 0854.97
2009/04/23 12:06:42.6     -98    157     64    186    197 328.1  19.2  34154  289.46 0854.97
2009/04/23 12:06:42.7     -24    180     14    182    183 352.4   4.6  34148  289.38 0854.97
2009/04/23 12:06:42.8     -57    198     72    207    220 344.0  19.2  34156  289.50 0854.97
2009/04/23 12:06:42.9      24     -4     72     25     76  99.7  81.2  34156  289.50 0854.97
2009/04/23 12:06:43.0     191    -95     92    214    232 116.6  24.9  34152  289.45 0854.97
2009/04/23 12:06:43.1     387     16    214    388    443  87.6  31.4  34146  289.34 0854.97
2009/04/23 12:06:43.2     155    -31    270    159    313 101.4  67.0  34162  289.61 0854.97
2009/04/23 12:06:43.3     470   -144     41    492    494 107.1   4.9  34152  289.45 0854.97
2009/04/23 12:06:43.4     335    -43    239    338    413  97.4  38.7  34144  289.30 0854.97
2009/04/23 12:06:43.5     293     -8    349    294    456  91.7  55.8  34170  289.75 0854.97
2009/04/23 12:06:43.6     437     19    396    438    590  87.4  46.9  34164  289.65 0854.97
2009/04/23 12:06:43.7     425   -101    210    437    484 103.4  27.4  34156  289.50 0854.97
2009/04/23 12:06:43.8     351   -136    275    377    466 111.2  39.7  34164  289.65 0854.99
2009/04/23 12:06:43.9     146   -122    208    191    282 130.0  52.5  34152  289.44 0854.99
2009/04/23 12:06:44.0     251   -160    226    298    374 122.6  41.1  34152  289.42 0854.99
2009/04/23 12:06:44.1     275   -201    206    341    398 126.2  34.1  34150  289.40 0854.99
2009/04/23 12:06:44.2     363   -262    207    448    493 125.9  26.6  34156  289.49 0854.99
2009/04/23 12:06:44.3     276   -181    203    331    388 123.3  34.8  34150  289.40 0854.99
2009/04/23 12:06:44.4      68   -121    206    139    248 150.6  62.8  34152  289.45 0854.99
2009/04/23 12:06:44.5    -103   -279    230    298    376 200.3  41.6  34154  289.47 0854.99
2009/04/23 12:06:44.6      32   -318    227    320    392 174.2  38.8  34152  289.43 0854.99
2009/04/23 12:06:44.7     -67   -322    234    329    403 191.8  38.8  34152  289.42 0854.99
2009/04/23 12:06:44.8       0   -244    227    245    333 180.0  47.8  34158  289.54 0854.99
2009/04/23 12:06:44.9      63   -325    247    332    413 168.9  40.2  34156  289.50 0854.99
2009/04/23 12:06:45.0      42   -424    176    427    461 174.3  23.6  34152  289.43 0854.99
2009/04/23 12:06:45.1      57   -371    160    376    408 171.2  24.5  34156  289.50 0854.99
2009/04/23 12:06:45.2     111   -410    138    425    447 164.9  18.0  34154  289.48 0854.99
2009/04/23 12:06:45.3     149   -359    181    389    429 157.4  26.9  34156  289.49 0854.99
2009/04/23 12:06:45.4     186   -289    137    345    371 147.2  23.0  34156  289.50 0854.99
2009/04/23 12:06:45.5     150   -292     39    329    332 152.8   6.9  34152  289.45 0854.99
2009/04/23 12:06:45.6      99   -257     18    276    277 159.0   3.9  34154  289.47 0854.99
2009/04/23 12:06:45.7      15   -191     68    192    203 175.3  20.2  34156  289.52 0854.99
2009/04/23 12:06:45.8     -27   -203    110    205    232 187.6  30.8  34150  289.40 0855.00
2009/04/23 12:06:45.9     -16   -214    182    215    281 184.4  44.8  34156  289.51 0855.00
2009/04/23 12:06:46.0     -10   -298    109    299    318 182.0  21.0  34156  289.49 0855.00
2009/04/23 12:06:46.1      30   -243    101    245    265 172.9  23.8  34156  289.51 0855.00
2009/04/23 12:06:46.2      97   -205    100    228    248 154.6  25.2  34154  289.47 0855.00
2009/04/23 12:06:46.3      35   -222     61    225    234 170.9  15.3  34154  289.48 0855.00
2009/04/23 12:06:46.4     -32   -228     56    231    238 188.0  13.7  34158  289.53 0855.00
2009/04/23 12:06:46.5     -18   -218     78    219    232 184.9  20.2  34152  289.43 0855.00
2009/04/23 12:06:46.6      29   -257     22    259    261 173.5   4.9  34152  289.44 0855.00
2009/04/23 12:06:46.7      40   -231     11    235    236 170.0   2.8  34160  289.56 0855.00
2009/04/23 12:06:46.8      99   -397     65    410    416 165.9   9.0  34154  289.46 0854.98
2009/04/23 12:06:46.9      34   -435     52    437    441 175.5   6.8  34154  289.48 0854.98
2009/04/23 12:06:47.0      28   -444     96    445    456 176.4  12.2  34154  289.46 0854.98
2009/04/23 12:06:47.1      67   -479     17    484    485 172.0   2.1  34152  289.42 0854.98
2009/04/23 12:06:47.2      43   -507    115    509    522 175.1  12.8  34150  289.40 0854.98
2009/04/23 12:06:47.3      28   -473    130    474    492 176.5  15.4  34146  289.35 0854.98
2009/04/23 12:06:47.4      21   -464    -13    465    466 177.4  -1.6  34152  289.44 0854.98
2009/04/23 12:06:47.5     -46   -492    -39    495    497 185.4  -4.6  34156  289.49 0854.98
2009/04/23 12:06:47.6     -60   -497     -1    501    502 187.0  -0.2  34152  289.45 0854.98
2009/04/23 12:06:47.7     -56   -515     29    519    520 186.3   3.3  34154  289.48 0854.98
2009/04/23 12:06:47.8    -134   -598     -7    613    614 192.7  -0.7  34150  289.41 0854.98
2009/04/23 12:06:47.9    -363   -497   -158    616    637 216.1 -14.4  34142  289.26 0854.98
2009/04/23 12:06:48.0    -511   -378   -213    636    670 233.5 -23.5  34152  289.43 0854.98
2009/04/23 12:06:48.1    -479   -372   -222    607    646 232.1 -25.4  34156  289.50 0854.98
2009/04/23 12:06:48.2    -361   -235   -244    432    496 236.9 -36.4  34156  289.50 0854.98
2009/04/23 12:06:48.3    -328   -130   -143    353    380 248.3 -27.6  34152  289.45 0854.98
2009/04/23 12:06:48.4    -252    -75   -166    264    311 253.4 -39.9  34158  289.53 0854.98
2009/04/23 12:06:48.5    -258   -203    -97    329    343 231.8 -21.2  34154  289.47 0854.98
2009/04/23 12:06:48.6    -277   -225    -69    358    365 230.9 -11.0  34154  289.47 0854.98
2009/04/23 12:06:48.7    -241   -220     31    327    329 227.6   5.4  34154  289.47 0854.98
2009/04/23 12:06:48.8    -247   -272    -21    368    369 222.2  -3.3  34156  289.50 0855.00
2009/04/23 12:06:48.9    -264   -257     -2    369    370 225.7  -0.4  34156  289.50 0855.00
2009/04/23 12:06:49.0    -242   -256    -20    353    354 223.5  -3.3  34154  289.47 0855.00
2009/04/23 12:06:49.1    -194   -175    -10    262    263 227.8  -2.3  34158  289.53 0855.00
2009/04/23 12:06:49.2    -208   -207     90    294    308 225.2  17.0  34152  289.44 0855.00
2009/04/23 12:06:49.3    -171   -179    104    248    268 223.7  24.1  34152  289.42 0855.00
2009/04/23 12:06:49.4    -269   -118    -33    294    296 246.3  -6.5  34156  289.49 0855.00
2009/04/23 12:06:49.5    -116   -147    -63    188    198 218.1 -23.6  34152  289.43 0855.00
2009/04/23 12:06:49.6     -93   -167    -62    192    202 209.0 -18.1  34154  289.48 0855.00
2009/04/23 12:06:49.7      -8   -275     41    276    280 181.8   8.5  34154  289.47 0855.00
2009/04/23 12:06:49.8      25   -233     50    235    241 173.8  12.2  34154  289.46 0855.00
2009/04/23 12:06:49.9      87   -260     33    275    277 161.5   6.9  34154  289.47 0855.00
2009/04/23 12:06:50.0      42   -303    132    307    334 172.0  24.8  34154  289.46 0855.00
2009/04/23 12:06:50.1     212   -370    108    427    441 150.1  14.3  34150  289.41 0855.00
2009/04/23 12:06:50.2     192   -448     94    488    498 156.8  11.0  34152  289.42 0855.00
2009/04/23 12:06:50.3     285   -393    -13    486    487 144.0  -1.6  34148  289.37 0855.00
2009/04/23 12:06:50.4     242   -417     32    483    485 149.9   3.8  34150  289.40 0855.00
2009/04/23 12:06:50.5     283   -378     61    473    477 143.1   7.4  34148  289.37 0855.00
2009/04/23 12:06:50.6     306   -386     33    493    495 141.6   3.9  34146  289.34 0855.00
2009/04/23 12:06:50.7     249   -418     89    487    496 149.2  10.4  34150  289.40 0855.00
2009/04/23 12:06:50.8     111   -545     78    557    563 168.4   8.0  34156  289.50 0855.03
2009/04/23 12:06:50.9      50   -515    -34    518    520 174.4  -3.8  34152  289.44 0855.03
2009/04/23 12:06:51.0     116   -504      6    518    519 167.0   0.7  34154  289.47 0855.03
2009/04/23 12:06:51.1     -26   -565     84    566    573 182.7   8.5  34154  289.47 0855.03
2009/04/23 12:06:51.2      32   -525     68    526    531 176.5   7.4  34154  289.46 0855.03
2009/04/23 12:06:51.3      63   -479    -18    484    485 172.4  -2.2  34152  289.45 0855.03
2009/04/23 12:06:51.4     -11   -485     21    486    487 181.4   2.5  34146  289.32 0855.03
2009/04/23 12:06:51.5      48   -528    -83    531    538 174.8  -8.9  34150  289.41 0855.03
2009/04/23 12:06:51.6      41   -524    -35    526    528 175.4  -3.9  34158  289.53 0855.03
2009/04/23 12:06:51.7     -12   -513    -99    514    524 181.4 -11.0  34156  289.51 0855.03
2009/04/23 12:06:51.8     -41   -439    -24    442    443 185.4  -3.1  34156  289.49 0855.03
2009/04/23 12:06:51.9      34   -471    -42    473    475 175.8  -5.2  34156  289.52 0855.03
2009/04/23 12:06:52.0     -49   -413   -106    416    430 186.9 -14.3  34152  289.43 0855.03
2009/04/23 12:06:52.1     -60   -398    -82    403    412 188.6 -11.5  34156  289.49 0855.03
2009/04/23 12:06:52.2    -155   -320    -19    356    357 206.0  -3.1  34156  289.50 0855.03
2009/04/23 12:06:52.3    -215   -283    -31    356    358 217.2  -5.1  34168  289.71 0855.03
2009/04/23 12:06:52.4    -144   -273     62    309    316 207.9  11.5  34172  289.76 0855.03
2009/04/23 12:06:52.5    -182   -272      5    328    329 213.7   1.0  34184  289.98 0855.03
2009/04/23 12:06:52.6    -143   -196    -31    243    245 216.1  -7.3  34186  290.02 0855.03
2009/04/23 12:06:52.7    -137   -167     -8    217    218 219.4  -2.2  34188  290.04 0855.03
2009/04/23 12:06:52.8    -168   -173     38    242    246 224.1   9.0  34178  289.86 0855.03
2009/04/23 12:06:52.9    -122   -160     61    202    212 217.4  16.8  34180  289.91 0855.03
2009/04/23 12:06:53.0     -24   -204     96    206    227 186.9  27.1  34178  289.87 0855.03
2009/04/23 12:06:53.1      56   -287    177    293    342 168.9  34.1  34158  289.54 0855.03
2009/04/23 12:06:53.2      75   -334    209    343    401 167.3  34.4  34146  289.35 0855.03
2009/04/23 12:06:53.3       9   -309    231    310    386 178.2  40.2  34152  289.45 0855.03
2009/04/23 12:06:53.4      65   -246    152    255    296 165.1  33.5  34150  289.39 0855.03
2009/04/23 12:06:53.5      93   -224     97    243    261 157.3  23.0  34150  289.39 0855.03
2009/04/23 12:06:53.6      84   -208     55    225    232 158.1  13.9  34154  289.48 0855.03
2009/04/23 12:06:53.7      61   -350    -69    356    363 170.1 -11.0  34150  289.40 0855.03
2009/04/23 12:06:53.8     181   -228   -151    292    328 141.5 -33.8  34156  289.51 0855.03
2009/04/23 12:06:53.9     -82   -361    -52    371    375 192.9  -8.1  34152  289.42 0855.03
2009/04/23 12:06:54.0    -257   -378   -100    458    469 214.2 -12.4  34152  289.42 0855.03
2009/04/23 12:06:54.1    -188   -299   -217    354    415 212.1 -38.8  34142  289.28 0855.03
2009/04/23 12:06:54.2      24   -165   -257    167    306 171.5 -68.8  34150  289.39 0855.03
2009/04/23 12:06:54.3     -80    -26   -145     85    168 251.6 -71.4  34142  289.28 0855.03
2009/04/23 12:06:54.4    -107    -81   -134    135    190 232.7 -54.6  34148  289.38 0855.03
2009/04/23 12:06:54.5    -133   -232    -40    268    272 209.9  -8.6  34150  289.39 0855.03
2009/04/23 12:06:54.6     -36   -362    -20    364    365 185.7  -3.3  34152  289.42 0855.03
2009/04/23 12:06:54.7     -18   -239     65    240    249 184.5  15.2  34154  289.47 0855.03
2009/04/23 12:06:54.8     -44   -283     98    287    304 188.9  18.9  34150  289.39 0855.02
2009/04/23 12:06:54.9     256   -258     24    364    365 135.2   3.8  34154  289.47 0855.02
2009/04/23 12:06:55.0     115   -303   -100    325    341 159.1 -17.2  34156  289.50 0855.02
2009/04/23 12:06:55.1      65   -323    -10    330    331 168.6  -1.9  34148  289.38 0855.02
2009/04/23 12:06:55.2       8   -319    -75    320    329 178.5 -13.3  34156  289.49 0855.02
2009/04/23 12:06:55.3      -1   -222    -79    223    236 180.5 -24.6  34156  289.50 0855.02
2009/04/23 12:06:55.4      -1   -110    -36    111    116 180.9 -23.8  34156  289.50 0855.02
2009/04/23 12:06:55.5     -70    -68     -5     98     99 226.0  -3.1  34154  289.48 0855.02
2009/04/23 12:06:55.6    -179   -185    127    258    287 224.1  28.2  34152  289.44 0855.02
2009/04/23 12:06:55.7    -216   -185    148    285    321 229.5  29.6  34154  289.46 0855.02
2009/04/23 12:06:55.8     -27   -230    149    232    275 186.9  35.6  34158  289.53 0855.02
2009/04/23 12:06:55.9     -51   -252     32    258    261 191.6   7.1  34158  289.54 0855.02
2009/04/23 12:06:56.0    -227   -235   -112    327    346 224.0 -19.0  34158  289.55 0855.02
2009/04/23 12:06:56.1    -138   -224    -87    264    279 211.7 -18.3  34162  289.59 0855.02
2009/04/23 12:06:56.2    -145   -181    -81    232    245 218.7 -24.3  34156  289.49 0855.02
2009/04/23 12:06:56.3    -213     -3   -126    214    248 269.0 -37.8  34154  289.46 0855.02
2009/04/23 12:06:56.4    -171    101      8    199    200 300.7   2.3  34158  289.55 0855.02
2009/04/23 12:06:56.5    -131    -62     90    146    171 244.7  34.8  34156  289.50 0855.02
2009/04/23 12:06:56.6    -178     61     53    189    197 289.1  15.8  34160  289.57 0855.02
2009/04/23 12:06:56.7    -200     98     19    224    225 296.2   4.9  34160  289.57 0855.02
2009/04/23 12:06:56.8    -308    -74     70    317    325 256.5  12.6  34168  289.71 0855.00
2009/04/23 12:06:56.9    -284   -137    -67    316    324 244.2 -12.0  34164  289.63 0855.00
2009/04/23 12:06:57.0    -385    -54    112    389    405 261.9  16.1  34152  289.45 0855.00
2009/04/23 12:06:57.1    -422   -126     62    441    446 253.4   8.1  34168  289.70 0855.00
2009/04/23 12:06:57.2    -474    -32    -61    476    480 266.1  -7.3  34176  289.84 0855.00
2009/04/23 12:06:57.3    -288   -150    -41    325    328 242.5  -7.2  34164  289.63 0855.00
2009/04/23 12:06:57.4    -316    -81    -48    327    331 255.5  -8.4  34178  289.87 0855.00
2009/04/23 12:06:57.5    -260     -7     53    261    267 268.3  11.6  34156  289.51 0855.00
2009/04/23 12:06:57.6    -268    -30    -19    270    271 263.4  -4.1  34158  289.53 0855.00
2009/04/23 12:06:57.7    -292    -32    -27    294    296 263.6  -5.4  34158  289.54 0855.00
2009/04/23 12:06:57.8    -357      0    103    358    373 270.0  16.1  34158  289.54 0855.00
2009/04/23 12:06:57.9    -337   -126   -124    361    382 249.4 -19.0  34156  289.50 0855.00
2009/04/23 12:06:58.0    -314     22     25    315    317 274.1   4.6  34156  289.51 0855.00
2009/04/23 12:06:58.1    -323    -14     40    324    327 267.4   7.1  34166  289.68 0855.00
2009/04/23 12:06:58.2    -440    -80    -17    448    449 259.6  -2.2  34172  289.78 0855.00
2009/04/23 12:06:58.3    -401   -167      6    435    436 247.3   0.8  34170  289.73 0855.00
2009/04/23 12:06:58.4    -379   -171    -68    416    422 245.7  -9.3  34168  289.70 0855.00
2009/04/23 12:06:58.5    -328   -238   -144    406    432 234.1 -19.6  34158  289.55 0855.00
2009/04/23 12:06:58.6    -282   -313   -138    422    443 222.0 -23.5  34162  289.61 0855.00
2009/04/23 12:06:58.7     -19   -358    -34    359    361 183.1  -5.5  34162  289.62 0855.00
2009/04/23 12:06:58.8      60   -274     59    281    288 167.5  12.0  34164  289.63 0855.01
2009/04/23 12:06:58.9      77   -285    171    296    341 164.9  32.7  34162  289.61 0855.01
2009/04/23 12:06:59.0     166   -314     33    356    358 152.1   5.3  34158  289.54 0855.01
2009/04/23 12:06:59.1      46   -308    -17    312    313 171.5  -3.1  34156  289.51 0855.01
2009/04/23 12:06:59.2     -20   -341    -59    342    348 183.5  -9.9  34162  289.59 0855.01
2009/04/23 12:06:59.3     -35   -365    -68    367    374 185.6 -10.5  34162  289.62 0855.01
2009/04/23 12:06:59.4    -125   -465   -143    482    503 195.1 -16.6  34162  289.61 0855.01
2009/04/23 12:06:59.5       0   -460   -165    461    490 180.1 -19.7  34160  289.56 0855.01
2009/04/23 12:06:59.6       0   -449   -127    450    467 180.0 -20.4  34158  289.53 0855.01
2009/04/23 12:06:59.7     -35   -395   -152    397    425 185.2 -26.4  34158  289.55 0855.01
2009/04/23 12:06:59.8    -144   -396   -178    422    458 200.1 -28.6  34156  289.51 0855.01
2009/04/23 12:06:59.9    -283   -353   -125    453    471 218.8 -15.5  34162  289.59 0855.01
2009/04/23 12:07:00.0    -164   -493    -47    520    523 198.5  -5.2  34166  289.67 0855.01
2009/04/23 12:07:00.1     -25   -547    -45    548    550 182.7  -4.8  34156  289.51 0855.01
2009/04/23 12:07:00.2      24   -526    -49    527    530 177.3  -5.3  34158  289.55 0855.01
2009/04/23 12:07:00.3       0   -555    -34    556    558 180.0  -3.5  34150  289.41 0855.01
2009/04/23 12:07:00.4      48   -523    -37    526    528 174.7  -4.1  34142  289.28 0855.01
2009/04/23 12:07:00.5     206   -565   -118    602    614 159.9 -11.1  34154  289.46 0855.01
2009/04/23 12:07:00.6     229   -504    -24    554    555 155.5  -2.5  34150  289.40 0855.01
2009/04/23 12:07:00.7     279   -590     55    653    656 154.7   4.9  34146  289.35 0855.01
2009/04/23 12:07:00.8     282   -813     25    861    862 160.8   1.7  34154  289.46 0855.00
2009/04/23 12:07:00.9     150   -623    119    641    652 166.4  10.6  34154  289.47 0855.00
2009/04/23 12:07:01.0     249   -632    150    680    697 158.5  12.5  34146  289.34 0855.00
2009/04/23 12:07:01.1     339   -621    290    708    765 151.4  23.6  34144  289.31 0855.00
2009/04/23 12:07:01.2     273   -531    319    598    677 152.8  30.3  34148  289.37 0855.00
2009/04/23 12:07:01.3      30   -417    261    419    493 175.8  35.0  34152  289.44 0855.00
2009/04/23 12:07:01.4     -27   -366     75    367    375 184.3  11.6  34150  289.40 0855.00
2009/04/23 12:07:01.5    -174   -454     60    487    491 201.0   7.1  34152  289.42 0855.00
2009/04/23 12:07:01.6    -149   -431    -82    457    465 199.1 -10.3  34154  289.48 0855.00
2009/04/23 12:07:01.7     -33   -594    -54    595    598 183.2  -5.2  34156  289.52 0855.00
2009/04/23 12:07:01.8     -34   -531   -186    533    565 183.7 -19.3  34136  289.18 0855.00
2009/04/23 12:07:01.9      63   -597   -154    601    621 173.9 -14.4  34132  289.09 0855.00
2009/04/23 12:07:02.0      71   -602   -212    607    642 173.2 -24.4  34138  289.21 0855.00
2009/04/23 12:07:02.1     235   -499   -238    552    601 154.8 -29.4  34140  289.24 0855.00
2009/04/23 12:07:02.2     227   -460   -293    513    590 153.7 -36.7  34144  289.29 0855.00
2009/04/23 12:07:02.3     184   -439   -222    477    526 157.3 -31.3  34142  289.28 0855.00
2009/04/23 12:07:02.4     216   -472   -183    520    551 155.4 -24.6  34138  289.21 0855.00
2009/04/23 12:07:02.5     -15   -394   -244    395    464 182.2 -39.2  34142  289.27 0855.00
2009/04/23 12:07:02.6     -18   -333   -246    334    414 183.1 -44.3  34146  289.35 0855.00
2009/04/23 12:07:02.7     -98   -276   -262    294    393 199.6 -50.7  34144  289.30 0855.00
2009/04/23 12:07:02.8     141   -339   -159    368    400 157.4 -29.4  34138  289.20 0854.96
2009/04/23 12:07:02.9     140   -310    -16    341    342 155.6  -2.8  34142  289.25 0854.96
2009/04/23 12:07:03.0     115   -348     12    367    368 161.7   1.9  34142  289.28 0854.96
2009/04/23 12:07:03.1      24   -325    -33    326    328 175.8  -5.9  34144  289.29 0854.96
2009/04/23 12:07:03.2       7   -277    -72    278    288 178.4 -14.5  34144  289.29 0854.96
2009/04/23 12:07:03.3      71   -349    -24    357    358 168.4  -3.9  34146  289.32 0854.96
2009/04/23 12:07:03.4      41   -349    -32    352    354 173.3  -5.2  34138  289.20 0854.96
2009/04/23 12:07:03.5      89   -267    -42    282    286 161.5  -8.6  34140  289.22 0854.96
2009/04/23 12:07:03.6     110   -250      3    274    275 156.3   0.8  34144  289.31 0854.96
2009/04/23 12:07:03.7      98   -234    -38    254    257 157.3  -8.6  34144  289.29 0854.96
2009/04/23 12:07:03.8      35   -255   -104    258    278 172.0 -27.5  34144  289.29 0854.96
2009/04/23 12:07:03.9     -54   -449     18    453    454 186.9   2.3  34146  289.33 0854.96
2009/04/23 12:07:04.0     -65   -387    -15    393    394 189.6  -2.2  34148  289.37 0854.96
2009/04/23 12:07:04.1       0   -351      5    352    353 180.1   0.8  34144  289.30 0854.96
2009/04/23 12:07:04.2       5   -290     57    291    297 179.0  11.1  34146  289.34 0854.96
2009/04/23 12:07:04.3     -46   -229    154    234    280 191.6  36.5  34152  289.44 0854.96
2009/04/23 12:07:04.4       3   -245    112    246    270 179.3  26.2  34152  289.42 0854.96
2009/04/23 12:07:04.5    -129   -249     96    281    298 207.4  18.9  34154  289.46 0854.96
2009/04/23 12:07:04.7    -133   -282     58    312    318 205.3  10.6  34140  289.22 0854.96
2009/04/23 12:07:04.8     -82   -281    108    293    312 196.3  21.0  34146  289.34 0854.96
2009/04/23 12:07:04.8     -44   -313    163    317    356 188.0  29.3  34148  289.37 0854.93
2009/04/23 12:07:05.0    -122   -256    -15    284    285 205.5  -3.1  34150  289.41 0854.93
2009/04/23 12:07:05.1    -109   -232    -85    257    270 205.3 -23.8  34154  289.46 0854.93
2009/04/23 12:07:05.2     -85   -273    -79    287    298 197.4 -15.4  34154  289.46 0854.93
2009/04/23 12:07:05.3     -33   -227    -33    230    233 188.5  -8.2  34152  289.45 0854.93
2009/04/23 12:07:05.4      -6   -172    -48    173    179 182.2 -20.0  34152  289.43 0854.93
2009/04/23 12:07:05.5     203   -258     -1    329    330 141.8  -0.2  34148  289.38 0854.93
2009/04/23 12:07:05.6     -17   -163   -115    164    200 186.0 -43.0  34152  289.45 0854.93
2009/04/23 12:07:05.7      78   -246   -105    259    279 162.4 -27.5  34150  289.41 0854.93
2009/04/23 12:07:05.8      58   -122   -176    136    222 154.7 -62.9  34156  289.50 0854.93
2009/04/23 12:07:05.9      44   -226   -182    231    294 168.9 -46.6  34146  289.34 0854.93
2009/04/23 12:07:06.0      74   -326    136    335    361 167.1  23.4  34162  289.60 0854.93
2009/04/23 12:07:06.1      98   -277    166    295    338 160.4  31.7  34162  289.61 0854.93
2009/04/23 12:07:06.2     124   -275    106    302    321 155.7  19.4  34156  289.51 0854.93
2009/04/23 12:07:06.3      36   -289    108    292    311 172.8  21.0  34158  289.53 0854.93
2009/04/23 12:07:06.4      76   -271     16    282    283 164.2   3.3  34158  289.53 0854.93
2009/04/23 12:07:06.5    -152   -262    -42    303    307 210.1  -8.0  34154  289.46 0854.93
2009/04/23 12:07:06.6     -92   -234    -32    252    255 201.6  -7.3  34156  289.49 0854.93
2009/04/23 12:07:06.7     -76   -235    -31    248    251 197.9  -7.3  34156  289.49 0854.93
2009/04/23 12:07:06.8     -14   -217    -12    218    219 183.8  -3.3  34154  289.46 0854.93
2009/04/23 12:07:06.9      51   -213    -28    220    222 166.4  -7.5  34156  289.50 0854.95
2009/04/23 12:07:07.0      71   -197    -36    210    214 160.2  -9.8  34154  289.46 0854.95
2009/04/23 12:07:07.1      35   -154     28    158    161 167.1  10.1  34156  289.52 0854.95
2009/04/23 12:07:07.2      17   -186      9    187    188 174.7   2.8  34156  289.50 0854.95
2009/04/23 12:07:07.3      16   -149    -12    150    151 173.7  -4.6  34156  289.52 0854.95
2009/04/23 12:07:07.4     150   -118    -54    191    199 128.2 -16.0  34154  289.46 0854.95
2009/04/23 12:07:07.5     295    -42    -21    299    300  98.1  -4.1  34170  289.73 0854.95
2009/04/23 12:07:07.6     347    -38    -61    350    356  96.4  -9.9  34174  289.82 0854.95
2009/04/23 12:07:07.7     268    -25     -1    270    271  95.5  -0.3  34172  289.78 0854.95
2009/04/23 12:07:07.8     231    -10     67    232    242  92.6  16.3  34162  289.61 0854.95
2009/04/23 12:07:07.9     160   -115    129    198    236 125.7  36.3  34166  289.67 0854.94
2009/04/23 12:07:08.0     191    -40    181    196    266 101.9  47.7  34162  289.59 0854.94
2009/04/23 12:07:08.1     265     84     75    279    290  72.3  15.2  34162  289.61 0854.94
2009/04/23 12:07:08.2      28     50    163     58    173  29.9  80.2  34166  289.67 0854.94
2009/04/23 12:07:08.3       1     16    117     17    118   4.4  90.0  34184  289.97 0854.94
2009/04/23 12:07:08.4      32     39     89     51    102  39.6  67.7  34198  290.23 0854.94
2009/04/23 12:07:08.5      -6     16     97     18     98 338.2  90.0  34198  290.21 0854.94
2009/04/23 12:07:08.6     -78     36    182     87    201 294.8  72.9  34186  290.02 0854.94
2009/04/23 12:07:08.7    -190    171    174    256    309 312.0  37.4  34188  290.05 0854.94
2009/04/23 12:07:08.8    -141    168    172    220    279 319.9  41.7  34184  289.98 0854.94
2009/04/23 12:07:08.9     231    124    195    263    327  61.8  40.2  34164  289.64 0854.94
2009/04/23 12:07:09.0     319    -32    190    321    373  95.9  33.3  34170  289.74 0854.94
2009/04/23 12:07:09.1     247     23     90    249    264  84.7  20.4  34166  289.68 0854.94
2009/04/23 12:07:09.2     192     -8      9    193    194  92.4   2.9  34168  289.72 0854.94
2009/04/23 12:07:09.3     136    -19    -38    138    144  98.0 -15.5  34170  289.75 0854.94
2009/04/23 12:07:09.4      24    -27     65     37     74 138.6  67.7  34172  289.77 0854.94
2009/04/23 12:07:09.5     -30    -22    100     38    106 234.0  78.6  34174  289.80 0854.94
2009/04/23 12:07:09.6      25     -8    121     27    123 108.6  88.0  34168  289.70 0854.94
2009/04/23 12:07:09.7     -19    -30    133     36    137 212.5  84.9  34174  289.80 0854.94
2009/04/23 12:07:09.8     -17    -51     96     54    110 198.7  68.3  34166  289.67 0854.94
2009/04/23 12:07:09.9      22    -74     74     78    107 163.1  48.5  34170  289.74 0854.93
2009/04/23 12:07:10.0      22      8     70     24     74  70.0  81.2  34164  289.63 0854.93
2009/04/23 12:07:10.1      31     55    115     64    131  29.0  68.8  34164  289.63 0854.93
2009/04/23 12:07:10.2     -10    100     91    101    135 353.8  46.9  34168  289.72 0854.93
2009/04/23 12:07:10.3     -84     85    123    120    171 315.5  50.7  34172  289.79 0854.93
2009/04/23 12:07:10.4      41    -50     88     65    109 140.3  60.5  34172  289.77 0854.93
2009/04/23 12:07:10.5     -15     -4     99     16    100 254.9  90.0  34174  289.80 0854.93
2009/04/23 12:07:10.6     138      0    131    139    191  90.0  48.2  34168  289.72 0854.93
2009/04/23 12:07:10.7     273     38    272    276    387  81.9  49.9  34164  289.65 0854.93
2009/04/23 12:07:10.8     292     39     33    295    297  82.3   6.5  34162  289.59 0854.93
2009/04/23 12:07:10.9     321    159    174    359    398  63.7  27.8  34166  289.67 0854.93
2009/04/23 12:07:11.0     282    183    247    337    417  56.9  39.8  34170  289.74 0854.93
2009/04/23 12:07:11.1     217    185    225    286    363  49.5  42.2  34188  290.04 0854.93
2009/04/23 12:07:11.2     195    117    249    228    337  59.1  52.7  34176  289.85 0854.93
2009/04/23 12:07:11.3     122    192    206    228    307  32.6  46.9  34170  289.73 0854.93
2009/04/23 12:07:11.4     203    147    193    252    317  54.0  41.3  34168  289.71 0854.93
2009/04/23 12:07:11.5      98    200    151    223    269  26.1  37.4  34170  289.75 0854.93
2009/04/23 12:07:11.6     125    156     -3    201    202  38.7  -1.1  34168  289.72 0854.93
2009/04/23 12:07:11.7     113    205    141    235    274  29.0  33.7  34212  290.46 0854.93
2009/04/23 12:07:11.8     131    141    109    193    221  43.0  31.9  34196  290.18 0854.93
2009/04/23 12:07:11.9     153    143     78    210    224  46.8  21.0  34186  290.01 0854.92
2009/04/23 12:07:12.0     119    114    137    166    215  46.2  43.7  34196  290.19 0854.92
2009/04/23 12:07:12.1      99    127     61    162    173  37.9  21.3  34192  290.13 0854.92
2009/04/23 12:07:12.2     104    110     56    152    161  43.3  21.0  34198  290.21 0854.92
2009/04/23 12:07:12.3      87    105      2    137    138  39.7   1.2  34196  290.19 0854.92
2009/04/23 12:07:12.4      81    102     15    131    132  38.3   6.9  34204  290.31 0854.92
2009/04/23 12:07:12.5     165     69     66    180    191  67.2  21.0  34200  290.25 0854.92
2009/04/23 12:07:12.6     252     70    115    262    286  74.3  25.2  34206  290.34 0854.92
2009/04/23 12:07:12.7     182     -1    131    183    225  90.4  39.5  34202  290.28 0854.92
2009/04/23 12:07:12.8     146     90    109    172    203  58.2  35.5  34206  290.35 0854.92
2009/04/23 12:07:12.9      83     79     82    115    141  46.4  39.5  34194  290.16 0854.92
2009/04/23 12:07:13.0     -57      7     55     58     79 277.9  49.0  34202  290.28 0854.92
2009/04/23 12:07:13.1     -73    -23     54     77     94 252.3  38.0  34200  290.26 0854.92
2009/04/23 12:07:13.2     -57     -7     41     58     71 262.1  39.5  34200  290.25 0854.92
2009/04/23 12:07:13.3     -90    -65     46    112    121 234.0  23.6  34206  290.36 0854.92
2009/04/23 12:07:13.4    -102    -81     76    131    151 231.4  32.9  34204  290.33 0854.92
2009/04/23 12:07:13.5     -52     31    119     61    133 300.7  70.8  34204  290.33 0854.92
2009/04/23 12:07:13.6     -31    -54    131     63    145 209.9  72.8  34202  290.30 0854.92
2009/04/23 12:07:13.7     -58    -91    106    109    152 212.6  49.4  34184  289.97 0854.92
2009/04/23 12:07:13.8      30    -63     84     70    109 154.6  56.3  34180  289.92 0854.92
2009/04/23 12:07:13.9     -48   -124    188    134    230 201.4  60.8  34178  289.89 0854.89
2009/04/23 12:07:14.0     -28   -138    202    141    246 191.5  61.8  34178  289.89 0854.89
2009/04/23 12:07:14.1     -20   -173    217    175    278 186.9  57.1  34180  289.90 0854.89
2009/04/23 12:07:14.2     -29   -216    175    218    279 187.8  42.8  34176  289.85 0854.89
2009/04/23 12:07:14.3       5   -177    155    178    236 178.2  45.6  34178  289.87 0854.89
2009/04/23 12:07:14.4      13   -101    156    102    186 172.4  64.1  34180  289.91 0854.89
2009/04/23 12:07:14.5     -35   -204    282    208    350 189.8  60.1  34180  289.92 0854.89
2009/04/23 12:07:14.6     -47   -169    224    176    284 195.6  57.9  34182  289.93 0854.89
2009/04/23 12:07:14.7     -85   -165    173    186    254 207.4  47.9  34214  290.48 0854.89
2009/04/23 12:07:14.8    -114   -179    186    213    282 212.6  45.8  34228  290.71 0854.89
2009/04/23 12:07:14.9    -139   -184    171    231    287 217.0  40.1  34224  290.66 0854.89
2009/04/23 12:07:15.0    -218   -140    227    260    345 237.4  45.6  34214  290.49 0854.89
2009/04/23 12:07:15.1    -145   -171    222    225    316 220.3  49.8  34196  290.17 0854.89
2009/04/23 12:07:15.2     -67   -197    292    209    359 198.9  61.0  34198  290.22 0854.89
2009/04/23 12:07:15.3     -87   -137    264    163    310 212.5  65.1  34222  290.63 0854.89
2009/04/23 12:07:15.4     -94   -314    234    328    402 196.7  39.1  34232  290.79 0854.89
2009/04/23 12:07:15.5    -107   -273    279    294    405 201.4  48.5  34228  290.71 0854.89
2009/04/23 12:07:15.6    -141   -343    237    371    440 202.4  35.6  34220  290.58 0854.89
2009/04/23 12:07:15.7    -234   -351    164    422    452 213.7  22.5  34234  290.84 0854.89
2009/04/23 12:07:15.8    -258   -377    143    457    479 214.4  17.4  34228  290.71 0854.89
2009/04/23 12:07:15.9    -282   -554    151    622    641 207.0  13.7  34228  290.71 0854.91
2009/04/23 12:07:16.0    -181   -464    137    499    518 201.3  15.4  34212  290.45 0854.91
2009/04/23 12:07:16.1    -245   -433    193    498    534 209.5  22.4  34226  290.69 0854.91
2009/04/23 12:07:16.2    -144   -407    164    432    462 199.5  22.0  34206  290.36 0854.91
2009/04/23 12:07:16.3     -58   -467    141    471    492 187.1  16.7  34194  290.15 0854.91
2009/04/23 12:07:16.4     -80   -516    208    523    562 188.9  22.9  34194  290.14 0854.91
2009/04/23 12:07:16.5    -149   -452    175    477    508 198.3  21.0  34198  290.22 0854.91
2009/04/23 12:07:16.6    -297   -372    140    477    498 218.6  16.4  34208  290.40 0854.91
2009/04/23 12:07:16.7    -241   -291     86    379    389 219.6  12.9  34214  290.49 0854.91
2009/04/23 12:07:16.8    -196   -312     69    369    376 212.2  10.6  34218  290.57 0854.91
2009/04/23 12:07:16.9    -185   -307     90    359    371 211.0  14.2  34218  290.55 0854.91
2009/04/23 12:07:17.0    -168   -300     11    345    346 209.3   1.9  34210  290.43 0854.91
2009/04/23 12:07:17.1    -213   -261     39    337    340 219.2   6.7  34212  290.45 0854.91
2009/04/23 12:07:17.2    -209   -173    -46    272    276 230.5  -9.6  34214  290.49 0854.91
2009/04/23 12:07:17.3    -148    -89     10    174    175 238.9   3.3  34220  290.58 0854.91
2009/04/23 12:07:17.4    -116   -136    102    179    206 220.5  32.1  34226  290.69 0854.91
2009/04/23 12:07:17.5    -121   -208    109    241    264 210.3  26.2  34222  290.61 0854.91
2009/04/23 12:07:17.6     -96   -309    196    324    378 197.4  34.1  34194  290.15 0854.91
2009/04/23 12:07:17.7     -23   -304     88    305    318 184.4  16.1  34184  289.98 0854.91
2009/04/23 12:07:17.8       6   -347     97    348    362 178.9  15.6  34162  289.60 0854.91
2009/04/23 12:07:17.9      57   -373     77    378    387 171.3  11.6  34166  289.67 0854.91
2009/04/23 12:07:18.0      10   -343    160    344    379 178.3  26.9  34172  289.77 0854.91
2009/04/23 12:07:18.1      16   -361    179    362    403 177.4  28.2  34174  289.81 0854.91
2009/04/23 12:07:18.2      61   -343    209    349    406 169.8  33.7  34172  289.79 0854.91
2009/04/23 12:07:18.3     184   -384    265    426    501 154.4  35.0  34172  289.78 0854.91
2009/04/23 12:07:18.4     131   -329    264    355    442 158.3  40.4  34174  289.82 0854.91
2009/04/23 12:07:18.5      65   -146    238    161    287 155.9  62.7  34172  289.78 0854.91
2009/04/23 12:07:18.6      -5   -290    274    291    399 181.0  48.2  34174  289.82 0854.91
2009/04/23 12:07:18.7      97   -288    238    305    386 161.3  41.9  34182  289.93 0854.91
2009/04/23 12:07:18.8      94   -272    226    289    366 160.8  42.0  34172  289.76 0854.91
2009/04/23 12:07:18.9      55   -295    157    301    339 169.3  29.8  34172  289.78 0854.91
2009/04/23 12:07:19.0      48   -316    208    320    381 171.3  35.9  34164  289.64 0854.91
2009/04/23 12:07:19.1      32   -328    259    330    419 174.3  42.1  34162  289.59 0854.91
2009/04/23 12:07:19.2     -90   -317    243    330    409 195.9  39.8  34166  289.67 0854.91
2009/04/23 12:07:19.3     -90   -296    179    310    357 196.9  32.7  34170  289.74 0854.91
2009/04/23 12:07:19.4     -57   -357     98    362    376 189.2  15.2  34166  289.67 0854.91
2009/04/23 12:07:19.5      21   -392    190    393    436 176.9  27.7  34156  289.51 0854.91
2009/04/23 12:07:19.6      22   -467    196    468    507 177.2  24.1  34166  289.66 0854.91
2009/04/23 12:07:19.7      12   -413    196    414    458 178.2  27.2  34160  289.58 0854.91
2009/04/23 12:07:19.8      -6   -382    158    383    414 181.0  23.7  34160  289.58 0854.91
2009/04/23 12:07:19.9     -32   -341    186    343    390 185.4  30.9  34162  289.62 0854.94
2009/04/23 12:07:20.0     -68   -381    199    388    436 190.1  29.3  34158  289.53 0854.94
2009/04/23 12:07:20.1     -54   -354    205    359    413 188.7  32.3  34158  289.55 0854.94
2009/04/23 12:07:20.2     -96   -368    162    381    414 194.7  24.3  34176  289.85 0854.94
2009/04/23 12:07:20.3     -69   -242    114    252    276 196.0  26.2  34168  289.71 0854.94
2009/04/23 12:07:20.4    -141   -223     92    264    279 212.3  20.0  34178  289.88 0854.94
2009/04/23 12:07:20.5    -169   -266     22    316    317 212.5   4.0  34182  289.95 0854.94
2009/04/23 12:07:20.6    -310   -284     40    421    423 227.6   5.5  34172  289.78 0854.94
2009/04/23 12:07:20.7    -300   -268     67    403    409 228.3   9.5  34176  289.85 0854.94
2009/04/23 12:07:20.8    -316   -181    -19    365    366 240.2  -3.0  34162  289.60 0854.94
2009/04/23 12:07:20.9    -218   -301    -74    372    380 216.0 -11.3  34160  289.57 0854.94
2009/04/23 12:07:21.0    -204   -192   -100    281    298 226.8 -24.8  34160  289.58 0854.94
2009/04/23 12:07:21.1    -136    -97    -53    168    176 234.5 -22.8  34156  289.50 0854.94
2009/04/23 12:07:21.2     -91    -96     45    133    141 223.2  18.9  34160  289.57 0854.94
2009/04/23 12:07:21.3     -49   -138     82    147    168 199.6  31.6  34156  289.52 0854.94
2009/04/23 12:07:21.4     -67   -122    179    140    227 209.0  58.2  34156  289.52 0854.94
2009/04/23 12:07:21.5     -17   -192    179    193    263 185.1  47.9  34154  289.47 0854.94
2009/04/23 12:07:21.6      62   -174     66    186    198 160.2  19.6  34154  289.48 0854.94
2009/04/23 12:07:21.7     -43   -231     11    236    237 190.7   2.8  34154  289.47 0854.94
2009/04/23 12:07:21.8     -60   -255    -72    263    273 193.4 -15.4  34154  289.47 0854.94
2009/04/23 12:07:21.9     -50   -281     -5    286    287 190.2  -1.2  34156  289.51 0854.95
2009/04/23 12:07:22.0       0   -235    -21    236    237 179.8  -5.2  34154  289.46 0854.95
2009/04/23 12:07:22.1      11   -192     53    193    201 176.6  15.3  34154  289.48 0854.95
2009/04/23 12:07:22.2    -158   -173     16    235    236 222.5   3.9  34160  289.58 0854.95
2009/04/23 12:07:22.3     -90   -206     23    225    227 203.6   5.9  34156  289.50 0854.95
2009/04/23 12:07:22.4     -67   -185     73    197    210 200.0  21.0  34158  289.53 0854.95
2009/04/23 12:07:22.5     -36   -135    -10    140    141 195.2  -4.1  34158  289.53 0854.95
2009/04/23 12:07:22.6    -112   -133     42    175    181 220.1  13.7  34160  289.58 0854.95
2009/04/23 12:07:22.7    -141   -169     88    221    237 219.9  23.0  34158  289.55 0854.95
2009/04/23 12:07:22.8      -1   -106    147    107    181 181.0  60.5  34162  289.60 0854.95
2009/04/23 12:07:22.9      20   -204    152    206    256 174.4  39.9  34158  289.53 0854.95
2009/04/23 12:07:23.0       0   -305    154    306    342 180.1  28.6  34154  289.47 0854.95
2009/04/23 12:07:23.1     -52   -341    161    345    380 188.7  27.1  34156  289.52 0854.95
2009/04/23 12:07:23.2     -50   -290    203    295    358 189.8  37.8  34154  289.48 0854.95
2009/04/23 12:07:23.3     -64   -313    139    320    348 191.6  25.0  34156  289.52 0854.95
2009/04/23 12:07:23.4    -125   -304    124    329    351 202.4  21.6  34158  289.54 0854.95
2009/04/23 12:07:23.5     -63   -272     98    280    296 193.1  20.0  34158  289.53 0854.95
2009/04/23 12:07:23.6     -13   -288    128    289    316 182.6  25.3  34154  289.46 0854.95
2009/04/23 12:07:23.7      19   -251     97    252    270 175.6  22.0  34156  289.49 0854.95
2009/04/23 12:07:23.8     -55   -238     90    245    261 193.1  20.9  34154  289.47 0854.95
2009/04/23 12:07:23.9      25   -200    202    202    285 172.7  50.1  34156  289.51 0854.99
2009/04/23 12:07:24.0      45   -223    150    228    272 168.4  36.3  34154  289.47 0854.99
2009/04/23 12:07:24.1     135   -185    163    230    281 143.9  38.6  34152  289.44 0854.99
2009/04/23 12:07:24.2     159   -195    159    252    297 140.8  35.5  34156  289.49 0854.99
2009/04/23 12:07:24.3     121   -194    180    229    291 148.1  42.2  34148  289.36 0854.99
2009/04/23 12:07:24.4     164   -184    143    247    285 138.3  32.9  34156  289.49 0854.99
2009/04/23 12:07:24.5     133   -182     55    226    233 143.7  13.9  34152  289.45 0854.99
2009/04/23 12:07:24.6     139   -181     61    229    238 142.4  15.0  34154  289.46 0854.99
2009/04/23 12:07:24.7      44   -194     42    200    205 167.1  12.0  34156  289.50 0854.99
2009/04/23 12:07:24.8     -50   -187    -47    194    200 195.1 -13.7  34154  289.46 0854.99
2009/04/23 12:07:24.9     -91   -231    -16    249    250 201.6  -3.7  34154  289.47 0854.99
2009/04/23 12:07:25.0    -149   -154     -6    215    216 223.9  -1.6  34154  289.48 0854.99
2009/04/23 12:07:25.1    -182   -111     10    214    215 238.5   2.9  34158  289.53 0854.99
2009/04/23 12:07:25.2    -148   -123      6    193    194 230.4   1.8  34154  289.48 0854.99
2009/04/23 12:07:25.3     -76   -152    110    171    203 206.7  35.6  34158  289.55 0854.99
2009/04/23 12:07:25.4    -102   -161     78    191    206 212.5  23.4  34156  289.52 0854.99
2009/04/23 12:07:25.5    -206   -112      5    235    236 241.4   1.2  34156  289.49 0854.99
2009/04/23 12:07:25.6    -195   -183    -23    268    270 226.8  -5.1  34154  289.46 0854.99
2009/04/23 12:07:25.7    -176   -187     -8    258    259 223.3  -1.8  34156  289.51 0854.99
2009/04/23 12:07:25.8    -137   -305     79    335    345 204.3  13.3  34156  289.50 0854.99
2009/04/23 12:07:25.9    -147   -347     23    377    378 203.0   3.6  34158  289.54 0855.01
2009/04/23 12:07:26.0    -170   -160    -32    234    237 226.8  -8.0  34166  289.68 0855.01
2009/04/23 12:07:26.1     -76   -213    -29    227    229 199.6  -7.3  34168  289.72 0855.01
2009/04/23 12:07:26.2    -222   -166     60    278    285 233.1  12.2  34166  289.68 0855.01
2009/04/23 12:07:26.3    -317    -83    -95    328    341 255.3 -20.9  34164  289.64 0855.01
2009/04/23 12:07:26.4    -180     46     71    186    199 284.4  21.7  34160  289.58 0855.01
2009/04/23 12:07:26.5     -17   -147    -41    149    155 186.7 -15.5  34166  289.67 0855.01
2009/04/23 12:07:26.6     -38   -163    -54    168    176 193.4 -23.3  34164  289.63 0855.01
2009/04/23 12:07:26.7     -89   -115      7    146    147 217.9   2.8  34162  289.62 0855.01
2009/04/23 12:07:26.8     -65   -102      0    122    123 212.5  -0.3  34172  289.77 0855.01
2009/04/23 12:07:26.9     -20    -87     13     90     92 192.9   8.5  34168  289.72 0855.01
2009/04/23 12:07:27.0      76    -73     50    106    117 133.6  27.1  34166  289.69 0855.01
2009/04/23 12:07:27.1      40   -173     54    178    187 166.9  17.1  34164  289.65 0855.01
2009/04/23 12:07:27.2     -30   -113     13    118    119 195.2   6.5  34166  289.69 0855.01
2009/04/23 12:07:27.3    -131   -107      4    170    171 230.7   1.6  34170  289.75 0855.01
2009/04/23 12:07:27.4    -132   -146     -7    198    199 222.1  -2.2  34166  289.67 0855.01
2009/04/23 12:07:27.5     -91   -166     26    190    192 208.9   8.0  34160  289.57 0855.01
2009/04/23 12:07:27.6     -27   -198     33    201    204 188.0   9.5  34166  289.67 0855.01
2009/04/23 12:07:27.7       0   -240    -63    241    250 180.0 -14.7  34160  289.56 0855.01
2009/04/23 12:07:27.8      20   -210    -63    212    222 174.4 -16.6  34160  289.57 0855.01
2009/04/23 12:07:27.9      18   -215     50    216    222 175.1  13.1  34160  289.57 0855.02
2009/04/23 12:07:28.0     -85   -371    -49    381    385 193.0  -7.3  34158  289.55 0855.02
2009/04/23 12:07:28.1     -12   -362    128    363    386 182.0  19.5  34158  289.55 0855.02
2009/04/23 12:07:28.2      32   -260     75    263    274 172.9  16.0  34160  289.58 0855.02
2009/04/23 12:07:28.3     105   -265    124    286    311 158.4  25.1  34154  289.47 0855.02
2009/04/23 12:07:28.4      88   -221     57    239    246 158.2  13.5  34156  289.51 0855.02
2009/04/23 12:07:28.5      58   -225    113    233    258 165.5  27.8  34158  289.53 0855.02
2009/04/23 12:07:28.6     -18   -236    140    237    275 184.4  33.4  34158  289.54 0855.02
2009/04/23 12:07:28.7     -20   -219    128    221    255 185.3  32.4  34156  289.49 0855.02
2009/04/23 12:07:28.8     -76   -190     83    205    221 201.8  23.1  34156  289.52 0855.02
2009/04/23 12:07:28.9     -71   -214     96    226    245 198.5  24.6  34160  289.56 0855.03
2009/04/23 12:07:29.0     -87   -185     96    205    226 205.4  27.1  34156  289.52 0855.03
2009/04/23 12:07:29.1    -152   -157    102    219    241 224.1  26.6  34156  289.51 0855.03
2009/04/23 12:07:29.2    -146   -155     50    214    220 223.3  13.2  34158  289.53 0855.03
2009/04/23 12:07:29.3    -120   -141     43    186    191 220.5  13.1  34158  289.53 0855.03
2009/04/23 12:07:29.4     -92   -115     44    148    155 218.7  16.8  34162  289.60 0855.03
2009/04/23 12:07:29.5    -155   -139     42    209    214 228.2  11.4  34164  289.65 0855.03
2009/04/23 12:07:29.6    -161   -161     36    228    231 225.0   9.0  34164  289.63 0855.03
2009/04/23 12:07:29.7    -162    -42     31    168    171 255.4  10.6  34164  289.65 0855.03
2009/04/23 12:07:29.8    -181     54    129    189    228 286.6  37.6  34168  289.72 0855.03
2009/04/23 12:07:29.9    -176    153    138    234    271 310.9  33.5  34164  289.64 0855.03
2009/04/23 12:07:30.0    -250    -84    -10    264    265 251.4  -2.2  34168  289.70 0855.03
2009/04/23 12:07:30.1    -380   -138     20    405    406 250.0   2.9  34162  289.60 0855.03
2009/04/23 12:07:30.2    -465   -193   -211    504    546 247.4 -28.5  34154  289.48 0855.03
2009/04/23 12:07:30.3    -480    -58   -119    484    499 263.0 -13.8  34160  289.56 0855.03
2009/04/23 12:07:30.4    -476   -190    110    513    525 248.2  12.2  34166  289.68 0855.03
2009/04/23 12:07:30.5    -514   -193    151    550    571 249.4  15.4  34166  289.67 0855.03
2009/04/23 12:07:30.6    -302   -272    275    407    491 228.0  37.3  34166  289.69 0855.03
2009/04/23 12:07:30.7    -285   -285    156    404    433 225.0  22.2  34170  289.73 0855.03
2009/04/23 12:07:30.8    -158   -169     49    232    238 223.0  12.1  34140  289.24 0855.03
2009/04/23 12:07:30.9    -182   -134    251    227    338 233.6  53.2  34160  289.58 0855.03
2009/04/23 12:07:31.0    -151     11    117    152    191 274.4  41.7  34164  289.63 0855.03
2009/04/23 12:07:31.1    -222   -141    157    264    307 237.5  33.5  34178  289.86 0855.03
2009/04/23 12:07:31.2    -173    -95     70    198    210 241.1  20.0  34164  289.65 0855.03
2009/04/23 12:07:31.3    -192    -50    127    199    236 255.2  35.6  34178  289.87 0855.03
2009/04/23 12:07:31.4    -182    -73    128    197    234 248.2  36.3  34180  289.91 0855.03
2009/04/23 12:07:31.5    -211    -89    143    230    270 247.2  35.2  34180  289.90 0855.03
2009/04/23 12:07:31.6    -252    -86     14    267    268 251.2   3.1  34184  289.97 0855.03
2009/04/23 12:07:31.7    -167   -172     38    240    244 224.1   9.0  34176  289.85 0855.03
2009/04/23 12:07:31.8    -214   -139     -4    256    257 236.9  -1.1  34174  289.81 0855.03
2009/04/23 12:07:31.9    -238   -135     95    274    291 240.5  19.2  34170  289.73 0855.03
2009/04/23 12:07:32.0    -229   -276    112    359    377 219.6  17.3  34178  289.86 0855.03
2009/04/23 12:07:32.2    -201   -224     50    302    307 221.9   9.4  34180  289.90 0855.03
2009/04/23 12:07:32.2    -167   -274     96    322    337 211.4  16.6  34186  290.01 0855.03
2009/04/23 12:07:32.4     -28   -244     82    246    260 186.7  18.5  34174  289.80 0855.03
2009/04/23 12:07:32.5    -168   -180     97    247    265 223.0  23.0  34178  289.88 0855.03
2009/04/23 12:07:32.6    -224   -210      3    308    309 226.9   0.7  34184  289.97 0855.03
2009/04/23 12:07:32.7    -200   -259    -16    328    329 217.7  -2.8  34190  290.09 0855.03
2009/04/23 12:07:32.8    -100   -164    -62    193    202 211.4 -23.0  34190  290.09 0855.03
2009/04/23 12:07:32.9    -156   -119   -131    197    236 232.7 -41.1  34168  289.70 0855.03
2009/04/23 12:07:33.0    -149   -204     -5    253    254 216.1  -1.3  34168  289.70 0855.03
2009/04/23 12:07:33.1    -211   -284     23    355    356 216.6   3.8  34182  289.93 0855.03
2009/04/23 12:07:33.2    -174   -298     18    346    347 210.3   3.1  34178  289.87 0855.03
2009/04/23 12:07:33.3    -129   -204     18    242    243 212.5   4.4  34178  289.88 0855.03
2009/04/23 12:07:33.4     -88    -82    -43    121    129 227.3 -19.6  34180  289.92 0855.03
2009/04/23 12:07:33.5     -75    -75    -28    107    111 225.1 -15.0  34180  289.91 0855.03
2009/04/23 12:07:33.6     -85    -88    -38    123    128 224.1 -21.8  34180  289.91 0855.03
2009/04/23 12:07:33.7     -28   -141    -27    144    147 191.6 -10.9  34176  289.85 0855.03
2009/04/23 12:07:33.8      -7   -151     -8    152    153 182.7  -3.2  34178  289.87 0855.03
2009/04/23 12:07:33.9      33   -107    -19    113    115 162.6  -9.8  34178  289.87 0855.03
2009/04/23 12:07:34.0     -72    -75     38    105    111 223.7  20.0  34176  289.85 0855.03
2009/04/23 12:07:34.1      -7    -81     20     82     85 185.3  14.3  34182  289.94 0855.03
2009/04/23 12:07:34.2     -63    -14    -10     65     66 256.7  -9.3  34184  289.97 0855.03
2009/04/23 12:07:34.3      70    -33     26     78     83 115.3  18.9  34180  289.91 0855.03
2009/04/23 12:07:34.4      49    -92     47    105    115 151.9  26.2  34174  289.80 0855.03
2009/04/23 12:07:34.5      44    -76     69     89    112 149.7  42.2  34174  289.80 0855.03
2009/04/23 12:07:34.6     -17   -145    173    146    226 186.7  56.1  34174  289.82 0855.03
2009/04/23 12:07:34.7     -19   -123    123    125    175 188.9  50.2  34178  289.87 0855.03
2009/04/23 12:07:34.8     -31   -154     77    158    175 191.6  27.8  34174  289.82 0855.03
2009/04/23 12:07:34.9     -21   -139     74    141    159 188.9  29.8  34174  289.80 0855.03
2009/04/23 12:07:35.0     -46   -146     77    154    172 197.4  28.2  34172  289.77 0855.03
2009/04/23 12:07:35.1     -13   -168    104    169    198 184.7  34.4  34170  289.75 0855.03
2009/04/23 12:07:35.2      25    -74    146     79    166 161.3  69.3  34174  289.82 0855.03
2009/04/23 12:07:35.3       0    -59    130     60    143 180.9  73.5  34174  289.82 0855.03
2009/04/23 12:07:35.4      62    -69    132     93    161 138.1  61.5  34174  289.82 0855.03
2009/04/23 12:07:35.5      74   -101    140    126    188 143.5  53.3  34172  289.79 0855.03
2009/04/23 12:07:35.6      93   -106     90    142    168 138.6  35.5  34172  289.77 0855.03
2009/04/23 12:07:35.7     157   -113     97    194    216 126.0  28.5  34174  289.80 0855.03
2009/04/23 12:07:35.8     148   -135     86    201    218 132.2  24.3  34170  289.74 0855.03
2009/04/23 12:07:35.9     165    -84    106    186    214 117.1  32.4  34170  289.75 0855.03
2009/04/23 12:07:36.0     184   -109     67    215    226 120.7  17.3  34172  289.77 0855.03
2009/04/23 12:07:36.1     225   -106     35    249    252 115.2   8.0  34170  289.75 0855.03
2009/04/23 12:07:36.2     186    -69     71    199    212 110.6  19.6  34172  289.79 0855.03
2009/04/23 12:07:36.3     190    -89     74    211    224 115.2  19.4  34172  289.77 0855.03
2009/04/23 12:07:36.4     181    -48     68    188    199 105.1  20.7  34170  289.75 0855.03
2009/04/23 12:07:36.5     209    -21    163    211    266  95.9  41.7  34170  289.75 0855.03
2009/04/23 12:07:36.6     256   -147    183    296    348 119.8  34.9  34172  289.76 0855.03
2009/04/23 12:07:36.7     237   -204    149    313    346 130.7  27.3  34164  289.64 0855.03
2009/04/23 12:07:36.8     256   -193     96    321    336 127.1  16.7  34162  289.62 0855.03
2009/04/23 12:07:36.9     191   -163     96    252    269 130.4  22.0  34158  289.53 0855.03
2009/04/23 12:07:37.0     206   -193     50    283    288 133.1  10.1  34160  289.56 0855.04
2009/04/23 12:07:37.1     232   -186     93    298    313 128.7  17.4  34162  289.59 0855.04
2009/04/23 12:07:37.2     259   -142    105    296    314 118.9  20.3  34168  289.70 0855.04
2009/04/23 12:07:37.3     241   -130    101    275    292 118.4  21.0  34170  289.75 0855.04
2009/04/23 12:07:37.4     235   -122    107    266    286 117.5  23.0  34168  289.70 0855.04
2009/04/23 12:07:37.5     226    -78    106    240    262 109.1  25.2  34166  289.66 0855.04
2009/04/23 12:07:37.6     226   -157     64    276    284 124.9  13.1  34166  289.66 0855.04
2009/04/23 12:07:37.7     241   -147     77    283    294 121.5  15.2  34166  289.68 0855.04
2009/04/23 12:07:37.8     170   -140    113    221    248 129.6  29.2  34168  289.71 0855.04
2009/04/23 12:07:37.9     152    -97    134    181    225 122.5  40.1  34164  289.65 0855.04
2009/04/23 12:07:38.0      90    -81    101    122    158 131.8  44.1  34164  289.65 0855.04
2009/04/23 12:07:38.1     153   -122     83    197    213 128.6  24.1  34162  289.62 0855.04
2009/04/23 12:07:38.2     157   -118     71    197    209 127.1  20.7  34160  289.57 0855.04
2009/04/23 12:07:38.3     125    -95     77    158    175 127.3  27.8  34162  289.60 0855.04
2009/04/23 12:07:38.4     119   -116     66    167    179 134.4  22.8  34162  289.62 0855.04
2009/04/23 12:07:38.5     115   -101     69    154    168 131.3  25.7  34164  289.65 0855.04
2009/04/23 12:07:38.6      64   -101     74    120    140 147.5  35.0  34162  289.62 0855.04
2009/04/23 12:07:38.7      87    -66     66    110    128 127.3  34.0  34168  289.72 0855.04
2009/04/23 12:07:38.8      59    -69     71     91    115 139.5  42.2  34166  289.67 0855.04
2009/04/23 12:07:38.9      97   -110     48    147    155 138.6  18.4  34164  289.65 0855.04
2009/04/23 12:07:39.0     129    -82     24    153    155 122.5   9.0  34164  289.63 0855.05
2009/04/23 12:07:39.1     177    -93     21    201    203 117.8   6.1  34162  289.62 0855.05
2009/04/23 12:07:39.2     183    -66     28    195    198 110.0   8.2  34186  290.01 0855.05
2009/04/23 12:07:39.3     164    -72     63    180    191 113.7  19.4  34232  290.79 0855.05
2009/04/23 12:07:39.4     222     16    -28    223    225  85.7  -7.2  34272  291.47 0855.05
2009/04/23 12:07:39.5     260    108     -2    282    283  67.4  -0.5  34240  290.92 0855.05
2009/04/23 12:07:39.6     374     55     43    379    382  81.6   6.6  34246  291.03 0855.05
2009/04/23 12:07:39.7     378     16     18    379    380  87.5   2.8  34208  290.37 0855.05
2009/04/23 12:07:39.8     309    170     49    353    357  61.1   8.0  34230  290.76 0855.05
2009/04/23 12:07:39.9     214    176     41    278    282  50.5   8.5  34216  290.51 0855.05
2009/04/23 12:07:40.0     239    135    -29    275    277  60.5  -6.2  34186  290.02 0855.05
2009/04/23 12:07:40.1     170    -81    -10    189    190 115.4  -3.3  34190  290.09 0855.05
2009/04/23 12:07:40.2     215    -51     62    222    231 103.5  15.8  34186  290.02 0855.05
2009/04/23 12:07:40.3     266    -11     72    267    277  92.4  15.2  34194  290.14 0855.05
2009/04/23 12:07:40.4     224    -73    139    236    273 108.2  33.4  34190  290.07 0855.05
2009/04/23 12:07:40.5     108    -62    111    125    167 119.8  46.4  34186  290.02 0855.05
2009/04/23 12:07:40.6      40   -113    100    120    156 160.4  44.3  34178  289.87 0855.05
2009/04/23 12:07:40.7     123    -89     83    153    174 126.0  31.0  34226  290.70 0855.05
2009/04/23 12:07:40.8     236      9      2    237    238  87.6   0.5  34260  291.26 0855.05
2009/04/23 12:07:40.9     260     11     71    261    271  87.4  15.3  34226  290.70 0855.05
2009/04/23 12:07:41.0     173     57    114    183    215  71.6  35.2  34234  290.84 0855.10
2009/04/23 12:07:41.1     163      0    129    164    208  90.0  42.2  34210  290.43 0855.10
2009/04/23 12:07:41.2     191     -1     95    192    214  90.4  28.2  34262  291.32 0855.10
2009/04/23 12:07:41.3     158     21     52    160    169  82.3  17.9  34254  291.16 0855.10
2009/04/23 12:07:41.4     -11    -36     88     38     95 196.9  75.0  34192  290.11 0855.10
2009/04/23 12:07:41.5      14    -21     98     26    101 147.4  84.9  34192  290.11 0855.10
2009/04/23 12:07:41.6      23    -15     56     28     62 122.5  71.9  34196  290.18 0855.10
2009/04/23 12:07:41.7      35     -4     62     36     71  97.9  66.8  34192  290.11 0855.10
2009/04/23 12:07:41.8      32     10     74     34     81  71.6  74.0  34192  290.13 0855.10
2009/04/23 12:07:41.9      -4      3     74      6     74 309.5  90.0  34194  290.14 0855.10
2009/04/23 12:07:42.0       3      0     66      4     66  94.4  90.0  34196  290.18 0855.10
2009/04/23 12:07:42.1       2      0     51      3     51  90.0  90.0  34196  290.19 0855.10
2009/04/23 12:07:42.2      17     -7     51     19     54 111.7  80.2  34196  290.19 0855.10
2009/04/23 12:07:42.3      38      7     72     39     81  78.5  69.3  34198  290.21 0855.10
2009/04/23 12:07:42.4      44     12     78     46     90  74.1  66.8  34208  290.38 0855.10
2009/04/23 12:07:42.5      13    -42     37     45     58 162.2  43.8  34218  290.55 0855.10
2009/04/23 12:07:42.6      34    -36     66     50     82 136.8  59.0  34198  290.23 0855.10
2009/04/23 12:07:42.7      51    -15     71     54     89 106.8  59.0  34226  290.70 0855.10
2009/04/23 12:07:42.8      49      0     65     50     82  90.0  58.5  34268  291.42 0855.10
2009/04/23 12:07:42.9     130    -22     98    132    164  99.6  40.4  34290  291.79 0855.10
2009/04/23 12:07:43.0     106      0    106    107    150  90.0  50.0  34276  291.55 0855.05
2009/04/23 12:07:43.1     -22      7     95     24     97 288.6  85.9  34286  291.72 0855.05
2009/04/23 12:07:43.2     126     12    229    127    261  84.3  68.8  34234  290.82 0855.05
2009/04/23 12:07:43.3     118     92    133    150    200  52.2  46.2  34194  290.16 0855.05
2009/04/23 12:07:43.4     184     30     42    187    192  80.5  12.9  34210  290.43 0855.05
2009/04/23 12:07:43.5     280    107     58    300    306  69.1  11.0  34190  290.07 0855.05
2009/04/23 12:07:43.6     348    117     95    368    381  71.3  14.5  34206  290.35 0855.05
2009/04/23 12:07:43.7     326     61    120    332    354  79.4  19.9  34240  290.94 0855.05
2009/04/23 12:07:43.8     167     43     83    173    191  75.4  27.3  34226  290.69 0855.05
2009/04/23 12:07:43.9     212    154      0    263    264  54.0   0.0  34244  290.99 0855.05
2009/04/23 12:07:44.0     127     70    -52    145    154  61.1 -24.4  34240  290.94 0855.05
2009/04/23 12:07:44.1     119    -39   -111    126    167 108.2 -50.2  34236  290.87 0855.05
2009/04/23 12:07:44.2      93    -59    -85    111    139 122.4 -46.0  34236  290.87 0855.05
2009/04/23 12:07:44.3      16   -279    -25    280    282 176.6  -5.2  34224  290.66 0855.05
2009/04/23 12:07:44.4      57   -320    -90    326    339 169.8 -15.5  34224  290.66 0855.05
2009/04/23 12:07:44.5      58   -294   -105    300    318 168.7 -19.3  34224  290.65 0855.05
2009/04/23 12:07:44.6     117   -237     54    265    271 153.7  11.6  34224  290.66 0855.05
2009/04/23 12:07:44.7      34   -234    -11    237    238 171.5  -2.8  34222  290.63 0855.05
2009/04/23 12:07:44.8      37   -252     -1    255    256 171.5  -0.3  34220  290.58 0855.05
2009/04/23 12:07:44.9      47   -309    -12    313    314 171.3  -2.2  34194  290.15 0855.05
2009/04/23 12:07:45.0      49   -314      2    318    319 171.1   0.5  34198  290.20 0855.03
2009/04/23 12:07:45.1     -34   -307     41    309    312 186.5   7.6  34204  290.32 0855.03
2009/04/23 12:07:45.2      -4   -279     33    280    283 181.0   6.9  34210  290.42 0855.03
2009/04/23 12:07:45.3      -1   -275     86    276    290 180.2  17.4  34214  290.48 0855.03
2009/04/23 12:07:45.4      12   -275     32    276    278 177.3   6.7  34212  290.46 0855.03
2009/04/23 12:07:45.5      57   -305    141    311    341 169.3  26.2  34194  290.16 0855.03
2009/04/23 12:07:45.6      91   -256     74    272    283 160.4  15.3  34184  289.98 0855.03
2009/04/23 12:07:45.7      92   -295    146    310    342 162.6  27.1  34182  289.93 0855.03
2009/04/23 12:07:45.8      54   -317    115    322    341 170.2  20.2  34188  290.04 0855.03
2009/04/23 12:07:45.9      36   -272    126    275    302 172.4  26.2  34192  290.12 0855.03
2009/04/23 12:07:46.0     111   -210    120    238    266 152.1  28.7  34186  290.00 0855.03
2009/04/23 12:07:46.1      75   -188    120    203    235 158.2  33.1  34182  289.96 0855.03
2009/04/23 12:07:46.2     133   -199    121    240    268 146.2  28.5  34190  290.07 0855.03
2009/04/23 12:07:46.3     106   -199    114    226    253 151.9  28.7  34194  290.15 0855.03
2009/04/23 12:07:46.4      44   -190    115    196    227 166.9  33.4  34188  290.04 0855.03
2009/04/23 12:07:46.5      31   -201    112    204    232 171.1  31.4  34190  290.09 0855.03
2009/04/23 12:07:46.6      28   -202     70    205    217 172.0  18.9  34190  290.09 0855.03
2009/04/23 12:07:46.7     -20   -212     80    214    228 185.6  21.3  34204  290.33 0855.03
2009/04/23 12:07:46.8     -19   -193     68    195    207 185.8  19.2  34196  290.18 0855.03
2009/04/23 12:07:46.9      34   -146     71    150    165 166.7  27.0  34190  290.09 0855.03
2009/04/23 12:07:47.0      -1   -200     36    201    205 180.4  10.3  34182  289.94 0854.98
2009/04/23 12:07:47.1     -26   -195     80    197    212 187.8  23.1  34182  289.94 0854.98
2009/04/23 12:07:47.2     -11   -185     77    186    201 183.6  23.6  34178  289.89 0854.98
2009/04/23 12:07:47.3     -32   -238     87    241    256 187.8  20.7  34176  289.85 0854.98
2009/04/23 12:07:47.4     -42   -205    138    210    251 191.6  36.3  34174  289.80 0854.98
2009/04/23 12:07:47.5     -94   -277    102    293    311 198.9  19.3  34170  289.73 0854.98
2009/04/23 12:07:47.6     -59   -299     57    305    311 191.3  10.6  34168  289.70 0854.98
2009/04/23 12:07:47.7    -197   -300     69    360    367 213.3  11.0  34168  289.72 0854.98
2009/04/23 12:07:47.8    -239   -225      6    329    330 226.7   1.1  34178  289.89 0854.98
2009/04/23 12:07:47.9     -96   -133     20    165    167 215.8   7.2  34162  289.60 0854.98
2009/04/23 12:07:48.0     -18   -237    101    238    258 184.5  24.2  34170  289.73 0854.98
2009/04/23 12:07:48.1      -4   -281     51    282    287 181.0  10.3  34176  289.85 0854.98
2009/04/23 12:07:48.2    -115   -276     44    300    304 202.7   8.5  34184  289.98 0854.98
2009/04/23 12:07:48.3     -59   -380   -106    385    400 188.9 -15.4  34192  290.11 0854.98
2009/04/23 12:07:48.4     -62   -282    -94    289    303 192.5 -23.6  34214  290.48 0854.98
2009/04/23 12:07:48.5     -70   -214   -108    226    250 198.3 -31.7  34218  290.54 0854.98
2009/04/23 12:07:48.6    -129   -177   -112    220    246 216.1 -33.6  34202  290.29 0854.98
2009/04/23 12:07:48.7    -161   -144     14    217    218 228.2   3.8  34188  290.04 0854.98
2009/04/23 12:07:48.8    -150   -254     40    296    299 210.7   7.8  34180  289.90 0854.98
2009/04/23 12:07:48.9    -141   -174     82    225    239 219.0  20.9  34184  289.97 0854.98
2009/04/23 12:07:49.0     -64   -125     -7    141    142 207.1  -3.2  34178  289.89 0854.99
2009/04/23 12:07:49.1    -156    -14   -103    157    187 264.8 -40.7  34176  289.84 0854.99
2009/04/23 12:07:49.2    -265    -89   -130    280    308 251.4 -31.5  34182  289.95 0854.99
2009/04/23 12:07:49.3    -406   -107   -110    420    435 255.2 -14.7  34190  290.07 0854.99
2009/04/23 12:07:49.4    -468   -292    -93    552    560 238.0  -9.6  34162  289.60 0854.99
2009/04/23 12:07:49.5    -394   -110    -22    410    411 254.4  -3.1  34186  290.02 0854.99
2009/04/23 12:07:49.6    -340     21    -91    341    354 273.6 -15.0  34182  289.94 0854.99
2009/04/23 12:07:49.7    -328    -29   -107    330    348 264.8 -18.0  34178  289.87 0854.99
2009/04/23 12:07:49.8    -470   -102   -144    482    503 257.7 -21.5  34146  289.34 0854.99
2009/04/23 12:07:49.9    -409   -170   -132    444    463 247.4 -21.6  34168  289.72 0854.99
2009/04/23 12:07:50.0    -423   -134   -178    444    478 252.3 -27.4  34182  289.93 0854.99
2009/04/23 12:07:50.1    -523   -123   -174    538    565 256.7 -22.9  34182  289.96 0854.99
2009/04/23 12:07:50.2    -392   -216   -228    448    502 241.1 -33.5  34176  289.83 0854.99
2009/04/23 12:07:50.3    -468   -261   -253    537    593 240.8 -31.5  34174  289.81 0854.99
2009/04/23 12:07:50.4    -273   -173   -202    324    381 237.6 -39.6  34184  289.99 0854.99
2009/04/23 12:07:50.5     -63   -321   -177    328    372 191.1 -35.1  34182  289.93 0854.99
2009/04/23 12:07:50.6    -245   -185   -108    308    327 232.9 -19.3  34170  289.73 0854.99
2009/04/23 12:07:50.7     -96   -329    -27    343    345 196.4  -4.6  34182  289.94 0854.99
2009/04/23 12:07:50.8     -16   -356   -115    357    375 182.6 -23.0  34178  289.89 0854.99
2009/04/23 12:07:50.9      19   -269    -90    270    284 175.8 -23.6  34166  289.68 0854.99
2009/04/23 12:07:51.0     -65    -84   -128    107    166 217.8 -60.5  34160  289.57 0854.99
2009/04/23 12:07:51.1    -181     65    -45    193    199 290.0 -13.3  34164  289.63 0854.99
2009/04/23 12:07:51.2    -198     71    -43    211    216 289.7 -11.6  34160  289.57 0854.99
2009/04/23 12:07:51.3    -325    -90   -124    338    360 254.4 -25.4  34172  289.79 0854.99
2009/04/23 12:07:51.4    -230   -238    -30    331    333 224.0  -5.2  34166  289.69 0854.99
2009/04/23 12:07:51.5    -137   -300   -106    330    346 204.6 -23.2  34166  289.69 0854.99
2009/04/23 12:07:51.6     -42   -303    -39    307    310 188.0  -7.3  34160  289.58 0854.99
2009/04/23 12:07:51.7    -130   -299    -59    327    333 203.6 -10.3  34156  289.52 0854.99
2009/04/23 12:07:51.8    -185   -295    123    349    370 212.0  20.1  34148  289.37 0854.99
2009/04/23 12:07:51.9    -212   -205    166    296    339 226.0  31.9  34158  289.53 0854.99
2009/04/23 12:07:52.0    -226   -143    113    268    290 237.5  24.2  34164  289.64 0855.01
2009/04/23 12:07:52.1    -143   -174     90    226    243 219.4  22.8  34158  289.53 0855.01
2009/04/23 12:07:52.2    -120   -220    -10    251    252 208.7  -2.3  34160  289.58 0855.01
2009/04/23 12:07:52.3    -152   -362     49    393    397 202.8   7.1  34146  289.33 0855.01
2009/04/23 12:07:52.4    -285   -333     52    439    443 220.5   6.9  34154  289.48 0855.01
2009/04/23 12:07:52.5    -298   -291    -30    417    419 225.7  -4.1  34150  289.39 0855.01
2009/04/23 12:07:52.6    -335   -276     -2    435    436 230.5  -0.3  34152  289.44 0855.01
2009/04/23 12:07:52.7    -299   -242    -49    385    389 231.0  -7.3  34156  289.50 0855.01
2009/04/23 12:07:52.8    -231   -351    -60    421    426 213.3  -8.2  34152  289.44 0855.01
2009/04/23 12:07:52.9    -368   -276    -79    461    468 233.2  -9.8  34156  289.50 0855.01
2009/04/23 12:07:53.0    -392   -323   -136    508    526 230.5 -15.0  34158  289.55 0855.01
2009/04/23 12:07:53.1    -331   -312     17    455    456 226.7   2.2  34156  289.51 0855.01
2009/04/23 12:07:53.2    -247   -398     -2    469    470 211.9  -0.3  34158  289.54 0855.01
2009/04/23 12:07:53.3    -178   -351     61    394    399 207.0   8.9  34154  289.48 0855.01
2009/04/23 12:07:53.4    -218   -354    -97    416    428 211.6 -13.2  34156  289.49 0855.01
2009/04/23 12:07:53.5    -211   -429   -106    479    491 206.2 -12.5  34156  289.52 0855.01
2009/04/23 12:07:53.6    -282   -545   -180    614    639 207.4 -21.1  34152  289.43 0855.01
2009/04/23 12:07:53.7     -33   -604   -121    605    618 183.1 -11.3  34152  289.44 0855.01
2009/04/23 12:07:53.8     -37   -498    -27    500    501 184.3  -3.1  34160  289.56 0855.01
2009/04/23 12:07:53.9      -1   -580    -77    581    587 180.1  -7.6  34152  289.42 0855.01
2009/04/23 12:07:54.0      80   -551    -49    557    560 171.7  -5.1  34154  289.48 0855.00
2009/04/23 12:07:54.1     -85   -609   -114    616    627 188.0 -10.5  34152  289.42 0855.00
2009/04/23 12:07:54.2     -15   -625     -5    626    627 181.4  -0.5  34150  289.40 0855.00
2009/04/23 12:07:54.3     -10   -583    -63    584    588 181.0  -6.2  34150  289.41 0855.00
2009/04/23 12:07:54.4      33   -513      7    515    516 176.3   0.8  34152  289.42 0855.00
2009/04/23 12:07:54.5       5   -565    125    566    580 179.4  12.5  34146  289.34 0855.00
2009/04/23 12:07:54.6     107   -384     32    399    401 164.3   4.7  34146  289.33 0855.00
2009/04/23 12:07:54.7     156   -484     43    509    511 162.1   4.9  34150  289.39 0855.00
2009/04/23 12:07:54.8       0   -489    168    490    519 180.1  18.9  34156  289.50 0855.00
2009/04/23 12:07:54.9     100   -515     98    525    534 169.0  10.6  34152  289.43 0855.00
2009/04/23 12:07:55.0     -62   -445    105    450    463 188.0  13.2  34154  289.48 0855.00
2009/04/23 12:07:55.1     -51   -467    139    470    491 186.3  16.5  34152  289.45 0855.00
2009/04/23 12:07:55.2    -113   -444    162    459    486 194.3  20.1  34152  289.42 0855.00
2009/04/23 12:07:55.3     137   -445    219    466    514 162.8  27.0  34146  289.32 0855.00
2009/04/23 12:07:55.4     -87   -428    154    438    465 191.6  19.4  34156  289.49 0855.00
2009/04/23 12:07:55.5    -106   -369    137    385    409 196.1  19.6  34154  289.47 0855.00
2009/04/23 12:07:55.6    -227   -441    121    497    512 207.3  13.7  34154  289.47 0855.00
2009/04/23 12:07:55.7    -257   -179     -2    314    315 235.1  -0.4  34160  289.56 0855.00
2009/04/23 12:07:55.8    -173   -171    163    244    293 225.2  37.0  34158  289.54 0855.00
2009/04/23 12:07:55.9    -216   -204    159    298    337 226.7  30.5  34152  289.42 0855.00
2009/04/23 12:07:56.0      -2   -161    197    162    255 180.9  56.4  34158  289.55 0855.02
2009/04/23 12:07:56.1     -22   -201    214    203    294 186.3  52.0  34158  289.53 0855.02
2009/04/23 12:07:56.2     -67   -234    208    244    320 196.0  45.0  34156  289.49 0855.02
2009/04/23 12:07:56.3      -2   -297    195    298    356 180.5  36.3  34152  289.42 0855.02
2009/04/23 12:07:56.4     -12   -268    199    269    334 182.7  40.1  34154  289.47 0855.02
2009/04/23 12:07:56.5     -14   -401    155    402    430 182.0  22.1  34154  289.48 0855.02
2009/04/23 12:07:56.6    -126   -461    185    478    512 195.3  22.3  34154  289.47 0855.02
2009/04/23 12:07:56.7     -79   -468    264    475    543 189.6  31.4  34152  289.43 0855.02
2009/04/23 12:07:56.8     -42   -531    265    533    595 184.6  28.2  34156  289.49 0855.02
2009/04/23 12:07:56.9    -143   -490    285    511    585 196.3  31.6  34154  289.48 0855.02
2009/04/23 12:07:57.0      37   -481    288    483    562 175.5  33.5  34148  289.38 0855.02
2009/04/23 12:07:57.1    -104   -511    245    522    576 191.6  27.1  34154  289.48 0855.02
2009/04/23 12:07:57.2      -8   -475    268    476    546 181.0  32.0  34152  289.45 0855.02
2009/04/23 12:07:57.3     -34   -542    245    544    596 183.6  26.0  34156  289.51 0855.02
2009/04/23 12:07:57.4      22   -480    249    481    541 177.3  29.4  34154  289.48 0855.02
2009/04/23 12:07:57.5      -3   -415    241    416    480 180.5  32.7  34162  289.61 0855.02
2009/04/23 12:07:57.6     -17   -467    205    468    510 182.1  25.1  34160  289.56 0855.02
2009/04/23 12:07:57.7     -31   -397    229    399    460 184.5  32.4  34164  289.63 0855.02
2009/04/23 12:07:57.8     -63   -404    175    410    445 188.9  24.6  34158  289.55 0855.02
2009/04/23 12:07:57.9      -6   -366    120    367    387 181.0  18.2  34156  289.52 0855.02
2009/04/23 12:07:58.0     -48   -408    118    411    428 186.8  16.1  34158  289.55 0855.05
2009/04/23 12:07:58.1    -154   -278      4    319    320 209.0   0.8  34164  289.64 0855.05
2009/04/23 12:07:58.2    -142   -315     -8    346    347 204.3  -1.4  34158  289.54 0855.05
2009/04/23 12:07:58.3    -119   -311     17    334    335 200.9   3.0  34160  289.57 0855.05
2009/04/23 12:07:58.4    -196   -237    -97    308    324 219.7 -17.5  34160  289.56 0855.05
2009/04/23 12:07:58.5     -23   -280    -29    282    284 184.9  -6.0  34170  289.73 0855.05
2009/04/23 12:07:58.6     -50   -390     71    394    401 187.4  10.2  34182  289.94 0855.05
2009/04/23 12:07:58.7      26   -344     59    345    350 175.6   9.7  34178  289.87 0855.05
2009/04/23 12:07:58.8      72   -266     86    276    290 164.9  17.3  34164  289.64 0855.05
2009/04/23 12:07:58.9      78   -264    163    276    320 163.5  33.5  34162  289.59 0855.05
2009/04/23 12:07:59.0       8   -263     60    264    271 178.2  12.9  34162  289.61 0855.05
2009/04/23 12:07:59.1       5   -371    101    372    386 179.1  15.2  34158  289.55 0855.05
2009/04/23 12:07:59.2      -5   -431     52    432    436 180.7   6.9  34160  289.56 0855.05
2009/04/23 12:07:59.3    -134   -441     37    462    464 196.9   4.6  34164  289.63 0855.05
2009/04/23 12:07:59.4    -162   -482    184    509    542 198.6  19.9  34170  289.75 0855.05
2009/04/23 12:07:59.5    -204   -484     56    526    530 202.8   6.1  34162  289.62 0855.05
2009/04/23 12:07:59.6     -84   -474    175    482    512 190.1  20.9  34166  289.67 0855.05
2009/04/23 12:07:59.7    -128   -487    117    504    518 194.8  13.1  34164  289.64 0855.05
2009/04/23 12:07:59.8    -184   -482    124    517    532 200.9  13.6  34178  289.89 0855.05
2009/04/23 12:07:59.9    -194   -324      3    378    379 210.9   0.5  34168  289.72 0855.05
2009/04/23 12:08:00.0    -184   -459    112    495    508 201.9  12.8  34170  289.73 0855.03
2009/04/23 12:08:00.2      25   -536    172    537    564 177.3  17.8  34162  289.62 0855.03
2009/04/23 12:08:00.3      67   -479    238    484    539 172.0  28.1  34162  289.60 0855.03
2009/04/23 12:08:00.4     183   -535    154    566    587 161.1  15.3  34166  289.68 0855.03
2009/04/23 12:08:00.5     301   -501     53    585    588 149.0   5.2  34164  289.64 0855.03
2009/04/23 12:08:00.6     287   -614    -30    678    679 154.9  -2.6  34172  289.77 0855.03
2009/04/23 12:08:00.7     156   -772     24    788    789 168.5   1.8  34166  289.68 0855.03
2009/04/23 12:08:00.8       4   -865    107    866    873 179.7   7.1  34166  289.66 0855.03
2009/04/23 12:08:00.9     -96   -931     59    936    938 185.9   3.6  34162  289.59 0855.03
2009/04/23 12:08:01.0    -214   -828    -93    856    862 194.5  -6.2  34150  289.39 0855.03
2009/04/23 12:08:01.1    -161   -709   -119    728    738 192.8  -9.3  34152  289.43 0855.03
2009/04/23 12:08:01.2    -282   -858     55    904    906 198.2   3.5  34152  289.45 0855.03
2009/04/23 12:08:01.3    -407   -747   -109    851    858 208.6  -7.3  34162  289.59 0855.03
2009/04/23 12:08:01.4    -451   -788   -116    908    916 209.8  -7.3  34134  289.14 0855.03
2009/04/23 12:08:01.5    -406   -693    -94    804    810 210.4  -6.7  34134  289.13 0855.03
2009/04/23 12:08:01.6    -373   -659    -58    758    760 209.5  -4.4  34140  289.23 0855.03
2009/04/23 12:08:01.7    -372   -677   -127    773    784 208.8  -9.3  34142  289.27 0855.03
2009/04/23 12:08:01.8    -226   -640   -192    679    706 199.5 -15.8  34144  289.30 0855.03
2009/04/23 12:08:01.9    -174   -638    -95    662    669 195.3  -8.2  34148  289.38 0855.03
2009/04/23 12:08:02.0     -96   -663    -13    670    671 188.3  -1.2  34144  289.29 0855.03
2009/04/23 12:08:02.1     -61   -832    -10    835    836 184.2  -0.7  34142  289.28 0855.04
2009/04/23 12:08:02.2     -72   -856      5    860    861 184.9   0.4  34134  289.14 0855.04
2009/04/23 12:08:02.3      15   -714    106    715    723 178.7   8.5  34132  289.10 0855.04
2009/04/23 12:08:02.4      58   -688     -7    691    692 175.1  -0.6  34142  289.27 0855.04
2009/04/23 12:08:02.5      26   -758    -15    759    760 178.0  -1.2  34144  289.29 0855.04
2009/04/23 12:08:02.6      -4   -724    -47    725    727 180.4  -3.7  34142  289.27 0855.04
2009/04/23 12:08:02.7     -80   -731    -70    736    740 186.3  -5.5  34144  289.29 0855.04
2009/04/23 12:08:02.8     -41   -840    -20    842    843 182.8  -1.4  34146  289.32 0855.04
2009/04/23 12:08:02.9      -1   -904    -33    905    906 180.1  -2.1  34144  289.29 0855.04
2009/04/23 12:08:03.0      29   -799    -23    800    801 177.9  -1.7  34146  289.32 0855.04
2009/04/23 12:08:03.1      11   -753    -15    754    755 179.1  -1.2  34146  289.34 0855.04
2009/04/23 12:08:03.2       2   -717     23    718    719 179.8   1.9  34142  289.25 0855.04
2009/04/23 12:08:03.3      36   -781     97    783    790 177.3   7.1  34144  289.30 0855.04
2009/04/23 12:08:03.4      -6   -744    160    745    763 180.5  12.1  34146  289.33 0855.04
2009/04/23 12:08:03.5     -38   -755     -9    756    757 182.9  -0.7  34148  289.36 0855.04
2009/04/23 12:08:03.6     -92   -733     48    739    741 187.2   3.7  34146  289.34 0855.04
2009/04/23 12:08:03.7    -192   -594     -2    625    626 197.9  -0.2  34152  289.42 0855.04
2009/04/23 12:08:03.8    -111   -570    -51    581    584 191.1  -5.1  34154  289.46 0855.04
2009/04/23 12:08:03.9    -134   -607    102    622    631 192.5   9.3  34152  289.42 0855.04
2009/04/23 12:08:04.0    -331   -658    -45    737    739 206.7  -3.5  34150  289.40 0855.04
2009/04/23 12:08:04.1    -242   -340   -143    418    442 215.4 -18.9  34152  289.44 0855.06
2009/04/23 12:08:04.2    -114   -420    -68    436    442 195.2  -8.9  34146  289.34 0855.06
2009/04/23 12:08:04.3    -279   -382    -18    474    475 216.1  -2.3  34146  289.35 0855.06
2009/04/23 12:08:04.4    -356   -589     52    689    691 211.1   4.4  34156  289.49 0855.06
2009/04/23 12:08:04.5    -444   -417    -63    610    614 226.8  -6.0  34138  289.19 0855.06
2009/04/23 12:08:04.6    -366   -586     48    691    693 212.0   4.0  34156  289.51 0855.06
2009/04/23 12:08:04.7    -236   -537     58    587    590 203.7   5.7  34150  289.39 0855.06
2009/04/23 12:08:04.8    -247   -412     27    481    482 211.0   3.3  34148  289.37 0855.06
2009/04/23 12:08:04.9    -399   -412      8    574    575 224.1   0.8  34158  289.54 0855.06
2009/04/23 12:08:05.0    -349   -306     90    465    474 228.7  11.0  34152  289.45 0855.06
2009/04/23 12:08:05.1    -398   -519    -25    655    656 217.5  -2.2  34154  289.47 0855.06
2009/04/23 12:08:05.2    -386   -386   -184    547    578 225.0 -18.6  34142  289.28 0855.06
2009/04/23 12:08:05.3    -472   -214    -78    519    525 245.6  -8.6  34148  289.36 0855.06
2009/04/23 12:08:05.4    -535    -66   -109    540    551 262.9 -11.5  34148  289.38 0855.06
2009/04/23 12:08:05.5    -524      7   -186    525    556 270.8 -24.6  34142  289.26 0855.06
2009/04/23 12:08:05.6    -313    -44     35    317    319 261.9   6.4  34146  289.34 0855.06
2009/04/23 12:08:05.7    -296    -41    186    299    352 262.1  34.9  34154  289.47 0855.06
2009/04/23 12:08:05.8    -160   -135    158    210    262 229.8  40.7  34154  289.46 0855.06
2009/04/23 12:08:05.9    -188   -216    114    287    308 221.2  23.0  34154  289.47 0855.06
2009/04/23 12:08:06.0    -153   -293    115    331    351 207.6  19.3  34148  289.37 0855.06
2009/04/23 12:08:06.1     -82   -333     75    344    353 193.9  12.3  34152  289.42 0855.04
2009/04/23 12:08:06.2     -40   -400     -7    403    404 185.8  -1.1  34152  289.44 0855.04
2009/04/23 12:08:06.3     -10   -331    -23    332    333 181.8  -4.1  34156  289.50 0855.04
2009/04/23 12:08:06.4     -71   -233     11    244    245 197.0   2.8  34156  289.51 0855.04
2009/04/23 12:08:06.5    -141   -182     54    231    238 217.9  13.2  34154  289.46 0855.04
2009/04/23 12:08:06.6     -92   -161    -28    186    189 209.9  -8.8  34156  289.52 0855.04
2009/04/23 12:08:06.7     -13     47     20     49     52 344.0  23.0  34156  289.52 0855.04
2009/04/23 12:08:06.8      99     55     52    114    125  61.1  26.2  34158  289.53 0855.04
2009/04/23 12:08:06.9     137    -78     90    158    181 119.8  32.4  34158  289.55 0855.04
2009/04/23 12:08:07.0      53    -34    124     64    139 122.5  70.8  34156  289.50 0855.04
2009/04/23 12:08:07.1       7    -36     68     37     77 168.4  68.9  34156  289.52 0855.04
2009/04/23 12:08:07.2      -8   -122    115    123    168 184.0  48.2  34154  289.46 0855.04
2009/04/23 12:08:07.3     -43   -145     96    152    179 196.5  35.5  34152  289.45 0855.04
2009/04/23 12:08:07.4     -22   -110     57    113    126 191.5  29.2  34152  289.45 0855.04
2009/04/23 12:08:07.5     -33   -130     72    135    153 194.3  30.8  34148  289.38 0855.04
2009/04/23 12:08:07.6     -68   -146    137    162    212 204.9  44.5  34150  289.41 0855.04
2009/04/23 12:08:07.7      42   -181    131    186    227 166.9  38.6  34146  289.35 0855.04
2009/04/23 12:08:07.8     -77   -213    160    227    277 200.1  38.6  34146  289.34 0855.04
2009/04/23 12:08:07.9      39   -177    101    182    208 167.3  31.4  34150  289.41 0855.04
2009/04/23 12:08:08.0      86    -80    125    118    171 133.1  51.6  34154  289.46 0855.04
2009/04/23 12:08:08.1     135    -36    165    140    216 105.1  55.6  34148  289.38 0855.01
2009/04/23 12:08:08.2     115    -55     85    128    153 115.8  36.0  34146  289.35 0855.01
2009/04/23 12:08:08.3      87    -35     95     94    133 112.2  50.1  34142  289.26 0855.01
2009/04/23 12:08:08.4      27    -58     51     65     82 154.6  42.7  34144  289.30 0855.01
2009/04/23 12:08:08.5     -41    -75     75     86    114 209.0  45.8  34146  289.35 0855.01
2009/04/23 12:08:08.6    -101   -101     69    144    159 224.9  27.4  34140  289.24 0855.01
2009/04/23 12:08:08.7     -87   -140     32    166    170 211.9  11.1  34144  289.30 0855.01
2009/04/23 12:08:08.8    -111   -153     67    190    201 216.1  20.0  34144  289.30 0855.01
2009/04/23 12:08:08.9    -130   -137     30    190    193 223.4   9.0  34142  289.26 0855.01
2009/04/23 12:08:09.0    -112   -135    -44    176    182 219.6 -14.3  34146  289.33 0855.01
2009/04/23 12:08:09.1     -66   -100    -41    120    128 213.4 -19.1  34146  289.35 0855.01
2009/04/23 12:08:09.2    -149    -60    -61    161    172 247.8 -25.9  34146  289.35 0855.01
2009/04/23 12:08:09.3    -271     22    -96    272    289 274.8 -19.6  34148  289.36 0855.01
2009/04/23 12:08:09.4    -320     44   -152    324    357 277.9 -31.5  34156  289.52 0855.01
2009/04/23 12:08:09.5    -280    -43     -7    284    285 261.2  -1.6  34160  289.56 0855.01
2009/04/23 12:08:09.6    -224    -17     37    225    229 265.6   9.3  34166  289.69 0855.01
2009/04/23 12:08:09.7    -247    -84     22    261    263 251.2   5.0  34158  289.53 0855.01
2009/04/23 12:08:09.8    -212   -248     61    327    333 220.5  10.7  34156  289.50 0855.01
2009/04/23 12:08:09.9    -142   -267    101    303    320 208.1  18.5  34154  289.47 0855.01
2009/04/23 12:08:10.0    -176   -311    -14    358    359 209.5  -2.2  34142  289.26 0855.01
2009/04/23 12:08:10.1    -191   -312   -107    366    381 211.5 -21.2  34146  289.35 0855.02
2009/04/23 12:08:10.2    -287   -202    -31    352    354 234.8  -5.1  34152  289.45 0855.02
2009/04/23 12:08:10.3    -424   -262   -166    499    525 238.2 -23.8  34136  289.18 0855.02
2009/04/23 12:08:10.4    -292   -314     -1    430    431 222.9  -0.3  34146  289.34 0855.02
2009/04/23 12:08:10.5    -160   -304    214    344    405 207.9  35.0  34148  289.37 0855.02
2009/04/23 12:08:10.6    -195   -196    -15    277    278 224.8  -3.2  34148  289.37 0855.02
2009/04/23 12:08:10.7    -352    -97   -214    366    423 254.5 -37.4  34144  289.29 0855.02
2009/04/23 12:08:10.8    -253    -21    -18    254    255 265.2  -4.1  34146  289.34 0855.02
2009/04/23 12:08:10.9    -128   -110     16    169    170 229.3   5.7  34148  289.38 0855.02
2009/04/23 12:08:11.0    -156   -263     -6    306    307 210.7  -1.2  34150  289.41 0855.02
2009/04/23 12:08:11.1    -150   -253    163    295    337 210.7  31.4  34148  289.36 0855.02
2009/04/23 12:08:11.2    -147   -323    186    355    400 204.5  29.8  34148  289.38 0855.02
2009/04/23 12:08:11.3    -110   -288    107    309    328 200.9  19.1  34148  289.37 0855.02
2009/04/23 12:08:11.4    -117   -293     61    316    322 201.9  11.0  34148  289.37 0855.02
2009/04/23 12:08:11.5     -82   -306     76    317    326 195.1  13.5  34148  289.37 0855.02
2009/04/23 12:08:11.6       3   -264    129    265    294 179.3  27.8  34148  289.36 0855.02
2009/04/23 12:08:11.7     -57   -320    159    326    362 190.1  27.8  34148  289.37 0855.02
2009/04/23 12:08:11.8      -9   -391     61    392    397 181.4   8.9  34148  289.38 0855.02
2009/04/23 12:08:11.9     -66   -406     78    412    420 189.3  10.7  34150  289.41 0855.02
2009/04/23 12:08:12.0     -50   -466     -5    469    470 186.2  -0.7  34150  289.40 0855.02
2009/04/23 12:08:12.1     -38   -507     26    509    510 184.4   3.0  34152  289.42 0855.03
2009/04/23 12:08:12.2     -23   -482    -34    483    485 182.8  -4.1  34146  289.34 0855.03
2009/04/23 12:08:12.3     -16   -335    -53    336    341 182.8  -9.0  34148  289.37 0855.03
2009/04/23 12:08:12.4      -6   -355    -42    356    359 181.1  -6.8  34148  289.38 0855.03
2009/04/23 12:08:12.5      46   -324     17    328    329 171.9   3.1  34152  289.42 0855.03
2009/04/23 12:08:12.6      27   -294     55    296    302 174.6  10.6  34150  289.41 0855.03
2009/04/23 12:08:12.7     -21   -232     93    234    251 185.3  22.8  34150  289.41 0855.03
2009/04/23 12:08:12.8     -17   -269     84    270    283 183.6  17.4  34150  289.41 0855.03
2009/04/23 12:08:12.9     -55   -237     75    244    256 193.1  17.1  34150  289.39 0855.03
2009/04/23 12:08:13.0     -97   -206     29    228    230 205.3   7.5  34150  289.40 0855.03
2009/04/23 12:08:13.1    -147   -201    -37    250    253 216.3  -8.6  34150  289.39 0855.04
2009/04/23 12:08:13.2    -181   -262    -41    319    322 214.7  -7.4  34152  289.42 0855.04
2009/04/23 12:08:13.3    -188   -350    -57    398    403 208.3  -8.2  34152  289.45 0855.04
2009/04/23 12:08:13.4    -173   -307     49    353    357 209.5   8.0  34152  289.42 0855.04
2009/04/23 12:08:13.5    -235   -307     12    387    388 217.4   1.9  34148  289.38 0855.04
2009/04/23 12:08:13.6    -137   -453     24    474    475 196.9   2.9  34156  289.52 0855.04
2009/04/23 12:08:13.7     -88   -433     -9    443    444 191.6  -1.3  34154  289.46 0855.04
2009/04/23 12:08:13.8    -112   -353    -20    371    372 197.6  -3.1  34154  289.48 0855.04
2009/04/23 12:08:13.9    -222   -290    -31    366    368 217.5  -4.9  34158  289.55 0855.04
2009/04/23 12:08:14.0    -129   -239    -89    272    286 208.5 -23.6  34156  289.51 0855.04
2009/04/23 12:08:14.1     -38   -323    -80    326    336 186.8 -13.9  34164  289.64 0855.04
2009/04/23 12:08:14.2    -132   -349   -135    374    397 200.8 -25.0  34162  289.59 0855.04
2009/04/23 12:08:14.3    -101   -307    -98    324    339 198.3 -17.0  34154  289.48 0855.04
2009/04/23 12:08:14.4    -135   -409   -137    431    453 198.3 -17.7  34150  289.41 0855.04
2009/04/23 12:08:14.5    -150   -366   -115    396    412 202.3 -20.8  34154  289.48 0855.04
2009/04/23 12:08:14.6    -186   -372   -143    416    439 206.6 -24.0  34160  289.56 0855.04
2009/04/23 12:08:14.7    -174   -338   -181    381    421 207.3 -31.7  34158  289.53 0855.04
2009/04/23 12:08:14.8    -187   -295   -126    350    373 212.3 -19.8  34158  289.54 0855.04
2009/04/23 12:08:14.9     -57   -323    -98    329    344 190.1 -16.6  34158  289.55 0855.04
2009/04/23 12:08:15.0      58   -452      0    456    457 172.7   0.0  34152  289.44 0855.04
2009/04/23 12:08:15.1      34   -455      0    457    458 175.7   0.1  34152  289.43 0855.03
2009/04/23 12:08:15.2     -32   -415     21    417    418 184.5   2.9  34156  289.49 0855.03
2009/04/23 12:08:15.3     -25   -373     81    374    383 183.9  12.3  34152  289.43 0855.03
2009/04/23 12:08:15.4      97   -367    157    380    411 165.2  23.7  34152  289.42 0855.03
2009/04/23 12:08:15.5      71   -424    187    431    469 170.4  25.0  34152  289.44 0855.03
2009/04/23 12:08:15.6     -11   -404    208    405    455 181.6  29.3  34156  289.49 0855.03
2009/04/23 12:08:15.7     140   -374    298    400    498 159.4  40.4  34152  289.44 0855.03
2009/04/23 12:08:15.8     114   -371    282    389    480 162.8  39.5  34158  289.53 0855.03
2009/04/23 12:08:15.9     172   -297    272    344    438 150.0  42.4  34158  289.53 0855.03
2009/04/23 12:08:16.0     102   -377    191    391    435 164.9  28.1  34150  289.41 0855.03
2009/04/23 12:08:16.1      59   -289    201    296    357 168.4  37.4  34152  289.45 0855.03
2009/04/23 12:08:16.2     -23   -253    164    255    303 185.3  35.6  34150  289.41 0855.03
2009/04/23 12:08:16.3      75   -222    169    235    289 161.3  39.5  34156  289.49 0855.03
2009/04/23 12:08:16.4     139   -236    207    274    343 149.5  40.9  34158  289.54 0855.03
2009/04/23 12:08:16.5     146   -222    235    266    354 146.6  45.9  34158  289.53 0855.03
2009/04/23 12:08:16.6     180   -255    206    313    374 144.8  36.4  34156  289.52 0855.03
2009/04/23 12:08:16.7      75   -278    222    289    364 164.9  41.5  34154  289.47 0855.03
2009/04/23 12:08:16.8     -43   -317    189    320    371 187.8  33.4  34156  289.50 0855.03
2009/04/23 12:08:16.9     -38   -302    248    305    393 187.2  43.3  34154  289.48 0855.03
2009/04/23 12:08:17.0      66   -280    202    288    351 166.6  38.5  34158  289.54 0855.03
2009/04/23 12:08:17.1     -14   -269    169    270    318 183.1  35.0  34160  289.56 0855.03
2009/04/23 12:08:17.2      -4   -305    110    306    326 180.9  19.9  34162  289.59 0855.03
2009/04/23 12:08:17.3      46   -266     84    271    284 170.2  17.3  34160  289.56 0855.03
2009/04/23 12:08:17.4       7   -249     77    250    262 178.2  17.3  34158  289.53 0855.03
2009/04/23 12:08:17.5    -161   -234    131    285    313 214.5  26.4  34154  289.47 0855.03
2009/04/23 12:08:17.6     -55   -247    105    254    274 192.7  23.8  34148  289.37 0855.03
2009/04/23 12:08:17.7      43   -215     77    220    234 168.5  19.4  34156  289.50 0855.03
2009/04/23 12:08:17.8     -12   -231     34    232    235 183.1   8.5  34158  289.53 0855.03
2009/04/23 12:08:17.9      24   -287     14    289    290 175.1   2.8  34156  289.51 0855.03
2009/04/23 12:08:18.0      -9   -370     20    371    372 181.5   3.1  34154  289.47 0855.03
2009/04/23 12:08:18.1      -8   -401     58    402    407 181.2   8.2  34154  289.48 0855.03
2009/04/23 12:08:18.2     -17   -456     23    457    458 182.2   2.9  34158  289.53 0855.03
2009/04/23 12:08:18.3     -11   -464     -2    465    466 181.4  -0.3  34156  289.50 0855.03
2009/04/23 12:08:18.4     -33   -433      7    435    436 184.5   1.0  34154  289.48 0855.03
2009/04/23 12:08:18.5      13   -417     23    418    419 178.2   3.2  34156  289.49 0855.03
2009/04/23 12:08:18.6       3   -412    -23    413    414 179.5  -3.3  34160  289.58 0855.03
2009/04/23 12:08:18.7       9   -399     13    400    401 178.6   1.9  34154  289.47 0855.03
2009/04/23 12:08:18.8      15   -367    167    368    404 177.7  26.2  34152  289.45 0855.03
2009/04/23 12:08:18.9      75   -324    117    333    352 166.9  20.3  34156  289.50 0855.03
2009/04/23 12:08:19.0     102   -377    106    391    406 164.9  15.1  34152  289.45 0855.03
2009/04/23 12:08:19.1      79   -331     29    341    343 166.5   4.9  34152  289.43 0854.99
2009/04/23 12:08:19.2     131   -299    -20    327    328 156.3  -3.5  34154  289.46 0854.99
2009/04/23 12:08:19.3     153   -322    -95    357    370 154.5 -15.0  34156  289.50 0854.99
2009/04/23 12:08:19.4      75   -203    -40    217    221 159.5 -10.5  34154  289.48 0854.99
2009/04/23 12:08:19.5     119   -132     17    178    179 137.9   5.7  34154  289.48 0854.99
2009/04/23 12:08:19.6     111   -193     27    223    225 150.1   7.1  34158  289.53 0854.99
2009/04/23 12:08:19.8      55   -291    -79    297    308 169.3 -15.1  34156  289.51 0854.99
2009/04/23 12:08:19.8      50   -239    -49    245    250 168.2 -11.3  34156  289.51 0854.99
2009/04/23 12:08:19.9      35   -300    101    303    320 173.3  18.6  34140  289.22 0854.99
2009/04/23 12:08:20.0      74   -221    133    234    269 161.3  32.1  34156  289.51 0854.99
2009/04/23 12:08:20.1      15   -252    165    253    302 176.4  36.0  34152  289.44 0854.99
2009/04/23 12:08:20.2       0   -265    124    266    293 180.0  27.1  34152  289.44 0854.99
2009/04/23 12:08:20.3      26   -269     94    271    287 174.4  19.2  34152  289.42 0854.99
2009/04/23 12:08:20.4      56   -256    166    263    311 167.5  35.5  34154  289.46 0854.99
2009/04/23 12:08:20.5      61   -256    202    264    332 166.4  41.3  34160  289.58 0854.99
2009/04/23 12:08:20.6      61   -225    198    234    306 164.8  44.5  34158  289.53 0854.99
2009/04/23 12:08:20.7      24   -233    140    235    273 174.0  33.5  34156  289.49 0854.99
2009/04/23 12:08:20.8     -20   -286    197    287    348 184.0  37.8  34154  289.47 0854.99
2009/04/23 12:08:20.9       1   -185    206    186    277 179.5  53.3  34156  289.51 0854.99
2009/04/23 12:08:21.0      19   -211    160    213    266 174.7  40.7  34160  289.56 0854.99
2009/04/23 12:08:21.1      59   -214    102    223    245 164.4  26.2  34160  289.58 0854.97
2009/04/23 12:08:21.2      85   -151    115    174    208 150.6  36.5  34158  289.53 0854.97
2009/04/23 12:08:21.3     108   -128    110    168    200 139.9  36.5  34160  289.57 0854.97
2009/04/23 12:08:21.4      80    -97     69    126    143 140.4  31.4  34158  289.53 0854.97
2009/04/23 12:08:21.5      51   -108     63    120    135 154.7  29.8  34154  289.48 0854.97
2009/04/23 12:08:21.6      17   -246     72    247    258 176.0  16.3  34156  289.51 0854.97
2009/04/23 12:08:21.7      45   -214     42    219    224 168.0  11.0  34156  289.50 0854.97
2009/04/23 12:08:21.8      27   -279    -15    281    282 174.4  -3.2  34156  289.51 0854.97
2009/04/23 12:08:21.9      78   -263     -5    275    276 163.5  -1.1  34156  289.49 0854.97
2009/04/23 12:08:22.0      66   -228    -27    238    240 163.7  -6.7  34154  289.47 0854.97
2009/04/23 12:08:22.1      66   -164     40    178    183 157.9  12.9  34154  289.48 0854.97
2009/04/23 12:08:22.2      80   -157     51    177    185 152.8  16.3  34156  289.52 0854.97
2009/04/23 12:08:22.3      69   -160     30    175    178 156.6   9.9  34158  289.53 0854.97
2009/04/23 12:08:22.4     -23   -187     68    189    200 187.1  20.4  34156  289.50 0854.97
2009/04/23 12:08:22.5     -59   -158     78    169    186 200.7  26.6  34154  289.48 0854.97
2009/04/23 12:08:22.6     -39   -110     49    117    126 199.6  23.6  34158  289.55 0854.97
2009/04/23 12:08:22.7     -13   -166    148    167    223 184.7  46.2  34156  289.50 0854.97
2009/04/23 12:08:22.8      -4   -265    153    266    306 180.9  32.4  34158  289.54 0854.97
2009/04/23 12:08:22.9      40   -287    143    290    323 172.0  28.1  34158  289.53 0854.97
2009/04/23 12:08:23.0      63   -357     70    363    370 170.0  11.0  34156  289.50 0854.97
2009/04/23 12:08:23.1      48   -416     33    419    421 173.3   4.6  34152  289.44 0854.95
2009/04/23 12:08:23.2      28   -348     27    350    352 175.3   4.5  34156  289.50 0854.95
2009/04/23 12:08:23.3     145   -308     42    341    344 154.7   7.1  34158  289.54 0854.95
2009/04/23 12:08:23.4     162   -285     58    329    335 150.4  10.0  34156  289.52 0854.95
2009/04/23 12:08:23.5     114   -282    148    305    339 157.9  27.8  34154  289.47 0854.95
2009/04/23 12:08:23.6      66   -214    131    225    260 162.8  33.1  34154  289.46 0854.95
2009/04/23 12:08:23.7      10   -225     66    226    236 177.4  16.3  34156  289.52 0854.95
2009/04/23 12:08:23.8      80   -362    106    371    387 167.5  16.0  34154  289.48 0854.95
2009/04/23 12:08:23.9     105   -360     52    376    380 163.7   7.9  34156  289.52 0854.95
2009/04/23 12:08:24.0      84   -334    104    345    361 165.9  16.8  34156  289.50 0854.95
2009/04/23 12:08:24.1     120   -308    124    331    353 158.7  21.5  34156  289.50 0854.95
2009/04/23 12:08:24.2     123   -264    141    292    324 155.1  27.4  34154  289.47 0854.95
2009/04/23 12:08:24.3     136   -213     96    253    270 147.4  21.7  34156  289.51 0854.95
2009/04/23 12:08:24.4     142   -224    114    266    289 147.5  24.9  34154  289.47 0854.95
2009/04/23 12:08:24.5     135   -279     84    311    323 154.1  15.1  34158  289.53 0854.95
2009/04/23 12:08:24.6     151   -308     53    344    349 153.9   8.9  34156  289.50 0854.95
2009/04/23 12:08:24.7     148   -302     27    337    339 153.8   4.7  34156  289.50 0854.95
2009/04/23 12:08:24.8     151   -277     17    316    317 151.3   3.2  34154  289.47 0854.95
2009/04/23 12:08:24.9     183   -228    -10    293    294 141.3  -2.1  34154  289.47 0854.95
2009/04/23 12:08:25.0     128   -230    -63    264    272 150.8 -13.4  34154  289.46 0854.95
2009/04/23 12:08:25.1     132   -231   -100    267    285 150.2 -25.7  34156  289.49 0854.93
2009/04/23 12:08:25.2     142   -171    -86    223    239 140.3 -26.4  34158  289.53 0854.93
2009/04/23 12:08:25.3     104   -239   -123    261    288 156.4 -31.5  34158  289.53 0854.93
2009/04/23 12:08:25.4      -1   -198     36    199    203 180.5  10.3  34146  289.33 0854.93
2009/04/23 12:08:25.5     -16   -303     75    304    314 183.1  13.9  34154  289.47 0854.93
2009/04/23 12:08:25.6     -30   -292    123    294    318 186.0  23.9  34154  289.46 0854.93
2009/04/23 12:08:25.7       4   -271    166    272    318 179.1  34.3  34156  289.49 0854.93
2009/04/23 12:08:25.8      -7   -370    190    371    416 181.1  29.3  34152  289.45 0854.93
2009/04/23 12:08:25.9     -73   -314    166    323    363 193.1  29.3  34156  289.50 0854.93
2009/04/23 12:08:26.0    -104   -331    164    348    384 197.5  27.1  34152  289.45 0854.93
2009/04/23 12:08:26.1     -37   -259    173    262    313 188.2  36.7  34154  289.46 0854.93
2009/04/23 12:08:26.2      49   -184    102    191    216 164.9  30.3  34156  289.50 0854.93
2009/04/23 12:08:26.3      24   -203     71    205    218 173.1  19.2  34158  289.53 0854.93
2009/04/23 12:08:26.4     -48   -213     72    219    231 192.7  18.4  34154  289.48 0854.93
2009/04/23 12:08:26.5     -19   -232     85    233    248 184.7  20.9  34156  289.51 0854.93
2009/04/23 12:08:26.6    -154   -227    133    275    305 214.3  27.3  34154  289.46 0854.93
2009/04/23 12:08:26.7     -80   -118      7    143    144 214.2   2.8  34160  289.57 0854.93
2009/04/23 12:08:26.8       4    -61    123     62    137 175.6  71.4  34156  289.52 0854.93
2009/04/23 12:08:26.9      94   -194     48    216    222 154.1  12.6  34154  289.46 0854.93
2009/04/23 12:08:27.1     196   -179     72    266    276 132.4  15.2  34158  289.53 0854.93
2009/04/23 12:08:27.1     254   -127     92    285    300 116.6  17.9  34158  289.54 0854.92
2009/04/23 12:08:27.2     141   -182    134    231    267 142.4  32.7  34152  289.42 0854.92
2009/04/23 12:08:27.3      58   -244    176    251    306 166.4  38.5  34154  289.46 0854.92
2009/04/23 12:08:27.4     188   -227     46    296    300 140.4   9.0  34154  289.46 0854.92
2009/04/23 12:08:27.5     241   -325     26    405    406 143.4   3.8  34156  289.49 0854.92
2009/04/23 12:08:27.7     214   -227    -37    312    315 136.7  -6.8  34152  289.44 0854.92
2009/04/23 12:08:27.8     240   -348     42    423    426 145.4   5.7  34152  289.43 0854.92
2009/04/23 12:08:27.9     277   -398    -23    486    487 145.2  -2.8  34152  289.44 0854.92
2009/04/23 12:08:28.0     312   -383    -19    495    496 140.8  -2.2  34146  289.35 0854.92
2009/04/23 12:08:28.1     289   -474     72    556    561 148.6   7.4  34154  289.48 0854.92
2009/04/23 12:08:28.2      92   -381    173    392    428 166.4  25.3  34150  289.41 0854.92
2009/04/23 12:08:28.3      27   -368    274    369    459 175.7  40.2  34156  289.49 0854.92
2009/04/23 12:08:28.4      12   -269    289    270    395 177.3  52.2  34150  289.40 0854.92
2009/04/23 12:08:28.5      63   -106    162    124    204 149.3  58.7  34156  289.52 0854.92
2009/04/23 12:08:28.6      74   -222    176    235    293 161.5  40.6  34158  289.53 0854.92
2009/04/23 12:08:28.7      60   -179    151    190    242 161.3  42.4  34156  289.52 0854.92
2009/04/23 12:08:28.8    -143   -417    186    442    479 199.0  24.2  34152  289.42 0854.92
2009/04/23 12:08:28.9    -227   -327     81    399    408 214.7  11.6  34162  289.61 0854.92
2009/04/23 12:08:29.0      90   -161    140    185    232 150.8  40.9  34150  289.40 0854.92
2009/04/23 12:08:29.1     192   -240    155    308    344 141.3  28.6  34158  289.54 0854.92
2009/04/23 12:08:29.2      52   -158     92    167    190 161.5  31.3  34156  289.52 0854.94
2009/04/23 12:08:29.3     103   -280     70    299    308 159.7  13.2  34160  289.58 0854.94
2009/04/23 12:08:29.4     157   -323    164    360    395 154.1  26.2  34156  289.50 0854.94
2009/04/23 12:08:29.5     174   -405     95    442    453 156.7  12.1  34152  289.44 0854.94
2009/04/23 12:08:29.6     156   -179    208    238    316 139.0  45.7  34148  289.37 0854.94
2009/04/23 12:08:29.7     -23   -301    253    302    393 184.4  44.3  34160  289.57 0854.94
2009/04/23 12:08:29.8     -45   -328    364    332    492 187.8  53.0  34160  289.56 0854.94
2009/04/23 12:08:29.9    -172   -198    289    263    390 221.0  53.2  34148  289.38 0854.94
2009/04/23 12:08:30.0     -81    128    160    152    220 327.5  52.0  34158  289.53 0854.94
2009/04/23 12:08:30.1     165     86    162    187    247  62.5  45.4  34162  289.60 0854.94
2009/04/23 12:08:30.2      -8    111    205    112    233 355.5  68.9  34160  289.58 0854.94
2009/04/23 12:08:30.3     -28      9    162     30    164 288.6  90.0  34164  289.65 0854.94
2009/04/23 12:08:30.4     180     -3    159    181    240  91.0  45.9  34158  289.55 0854.94
2009/04/23 12:08:30.5      80     11    153     81    173  82.1  69.8  34164  289.63 0854.94
2009/04/23 12:08:30.6       4     -2    108      5    108 122.4  90.0  34166  289.67 0854.94
2009/04/23 12:08:30.7     -51    -61    108     80    134 219.6  60.0  34168  289.70 0854.94
2009/04/23 12:08:30.8     -97    -40     85    106    135 247.4  43.3  34162  289.60 0854.94
2009/04/23 12:08:30.9     -96      8    121     97    155 275.2  56.4  34162  289.62 0854.94
2009/04/23 12:08:31.0    -101     -7     77    102    127 265.6  41.6  34164  289.63 0854.94
2009/04/23 12:08:31.1    -177    -13    106    178    207 265.6  33.5  34160  289.57 0854.94
2009/04/23 12:08:31.2    -254    -35    158    257    301 262.1  34.5  34162  289.59 0854.96
2009/04/23 12:08:31.3      66     26    212     72    223  68.3  81.2  34154  289.48 0854.96
2009/04/23 12:08:31.4       0     14    126     15    126 357.3  90.0  34150  289.41 0854.96
2009/04/23 12:08:31.5     -45    -63     70     78    104 216.1  46.9  34158  289.55 0854.96
2009/04/23 12:08:31.6    -215     72     27    227    229 288.6   6.9  34154  289.48 0854.96
2009/04/23 12:08:31.7    -364    -43    -70    367    374 263.1 -10.9  34162  289.60 0854.96
2009/04/23 12:08:31.8    -368   -199    114    419    435 241.6  15.3  34166  289.68 0854.96
2009/04/23 12:08:31.9    -347   -103    179    363    404 253.4  28.2  34172  289.77 0854.96
2009/04/23 12:08:32.0    -362   -219    125    424    443 238.8  16.5  34172  289.78 0854.96
2009/04/23 12:08:32.1    -313    -99    123    329    351 252.3  21.5  34164  289.64 0854.96
2009/04/23 12:08:32.2    -385   -100     41    398    401 255.3   6.0  34174  289.81 0854.96
2009/04/23 12:08:32.3    -283   -117    -86    307    319 247.4 -15.7  34184  289.97 0854.96
2009/04/23 12:08:32.4    -341   -198   -120    395    414 239.9 -17.0  34180  289.90 0854.96
2009/04/23 12:08:32.5    -334   -195   -122    388    407 239.7 -17.5  34178  289.89 0854.96
2009/04/23 12:08:32.6    -294   -242   -120    381    400 230.5 -17.5  34186  290.01 0854.96
2009/04/23 12:08:32.7    -298   -118   -104    321    338 248.4 -17.9  34188  290.06 0854.96
2009/04/23 12:08:32.8    -269   -195    -66    333    340 234.0 -11.2  34188  290.03 0854.96
2009/04/23 12:08:32.9    -278   -130   -100    307    323 244.9 -18.1  34188  290.03 0854.96
2009/04/23 12:08:33.0    -246   -161    -94    295    309 236.7 -22.9  34186  290.02 0854.96
2009/04/23 12:08:33.1    -221   -263   -144    344    372 220.0 -28.3  34174  289.81 0854.96
2009/04/23 12:08:33.2    -237   -238   -152    337    369 224.9 -30.3  34178  289.87 0854.96
2009/04/23 12:08:33.3    -141   -264    -99    300    316 208.1 -18.3  34168  289.71 0854.96
2009/04/23 12:08:33.4    -305   -509    -23    594    595 210.9  -2.2  34166  289.66 0854.96
2009/04/23 12:08:33.5    -515   -501    -20    719    720 225.8  -1.6  34166  289.67 0854.96
2009/04/23 12:08:33.6    -237   -591     59    637    641 201.9   5.3  34152  289.42 0854.96
2009/04/23 12:08:33.7    -167   -437     44    468    471 200.9   5.4  34144  289.30 0854.96
2009/04/23 12:08:33.8    -226   -405    -26    464    465 209.2  -3.3  34152  289.45 0854.96
2009/04/23 12:08:33.9    -218   -240    -17    325    326 222.3  -3.1  34164  289.64 0854.96
2009/04/23 12:08:34.0    -250   -207     15    325    326 230.4   2.8  34170  289.75 0854.96
2009/04/23 12:08:34.1    -202   -380     76    431    438 208.0  10.1  34162  289.60 0854.96
2009/04/23 12:08:34.2    -142   -518     11    538    539 195.4   1.2  34146  289.33 0854.98
2009/04/23 12:08:34.3     -95   -610     45    618    620 188.9   4.2  34146  289.35 0854.98
2009/04/23 12:08:34.4    -126   -569     33    583    584 192.5   3.3  34150  289.39 0854.98
2009/04/23 12:08:34.5    -288   -425      8    514    515 214.2   0.9  34152  289.45 0854.98
2009/04/23 12:08:34.6    -276   -323    108    425    439 220.5  14.3  34144  289.29 0854.98
2009/04/23 12:08:34.7    -252   -411    148    483    506 211.5  17.1  34148  289.37 0854.98
2009/04/23 12:08:34.8     -85   -547    184    554    584 188.9  18.4  34152  289.44 0854.98
2009/04/23 12:08:34.9     -90   -620    168    627    650 188.3  15.0  34152  289.42 0854.98
2009/04/23 12:08:35.0    -259   -518     72    580    585 206.6   7.1  34146  289.32 0854.98
2009/04/23 12:08:35.1    -322   -311   -146    448    472 226.0 -18.0  34140  289.22 0854.98
2009/04/23 12:08:35.2     -48   -399    -46    402    405 187.0  -6.6  34144  289.31 0854.98
2009/04/23 12:08:35.3    -180   -378    145    419    444 205.5  19.2  34146  289.34 0854.98
2009/04/23 12:08:35.4    -177   -298    130    347    370 210.7  21.4  34146  289.33 0854.98
2009/04/23 12:08:35.5     -89   -406    146    416    442 192.4  19.4  34150  289.39 0854.98
2009/04/23 12:08:35.6    -119   -348     25    369    370 199.0   4.0  34152  289.42 0854.98
2009/04/23 12:08:35.7      43   -424    100    427    439 174.1  13.2  34148  289.38 0854.98
2009/04/23 12:08:35.8      14   -579    -40    580    582 178.6  -4.0  34152  289.44 0854.98
2009/04/23 12:08:35.9     -95   -551    -32    560    561 189.8  -3.3  34152  289.43 0854.98
2009/04/23 12:08:36.0     -96   -476    -50    486    489 191.5  -5.9  34146  289.32 0854.98
2009/04/23 12:08:36.1    -161   -266     47    312    316 211.2   8.7  34144  289.29 0854.98
2009/04/23 12:08:36.2    -272   -162     -3    317    318 239.1  -0.6  34148  289.37 0854.99
2009/04/23 12:08:36.3    -293    -87    -19    306    307 253.4  -3.7  34154  289.46 0854.99
2009/04/23 12:08:36.4    -336   -117    126    357    379 250.7  19.6  34154  289.47 0854.99
2009/04/23 12:08:36.5    -185   -263    165    322    361 215.2  29.2  34146  289.35 0854.99
2009/04/23 12:08:36.6    -225   -193     91    297    311 229.5  17.0  34158  289.53 0854.99
2009/04/23 12:08:36.7    -268   -272    -34    383    385 224.5  -5.2  34154  289.48 0854.99
2009/04/23 12:08:36.8    -184   -486     54    520    523 200.8   6.0  34146  289.33 0854.99
2009/04/23 12:08:36.9     -82   -483     -2    490    491 189.7  -0.3  34146  289.35 0854.99
2009/04/23 12:08:37.0    -237   -501   -143    555    574 205.3 -14.5  34166  289.68 0854.99
2009/04/23 12:08:37.1    -293   -635    170    700    721 204.8  13.7  34142  289.27 0854.99
2009/04/23 12:08:37.2    -311   -520    193    607    638 210.9  17.7  34152  289.45 0854.99
2009/04/23 12:08:37.3    -466   -482   -117    671    682 224.0  -9.9  34162  289.60 0854.99
2009/04/23 12:08:37.4    -309   -522     46    607    609 210.7   4.4  34162  289.59 0854.99
2009/04/23 12:08:37.5    -132   -673      8    686    687 191.1   0.7  34148  289.36 0854.99
2009/04/23 12:08:37.6    -155   -644    118    663    674 193.6  10.1  34146  289.32 0854.99
2009/04/23 12:08:37.7    -129   -565    200    580    614 192.9  19.1  34144  289.30 0854.99
2009/04/23 12:08:37.8    -226   -487    265    538    599 204.9  28.2  34160  289.56 0854.99
2009/04/23 12:08:37.9    -112   -445    162    459    488 194.2  19.5  34152  289.44 0854.99
2009/04/23 12:08:38.0     -59   -410    146    415    440 188.3  19.4  34150  289.41 0854.99
2009/04/23 12:08:38.1    -102   -428    230    440    496 193.4  29.9  34148  289.37 0854.99
2009/04/23 12:08:38.2    -214   -376    197    433    475 209.7  26.2  34142  289.27 0855.00
2009/04/23 12:08:38.3    -113   -270    119    293    316 202.8  23.5  34156  289.49 0855.00
2009/04/23 12:08:38.4    -184   -311     65    362    368 210.7  10.3  34158  289.55 0855.00
2009/04/23 12:08:38.5    -206   -252     86    326    338 219.3  14.9  34158  289.55 0855.00
2009/04/23 12:08:38.6    -299   -196    149    358    387 236.8  23.8  34154  289.48 0855.00
2009/04/23 12:08:38.7    -182   -221    139    287    318 219.4  27.8  34156  289.49 0855.00
2009/04/23 12:08:38.8    -254   -218     25    335    336 229.4   4.4  34158  289.54 0855.00
2009/04/23 12:08:38.9    -318   -243    -98    401    413 232.6 -13.8  34158  289.53 0855.00
2009/04/23 12:08:39.0    -326   -264    -89    420    430 231.0 -12.0  34154  289.48 0855.00
2009/04/23 12:08:39.1    -125   -160     28    204    207 218.1   8.0  34158  289.55 0855.00
2009/04/23 12:08:39.2    -152   -321    -13    356    357 205.3  -2.2  34154  289.47 0855.00
2009/04/23 12:08:39.3    -249   -269   -116    367    386 222.8 -17.6  34154  289.48 0855.00
2009/04/23 12:08:39.4    -288   -203   -107    353    368 234.8 -21.8  34158  289.55 0855.00
2009/04/23 12:08:39.5    -265   -197    -80    331    341 233.4 -13.6  34164  289.64 0855.00
2009/04/23 12:08:39.6    -271   -139    -71    305    314 242.7 -13.1  34166  289.68 0855.00
2009/04/23 12:08:39.7    -167   -194    -49    257    262 220.8 -10.9  34158  289.54 0855.00
2009/04/23 12:08:39.8    -130   -254     14    286    287 207.2   2.9  34160  289.56 0855.00
2009/04/23 12:08:39.9    -244    -88    -43    260    264 250.1  -9.4  34156  289.49 0855.00
2009/04/23 12:08:40.0    -139    -55   -168    150    225 248.2 -58.1  34156  289.50 0855.00
2009/04/23 12:08:40.1    -154   -139   -112    208    236 228.0 -35.0  34160  289.58 0855.00
2009/04/23 12:08:40.2     -64   -278   -127    286    312 193.1 -29.7  34148  289.36 0854.99
2009/04/23 12:08:40.3    -257   -205   -142    330    359 231.4 -29.3  34156  289.52 0854.99
2009/04/23 12:08:40.4    -167   -170   -228    239    330 224.5 -53.1  34154  289.46 0854.99
2009/04/23 12:08:40.5      85   -271   -188    285    341 162.6 -40.8  34154  289.47 0854.99
2009/04/23 12:08:40.6     153   -248    -45    292    296 148.4  -8.8  34150  289.41 0854.99
2009/04/23 12:08:40.7     133   -214     56    253    260 148.1  12.6  34150  289.41 0854.99
2009/04/23 12:08:40.8     111   -171     63    205    215 147.0  17.1  34148  289.38 0854.99
2009/04/23 12:08:40.9      14   -158    132    159    206 174.7  43.8  34150  289.41 0854.99
2009/04/23 12:08:41.0      -5   -166    156    167    228 181.8  47.9  34152  289.43 0854.99
2009/04/23 12:08:41.1     -17   -253     66    254    263 184.0  14.7  34150  289.41 0854.99
2009/04/23 12:08:41.2     -73   -163    -97    179    203 204.3 -35.4  34146  289.33 0854.99
2009/04/23 12:08:41.3      -8   -205    -14    206    207 182.2  -3.9  34144  289.30 0854.99
2009/04/23 12:08:41.4     136   -323     51    351    355 157.1   8.3  34148  289.38 0854.99
2009/04/23 12:08:41.5      11   -322    107    323    341 177.9  18.4  34146  289.35 0854.99
2009/04/23 12:08:41.6     -26   -369    132    370    392 184.1  20.6  34148  289.38 0854.99
2009/04/23 12:08:41.7      15   -408    157    409    438 177.9  22.0  34146  289.34 0854.99
2009/04/23 12:08:41.8       0   -409    145    410    434 180.1  20.3  34148  289.36 0854.99
2009/04/23 12:08:41.9     -44   -389    118    392    410 186.5  16.8  34150  289.39 0854.99
2009/04/23 12:08:42.0    -164   -387    140    421    444 202.9  18.4  34146  289.34 0854.99
2009/04/23 12:08:42.1    -156   -459    178    486    517 198.8  21.0  34146  289.35 0854.99
2009/04/23 12:08:42.2    -203   -455     55    499    503 204.1   6.4  34158  289.54 0854.97
2009/04/23 12:08:42.3    -144   -416     36    441    443 199.1   4.7  34152  289.44 0854.97
2009/04/23 12:08:42.4    -144   -449     74    472    478 197.8   9.0  34152  289.42 0854.97
2009/04/23 12:08:42.5    -187   -484     62    520    524 201.2   6.9  34148  289.38 0854.97
2009/04/23 12:08:42.6      11   -466    -73    467    473 178.6  -9.0  34152  289.42 0854.97
2009/04/23 12:08:42.7     -26   -565    105    566    576 182.7  10.6  34146  289.34 0854.97
2009/04/23 12:08:42.8    -148   -506     94    528    537 196.3  10.1  34150  289.41 0854.97
2009/04/23 12:08:42.9     -31   -534    130    535    551 183.4  13.7  34148  289.38 0854.97
2009/04/23 12:08:43.0      25   -631    124    632    645 177.7  11.1  34146  289.33 0854.97
2009/04/23 12:08:43.1      46   -643      1    645    646 175.9   0.1  34144  289.31 0854.97
2009/04/23 12:08:43.2     101   -691    135    699    713 171.7  11.0  34148  289.37 0854.97
2009/04/23 12:08:43.3     109   -639     37    649    651 170.3   3.3  34146  289.35 0854.97
2009/04/23 12:08:43.4      85   -606     22    613    614 172.0   2.1  34150  289.39 0854.97
2009/04/23 12:08:43.5     -11   -553    192    554    587 181.2  19.2  34150  289.39 0854.97
2009/04/23 12:08:43.6      -6   -589    114    590    602 180.6  11.0  34152  289.44 0854.97
2009/04/23 12:08:43.7      94   -604     68    612    616 171.1   6.4  34152  289.42 0854.97
2009/04/23 12:08:43.8     -15   -539    126    540    555 181.6  13.2  34152  289.43 0854.97
2009/04/23 12:08:43.9      66   -550    154    554    576 173.1  15.6  34146  289.34 0854.97
2009/04/23 12:08:44.0      15   -502    158    503    528 178.2  17.4  34148  289.36 0854.97
2009/04/23 12:08:44.1     -32   -525    163    526    551 183.5  17.3  34150  289.41 0854.97
2009/04/23 12:08:44.2     -49   -648    176    650    674 184.4  15.2  34148  289.38 0854.98
2009/04/23 12:08:44.3       0   -574    238    575    622 180.0  23.7  34142  289.25 0854.98
2009/04/23 12:08:44.4      -9   -538    195    539    574 181.0  19.9  34144  289.29 0854.98
2009/04/23 12:08:44.5     -57   -521    301    525    605 186.3  32.4  34146  289.34 0854.98
2009/04/23 12:08:44.6    -105   -476    260    488    552 192.5  30.3  34146  289.33 0854.98
2009/04/23 12:08:44.7      18   -418    306    419    518 177.5  39.7  34148  289.37 0854.98
2009/04/23 12:08:44.8       3   -354    383    355    522 179.4  52.5  34146  289.35 0854.98
2009/04/23 12:08:44.9      33   -425    374    427    567 175.5  45.8  34150  289.40 0854.98
2009/04/23 12:08:45.0     -20   -327    339    328    471 183.6  51.2  34152  289.43 0854.98
2009/04/23 12:08:45.1     -53   -349    377    354    517 188.7  52.1  34150  289.40 0854.98
2009/04/23 12:08:45.2     -77   -372    332    381    505 191.8  45.5  34148  289.37 0854.98
2009/04/23 12:08:45.3    -124   -366    276    387    475 198.8  39.1  34148  289.38 0854.98
2009/04/23 12:08:45.4    -141   -280    278    314    419 206.7  46.1  34152  289.42 0854.98
2009/04/23 12:08:45.5    -133   -373    238    397    462 199.7  33.7  34148  289.38 0854.98
2009/04/23 12:08:45.6    -171   -248    251    302    392 214.5  44.0  34150  289.40 0854.98
2009/04/23 12:08:45.7    -131   -205    274    244    366 212.5  53.9  34152  289.42 0854.98
2009/04/23 12:08:45.8    -138   -231    266    270    379 210.8  49.9  34150  289.40 0854.98
2009/04/23 12:08:45.9     -90   -305    213    319    383 196.5  36.9  34148  289.37 0854.98
2009/04/23 12:08:46.0    -159   -411    181    441    476 201.2  23.6  34152  289.45 0854.98
2009/04/23 12:08:46.1    -204   -399    177    449    482 207.1  22.7  34152  289.44 0854.98
2009/04/23 12:08:46.2     -91   -302    154    316    351 196.9  28.0  34150  289.40 0854.99
2009/04/23 12:08:46.3    -159   -337    117    373    391 205.4  17.4  34150  289.40 0854.99
2009/04/23 12:08:46.4    -149   -374    206    403    452 201.8  29.2  34144  289.29 0854.99
2009/04/23 12:08:46.5    -170   -377    164    414    445 204.3  23.0  34148  289.38 0854.99
2009/04/23 12:08:46.6    -141   -258     91    295    309 208.7  17.2  34158  289.54 0854.99
2009/04/23 12:08:46.7    -256   -216    -12    336    337 229.8  -2.1  34148  289.38 0854.99
2009/04/23 12:08:46.8    -278   -182    303    333    450 236.7  47.0  34160  289.58 0854.99
2009/04/23 12:08:46.9    -243   -100    110    263    285 247.6  24.1  34158  289.53 0854.99
2009/04/23 12:08:47.0    -280    -25    110    282    302 264.8  22.5  34150  289.41 0854.99
2009/04/23 12:08:47.1    -144   -275    111    311    330 207.6  20.3  34150  289.41 0854.99
2009/04/23 12:08:47.2     -15   -211    148    212    258 184.2  38.5  34140  289.22 0854.99
2009/04/23 12:08:47.3     105   -283    115    303    324 159.5  21.7  34140  289.22 0854.99
2009/04/23 12:08:47.4    -158   -353    127    387    408 204.1  18.2  34146  289.32 0854.99
2009/04/23 12:08:47.5    -140   -386    103    411    424 200.0  14.2  34146  289.34 0854.99
2009/04/23 12:08:47.6    -110   -355    180    372    413 197.3  27.7  34146  289.33 0854.99
2009/04/23 12:08:47.7    -141   -361    175    388    425 201.4  26.0  34144  289.31 0854.99
2009/04/23 12:08:47.8     -57   -292    225    298    373 191.1  40.9  34152  289.43 0854.99
2009/04/23 12:08:47.9     -59   -338    221    344    408 189.9  35.6  34152  289.42 0854.99
2009/04/23 12:08:48.0     -33   -317    209    319    381 186.0  36.3  34152  289.42 0854.99
2009/04/23 12:08:48.1    -113   -323    148    343    373 199.4  24.9  34146  289.35 0854.99
2009/04/23 12:08:48.2     -89   -361    149    372    400 193.9  23.0  34146  289.35 0855.00
2009/04/23 12:08:48.3     -27   -296    189    298    352 185.4  35.5  34142  289.28 0855.00
2009/04/23 12:08:48.4      -6   -398    136    399    422 180.9  18.8  34146  289.33 0855.00
2009/04/23 12:08:48.5      77   -404    154    412    439 169.2  21.4  34146  289.34 0855.00
2009/04/23 12:08:48.6     103   -473    148    485    508 167.6  17.0  34146  289.35 0855.00
2009/04/23 12:08:48.7     133   -439    148    460    484 163.1  17.9  34148  289.37 0855.00
2009/04/23 12:08:48.8     179   -447    104    482    494 158.2  12.2  34152  289.42 0855.00
2009/04/23 12:08:48.9     191   -434    122    475    491 156.3  14.4  34150  289.39 0855.00
2009/04/23 12:08:49.0     194   -486    194    524    558 158.2  21.4  34148  289.38 0855.00
2009/04/23 12:08:49.1     170   -426    180    460    493 158.2  22.5  34150  289.40 0855.00
2009/04/23 12:08:49.2      77   -481     66    488    493 170.9   7.8  34152  289.42 0855.00
2009/04/23 12:08:49.3      -7   -439    -55    440    444 181.0  -7.2  34146  289.34 0855.00
2009/04/23 12:08:49.4      95   -511    -35    520    522 169.4  -3.9  34140  289.23 0855.00
2009/04/23 12:08:49.5     217   -473    -75    521    527 155.3  -8.2  34134  289.14 0855.00
2009/04/23 12:08:49.6     180   -545     42    574    576 161.7   4.2  34144  289.30 0855.00
2009/04/23 12:08:49.7     141   -509     46    529    532 164.5   5.0  34148  289.36 0855.00
2009/04/23 12:08:49.8     131   -551     83    567    574 166.6   8.3  34146  289.32 0855.00
2009/04/23 12:08:49.9      -8   -513    139    514    533 181.0  15.1  34150  289.41 0855.00
2009/04/23 12:08:50.0      77   -547    -63    553    557 171.9  -6.6  34136  289.16 0855.00
2009/04/23 12:08:50.1     134   -782    -36    794    795 170.2  -2.6  34152  289.44 0855.00
2009/04/23 12:08:50.2     240   -804     76    839    843 163.4   5.2  34138  289.21 0855.00
2009/04/23 12:08:50.3     303   -522   -149    604    623 149.9 -13.9  34128  289.03 0855.00
2009/04/23 12:08:50.4     159   -556   -188    579    609 164.0 -18.0  34130  289.05 0855.00
2009/04/23 12:08:50.5     242   -524   -155    578    599 155.2 -15.0  34134  289.12 0855.00
2009/04/23 12:08:50.6     103   -539   -190    549    580 169.2 -24.3  34142  289.27 0855.00
2009/04/23 12:08:50.7       2   -609   -120    610    622 179.8 -11.2  34138  289.21 0855.00
2009/04/23 12:08:50.8      31   -617    -64    618    622 177.1  -6.0  34142  289.25 0855.00
2009/04/23 12:08:50.9      87   -620    -34    627    629 172.0  -3.2  34138  289.21 0855.00
2009/04/23 12:08:51.0     137   -638     21    653    654 167.8   1.9  34138  289.20 0855.00
2009/04/23 12:08:51.1     111   -659    -13    669    670 170.4  -1.2  34130  289.05 0855.00
2009/04/23 12:08:51.2     165   -550     -7    575    576 163.3  -0.7  34132  289.10 0855.00
2009/04/23 12:08:51.3     135   -582    121    598    611 166.9  11.4  34136  289.17 0855.00
2009/04/23 12:08:51.4      91   -541     36    549    551 170.4   3.8  34128  289.04 0855.00
2009/04/23 12:08:51.5     166   -616    -27    639    640 164.9  -2.5  34130  289.08 0855.00
2009/04/23 12:08:51.6     166   -735    -64    754    757 167.2  -4.9  34136  289.16 0855.00
2009/04/23 12:08:51.7     136   -727   -125    740    751 169.4  -9.6  34142  289.26 0855.00
2009/04/23 12:08:51.8     245   -602   -107    651    660 157.8  -9.3  34152  289.43 0855.00
2009/04/23 12:08:51.9     123   -678     19    690    691 169.7   1.6  34152  289.43 0855.00
2009/04/23 12:08:52.0     137   -576     51    593    596 166.6   5.0  34144  289.30 0855.00
2009/04/23 12:08:52.1     119   -538      0    552    553 167.5   0.0  34142  289.28 0855.00
2009/04/23 12:08:52.2      85   -503     46    511    514 170.4   5.2  34130  289.05 0855.00
2009/04/23 12:08:52.3     -55   -562    -92    565    573 185.7  -9.3  34134  289.14 0855.00
2009/04/23 12:08:52.4    -152   -548   -185    569    598 195.6 -23.2  34138  289.19 0855.00
2009/04/23 12:08:52.5     -73   -477    -65    483    488 188.7  -7.7  34144  289.30 0855.00
2009/04/23 12:08:52.6     -49   -456    -63    459    464 186.2  -7.9  34140  289.22 0855.00
2009/04/23 12:08:52.7      -7   -405     -5    406    407 181.1  -0.7  34140  289.24 0855.00
2009/04/23 12:08:52.8     135   -455     85    475    483 163.5  10.2  34134  289.13 0855.00
2009/04/23 12:08:52.9       8   -502    184    503    535 179.0  21.0  34132  289.09 0855.00
2009/04/23 12:08:53.0     -67   -463     19    468    469 188.3   2.4  34138  289.20 0855.00
2009/04/23 12:08:53.1     -88   -433    -30    443    444 191.6  -3.9  34140  289.22 0855.00
2009/04/23 12:08:53.3     -88   -522    -51    530    533 189.6  -5.6  34138  289.21 0855.00
2009/04/23 12:08:53.3    -268   -655   -142    708    723 202.3 -11.3  34140  289.23 0855.00
2009/04/23 12:08:53.4    -267   -658   -116    711    721 202.1  -9.3  34126  289.01 0855.00
2009/04/23 12:08:53.5    -204   -689   -186    719    743 196.5 -14.5  34124  288.97 0855.00
2009/04/23 12:08:53.6    -164   -658   -122    679    691 194.1 -10.2  34122  288.94 0855.00
2009/04/23 12:08:53.7    -134   -558   -182    574    603 193.6 -17.6  34132  289.10 0855.00
2009/04/23 12:08:53.8    -122   -680   -210    692    724 190.2 -16.9  34132  289.11 0855.00
2009/04/23 12:08:53.9    -114   -755   -189    764    788 188.6 -13.9  34134  289.12 0855.00
2009/04/23 12:08:54.1    -168   -707    -98    727    734 193.4  -7.7  34126  289.00 0855.00
2009/04/23 12:08:54.2    -162   -711    -52    730    732 192.9  -4.1  34140  289.22 0855.00
2009/04/23 12:08:54.3    -170   -669    -67    691    695 194.3  -5.6  34124  288.95 0855.00
2009/04/23 12:08:54.4    -257   -663   -144    712    727 201.2 -11.5  34128  289.03 0855.00
2009/04/23 12:08:54.5    -321   -659   -190    734    759 206.0 -14.5  34142  289.26 0855.00
2009/04/23 12:08:54.6    -259   -627   -193    679    705 202.5 -20.7  34136  289.18 0855.00
2009/04/23 12:08:54.7    -206   -576   -197    612    642 199.7 -23.0  34138  289.20 0855.00
2009/04/23 12:08:54.8    -302   -569     -5    645    646 208.0  -0.5  34136  289.18 0855.00
2009/04/23 12:08:54.9     -96   -617    -26    625    626 188.9  -2.4  34146  289.35 0855.00
2009/04/23 12:08:55.0    -189   -536     -8    569    570 199.4  -0.9  34142  289.27 0855.00
2009/04/23 12:08:55.1    -184   -460    -12    496    497 201.8  -1.4  34136  289.18 0855.00
2009/04/23 12:08:55.2    -231   -454    -35    510    512 207.0  -4.0  34136  289.17 0855.00
2009/04/23 12:08:55.3    -156   -513     27    537    538 196.9   2.9  34138  289.19 0854.98
2009/04/23 12:08:55.4    -125   -436     23    454    455 196.1   3.0  34132  289.09 0854.98
2009/04/23 12:08:55.5    -160   -459    -10    487    488 199.2  -1.3  34126  289.00 0854.98
2009/04/23 12:08:55.6    -181   -416    -25    454    455 203.5  -3.2  34124  288.97 0854.98
2009/04/23 12:08:55.7    -204   -509    -69    549    554 201.8  -7.2  34126  289.01 0854.98
2009/04/23 12:08:55.8    -127   -431   -120    450    466 196.5 -15.0  34120  288.89 0854.98
2009/04/23 12:08:55.9     -59   -409    -31    414    416 188.3  -4.4  34122  288.92 0854.98
2009/04/23 12:08:56.0     -14   -339     18    340    341 182.5   3.1  34122  288.93 0854.98
2009/04/23 12:08:56.1     -28   -366     60    368    373 184.5   9.3  34130  289.06 0854.98
2009/04/23 12:08:56.2     -54   -435    -17    439    440 187.1  -2.2  34136  289.16 0854.98
2009/04/23 12:08:56.3    -146   -525   -163    546    570 195.6 -16.7  34128  289.02 0854.98
2009/04/23 12:08:56.4    -152   -471   -165    496    522 197.9 -23.7  34132  289.10 0854.98
2009/04/23 12:08:56.5    -176   -416   -196    452    492 203.0 -29.4  34130  289.05 0854.98
2009/04/23 12:08:56.6     -84   -437   -214    446    494 190.9 -31.8  34136  289.17 0854.98
2009/04/23 12:08:56.7      46   -563    -32    565    566 175.3  -3.3  34136  289.16 0854.98
2009/04/23 12:08:56.8      30   -431     49    433    436 176.0   6.5  34122  288.94 0854.98
2009/04/23 12:08:56.9      70   -381    122    388    407 169.5  17.5  34136  289.18 0854.98
2009/04/23 12:08:57.0      31   -285    124    287    312 173.8  24.8  34136  289.15 0854.98
2009/04/23 12:08:57.1      67   -467   -131    472    490 171.8 -15.5  34142  289.25 0854.98
2009/04/23 12:08:57.2      27   -463   -147    464    486 176.6 -22.8  34138  289.20 0854.98
2009/04/23 12:08:57.3     144   -465   -148    487    510 162.7 -17.0  34138  289.20 0855.01
2009/04/23 12:08:57.4      57   -462    -66    466    471 172.9  -8.1  34142  289.27 0855.01
2009/04/23 12:08:57.5     111   -417    -52    432    436 165.1  -6.9  34134  289.12 0855.01
2009/04/23 12:08:57.6     144   -480    -10    502    503 163.3  -1.2  34136  289.15 0855.01
2009/04/23 12:08:57.7     179   -434      9    470    471 157.5   1.1  34130  289.05 0855.01
2009/04/23 12:08:57.8     174   -432     23    466    467 158.1   2.9  34130  289.05 0855.01
2009/04/23 12:08:57.9     237   -389    -75    456    463 148.6  -9.4  34128  289.02 0855.01
2009/04/23 12:08:58.0     180   -338    123    384    404 151.9  17.8  34142  289.25 0855.01
2009/04/23 12:08:58.1     173   -273    -30    324    326 147.6  -5.3  34128  289.03 0855.01
2009/04/23 12:08:58.2      59   -219   -154    227    274 164.9 -41.8  34128  289.03 0855.01
2009/04/23 12:08:58.3      61   -181   -188    192    268 161.3 -54.2  34132  289.09 0855.01
2009/04/23 12:08:58.4      71   -196   -114    209    238 159.9 -35.4  34128  289.04 0855.01
2009/04/23 12:08:58.5      62   -210    -91    220    238 163.5 -28.2  34134  289.13 0855.01
2009/04/23 12:08:58.6      84   -178    -93    197    217 154.7 -31.6  34128  289.04 0855.01
2009/04/23 12:08:58.7      88   -179    -82    200    216 153.7 -27.8  34128  289.04 0855.01
2009/04/23 12:08:58.8     128   -111   -102    170    198 131.1 -38.1  34128  289.04 0855.01
2009/04/23 12:08:58.9     137   -221   -138    261    295 148.3 -34.5  34130  289.05 0855.01
2009/04/23 12:08:59.0      95   -297   -106    312    329 162.2 -23.7  34130  289.05 0855.01
2009/04/23 12:08:59.1      98   -261    -80    280    292 159.3 -16.0  34128  289.03 0855.01
2009/04/23 12:08:59.2      22   -218    -52    220    227 174.2 -13.3  34128  289.04 0855.01
2009/04/23 12:08:59.3      28   -221    -14    223    224 172.7  -3.7  34128  289.04 0855.01
2009/04/23 12:08:59.4      37   -263     -1    266    267 172.0  -0.3  34128  289.02 0855.01
2009/04/23 12:08:59.5      -9   -178    -21    179    181 182.9  -6.9  34128  289.02 0855.01
2009/04/23 12:08:59.6       0   -172      8    173    174 180.2   2.8  34130  289.06 0855.01
2009/04/23 12:08:59.7      70   -172    -44    186    192 157.7 -13.4  34126  289.01 0855.01
2009/04/23 12:08:59.8      31   -226     17    229    230 172.0   4.4  34130  289.06 0855.01
2009/04/23 12:08:59.9      -3   -251     18    252    253 180.9   4.2  34128  289.03 0855.01
2009/04/23 12:09:00.0     -16   -231     11    232    233 184.0   2.8  34126  289.01 0855.01
2009/04/23 12:09:00.1     -42   -205      2    210    211 191.6   0.8  34130  289.06 0855.01
2009/04/23 12:09:00.2    -100   -196    -28    221    223 207.2  -7.3  34138  289.19 0855.01
2009/04/23 12:09:00.3    -212   -161    -24    267    269 232.9  -5.2  34148  289.36 0855.01
2009/04/23 12:09:00.4    -288   -204    -70    353    361 234.7 -11.3  34142  289.28 0855.01
2009/04/23 12:09:00.5    -354    -40   -182    357    400 263.4 -33.6  34136  289.15 0855.01
2009/04/23 12:09:00.6    -405    -54    -68    409    415 262.3  -9.5  34130  289.07 0855.01
2009/04/23 12:09:00.7    -448   -105    -46    461    464 256.7  -5.8  34138  289.21 0855.01
2009/04/23 12:09:00.8    -498    -76    -36    504    506 261.3  -4.1  34130  289.06 0855.01
2009/04/23 12:09:00.9    -432     32    -46    434    437 274.3  -6.1  34134  289.14 0855.01
2009/04/23 12:09:01.0    -319   -106   -131    337    361 251.6 -26.9  34138  289.20 0855.01
2009/04/23 12:09:01.1    -338    -62    -71    344    352 259.5 -11.8  34136  289.15 0855.01
2009/04/23 12:09:01.2    -320     40   -111    323    342 277.2 -19.1  34138  289.20 0855.01
2009/04/23 12:09:01.3    -352     16   -118    353    373 272.6 -18.6  34136  289.18 0854.98
2009/04/23 12:09:01.4    -246    -61   -164    254    302 255.9 -40.0  34138  289.20 0854.98
2009/04/23 12:09:01.5    -173    -26    -94    176    199 261.2 -35.0  34134  289.14 0854.98
2009/04/23 12:09:01.6    -150    146     15    210    211 314.2   4.2  34136  289.16 0854.98
2009/04/23 12:09:01.7    -238    156    161    285    327 303.3  32.0  34144  289.31 0854.98
2009/04/23 12:09:01.8    -271    161    123    316    339 300.7  22.4  34138  289.20 0854.98
2009/04/23 12:09:01.9    -194     94    -66    216    225 296.0 -22.1  34136  289.16 0854.98
2009/04/23 12:09:02.0    -260     79     48    272    277 286.9  10.1  34138  289.19 0854.98
2009/04/23 12:09:02.1    -191    113     33    222    225 300.6   8.5  34140  289.24 0854.98
2009/04/23 12:09:02.2    -113     -2    -27    114    118 268.7 -13.3  34150  289.40 0854.98
2009/04/23 12:09:02.3     -50    -23    -88     56    104 244.8 -69.1  34152  289.45 0854.98
2009/04/23 12:09:02.4    -109   -116    -47    160    167 223.2 -16.4  34152  289.43 0854.98
2009/04/23 12:09:02.5     -31   -164    -23    168    170 190.9  -8.0  34156  289.50 0854.98
2009/04/23 12:09:02.6     -14   -137    -43    138    144 186.2 -22.8  34160  289.57 0854.98
2009/04/23 12:09:02.7     -39   -257     14    260    261 188.7   3.1  34146  289.32 0854.98
2009/04/23 12:09:02.8     -17   -297     31    298    300 183.4   6.0  34144  289.31 0854.98
2009/04/23 12:09:02.9     117   -206     35    237    240 150.4   8.5  34142  289.25 0854.98
2009/04/23 12:09:03.0     120   -131     48    178    185 137.5  15.3  34136  289.18 0854.98
2009/04/23 12:09:03.1     111   -111    105    158    189 134.9  36.5  34138  289.21 0854.98
2009/04/23 12:09:03.2     145    -68     56    161    171 115.2  19.4  34150  289.40 0854.98
2009/04/23 12:09:03.3     221    -47    123    227    258 102.2  31.0  34156  289.49 0854.95
2009/04/23 12:09:03.4     189    -57     68    198    210 106.8  18.9  34176  289.84 0854.95
2009/04/23 12:09:03.5     229    -46    124    234    264 101.5  30.2  34178  289.88 0854.95
2009/04/23 12:09:03.6     235   -136     78    272    284 120.0  16.0  34186  290.02 0854.95
2009/04/23 12:09:03.7     185    -28    103    188    214  98.8  31.3  34178  289.89 0854.95
2009/04/23 12:09:03.8     143     24     78    146    165  80.4  30.6  34180  289.92 0854.95
2009/04/23 12:09:03.9     165    -43    139    171    220 104.8  43.7  34184  289.97 0854.95
2009/04/23 12:09:04.0     124     79    107    148    182  57.6  39.5  34180  289.92 0854.95
2009/04/23 12:09:04.1    -101      6     64    102    120 273.9  35.5  34180  289.92 0854.95
2009/04/23 12:09:04.2    -156   -115    -25    195    197 233.6  -7.3  34180  289.91 0854.95
2009/04/23 12:09:04.3    -127    -64      9    143    144 243.4   3.8  34174  289.82 0854.95
2009/04/23 12:09:04.4     -40   -115    -42    122    129 199.2 -23.3  34164  289.65 0854.95
2009/04/23 12:09:04.5     -60   -101     19    118    120 210.7   9.5  34166  289.69 0854.95
2009/04/23 12:09:04.6     -91   -135     30    163    166 214.1  10.6  34172  289.79 0854.95
2009/04/23 12:09:04.7     -81   -127    100    151    181 212.5  36.5  34170  289.75 0854.95
2009/04/23 12:09:04.8      51    -69     53     87    101 143.5  34.4  34150  289.40 0854.95
2009/04/23 12:09:04.9      -3    -94     60     95    112 182.2  35.5  34152  289.43 0854.95
2009/04/23 12:09:05.0     -33    -50    126     60    139 213.4  72.8  34154  289.46 0854.95
2009/04/23 12:09:05.1     -21   -132     80    134    156 189.3  34.0  34156  289.50 0854.95
2009/04/23 12:09:05.2     -58   -110     83    125    150 208.1  36.5  34158  289.53 0854.95
2009/04/23 12:09:05.3     -91   -125     94    155    181 216.1  34.2  34156  289.50 0854.93
2009/04/23 12:09:05.4     -68   -102     98    123    157 213.8  42.7  34142  289.26 0854.93
2009/04/23 12:09:05.5    -103    -36     71    110    130 250.5  35.6  34152  289.45 0854.93
2009/04/23 12:09:05.6     -37    -83     41     91     99 204.1  26.2  34144  289.31 0854.93
2009/04/23 12:09:05.7     -45   -163     65    170    182 195.4  22.0  34136  289.16 0854.93
2009/04/23 12:09:05.8      25   -142     59    145    156 169.8  23.6  34136  289.18 0854.93
2009/04/23 12:09:05.9       9   -167     68    168    181 176.6  23.1  34138  289.21 0854.93
2009/04/23 12:09:06.0      15   -198     78    199    213 175.5  22.3  34140  289.23 0854.93
2009/04/23 12:09:06.1       7   -211     72    212    225 178.0  18.9  34138  289.21 0854.93
2009/04/23 12:09:06.2      30   -208     78    211    224 171.8  21.0  34140  289.23 0854.93
2009/04/23 12:09:06.3     -45   -211    114    216    244 192.3  30.1  34142  289.25 0854.93
2009/04/23 12:09:06.4     -45   -245     24    250    252 190.5   5.7  34144  289.29 0854.93
2009/04/23 12:09:06.5    -100   -340    118    355    375 196.4  18.5  34146  289.33 0854.93
2009/04/23 12:09:06.6     -41   -359     17    362    363 186.6   2.8  34144  289.30 0854.93
2009/04/23 12:09:06.7     -33   -338    119    340    361 185.7  19.3  34144  289.30 0854.93
2009/04/23 12:09:06.8     -50   -437    130    440    459 186.6  16.5  34146  289.33 0854.93
2009/04/23 12:09:06.9       4   -447    158    448    476 179.4  19.4  34140  289.22 0854.93
2009/04/23 12:09:07.0       7   -423    155    424    451 179.0  21.0  34142  289.26 0854.93
2009/04/23 12:09:07.1     -50   -348    112    352    370 188.2  17.7  34146  289.33 0854.93
2009/04/23 12:09:07.2     -69   -399     27    406    407 189.9   3.9  34144  289.29 0854.93
2009/04/23 12:09:07.3     -71   -404      1    411    412 190.0   0.2  34142  289.27 0854.94
2009/04/23 12:09:07.4       5   -392     37    393    395 179.2   5.4  34142  289.28 0854.94
2009/04/23 12:09:07.5     -26   -361    124    362    383 184.2  18.9  34142  289.25 0854.94
2009/04/23 12:09:07.6      -6   -441    181    442    477 180.9  23.5  34142  289.27 0854.94
2009/04/23 12:09:07.7      -7   -433    237    434    494 181.0  31.0  34144  289.30 0854.94
2009/04/23 12:09:07.8      -1   -429    154    430    456 180.3  20.6  34140  289.24 0854.94
2009/04/23 12:09:07.9     -34   -442    197    444    485 184.5  25.6  34144  289.30 0854.94
2009/04/23 12:09:08.0     -78   -458    162    465    493 189.7  19.3  34146  289.35 0854.94
2009/04/23 12:09:08.1    -107   -433     96    447    458 193.9  12.2  34144  289.31 0854.94
2009/04/23 12:09:08.2     -41   -460     76    462    469 185.2   9.4  34144  289.30 0854.94
2009/04/23 12:09:08.3      -6   -554    140    555    573 180.7  14.2  34144  289.29 0854.94
2009/04/23 12:09:08.4      68   -560    223    565    607 173.0  23.0  34140  289.24 0854.94
2009/04/23 12:09:08.5      57   -526    206    530    568 173.8  22.4  34146  289.33 0854.94
2009/04/23 12:09:08.6     157   -458    149    485    508 161.1  17.1  34140  289.23 0854.94
2009/04/23 12:09:08.7     213   -551     36    591    593 158.8   3.5  34144  289.29 0854.94
2009/04/23 12:09:08.8     163   -459     -9    488    489 160.4  -1.1  34146  289.32 0854.94
2009/04/23 12:09:08.9     163   -430     64    461    466 159.2   8.0  34140  289.22 0854.94
2009/04/23 12:09:09.0      93   -459     80    469    476 168.4   9.7  34142  289.27 0854.94
2009/04/23 12:09:09.1      16   -532    130    533    549 178.2  13.8  34144  289.29 0854.94
2009/04/23 12:09:09.2      41   -537    193    539    572 175.6  20.4  34140  289.23 0854.94
2009/04/23 12:09:09.3      76   -520    207    526    565 171.6  22.5  34140  289.24 0854.97
2009/04/23 12:09:09.4      12   -458    191    459    497 178.4  23.8  34142  289.27 0854.97
2009/04/23 12:09:09.5     -46   -400    210    403    454 186.6  29.6  34140  289.24 0854.97
2009/04/23 12:09:09.6    -192   -407    157    451    477 205.3  20.0  34148  289.37 0854.97
2009/04/23 12:09:09.7    -123   -437     92    455    465 195.8  11.5  34148  289.36 0854.97
2009/04/23 12:09:09.8    -316   -556   -109    640    650 209.6  -9.7  34146  289.33 0854.97
2009/04/23 12:09:09.9    -351   -506   -111    616    627 214.8 -10.2  34142  289.26 0854.97
2009/04/23 12:09:10.0    -293   -509   -113    588    599 209.9 -10.9  34144  289.29 0854.97
2009/04/23 12:09:10.1    -226   -475    -90    527    535 205.5  -9.8  34144  289.29 0854.97
2009/04/23 12:09:10.2    -154   -428    -58    455    459 199.8  -7.3  34144  289.31 0854.97
2009/04/23 12:09:10.3    -118   -423    -37    440    442 195.6  -4.9  34144  289.31 0854.97
2009/04/23 12:09:10.4    -105   -479     31    491    492 192.4   3.7  34142  289.28 0854.97
2009/04/23 12:09:10.5     -76   -403     -8    411    412 190.7  -1.2  34140  289.22 0854.97
2009/04/23 12:09:10.6      -7   -391     -1    392    393 181.1  -0.2  34138  289.20 0854.97
2009/04/23 12:09:10.7     -28   -356    -19    358    359 184.6  -3.1  34140  289.23 0854.97
2009/04/23 12:09:10.8     -39   -285     30    288    290 187.8   6.0  34142  289.27 0854.97
2009/04/23 12:09:10.9     -46   -229      2    234    235 191.5   0.5  34144  289.31 0854.97
2009/04/23 12:09:11.0     -41   -188     30    193    196 192.3   8.8  34148  289.38 0854.97
2009/04/23 12:09:11.1      11   -152     20    153    155 175.5   7.5  34146  289.35 0854.97
2009/04/23 12:09:11.2      79   -199     60    215    224 158.2  15.8  34138  289.21 0854.97
2009/04/23 12:09:11.3      20   -240     47    241    246 175.1  11.1  34146  289.32 0855.02
2009/04/23 12:09:11.4      23   -253     98    255    273 174.7  22.0  34142  289.27 0855.02
2009/04/23 12:09:11.5      46   -214     62    220    229 167.7  15.8  34144  289.31 0855.02
2009/04/23 12:09:11.6     112   -203     31    232    235 151.1   7.8  34144  289.31 0855.02
2009/04/23 12:09:11.7      92   -215     78    234    247 156.8  18.5  34146  289.32 0855.02
2009/04/23 12:09:11.8      51   -272    -10    277    278 169.3  -2.2  34148  289.37 0855.02
2009/04/23 12:09:11.9      49   -214    -67    220    229 166.9 -21.8  34146  289.35 0855.02
2009/04/23 12:09:12.0     114   -269    -87    293    306 157.1 -16.5  34148  289.36 0855.02
2009/04/23 12:09:12.1      50   -463     43    466    469 173.8   5.3  34140  289.23 0855.02
2009/04/23 12:09:12.2     171   -450     36    482    484 159.2   4.4  34144  289.30 0855.02
2009/04/23 12:09:12.3     170   -446     74    478    484 159.1   8.9  34142  289.28 0855.02
2009/04/23 12:09:12.4     134   -403     75    426    433 161.5  10.0  34142  289.26 0855.02
2009/04/23 12:09:12.5      88   -438    108    447    460 168.6  13.7  34144  289.31 0855.02
2009/04/23 12:09:12.6     128   -474    105    492    504 164.8  12.1  34142  289.25 0855.02
2009/04/23 12:09:12.7     153   -454    196    480    518 161.3  23.5  34146  289.34 0855.02
2009/04/23 12:09:12.8     172   -472    -82    503    510 160.0  -9.3  34142  289.27 0855.02
2009/04/23 12:09:12.9     109   -585    -77    596    601 169.4  -7.4  34142  289.27 0855.02
2009/04/23 12:09:13.0      75   -519    -96    525    534 171.8 -10.4  34142  289.26 0855.02
2009/04/23 12:09:13.1      68   -487    -63    492    497 172.0  -7.4  34140  289.23 0855.02
2009/04/23 12:09:13.2      60   -418    -77    423    430 171.8 -10.4  34144  289.31 0855.02
2009/04/23 12:09:13.3     141   -307    -96    338    351 155.3 -20.5  34140  289.23 0855.04
2009/04/23 12:09:13.4     317   -482     65    578    582 146.6   6.5  34138  289.20 0855.04
2009/04/23 12:09:13.5     224   -448     14    502    503 153.4   1.6  34142  289.25 0855.04
2009/04/23 12:09:13.6     275   -402    -61    488    492 145.6  -7.2  34140  289.23 0855.04
2009/04/23 12:09:13.7     234   -394    -39    459    461 149.3  -4.9  34136  289.16 0855.04
2009/04/23 12:09:13.8     233   -353    -66    424    430 146.6  -8.9  34136  289.16 0855.04
2009/04/23 12:09:13.9     115   -335    -98    355    369 161.1 -15.4  34140  289.23 0855.04
2009/04/23 12:09:14.0      51   -521    144    524    544 174.3  15.4  34130  289.07 0855.04
2009/04/23 12:09:14.1      22   -583    214    584    621 177.8  21.0  34142  289.25 0855.04
2009/04/23 12:09:14.2      48   -545    -43    548    550 174.9  -4.6  34140  289.24 0855.04
2009/04/23 12:09:14.3      33   -532    -11    534    535 176.4  -1.3  34132  289.11 0855.04
2009/04/23 12:09:14.4      49   -651    -31    653    654 175.7  -2.8  34134  289.13 0855.04
2009/04/23 12:09:14.5      99   -605     55    614    617 170.7   5.2  34134  289.13 0855.04
2009/04/23 12:09:14.6     147   -514     73    535    540 164.0   7.8  34132  289.09 0855.04
2009/04/23 12:09:14.7     196   -520     -6    556    557 159.3  -0.7  34134  289.13 0855.04
2009/04/23 12:09:14.8     -49   -530    -68    533    538 185.3  -7.3  34132  289.11 0855.04
2009/04/23 12:09:14.9     113   -591     30    602    603 169.1   2.9  34134  289.14 0855.04
2009/04/23 12:09:15.0     149   -546     31    567    568 164.7   3.1  34130  289.07 0855.04
2009/04/23 12:09:15.1     166   -500    103    527    538 161.6  11.1  34132  289.09 0855.04
2009/04/23 12:09:15.2     145   -543     -2    563    564 165.0  -0.3  34128  289.04 0855.04
2009/04/23 12:09:15.3     163   -622    -60    643    647 165.3  -5.4  34130  289.08 0855.05
2009/04/23 12:09:15.4     151   -579   -108    599    609 165.3 -10.3  34128  289.03 0855.05
2009/04/23 12:09:15.5     212   -597     46    634    636 160.4   4.2  34142  289.25 0855.05
2009/04/23 12:09:15.6     286   -579    -11    646    647 153.7  -1.0  34146  289.33 0855.05
2009/04/23 12:09:15.7     221   -576     40    618    620 159.0   3.7  34136  289.16 0855.05
2009/04/23 12:09:15.8     278   -563    102    628    637 153.7   9.2  34136  289.18 0855.05
2009/04/23 12:09:15.9     166   -400     28    434    435 157.4   3.7  34126  288.99 0855.05
2009/04/23 12:09:16.0       9   -534    -29    535    536 179.0  -3.2  34134  289.14 0855.05
2009/04/23 12:09:16.1      88   -623     50    630    633 171.9   4.6  34132  289.11 0855.05
2009/04/23 12:09:16.2     -43   -621    119    623    635 184.0  10.8  34128  289.04 0855.05
2009/04/23 12:09:16.3      78   -620    146    625    642 172.8  13.2  34128  289.04 0855.05
2009/04/23 12:09:16.4      66   -529    182    534    565 172.8  18.8  34132  289.09 0855.05
2009/04/23 12:09:16.5     129   -582     71    597    602 167.5   6.9  34130  289.07 0855.05
2009/04/23 12:09:16.6      31   -623    180    624    650 177.1  16.1  34130  289.08 0855.05
2009/04/23 12:09:16.7      50   -667    135    669    683 175.7  11.5  34130  289.07 0855.05
2009/04/23 12:09:16.8     105   -524     82    535    542 168.7   8.7  34130  289.07 0855.05
2009/04/23 12:09:16.9      90   -517     87    525    533 170.1   9.4  34132  289.11 0855.05
2009/04/23 12:09:17.0      30   -671    197    672    701 177.4  16.4  34134  289.14 0855.05
2009/04/23 12:09:17.1     138   -532     -2    550    551 165.4  -0.3  34142  289.28 0855.05
2009/04/23 12:09:17.2      61   -442      9    447    448 172.1   1.2  34144  289.29 0855.05
2009/04/23 12:09:17.3     115   -416     40    432    435 164.5   5.3  34146  289.33 0855.05
2009/04/23 12:09:17.4      22   -477     10    478    479 177.3   1.2  34142  289.27 0855.05
2009/04/23 12:09:17.5      56   -594    -53    597    600 174.6  -5.1  34140  289.22 0855.05
2009/04/23 12:09:17.6     128   -633    -54    646    649 168.5  -4.8  34136  289.18 0855.05
2009/04/23 12:09:17.7      91   -574    -25    582    583 171.0  -2.5  34140  289.24 0855.05
2009/04/23 12:09:17.8      58   -512     46    516    519 173.5   5.2  34140  289.22 0855.05
2009/04/23 12:09:17.9      30   -480    -47    481    484 176.4  -5.6  34138  289.20 0855.05
2009/04/23 12:09:18.0      66   -456      8    461    462 171.7   1.1  34136  289.16 0855.05
2009/04/23 12:09:18.1      -8   -559    -30    560    561 180.9  -3.1  34138  289.19 0855.05
2009/04/23 12:09:18.2    -105   -495   -103    507    518 192.1 -11.5  34138  289.20 0855.05
2009/04/23 12:09:18.3      -6   -522    -75    523    529 180.7  -8.2  34140  289.24 0855.03
2009/04/23 12:09:18.4       3   -536    -67    537    542 179.7  -7.2  34120  288.91 0855.03
2009/04/23 12:09:18.5      75   -639    -47    644    646 173.3  -4.2  34126  288.98 0855.03
2009/04/23 12:09:18.6       4   -669    -38    670    672 179.6  -3.3  34126  288.99 0855.03
2009/04/23 12:09:18.7      28   -681    -32    682    683 177.6  -2.7  34118  288.85 0855.03
2009/04/23 12:09:18.8      42   -646      2    648    649 176.2   0.2  34126  289.01 0855.03
2009/04/23 12:09:18.9      48   -570     51    573    576 175.1   5.1  34128  289.02 0855.03
2009/04/23 12:09:19.0      22   -578     80    579    585 177.8   7.9  34130  289.05 0855.03
2009/04/23 12:09:19.1     -44   -603     72    605    610 184.2   6.9  34132  289.10 0855.03
2009/04/23 12:09:19.2      88   -629     -9    636    637 172.0  -0.9  34126  288.99 0855.03
2009/04/23 12:09:19.3      96   -616     -5    624    625 171.1  -0.5  34118  288.87 0855.03
2009/04/23 12:09:19.4     138   -565    113    582    593 166.2  11.0  34124  288.97 0855.03
2009/04/23 12:09:19.5      85   -583     82    590    596 171.6   8.0  34116  288.81 0855.03
2009/04/23 12:09:19.7      37   -580     81    582    588 176.3   8.0  34120  288.90 0855.03
2009/04/23 12:09:19.7      10   -616     64    617    621 179.0   6.0  34128  289.04 0855.03
2009/04/23 12:09:19.8       3   -592     24    593    594 179.6   2.4  34132  289.10 0855.03
2009/04/23 12:09:19.9     -15   -561     15    562    563 181.6   1.6  34136  289.18 0855.03
2009/04/23 12:09:20.0     -54   -608     -9    611    612 185.1  -0.9  34138  289.20 0855.03
2009/04/23 12:09:20.2       7   -688    -67    689    693 179.4  -5.6  34136  289.16 0855.03
2009/04/23 12:09:20.2      -1   -644    -63    645    649 180.1  -5.6  34136  289.18 0855.03
2009/04/23 12:09:20.4      -2   -596   -140    597    614 180.3 -13.3  34132  289.10 0855.03
2009/04/23 12:09:20.5      16   -517    -62    518    522 178.2  -6.9  34130  289.07 0855.03
2009/04/23 12:09:20.5      40   -517    -10    519    520 175.5  -1.2  34130  289.06 0855.03
2009/04/23 12:09:20.7      60   -487     -7    491    492 172.9  -0.9  34130  289.08 0855.03
2009/04/23 12:09:20.8       5   -448    -58    449    453 179.3  -7.5  34132  289.11 0855.03
2009/04/23 12:09:20.9      32   -457   -113    459    473 176.0 -13.9  34134  289.12 0855.03
2009/04/23 12:09:21.0      59   -471   -122    475    491 172.8 -14.4  34138  289.20 0855.03
2009/04/23 12:09:21.1      34   -472   -179    474    506 175.9 -25.9  34136  289.18 0855.03
2009/04/23 12:09:21.2     -56   -501   -202    505    543 186.5 -27.4  34132  289.09 0855.03
2009/04/23 12:09:21.3     -32   -414   -106    416    430 184.5 -14.4  34136  289.16 0855.03
2009/04/23 12:09:21.4     -49   -398    -15    402    403 187.1  -2.2  34126  288.99 0855.03
2009/04/23 12:09:21.5     -91   -391    -85    402    412 193.1 -12.0  34138  289.19 0855.03
2009/04/23 12:09:21.6    -188   -399   -130    442    461 205.3 -16.4  34138  289.21 0855.03
2009/04/23 12:09:21.7    -155   -429    -64    457    462 200.0  -8.0  34134  289.12 0855.03
2009/04/23 12:09:21.8    -132   -360     -3    384    385 200.2  -0.5  34138  289.21 0855.03
2009/04/23 12:09:21.9    -110   -410    -74    425    432 195.1  -9.9  34138  289.21 0855.03
2009/04/23 12:09:22.0     -93   -374   -106    386    401 194.1 -15.4  34128  289.04 0855.03
2009/04/23 12:09:22.1     -31   -377    -62    379    385 184.8  -9.3  34136  289.15 0855.03
2009/04/23 12:09:22.2      -9   -402     -6    403    404 181.4  -0.9  34132  289.11 0855.03
2009/04/23 12:09:22.3      32   -390    -25    392    393 175.2  -3.7  34132  289.10 0855.03
2009/04/23 12:09:22.4     -12   -332    -73    333    342 182.1 -12.4  34136  289.15 0855.00
2009/04/23 12:09:22.5     -45   -324     -5    328    329 188.0  -0.9  34132  289.09 0855.00
2009/04/23 12:09:22.6     -39   -327    -47    330    334 186.9  -8.2  34136  289.16 0855.00
2009/04/23 12:09:22.7      13   -293    -48    294    299 177.3  -9.3  34136  289.15 0855.00
2009/04/23 12:09:22.8     -37   -266    -20    269    270 188.1  -4.4  34136  289.15 0855.00
2009/04/23 12:09:22.9     -60   -318    -55    324    329 190.7  -9.8  34138  289.19 0855.00
2009/04/23 12:09:23.0       1   -389    -17    390    391 179.8  -2.6  34142  289.28 0855.00
2009/04/23 12:09:23.1     -12   -380    -21    381    382 181.9  -3.2  34138  289.20 0855.00
2009/04/23 12:09:23.2      10   -357    -46    358    361 178.4  -7.5  34146  289.33 0855.00
2009/04/23 12:09:23.3      71   -357    -11    365    366 168.7  -1.8  34152  289.43 0855.00
2009/04/23 12:09:23.4      78   -342     42    351    354 167.0   6.9  34146  289.33 0855.00
2009/04/23 12:09:23.5     135   -310     34    339    341 156.4   5.8  34140  289.23 0855.00
2009/04/23 12:09:23.6      77   -287    102    298    316 164.9  18.9  34142  289.27 0855.00
2009/04/23 12:09:23.7      93   -269     55    285    291 160.8  11.0  34138  289.20 0855.00
2009/04/23 12:09:23.8     157   -212     66    264    273 143.5  14.2  34146  289.32 0855.00
2009/04/23 12:09:23.9     106   -209     83    235    250 153.0  19.6  34150  289.39 0855.00
2009/04/23 12:09:24.0     110   -191    112    221    247 149.9  29.1  34152  289.42 0855.00
2009/04/23 12:09:24.1      29   -198    131    201    239 171.5  36.5  34148  289.36 0855.00
2009/04/23 12:09:24.2      11   -178     78    179    195 176.4  25.1  34154  289.46 0855.00
2009/04/23 12:09:24.3      29   -214     56    216    224 172.2  14.5  34154  289.48 0855.00
2009/04/23 12:09:24.4     -20   -220     68    222    233 185.3  17.1  34154  289.48 0854.96
2009/04/23 12:09:24.5      56   -203     45    211    216 164.4  12.2  34148  289.36 0854.96
2009/04/23 12:09:24.6      58   -260     33    267    270 167.3   7.1  34146  289.32 0854.96
2009/04/23 12:09:24.7       1   -343     11    344    345 179.8   1.9  34134  289.13 0854.96
2009/04/23 12:09:24.8      40   -313     -6    316    317 172.7  -1.3  34144  289.31 0854.96
2009/04/23 12:09:24.9      19   -440    129    441    460 177.5  16.3  34146  289.34 0854.96
2009/04/23 12:09:25.0      54   -384    140    388    413 171.9  19.9  34148  289.36 0854.96
2009/04/23 12:09:25.1      87   -318     16    330    331 164.7   2.8  34146  289.33 0854.96
2009/04/23 12:09:25.2     118   -184      9    219    220 147.3   2.5  34142  289.28 0854.96
2009/04/23 12:09:25.3      69   -209    -74    221    233 161.5 -23.6  34148  289.36 0854.96
2009/04/23 12:09:25.4      83   -290    -97    302    318 163.9 -17.9  34142  289.25 0854.96
2009/04/23 12:09:25.5      41   -245    -71    249    260 170.3 -16.0  34140  289.24 0854.96
2009/04/23 12:09:25.6     -73   -306    -41    315    318 193.4  -7.6  34144  289.29 0854.96
2009/04/23 12:09:25.7     113   -237     41    263    267 154.5   9.0  34146  289.34 0854.96
2009/04/23 12:09:25.8     -25   -172     82    174    192 188.5  27.1  34144  289.31 0854.96
2009/04/23 12:09:25.9     -47   -230    173    235    291 191.6  39.9  34154  289.47 0854.96
2009/04/23 12:09:26.0     -57   -240    208    247    322 193.6  44.3  34146  289.32 0854.96
2009/04/23 12:09:26.1    -102   -281     90    299    313 200.0  16.8  34146  289.34 0854.96
2009/04/23 12:09:26.2      16   -196    113    197    227 175.3  32.4  34150  289.41 0854.96
2009/04/23 12:09:26.3      26   -207    -89    209    227 172.7 -29.0  34142  289.26 0854.96
2009/04/23 12:09:26.4      33   -118    -78    123    145 164.4 -39.9  34142  289.28 0854.96
2009/04/23 12:09:26.5     -58   -146      4    158    159 201.9   1.6  34142  289.28 0854.96
2009/04/23 12:09:26.6     -58   -133      7    146    147 203.7   2.9  34144  289.31 0854.96
2009/04/23 12:09:26.7      22   -158     26    160    163 171.9   9.5  34138  289.21 0854.96
2009/04/23 12:09:26.8       9   -214     47    215    221 177.4  12.4  34142  289.28 0854.96
2009/04/23 12:09:26.9       0   -198     82    199    215 180.0  23.4  34152  289.43 0854.96
2009/04/23 12:09:27.0      66   -221     30    231    233 163.3   7.5  34154  289.47 0854.96
2009/04/23 12:09:27.1      14   -187     -9    188    189 175.5  -2.8  34156  289.52 0854.96
2009/04/23 12:09:27.2     -84   -133    -43    158    164 212.5 -15.5  34156  289.50 0854.96
2009/04/23 12:09:27.3     -85   -134    -12    160    161 212.5  -4.6  34156  289.50 0854.96
2009/04/23 12:09:27.4     -86   -134    -39    160    165 212.6 -13.7  34162  289.62 0854.96
2009/04/23 12:09:27.5     -98   -144    -36    175    179 214.1 -11.9  34162  289.62 0854.96
2009/04/23 12:09:27.6     -90   -144     28    170    173 212.1   9.3  34166  289.67 0854.96
2009/04/23 12:09:27.7    -109   -173    -35    205    209 212.3  -9.8  34164  289.63 0854.96
2009/04/23 12:09:27.8     -60   -141     34    154    158 203.2  12.6  34166  289.67 0854.96
2009/04/23 12:09:27.9     -91   -149     57    175    185 211.4  18.1  34162  289.62 0854.96
2009/04/23 12:09:28.0    -114   -195     33    227    230 210.3   8.5  34148  289.36 0854.96
2009/04/23 12:09:28.1      -2   -189     47    190    196 180.7  13.9  34162  289.62 0854.96
2009/04/23 12:09:28.2       9   -219     -8    220    221 177.5  -2.2  34166  289.69 0854.96
2009/04/23 12:09:28.3      54   -212     49    219    225 165.7  12.6  34170  289.75 0854.96
2009/04/23 12:09:28.4      83   -176     27    195    197 154.7   8.0  34166  289.67 0854.97
2009/04/23 12:09:28.5      85   -150     47    173    180 150.4  15.2  34166  289.67 0854.97
2009/04/23 12:09:28.6      78   -185     47    201    207 157.1  13.2  34154  289.48 0854.97
2009/04/23 12:09:28.7      49   -150     65    158    170 161.7  23.6  34168  289.72 0854.97
2009/04/23 12:09:28.8      56   -140     83    152    173 158.1  31.0  34164  289.65 0854.97
2009/04/23 12:09:28.9      14   -132     76    133    153 173.8  32.4  34168  289.70 0854.97
2009/04/23 12:09:29.0       0   -126     60    127    140 180.0  27.1  34170  289.75 0854.97
2009/04/23 12:09:29.1     -35   -106     55    112    124 198.7  28.2  34166  289.69 0854.97
2009/04/23 12:09:29.2      -8    -88     95     89    130 185.8  52.1  34176  289.85 0854.97
2009/04/23 12:09:29.3      10    -51    116     53    127 168.4  74.0  34176  289.85 0854.97
2009/04/23 12:09:29.4     -28    -78     90     83    122 200.0  52.2  34178  289.89 0854.97
2009/04/23 12:09:29.5      16    -82     67     84    107 168.4  43.3  34176  289.85 0854.97
2009/04/23 12:09:29.6       7    -82     73     83    110 174.7  45.8  34180  289.91 0854.97
2009/04/23 12:09:29.7     -43    -77     68     89    112 209.0  41.7  34172  289.79 0854.97
2009/04/23 12:09:29.8     -60   -135     74    148    165 204.1  28.7  34160  289.58 0854.97
2009/04/23 12:09:29.9     -68    -84     45    109    117 219.2  23.6  34160  289.57 0854.97
2009/04/23 12:09:30.0     -49    -66     -3     83     84 216.5  -2.6  34162  289.62 0854.97
2009/04/23 12:09:30.1     -16    -59    -21     62     66 195.1 -18.7  34160  289.57 0854.97
2009/04/23 12:09:30.2      52    -82     40     98    105 147.4  23.1  34162  289.60 0854.97
2009/04/23 12:09:30.3      63    -96     69    116    134 146.6  33.5  34166  289.69 0854.97
2009/04/23 12:09:30.4      51    -80    102     96    140 147.5  52.1  34168  289.72 0854.96
2009/04/23 12:09:30.5      42   -101     90    110    142 157.3  43.7  34168  289.72 0854.96
2009/04/23 12:09:30.6       1   -116    112    117    161 179.5  49.0  34174  289.82 0854.96
2009/04/23 12:09:30.7     -18   -131    147    133    198 188.1  53.0  34164  289.63 0854.96
2009/04/23 12:09:30.8     -45   -131    142    139    198 199.2  50.4  34164  289.63 0854.96
2009/04/23 12:09:30.9     -53   -134    161    145    216 201.9  53.3  34166  289.69 0854.96
2009/04/23 12:09:31.0     -97   -103    117    142    183 223.3  43.7  34166  289.67 0854.96
2009/04/23 12:09:31.1     -44    -67     78     81    112 213.4  49.0  34174  289.80 0854.96
2009/04/23 12:09:31.2      64      8     17     65     68  82.1  15.3  34190  290.09 0854.96
2009/04/23 12:09:31.3      69     35     33     78     84  62.9  23.6  34222  290.62 0854.96
2009/04/23 12:09:31.4      38    -25     28     46     53 124.2  35.5  34222  290.64 0854.96
2009/04/23 12:09:31.5      29    -60     41     67     78 153.7  34.4  34248  291.06 0854.96
2009/04/23 12:09:31.6       5    -15      0     16     17 161.7  -2.2  34264  291.35 0854.96
2009/04/23 12:09:31.7      12     36     12     39     41  18.7  17.3  34262  291.32 0854.96
2009/04/23 12:09:31.8      72     21     73     76    105  73.2  49.4  34298  291.93 0854.96
2009/04/23 12:09:31.9     -14      8    113     17    114 298.9  90.0  34298  291.93 0854.96
2009/04/23 12:09:32.0     -76    -76     63    108    125 225.1  33.4  34292  291.81 0854.96
2009/04/23 12:09:32.1      47      0     53     48     71  89.2  52.2  34266  291.37 0854.96
2009/04/23 12:09:32.2      32    -39     10     51     53 140.4  11.1  34256  291.21 0854.96
2009/04/23 12:09:32.3     -39    -67     56     78     96 210.7  39.1  34248  291.06 0854.96
2009/04/23 12:09:32.4    -163   -115     76    200    213 234.7  21.5  34214  290.48 0854.94
2009/04/23 12:09:32.5      15   -196    162    197    255 175.5  43.7  34218  290.56 0854.94
2009/04/23 12:09:32.6      35   -229    151    232    276 171.1  36.3  34170  289.73 0854.94
2009/04/23 12:09:32.7      45   -212    194    217    291 168.0  46.4  34166  289.66 0854.94
2009/04/23 12:09:32.8     -40   -224    188    228    295 190.2  43.7  34174  289.81 0854.94
2009/04/23 12:09:32.9    -183   -282     69    337    345 213.0  11.6  34162  289.62 0854.94
2009/04/23 12:09:33.0    -125   -337     63    360    366 200.5  10.0  34182  289.94 0854.94
2009/04/23 12:09:33.1    -162   -339    173    376    413 205.6  26.4  34164  289.65 0854.94
2009/04/23 12:09:33.2    -194   -412    259    456    524 205.3  32.1  34168  289.71 0854.94
2009/04/23 12:09:33.3    -195   -349    207    400    450 209.2  29.4  34158  289.55 0854.94
2009/04/23 12:09:33.4     -14   -304    179    305    353 182.7  33.3  34154  289.47 0854.94
2009/04/23 12:09:33.5      85   -323    187    334    382 165.2  31.5  34154  289.47 0854.94
2009/04/23 12:09:33.6     235   -431    181    491    523 151.4  21.1  34156  289.49 0854.94
2009/04/23 12:09:33.7     110   -409    259    424    496 164.9  34.4  34152  289.44 0854.94
2009/04/23 12:09:33.8     132   -362    235    386    451 160.0  34.1  34146  289.33 0854.94
2009/04/23 12:09:33.9     181   -273    170    328    369 146.4  29.4  34152  289.42 0854.94
2009/04/23 12:09:34.0     147   -286    132    322    348 152.8  23.5  34152  289.42 0854.94
2009/04/23 12:09:34.1     107   -254     98    276    294 157.1  19.6  34148  289.37 0854.94
2009/04/23 12:09:34.2     -25   -215     52    217    224 186.9  13.7  34148  289.38 0854.94
2009/04/23 12:09:34.3     -32   -225    -62    228    237 188.1 -15.4  34154  289.46 0854.94
2009/04/23 12:09:34.4      25   -184    -91    186    207 172.2 -31.8  34152  289.45 0854.94
2009/04/23 12:09:34.5     195   -208   -141    286    318 136.8 -32.6  34150  289.41 0854.94
2009/04/23 12:09:34.6     142   -144   -113    203    232 135.3 -35.8  34154  289.48 0854.94
2009/04/23 12:09:34.7      62   -266    -35    274    277 166.7  -7.3  34154  289.46 0854.94
2009/04/23 12:09:34.8      11   -188    -38    189    194 176.4 -11.6  34154  289.46 0854.94
2009/04/23 12:09:34.9       1   -150     -5    151    152 179.5  -2.2  34152  289.45 0854.94
2009/04/23 12:09:35.0      27   -161    -21    164    166 170.4  -7.3  34154  289.48 0854.94
2009/04/23 12:09:35.1      77   -192      2    207    208 158.1   0.8  34152  289.43 0854.94
2009/04/23 12:09:35.2      66   -180    116    193    225 159.7  34.0  34148  289.38 0854.94
2009/04/23 12:09:35.3      -2   -158    132    159    206 180.9  43.8  34154  289.46 0854.94
2009/04/23 12:09:35.4      10   -130     92    131    160 175.6  38.6  34154  289.48 0854.94
2009/04/23 12:09:35.5     -28   -107     13    111    112 195.1   6.9  34156  289.52 0854.94
2009/04/23 12:09:35.6      11   -152     -6    153    154 175.5  -2.2  34156  289.50 0854.94
2009/04/23 12:09:35.7      91    -91     11    129    130 134.9   4.9  34154  289.48 0854.94
2009/04/23 12:09:35.8     125   -108     79    166    183 130.7  27.2  34152  289.43 0854.94
2009/04/23 12:09:35.9     238    -21    191    239    305  95.2  43.0  34146  289.34 0854.94
2009/04/23 12:09:36.0     193   -120     86    228    243 121.8  21.5  34152  289.42 0854.94
2009/04/23 12:09:36.1     141     -7     27    142    145  93.0  11.1  34144  289.30 0854.94
2009/04/23 12:09:36.2       3     22    -60     23     64   9.8 -83.6  34150  289.40 0854.94
2009/04/23 12:09:36.3     -11    -45      2     47     48 194.3   2.9  34148  289.38 0854.94
2009/04/23 12:09:36.4       7   -163     23    164    166 177.5   8.0  34150  289.40 0854.96
2009/04/23 12:09:36.5     -15   -194     12    195    196 184.5   3.6  34150  289.41 0854.96
2009/04/23 12:09:36.6      85   -255     -1    269    270 161.5  -0.3  34158  289.53 0854.96
2009/04/23 12:09:36.7     122   -278      9    304    305 156.3   1.8  34160  289.58 0854.96
2009/04/23 12:09:36.8     157   -202     19    257    258 142.2   4.2  34158  289.53 0854.96
2009/04/23 12:09:36.9     216   -150     -2    264    265 124.9  -0.5  34158  289.53 0854.96
2009/04/23 12:09:37.0     201   -136     -9    243    244 124.2  -2.2  34150  289.41 0854.96
2009/04/23 12:09:37.1     140   -224    146    265    302 147.9  31.4  34140  289.24 0854.96
2009/04/23 12:09:37.2      89   -226    151    244    286 158.4  34.8  34144  289.29 0854.96
2009/04/23 12:09:37.3      77   -212    170    226    282 160.0  40.7  34144  289.31 0854.96
2009/04/23 12:09:37.4      69   -159    136    174    220 156.6  42.0  34144  289.31 0854.97
2009/04/23 12:09:37.5      16   -166    115    167    202 174.4  37.6  34144  289.30 0854.97
2009/04/23 12:09:37.6     -13   -170    177    171    246 184.4  51.2  34146  289.33 0854.97
2009/04/23 12:09:37.7     -45   -204    253    209    328 192.5  56.4  34142  289.25 0854.97
2009/04/23 12:09:37.8     -86   -159    255    181    312 208.5  61.2  34150  289.39 0854.97
2009/04/23 12:09:37.9      59   -124    169    138    218 154.7  56.4  34152  289.45 0854.97
2009/04/23 12:09:38.0     -23   -100     75    103    127 193.4  39.7  34144  289.31 0854.97
2009/04/23 12:09:38.1     107     31     49    112    122  73.6  25.1  34154  289.46 0854.97
2009/04/23 12:09:38.2      28     89     33     94    100  17.4  19.4  34148  289.38 0854.97
2009/04/23 12:09:38.3       8    233     70    234    245   2.0  16.8  34148  289.37 0854.97
2009/04/23 12:09:38.4    -153    153     40    217    221 315.0  10.6  34150  289.40 0854.97
2009/04/23 12:09:38.5     109    116     80    160    178  43.3  28.5  34152  289.43 0854.97
2009/04/23 12:09:38.6     138    147    107    202    228  43.2  30.1  34154  289.46 0854.97
2009/04/23 12:09:38.7      97    160    -41    188    193  31.2 -12.4  34158  289.55 0854.97
2009/04/23 12:09:38.8      16    187    118    188    221   5.1  35.5  34152  289.43 0854.97
2009/04/23 12:09:38.9      44    202    131    207    244  12.5  35.5  34158  289.54 0854.97
2009/04/23 12:09:39.0      95    102     83    140    162  43.2  33.7  34164  289.65 0854.97
2009/04/23 12:09:39.1      27    103     73    107    129  14.7  37.6  34174  289.82 0854.97
2009/04/23 12:09:39.2     -73    134     93    153    179 331.5  34.2  34170  289.75 0854.97
2009/04/23 12:09:39.3     -57    169    112    179    211 341.3  35.2  34164  289.65 0854.97
2009/04/23 12:09:39.4     -58    155    108    166    198 339.3  36.3  34180  289.92 0855.00
2009/04/23 12:09:39.5     -22    165     41    167    173 352.2  13.9  34190  290.08 0855.00
2009/04/23 12:09:39.6     160    214    115    268    291  36.9  24.9  34272  291.46 0855.00
2009/04/23 12:09:39.7     129    257     12    288    289  26.7   2.5  34272  291.46 0855.00
2009/04/23 12:09:39.8     172    259     36    312    315  33.6   6.6  34270  291.43 0855.00
2009/04/23 12:09:39.9     167    155     43    229    234  47.1  10.8  34246  291.04 0855.00
2009/04/23 12:09:40.0     122    144    170    190    254  40.3  46.6  34254  291.17 0855.00
2009/04/23 12:09:40.1     108    109    113    154    191  44.5  39.9  34244  290.99 0855.00
2009/04/23 12:09:40.2     115     83     88    143    167  54.0  34.8  34256  291.21 0855.00
2009/04/23 12:09:40.3      84     25     68     88    111  73.2  42.2  34264  291.33 0855.00
2009/04/23 12:09:40.4      86      2     69     87    111  88.3  43.3  34264  291.35 0855.00
2009/04/23 12:09:40.5     258     66     22    267    269  75.6   4.9  34244  291.00 0855.00
2009/04/23 12:09:40.6     374    115     22    392    393  72.8   3.2  34166  289.69 0855.00
2009/04/23 12:09:40.7     398    133     66    420    426  71.4   9.0  34164  289.65 0855.00
2009/04/23 12:09:40.8     324    252    -16    411    412  52.2  -2.2  34186  290.00 0855.00
2009/04/23 12:09:40.9     315    305    -33    439    441  46.0  -4.4  34178  289.87 0855.00
2009/04/23 12:09:41.0     320    164     94    360    373  62.8  14.7  34168  289.71 0855.00
2009/04/23 12:09:41.1     298     89    -12    312    313  73.4  -2.2  34198  290.20 0855.00
2009/04/23 12:09:41.2     290     92     14    305    306  72.3   2.8  34204  290.31 0855.00
2009/04/23 12:09:41.3     250     62     88    258    273  75.9  18.9  34200  290.26 0855.00
2009/04/23 12:09:41.4     484    119    156    499    524  76.2  17.4  34174  289.81 0854.99
2009/04/23 12:09:41.5     315    120    119    338    359  69.2  19.4  34184  289.99 0854.99
2009/04/23 12:09:41.6     259      7     22    260    262  88.3   5.0  34172  289.76 0854.99
2009/04/23 12:09:41.7     167     -7    216    168    273  92.6  58.4  34178  289.86 0854.99
2009/04/23 12:09:41.8     121   -171    156    210    261 144.8  40.1  34172  289.78 0854.99
2009/04/23 12:09:41.9      31   -183    161    186    246 170.4  45.4  34184  289.97 0854.99
2009/04/23 12:09:42.0       4   -284    113    285    306 179.1  23.0  34188  290.05 0854.99
2009/04/23 12:09:42.1      95   -287     88    303    316 161.5  16.3  34190  290.09 0854.99
2009/04/23 12:09:42.2     234   -325     15    401    402 144.3   2.2  34192  290.10 0854.99
2009/04/23 12:09:42.3     143   -308    -43    340    343 155.1  -7.3  34194  290.15 0854.99
2009/04/23 12:09:42.4     227   -284    -73    364    372 141.4 -11.3  34204  290.32 0854.99
2009/04/23 12:09:42.5     308   -328    -42    451    454 136.8  -5.3  34228  290.72 0854.99
2009/04/23 12:09:42.6     320   -301     22    440    441 133.2   2.9  34206  290.34 0854.99
2009/04/23 12:09:42.7     328   -328    -88    465    474 135.0 -10.8  34192  290.13 0854.99
2009/04/23 12:09:42.8     246   -226   -115    335    355 132.6 -19.0  34202  290.27 0854.99
2009/04/23 12:09:42.9     407   -109    -69    422    428 105.0  -9.3  34206  290.34 0854.99
2009/04/23 12:09:43.0     261   -170     20    312    313 123.1   3.7  34176  289.85 0854.99
2009/04/23 12:09:43.1     436     58     13    440    441  82.4   1.7  34214  290.48 0854.99
2009/04/23 12:09:43.2     353     73    -14    361    362  78.2  -2.3  34252  291.15 0854.99
2009/04/23 12:09:43.3     211    -80    147    226    269 110.8  35.7  34212  290.44 0854.99
2009/04/23 12:09:43.4      25    -79    199     83    215 162.2  76.3  34172  289.79 0854.91
2009/04/23 12:09:43.5      16     65    214     68    224  14.3  81.6  34180  289.92 0854.91
2009/04/23 12:09:43.6     -26    -16    235     31    237 237.6  90.0  34196  290.19 0854.91
2009/04/23 12:09:43.7      68    -19    360     71    366 105.9  89.5  34210  290.42 0854.91
2009/04/23 12:09:43.8      78    -25    231     83    245 108.2  79.7  34192  290.13 0854.91
2009/04/23 12:09:43.9      50   -296    195    301    358 170.3  35.9  34198  290.20 0854.91
2009/04/23 12:09:44.0       0   -311     80    312    323 180.1  14.4  34186  290.00 0854.91
2009/04/23 12:09:44.1       9   -329    129    330    354 178.3  22.5  34188  290.04 0854.91
2009/04/23 12:09:44.2      40   -369     80    372    381 173.8  12.2  34180  289.91 0854.91
2009/04/23 12:09:44.3     162   -434    -18    464    465 159.5  -2.2  34174  289.82 0854.91
2009/04/23 12:09:44.4     161   -373    -22    407    408 156.6  -3.2  34180  289.90 0854.91
2009/04/23 12:09:44.5     240   -269     92    361    373 138.3  14.3  34188  290.04 0854.91
2009/04/23 12:09:44.6     120   -318     64    341    348 159.3  10.7  34182  289.94 0854.91
2009/04/23 12:09:44.7      16   -333     90    334    347 177.1  15.2  34182  289.96 0854.91
2009/04/23 12:09:44.8      45   -289    119    293    316 171.1  23.5  34182  289.93 0854.91
2009/04/23 12:09:44.9      85   -241    168    256    306 160.4  36.3  34186  290.00 0854.91
2009/04/23 12:09:45.0     105   -205    188    231    297 152.9  43.5  34194  290.15 0854.91
2009/04/23 12:09:45.1      42   -206    164    211    267 168.4  41.7  34194  290.14 0854.91
2009/04/23 12:09:45.2     104   -142    140    177    225 143.9  42.7  34188  290.04 0854.91
2009/04/23 12:09:45.3     183    -97    136    208    248 118.0  36.3  34152  289.42 0854.91
2009/04/23 12:09:45.4     153    -99    173    183    251 123.1  48.5  34138  289.21 0854.87
2009/04/23 12:09:45.6     169    -98    175    196    262 120.2  46.6  34138  289.19 0854.87
2009/04/23 12:09:45.6     117    -40    127    124    177 109.1  50.9  34142  289.26 0854.87
2009/04/23 12:09:45.7      61     20    105     65    123  71.8  64.7  34144  289.30 0854.87
2009/04/23 12:09:45.8       0     14     69     15     70   0.9  89.0  34152  289.45 0854.87
2009/04/23 12:09:45.9      48     83     99     97    138  30.3  50.2  34158  289.55 0854.87
2009/04/23 12:09:46.0     -26      8    115     28    118 288.4  86.9  34150  289.41 0854.87
2009/04/23 12:09:46.1      -8    -26    144     28    146 198.7  89.1  34152  289.45 0854.87
2009/04/23 12:09:46.2     -34   -130    122    135    181 194.7  47.1  34150  289.40 0854.87
2009/04/23 12:09:46.3     -61   -155    152    167    225 201.6  47.1  34152  289.43 0854.87
2009/04/23 12:09:46.4     -70   -154    168    170    239 204.5  50.0  34158  289.55 0854.87
2009/04/23 12:09:46.5    -191   -120    164    226    279 237.8  39.7  34160  289.58 0854.87
2009/04/23 12:09:46.6     -77   -239    215    252    331 197.8  44.8  34152  289.42 0854.87
2009/04/23 12:09:46.7     -75   -328    230    337    408 192.9  37.4  34148  289.38 0854.87
2009/04/23 12:09:46.8       0   -410    223    411    467 179.9  30.9  34148  289.38 0854.87
2009/04/23 12:09:46.9     -55   -397    152    402    429 188.0  21.7  34138  289.21 0854.87
2009/04/23 12:09:47.1     -39   -310    280    313    419 187.3  46.5  34138  289.20 0854.87
2009/04/23 12:09:47.1      -2   -340    256    341    426 180.5  40.7  34142  289.25 0854.87
2009/04/23 12:09:47.3       0   -374    238    375    444 180.1  35.5  34144  289.31 0854.87
2009/04/23 12:09:47.4       5   -299    189    300    354 179.0  35.2  34146  289.35 0854.87
2009/04/23 12:09:47.5      25   -367    130    368    390 176.0  20.2  34148  289.38 0854.85
2009/04/23 12:09:47.6      25   -349    150    350    380 175.9  24.8  34152  289.42 0854.85
2009/04/23 12:09:47.7     206   -393    155    444    470 152.3  20.0  34148  289.38 0854.85
2009/04/23 12:09:47.8      93   -313    158    327    363 163.4  27.4  34146  289.32 0854.85
2009/04/23 12:09:47.9      -6   -379    139    380    404 181.0  21.0  34150  289.40 0854.85
2009/04/23 12:09:48.0     -50   -404    104    408    422 187.1  14.4  34148  289.36 0854.85
2009/04/23 12:09:48.1      44   -375    104    378    393 173.3  15.4  34158  289.54 0854.85
2009/04/23 12:09:48.2      24   -325    167    326    366 175.7  29.2  34140  289.23 0854.85
2009/04/23 12:09:48.3      38   -367    121    370    390 174.0  18.1  34146  289.35 0854.85
2009/04/23 12:09:48.4     154   -443    114    470    484 160.8  13.7  34130  289.08 0854.85
2009/04/23 12:09:48.5     107   -422    145    436    460 165.7  18.5  34128  289.04 0854.85
2009/04/23 12:09:48.6      65   -382    198    388    435 170.3  29.2  34132  289.09 0854.85
2009/04/23 12:09:48.7      59   -382    196    387    433 171.2  29.1  34136  289.17 0854.85
2009/04/23 12:09:48.8      30   -391     91    393    404 175.6  13.1  34138  289.20 0854.85
2009/04/23 12:09:48.9     -25   -485    223    486    534 183.0  26.3  34128  289.02 0854.85
2009/04/23 12:09:49.0    -148   -445    157    470    496 198.5  18.6  34140  289.22 0854.85
2009/04/23 12:09:49.1    -154   -385    138    415    438 201.8  18.4  34136  289.17 0854.85
2009/04/23 12:09:49.2     -16   -357     31    358    360 182.7   5.1  34136  289.16 0854.85
2009/04/23 12:09:49.3     -46   -359     32    362    364 187.3   5.2  34136  289.15 0854.85
2009/04/23 12:09:49.4     -54   -381     85    385    395 188.1  12.5  34138  289.21 0854.85
2009/04/23 12:09:49.5       8   -310     85    311    323 178.4  15.3  34140  289.24 0854.89
2009/04/23 12:09:49.6     -20   -515    -14    516    517 182.3  -1.6  34136  289.18 0854.89
2009/04/23 12:09:49.7    -158   -540     71    563    568 196.4   7.2  34146  289.35 0854.89
2009/04/23 12:09:49.8     -74   -493    -54    499    503 188.6  -6.2  34146  289.34 0854.89
2009/04/23 12:09:49.9    -122   -405    -31    423    425 196.8  -4.2  34150  289.41 0854.89
2009/04/23 12:09:50.0    -111   -277    -28    299    301 201.8  -5.4  34152  289.44 0854.89
2009/04/23 12:09:50.1      26   -284   -110    286    306 174.7 -26.5  34148  289.37 0854.89
2009/04/23 12:09:50.2     -86   -197   -104    216    239 203.6 -31.8  34148  289.38 0854.89
2009/04/23 12:09:50.3     -44   -349    -78    352    361 187.2 -12.6  34150  289.40 0854.89
2009/04/23 12:09:50.4       0   -260    -92    261    276 179.8 -24.4  34150  289.41 0854.89
2009/04/23 12:09:50.5      85   -214    -84    231    245 158.2 -25.1  34152  289.44 0854.89
2009/04/23 12:09:50.6     106   -259   -111    281    302 157.7 -27.4  34148  289.36 0854.89
2009/04/23 12:09:50.7      45   -197   -125    203    238 167.1 -38.9  34146  289.35 0854.89
2009/04/23 12:09:50.8     -24   -175   -128    177    218 188.0 -43.9  34144  289.31 0854.89
2009/04/23 12:09:50.9     -72   -130   -125    149    194 209.0 -48.5  34142  289.26 0854.89
2009/04/23 12:09:51.0     108   -201   -151    229    274 151.7 -41.1  34148  289.37 0854.89
2009/04/23 12:09:51.1      84   -298    -72    310    319 164.2 -13.1  34146  289.32 0854.89
2009/04/23 12:09:51.2      43   -352   -109    355    372 172.9 -17.2  34144  289.30 0854.89
2009/04/23 12:09:51.3      73   -383    -25    391    392 169.1  -3.7  34150  289.40 0854.89
2009/04/23 12:09:51.4      89   -374     -7    385    386 166.5  -1.2  34144  289.30 0854.89
2009/04/23 12:09:51.5     138   -317    -81    346    356 156.5 -13.2  34144  289.30 0854.90
2009/04/23 12:09:51.6     169   -313    -41    356    359 151.6  -6.6  34132  289.10 0854.90
2009/04/23 12:09:51.7     170   -381     82    418    427 155.9  11.1  34128  289.02 0854.90
2009/04/23 12:09:51.8      86   -390    165    400    432 167.5  23.7  34126  288.99 0854.90
2009/04/23 12:09:51.9     102   -462    145    474    496 167.5  17.0  34124  288.96 0854.90
2009/04/23 12:09:52.0      58   -470     96    474    484 172.9  11.5  34120  288.90 0854.90
2009/04/23 12:09:52.1     116   -488    151    502    525 166.6  16.8  34118  288.86 0854.90
2009/04/23 12:09:52.2      57   -525    264    529    591 173.8  28.5  34120  288.90 0854.90
2009/04/23 12:09:52.3     -26   -475    324    476    575 183.2  37.4  34120  288.91 0854.90
2009/04/23 12:09:52.4      34   -383    317    385    498 174.9  43.7  34126  289.00 0854.90
2009/04/23 12:09:52.5      34   -448    281    450    530 175.7  35.0  34130  289.08 0854.90
2009/04/23 12:09:52.6     -16   -459    125    460    477 182.0  15.3  34126  289.01 0854.90
2009/04/23 12:09:52.7      77   -411    -75    419    426 169.3 -10.3  34126  289.00 0854.90
2009/04/23 12:09:52.8     217   -441   -106    492    504 153.7 -12.2  34130  289.06 0854.90
2009/04/23 12:09:52.9     188   -455    -44    493    496 157.5  -5.2  34126  289.00 0854.90
2009/04/23 12:09:53.0     233   -419     45    480    483 150.9   5.5  34126  289.01 0854.90
2009/04/23 12:09:53.1     199   -424     52    469    472 154.8   6.4  34126  289.00 0854.90
2009/04/23 12:09:53.2     187   -364     30    410    412 152.8   4.2  34126  288.99 0854.90
2009/04/23 12:09:53.3     132   -329    126    355    377 158.1  19.6  34126  288.99 0854.90
2009/04/23 12:09:53.4      64   -307   -111    314    334 168.2 -19.5  34130  289.05 0854.90
2009/04/23 12:09:53.5     -27   -350     -6    352    353 184.5  -1.1  34126  289.01 0854.86
2009/04/23 12:09:53.6      98   -404    -16    416    417 166.3  -2.2  34126  289.00 0854.86
2009/04/23 12:09:53.7      83   -436    -51    444    447 169.2  -6.6  34128  289.02 0854.86
2009/04/23 12:09:53.8      84   -486     12    494    495 170.1   1.5  34120  288.88 0854.86
2009/04/23 12:09:53.9    -146   -450     47    474    477 198.0   5.7  34142  289.25 0854.86
2009/04/23 12:09:54.0    -216   -327     13    393    394 213.5   1.9  34146  289.33 0854.86
2009/04/23 12:09:54.1    -196   -311    -34    368    370 212.2  -5.3  34128  289.04 0854.86
2009/04/23 12:09:54.2      18   -224    108    225    249 175.3  27.3  34134  289.14 0854.86
2009/04/23 12:09:54.3     175   -242    118    299    321 144.2  22.7  34132  289.10 0854.86
2009/04/23 12:09:54.4      11   -255    148    256    295 177.5  32.7  34130  289.07 0854.86
2009/04/23 12:09:54.5       0   -233    -38    234    238 180.2  -9.3  34134  289.14 0854.86
2009/04/23 12:09:54.6     -33    -93    -53     99    112 199.6 -35.2  34130  289.06 0854.86
2009/04/23 12:09:54.7     -38    -53    -22     66     69 215.2 -23.6  34134  289.13 0854.86
2009/04/23 12:09:54.8      22   -123    -12    125    126 169.8  -5.6  34132  289.09 0854.86
2009/04/23 12:09:54.9     -25   -196     -9    198    199 187.3  -2.6  34130  289.06 0854.86
2009/04/23 12:09:55.0      66   -286     36    294    297 166.9   7.1  34130  289.05 0854.86
2009/04/23 12:09:55.1     145   -288     51    323    328 153.3   9.0  34124  288.97 0854.86
2009/04/23 12:09:55.2      66   -337    114    344    363 168.9  18.5  34120  288.88 0854.86
2009/04/23 12:09:55.3      64   -367     61    373    379 170.0   9.3  34124  288.96 0854.86
2009/04/23 12:09:55.4      76   -276    126    287    313 164.6  25.2  34126  289.00 0854.86
2009/04/23 12:09:55.5      89   -292    106    306    325 163.0  19.2  34124  288.97 0854.87
2009/04/23 12:09:55.6      62   -260    111    268    290 166.6  23.8  34124  288.95 0854.87
2009/04/23 12:09:55.7       5   -283    102    284    301 178.9  20.4  34126  288.98 0854.87
2009/04/23 12:09:55.8       8   -294     98    295    311 178.4  18.4  34124  288.95 0854.87
2009/04/23 12:09:55.9      41   -265     97    269    285 171.1  20.7  34124  288.97 0854.87
2009/04/23 12:09:56.0      45   -223     80    228    241 168.5  20.0  34128  289.02 0854.87
2009/04/23 12:09:56.1      45   -177     84    183    201 165.7  26.2  34128  289.02 0854.87
2009/04/23 12:09:56.2      10   -186     85    187    205 176.9  26.4  34126  289.01 0854.87
2009/04/23 12:09:56.3      66   -185      8    197    198 160.2   2.5  34128  289.04 0854.87
2009/04/23 12:09:56.4      15   -202     69    203    215 175.6  18.9  34126  288.99 0854.87
2009/04/23 12:09:56.5     -17   -183     42    184    189 185.6  12.9  34128  289.02 0854.87
2009/04/23 12:09:56.6      14   -210     63    211    221 176.0  16.8  34130  289.08 0854.87
2009/04/23 12:09:56.7     174   -287    165    336    374 148.8  28.0  34138  289.20 0854.87
2009/04/23 12:09:56.8     129   -409    148    429    454 162.5  19.1  34154  289.48 0854.87
2009/04/23 12:09:56.9      16   -367    150    368    397 177.4  23.5  34144  289.30 0854.87
2009/04/23 12:09:57.0     -28   -334    162    336    373 184.8  27.4  34138  289.20 0854.87
2009/04/23 12:09:57.1     -61   -341    243    347    423 190.3  38.5  34152  289.43 0854.87
2009/04/23 12:09:57.2     -36   -289    195    292    351 187.2  36.7  34176  289.84 0854.87
2009/04/23 12:09:57.3    -104   -287    220    306    376 200.0  39.5  34166  289.67 0854.87
2009/04/23 12:09:57.4    -134   -301    178    330    374 204.1  30.8  34164  289.65 0854.87
2009/04/23 12:09:57.5     162   -230    213    282    353 144.8  40.9  34128  289.03 0854.88
2009/04/23 12:09:57.6     212   -211    295    300    420 134.9  49.8  34128  289.03 0854.88
2009/04/23 12:09:57.7     235   -170    254    291    386 125.9  45.7  34130  289.06 0854.88
2009/04/23 12:09:57.8      38   -189    122    193    228 168.5  35.5  34130  289.06 0854.88
2009/04/23 12:09:57.9      55   -106    186    120    221 152.4  64.6  34130  289.08 0854.88
2009/04/23 12:09:58.0     186    -44    167    192    254 103.3  45.6  34136  289.15 0854.88
2009/04/23 12:09:58.1     161    -39     53    166    175 103.7  17.9  34132  289.11 0854.88
2009/04/23 12:09:58.2     106      0     62    107    123  90.0  33.4  34134  289.13 0854.88
2009/04/23 12:09:58.3      32      4     59     33     67  82.1  68.8  34134  289.13 0854.88
2009/04/23 12:09:58.4     -58    -58     51     83     97 225.0  35.5  34136  289.16 0854.88
2009/04/23 12:09:58.5     -73    -77     20    107    109 223.3  11.0  34134  289.14 0854.88
2009/04/23 12:09:58.6     -77    -77     13    110    111 225.1   6.9  34132  289.09 0854.88
2009/04/23 12:09:58.7     -86     -5      7     87     88 266.5   4.9  34132  289.09 0854.88
2009/04/23 12:09:58.8    -116     32      4    121    122 285.5   2.3  34134  289.13 0854.88
2009/04/23 12:09:58.9    -119     67    -14    137    138 299.3  -6.2  34142  289.26 0854.88
2009/04/23 12:09:59.0     -97     32    -51    103    114 288.6 -32.2  34140  289.24 0854.88
2009/04/23 12:09:59.1    -101     58    -38    117    123 299.8 -23.3  34140  289.23 0854.88
2009/04/23 12:09:59.2    -116     48   -113    126    169 292.6 -51.0  34142  289.28 0854.88
2009/04/23 12:09:59.3    -107     84   -110    137    175 308.2 -47.4  34136  289.18 0854.88
2009/04/23 12:09:59.4     -89     79    -67    120    137 311.8 -35.8  34134  289.13 0854.88
2009/04/23 12:09:59.5    -106     98    -18    145    147 312.7  -7.2  34134  289.14 0854.92
2009/04/23 12:09:59.6    -161    -16      5    162    163 264.3   1.8  34142  289.26 0854.92
2009/04/23 12:09:59.7    -196     31    -69    199    210 279.2 -23.8  34148  289.36 0854.92
2009/04/23 12:09:59.8    -196     23    -97    198    220 276.8 -32.2  34144  289.30 0854.92
2009/04/23 12:09:59.9    -111    -62    -60    128    141 240.7 -31.5  34140  289.24 0854.92
2009/04/23 12:10:00.0     -12     15     24     20     31 320.4  56.3  34140  289.24 0854.92
2009/04/23 12:10:00.1      -9     75    113     76    136 352.9  63.2  34140  289.23 0854.92
2009/04/23 12:10:00.2     -26    148     68    151    165 349.8  25.7  34144  289.31 0854.92
2009/04/23 12:10:00.3     133     84    129    158    203  57.5  43.5  34144  289.31 0854.92
2009/04/23 12:10:00.4     215     38    207    219    301  79.9  48.0  34136  289.17 0854.92
2009/04/23 12:10:00.5     280     26    177    282    332  84.7  35.2  34130  289.07 0854.94
2009/04/23 12:10:00.6     312     -4    195    313    368  90.8  35.2  34136  289.15 0854.94
2009/04/23 12:10:00.7     314     36    154    317    352  83.4  27.8  34132  289.11 0854.94
2009/04/23 12:10:00.8     251     12    189    252    315  87.2  40.7  34132  289.10 0854.94
2009/04/23 12:10:00.9     293      0    170    294    339  90.0  32.8  34130  289.07 0854.94
2009/04/23 12:10:01.0     312     21    176    313    359  86.1  31.7  34134  289.13 0854.94
2009/04/23 12:10:01.1     261     20    165    262    309  85.6  35.5  34134  289.14 0854.94
2009/04/23 12:10:01.2     238    -32    147    241    282  97.7  34.4  34134  289.14 0854.94
2009/04/23 12:10:01.3     252    -81     82    265    278 107.8  17.3  34138  289.19 0854.94
2009/04/23 12:10:01.4     208    -25    194    210    285  97.0  47.7  34132  289.10 0854.94
2009/04/23 12:10:01.5     139    -23    137    141    196  99.6  49.2  34136  289.18 0854.94
2009/04/23 12:10:01.6      92    -76    122    120    171 129.5  50.1  34138  289.19 0854.94
2009/04/23 12:10:01.7      46   -212    154    217    266 167.7  38.8  34136  289.17 0854.94
2009/04/23 12:10:01.8     -13   -170    178    171    246 184.7  51.2  34136  289.16 0854.94
2009/04/23 12:10:01.9     -63   -164    163    176    239 201.2  47.7  34134  289.14 0854.94
2009/04/23 12:10:02.0      10   -140    209    141    252 175.5  63.2  34138  289.19 0854.94
2009/04/23 12:10:02.1     162     -8    163    163    230  93.0  50.1  34144  289.30 0854.94
2009/04/23 12:10:02.2     155    -11    108    156    189  94.4  38.0  34152  289.45 0854.94
2009/04/23 12:10:02.3      66      1     92     67    113  88.3  60.5  34164  289.63 0854.94
2009/04/23 12:10:02.4      61      6    183     62    193  83.9  81.2  34142  289.28 0854.94
2009/04/23 12:10:02.5     128     35    233    133    268  74.5  67.8  34156  289.49 0854.97
2009/04/23 12:10:02.6      79     87    198    118    230  42.3  66.7  34164  289.65 0854.97
2009/04/23 12:10:02.7     -35     33    178     49    184 313.1  84.6  34162  289.62 0854.97
2009/04/23 12:10:02.8      80    150    113    171    204  28.1  36.5  34182  289.94 0854.97
2009/04/23 12:10:02.9      30     23    192     39    195  52.2  89.1  34178  289.87 0854.97
2009/04/23 12:10:03.0     -68   -107    129    128    181 212.5  50.1  34162  289.62 0854.97
2009/04/23 12:10:03.1     -12   -154    128    155    201 184.5  43.7  34140  289.23 0854.97
2009/04/23 12:10:03.2      68   -217    133    228    263 162.6  32.9  34136  289.17 0854.97
2009/04/23 12:10:03.3     140   -185     57    233    241 142.8  13.9  34136  289.15 0854.97
2009/04/23 12:10:03.4     269    -58    161    276    319 102.3  32.9  34142  289.27 0854.97
2009/04/23 12:10:03.5     228   -134    161    265    310 120.4  34.4  34124  288.95 0854.97
2009/04/23 12:10:03.6     293      4    158    294    333  89.1  30.6  34172  289.76 0854.97
2009/04/23 12:10:03.7     241     30     88    243    259  82.8  19.9  34198  290.20 0854.97
2009/04/23 12:10:03.8     276    152    250    316    402  61.2  42.6  34166  289.67 0854.97
2009/04/23 12:10:03.9     123    222    214    254    332  29.0  44.3  34186  290.00 0854.97
2009/04/23 12:10:04.0      14    141    193    142    239   5.8  60.3  34166  289.69 0854.97
2009/04/23 12:10:04.1    -112     44    177    121    214 291.7  62.6  34158  289.53 0854.97
2009/04/23 12:10:04.2      36   -126     78    132    153 164.0  33.5  34140  289.24 0854.97
2009/04/23 12:10:04.3      62   -134     62    148    160 155.1  24.1  34134  289.13 0854.97
2009/04/23 12:10:04.4     116   -109     67    160    173 133.1  23.8  34136  289.16 0854.97
2009/04/23 12:10:04.5      86    -89     34    124    129 135.9  15.3  34136  289.16 0854.97
2009/04/23 12:10:04.6      93    -79     -3    123    124 130.4  -1.8  34132  289.11 0854.97
2009/04/23 12:10:04.7     133     58    -82    146    167  66.4 -36.3  34158  289.55 0854.97
2009/04/23 12:10:04.8     195    107    -89    223    240  61.1 -27.4  34166  289.66 0854.97
2009/04/23 12:10:04.9     201    199    -15    283    284  45.3  -3.2  34180  289.92 0854.97
2009/04/23 12:10:05.0     243    288     -7    378    379  40.2  -1.1  34164  289.65 0854.97
2009/04/23 12:10:05.1     270    286    101    394    407  43.3  14.5  34158  289.55 0854.97
2009/04/23 12:10:05.2     188    158    100    246    265  50.0  23.4  34148  289.36 0854.97
2009/04/23 12:10:05.3      86    119    155    148    214  36.0  51.2  34148  289.38 0854.97
2009/04/23 12:10:05.4      78     53    137     95    166  55.4  61.8  34156  289.52 0854.97
2009/04/23 12:10:05.5      36     14    205     39    208  68.3  89.8  34150  289.41 0854.97
2009/04/23 12:10:05.6     -27    -82    244     87    259 198.7  79.9  34144  289.31 0854.97
2009/04/23 12:10:05.7    -135   -136    191    192    270 224.8  50.2  34158  289.54 0854.97
2009/04/23 12:10:05.8    -212   -110    196    239    309 242.5  43.7  34158  289.54 0854.97
2009/04/23 12:10:05.9    -232      9    105    233    255 272.4  26.2  34162  289.59 0854.97
2009/04/23 12:10:06.0    -142     37    125    147    192 284.6  44.8  34146  289.33 0854.97
2009/04/23 12:10:06.1      -1   -126    148    127    195 180.5  55.4  34148  289.36 0854.97
2009/04/23 12:10:06.2     -10   -132    103    133    168 184.5  42.0  34146  289.33 0854.97
2009/04/23 12:10:06.3     -21   -137     49    139    147 188.9  20.0  34152  289.43 0854.97
2009/04/23 12:10:06.4       9   -177     18    178    179 176.9   5.9  34146  289.35 0854.97
2009/04/23 12:10:06.5      -9   -154     54    155    165 183.6  19.4  34144  289.30 0855.00
2009/04/23 12:10:06.6     -26   -127     45    130    138 191.6  19.4  34136  289.18 0855.00
2009/04/23 12:10:06.7     -68   -150    -50    165    172 204.5 -22.1  34142  289.26 0855.00
2009/04/23 12:10:06.8    -141    -77    -46    161    167 241.1 -20.7  34142  289.26 0855.00
2009/04/23 12:10:06.9    -183   -184    -78    260    272 224.9 -16.8  34142  289.25 0855.00
2009/04/23 12:10:07.0    -145   -317   -120    349    370 204.7 -19.0  34136  289.16 0855.00
2009/04/23 12:10:07.1    -151   -359    -59    390    395 202.9  -8.6  34128  289.04 0855.00
2009/04/23 12:10:07.2    -126   -315    127    340    362 201.8  21.4  34136  289.15 0855.00
2009/04/23 12:10:07.3    -157   -238     51    286    291 213.4  10.1  34138  289.19 0855.00
2009/04/23 12:10:07.4    -185   -213    -20    283    284 221.0  -4.1  34138  289.19 0855.00
2009/04/23 12:10:07.5    -147   -127    192    195    273 229.1  49.9  34140  289.22 0855.00
2009/04/23 12:10:07.6    -241   -268     78    361    370 221.9  12.3  34132  289.11 0855.00
2009/04/23 12:10:07.7    -170   -152     11    229    230 228.2   2.9  34132  289.11 0855.00
2009/04/23 12:10:07.8    -183   -247     93    308    322 216.5  16.8  34132  289.09 0855.00
2009/04/23 12:10:07.9     -67   -202    125    214    247 198.5  33.1  34134  289.14 0855.00
2009/04/23 12:10:08.0      17   -151    148    153    212 173.3  49.4  34140  289.23 0855.00
2009/04/23 12:10:08.1      21   -105    109    108    153 168.5  50.1  34136  289.16 0855.00
2009/04/23 12:10:08.2      15    -32    112     36    117 154.6  81.2  34134  289.14 0855.00
2009/04/23 12:10:08.3      79    -11    159     80    177  98.0  71.4  34146  289.33 0855.00
2009/04/23 12:10:08.4       3    -26    148     27    150 172.0  90.0  34150  289.41 0855.00
2009/04/23 12:10:08.5      85    -28    123     90    152 108.2  60.5  34144  289.31 0855.00
2009/04/23 12:10:08.6      38    -80    109     89    140 154.1  56.4  34144  289.31 0855.00
2009/04/23 12:10:08.7      32   -134     99    138    169 166.2  39.1  34138  289.21 0855.00
2009/04/23 12:10:08.8     -31   -232    225    235    325 187.8  48.7  34140  289.24 0855.00
2009/04/23 12:10:08.9     -24   -167    274    169    321 188.2  65.4  34142  289.27 0855.00
2009/04/23 12:10:09.0     -68   -290    159    298    337 193.3  30.5  34140  289.24 0855.00
2009/04/23 12:10:09.1      26   -316    115    318    338 175.3  20.7  34136  289.18 0855.00
2009/04/23 12:10:09.2      20   -316    139    317    346 176.2  25.2  34138  289.20 0855.00
2009/04/23 12:10:09.3      31   -248    110    251    274 172.7  25.2  34140  289.22 0855.00
2009/04/23 12:10:09.4     239   -173    214    296    365 126.0  39.5  34142  289.25 0855.00
2009/04/23 12:10:09.5      62   -344    209    350    407 169.8  33.6  34138  289.21 0855.00
2009/04/23 12:10:09.6      43   -405    260    408    483 173.9  35.6  34134  289.14 0855.00
2009/04/23 12:10:09.7     104   -315    276    332    431 161.6  43.8  34136  289.18 0855.00
2009/04/23 12:10:09.8      51   -251    237    257    349 168.4  47.6  34140  289.22 0855.00
2009/04/23 12:10:09.9     159   -130    221    206    302 129.3  52.2  34144  289.29 0855.00
2009/04/23 12:10:10.0      58   -203    219    212    304 164.0  51.2  34140  289.22 0855.00
2009/04/23 12:10:10.1     -65   -273    138    281    313 193.4  28.1  34140  289.22 0855.00
2009/04/23 12:10:10.2     -92   -275     75    291    301 198.5  14.5  34138  289.20 0855.00
2009/04/23 12:10:10.3     -75   -294     53    304    309 194.3   9.9  34138  289.20 0855.00
2009/04/23 12:10:10.4     -38   -335    102    338    354 186.6  16.8  34138  289.20 0855.00
2009/04/23 12:10:10.5     -76   -374    153    382    411 191.6  23.0  34142  289.27 0855.00
2009/04/23 12:10:10.6    -101   -286     99    304    320 199.6  18.1  34140  289.24 0855.00
2009/04/23 12:10:10.7     -69   -311     83    319    330 192.6  14.6  34140  289.22 0855.00
2009/04/23 12:10:10.8     138   -365    127    391    412 159.3  18.0  34136  289.16 0855.00
2009/04/23 12:10:10.9      51   -253    177    259    313 168.5  37.8  34140  289.22 0855.00
2009/04/23 12:10:11.0      74   -334    228    343    411 167.5  36.6  34132  289.11 0855.00
2009/04/23 12:10:11.1    -133   -470    164    489    516 195.8  18.6  34140  289.23 0855.00
2009/04/23 12:10:11.2    -219   -411     78    466    473 208.1   9.6  34148  289.37 0855.00
2009/04/23 12:10:11.3    -137   -301    146    331    361 204.5  25.2  34142  289.25 0855.00
2009/04/23 12:10:11.4    -150   -224     38    270    273 213.8   8.0  34142  289.27 0855.00
2009/04/23 12:10:11.5    -198   -161    -60    256    264 230.9 -13.3  34142  289.25 0855.00
2009/04/23 12:10:11.6    -146   -119      9    189    190 230.9   2.9  34138  289.19 0855.00
2009/04/23 12:10:11.7     -86   -198    188    217    287 203.6  45.6  34138  289.20 0855.00
2009/04/23 12:10:11.8    -149   -192    168    244    296 217.8  37.8  34136  289.15 0855.00
2009/04/23 12:10:11.9     -73   -103    179    127    219 215.6  61.1  34136  289.18 0855.00
2009/04/23 12:10:12.0     -64     40    215     76    228 302.4  80.2  34140  289.23 0855.00
2009/04/23 12:10:12.1     -38   -216    223    220    313 190.0  50.4  34140  289.24 0855.00
2009/04/23 12:10:12.2      86   -219    187    236    301 158.4  42.7  34134  289.14 0855.00
2009/04/23 12:10:12.3      48   -244     95    249    266 168.7  22.0  34140  289.22 0855.00
2009/04/23 12:10:12.4     -45   -264     27    268    270 189.8   5.9  34134  289.14 0855.00
2009/04/23 12:10:12.5     -40   -289    113    292    313 188.0  22.2  34138  289.20 0854.99
2009/04/23 12:10:12.6    -122   -312     16    336    337 201.4   2.8  34136  289.16 0854.99
2009/04/23 12:10:12.7    -139   -416    153    439    466 198.6  19.3  34134  289.14 0854.99
2009/04/23 12:10:12.8     -89   -548    145    556    575 189.2  14.7  34134  289.13 0854.99
2009/04/23 12:10:12.9     -80   -566     92    572    580 188.1   9.2  34134  289.14 0854.99
2009/04/23 12:10:13.1     -36   -569     88    571    578 183.6   8.8  34140  289.24 0854.99
2009/04/23 12:10:13.2     -88   -519     44    527    530 189.7   4.9  34142  289.26 0854.99
2009/04/23 12:10:13.3     -25   -630      0    631    632 182.3   0.0  34128  289.04 0854.99
2009/04/23 12:10:13.4    -171   -663    114    685    695 194.5   9.5  34132  289.10 0854.99
2009/04/23 12:10:13.5     199   -810    189    835    857 166.2  12.8  34138  289.21 0854.99
2009/04/23 12:10:13.6     328   -855    185    917    936 159.0  11.4  34136  289.15 0854.99
2009/04/23 12:10:13.7     230   -697    254    735    778 161.7  19.1  34124  288.97 0854.99
2009/04/23 12:10:13.8     297   -579    231    651    690 152.8  20.3  34128  289.02 0854.99
2009/04/23 12:10:13.9     384   -448    278    591    653 139.4  27.0  34128  289.04 0854.99
2009/04/23 12:10:14.0     546   -581    245    798    835 136.8  17.1  34116  288.84 0854.99
2009/04/23 12:10:14.1     511   -465     56    692    695 132.3   4.7  34138  289.19 0854.99
2009/04/23 12:10:14.2     373   -476    118    605    617 141.9  11.1  34130  289.08 0854.99
2009/04/23 12:10:14.3     227   -341     38    410    412 146.3   5.4  34134  289.12 0854.99
2009/04/23 12:10:14.4      74   -382    120    390    409 169.0  17.1  34132  289.11 0854.99
2009/04/23 12:10:14.5     126   -388     20    408    409 162.0   2.9  34132  289.11 0854.99
2009/04/23 12:10:14.6     136   -297     76    327    336 155.3  13.2  34132  289.11 0854.97
2009/04/23 12:10:14.7      48   -256     94    261    277 169.3  20.9  34134  289.12 0854.97
2009/04/23 12:10:14.8    -127   -270     69    299    308 205.3  13.1  34138  289.19 0854.97
2009/04/23 12:10:14.9    -165   -283    156    328    363 210.2  27.3  34138  289.20 0854.97
2009/04/23 12:10:15.0     -26   -244     70    246    256 186.2  16.0  34134  289.12 0854.97
2009/04/23 12:10:15.1      59   -260    132    267    297 167.1  28.2  34136  289.17 0854.97
2009/04/23 12:10:15.2      96   -409    148    421    446 166.7  20.0  34140  289.24 0854.97
2009/04/23 12:10:15.3     191   -443    109    483    496 156.6  12.8  34128  289.03 0854.97
2009/04/23 12:10:15.4     187   -263     57    323    329 144.6  10.0  34136  289.15 0854.97
2009/04/23 12:10:15.5     266   -332    164    426    456 141.3  22.2  34134  289.12 0854.97
2009/04/23 12:10:15.6     211   -465    203    511    549 155.6  23.0  34140  289.23 0854.97
2009/04/23 12:10:15.7      42   -358    232    361    429 173.3  35.6  34134  289.12 0854.97
2009/04/23 12:10:15.8       5   -210    221    211    305 178.4  51.6  34144  289.29 0854.97
2009/04/23 12:10:15.9     -41   -123    216    130    252 198.7  66.0  34144  289.30 0854.97
2009/04/23 12:10:16.0      87   -264    155    279    319 161.7  31.5  34140  289.22 0854.97
2009/04/23 12:10:16.1     -32   -288     57    290    296 186.5  11.1  34142  289.25 0854.97
2009/04/23 12:10:16.2      61   -251    138    259    293 166.2  30.3  34134  289.14 0854.97
2009/04/23 12:10:16.3      35   -221    174    224    283 170.9  41.7  34126  289.00 0854.97
2009/04/23 12:10:16.4     120   -403    148    421    446 163.3  20.0  34136  289.17 0854.97
2009/04/23 12:10:16.5     225   -396      1    456    457 150.4   0.2  34136  289.16 0854.97
2009/04/23 12:10:16.6      98   -417    -12    429    430 166.7  -1.6  34124  288.97 0854.97
2009/04/23 12:10:16.7     120   -380    -41    399    402 162.5  -6.0  34130  289.08 0854.97
2009/04/23 12:10:16.8      85   -337    -84    348    359 165.7 -13.7  34128  289.04 0854.97
2009/04/23 12:10:16.9      68   -336    -22    343    344 168.6  -3.8  34130  289.06 0854.97
2009/04/23 12:10:17.0     179   -416     35    454    456 156.7   4.5  34132  289.11 0854.97
2009/04/23 12:10:17.1     304   -332     53    451    455 137.6   6.7  34130  289.05 0854.97
2009/04/23 12:10:17.2     276   -304     59    411    416 137.8   8.2  34130  289.07 0854.97
2009/04/23 12:10:17.3     178   -310     88    358    369 150.1  13.8  34132  289.10 0854.97
2009/04/23 12:10:17.4     152   -290     71    328    336 152.4  12.3  34132  289.11 0854.97
2009/04/23 12:10:17.5     306   -328     87    450    459 137.0  11.0  34130  289.07 0854.97
2009/04/23 12:10:17.6     330   -345    182    478    511 136.3  22.0  34132  289.10 0854.97
2009/04/23 12:10:17.7     354   -337    169    490    519 133.6  19.1  34138  289.20 0854.97
2009/04/23 12:10:17.8     422   -397     28    580    581 133.3   2.8  34134  289.14 0854.97
2009/04/23 12:10:17.9     257   -504     66    566    570 152.9   6.7  34134  289.14 0854.97
2009/04/23 12:10:18.0     189   -568     60    599    603 161.6   5.8  34134  289.12 0854.97
2009/04/23 12:10:18.1     -25   -344     69    345    352 184.2  11.4  34138  289.21 0854.97
2009/04/23 12:10:18.2     -27   -371    156    372    403 184.2  24.2  34136  289.18 0854.97
2009/04/23 12:10:18.3      92   -334    170    347    386 164.5  27.9  34132  289.10 0854.97
2009/04/23 12:10:18.4      82   -297     48    309    313 164.4   8.9  34136  289.15 0854.97
2009/04/23 12:10:18.5      72   -285     41    295    298 165.7   8.0  34134  289.14 0854.97
2009/04/23 12:10:18.6     147   -297    -74    332    341 153.6 -12.6  34136  289.16 0854.98
2009/04/23 12:10:18.7     243   -281    -61    372    378 139.1  -9.4  34136  289.16 0854.98
2009/04/23 12:10:18.8     218   -231     -7    318    319 136.7  -1.3  34130  289.07 0854.98
2009/04/23 12:10:18.9     210   -210     15    297    298 135.0   2.9  34128  289.02 0854.98
2009/04/23 12:10:19.0      53      0   -164     54    172  90.0 -85.1  34132  289.11 0854.98
2009/04/23 12:10:19.1     -10     50   -105     52    117 348.5 -76.8  34136  289.16 0854.98
2009/04/23 12:10:19.2     -71     58   -103     92    138 309.5 -58.1  34136  289.16 0854.98
2009/04/23 12:10:19.3     -60    128      0    142    143 334.6   0.2  34136  289.18 0854.98
2009/04/23 12:10:19.4      33    162     24    166    168  11.5   8.2  34138  289.19 0854.98
2009/04/23 12:10:19.5      40    165     -3    170    171  13.8  -1.1  34136  289.16 0854.98
2009/04/23 12:10:19.6      94    200    -12    222    223  25.3  -3.1  34134  289.13 0854.98
2009/04/23 12:10:19.7     143    242     18    282    283  30.7   3.8  34134  289.12 0854.98
2009/04/23 12:10:19.8     169    119     24    207    209  54.9   6.7  34130  289.08 0854.98
2009/04/23 12:10:19.9     264    135    -38    297    300  62.9  -7.3  34134  289.12 0854.98
2009/04/23 12:10:20.0     257    147    -11    297    298  60.3  -2.2  34136  289.15 0854.98
2009/04/23 12:10:20.1     314    231      2    391    392  53.6   0.4  34140  289.23 0854.98
2009/04/23 12:10:20.2     290    234    135    373    396  51.1  20.8  34132  289.10 0854.98
2009/04/23 12:10:20.3     250    207    170    325    366  50.4  29.6  34132  289.11 0854.98
2009/04/23 12:10:20.4     109    129    173    170    242  40.3  50.4  34132  289.09 0854.98
2009/04/23 12:10:20.5      44    123     99    131    164  20.1  40.9  34134  289.14 0854.98
2009/04/23 12:10:20.6     113    133    -19    175    177  40.5  -6.2  34140  289.24 0854.99
2009/04/23 12:10:20.7     154    100    -17    184    185  56.9  -5.4  34140  289.24 0854.99
2009/04/23 12:10:20.8     294      4     33    295    297  89.1   6.5  34134  289.14 0854.99
2009/04/23 12:10:20.9     316     -4    247    317    401  90.8  42.0  34136  289.16 0854.99
2009/04/23 12:10:21.0     316   -102    298    333    446 107.9  46.4  34138  289.21 0854.99
2009/04/23 12:10:21.1     434   -216    323    485    582 116.5  36.7  34136  289.16 0854.99
2009/04/23 12:10:21.2     268   -455    138    529    547 149.5  14.7  34122  288.92 0854.99
2009/04/23 12:10:21.3     246   -592    245    642    687 157.4  22.0  34134  289.14 0854.99
2009/04/23 12:10:21.4     378   -359    197    522    557 133.5  21.7  34136  289.16 0854.99
2009/04/23 12:10:21.5     223   -402     52    460    463 151.0   6.5  34136  289.16 0854.99
2009/04/23 12:10:21.6     449   -460    168    644    666 135.7  14.6  34126  289.00 0855.01
2009/04/23 12:10:21.7     234   -575    109    621    631 157.8  10.0  34132  289.09 0855.01
2009/04/23 12:10:21.8      47   -218    210    224    307 167.7  48.0  34120  288.88 0855.01
2009/04/23 12:10:21.9      -1   -110     95    111    146 180.9  45.4  34136  289.18 0855.01
2009/04/23 12:10:22.0      13   -232     98    233    252 176.6  24.1  34130  289.05 0855.01
2009/04/23 12:10:22.1     -24   -117    128    120    175 191.6  52.1  34138  289.19 0855.01
2009/04/23 12:10:22.2     -75   -284     85    294    307 194.9  16.1  34130  289.05 0855.01
2009/04/23 12:10:22.3     -69   -362     89    369    380 190.9  13.7  34132  289.10 0855.01
2009/04/23 12:10:22.4     -83   -357     56    367    372 193.1   8.7  34132  289.10 0855.01
2009/04/23 12:10:22.5     -83   -318    -69    329    337 194.6 -11.9  34132  289.11 0855.01
2009/04/23 12:10:22.6     -97   -270     34    287    290 199.8   6.9  34142  289.27 0855.01
2009/04/23 12:10:22.7     115    -89   -188    146    238 127.8 -62.8  34130  289.06 0855.01
2009/04/23 12:10:22.8      11    -85   -119     86    146 172.4 -65.0  34134  289.14 0855.01
2009/04/23 12:10:22.9      57   -214    -41    222    226 164.9 -10.5  34132  289.09 0855.01
2009/04/23 12:10:23.0     159   -164     64    229    238 135.9  15.8  34134  289.12 0855.01
2009/04/23 12:10:23.1     107    -42    115    116    163 111.7  50.2  34134  289.14 0855.01
2009/04/23 12:10:23.2      48     31    150     58    160  57.6  77.8  34142  289.28 0855.01
2009/04/23 12:10:23.3      39    -89    149     98    178 156.4  63.9  34148  289.38 0855.01
2009/04/23 12:10:23.4     120   -229    115    259    283 152.4  25.7  34140  289.22 0855.01
2009/04/23 12:10:23.5      95   -190    132    213    250 153.3  34.8  34136  289.15 0855.01
2009/04/23 12:10:23.6     213    -43     51    218    224 101.4  13.2  34138  289.19 0855.01
2009/04/23 12:10:23.7     190    -92     80    212    226 115.8  21.7  34136  289.16 0855.01
2009/04/23 12:10:23.8      29   -116    130    120    176 165.7  52.2  34138  289.21 0855.01
2009/04/23 12:10:23.9      42    -55    107     70    127 142.2  64.1  34142  289.26 0855.01
2009/04/23 12:10:24.0     -68    -68     43     97    106 225.1  25.7  34136  289.16 0855.01
2009/04/23 12:10:24.1     -69    -98    143    121    187 215.2  55.6  34140  289.24 0855.01
2009/04/23 12:10:24.2     -36      7     86     37     93 281.5  75.5  34142  289.26 0855.01
2009/04/23 12:10:24.3    -113     40    108    120    161 289.5  46.9  34144  289.30 0855.01
2009/04/23 12:10:24.4     -78    -32     33     85     91 247.8  22.0  34142  289.28 0855.01
2009/04/23 12:10:24.5     -23    -35     32     42     52 213.4  42.7  34144  289.30 0855.01
2009/04/23 12:10:24.6       8    -59     15     60     62 172.0  14.3  34144  289.31 0855.01
2009/04/23 12:10:24.7     -18    -17     45     26     51 226.9  67.7  34146  289.33 0855.01
2009/04/23 12:10:24.8     -23    -45    107     51    118 207.2  72.9  34148  289.36 0855.01
2009/04/23 12:10:24.9     -25     45     88     52    102 331.0  66.8  34144  289.30 0855.01
2009/04/23 12:10:25.0      27     65     68     71     98  22.7  49.4  34144  289.30 0855.01
2009/04/23 12:10:25.1     -30    -10     51     32     60 250.0  64.7  34144  289.31 0855.01
2009/04/23 12:10:25.2     -56    -21     62     60     86 249.2  50.1  34148  289.38 0855.01
2009/04/23 12:10:25.3     -45    -25     67     52     84 240.2  58.5  34146  289.35 0855.01
2009/04/23 12:10:25.4     -72    -36     76     81    111 242.9  48.0  34144  289.31 0855.01
2009/04/23 12:10:25.5     -38    -38     31     55     63 225.0  31.4  34144  289.30 0855.01
2009/04/23 12:10:25.6      34    -73     23     81     85 154.7  16.3  34144  289.30 0854.99
2009/04/23 12:10:25.7      14    -77     41     79     89 169.3  29.8  34144  289.31 0854.99
2009/04/23 12:10:25.8      -3   -204     25    205    207 180.9   7.1  34136  289.16 0854.99
2009/04/23 12:10:25.9    -106   -227      5    251    252 205.2   1.2  34134  289.14 0854.99
2009/04/23 12:10:26.0    -200   -212     86    292    305 223.3  16.5  34136  289.17 0854.99
2009/04/23 12:10:26.1    -132   -156    148    205    252 220.3  39.3  34144  289.31 0854.99
2009/04/23 12:10:26.2    -124   -126    199    178    266 224.5  53.5  34142  289.27 0854.99
2009/04/23 12:10:26.3    -157   -203    214    257    334 217.8  44.0  34140  289.22 0854.99
2009/04/23 12:10:26.4    -138   -261    107    296    314 208.0  20.7  34136  289.17 0854.99
2009/04/23 12:10:26.5    -188   -243    135    308    336 217.6  25.1  34134  289.12 0854.99
2009/04/23 12:10:26.6     -72   -229    139    241    278 197.4  32.7  34140  289.24 0854.99
2009/04/23 12:10:26.7     101   -372    318    386    500 164.8  43.7  34136  289.15 0854.99
2009/04/23 12:10:26.8      15   -194    252    195    318 175.5  58.5  34144  289.29 0854.99
2009/04/23 12:10:26.9     -70   -181    316    195    371 201.2  65.4  34140  289.22 0854.99
2009/04/23 12:10:27.0     -23   -195    222    197    296 186.9  54.0  34146  289.32 0854.99
2009/04/23 12:10:27.1     241   -169     94    295    310 125.1  17.7  34146  289.32 0854.99
2009/04/23 12:10:27.2     228   -275    152    358    388 140.4  24.5  34138  289.21 0854.99
2009/04/23 12:10:27.3     160   -209    144    264    300 142.6  31.3  34134  289.14 0854.99
2009/04/23 12:10:27.4     246   -190    165    311    352 127.7  30.2  34132  289.10 0854.99
2009/04/23 12:10:27.5     157   -260     14    305    306 148.8   2.8  34134  289.12 0854.99
2009/04/23 12:10:27.6      71   -331     11    339    340 167.9   1.9  34134  289.13 0854.98
2009/04/23 12:10:27.7     261   -384     -7    465    466 145.7  -0.9  34128  289.03 0854.98
2009/04/23 12:10:27.8     178   -283     24    335    336 147.8   4.2  34128  289.04 0854.98
2009/04/23 12:10:27.9     -25   -369     71    370    377 184.0  11.0  34126  288.99 0854.98
2009/04/23 12:10:28.0      73   -423    112    430    445 170.2  14.7  34134  289.12 0854.98
2009/04/23 12:10:28.1      87   -332     53    344    349 165.2   8.8  34128  289.04 0854.98
2009/04/23 12:10:28.2      61   -304     55    311    316 168.5  10.1  34134  289.12 0854.98
2009/04/23 12:10:28.3    -141   -351     60    379    384 201.9   9.0  34136  289.18 0854.98
2009/04/23 12:10:28.4    -196   -380     41    428    431 207.3   5.5  34138  289.21 0854.98
2009/04/23 12:10:28.5    -136   -332    230    359    426 202.3  35.6  34140  289.24 0854.98
2009/04/23 12:10:28.6    -157   -318     -2    355    356 206.3  -0.4  34142  289.25 0854.98
2009/04/23 12:10:28.7    -143   -341    -44    371    374 202.8  -6.8  34142  289.26 0854.98
2009/04/23 12:10:28.8     -91   -309     56    323    328 196.5   9.9  34140  289.24 0854.98
2009/04/23 12:10:28.9     -68   -183     51    196    203 200.5  14.7  34140  289.24 0854.98
2009/04/23 12:10:29.0     -38   -115    115    122    167 198.3  48.2  34144  289.30 0854.98
2009/04/23 12:10:29.1     -48   -180    181    187    260 195.2  49.2  34140  289.22 0854.98
2009/04/23 12:10:29.2      22   -218    104    220    243 174.0  27.2  34144  289.31 0854.98
2009/04/23 12:10:29.3       7   -237     84    238    253 178.2  19.4  34140  289.24 0854.98
2009/04/23 12:10:29.4      23   -219     47    221    226 173.8  12.0  34138  289.21 0854.98
2009/04/23 12:10:29.5      36   -238     87    241    256 171.3  20.7  34136  289.17 0854.98
2009/04/23 12:10:29.6      31   -288     99    290    307 173.7  18.9  34134  289.14 0854.98
2009/04/23 12:10:29.7      46   -270    101    275    292 170.2  21.0  34136  289.17 0854.98
2009/04/23 12:10:29.8      33   -271     64    274    282 172.9  13.1  34136  289.17 0854.98
2009/04/23 12:10:29.9     106   -370    113    386    403 164.0  16.4  34136  289.15 0854.98
2009/04/23 12:10:30.0     152   -383    123    413    432 158.3  16.6  34134  289.12 0854.98
2009/04/23 12:10:30.1     181   -336    171    382    418 151.6  25.8  34136  289.16 0854.98
2009/04/23 12:10:30.2     179   -368    186    410    450 154.1  26.2  34136  289.16 0854.98
2009/04/23 12:10:30.3      82   -355    201    365    416 167.0  31.3  34132  289.10 0854.98
2009/04/23 12:10:30.4     -30   -368    131    370    393 184.7  19.5  34136  289.15 0854.98
2009/04/23 12:10:30.5      60   -372    -40    377    380 170.8  -6.1  34134  289.13 0854.98
2009/04/23 12:10:30.6      99   -314    -21    330    331 162.4  -3.8  34130  289.08 0854.98
2009/04/23 12:10:30.7     170   -192     40    257    261 138.5   9.0  34134  289.12 0854.98
2009/04/23 12:10:30.8     179   -111     72    211    224 121.8  18.9  34136  289.16 0854.98
2009/04/23 12:10:30.9     209    -54    107    216    241 104.6  28.2  34136  289.17 0854.98
2009/04/23 12:10:31.0     124   -176    174    216    277 144.8  43.0  34136  289.15 0854.98
2009/04/23 12:10:31.1     143   -165    149    219    264 139.0  37.6  34136  289.15 0854.98
2009/04/23 12:10:31.2     137   -241    143    278    312 150.4  29.4  34130  289.05 0854.98
2009/04/23 12:10:31.3      31   -175    233    178    293 169.8  58.7  34132  289.09 0854.98
2009/04/23 12:10:31.4     136   -133    152    191    244 134.4  42.7  34138  289.19 0854.98
2009/04/23 12:10:31.6     208   -126    214    244    324 121.3  45.7  34134  289.14 0854.98
2009/04/23 12:10:31.6     208    -99    158    231    279 115.5  37.6  34138  289.20 0854.98
2009/04/23 12:10:31.7     188    -97    173    212    273 117.5  43.5  34134  289.14 0854.98
2009/04/23 12:10:31.8      32    -76    155     83    175 156.8  69.6  34138  289.21 0854.98
2009/04/23 12:10:31.9     -49     60    119     78    142 320.4  64.1  34142  289.28 0854.98
2009/04/23 12:10:32.0     -38     12     78     40     87 288.2  70.8  34138  289.21 0854.98
2009/04/23 12:10:32.1     121   -135    129    182    223 138.3  38.8  34134  289.14 0854.98
2009/04/23 12:10:32.2      86   -138    126    163    206 147.9  41.7  34138  289.19 0854.98
2009/04/23 12:10:32.3     113   -135    115    177    211 140.1  35.7  34136  289.18 0854.98
2009/04/23 12:10:32.4      60   -135    109    148    183 155.9  39.7  34134  289.13 0854.98
2009/04/23 12:10:32.5      11   -148    116    149    188 175.6  42.0  34134  289.14 0854.98
2009/04/23 12:10:32.6      -9   -180    113    181    213 182.9  35.5  34134  289.13 0854.98
2009/04/23 12:10:32.7      -2   -159     90    160    183 180.9  31.9  34134  289.13 0854.98
2009/04/23 12:10:32.8     -34   -166    115    170    205 191.8  37.3  34134  289.14 0854.98
2009/04/23 12:10:32.9     -37    -20    118     43    125 241.1  79.7  34132  289.11 0854.98
2009/04/23 12:10:33.0     -20    -71    109     74    131 196.0  62.7  34138  289.21 0854.98
2009/04/23 12:10:33.1       0    -13    141     14    141 182.7  90.0  34142  289.26 0854.98
2009/04/23 12:10:33.2     -21     58    128     62    142 340.0  72.8  34144  289.30 0854.98
2009/04/23 12:10:33.3     -63    -40    129     75    149 237.5  66.8  34136  289.18 0854.98
2009/04/23 12:10:33.4      -1    -89     98     90    133 180.9  52.2  34142  289.28 0854.98
2009/04/23 12:10:33.5      12     86     99     87    131   8.5  54.3  34144  289.31 0854.98
2009/04/23 12:10:33.6      -4     90    104     91    138 357.3  54.3  34142  289.26 0854.97
2009/04/23 12:10:33.7       8    151    110    152    187   3.1  39.7  34140  289.23 0854.97
2009/04/23 12:10:33.8     -92    145     81    172    190 327.5  27.1  34138  289.19 0854.97
2009/04/23 12:10:33.9    -120     32     -5    125    126 285.0  -2.6  34138  289.19 0854.97
2009/04/23 12:10:34.0     -51    -80     95     96    135 212.5  50.5  34144  289.31 0854.97
2009/04/23 12:10:34.1     -91      4    122     92    152 272.6  59.4  34144  289.31 0854.97
2009/04/23 12:10:34.2     -38     46    139     61    151 320.4  74.9  34146  289.33 0854.97
2009/04/23 12:10:34.3     -45     21    132     50    141 295.4  78.2  34136  289.16 0854.97
2009/04/23 12:10:34.4      88     56    196    105    222  57.6  69.3  34144  289.30 0854.97
2009/04/23 12:10:34.5     101     43    139    110    177  66.9  57.5  34144  289.30 0854.97
2009/04/23 12:10:34.6      -5     46    139     47    146 353.8  81.2  34150  289.40 0854.97
2009/04/23 12:10:34.7     -31      6    148     32    151 281.4  89.0  34148  289.38 0854.97
2009/04/23 12:10:34.8     -47     69    167     84    186 325.7  71.9  34148  289.38 0854.97
2009/04/23 12:10:34.9     -20    -59    154     63    166 198.7  76.6  34144  289.30 0854.97
2009/04/23 12:10:35.0      22   -180    186    182    260 172.9  50.4  34140  289.22 0854.97
2009/04/23 12:10:35.1     -41   -188    205    193    281 192.5  52.1  34138  289.19 0854.97
2009/04/23 12:10:35.2      16   -232    199    233    306 176.0  44.8  34136  289.17 0854.97
2009/04/23 12:10:35.3       3   -223    184    224    289 179.1  43.7  34132  289.09 0854.97
2009/04/23 12:10:35.4      55   -295    162    301    341 169.3  30.6  34136  289.18 0854.97
2009/04/23 12:10:35.5      48   -334    140    338    365 171.8  23.8  34136  289.16 0854.97
2009/04/23 12:10:35.6       8   -314    159    315    352 178.4  28.9  34136  289.15 0854.96
2009/04/23 12:10:35.7     -21   -262    198    263    329 184.7  40.8  34134  289.14 0854.96
2009/04/23 12:10:35.8     -36   -363    128    365    386 185.7  20.0  34136  289.15 0854.96
2009/04/23 12:10:35.9     -26   -354    186    355    400 184.2  29.8  34132  289.10 0854.96
2009/04/23 12:10:36.0     -27   -290    238    292    376 185.3  43.5  34134  289.13 0854.96
2009/04/23 12:10:36.1     -57   -302    187    308    360 190.7  34.2  34136  289.15 0854.96
2009/04/23 12:10:36.2      84   -242    181    257    314 160.8  38.7  34138  289.19 0854.96
2009/04/23 12:10:36.3      77   -338    144    347    375 167.1  23.7  34136  289.15 0854.96
2009/04/23 12:10:36.4     143   -335     38    365    368 156.8   6.0  34132  289.10 0854.96
2009/04/23 12:10:36.5      92   -260     68    277    286 160.4  13.9  34134  289.12 0854.96
2009/04/23 12:10:36.6      74   -201    118    215    245 159.7  31.0  34134  289.12 0854.96
2009/04/23 12:10:36.7     119   -179     52    216    223 146.4  13.7  34138  289.19 0854.96
2009/04/23 12:10:36.8     120   -187    156    223    272 147.4  38.4  34132  289.10 0854.96
2009/04/23 12:10:36.9     149   -124    131    194    234 129.8  37.0  34134  289.14 0854.96
2009/04/23 12:10:37.0      66    -71    158     98    185 137.2  64.9  34138  289.19 0854.96
2009/04/23 12:10:37.1      41   -216    104    221    244 169.1  27.1  34134  289.14 0854.96
2009/04/23 12:10:37.2      39   -227     62    231    240 170.2  15.0  34138  289.19 0854.96
2009/04/23 12:10:37.3      85   -251     19    266    267 161.3   4.2  34136  289.17 0854.96
2009/04/23 12:10:37.4     231   -217     -3    318    319 133.2  -0.7  34138  289.20 0854.96
2009/04/23 12:10:37.5      26   -243     90    245    261 173.8  20.9  34136  289.17 0854.96
2009/04/23 12:10:37.6     -46   -358    115    361    379 187.4  17.7  34138  289.20 0854.95
2009/04/23 12:10:37.7      61   -331    175    337    379 169.4  29.6  34140  289.23 0854.95
2009/04/23 12:10:37.8      67   -299    188    307    359 167.3  34.4  34136  289.16 0854.95
2009/04/23 12:10:37.9      14   -269    246    270    365 176.9  47.0  34136  289.16 0854.95
2009/04/23 12:10:38.0    -233    -76    165    246    296 251.8  37.3  34146  289.32 0854.95
2009/04/23 12:10:38.1    -239   -325     87    404    414 216.3  12.2  34142  289.26 0854.95
2009/04/23 12:10:38.2    -293   -273     39    401    403 227.1   5.7  34152  289.43 0854.95
2009/04/23 12:10:38.3    -215   -321     31    387    389 213.9   4.6  34144  289.30 0854.95
2009/04/23 12:10:38.4    -162   -163    212    230    312 224.8  47.6  34158  289.54 0854.95
2009/04/23 12:10:38.5    -310   -203    -75    371    379 236.8 -11.5  34138  289.20 0854.95
2009/04/23 12:10:38.6    -385   -269     66    470    475 235.0   8.0  34134  289.12 0854.95
2009/04/23 12:10:38.7    -287   -234    307    371    481 230.8  43.8  34154  289.48 0854.95
2009/04/23 12:10:38.8    -322   -217    177    389    427 236.0  26.2  34164  289.63 0854.95
2009/04/23 12:10:38.9    -305   -345    252    461    525 221.4  31.0  34160  289.56 0854.95
2009/04/23 12:10:39.0    -390   -154    -55    420    424 248.4  -7.5  34146  289.34 0854.95
2009/04/23 12:10:39.1    -381   -126    -94    402    413 251.6 -13.3  34136  289.16 0854.95
2009/04/23 12:10:39.2    -324   -134     71    351    359 247.5  11.5  34156  289.50 0854.95
2009/04/23 12:10:39.3    -296   -159    -96    337    351 241.8 -16.0  34148  289.38 0854.95
2009/04/23 12:10:39.4    -350   -152    -27    382    383 246.5  -4.1  34154  289.47 0854.95
2009/04/23 12:10:39.5    -283    -43    101    287    305 261.2  19.4  34152  289.44 0854.95
2009/04/23 12:10:39.6    -253    -68     94    263    279 254.9  20.4  34154  289.46 0854.96
2009/04/23 12:10:39.7    -298    -14     -8    299    300 267.2  -1.6  34148  289.36 0854.96
2009/04/23 12:10:39.8    -334     45     -7    337    338 277.7  -1.3  34134  289.13 0854.96
2009/04/23 12:10:39.9    -309     83     35    320    322 285.1   6.4  34134  289.14 0854.96
2009/04/23 12:10:40.0    -296     73     71    305    314 283.9  13.2  34134  289.14 0854.96
2009/04/23 12:10:40.2    -257     88     65    272    280 289.0  13.5  34138  289.19 0854.96
2009/04/23 12:10:40.3    -222    121     40    253    257 298.6   9.0  34138  289.20 0854.96
2009/04/23 12:10:40.4    -220    114     41    248    252 297.5   9.5  34142  289.25 0854.96
2009/04/23 12:10:40.5    -268    153     91    309    323 299.8  16.5  34144  289.29 0854.96
2009/04/23 12:10:40.6    -171    208    117    270    294 320.6  25.1  34146  289.32 0854.96
2009/04/23 12:10:40.7    -101    132    151    167    225 322.4  46.9  34156  289.50 0854.96
2009/04/23 12:10:40.8    -110     78    128    136    186 305.5  48.0  34154  289.48 0854.96
2009/04/23 12:10:40.9     -87    120     96    149    177 323.9  35.7  34192  290.13 0854.96
2009/04/23 12:10:41.0     -93    162    108    187    215 330.1  32.4  34218  290.55 0854.96
2009/04/23 12:10:41.1     -59    128    112    142    180 335.1  42.4  34204  290.33 0854.96
2009/04/23 12:10:41.2     -98     48     98    110    147 296.2  46.4  34186  290.01 0854.96
2009/04/23 12:10:41.3     -54     32    109     63    125 300.7  66.8  34186  290.02 0854.96
2009/04/23 12:10:41.4    -105      3     98    106    144 271.7  47.9  34166  289.67 0854.96
2009/04/23 12:10:41.5    -181     61    124    192    228 288.6  35.6  34154  289.48 0854.96
2009/04/23 12:10:41.6    -114    163    115    199    229 325.0  32.7  34152  289.43 0854.96
2009/04/23 12:10:41.7       0     52    122     53    133   0.9  75.0  34160  289.57 0854.96
2009/04/23 12:10:41.8      38     74    140     84    163  27.6  66.2  34166  289.67 0854.96
2009/04/23 12:10:41.9     107     29    187    112    217  74.5  66.7  34180  289.92 0854.96
2009/04/23 12:10:42.0     -78    131    210    153    259 329.3  60.5  34158  289.53 0854.96
2009/04/23 12:10:42.1      -5     35    144     36    148 352.0  85.9  34160  289.58 0854.96
2009/04/23 12:10:42.2      17     99    104    101    144  10.2  50.2  34176  289.84 0854.96
2009/04/23 12:10:42.3     116    119    180    167    245  44.3  52.5  34190  290.09 0854.96
2009/04/23 12:10:42.4     -67    151     74    166    181 335.9  25.7  34190  290.08 0854.96
2009/04/23 12:10:42.5     -35     86     99     94    136 337.7  51.2  34200  290.25 0854.96
2009/04/23 12:10:42.6      -4   -186    154    187    242 181.4  43.7  34156  289.52 0854.96
2009/04/23 12:10:42.7     -27   -346    240    348    422 184.5  37.9  34146  289.33 0854.97
2009/04/23 12:10:42.8     126   -313    178    338    382 158.1  30.0  34166  289.69 0854.97
2009/04/23 12:10:42.9     217   -355    117    417    434 148.6  15.7  34156  289.49 0854.97
2009/04/23 12:10:43.0      23   -360    177    361    402 176.3  28.1  34148  289.37 0854.97
2009/04/23 12:10:43.1     135   -353    163    379    412 159.1  24.8  34142  289.25 0854.97
2009/04/23 12:10:43.2     169   -315    153    358    389 151.7  24.6  34138  289.20 0854.97
2009/04/23 12:10:43.3     140   -321    231    351    420 156.5  36.5  34144  289.30 0854.97
2009/04/23 12:10:43.4      73   -263    269    274    383 164.4  49.7  34138  289.20 0854.97
2009/04/23 12:10:43.5     178   -127    180    219    283 125.5  43.7  34140  289.24 0854.97
2009/04/23 12:10:43.6      99   -253    222    272    351 158.6  43.5  34138  289.19 0854.97
2009/04/23 12:10:43.7     112   -289    236    310    389 158.8  41.2  34142  289.25 0854.97
2009/04/23 12:10:43.8     -55   -326    185    331    379 189.6  31.6  34138  289.20 0854.97
2009/04/23 12:10:43.9      41   -330    163    333    370 172.9  28.0  34138  289.21 0854.97
2009/04/23 12:10:44.0     103   -288    215    307    374 160.2  38.5  34138  289.21 0854.97
2009/04/23 12:10:44.1    -111   -217    199    245    315 207.2  43.4  34146  289.34 0854.97
2009/04/23 12:10:44.2     -93   -258    196    275    337 200.0  39.1  34142  289.25 0854.97
2009/04/23 12:10:44.3     -73   -201    179    214    278 200.0  44.1  34146  289.34 0854.97
2009/04/23 12:10:44.4      -9   -213    170    214    273 182.5  42.7  34142  289.27 0854.97
2009/04/23 12:10:44.5      47   -178    147    185    236 165.1  42.7  34142  289.26 0854.97
2009/04/23 12:10:44.6      65   -171    126    184    223 159.1  37.6  34146  289.35 0854.97
2009/04/23 12:10:44.7      59   -219     80    227    241 164.9  19.4  34150  289.39 0854.99
2009/04/23 12:10:44.8     -30   -196     99    199    222 188.9  28.5  34146  289.33 0854.99
2009/04/23 12:10:44.9       5   -217     74    218    231 178.6  18.9  34146  289.33 0854.99
2009/04/23 12:10:45.0      -8   -216    -56    217    225 182.2 -14.5  34148  289.36 0854.99
2009/04/23 12:10:45.1     -66   -229    -28    239    241 196.0  -6.9  34148  289.36 0854.99
2009/04/23 12:10:45.2     -87   -222    -41    239    243 201.4  -9.8  34146  289.34 0854.99
2009/04/23 12:10:45.3     -97   -176    -64    202    212 208.9 -17.6  34150  289.40 0854.99
2009/04/23 12:10:45.4    -109   -169    -66    202    213 213.0 -18.3  34150  289.40 0854.99
2009/04/23 12:10:45.5    -130   -179    -61    222    231 216.1 -15.5  34156  289.50 0854.99
2009/04/23 12:10:45.6     -83    -88    -46    122    130 223.2 -25.9  34156  289.52 0854.99
2009/04/23 12:10:45.7    -177    -70    -58    191    199 248.5 -21.7  34160  289.58 0854.99
2009/04/23 12:10:45.8    -208    -26    -64    210    219 262.8 -21.8  34174  289.80 0854.99
2009/04/23 12:10:45.9    -144   -133   -185    197    270 227.3 -52.4  34150  289.41 0854.99
2009/04/23 12:10:46.0    -226     39   -209    230    310 279.9 -51.4  34144  289.29 0854.99
2009/04/23 12:10:46.1    -298     65     36    306    309 282.4   6.7  34154  289.46 0854.99
2009/04/23 12:10:46.2    -320    -49     47    324    328 261.2   8.3  34158  289.54 0854.99
2009/04/23 12:10:46.3    -183   -370     42    413    416 206.4   5.9  34150  289.39 0854.99
2009/04/23 12:10:46.4    -265   -297   -170    399    433 221.7 -29.0  34144  289.31 0854.99
2009/04/23 12:10:46.5    -262   -491    -80    557    563 208.1  -8.2  34140  289.23 0854.99
2009/04/23 12:10:46.6    -242   -305      0    390    391 218.4   0.1  34146  289.32 0854.99
2009/04/23 12:10:46.7    -100   -256    123    275    301 201.4  25.7  34148  289.37 0854.98
2009/04/23 12:10:46.8       0    -38    121     39    127 180.9  80.7  34152  289.45 0854.98
2009/04/23 12:10:46.9       5   -123    191    124    227 177.3  64.6  34150  289.41 0854.98
2009/04/23 12:10:47.0       1    -77    134     78    155 179.1  66.8  34154  289.46 0854.98
2009/04/23 12:10:47.1      34    -54     82     65    104 147.5  57.5  34156  289.52 0854.98
2009/04/23 12:10:47.2     133    -96    128    165    208 126.0  41.7  34148  289.38 0854.98
2009/04/23 12:10:47.3      38   -113    131    120    177 161.3  52.7  34150  289.40 0854.98
2009/04/23 12:10:47.4     -26    -29      8     40     41 221.4  12.2  34148  289.36 0854.98
2009/04/23 12:10:47.5     -34    -23   -140     42    146 235.8 -87.2  34150  289.40 0854.98
2009/04/23 12:10:47.6     -45    -45   -107     64    124 225.0 -71.1  34150  289.40 0854.98
2009/04/23 12:10:47.7      11   -144    -76    145    163 175.6 -34.5  34150  289.40 0854.98
2009/04/23 12:10:47.8     -16   -224    -62    225    234 184.2 -15.5  34144  289.30 0854.98
2009/04/23 12:10:47.9       0   -258     -5    259    260 180.2  -1.2  34150  289.39 0854.98
2009/04/23 12:10:48.0     -56   -276    -12    282    283 191.5  -2.6  34152  289.44 0854.98
2009/04/23 12:10:48.1     -84   -283    -59    296    302 196.5 -11.3  34154  289.46 0854.98
2009/04/23 12:10:48.2     -64   -316   -129    323    347 191.6 -27.4  34152  289.45 0854.98
2009/04/23 12:10:48.3      55   -206   -117    214    243 165.1 -35.7  34152  289.44 0854.98
2009/04/23 12:10:48.4      69   -168    -95    182    205 157.5 -33.9  34152  289.45 0854.98
2009/04/23 12:10:48.5     157   -112    -61    194    204 125.5 -17.5  34152  289.45 0854.98
2009/04/23 12:10:48.6     122      0    -50    123    132  90.0 -27.4  34154  289.48 0854.98
2009/04/23 12:10:48.7     187     91    -89    209    227  64.0 -29.0  34150  289.40 0854.99
2009/04/23 12:10:48.8     216      0     19    217    218  90.1   5.2  34150  289.40 0854.99
2009/04/23 12:10:48.9      69    -86    121    111    164 141.3  52.5  34148  289.36 0854.99
2009/04/23 12:10:49.0     146   -166     45    222    227 138.6  11.6  34148  289.36 0854.99
2009/04/23 12:10:49.1     148   -233     18    277    278 147.5   3.8  34148  289.36 0854.99
2009/04/23 12:10:49.2      92   -211     17    231    232 156.4   4.4  34148  289.36 0854.99
2009/04/23 12:10:49.3      19   -162   -106    164    195 173.1 -40.4  34150  289.41 0854.99
2009/04/23 12:10:49.4     -24    -74   -149     78    168 198.3 -74.8  34148  289.36 0854.99
2009/04/23 12:10:49.5       4    -63   -103     64    121 175.6 -69.5  34152  289.43 0854.99
2009/04/23 12:10:49.6    -211     -7   -125    212    246 267.9 -37.8  34142  289.25 0854.99
2009/04/23 12:10:49.7    -320    -72   -124    329    351 257.2 -26.0  34148  289.37 0854.99
2009/04/23 12:10:49.8    -191   -285   -112    344    362 213.8 -18.0  34140  289.23 0854.99
2009/04/23 12:10:49.9    -152    -47    -11    160    161 252.7  -4.1  34146  289.35 0854.99
2009/04/23 12:10:50.0     -76    -92     77    120    142 219.6  35.6  34144  289.31 0854.99
2009/04/23 12:10:50.1    -143   -120     29    187    190 230.0   8.8  34146  289.33 0854.99
2009/04/23 12:10:50.2    -205   -247    130    322    347 219.6  23.1  34148  289.37 0854.99
2009/04/23 12:10:50.3    -173   -184     96    253    270 223.3  21.7  34148  289.36 0854.99
2009/04/23 12:10:50.4     -95   -181    105    205    230 207.9  29.2  34148  289.36 0854.99
2009/04/23 12:10:50.5     -85   -134    133    159    207 212.5  44.1  34150  289.41 0854.99
2009/04/23 12:10:50.6    -112   -112    141    159    212 225.1  46.2  34148  289.38 0854.99
2009/04/23 12:10:50.7    -147   -122    110    192    221 230.4  32.7  34144  289.30 0854.99
2009/04/23 12:10:50.8    -163   -130     57    209    217 231.4  15.3  34146  289.33 0854.99
2009/04/23 12:10:50.9      -7    -68     92     69    115 186.2  60.0  34144  289.31 0854.99
2009/04/23 12:10:51.0      -6    -81    176     82    194 184.5  73.1  34144  289.31 0854.99
2009/04/23 12:10:51.1      18   -129    164    131    209 172.0  57.1  34144  289.31 0854.99
2009/04/23 12:10:51.2     104    -35    165    110    198 108.6  63.2  34146  289.35 0854.99
2009/04/23 12:10:51.3     -19   -105    212    107    237 190.7  71.1  34150  289.40 0854.99
2009/04/23 12:10:51.4     -26   -146    219    149    264 190.2  62.6  34144  289.31 0854.99
2009/04/23 12:10:51.5      12   -209    294    210    361 176.6  61.0  34150  289.39 0854.99
2009/04/23 12:10:51.6    -169   -264    239    314    394 212.6  41.1  34142  289.26 0854.99
2009/04/23 12:10:51.7     124    -40    246    131    278 108.2  69.8  34148  289.37 0854.99
2009/04/23 12:10:51.8     -44   -168    297    174    344 194.7  67.1  34146  289.34 0854.99
2009/04/23 12:10:51.9     -51   -193    286    200    348 194.9  61.8  34150  289.39 0854.99
2009/04/23 12:10:52.0      99    -72    126    123    176 125.9  50.7  34148  289.38 0854.99
2009/04/23 12:10:52.1      42      8    165     43    170  78.5  85.4  34152  289.43 0854.99
2009/04/23 12:10:52.2     167    -43    164    173    238 104.6  48.5  34148  289.36 0854.99
2009/04/23 12:10:52.3     160    -41    210    166    267 104.4  57.5  34152  289.42 0854.99
2009/04/23 12:10:52.4      47    -77    164     91    187 148.4  68.8  34148  289.38 0854.99
2009/04/23 12:10:52.5      -4   -188    243    189    307 181.4  58.4  34144  289.29 0854.99
2009/04/23 12:10:52.6    -134   -226    255    263    366 210.7  49.2  34144  289.30 0854.99
2009/04/23 12:10:52.7    -278   -230      4    361    362 230.4   0.7  34148  289.38 0854.97
2009/04/23 12:10:52.8    -195   -297     36    356    358 213.4   5.9  34146  289.35 0854.97
2009/04/23 12:10:52.9    -204   -200     61    286    293 225.6  12.2  34150  289.41 0854.97
2009/04/23 12:10:53.0     -69   -274     -5    283    284 194.3  -1.1  34146  289.34 0854.97
2009/04/23 12:10:53.1       0   -229     -9    230    231 180.2  -2.2  34142  289.28 0854.97
2009/04/23 12:10:53.2       9   -195     69    196    207 177.3  20.0  34146  289.35 0854.97
2009/04/23 12:10:53.3      50   -153     49    162    170 161.7  16.8  34144  289.31 0854.97
2009/04/23 12:10:53.4      59   -113     79    128    150 152.4  35.5  34148  289.36 0854.97
2009/04/23 12:10:53.5      78   -123     23    146    148 147.5   9.0  34146  289.35 0854.97
2009/04/23 12:10:53.6      62    -86     -5    107    108 144.0  -3.1  34142  289.28 0854.97
2009/04/23 12:10:53.7     134    -86     -3    160    161 122.9  -1.3  34144  289.31 0854.97
2009/04/23 12:10:53.8     111    -83     83    139    161 126.9  33.7  34148  289.38 0854.97
2009/04/23 12:10:53.9      21   -124    154    126    198 170.3  56.4  34144  289.30 0854.97
2009/04/23 12:10:54.0     -23    -67    186     71    199 199.2  78.4  34146  289.35 0854.97
2009/04/23 12:10:54.1       6    -44    152     45    158 172.0  83.3  34150  289.41 0854.97
2009/04/23 12:10:54.2     -88   -118    141    148    204 216.5  48.7  34148  289.36 0854.97
2009/04/23 12:10:54.3    -221   -204    -34    301    303 227.3  -6.5  34152  289.42 0854.97
2009/04/23 12:10:54.4    -203   -129    -39    241    245 237.6  -9.3  34154  289.47 0854.97
2009/04/23 12:10:54.5    -244    -93    -72    262    271 249.2 -20.0  34152  289.44 0854.97
2009/04/23 12:10:54.6    -155    -25    -20    158    160 260.8  -7.3  34150  289.41 0854.97
2009/04/23 12:10:54.7     -31    -40    -23     51     55 217.8 -30.6  34150  289.40 0854.96
2009/04/23 12:10:54.8      36    -12     -3     39     40 108.6  -5.2  34148  289.38 0854.96
2009/04/23 12:10:54.9      30    -22     35     38     51 126.0  47.9  34148  289.38 0854.96
2009/04/23 12:10:55.0     -13    -92      2     94     95 188.5   1.8  34148  289.36 0854.96
2009/04/23 12:10:55.1     -38    -87     22     96     99 203.6  13.2  34146  289.35 0854.96
2009/04/23 12:10:55.2     -37   -120     51    126    135 197.4  23.0  34148  289.38 0854.96
2009/04/23 12:10:55.3     -34    -54     47     65     80 212.5  39.7  34148  289.38 0854.96
2009/04/23 12:10:55.4     -31     -9     43     33     54 253.2  58.5  34148  289.38 0854.96
2009/04/23 12:10:55.5     -35     34     30     50     58 314.1  35.5  34150  289.41 0854.96
2009/04/23 12:10:55.6     -32    105     37    110    117 343.1  18.9  34150  289.41 0854.96
2009/04/23 12:10:55.7     -33     76     59     83    101 336.4  39.5  34152  289.45 0854.96
2009/04/23 12:10:55.8     -50     62     15     80     82 321.3  11.1  34152  289.45 0854.96
2009/04/23 12:10:55.9     -45     37     22     59     62 309.5  21.0  34152  289.43 0854.96
2009/04/23 12:10:56.0     -20     17     83     27     87 309.5  80.7  34154  289.46 0854.96
2009/04/23 12:10:56.1      31     31     72     45     84  45.0  64.7  34154  289.46 0854.96
2009/04/23 12:10:56.2      51     78     57     94    109  33.0  34.4  34148  289.36 0854.96
2009/04/23 12:10:56.3       7     22    123     24    125  18.7  89.6  34150  289.41 0854.96
2009/04/23 12:10:56.4     -41     38     37     57     67 313.1  35.6  34150  289.40 0854.96
2009/04/23 12:10:56.5     -61    100     38    118    125 328.8  17.9  34150  289.40 0854.96
2009/04/23 12:10:56.6    -126    154    118    200    232 320.6  33.5  34146  289.35 0854.96
2009/04/23 12:10:56.7    -127    111     94    169    193 311.1  31.4  34152  289.45 0854.95
2009/04/23 12:10:56.8     -67     71    140     98    170 316.8  61.5  34154  289.46 0854.95
2009/04/23 12:10:56.9       0     75    166     76    182   0.0  73.8  34156  289.52 0854.95
2009/04/23 12:10:57.0     -77     26    161     82    180 288.6  71.1  34154  289.46 0854.95
2009/04/23 12:10:57.1      67     42     81     80    113  57.6  49.7  34152  289.43 0854.95
2009/04/23 12:10:57.2     267    -17    235    268    356  93.7  45.8  34152  289.43 0854.95
2009/04/23 12:10:57.3     317   -107     57    335    340 108.7   9.7  34146  289.35 0854.95
2009/04/23 12:10:57.4     274   -292    189    401    443 136.8  27.1  34140  289.24 0854.95
2009/04/23 12:10:57.5     220   -263    226    344    411 140.1  36.5  34138  289.20 0854.95
2009/04/23 12:10:57.6     165   -280    136    325    352 149.5  24.1  34144  289.30 0854.95
2009/04/23 12:10:57.7      10   -230    171    231    287 177.3  40.1  34144  289.29 0854.95
2009/04/23 12:10:57.8     -16   -244    231    245    336 183.8  48.2  34148  289.37 0854.95
2009/04/23 12:10:57.9    -129   -357    284    380    474 200.0  40.6  34146  289.33 0854.95
2009/04/23 12:10:58.0    -230   -441    214    498    542 207.6  24.9  34148  289.36 0854.95
2009/04/23 12:10:58.1    -212   -373     92    430    440 209.7  12.1  34152  289.44 0854.95
2009/04/23 12:10:58.2    -158   -266    199    310    368 210.7  35.6  34146  289.33 0854.95
2009/04/23 12:10:58.3    -149   -264    214    304    371 209.4  38.8  34144  289.30 0854.95
2009/04/23 12:10:58.4    -176   -206    181    272    326 220.5  36.7  34148  289.36 0854.95
2009/04/23 12:10:58.5    -161   -215    110    269    290 216.9  23.4  34150  289.41 0854.95
2009/04/23 12:10:58.6      -3   -208    143    209    253 180.9  37.6  34144  289.31 0854.95
2009/04/23 12:10:58.7      -9   -147    160    148    217 183.6  52.2  34146  289.33 0854.96
2009/04/23 12:10:58.8     -95   -157    119    184    219 211.4  35.7  34148  289.38 0854.96
2009/04/23 12:10:58.9      -5    -94    164     95    189 183.1  67.5  34152  289.43 0854.96
2009/04/23 12:10:59.0     -44   -130    149    138    203 198.7  52.2  34150  289.40 0854.96
2009/04/23 12:10:59.1     -40    -61     75     74    105 213.4  49.7  34146  289.33 0854.96
2009/04/23 12:10:59.2     -55    -86    153    103    184 212.6  63.2  34148  289.38 0854.96
2009/04/23 12:10:59.3     -22      1    113     23    115 274.4  89.0  34156  289.50 0854.96
2009/04/23 12:10:59.4       0    -49     94     50    106 180.9  69.3  34154  289.48 0854.96
2009/04/23 12:10:59.5      30   -129    133    133    188 166.6  50.1  34156  289.52 0854.96
2009/04/23 12:10:59.6      15   -128    122    129    177 172.9  48.2  34152  289.45 0854.96
2009/04/23 12:10:59.7       0   -120    143    121    187 180.4  55.6  34152  289.43 0854.96
2009/04/23 12:10:59.8     -32   -156    140    160    212 191.6  45.8  34152  289.43 0854.96
2009/04/23 12:10:59.9      13   -141    115    142    182 174.7  43.5  34148  289.36 0854.96
2009/04/23 12:11:00.0      40    -64     94     76    120 147.5  56.4  34154  289.46 0854.96
2009/04/23 12:11:00.1      24    -41    107     48    117 149.3  74.5  34152  289.43 0854.96
2009/04/23 12:11:00.2      50     16    110     53    122  71.4  72.8  34158  289.53 0854.96
2009/04/23 12:11:00.3      72    -77    107    106    150 136.8  50.1  34152  289.43 0854.96
2009/04/23 12:11:00.4      -1   -135    136    136    192 180.8  50.1  34152  289.43 0854.96
2009/04/23 12:11:00.5      34   -228    141    231    270 171.3  34.5  34148  289.36 0854.96
2009/04/23 12:11:00.6      31   -229     88    232    248 172.2  21.7  34152  289.42 0854.96
2009/04/23 12:11:00.7       7   -235     77    236    249 178.2  18.1  34150  289.39 0854.97
2009/04/23 12:11:00.8     -16   -276      4    277    278 183.5   1.0  34146  289.34 0854.97
2009/04/23 12:11:00.9      -7   -365   -116    366    383 181.2 -22.6  34152  289.42 0854.97
2009/04/23 12:11:01.0     109   -273   -120    295    318 158.2 -27.8  34150  289.39 0854.97
2009/04/23 12:11:01.1      44   -130   -103    138    172 161.3 -45.1  34148  289.38 0854.97
2009/04/23 12:11:01.2     -14   -128    -84    129    153 186.3 -40.0  34146  289.33 0854.97
2009/04/23 12:11:01.3      37   -181     -7    185    186 168.2  -2.2  34142  289.28 0854.97
2009/04/23 12:11:01.4      87    -82     50    120    130 133.2  24.1  34144  289.31 0854.97
2009/04/23 12:11:01.5      81   -162    -51    182    190 153.3 -15.8  34144  289.30 0854.97
2009/04/23 12:11:01.6     -59   -135   -117    148    188 203.7 -46.8  34146  289.33 0854.97
2009/04/23 12:11:01.7    -116    -67    -95    135    165 239.8 -43.0  34144  289.31 0854.97
2009/04/23 12:11:01.8    -148    -12    -16    149    150 265.2  -6.2  34150  289.40 0854.97
2009/04/23 12:11:01.9    -258     48   -105    263    283 280.6 -27.4  34148  289.37 0854.97
2009/04/23 12:11:02.0    -174     19    -80    176    193 276.4 -30.8  34146  289.33 0854.97
2009/04/23 12:11:02.1    -124    -73    -54    145    154 239.4 -25.3  34148  289.36 0854.97
2009/04/23 12:11:02.2    -105    -90     43    139    146 229.6  17.3  34150  289.40 0854.97
2009/04/23 12:11:02.3       7     -7    141     11    141 135.0  90.0  34160  289.57 0854.97
2009/04/23 12:11:02.4     -60   -129    126    143    190 204.9  45.8  34150  289.41 0854.97
2009/04/23 12:11:02.5    -151   -151     38    214    218 225.0  10.1  34152  289.43 0854.97
2009/04/23 12:11:02.6    -101   -138     -8    172    173 216.3  -2.8  34152  289.45 0854.97
2009/04/23 12:11:02.7    -125   -129    -50    181    188 224.1 -15.5  34150  289.40 0854.96
2009/04/23 12:11:02.8    -157   -131    -18    205    206 230.2  -5.2  34152  289.43 0854.96
2009/04/23 12:11:02.9    -180    -81    -47    198    204 245.6 -13.4  34150  289.40 0854.96
2009/04/23 12:11:03.0    -248   -248    -19    352    353 225.0  -3.1  34150  289.40 0854.96
2009/04/23 12:11:03.1    -208   -210    -43    296    300 224.8  -8.3  34144  289.31 0854.96
2009/04/23 12:11:03.2    -155   -161     44    224    229 223.9  11.1  34150  289.40 0854.96
2009/04/23 12:11:03.3    -274    -69     14    283    284 255.8   2.9  34146  289.34 0854.96
2009/04/23 12:11:03.4    -316   -188     10    368    369 239.2   1.7  34152  289.43 0854.96
2009/04/23 12:11:03.5    -273   -173     -9    324    325 237.6  -1.6  34144  289.31 0854.96
2009/04/23 12:11:03.6    -419     34   -113    421    436 274.7 -15.1  34154  289.48 0854.96
2009/04/23 12:11:03.7    -435   -117   -138    451    471 254.9 -21.9  34152  289.42 0854.96
2009/04/23 12:11:03.8    -396   -245    -80    466    474 238.3  -9.8  34150  289.40 0854.96
2009/04/23 12:11:03.9    -374     13   -129    375    396 272.1 -24.3  34156  289.50 0854.96
2009/04/23 12:11:04.0    -279    182    -11    334    335 303.1  -1.9  34146  289.33 0854.96
2009/04/23 12:11:04.1    -407    266      4    487    488 303.2   0.5  34162  289.62 0854.96
2009/04/23 12:11:04.2    -353    217    -27    415    416 301.6  -3.8  34164  289.65 0854.96
2009/04/23 12:11:04.3    -289     54    100    294    311 280.6  18.9  34158  289.54 0854.96
2009/04/23 12:11:04.4    -291     68     58    299    305 283.2  11.0  34160  289.56 0854.96
2009/04/23 12:11:04.5    -342   -193     40    393    396 240.6   5.9  34166  289.67 0854.96
2009/04/23 12:11:04.6    -330   -209     10    391    392 237.6   1.5  34172  289.76 0854.96
2009/04/23 12:11:04.7    -292     43     69    296    305 278.4  13.2  34156  289.49 0854.96
2009/04/23 12:11:04.8    -332    145      4    363    364 293.6   0.7  34162  289.60 0854.96
2009/04/23 12:11:04.9    -382    201    -24    432    433 297.8  -3.2  34152  289.44 0854.96
2009/04/23 12:11:05.0    -381     98     85    394    404 284.5  12.2  34156  289.52 0854.96
2009/04/23 12:11:05.1    -436     -4    -59    437    441 269.4  -7.7  34162  289.61 0854.96
2009/04/23 12:11:05.2    -432      1    -12    433    434 270.3  -1.7  34158  289.53 0854.96
2009/04/23 12:11:05.3    -354   -160    -64    389    395 245.7  -9.4  34174  289.81 0854.96
2009/04/23 12:11:05.4    -456   -189   -104    494    505 247.4 -11.9  34170  289.74 0854.96
2009/04/23 12:11:05.5    -421     25   -160    422    451 273.5 -26.4  34154  289.46 0854.96
2009/04/23 12:11:05.6    -344   -255   -145    429    452 233.4 -23.6  34162  289.61 0854.96
2009/04/23 12:11:05.7    -255    -67   -117    264    288 255.2 -29.7  34156  289.49 0854.95
2009/04/23 12:11:05.8    -270    -98   -123    288    313 250.0 -28.9  34134  289.12 0854.95
2009/04/23 12:11:05.9    -534    -50     26    537    538 264.6   2.8  34148  289.38 0854.95
2009/04/23 12:11:06.0    -437     10    -98    438    449 271.4 -12.7  34158  289.53 0854.95
2009/04/23 12:11:06.1    -418   -168     22    451    452 248.0   2.9  34160  289.56 0854.95
2009/04/23 12:11:06.2    -403    -17    -41    404    407 267.5  -5.9  34162  289.61 0854.95
2009/04/23 12:11:06.3    -306   -226     77    381    389 233.5  11.5  34162  289.59 0854.95
2009/04/23 12:11:06.4    -207   -219     -2    302    303 223.3  -0.5  34152  289.44 0854.95
2009/04/23 12:11:06.5    -230   -128    -22    264    266 240.9  -4.9  34160  289.56 0854.95
2009/04/23 12:11:06.6    -191   -307     89    362    373 212.0  13.9  34152  289.45 0854.95
2009/04/23 12:11:06.7    -210   -277     70    348    355 217.2  11.5  34154  289.47 0854.95
2009/04/23 12:11:06.8    -208   -323     60    385    390 212.8   9.0  34156  289.50 0854.95
2009/04/23 12:11:06.9    -136   -247     39    282    285 208.9   8.0  34154  289.47 0854.95
2009/04/23 12:11:07.0     -88   -231      3    248    249 201.0   0.7  34158  289.53 0854.95
2009/04/23 12:11:07.1    -151   -292     41    329    332 207.4   7.2  34148  289.37 0854.95
2009/04/23 12:11:07.2    -289   -418   -146    509    530 214.7 -16.0  34134  289.13 0854.95
2009/04/23 12:11:07.3    -168   -561     74    586    591 196.7   7.2  34140  289.24 0854.95
2009/04/23 12:11:07.4       2   -465     60    466    470 179.7   7.4  34142  289.27 0854.95
2009/04/23 12:11:07.5     -66   -301    164    309    349 192.4  30.2  34138  289.21 0854.95
2009/04/23 12:11:07.6    -271   -112    110    294    313 247.6  21.5  34152  289.44 0854.95
2009/04/23 12:11:07.7     -65   -163    117    176    211 201.8  36.7  34146  289.33 0854.94
2009/04/23 12:11:07.8    -172   -271    -41    322    325 212.5  -7.3  34154  289.47 0854.94
2009/04/23 12:11:08.0     -89   -393    -54    404    408 192.8  -7.7  34148  289.38 0854.94
2009/04/23 12:11:08.1     -36   -407    -17    409    410 185.2  -2.5  34150  289.41 0854.94
2009/04/23 12:11:08.2      -7   -421     23    422    423 181.0   3.2  34150  289.41 0854.94
2009/04/23 12:11:08.3      -2   -443     23    444    445 180.3   3.0  34148  289.36 0854.94
2009/04/23 12:11:08.4     -74   -378     20    386    387 191.1   3.0  34148  289.37 0854.94
2009/04/23 12:11:08.5     -53   -344      3    349    350 188.9   0.5  34154  289.47 0854.94
2009/04/23 12:11:08.6    -107   -340    -11    357    358 197.6  -1.9  34156  289.52 0854.94
2009/04/23 12:11:08.7     -80   -391     -3    400    401 191.7  -0.5  34154  289.47 0854.94
2009/04/23 12:11:08.8     -87   -402     42    412    415 192.3   5.9  34152  289.43 0854.94
2009/04/23 12:11:08.9    -136   -376      7    400    401 200.0   1.1  34154  289.47 0854.94
2009/04/23 12:11:09.0    -164   -281     -6    326    327 210.3  -1.2  34166  289.68 0854.94
2009/04/23 12:11:09.1    -212   -261    -97    337    350 219.1 -21.0  34162  289.59 0854.94
2009/04/23 12:11:09.2    -217   -301    -75    372    380 215.8 -11.5  34158  289.55 0854.94
2009/04/23 12:11:09.3    -294   -310    -24    428    429 223.4  -3.3  34162  289.61 0854.94
2009/04/23 12:11:09.4    -118   -309    -86    331    343 201.0 -14.6  34152  289.45 0854.94
2009/04/23 12:11:09.5     -47   -324    -86    328    340 188.3 -14.7  34148  289.38 0854.94
2009/04/23 12:11:09.6      68   -323   -105    331    348 168.0 -17.6  34146  289.35 0854.94
2009/04/23 12:11:09.7      18   -314    -26    315    317 176.6  -4.8  34146  289.34 0854.94
2009/04/23 12:11:09.8      21   -240     -4    241    242 174.9  -1.2  34148  289.37 0854.89
2009/04/23 12:11:09.9      32   -227     20    230    231 172.0   5.0  34146  289.35 0854.89
2009/04/23 12:11:10.0     -91   -241     22    258    260 200.7   4.9  34146  289.34 0854.89
2009/04/23 12:11:10.1      62   -280     18    287    288 167.5   3.6  34146  289.34 0854.89
2009/04/23 12:11:10.2      27   -194     29    196    199 172.0   8.5  34146  289.35 0854.89
2009/04/23 12:11:10.3    -164   -249      3    299    300 213.4   0.7  34146  289.32 0854.89
2009/04/23 12:11:10.4     -98   -255    -28    274    276 201.0  -6.0  34148  289.36 0854.89
2009/04/23 12:11:10.5    -157   -255    -14    300    301 211.6  -2.8  34148  289.37 0854.89
2009/04/23 12:11:10.6    -283   -220    -42    359    362 232.2  -6.7  34152  289.43 0854.89
2009/04/23 12:11:10.7    -104   -376     40    391    394 195.5   6.0  34146  289.35 0854.89
2009/04/23 12:11:10.8     -83   -393     36    402    404 192.1   5.2  34144  289.29 0854.89
2009/04/23 12:11:10.9     -63   -291     15    298    299 192.3   2.9  34146  289.34 0854.89
2009/04/23 12:11:11.0      29   -272     31    274    276 173.8   6.5  34148  289.36 0854.89
2009/04/23 12:11:11.1      72   -244    -40    255    259 163.5  -9.0  34148  289.37 0854.89
2009/04/23 12:11:11.2     127   -163    -68    207    218 142.2 -18.3  34148  289.38 0854.89
2009/04/23 12:11:11.3     142   -175    109    226    250 140.8  27.3  34146  289.34 0854.89
2009/04/23 12:11:11.4      79   -193    111    209    236 157.5  30.3  34150  289.40 0854.89
2009/04/23 12:11:11.5     137   -180     76    227    240 142.6  18.6  34150  289.39 0854.89
2009/04/23 12:11:11.6      64   -210     53    220    227 163.1  13.7  34150  289.40 0854.89
2009/04/23 12:11:11.7     -16   -251     39    252    256 183.8   8.9  34146  289.34 0854.89
2009/04/23 12:11:11.8       0   -212     85    213    229 180.2  23.0  34148  289.36 0854.89
2009/04/23 12:11:11.9       0   -191     28    192    195 180.0   8.5  34148  289.36 0854.89
2009/04/23 12:11:12.0       6   -139    -23    140    142 177.3  -9.3  34148  289.38 0854.89
2009/04/23 12:11:12.1      31   -130     21    134    136 166.2   9.0  34148  289.36 0854.89
2009/04/23 12:11:12.2      35   -178      8    182    183 168.7   2.8  34150  289.40 0854.89
2009/04/23 12:11:12.3      22   -195      9    197    198 173.3   2.8  34148  289.38 0854.89
2009/04/23 12:11:12.4     -38   -144    -34    150    154 195.1 -12.9  34148  289.36 0854.89
2009/04/23 12:11:12.5     -93   -139    -54    168    177 213.8 -18.1  34148  289.36 0854.89
2009/04/23 12:11:12.6    -104   -164    -80    195    210 212.5 -27.8  34146  289.35 0854.89
2009/04/23 12:11:12.7     -51   -223    -27    229    231 193.1  -6.9  34148  289.36 0854.89
2009/04/23 12:11:12.8      14   -199     29    200    203 176.0   8.5  34150  289.40 0854.89
2009/04/23 12:11:12.9     -28   -183    101    186    211 188.9  30.8  34148  289.38 0854.89
2009/04/23 12:11:13.0     -62   -186    112    197    226 198.5  32.1  34152  289.43 0854.89
2009/04/23 12:11:13.1     -65   -212    100    222    243 197.2  26.2  34156  289.49 0854.89
2009/04/23 12:11:13.2     -80   -144    106    166    196 209.2  35.6  34148  289.38 0854.89
2009/04/23 12:11:13.3      -6    -81    142     82    163 184.5  67.2  34154  289.46 0854.89
2009/04/23 12:11:13.4     -67   -190    117    202    233 199.6  32.9  34150  289.40 0854.89
2009/04/23 12:11:13.5     -34   -202    115    206    235 189.8  31.4  34152  289.43 0854.89
2009/04/23 12:11:13.6       9   -259     91    260    276 178.0  19.4  34152  289.44 0854.89
2009/04/23 12:11:13.7      16   -242     90    243    259 176.2  21.0  34152  289.44 0854.89
2009/04/23 12:11:13.8     122   -126    119    176    212 136.1  37.3  34150  289.40 0854.90
2009/04/23 12:11:13.9     141    -68     95    157    183 115.8  34.4  34148  289.36 0854.90
2009/04/23 12:11:14.0     136    -45    120    144    187 108.4  43.8  34150  289.40 0854.90
2009/04/23 12:11:14.1      98    -97    144    139    200 134.8  50.9  34154  289.48 0854.90
2009/04/23 12:11:14.2      25    -33    127     42    133 142.2  80.7  34154  289.48 0854.90
2009/04/23 12:11:14.3      29     -5    152     30    154 101.5  89.1  34154  289.46 0854.90
2009/04/23 12:11:14.4     -32    -59    139     68    154 209.0  72.8  34156  289.52 0854.90
2009/04/23 12:11:14.5     -15    -58    120     61    134 195.2  71.0  34154  289.46 0854.90
2009/04/23 12:11:14.6      62     41    215     75    227  56.7  80.5  34154  289.48 0854.90
2009/04/23 12:11:14.7     -10     22    146     25    148 336.4  90.0  34156  289.50 0854.90
2009/04/23 12:11:14.8     239    -20    205    240    315  95.0  45.0  34152  289.42 0854.90
2009/04/23 12:11:14.9     227      3    163    228    280  89.1  39.3  34152  289.42 0854.90
2009/04/23 12:11:15.0     250     -7     94    251    268  91.7  21.5  34154  289.47 0854.90
2009/04/23 12:11:15.1     254    110    -35    278    281  66.5  -7.3  34152  289.42 0854.90
2009/04/23 12:11:15.2     275    119     91    300    314  66.5  17.0  34142  289.27 0854.90
2009/04/23 12:11:15.3     307    136    139    336    363  66.0  23.7  34142  289.26 0854.90
2009/04/23 12:11:15.4     188    126    195    227    299  56.0  45.1  34144  289.31 0854.90
2009/04/23 12:11:15.5     222     59    264    230    350  75.0  54.6  34144  289.29 0854.90
2009/04/23 12:11:15.6      72    -34    173     80    190 115.2  73.2  34152  289.45 0854.90
2009/04/23 12:11:15.7     266   -157    216    310    377 120.6  38.4  34152  289.45 0854.90
2009/04/23 12:11:15.8     217   -249    241    331    409 139.0  39.7  34150  289.40 0854.89
2009/04/23 12:11:15.9     145   -301    311    335    457 154.3  47.9  34156  289.49 0854.89
2009/04/23 12:11:16.0     417   -138    186    440    477 108.4  24.2  34160  289.57 0854.89
2009/04/23 12:11:16.1     322    -43    205    325    384  97.7  35.5  34160  289.57 0854.89
2009/04/23 12:11:16.2     241     80    139    254    289  71.6  31.3  34150  289.41 0854.89
2009/04/23 12:11:16.3     197     12    150    198    248  86.3  40.9  34152  289.42 0854.89
2009/04/23 12:11:16.4     192     70     59    205    214  70.0  16.0  34156  289.52 0854.89
2009/04/23 12:11:16.5     167     55     79    176    192  71.6  25.9  34150  289.41 0854.89
2009/04/23 12:11:16.6     149    149     41    211    216  45.0  11.1  34150  289.41 0854.89
2009/04/23 12:11:16.7     167    177    -26    244    246  43.2  -6.1  34148  289.37 0854.89
2009/04/23 12:11:16.8     354    163    106    390    405  65.3  15.3  34142  289.26 0854.89
2009/04/23 12:11:16.9     302     46     78    306    316  81.2  14.3  34144  289.31 0854.89
2009/04/23 12:11:17.0     248    180    187    307    359  54.1  34.3  34146  289.32 0854.89
2009/04/23 12:11:17.1     189    171    141    256    292  47.8  31.4  34146  289.34 0854.89
2009/04/23 12:11:17.2     130    157    111    204    232  39.6  31.3  34142  289.28 0854.89
2009/04/23 12:11:17.3      78    142     78    163    180  28.9  27.3  34146  289.33 0854.89
2009/04/23 12:11:17.4     125    172    137    213    253  36.1  35.6  34146  289.32 0854.89
2009/04/23 12:11:17.5       8    197     27    198    201   2.5   8.0  34150  289.40 0854.89
2009/04/23 12:11:17.6      86    154     14    177    178  29.4   4.6  34142  289.28 0854.89
2009/04/23 12:11:17.7     257    122     24    285    287  64.6   5.0  34150  289.39 0854.89
2009/04/23 12:11:17.8     303     76    111    313    333  75.9  19.5  34152  289.44 0854.91
2009/04/23 12:11:17.9     395     99     47    408    411  75.8   6.6  34156  289.49 0854.91
2009/04/23 12:11:18.0     533     92     48    542    545  80.2   5.1  34156  289.50 0854.91
2009/04/23 12:11:18.1     507    225    114    555    567  66.1  11.7  34156  289.51 0854.91
2009/04/23 12:11:18.2     391    312     62    501    505  51.4   7.1  34160  289.56 0854.91
2009/04/23 12:11:18.3     524    230    196    573    606  66.3  18.9  34152  289.42 0854.91
2009/04/23 12:11:18.4     500    177    222    531    575  70.5  24.1  34144  289.31 0854.91
2009/04/23 12:11:18.5     352     73     49    360    364  78.2   7.8  34148  289.37 0854.91
2009/04/23 12:11:18.6     343     -8     -1    344    345  91.4  -0.2  34160  289.57 0854.91
2009/04/23 12:11:18.7     335     35    123    337    358  83.9  21.0  34138  289.20 0854.91
2009/04/23 12:11:18.8     213     87    189    231    298  67.8  43.7  34146  289.34 0854.91
2009/04/23 12:11:18.9     255   -172     -6    308    309 124.1  -1.3  34154  289.47 0854.91
2009/04/23 12:11:19.0     225   -133    -14    262    263 120.6  -3.2  34154  289.47 0854.91
2009/04/23 12:11:19.1     264    -59     63    271    279 102.8  13.1  34152  289.42 0854.91
2009/04/23 12:11:19.2     264   -145    121    302    325 118.9  23.0  34152  289.42 0854.91
2009/04/23 12:11:19.3     228   -150     53    274    280 123.3  11.1  34150  289.41 0854.91
2009/04/23 12:11:19.4     136   -277     17    309    310 153.7   3.3  34156  289.49 0854.91
2009/04/23 12:11:19.5     226   -179    117    289    311 128.4  23.1  34154  289.47 0854.91
2009/04/23 12:11:19.6     303   -155    143    341    369 117.1  24.2  34144  289.30 0854.91
2009/04/23 12:11:19.7     322   -244     14    405    406 127.2   2.1  34154  289.46 0854.91
2009/04/23 12:11:19.8     267   -336    -23    430    431 141.5  -3.1  34150  289.39 0854.92
2009/04/23 12:11:19.9     322   -227     71    395    402 125.2  10.2  34154  289.47 0854.92
2009/04/23 12:11:20.0     336   -259     87    425    435 127.6  11.6  34156  289.49 0854.92
2009/04/23 12:11:20.1     384   -265    163    467    494 124.6  20.0  34152  289.44 0854.92
2009/04/23 12:11:20.2     271   -196    256    335    421 125.9  41.3  34154  289.48 0854.92
2009/04/23 12:11:20.3     280   -256    277    380    470 132.4  39.7  34156  289.49 0854.92
2009/04/23 12:11:20.4     247   -236    285    343    445 133.7  43.8  34156  289.49 0854.92
2009/04/23 12:11:20.5      65   -158    282    171    329 157.5  66.0  34162  289.59 0854.92
2009/04/23 12:11:20.6     -10   -137    256    138    290 184.5  69.3  34172  289.76 0854.92
2009/04/23 12:11:20.7      46     -7    184     47    189  98.8  85.9  34170  289.74 0854.92
2009/04/23 12:11:20.8      10     49    211     51    217  11.6  86.7  34164  289.63 0854.92
2009/04/23 12:11:20.9      53   -170    276    179    328 162.6  64.1  34160  289.58 0854.92
2009/04/23 12:11:21.0      37   -166    217    171    276 167.3  57.9  34168  289.71 0854.92
2009/04/23 12:11:21.1      -9   -233    300    234    380 182.2  58.2  34162  289.60 0854.92
2009/04/23 12:11:21.2      42    -16    194     46    199 111.7  86.9  34166  289.69 0854.92
2009/04/23 12:11:21.3       2   -152    211    153    260 179.0  60.6  34166  289.67 0854.92
2009/04/23 12:11:21.4      -4    -71    193     72    205 183.6  79.2  34160  289.58 0854.92
2009/04/23 12:11:21.5      18    -33    130     38    135 151.0  82.8  34154  289.46 0854.92
2009/04/23 12:11:21.6      46   -212    212    217    303 167.7  49.8  34160  289.56 0854.92
2009/04/23 12:11:21.7      85    -49    153     99    182 119.8  64.4  34154  289.48 0854.92
2009/04/23 12:11:21.8     203    -69    206    215    297 108.8  48.7  34156  289.51 0854.92
2009/04/23 12:11:21.9     106    -69    161    127    205 123.3  57.7  34158  289.55 0854.92
2009/04/23 12:11:22.0     -21    -26    128     34    132 219.6  84.9  34162  289.62 0854.92
2009/04/23 12:11:22.1      -6   -126    138    127    187 183.1  52.5  34154  289.46 0854.92
2009/04/23 12:11:22.2      18   -128    203    130    241 171.9  64.6  34160  289.57 0854.92
2009/04/23 12:11:22.3      19   -138    136    140    195 171.9  49.8  34156  289.50 0854.92
2009/04/23 12:11:22.4    -172    158     88    234    250 312.7  21.5  34152  289.44 0854.92
2009/04/23 12:11:22.5      41    110     58    118    131  20.5  27.8  34158  289.55 0854.92
2009/04/23 12:11:22.6      36     80     56     88    104  24.5  35.5  34154  289.48 0854.92
2009/04/23 12:11:22.7      22    116     54    119    130  10.7  26.2  34158  289.55 0854.92
2009/04/23 12:11:22.8      14    -38    131     41    137 160.0  82.3  34144  289.31 0854.92
2009/04/23 12:11:22.9     -96   -116    134    151    201 219.7  46.2  34156  289.52 0854.92
2009/04/23 12:11:23.0     -81   -128    153    152    215 212.5  50.1  34152  289.45 0854.92
2009/04/23 12:11:23.1      12   -109     88    110    140 173.3  43.3  34158  289.55 0854.92
2009/04/23 12:11:23.2      47   -102     79    113    137 155.1  38.6  34158  289.53 0854.92
2009/04/23 12:11:23.3      12   -156     98    157    185 175.5  35.2  34152  289.43 0854.92
2009/04/23 12:11:23.4     -60   -188     79    198    213 197.8  22.8  34154  289.46 0854.92
2009/04/23 12:11:23.5     -89   -176     53    198    205 207.0  15.0  34150  289.40 0854.92
2009/04/23 12:11:23.6     -96   -140     59    171    182 214.5  19.2  34152  289.43 0854.92
2009/04/23 12:11:23.7     -47   -241     60    246    254 191.1  13.7  34156  289.49 0854.92
2009/04/23 12:11:23.8     -25   -134    128    137    187 190.7  47.9  34158  289.55 0854.90
2009/04/23 12:11:23.9     -21    -15    111     27    114 234.0  85.9  34162  289.60 0854.90
2009/04/23 12:11:24.0     -95    -37    172    102    199 248.7  66.8  34166  289.69 0854.90
2009/04/23 12:11:24.1    -152     12    119    153    193 274.8  42.0  34162  289.62 0854.90
2009/04/23 12:11:24.2     -45     10    126     47    134 283.3  79.2  34168  289.70 0854.90
2009/04/23 12:11:24.3     -15     35    105     39    112 336.4  79.2  34170  289.74 0854.90
2009/04/23 12:11:24.4     -47     56     98     74    122 320.4  59.0  34168  289.72 0854.90
2009/04/23 12:11:24.5     -30     64     41     71     81 334.6  32.9  34166  289.69 0854.90
2009/04/23 12:11:24.6     -74    -38     34     84     90 242.9  23.6  34164  289.65 0854.90
2009/04/23 12:11:24.7    -166    -50     65    174    185 253.2  21.0  34164  289.65 0854.90
2009/04/23 12:11:24.8    -164    -41     76    170    186 255.8  25.9  34164  289.63 0854.92
2009/04/23 12:11:24.9    -157    -21     80    159    177 262.1  28.7  34172  289.79 0854.92
2009/04/23 12:11:25.0    -196     26     46    198    204 277.7  13.2  34176  289.85 0854.92
2009/04/23 12:11:25.1    -204     44    -42    209    214 282.2 -11.3  34178  289.87 0854.92
2009/04/23 12:11:25.2    -240    -61     -6    248    249 255.6  -1.6  34180  289.90 0854.92
2009/04/23 12:11:25.3    -224    -71     -9    236    237 252.3  -2.3  34176  289.83 0854.92
2009/04/23 12:11:25.4    -221    -44    -25    226    228 258.5  -6.5  34176  289.84 0854.92
2009/04/23 12:11:25.5    -193   -130    -55    233    240 236.0 -13.4  34172  289.76 0854.92
2009/04/23 12:11:25.6    -214   -171    -65    275    283 231.4 -13.4  34172  289.76 0854.92
2009/04/23 12:11:25.7    -162   -196    -39    255    259 219.6  -8.8  34170  289.75 0854.92
2009/04/23 12:11:25.8    -105   -134    -24    171    173 218.3  -8.2  34162  289.62 0854.92
2009/04/23 12:11:25.9    -102    -74    -16    127    129 234.0  -7.3  34168  289.72 0854.92
2009/04/23 12:11:26.0     -71   -121     -1    141    142 210.7  -0.7  34164  289.65 0854.92
2009/04/23 12:11:26.1     -66   -127     -8    144    145 207.6  -3.2  34162  289.60 0854.92
2009/04/23 12:11:26.2     -67   -140    -34    156    160 205.5 -12.4  34164  289.63 0854.92
2009/04/23 12:11:26.3    -113   -230     17    257    258 206.3   3.8  34160  289.58 0854.92
2009/04/23 12:11:26.4    -134   -145     -7    198    199 222.8  -2.2  34166  289.69 0854.92
2009/04/23 12:11:26.5    -104   -104    -26    148    151 225.0 -10.3  34170  289.75 0854.92
2009/04/23 12:11:26.6    -108    -64    -74    126    146 239.3 -37.9  34174  289.80 0854.92
2009/04/23 12:11:26.7    -194   -107    -96    222    241 241.1 -29.3  34168  289.71 0854.92
2009/04/23 12:11:26.8    -178    -21    -61    180    190 263.2 -23.3  34172  289.77 0854.89
2009/04/23 12:11:26.9    -236    -40    -51    240    246 260.3 -12.2  34180  289.90 0854.89
2009/04/23 12:11:27.0    -251   -121    -89    279    292 244.2 -22.8  34152  289.42 0854.89
2009/04/23 12:11:27.1    -326   -203   -139    385    409 238.1 -25.2  34154  289.48 0854.89
2009/04/23 12:11:27.2    -324   -209    -90    386    397 237.1 -13.1  34160  289.57 0854.89
2009/04/23 12:11:27.3    -234   -168    -57    289    295 234.3 -11.3  34158  289.54 0854.89
2009/04/23 12:11:27.4    -192   -201    -19    279    280 223.7  -3.9  34164  289.63 0854.89
2009/04/23 12:11:27.5    -202   -197    -63    283    291 225.8 -12.6  34156  289.51 0854.89
2009/04/23 12:11:27.6    -167   -136    -73    216    228 230.7 -23.3  34170  289.74 0854.89
2009/04/23 12:11:27.7    -160   -181      8    242    243 221.5   2.1  34168  289.71 0854.89
2009/04/23 12:11:27.8    -178   -113     44    211    216 237.6  12.0  34174  289.80 0854.89
2009/04/23 12:11:27.9    -312    -92    -52    326    331 253.6  -9.1  34178  289.86 0854.89
2009/04/23 12:11:28.0    -253   -158    -31    299    301 238.0  -6.1  34168  289.70 0854.89
2009/04/23 12:11:28.1    -224   -183    -59    290    297 230.7 -11.6  34150  289.41 0854.89
2009/04/23 12:11:28.2    -146   -219   -122    264    290 213.8 -31.0  34150  289.41 0854.89
2009/04/23 12:11:28.3     -73   -258   -140    269    303 195.8 -33.7  34148  289.37 0854.89
2009/04/23 12:11:28.4     -89   -269    -51    284    289 198.3 -10.3  34164  289.64 0854.89
2009/04/23 12:11:28.5    -123   -208    -62    242    250 210.7 -14.5  34172  289.76 0854.89
2009/04/23 12:11:28.6    -143   -181    -69    231    241 218.3 -21.7  34170  289.75 0854.89
2009/04/23 12:11:28.7    -162   -114    -54    199    207 234.9 -15.2  34172  289.79 0854.89
2009/04/23 12:11:28.8     -37   -197    -84    201    217 190.9 -28.2  34162  289.62 0854.88
2009/04/23 12:11:28.9     -56   -270    -83    276    288 191.8 -21.7  34156  289.49 0854.88
2009/04/23 12:11:29.0    -105   -204    -82    230    244 207.2 -24.6  34158  289.54 0854.88
2009/04/23 12:11:29.1    -147   -129   -100    196    220 228.7 -33.6  34158  289.55 0854.88
2009/04/23 12:11:29.2    -176    -75    -65    192    202 246.9 -23.3  34170  289.75 0854.88
2009/04/23 12:11:29.3    -255    -68    -68    264    273 255.0 -14.5  34200  290.24 0854.88
2009/04/23 12:11:29.4    -246     21    -58    247    254 275.0 -13.4  34224  290.66 0854.88
2009/04/23 12:11:29.5    -298      4    -22    299    300 270.8  -4.4  34216  290.53 0854.88
2009/04/23 12:11:29.6    -232   -110     49    257    262 244.6  11.0  34186  290.00 0854.88
2009/04/23 12:11:29.7    -217     -3   -163    218    272 269.1 -44.8  34174  289.81 0854.88
2009/04/23 12:11:29.8    -204    -43   -140    209    251 258.1 -41.1  34202  290.29 0854.88
2009/04/23 12:11:29.9    -152     -8    -82    153    173 267.0 -35.0  34208  290.38 0854.88
2009/04/23 12:11:30.0    -219    -23     -4    221    222 263.9  -1.2  34210  290.43 0854.88
2009/04/23 12:11:30.1    -246   -102    -38    267    270 247.4  -8.2  34212  290.46 0854.88
2009/04/23 12:11:30.2    -184    -13    131    185    226 265.7  39.1  34180  289.92 0854.88
2009/04/23 12:11:30.3    -207    -22     98    209    230 263.9  27.1  34168  289.70 0854.88
2009/04/23 12:11:30.4    -178    -14     57    179    188 265.2  17.7  34180  289.91 0854.88
2009/04/23 12:11:30.5    -185    -47     21    192    194 255.6   6.5  34162  289.60 0854.88
2009/04/23 12:11:30.6    -202     45    -11    208    209 282.6  -3.1  34172  289.79 0854.88
2009/04/23 12:11:30.7    -123     63     89    139    165 297.1  35.6  34176  289.85 0854.88
2009/04/23 12:11:30.8     -48     50     46     70     83 315.8  36.0  34182  289.94 0854.84
2009/04/23 12:11:30.9     -30      0     30     31     43 269.2  50.0  34178  289.87 0854.84
2009/04/23 12:11:31.0     -76     24     52     80     95 288.2  35.6  34172  289.77 0854.84
2009/04/23 12:11:31.1    -177     36     -7    181    182 281.5  -2.2  34174  289.82 0854.84
2009/04/23 12:11:31.2    -132     36     70    137    153 285.5  29.2  34176  289.85 0854.84
2009/04/23 12:11:31.3     -66    104     99    124    158 327.4  42.7  34182  289.94 0854.84
2009/04/23 12:11:31.4    -105    106     18    150    152 315.5   7.1  34180  289.91 0854.84
2009/04/23 12:11:31.5    -172     57     63    182    193 288.4  19.2  34178  289.89 0854.84
2009/04/23 12:11:31.6    -173     55     28    182    185 287.7   8.8  34190  290.08 0854.84
2009/04/23 12:11:31.7    -168     13      0    169    170 274.6   0.2  34194  290.16 0854.84
2009/04/23 12:11:31.8    -112     -7      3    113    114 266.1   1.8  34202  290.28 0854.84
2009/04/23 12:11:31.9     -72    -34      4     80     81 244.8   3.3  34196  290.19 0854.84
2009/04/23 12:11:32.0     -25    -54     30     60     67 205.3  28.2  34180  289.91 0854.84
2009/04/23 12:11:32.1     -51    -47     38     70     79 226.8  30.8  34176  289.85 0854.84
2009/04/23 12:11:32.2     -37    -57     37     69     78 213.4  30.3  34176  289.85 0854.84
2009/04/23 12:11:32.3     -43    -82      6     93     94 207.6   3.8  34174  289.80 0854.84
2009/04/23 12:11:32.4     -67    -95      9    117    118 215.2   4.4  34172  289.77 0854.84
2009/04/23 12:11:32.5     -36   -109     37    115    121 198.3  17.9  34168  289.72 0854.84
2009/04/23 12:11:32.6     -55    -96     58    111    125 209.9  29.8  34162  289.60 0854.84
2009/04/23 12:11:32.7    -115   -128    104    173    201 221.9  34.0  34162  289.60 0854.84
2009/04/23 12:11:32.8    -133   -147     93    199    219 222.1  27.1  34162  289.60 0854.82
2009/04/23 12:11:32.9     -93   -122     -8    154    155 217.4  -3.1  34156  289.52 0854.82
2009/04/23 12:11:33.0    -132   -166    -14    213    214 218.5  -3.9  34168  289.70 0854.82
2009/04/23 12:11:33.1     -73   -176    -10    191    192 202.5  -3.1  34162  289.60 0854.82
2009/04/23 12:11:33.2    -126   -195    -38    233    237 213.0  -9.3  34174  289.80 0854.82
2009/04/23 12:11:33.3     -22   -206    -13    208    209 186.2  -3.7  34158  289.53 0854.82
2009/04/23 12:11:33.4     -26   -205     -4    207    208 187.3  -1.2  34154  289.46 0854.82
2009/04/23 12:11:33.6     -11   -173      3    174    175 183.8   1.2  34160  289.57 0854.82
2009/04/23 12:11:33.6     -10   -121     -8    122    123 184.9  -4.1  34166  289.67 0854.82
2009/04/23 12:11:33.7      45   -183     71    189    201 166.2  21.5  34162  289.62 0854.82
2009/04/23 12:11:33.8      37   -218     82    222    236 170.2  21.3  34156  289.52 0854.82
2009/04/23 12:11:33.9     -18   -225    143    226    267 184.7  35.5  34158  289.53 0854.82
2009/04/23 12:11:34.0      32   -209    146    212    257 171.1  38.0  34158  289.53 0854.82
2009/04/23 12:11:34.1      60   -198     94    208    228 163.1  26.4  34156  289.50 0854.82
2009/04/23 12:11:34.2      39   -179    106    184    212 167.5  32.9  34154  289.46 0854.82
2009/04/23 12:11:34.3      29   -220     96    222    241 172.4  24.9  34156  289.49 0854.82
2009/04/23 12:11:34.4     -23   -212     25    214    216 186.3   6.9  34156  289.50 0854.82
2009/04/23 12:11:34.5     -96   -146    -74    175    190 213.4 -28.7  34156  289.50 0854.82
2009/04/23 12:11:34.6      69    -70    -36     99    105 135.8 -24.4  34156  289.50 0854.82
2009/04/23 12:11:34.7      24    -30     -1     39     40 140.4  -2.2  34156  289.52 0854.82
2009/04/23 12:11:34.8      18    -45     45     49     66 158.2  47.9  34152  289.45 0854.83
2009/04/23 12:11:35.0       4   -131    106    132    169 178.2  43.3  34152  289.43 0854.83
2009/04/23 12:11:35.1     -10   -135     93    136    164 184.5  37.6  34150  289.40 0854.83
2009/04/23 12:11:35.1     -30   -164     65    167    179 190.5  22.5  34152  289.43 0854.83
2009/04/23 12:11:35.2     -23   -151     51    153    162 188.9  18.6  34148  289.36 0854.83
2009/04/23 12:11:35.3     -37   -120     51    126    135 197.4  23.0  34148  289.38 0854.83
2009/04/23 12:11:35.4     -74   -125     45    146    153 210.7  17.3  34150  289.41 0854.83
2009/04/23 12:11:35.5     -22   -104     28    107    111 192.0  14.7  34150  289.41 0854.83
2009/04/23 12:11:35.6      -9    -74     48     75     89 187.1  35.5  34150  289.41 0854.83
2009/04/23 12:11:35.8     -87   -137     80    163    181 212.6  27.8  34150  289.40 0854.83
2009/04/23 12:11:35.9    -143   -143     85    203    220 225.1  24.1  34150  289.40 0854.83
2009/04/23 12:11:36.0    -108   -108    100    154    183 225.0  35.7  34154  289.46 0854.83
2009/04/23 12:11:36.1     -74    -91     58    118    131 219.2  27.8  34152  289.43 0854.83
2009/04/23 12:11:36.2     -58    -98     66    115    132 210.7  32.4  34154  289.48 0854.83
2009/04/23 12:11:36.3     -61    -22     97     65    116 250.0  63.6  34162  289.62 0854.83
2009/04/23 12:11:36.4    -178     16     97    179    203 275.2  31.0  34166  289.69 0854.83
2009/04/23 12:11:36.5    -151     45    103    158    188 286.8  35.7  34164  289.65 0854.83
2009/04/23 12:11:36.6    -189     53    101    197    221 285.9  29.3  34162  289.60 0854.83
2009/04/23 12:11:36.7    -178     -3    115    179    212 269.0  35.6  34162  289.62 0854.83
2009/04/23 12:11:36.8    -197    -42    104    202    227 257.8  29.3  34166  289.69 0854.83
2009/04/23 12:11:36.9     -91    -77     73    120    140 230.0  34.0  34160  289.58 0854.86
2009/04/23 12:11:37.0     -99    -87    116    132    175 228.7  45.8  34164  289.63 0854.86
2009/04/23 12:11:37.1    -132   -101    108    167    198 232.7  35.7  34162  289.62 0854.86
2009/04/23 12:11:37.2    -102    -20    112    105    153 258.6  52.1  34168  289.70 0854.86
2009/04/23 12:11:37.3     -81      9     61     82    102 277.0  40.1  34170  289.75 0854.86
2009/04/23 12:11:37.4    -105    -34     86    111    140 251.8  41.7  34170  289.74 0854.86
2009/04/23 12:11:37.5    -116    -42     87    124    151 250.1  38.6  34166  289.67 0854.86
2009/04/23 12:11:37.6     -93    -57     85    110    139 238.5  41.7  34164  289.65 0854.86
2009/04/23 12:11:37.7    -171    -48    110    178    209 254.1  35.0  34168  289.70 0854.86
2009/04/23 12:11:37.8    -150    -49    101    158    187 251.8  35.6  34168  289.72 0854.86
2009/04/23 12:11:37.9    -142    -89    113    168    202 238.0  37.0  34170  289.74 0854.86
2009/04/23 12:11:38.0    -142    -52     89    152    176 250.0  32.9  34168  289.72 0854.86
2009/04/23 12:11:38.1    -144    -63     77    158    175 246.5  27.8  34166  289.69 0854.86
2009/04/23 12:11:38.2    -146   -102     90    179    200 235.1  28.7  34174  289.80 0854.86
2009/04/23 12:11:38.3    -126    -78     91    149    174 238.0  34.8  34176  289.85 0854.86
2009/04/23 12:11:38.4    -116   -204    127    235    267 209.6  30.8  34152  289.44 0854.86
2009/04/23 12:11:38.5     -86   -214    135    231    267 201.9  33.1  34152  289.44 0854.86
2009/04/23 12:11:38.6    -183   -113    103    216    239 238.2  27.3  34174  289.82 0854.86
2009/04/23 12:11:38.7    -133   -160    117    209    239 219.6  31.6  34160  289.57 0854.86
2009/04/23 12:11:38.8     -86   -201    115    219    247 203.2  30.1  34150  289.39 0854.86
2009/04/23 12:11:38.9     -77   -240    108    253    275 197.8  24.6  34152  289.44 0854.86
2009/04/23 12:11:39.0    -146   -138     47    202    208 226.7  13.2  34168  289.72 0854.86
2009/04/23 12:11:39.1    -163   -133     79    211    225 230.7  21.3  34178  289.87 0854.86
2009/04/23 12:11:39.2     -43   -163    126    169    210 195.1  40.4  34154  289.48 0854.86
2009/04/23 12:11:39.3     -74   -226     88    238    253 198.3  21.0  34148  289.37 0854.86
2009/04/23 12:11:39.4     -84   -245     72    260    270 199.1  15.6  34148  289.37 0854.86
2009/04/23 12:11:39.5     -72   -256     23    267    269 195.8   5.0  34148  289.37 0854.86
2009/04/23 12:11:39.6     -95   -239     46    258    263 201.8  10.1  34148  289.37 0854.86
2009/04/23 12:11:39.7     -65   -261     -1    269    270 194.0  -0.3  34152  289.44 0854.86
2009/04/23 12:11:39.8      -5   -204    106    205    230 181.6  29.3  34148  289.38 0854.86
2009/04/23 12:11:39.9     -34   -216    110    219    245 189.1  28.5  34152  289.44 0854.86
2009/04/23 12:11:40.0     -66   -200    131    211    248 198.3  35.0  34152  289.44 0854.86
2009/04/23 12:11:40.1     -30   -301    140    303    333 185.8  26.5  34150  289.41 0854.86
2009/04/23 12:11:40.2     -55   -325    127    330    353 189.6  22.2  34150  289.40 0854.86
2009/04/23 12:11:40.3     -50   -297    158    302    340 189.7  30.0  34152  289.44 0854.86
2009/04/23 12:11:40.4      16   -316    123    317    340 177.1  22.3  34154  289.48 0854.86
2009/04/23 12:11:40.5      -4   -273    115    274    297 180.9  24.1  34156  289.49 0854.86
2009/04/23 12:11:40.6      86   -364    102    375    389 166.6  15.3  34150  289.40 0854.86
2009/04/23 12:11:40.7      73   -240    164    251    299 163.1  36.0  34156  289.51 0854.86
2009/04/23 12:11:40.8      58   -241    107    248    270 166.4  24.9  34156  289.49 0854.86
2009/04/23 12:11:40.9       0   -223     85    224    239 180.0  21.7  34152  289.44 0854.88
2009/04/23 12:11:41.0     -64   -238     88    247    262 195.1  20.2  34152  289.44 0854.88
2009/04/23 12:11:41.1     -62   -192     37    202    206 198.0  10.6  34150  289.41 0854.88
2009/04/23 12:11:41.2     -49   -207     59    213    222 193.4  15.6  34150  289.41 0854.88
2009/04/23 12:11:41.3     -59   -221     24    229    231 195.1   6.1  34150  289.40 0854.88
2009/04/23 12:11:41.4     -74   -218     21    231    233 198.9   5.4  34150  289.41 0854.88
2009/04/23 12:11:41.5     -83   -217     39    233    237 200.9   9.5  34152  289.44 0854.88
2009/04/23 12:11:41.6     -47   -230     54    235    242 191.8  13.1  34152  289.42 0854.88
2009/04/23 12:11:41.7     -45   -172     38    178    183 194.7  12.0  34152  289.43 0854.88
2009/04/23 12:11:41.8     -34   -170     31    174    177 191.5  10.1  34152  289.43 0854.88
2009/04/23 12:11:41.9     -28   -162     55    165    175 190.0  18.6  34152  289.43 0854.88
2009/04/23 12:11:42.0      -9   -212     25    213    215 182.7   6.9  34152  289.45 0854.88
2009/04/23 12:11:42.1     -18   -273     45    274    278 183.8   9.5  34150  289.41 0854.88
2009/04/23 12:11:42.2       0   -243      4    244    245 179.8   1.0  34152  289.44 0854.88
2009/04/23 12:11:42.3      18   -228     88    229    245 175.3  22.0  34154  289.47 0854.88
2009/04/23 12:11:42.4      40   -258    107    262    283 171.1  23.1  34154  289.46 0854.88
2009/04/23 12:11:42.5       0   -240    138    241    277 180.0  32.4  34156  289.49 0854.88
2009/04/23 12:11:42.6     -68   -304    158    312    349 192.7  28.9  34154  289.48 0854.88
2009/04/23 12:11:42.7     -48   -296    215    301    369 189.3  39.2  34158  289.54 0854.88
2009/04/23 12:11:42.8     -76   -319     99    329    344 193.5  16.8  34156  289.50 0854.88
2009/04/23 12:11:42.9     -39   -280    120    283    307 188.1  24.2  34158  289.54 0854.89
2009/04/23 12:11:43.0     -18   -237     96    238    256 184.4  23.1  34158  289.54 0854.89
2009/04/23 12:11:43.1      32   -225     79    228    242 171.9  19.2  34158  289.53 0854.89
2009/04/23 12:11:43.2     102   -266     26    286    288 159.0   5.2  34154  289.47 0854.89
2009/04/23 12:11:43.3      31   -275     74    277    287 173.5  15.0  34150  289.41 0854.89
2009/04/23 12:11:43.4      54   -316     70    321    329 170.2  12.4  34150  289.39 0854.89
2009/04/23 12:11:43.5      53   -243    110    249    272 167.5  25.2  34150  289.41 0854.89
2009/04/23 12:11:43.6      18   -309     87    310    322 176.5  15.7  34152  289.44 0854.89
2009/04/23 12:11:43.7       0   -255     44    256    260 180.0   9.9  34152  289.42 0854.89
2009/04/23 12:11:43.8     -22   -269     53    270    276 184.7  11.1  34152  289.42 0854.89
2009/04/23 12:11:43.9     -90   -278     71    293    302 197.9  13.7  34152  289.42 0854.89
2009/04/23 12:11:44.0     -79   -261     53    273    279 196.9  11.1  34158  289.53 0854.89
2009/04/23 12:11:44.1     -72   -242     30    253    255 196.7   6.9  34158  289.54 0854.89
2009/04/23 12:11:44.2     -57   -253     40    260    264 192.7   8.9  34156  289.51 0854.89
2009/04/23 12:11:44.3    -110   -287    109    308    326 201.0  20.1  34152  289.44 0854.89
2009/04/23 12:11:44.4     -60   -341    123    347    369 190.1  19.5  34152  289.43 0854.89
2009/04/23 12:11:44.5     -74   -390    132    398    420 190.8  18.4  34152  289.43 0854.89
2009/04/23 12:11:44.6     -80   -413     99    421    433 191.0  13.2  34152  289.44 0854.89
2009/04/23 12:11:44.7     -58   -339     43    345    348 189.8   7.2  34148  289.38 0854.89
2009/04/23 12:11:44.8      20   -268     87    269    283 175.5  17.9  34150  289.41 0854.89
2009/04/23 12:11:44.9     -24   -233    115    235    261 186.0  28.0  34150  289.39 0854.90
2009/04/23 12:11:45.0       1   -216     97    217    237 179.5  25.7  34150  289.41 0854.90
2009/04/23 12:11:45.1      22   -129     90    131    158 170.2  37.8  34152  289.45 0854.90
2009/04/23 12:11:45.2     120   -132     46    179    185 137.7  14.5  34152  289.45 0854.90
2009/04/23 12:11:45.3     169   -204    135    266    298 140.3  29.2  34152  289.42 0854.90
2009/04/23 12:11:45.4     180   -212    109    279    299 139.7  22.5  34152  289.44 0854.90
2009/04/23 12:11:45.5     112   -228    125    255    283 153.7  28.0  34148  289.37 0854.90
2009/04/23 12:11:45.6     149   -241    107    284    303 148.3  21.5  34150  289.39 0854.90
2009/04/23 12:11:45.7     168   -218     59    276    283 142.4  12.2  34152  289.44 0854.90
2009/04/23 12:11:45.8     142   -230     34    271    274 148.3   7.2  34150  289.41 0854.90
2009/04/23 12:11:45.9     121   -192     46    228    233 147.7  11.6  34150  289.40 0854.91
2009/04/23 12:11:46.0     156   -263    121    307    329 149.3  22.7  34150  289.41 0854.91
2009/04/23 12:11:46.1     170   -192    -24    257    259 138.5  -5.4  34152  289.42 0854.91
2009/04/23 12:11:46.2     132   -187    -58    229    237 144.8 -14.4  34152  289.42 0854.91
2009/04/23 12:11:46.3     162   -183     22    245    247 138.6   5.2  34152  289.42 0854.91
2009/04/23 12:11:46.4     181   -151     56    236    243 129.8  13.5  34152  289.42 0854.91
2009/04/23 12:11:46.5     283   -269     22    391    392 133.5   3.2  34150  289.40 0854.91
2009/04/23 12:11:46.6     301   -277      2    410    411 132.6   0.4  34152  289.43 0854.91
2009/04/23 12:11:46.7     219   -365      8    426    427 149.0   1.1  34150  289.39 0854.91
2009/04/23 12:11:46.8     175   -395    -47    433    436 156.1  -6.2  34154  289.48 0854.91
2009/04/23 12:11:46.9     186   -373     43    417    420 153.5   6.0  34152  289.43 0854.91
2009/04/23 12:11:47.0     183   -357    -36    402    404 152.8  -5.2  34146  289.33 0854.91
2009/04/23 12:11:47.1     169   -340    -34    380    382 153.5  -5.2  34152  289.43 0854.91
2009/04/23 12:11:47.2     149   -300    -70    336    344 153.5 -11.9  34152  289.45 0854.91
2009/04/23 12:11:47.3     124   -333    -42    356    359 159.6  -6.8  34152  289.42 0854.91
2009/04/23 12:11:47.4      71   -296    -96    305    320 166.4 -17.6  34152  289.42 0854.91
2009/04/23 12:11:47.5      36   -340    -54    342    347 173.9  -9.0  34150  289.40 0854.91
2009/04/23 12:11:47.6      59   -373    -21    378    379 170.9  -3.3  34152  289.45 0854.91
2009/04/23 12:11:47.7     193   -427     65    469    474 155.6   8.0  34148  289.37 0854.91
2009/04/23 12:11:47.8     146   -353    110    383    399 157.5  16.0  34142  289.26 0854.91
2009/04/23 12:11:47.9     182   -381    153    423    449 154.5  20.9  34144  289.31 0854.93
2009/04/23 12:11:48.0     139   -416    154    439    466 161.5  19.4  34146  289.34 0854.93
2009/04/23 12:11:48.1      97   -381    187    394    436 165.7  27.2  34144  289.29 0854.93
2009/04/23 12:11:48.2      91   -390    149    401    427 166.9  21.3  34148  289.36 0854.93
2009/04/23 12:11:48.3     117   -363    115    382    399 162.1  16.8  34154  289.47 0854.93
2009/04/23 12:11:48.4     204   -368     53    422    426 151.0   7.2  34152  289.44 0854.93
2009/04/23 12:11:48.5     248   -295      6    386    387 140.0   0.9  34148  289.38 0854.93
2009/04/23 12:11:48.6     195   -297     45    356    359 146.6   7.2  34152  289.43 0854.93
2009/04/23 12:11:48.7     129   -188    -29    229    231 145.5  -7.3  34154  289.46 0854.93
2009/04/23 12:11:48.8     149   -158    -69    218    228 136.8 -22.8  34152  289.43 0854.93
2009/04/23 12:11:48.9     163   -176    -85    240    255 137.2 -19.6  34152  289.44 0854.93
2009/04/23 12:11:49.0     156   -243    -80    289    300 147.3 -15.5  34150  289.39 0854.93
2009/04/23 12:11:49.1     197   -302    -35    361    363 146.9  -5.6  34148  289.37 0854.93
2009/04/23 12:11:49.2     210   -178     74    276    286 130.4  15.0  34150  289.41 0854.93
2009/04/23 12:11:49.3     214   -121     82    246    260 119.5  18.4  34148  289.37 0854.93
2009/04/23 12:11:49.4     247   -117     64    274    282 115.3  13.2  34148  289.36 0854.93
2009/04/23 12:11:49.5     176   -143      6    228    229 129.1   1.6  34150  289.40 0854.93
2009/04/23 12:11:49.6     148   -155     42    215    220 136.3  11.1  34148  289.38 0854.93
2009/04/23 12:11:49.7     179   -269     60    324    330 146.4  10.6  34152  289.42 0854.93
2009/04/23 12:11:49.8     180   -198      8    268    269 137.7   1.7  34152  289.44 0854.93
2009/04/23 12:11:49.9     136   -246     99    282    298 151.0  20.0  34144  289.31 0854.93
2009/04/23 12:11:50.0     140   -294    118    326    347 154.5  19.9  34148  289.38 0854.93
2009/04/23 12:11:50.1      84   -366    116    376    394 167.0  17.2  34144  289.30 0854.93
2009/04/23 12:11:50.2      20   -340    135    341    366 176.5  22.9  34152  289.42 0854.93
2009/04/23 12:11:50.3      81   -456    218    464    512 169.9  27.1  34160  289.57 0854.93
2009/04/23 12:11:50.4     -36   -387    273    389    475 185.4  38.5  34166  289.68 0854.93
2009/04/23 12:11:50.5    -164   -338    270    376    462 205.9  39.5  34160  289.56 0854.93
2009/04/23 12:11:50.6      41   -300    196    303    360 172.2  35.7  34156  289.52 0854.93
2009/04/23 12:11:50.7      73   -192    275    206    343 159.1  59.4  34160  289.56 0854.93
2009/04/23 12:11:50.8      -1   -103    173    104    201 181.0  66.2  34154  289.46 0854.93
2009/04/23 12:11:50.9       0   -271    270    272    383 179.9  50.0  34152  289.45 0854.93
2009/04/23 12:11:51.0      43   -311    213    315    380 172.0  37.4  34148  289.38 0854.93
2009/04/23 12:11:51.1     -16   -241    211    242    321 183.8  45.6  34148  289.36 0854.93
2009/04/23 12:11:51.2     -15   -202    159    203    257 184.5  42.0  34152  289.42 0854.93
2009/04/23 12:11:51.3      47   -123    108    132    170 159.1  43.7  34152  289.45 0854.93
2009/04/23 12:11:51.4      32    -84     47     91    102 159.1  29.3  34152  289.43 0854.93
2009/04/23 12:11:51.5       0    -84     -3     85     86 180.0  -2.2  34152  289.45 0854.93
2009/04/23 12:11:51.6     -77    -80    -34    112    117 224.1 -21.8  34152  289.43 0854.93
2009/04/23 12:11:51.7      -9    -55      1     56     57 189.8   1.8  34152  289.45 0854.93
2009/04/23 12:11:51.8       1    -71     66     72     97 179.1  47.9  34152  289.45 0854.93
2009/04/23 12:11:51.9       3   -111     45    112    120 178.2  23.0  34152  289.45 0854.93
2009/04/23 12:11:52.0     -15   -144     39    145    151 186.2  15.2  34154  289.48 0854.93
2009/04/23 12:11:52.1      58     21     64     62     89  70.0  50.1  34152  289.45 0854.93
2009/04/23 12:11:52.2      -1    -30    113     31    117 182.7  84.4  34158  289.53 0854.93
2009/04/23 12:11:52.3     -43    -33     74     55     92 232.2  59.4  34156  289.52 0854.93
2009/04/23 12:11:52.4     -54     29     41     62     74 298.9  35.6  34158  289.53 0854.93
2009/04/23 12:11:52.5     -30     55     17     63     66 331.1  15.2  34156  289.50 0854.93
2009/04/23 12:11:52.6      26     36     39     45     59  36.1  45.8  34152  289.45 0854.93
2009/04/23 12:11:52.7      77     67     54    103    116  48.7  29.8  34154  289.48 0854.93
2009/04/23 12:11:52.8      -1     73     66     74     99 359.1  46.9  34154  289.46 0854.93
2009/04/23 12:11:52.9     -35    105     33    111    116 341.3  16.8  34154  289.48 0854.93
2009/04/23 12:11:53.0     -53     99     38    113    120 331.5  18.9  34162  289.62 0854.93
2009/04/23 12:11:53.1     -54     57     43     79     89 316.7  30.8  34162  289.60 0854.93
2009/04/23 12:11:53.2    -124    -15    -15    125    127 263.0  -7.2  34170  289.75 0854.93
2009/04/23 12:11:53.3     -66     68    -57     95    110 315.9 -38.8  34168  289.72 0854.93
2009/04/23 12:11:53.4     -64     68    -27     94     97 316.8 -21.2  34166  289.69 0854.93
2009/04/23 12:11:53.5     -62     62      0     88     89 315.0  -0.3  34166  289.67 0854.93
2009/04/23 12:11:53.6     -54    -55     54     78     94 224.2  37.6  34162  289.62 0854.93
2009/04/23 12:11:53.7    -140    -83     31    164    167 239.3  10.8  34164  289.65 0854.93
2009/04/23 12:11:53.8    -117     34     14    122    123 286.4   6.9  34158  289.55 0854.93
2009/04/23 12:11:53.9    -122     62     33    138    143 297.0  13.7  34156  289.50 0854.94
2009/04/23 12:11:54.0    -161     76     -8    179    180 295.2  -2.8  34158  289.55 0854.94
2009/04/23 12:11:54.1    -193     84     17    211    212 293.5   4.9  34152  289.45 0854.94
2009/04/23 12:11:54.2    -200     86     -9    218    219 293.3  -2.6  34158  289.55 0854.94
2009/04/23 12:11:54.3    -164    -25     -6    166    167 261.2  -2.3  34162  289.62 0854.94
2009/04/23 12:11:54.4    -131     33     -9    136    137 284.2  -4.1  34160  289.58 0854.94
2009/04/23 12:11:54.5    -199     -8     69    200    212 267.6  19.2  34162  289.62 0854.94
2009/04/23 12:11:54.6    -231     32    -27    234    236 277.9  -6.7  34180  289.90 0854.94
2009/04/23 12:11:54.7    -188      9    -23    189    191 272.8  -7.2  34172  289.79 0854.94
2009/04/23 12:11:54.8    -131    -54    -12    142    143 247.4  -5.2  34166  289.69 0854.94
2009/04/23 12:11:54.9    -171    -33    -19    175    177 259.0  -6.2  34166  289.67 0854.94
2009/04/23 12:11:55.0    -382      9    -24    383    384 271.5  -3.7  34168  289.72 0854.94
2009/04/23 12:11:55.1    -339     88    -39    351    354 284.7  -6.5  34164  289.65 0854.94
2009/04/23 12:11:55.2    -399    -54     -1    403    404 262.2  -0.3  34172  289.77 0854.94
2009/04/23 12:11:55.3    -281    -12    -11    282    283 267.5  -2.2  34172  289.78 0854.94
2009/04/23 12:11:55.4    -177     68     37    190    194 291.3  11.1  34164  289.63 0854.94
2009/04/23 12:11:55.5    -251     35      7    254    255 278.0   1.8  34160  289.58 0854.94
2009/04/23 12:11:55.6    -398    -30    -15    400    401 265.7  -2.2  34162  289.59 0854.94
2009/04/23 12:11:55.7    -369    -21    -14    370    371 266.7  -2.2  34164  289.65 0854.94
2009/04/23 12:11:55.8    -393    -66    -28    399    400 260.4  -4.1  34166  289.67 0854.94
2009/04/23 12:11:55.9    -387    -53   -107    391    406 262.1 -15.4  34172  289.76 0854.95
2009/04/23 12:11:56.0    -301     21    -23    302    303 274.1  -4.4  34162  289.59 0854.95
2009/04/23 12:11:56.1    -138   -113     92    179    201 230.5  29.3  34166  289.67 0854.95
2009/04/23 12:11:56.2    -131     43     48    138    147 288.2  19.4  34164  289.63 0854.95
2009/04/23 12:11:56.3     -94    -67    -36    116    121 234.5 -22.3  34168  289.72 0854.95
2009/04/23 12:11:56.4    -258    -44    -93    262    279 260.3 -19.7  34162  289.59 0854.95
2009/04/23 12:11:56.5    -170    -24    -61    172    183 261.9 -19.6  34162  289.62 0854.95
2009/04/23 12:11:56.6    -241     69     16    251    252 286.0   3.8  34168  289.71 0854.95
2009/04/23 12:11:56.8    -298    -55    -81    304    315 259.4 -15.0  34160  289.58 0854.95
2009/04/23 12:11:56.8    -402    -94   -138    413    436 256.8 -18.6  34156  289.49 0854.95
2009/04/23 12:11:56.9    -440    -41    -98    443    454 264.7 -12.5  34166  289.68 0854.95
2009/04/23 12:11:57.0    -455   -109   -143    468    490 256.5 -17.0  34152  289.45 0854.95
2009/04/23 12:11:57.1    -422   -101   -155    434    462 256.5 -19.7  34154  289.48 0854.95
2009/04/23 12:11:57.2    -299    -39   -107    302    320 262.5 -24.6  34160  289.56 0854.95
2009/04/23 12:11:57.3    -438    -39    -89    440    449 264.8 -11.5  34162  289.60 0854.95
2009/04/23 12:11:57.4    -355    -83   -122    365    386 256.8 -18.6  34158  289.54 0854.95
2009/04/23 12:11:57.5    -371   -171   -146    409    435 245.3 -19.7  34156  289.49 0854.95
2009/04/23 12:11:57.6    -356   -196   -123    407    425 241.2 -21.8  34150  289.41 0854.95
2009/04/23 12:11:57.7    -320   -232   -140    396    420 234.1 -24.5  34152  289.44 0854.95
2009/04/23 12:11:57.8    -310   -241   -123    393    411 232.2 -22.4  34150  289.41 0854.95
2009/04/23 12:11:57.9    -329   -181   -113    376    392 241.1 -21.6  34150  289.40 0854.93
2009/04/23 12:11:58.0    -320   -124   -167    344    382 248.7 -32.1  34152  289.42 0854.93
2009/04/23 12:11:58.1    -303   -110   -111    323    342 249.9 -19.0  34166  289.69 0854.93
2009/04/23 12:11:58.2    -296    -74   -111    306    325 255.8 -25.1  34158  289.54 0854.93
2009/04/23 12:11:58.3    -227   -181    -84    291    302 231.4 -20.8  34170  289.73 0854.93
2009/04/23 12:11:58.4    -232   -110    -46    257    262 244.6 -10.3  34172  289.78 0854.93
2009/04/23 12:11:58.5    -233    -84    -64    248    257 250.1 -14.5  34166  289.68 0854.93
2009/04/23 12:11:58.6    -274    -55    -87    280    293 258.6 -22.1  34156  289.51 0854.93
2009/04/23 12:11:58.7    -284    -44   -128    288    315 261.2 -30.0  34150  289.41 0854.93
2009/04/23 12:11:58.8    -319   -110   -145    338    367 251.0 -29.2  34148  289.38 0854.93
2009/04/23 12:11:58.9    -320   -121   -158    343    377 249.3 -30.9  34150  289.40 0854.93
2009/04/23 12:11:59.0    -276   -134   -148    308    341 244.0 -31.7  34152  289.45 0854.93
2009/04/23 12:11:59.1    -339   -172   -170    381    417 243.1 -30.1  34158  289.55 0854.93
2009/04/23 12:11:59.2    -194    -37   -101    198    222 259.2 -33.7  34162  289.62 0854.93
2009/04/23 12:11:59.3    -311   -143   -114    343    361 245.2 -23.7  34162  289.60 0854.93
2009/04/23 12:11:59.4    -274   -165   -106    321    339 238.9 -18.3  34164  289.65 0854.93
2009/04/23 12:11:59.5    -305   -169    -96    349    363 241.0 -15.4  34156  289.50 0854.93
2009/04/23 12:11:59.6    -292   -175    -88    341    353 239.1 -14.5  34154  289.48 0854.93
2009/04/23 12:11:59.7    -296   -193   -165    354    390 236.9 -31.0  34154  289.47 0854.93
2009/04/23 12:11:59.8    -304   -182   -139    355    381 239.0 -27.1  34154  289.47 0854.93
2009/04/23 12:11:59.9    -287   -226   -146    366    394 231.8 -27.4  34154  289.48 0854.93
2009/04/23 12:12:00.0    -274   -202   -183    341    387 233.6 -35.1  34154  289.47 0854.93
2009/04/23 12:12:00.1    -316   -199   -186    374    417 237.8 -32.8  34150  289.41 0854.93
2009/04/23 12:12:00.2    -341   -185   -178    389    427 241.5 -30.7  34154  289.46 0854.93
2009/04/23 12:12:00.3    -267   -314   -184    413    452 220.3 -30.1  34180  289.90 0854.93
2009/04/23 12:12:00.4    -178   -301   -110    350    366 210.7 -22.6  34178  289.87 0854.93
2009/04/23 12:12:00.5    -198   -268   -104    334    349 216.4 -22.5  34172  289.79 0854.93
2009/04/23 12:12:00.6    -226   -306   -139    381    405 216.4 -25.3  34152  289.45 0854.93
2009/04/23 12:12:00.7    -250   -265   -155    365    396 223.3 -28.7  34150  289.40 0854.93
2009/04/23 12:12:00.8    -205   -270   -160    340    375 217.2 -31.5  34148  289.38 0854.93
2009/04/23 12:12:00.9    -376   -139   -124    401    420 249.7 -17.3  34160  289.58 0854.93
2009/04/23 12:12:01.0    -358   -205   -138    413    435 240.2 -23.6  34156  289.49 0854.93
2009/04/23 12:12:01.1    -380   -201   -127    431    449 242.1 -21.4  34150  289.41 0854.93
2009/04/23 12:12:01.2    -421   -193   -169    464    493 245.4 -25.3  34152  289.42 0854.93
2009/04/23 12:12:01.4    -442   -198   -167    485    514 245.9 -19.1  34150  289.40 0854.93
2009/04/23 12:12:01.4    -378   -232   -131    444    464 238.4 -16.5  34174  289.80 0854.93
2009/04/23 12:12:01.5    -385    -97   -191    397    440 255.8 -31.8  34148  289.38 0854.93
2009/04/23 12:12:01.6    -396   -154   -255    425    495 248.7 -38.2  34156  289.50 0854.93
2009/04/23 12:12:01.7    -422   -156   -164    450    478 249.7 -25.3  34160  289.57 0854.93
2009/04/23 12:12:01.8    -371   -111   -209    388    440 253.4 -35.0  34148  289.38 0854.93
2009/04/23 12:12:01.9    -430   -116   -172    446    478 254.9 -26.6  34152  289.44 0854.92
2009/04/23 12:12:02.0    -402   -175   -150    439    463 246.4 -23.7  34154  289.46 0854.92
2009/04/23 12:12:02.1    -341    -57   -153    346    378 260.5 -29.7  34150  289.40 0854.92
2009/04/23 12:12:02.2    -410      8   -176    411    447 271.2 -29.0  34156  289.51 0854.92
2009/04/23 12:12:02.3    -392   -107   -119    407    424 254.7 -21.1  34162  289.61 0854.92
2009/04/23 12:12:02.4    -440   -113   -158    455    481 255.5 -24.3  34152  289.45 0854.92
2009/04/23 12:12:02.5    -472   -162   -141    500    519 251.0 -20.4  34154  289.47 0854.92
2009/04/23 12:12:02.6    -421   -167   -159    454    481 248.3 -24.4  34148  289.37 0854.92
2009/04/23 12:12:02.7    -405   -137   -171    428    460 251.2 -27.4  34148  289.36 0854.92
2009/04/23 12:12:02.9    -468   -122   -153    484    508 255.3 -17.6  34152  289.42 0854.92
2009/04/23 12:12:03.0    -468   -113   -152    482    506 256.3 -17.5  34156  289.50 0854.92
2009/04/23 12:12:03.1    -420   -115   -125    436    454 254.7 -16.0  34156  289.49 0854.92
2009/04/23 12:12:03.2    -423   -130   -116    443    458 252.8 -14.7  34152  289.43 0854.92
2009/04/23 12:12:03.3    -404   -160    -55    435    439 248.3  -7.2  34168  289.70 0854.92
2009/04/23 12:12:03.4    -391   -224   -153    451    476 240.2 -23.8  34162  289.61 0854.92
2009/04/23 12:12:03.5    -231   -258   -171    347    386 221.8 -32.5  34172  289.77 0854.92
2009/04/23 12:12:03.6    -280   -206   -119    348    367 233.6 -23.7  34172  289.76 0854.92
2009/04/23 12:12:03.7    -208   -158    -98    262    279 232.7 -25.7  34156  289.51 0854.92
2009/04/23 12:12:03.8    -215   -146    -98    261    278 235.8 -25.7  34172  289.76 0854.92
2009/04/23 12:12:03.9    -210   -190     77    284    295 228.0  15.2  34184  289.97 0854.92
2009/04/23 12:12:04.0    -122   -179    -17    217    218 214.3  -4.6  34178  289.87 0854.93
2009/04/23 12:12:04.1    -135   -185    -12    230    231 216.1  -3.1  34176  289.84 0854.93
2009/04/23 12:12:04.2    -224   -116    -28    253    255 242.5  -6.5  34168  289.70 0854.93
2009/04/23 12:12:04.3    -282    -39    -47    285    289 262.0  -9.4  34154  289.47 0854.93
2009/04/23 12:12:04.4    -256    -48    -28    261    263 259.2  -6.2  34164  289.64 0854.93
2009/04/23 12:12:04.5    -225    -69    -84    236    251 252.9 -19.6  34168  289.70 0854.93
2009/04/23 12:12:04.6    -164    -88    -56    187    196 241.8 -16.6  34174  289.80 0854.93
2009/04/23 12:12:04.7    -141    -96    -60    171    181 235.8 -24.0  34174  289.80 0854.93
2009/04/23 12:12:04.8    -138    -38    -18    144    146 254.5  -7.3  34170  289.75 0854.93
2009/04/23 12:12:04.9    -124     33     11    129    130 285.1   5.0  34168  289.72 0854.93
2009/04/23 12:12:05.0    -120      0    -33    121    126 270.0 -15.5  34170  289.75 0854.93
2009/04/23 12:12:05.1    -176    -35    -26    180    182 258.5  -8.2  34174  289.82 0854.93
2009/04/23 12:12:05.2    -149    -40    -89    155    178 254.9 -36.8  34172  289.79 0854.93
2009/04/23 12:12:05.3    -181      0    -74    182    196 270.0 -27.8  34166  289.69 0854.93
2009/04/23 12:12:05.4    -200     47    -42    206    211 283.3 -11.6  34172  289.77 0854.93
2009/04/23 12:12:05.5    -238     44    -72    243    254 280.5 -16.6  34170  289.73 0854.93
2009/04/23 12:12:05.6    -256     77    -95    268    285 286.8 -19.7  34172  289.78 0854.93
2009/04/23 12:12:05.7    -222    -38    -79    226    240 260.1 -19.4  34172  289.76 0854.93
2009/04/23 12:12:05.8    -117    -28    -59    121    134 256.3 -32.2  34174  289.80 0854.93
2009/04/23 12:12:05.9     -65    -80    -51    104    115 219.2 -31.7  34174  289.80 0854.93
2009/04/23 12:12:06.0     -89   -152    -18    177    178 210.3  -6.0  34170  289.75 0854.94
2009/04/23 12:12:06.1    -119   -126    -43    174    180 223.4 -13.9  34170  289.75 0854.94
2009/04/23 12:12:06.2     -45   -135    -51    143    152 198.7 -19.7  34176  289.84 0854.94
2009/04/23 12:12:06.3     -30   -159    -12    162    163 190.9  -4.4  34174  289.80 0854.94
2009/04/23 12:12:06.4     -24   -173    -22    175    177 188.0  -7.3  34166  289.69 0854.94
2009/04/23 12:12:06.5       5   -160      8    161    162 178.2   2.9  34168  289.72 0854.94
2009/04/23 12:12:06.6      69    -73     52    101    113 136.8  28.7  34174  289.80 0854.94
2009/04/23 12:12:06.7      96    -85     20    129    131 131.3   9.0  34172  289.79 0854.94
2009/04/23 12:12:06.8     100    -42    -31    109    113 113.1 -20.7  34170  289.75 0854.94
2009/04/23 12:12:06.9     175    -54    -44    184    190 107.3 -13.4  34170  289.75 0854.94
2009/04/23 12:12:07.0     141      6    -18    142    144  87.4  -7.3  34170  289.75 0854.93
2009/04/23 12:12:07.1     128     -9    -44    129    137  94.3 -19.1  34172  289.77 0854.93
2009/04/23 12:12:07.2     168   -109    -55    201    209 122.9 -15.5  34166  289.67 0854.93
2009/04/23 12:12:07.3     169    -32    -29    173    176 101.0  -9.8  34160  289.58 0854.93
2009/04/23 12:12:07.4     192    -76     19    207    208 111.7   5.4  34164  289.63 0854.93
2009/04/23 12:12:07.5     177   -125     67    217    228 125.3  17.3  34162  289.62 0854.93
2009/04/23 12:12:07.6     140   -192     62    238    246 143.9  14.7  34160  289.56 0854.93
2009/04/23 12:12:07.7      97   -206     56    228    235 154.8  13.9  34158  289.54 0854.93
2009/04/23 12:12:07.8     236   -160    127    286    312 124.1  25.3  34160  289.56 0854.93
2009/04/23 12:12:07.9     211    -86     99    228    248 112.2  25.1  34162  289.59 0854.93
2009/04/23 12:12:08.0      97   -251    134    270    301 158.8  28.2  34158  289.53 0854.93
2009/04/23 12:12:08.1     198   -274     27    339    341 144.1   4.6  34158  289.55 0854.93
2009/04/23 12:12:08.2     223   -283    116    361    380 141.8  17.9  34158  289.55 0854.93
2009/04/23 12:12:08.3     120   -318    104    340    356 159.3  17.0  34162  289.62 0854.93
2009/04/23 12:12:08.4     154   -359    123    391    410 156.7  17.5  34160  289.58 0854.93
2009/04/23 12:12:08.5     119   -355    163    375    408 161.4  25.0  34158  289.54 0854.93
2009/04/23 12:12:08.6     159   -457    217    484    530 160.8  25.7  34146  289.35 0854.93
2009/04/23 12:12:08.7     201   -494    264    534    595 157.8  28.2  34156  289.51 0854.93
2009/04/23 12:12:08.8     207   -438    316    485    578 154.7  36.0  34158  289.55 0854.93
2009/04/23 12:12:08.9     165   -518    245    544    596 162.3  26.0  34160  289.56 0854.93
2009/04/23 12:12:09.0     227   -417    233    475    529 151.4  28.1  34156  289.52 0854.94
2009/04/23 12:12:09.1     187   -410    204    451    494 155.5  26.0  34150  289.40 0854.94
2009/04/23 12:12:09.2     138   -463    206    484    526 163.4  24.5  34156  289.52 0854.94
2009/04/23 12:12:09.3     108   -419    212    433    482 165.5  28.0  34156  289.52 0854.94
2009/04/23 12:12:09.4       0   -403    219    404    459 180.0  30.9  34158  289.53 0854.94
2009/04/23 12:12:09.5     -11   -386    143    387    412 181.7  21.3  34154  289.48 0854.94
2009/04/23 12:12:09.6     -22   -478    127    479    496 182.7  14.9  34160  289.56 0854.94
2009/04/23 12:12:09.7    -120   -473    146    489    511 194.3  16.7  34152  289.42 0854.94
2009/04/23 12:12:09.8    -145   -506    -68    527    532 196.0  -7.4  34156  289.51 0854.94
2009/04/23 12:12:09.9     -76   -591    -57    596    599 187.4  -5.5  34162  289.61 0854.94
2009/04/23 12:12:10.0      98   -481    -10    492    493 168.4  -1.3  34156  289.50 0854.94
2009/04/23 12:12:10.1       2   -589     21    590    591 179.8   2.1  34154  289.46 0854.94
2009/04/23 12:12:10.2     -24   -520     71    521    526 182.7   7.8  34158  289.55 0854.94
2009/04/23 12:12:10.3     -22   -584    -23    585    586 182.2  -2.3  34160  289.56 0854.94
2009/04/23 12:12:10.4     -77   -650    -84    655    661 186.8  -7.3  34158  289.53 0854.94
2009/04/23 12:12:10.5    -240   -567   -225    616    655 202.9 -25.3  34144  289.31 0854.94
2009/04/23 12:12:10.6    -172   -527   -246    555    607 198.1 -30.0  34148  289.37 0854.94
2009/04/23 12:12:10.7    -117   -496   -214    510    553 193.3 -28.6  34140  289.24 0854.94
2009/04/23 12:12:10.8    -157   -467   -177    493    523 198.6 -25.0  34144  289.30 0854.94
2009/04/23 12:12:10.9    -140   -461   -132    482    499 196.9 -20.0  34146  289.32 0854.94
2009/04/23 12:12:11.0     -67   -488   -132    493    511 187.9 -15.1  34152  289.45 0854.93
2009/04/23 12:12:11.1     -49   -434    -96    437    448 186.5 -12.4  34158  289.55 0854.93
2009/04/23 12:12:11.2      83   -391    -72    400    407 168.0 -10.3  34162  289.61 0854.93
2009/04/23 12:12:11.3       3   -352    -95    353    366 179.4 -15.1  34162  289.60 0854.93
2009/04/23 12:12:11.4     -47   -377    -49    381    385 187.2  -7.4  34166  289.67 0854.93
2009/04/23 12:12:11.5     -46   -430   -102    433    445 186.2 -13.3  34150  289.41 0854.93
2009/04/23 12:12:11.6     -33   -431   -146    433    458 184.5 -18.7  34150  289.41 0854.93
2009/04/23 12:12:11.7      40   -366    -99    369    383 173.7 -15.1  34152  289.45 0854.93
2009/04/23 12:12:11.8      68   -286    -22    295    296 166.6  -4.4  34154  289.47 0854.93
2009/04/23 12:12:11.9     198   -249      1    319    320 141.5   0.2  34144  289.31 0854.93
2009/04/23 12:12:12.0     212   -227     35    311    314 137.0   6.5  34142  289.27 0854.93
2009/04/23 12:12:12.1     143   -241     52    281    286 149.2  10.6  34144  289.31 0854.93
2009/04/23 12:12:12.2     127   -284     15    312    313 155.9   2.9  34148  289.37 0854.93
2009/04/23 12:12:12.3     104   -325     19    342    343 162.2   3.2  34148  289.38 0854.93
2009/04/23 12:12:12.4      88   -374     31    385    387 166.7   4.7  34146  289.32 0854.93
2009/04/23 12:12:12.5      -6   -433     28    434    435 180.9   3.8  34144  289.29 0854.93
2009/04/23 12:12:12.6       7   -380     -7    381    382 178.9  -1.2  34152  289.43 0854.93
2009/04/23 12:12:12.7     -73   -312    -49    321    325 193.3  -8.7  34154  289.46 0854.93
2009/04/23 12:12:12.8    -157   -260   -112    304    323 211.2 -25.5  34150  289.39 0854.93
2009/04/23 12:12:12.9    -152   -178   -133    235    270 220.5 -36.5  34150  289.41 0854.93
2009/04/23 12:12:13.0    -118   -240    -86    268    282 206.3 -17.9  34152  289.44 0854.91
2009/04/23 12:12:13.1    -249   -118    -45    276    280 244.7  -9.3  34150  289.41 0854.91
2009/04/23 12:12:13.2    -302   -210   -190    369    415 235.2 -33.7  34152  289.43 0854.91
2009/04/23 12:12:13.3    -303   -244   -145    390    416 231.2 -25.7  34144  289.29 0854.91
2009/04/23 12:12:13.4    -173   -176   -118    247    273 224.5 -31.7  34148  289.37 0854.91
2009/04/23 12:12:13.5       2   -361    -81    362    372 179.7 -12.6  34152  289.43 0854.91
2009/04/23 12:12:13.6      46   -435   -148    438    463 173.9 -18.7  34148  289.36 0854.91
2009/04/23 12:12:13.7      14   -345   -112    346    363 177.7 -23.0  34146  289.35 0854.91
2009/04/23 12:12:13.8     -25   -370   -180    371    412 184.0 -32.2  34148  289.38 0854.91
2009/04/23 12:12:13.9     -35   -249   -202    252    322 188.1 -47.4  34148  289.37 0854.91
2009/04/23 12:12:14.0     -57   -158   -104    169    198 199.8 -38.8  34140  289.23 0854.91
2009/04/23 12:12:14.1     -98   -352    -71    366    373 195.7 -11.0  34148  289.37 0854.91
2009/04/23 12:12:14.2    -103   -399   -136    413    435 194.5 -18.3  34146  289.33 0854.91
2009/04/23 12:12:14.3     -67   -308    -43    316    319 192.3  -7.9  34146  289.32 0854.91
2009/04/23 12:12:14.4     -26   -413     -2    414    415 183.6  -0.4  34148  289.36 0854.91
2009/04/23 12:12:14.5     -20   -458      1    459    460 182.6   0.2  34146  289.33 0854.91
2009/04/23 12:12:14.6    -119   -387     12    406    407 197.2   1.8  34148  289.36 0854.91
2009/04/23 12:12:14.7     -74   -367     19    375    376 191.5   2.9  34146  289.35 0854.91
2009/04/23 12:12:14.8     -31   -263     65    265    273 186.9  13.9  34146  289.34 0854.91
2009/04/23 12:12:14.9     -25   -275     97    277    293 185.3  20.0  34146  289.32 0854.91
2009/04/23 12:12:15.0     -20   -243     23    244    246 184.9   5.4  34148  289.37 0854.90
2009/04/23 12:12:15.1     -93   -269    -94    285    300 199.1 -23.8  34140  289.24 0854.90
2009/04/23 12:12:15.2    -121   -275   -112    301    321 203.7 -25.7  34144  289.31 0854.90
2009/04/23 12:12:15.3       4   -291    -81    292    304 179.1 -15.5  34142  289.27 0854.90
2009/04/23 12:12:15.4    -103   -201     58    227    235 207.2  14.3  34144  289.31 0854.90
2009/04/23 12:12:15.5     -12   -250     -1    251    252 182.9  -0.3  34148  289.37 0854.90
2009/04/23 12:12:15.6     -36   -337    -16    340    341 186.2  -2.8  34148  289.37 0854.90
2009/04/23 12:12:15.7      22   -214    -11    216    217 174.0  -3.1  34148  289.36 0854.90
2009/04/23 12:12:15.8     122   -208    -83    242    255 149.7 -23.8  34146  289.34 0854.90
2009/04/23 12:12:15.9     143   -217      3    260    261 146.6   0.7  34150  289.39 0854.90
2009/04/23 12:12:16.0     157   -255     -6    300    301 148.4  -1.2  34148  289.37 0854.90
2009/04/23 12:12:16.1     105   -189     68    217    228 151.0  17.4  34148  289.38 0854.90
2009/04/23 12:12:16.2     114   -186     99    219    240 148.4  26.2  34150  289.41 0854.90
2009/04/23 12:12:16.3      71   -128    124    147    192 151.0  44.3  34148  289.36 0854.90
2009/04/23 12:12:16.4      75    -20    123     78    145 105.1  64.7  34154  289.46 0854.90
2009/04/23 12:12:16.5      17    -54    113     57    126 161.7  71.0  34154  289.46 0854.90
2009/04/23 12:12:16.6      57   -142    178    154    235 158.2  54.8  34154  289.46 0854.90
2009/04/23 12:12:16.7      28    -60    190     67    201 154.5  80.2  34154  289.46 0854.90
2009/04/23 12:12:16.8     103    -65    125    123    175 122.4  49.9  34152  289.45 0854.90
2009/04/23 12:12:16.9     -16    -12    119     21    120 234.0  90.0  34154  289.46 0854.90
2009/04/23 12:12:17.0     -44     61    169     76    185 324.0  74.2  34158  289.53 0854.91
2009/04/23 12:12:17.1       4     37    114     38    120   6.2  81.0  34152  289.43 0854.91
2009/04/23 12:12:17.2     106    106    157    151    217  45.0  51.2  34152  289.45 0854.91
2009/04/23 12:12:17.3      66    180     99    193    216  20.3  29.3  34154  289.48 0854.91
2009/04/23 12:12:17.4      50    169    137    177    223  16.7  41.7  34156  289.52 0854.91
2009/04/23 12:12:17.5      83     53    139     99    170  57.5  61.1  34150  289.41 0854.91
2009/04/23 12:12:17.6     260    166    100    309    325  57.4  17.9  34148  289.37 0854.91
2009/04/23 12:12:17.7     276     56    135    282    312  78.5  27.4  34154  289.47 0854.91
2009/04/23 12:12:17.8     245    125    147    276    312  62.9  30.5  34154  289.46 0854.91
2009/04/23 12:12:17.9     174    197    202    264    332  41.4  41.3  34156  289.49 0854.91
2009/04/23 12:12:18.0     177    277     20    329    330  32.6   3.5  34152  289.45 0854.91
2009/04/23 12:12:18.1      72    180    -42    195    200  21.9 -12.4  34156  289.52 0854.91
2009/04/23 12:12:18.2      90    149   -114    175    208  31.2 -40.4  34154  289.48 0854.91
2009/04/23 12:12:18.3     113    113    -88    160    182  45.0 -35.8  34158  289.53 0854.91
2009/04/23 12:12:18.4     182    134    -45    227    232  53.6 -11.3  34156  289.52 0854.91
2009/04/23 12:12:18.5     203     92    105    223    246  65.6  27.1  34158  289.53 0854.91
2009/04/23 12:12:18.6     205     26    207    207    292  82.5  50.1  34154  289.47 0854.91
2009/04/23 12:12:18.7     264    -19    213    265    339  94.1  43.0  34160  289.58 0854.91
2009/04/23 12:12:18.8     103    -47    182    114    214 114.8  64.7  34156  289.50 0854.91
2009/04/23 12:12:18.9      31     48     75     58     94  32.6  58.5  34160  289.58 0854.91
2009/04/23 12:12:19.0      33    128    134    133    188  14.7  49.9  34162  289.60 0854.91
2009/04/23 12:12:19.1      11     58    100     60    116  11.5  65.7  34166  289.67 0854.91
2009/04/23 12:12:19.2     -21    100    -12    103    104 348.0  -6.7  34166  289.67 0854.91
2009/04/23 12:12:19.3      91    -18    -27     93     96 101.5 -21.7  34160  289.57 0854.91
2009/04/23 12:12:19.4    -180     -9    -27    181    184 267.0  -8.6  34150  289.41 0854.91
2009/04/23 12:12:19.5    -293     50    -82    298    309 279.7 -20.0  34150  289.41 0854.91
2009/04/23 12:12:19.6    -348     59   -108    354    370 279.7 -22.1  34152  289.42 0854.91
2009/04/23 12:12:19.7    -395    -49   -146    399    424 262.9 -25.4  34160  289.58 0854.91
2009/04/23 12:12:19.8    -424    -51   -177    428    463 263.0 -28.1  34146  289.34 0854.91
2009/04/23 12:12:19.9    -415    -62   -202    420    466 261.4 -31.7  34148  289.36 0854.91
2009/04/23 12:12:20.0    -402     37    -51    404    408 275.4  -7.3  34152  289.43 0854.91
2009/04/23 12:12:20.1    -420   -140   -111    443    457 251.5 -14.1  34154  289.48 0854.91
2009/04/23 12:12:20.2    -254   -200   -115    324    343 231.8 -24.7  34152  289.43 0854.91
2009/04/23 12:12:20.3    -204   -174    -20    269    270 229.5  -4.4  34156  289.49 0854.91
2009/04/23 12:12:20.4    -242   -116    -19    269    270 244.2  -4.1  34158  289.54 0854.91
2009/04/23 12:12:20.5    -256   -107   -111    278    299 247.2 -27.4  34150  289.41 0854.91
2009/04/23 12:12:20.6    -243   -110   -136    267    299 245.6 -33.6  34148  289.37 0854.91
2009/04/23 12:12:20.7    -246   -150   -127    289    315 238.7 -29.6  34150  289.39 0854.91
2009/04/23 12:12:20.8    -166   -106   -123    198    233 237.4 -39.9  34146  289.35 0854.91
2009/04/23 12:12:20.9    -157    -42   -158    163    227 254.7 -53.6  34156  289.50 0854.91
2009/04/23 12:12:21.0    -169    -35   -163    173    237 258.1 -52.6  34154  289.46 0854.92
2009/04/23 12:12:21.1    -158    -46   -165    165    233 253.8 -54.5  34154  289.48 0854.92
2009/04/23 12:12:21.2    -126    -42   -141    133    193 251.4 -56.0  34158  289.53 0854.92
2009/04/23 12:12:21.3     -36    -46   -137     59    149 217.8 -79.4  34158  289.53 0854.92
2009/04/23 12:12:21.4     -19    -44   -108     49    118 203.6 -78.9  34158  289.55 0854.92
2009/04/23 12:12:21.5     -38   -124   -146    130    195 197.4 -58.4  34154  289.48 0854.92
2009/04/23 12:12:21.6     -90   -171    -75    194    207 207.9 -26.4  34152  289.43 0854.92
2009/04/23 12:12:21.7       5   -135   -117    136    179 177.8 -49.5  34154  289.46 0854.92
2009/04/23 12:12:21.8      32   -182   -107    185    213 169.8 -37.5  34154  289.48 0854.92
2009/04/23 12:12:21.9      55   -158   -122    168    207 160.6 -44.1  34152  289.43 0854.92
2009/04/23 12:12:22.0      24   -173    -70    175    188 172.0 -27.4  34152  289.43 0854.92
2009/04/23 12:12:22.1     -56   -206    -69    214    224 195.4 -23.3  34154  289.48 0854.92
2009/04/23 12:12:22.2    -143   -193    -44    241    246 216.5 -10.5  34154  289.47 0854.92
2009/04/23 12:12:22.3    -174   -133    -28    220    222 232.5  -7.3  34162  289.60 0854.92
2009/04/23 12:12:22.4    -101   -157    -63    187    197 212.7 -23.6  34158  289.55 0854.92
2009/04/23 12:12:22.5    -112   -125    -27    168    171 221.9  -9.3  34158  289.53 0854.92
2009/04/23 12:12:22.6     -93   -104     -7    140    141 221.9  -3.1  34156  289.52 0854.92
2009/04/23 12:12:22.7     -94    -69     48    118    127 233.6  23.1  34162  289.60 0854.92
2009/04/23 12:12:22.8    -122    -22     59    125    138 259.4  27.1  34172  289.79 0854.92
2009/04/23 12:12:22.9     -89    -71     65    114    131 231.4  32.4  34174  289.80 0854.92
2009/04/23 12:12:23.0     -35    -97     46    104    113 200.0  25.7  34172  289.79 0854.92
2009/04/23 12:12:23.1     -20    -87     90     90    127 192.9  50.1  34172  289.77 0854.92
2009/04/23 12:12:23.2     -14    -84     39     86     94 189.8  25.7  34176  289.84 0854.92
2009/04/23 12:12:23.3      60   -108     29    124    128 151.0  13.1  34164  289.65 0854.92
2009/04/23 12:12:23.4     -30   -127      1    131    132 193.4   0.8  34160  289.57 0854.92
2009/04/23 12:12:23.5     -44   -169     -6    175    176 194.7  -2.2  34162  289.60 0854.92
2009/04/23 12:12:23.6      -8   -121    -14    122    123 184.0  -6.7  34162  289.60 0854.92
2009/04/23 12:12:23.7       5    -76     15     77     79 175.6  11.1  34160  289.57 0854.92
2009/04/23 12:12:23.8     -28   -105     40    109    116 195.1  20.4  34160  289.57 0854.92
2009/04/23 12:12:23.9      42   -196     56    201    209 167.7  15.6  34162  289.60 0854.92
2009/04/23 12:12:24.0      25   -214    121    216    247 173.3  31.6  34162  289.61 0854.92
2009/04/23 12:12:24.1      -8   -188     93    189    210 182.7  28.0  34160  289.58 0854.92
2009/04/23 12:12:24.2      10   -129    107    130    168 175.5  43.7  34162  289.60 0854.92
2009/04/23 12:12:24.3     -46    -95     63    106    123 206.3  33.5  34164  289.63 0854.92
2009/04/23 12:12:24.4      -5   -126     57    127    139 182.7  26.2  34166  289.67 0854.92
2009/04/23 12:12:24.5      55   -148     90    159    182 159.5  32.1  34166  289.67 0854.92
2009/04/23 12:12:24.6       0    -20     90     21     92 182.7  87.5  34166  289.69 0854.92
2009/04/23 12:12:24.7     -72    -87    163    114    198 219.6  61.8  34164  289.65 0854.92
2009/04/23 12:12:24.8     -32   -211    223    214    309 188.7  51.2  34164  289.64 0854.92
2009/04/23 12:12:24.9      -1    -72    161     73    176 180.9  74.0  34164  289.63 0854.92
2009/04/23 12:12:25.0      -5     65    123     66    139 355.6  69.3  34168  289.72 0854.90
2009/04/23 12:12:25.1     -32     -9    156     34    159 253.2  88.2  34168  289.70 0854.90
2009/04/23 12:12:25.2      -1      8    128      9    128 350.3  90.0  34166  289.69 0854.90
2009/04/23 12:12:25.3      19     28    135     34    139  34.3  85.9  34168  289.72 0854.90
2009/04/23 12:12:25.4       0     17    109     18    110 357.3  90.0  34168  289.72 0854.90
2009/04/23 12:12:25.5       0     25    140     26    142   0.9  90.0  34164  289.65 0854.90
2009/04/23 12:12:25.6      18     28    103     34    108  32.6  80.7  34166  289.67 0854.90
2009/04/23 12:12:25.7      43    -91    171    101    198 154.5  66.8  34162  289.62 0854.90
2009/04/23 12:12:25.8      34    -54    184     65    195 147.5  80.2  34172  289.79 0854.90
2009/04/23 12:12:25.9      23    -65    120     70    138 160.0  66.8  34160  289.58 0854.90
2009/04/23 12:12:26.0      98      7    146     99    176  85.7  62.8  34160  289.57 0854.90
2009/04/23 12:12:26.1     100     28    136    105    171  74.1  58.5  34162  289.60 0854.90
2009/04/23 12:12:26.2     170    -41     94    175    198 103.7  30.6  34158  289.55 0854.90
2009/04/23 12:12:26.3     190    -15     67    191    202  94.8  20.0  34158  289.55 0854.90
2009/04/23 12:12:26.5     161     11    121    162    202  86.1  40.4  34156  289.52 0854.90
2009/04/23 12:12:26.5     131     34    106    136    172  75.4  42.2  34162  289.60 0854.90
2009/04/23 12:12:26.6      -1     15     41     16     44 355.5  79.2  34164  289.65 0854.90
2009/04/23 12:12:26.7     -71     48     50     86     99 304.2  32.9  34170  289.74 0854.90
2009/04/23 12:12:26.8       9     41    109     42    116  12.5  78.6  34170  289.74 0854.90
2009/04/23 12:12:26.9      48    -48     77     68    102 134.9  53.7  34182  289.96 0854.90
2009/04/23 12:12:27.0      56     21     68     60     90  69.2  54.3  34202  290.28 0854.91
2009/04/23 12:12:27.1      59     31     71     67     97  62.0  51.2  34216  290.52 0854.91
2009/04/23 12:12:27.2     115     49     57    125    137  66.9  26.2  34258  291.23 0854.91
2009/04/23 12:12:27.3     178     56     15    187    188  72.5   4.9  34248  291.08 0854.91
2009/04/23 12:12:27.4     245     41     25    249    251  80.3   5.9  34270  291.43 0854.91
2009/04/23 12:12:27.5     301      4     31    302    304  89.2   6.0  34256  291.19 0854.91
2009/04/23 12:12:27.6     332    -30    105    334    351  95.2  17.5  34312  292.14 0854.91
2009/04/23 12:12:27.7     197    192    169    276    323  45.8  34.4  34250  291.09 0854.91
2009/04/23 12:12:27.9     132    215    101    253    272  31.6  23.0  34216  290.53 0854.91
2009/04/23 12:12:28.0     222    200    224    300    374  48.0  40.4  34268  291.42 0854.91
2009/04/23 12:12:28.0     440     75    -33    447    449  80.3  -4.2  34248  291.06 0854.93
2009/04/23 12:12:28.2     234    270     63    358    364  41.0  10.1  34244  291.00 0854.93
2009/04/23 12:12:28.2     275    187    105    333    350  55.7  17.5  34226  290.69 0854.93
2009/04/23 12:12:28.3     267    269     44    380    383  44.8   6.7  34242  290.96 0854.93
2009/04/23 12:12:28.4     126    289     97    316    331  23.6  17.1  34226  290.68 0854.93
2009/04/23 12:12:28.6     140    285    110    318    337  26.3  19.2  34254  291.18 0854.93
2009/04/23 12:12:28.7     167    213    148    271    308  38.1  31.3  34294  291.84 0854.93
2009/04/23 12:12:28.8     230    226    117    323    343  45.6  20.8  34280  291.62 0854.93
2009/04/23 12:12:28.9      97    288    157    305    343  18.7  29.3  34262  291.32 0854.93
2009/04/23 12:12:28.9      93    292    102    307    324  17.8  18.5  34204  290.32 0854.93
2009/04/23 12:12:29.1     273    220     64    351    357  51.1  10.3  34262  291.30 0854.93
2009/04/23 12:12:29.2     238    206    -41    316    319  49.1  -7.5  34300  291.94 0854.93
2009/04/23 12:12:29.3     159    201    -63    257    265  38.3 -13.9  34290  291.78 0854.93
2009/04/23 12:12:29.4     199    158    -45    255    260  51.6 -10.1  34292  291.82 0854.93
2009/04/23 12:12:29.5     177     74    -66    193    205  67.2 -18.9  34282  291.64 0854.93
2009/04/23 12:12:29.6     202     47    -93    208    227  76.7 -30.1  34270  291.43 0854.93
2009/04/23 12:12:29.7     150     34    -60    154    165  77.2 -26.7  34244  290.99 0854.93
2009/04/23 12:12:29.8     182     13    -82    183    200  85.7 -30.1  34228  290.72 0854.93
2009/04/23 12:12:29.9     189     26    -80    191    207  81.9 -28.5  34220  290.58 0854.93
2009/04/23 12:12:30.0     126     36    -74    132    151  74.1 -35.8  34224  290.65 0854.93
2009/04/23 12:12:30.1     119    -36    -18    125    127 106.8  -8.2  34226  290.70 0854.94
2009/04/23 12:12:30.2     201    -57     52    210    217 105.9  13.9  34242  290.96 0854.94
2009/04/23 12:12:30.3     220    -96     54    241    248 113.7  12.6  34240  290.92 0854.94
2009/04/23 12:12:30.4     218    -75     36    231    234 109.1   8.9  34240  290.93 0854.94
2009/04/23 12:12:30.5     219    -21      4    221    222  95.7   1.2  34234  290.82 0854.94
2009/04/23 12:12:30.6     346     59     13    352    353  80.2   2.2  34262  291.32 0854.94
2009/04/23 12:12:30.7     348    -17     68    349    356  92.9  11.1  34244  291.00 0854.94
2009/04/23 12:12:30.8     211    -29     76    214    228  98.0  19.6  34238  290.89 0854.94
2009/04/23 12:12:30.9     180    -75     72    196    208 112.6  21.0  34234  290.84 0854.94
2009/04/23 12:12:31.0     169    -80     51    188    195 115.4  15.2  34242  290.96 0854.94
2009/04/23 12:12:31.1     152     -3    112    153    189  91.3  39.7  34252  291.13 0854.94
2009/04/23 12:12:31.2     193   -122    125    229    260 122.4  31.3  34186  290.02 0854.94
2009/04/23 12:12:31.3     204   -133     93    244    261 123.1  22.0  34196  290.19 0854.94
2009/04/23 12:12:31.4     224   -136     70    263    273 121.3  15.0  34224  290.66 0854.94
2009/04/23 12:12:31.5      94   -148     74    176    190 147.4  24.1  34230  290.77 0854.94
2009/04/23 12:12:31.6     171    -70    145    185    235 112.4  42.2  34208  290.40 0854.94
2009/04/23 12:12:31.7     205    -83    119    222    251 112.0  30.3  34188  290.05 0854.94
2009/04/23 12:12:31.8     203    -93    107    224    248 114.6  27.3  34210  290.42 0854.94
2009/04/23 12:12:31.9     190    -87     62    209    219 114.6  16.6  34214  290.50 0854.94
2009/04/23 12:12:32.0     159   -112     72    195    207 125.1  21.0  34212  290.47 0854.94
2009/04/23 12:12:32.1     241   -120     27    270    272 116.6   5.9  34210  290.41 0854.92
2009/04/23 12:12:32.2     229    -87     39    246    250 110.8   9.0  34198  290.20 0854.92
2009/04/23 12:12:32.3     231    -88     23    248    250 110.8   5.4  34198  290.22 0854.92
2009/04/23 12:12:32.4     204    -73     16    217    218 109.9   4.4  34202  290.30 0854.92
2009/04/23 12:12:32.5     171    -92     41    195    200 118.4  12.0  34210  290.41 0854.92
2009/04/23 12:12:32.6     134    -97     63    166    177 125.9  21.7  34216  290.52 0854.92
2009/04/23 12:12:32.7     105    -87     47    137    146 129.6  19.2  34230  290.77 0854.92
2009/04/23 12:12:32.8     103   -110     91    151    176 136.8  34.0  34226  290.70 0854.92
2009/04/23 12:12:32.9      98   -154     80    183    199 147.4  25.1  34228  290.74 0854.92
2009/04/23 12:12:33.0     135   -151    115    203    233 138.1  32.1  34238  290.89 0854.92
2009/04/23 12:12:33.1     160   -130     98    207    229 129.1  27.2  34232  290.81 0854.92
2009/04/23 12:12:33.2     154   -119     94    195    216 127.8  27.3  34226  290.69 0854.92
2009/04/23 12:12:33.3     161    -93    116    187    220 120.0  35.0  34206  290.36 0854.92
2009/04/23 12:12:33.4      85    -83    135    120    180 134.4  53.7  34210  290.43 0854.92
2009/04/23 12:12:33.5      91   -150    108    176    206 148.6  34.8  34236  290.87 0854.92
2009/04/23 12:12:33.6      42   -129    134    136    190 161.7  50.0  34198  290.21 0854.92
2009/04/23 12:12:33.7      51    -73    124     90    153 145.3  60.5  34184  289.99 0854.92
2009/04/23 12:12:33.8      10     16     68     19     70  32.6  84.9  34192  290.13 0854.92
2009/04/23 12:12:33.9      96    -21    134     99    166 102.4  59.8  34202  290.28 0854.92
2009/04/23 12:12:34.0     102    -37    138    109    175 110.0  57.7  34200  290.26 0854.92
2009/04/23 12:12:34.1      95    -32    113    101    151 108.6  53.7  34196  290.18 0854.93
2009/04/23 12:12:34.2      46    -46    107     66    125 134.9  65.1  34178  289.87 0854.93
2009/04/23 12:12:34.3      -1   -135    129    136    187 180.8  48.2  34170  289.74 0854.93
2009/04/23 12:12:34.4      30   -177     98    180    204 170.2  31.3  34174  289.82 0854.93
2009/04/23 12:12:34.5       0   -195    123    196    231 179.8  35.5  34172  289.77 0854.93
2009/04/23 12:12:34.6      38   -189    139    193    237 168.5  39.5  34176  289.84 0854.93
2009/04/23 12:12:34.7      65   -171    128    184    224 159.1  38.0  34182  289.96 0854.93
2009/04/23 12:12:34.8      66   -150    122    165    205 156.2  39.9  34176  289.84 0854.93
2009/04/23 12:12:34.9      88   -188     84    208    224 154.8  23.0  34184  289.97 0854.93
2009/04/23 12:12:35.0      55   -254     90    260    275 167.7  20.0  34176  289.83 0854.93
2009/04/23 12:12:35.1      14   -263     82    264    277 176.9  17.3  34186  290.02 0854.93
2009/04/23 12:12:35.2      -4   -278     67    279    287 180.9  13.5  34204  290.31 0854.93
2009/04/23 12:12:35.3     -46   -271     94    276    292 189.8  18.9  34190  290.09 0854.93
2009/04/23 12:12:35.4     -74   -292     98    302    318 194.3  18.1  34198  290.20 0854.93
2009/04/23 12:12:35.5     -17   -272    110    273    294 183.6  23.0  34180  289.90 0854.93
2009/04/23 12:12:35.6     -21   -306    140    307    337 184.0  26.3  34172  289.76 0854.93
2009/04/23 12:12:35.7     -38   -317    101    320    336 186.9  17.5  34172  289.77 0854.93
2009/04/23 12:12:35.8     112   -280    127    302    327 158.2  24.1  34182  289.95 0854.93
2009/04/23 12:12:35.9     140   -321    148    351    380 156.5  24.2  34176  289.84 0854.93
2009/04/23 12:12:36.0     128   -377    138    399    423 161.2  19.1  34176  289.85 0854.93
2009/04/23 12:12:36.1     123   -425    120    443    460 163.9  15.1  34176  289.85 0854.95
2009/04/23 12:12:36.2     106   -343     49    360    364 162.8   7.8  34178  289.87 0854.95
2009/04/23 12:12:36.3     142   -309     71    341    349 155.3  11.8  34180  289.91 0854.95
2009/04/23 12:12:36.4     142   -317     70    348    355 155.8  11.4  34182  289.93 0854.95
2009/04/23 12:12:36.5     178   -284    -19    336    337 148.0  -3.3  34178  289.86 0854.95
2009/04/23 12:12:36.6     149   -314    -46    348    352 154.5  -7.6  34176  289.84 0854.95
2009/04/23 12:12:36.7     132   -264     20    296    297 153.5   3.9  34182  289.95 0854.95
2009/04/23 12:12:36.8     225   -271     35    353    355 140.4   5.7  34176  289.84 0854.95
2009/04/23 12:12:36.9      96   -339     58    353    358 164.2   9.5  34168  289.71 0854.95
2009/04/23 12:12:37.0     114   -414    109    430    444 164.5  14.3  34164  289.63 0854.95
2009/04/23 12:12:37.1     -18   -391    184    392    433 182.7  27.1  34160  289.58 0854.95
2009/04/23 12:12:37.2     190   -284    141    342    369 146.2  23.7  34162  289.60 0854.95
2009/04/23 12:12:37.3     151   -320    -95    355    368 154.7 -15.0  34168  289.71 0854.95
2009/04/23 12:12:37.4      76   -304    -50    314    319 165.8  -9.1  34172  289.78 0854.95
2009/04/23 12:12:37.5      74   -275    -15    286    287 164.8  -3.1  34174  289.80 0854.95
2009/04/23 12:12:37.6     161   -346    -50    382    386 155.1  -7.6  34168  289.72 0854.95
2009/04/23 12:12:37.7     169   -436     39    468    470 158.7   4.9  34162  289.61 0854.95
2009/04/23 12:12:37.8     137   -473     14    493    494 163.9   1.7  34160  289.57 0854.95
2009/04/23 12:12:37.9      96   -388     65    400    406 166.0   9.3  34162  289.60 0854.95
2009/04/23 12:12:38.0     102   -383     55    397    402 165.0   8.0  34156  289.52 0854.95
2009/04/23 12:12:38.1     189   -398     77    441    448 154.6  10.0  34158  289.55 0854.95
2009/04/23 12:12:38.2     142   -400     91    425    435 160.4  12.2  34158  289.55 0854.95
2009/04/23 12:12:38.3     106   -401     84    415    424 165.1  11.4  34154  289.48 0854.95
2009/04/23 12:12:38.4      60   -356    140    362    388 170.4  22.3  34160  289.57 0854.95
2009/04/23 12:12:38.5      69   -409    127    415    435 170.4  17.0  34158  289.55 0854.95
2009/04/23 12:12:38.6      16   -430    135    431    452 177.8  17.4  34160  289.56 0854.95
2009/04/23 12:12:38.7      42   -393    140    396    420 173.8  20.1  34162  289.61 0854.95
2009/04/23 12:12:38.8     104   -361     -8    376    377 163.9  -1.3  34162  289.59 0854.95
2009/04/23 12:12:38.9      30   -402      0    404    405 175.7   0.1  34158  289.55 0854.95
2009/04/23 12:12:39.0      69   -490    -74    496    502 171.9  -8.6  34158  289.54 0854.95
2009/04/23 12:12:39.1     128   -585    -39    600    602 167.6  -3.8  34150  289.41 0854.95
2009/04/23 12:12:39.2     175   -542    -44    570    572 162.1  -4.5  34160  289.56 0854.95
2009/04/23 12:12:39.3     298   -479     -2    565    566 148.1  -0.3  34154  289.48 0854.95
2009/04/23 12:12:39.4     291   -388    -17    485    486 143.1  -2.1  34156  289.52 0854.95
2009/04/23 12:12:39.5     232   -368    -51    436    439 147.8  -6.7  34160  289.56 0854.95
2009/04/23 12:12:39.6     109   -398   -111    413    428 164.6 -15.1  34160  289.58 0854.95
2009/04/23 12:12:39.7     112   -390    -51    406    410 163.9  -7.2  34162  289.60 0854.95
2009/04/23 12:12:39.8     113   -346    -77    365    374 161.9 -11.9  34162  289.59 0854.95
2009/04/23 12:12:39.9     137   -366    -78    392    400 159.4 -11.3  34156  289.50 0854.95
2009/04/23 12:12:40.0     127   -382    -56    403    408 161.5  -8.0  34158  289.53 0854.95
2009/04/23 12:12:40.1     118   -374    -21    393    394 162.5  -3.1  34156  289.52 0854.95
2009/04/23 12:12:40.2     128   -357     -8    380    381 160.2  -1.3  34158  289.55 0854.95
2009/04/23 12:12:40.3     137   -400    -99    423    435 161.1 -13.3  34160  289.58 0854.95
2009/04/23 12:12:40.4     163   -460   -104    489    501 160.4 -12.0  34160  289.57 0854.95
2009/04/23 12:12:40.5     163   -480   -121    508    523 161.2 -13.4  34156  289.50 0854.95
2009/04/23 12:12:40.6     177   -506   -107    537    548 160.7 -11.3  34152  289.43 0854.95
2009/04/23 12:12:40.7     185   -457    -66    494    499 157.9  -7.7  34152  289.42 0854.95
2009/04/23 12:12:40.8     138   -434   -122    456    473 162.3 -15.1  34152  289.44 0854.95
2009/04/23 12:12:40.9      83   -374   -114    384    401 167.4 -16.5  34152  289.42 0854.95
2009/04/23 12:12:41.0      85   -375    -98    385    398 167.2 -14.3  34150  289.40 0854.95
2009/04/23 12:12:41.1      95   -322   -107    336    352 163.5 -22.8  34152  289.45 0854.95
2009/04/23 12:12:41.2     139   -354    -66    381    387 158.5  -9.9  34148  289.38 0854.95
2009/04/23 12:12:41.3     155   -333    -92    368    380 155.1 -14.1  34152  289.42 0854.95
2009/04/23 12:12:41.4     137   -350    -98    376    389 158.6 -14.6  34150  289.40 0854.95
2009/04/23 12:12:41.5      78   -372   -135    381    405 168.1 -19.6  34154  289.47 0854.95
2009/04/23 12:12:41.6     122   -368    -77    388    396 161.6 -11.3  34138  289.20 0854.95
2009/04/23 12:12:41.7     168   -374    -60    410    415 155.8  -8.4  34154  289.46 0854.95
2009/04/23 12:12:41.8     261   -361   -131    446    464 144.2 -21.2  34148  289.36 0854.95
2009/04/23 12:12:41.9     165   -494   -108    521    533 161.5 -11.8  34148  289.38 0854.95
2009/04/23 12:12:42.0      72   -511    -34    517    519 171.9  -3.8  34158  289.54 0854.96
2009/04/23 12:12:42.1      33   -435    185    437    474 175.6  24.3  34156  289.51 0854.96
2009/04/23 12:12:42.2     120   -443    179    460    493 164.8  22.4  34162  289.61 0854.96
2009/04/23 12:12:42.3     194   -428    131    471    489 155.6  15.6  34152  289.44 0854.96
2009/04/23 12:12:42.4      45   -114     19    123    125 158.2   8.9  34146  289.35 0854.96
2009/04/23 12:12:42.5      88   -231    -75    248    259 159.1 -21.7  34154  289.46 0854.96
2009/04/23 12:12:42.6      20    -94    149     97    177 168.0  64.1  34162  289.62 0854.96
2009/04/23 12:12:42.7      23    -59    -49     64     80 158.1 -45.6  34164  289.65 0854.96
2009/04/23 12:12:42.8      97   -135    -52    167    174 144.4 -22.8  34156  289.50 0854.96
2009/04/23 12:12:42.9     111    -90    -30    144    148 129.1 -11.9  34156  289.50 0854.96
2009/04/23 12:12:43.0      10    -72    -84     73    111 172.0 -59.2  34150  289.41 0854.96
2009/04/23 12:12:43.1     -58    -27    -72     65     97 244.8 -57.7  34152  289.43 0854.96
2009/04/23 12:12:43.2     -71   -153     31    169    172 204.9  10.6  34154  289.48 0854.96
2009/04/23 12:12:43.3     -56   -167     69    177    189 198.5  22.3  34148  289.38 0854.96
2009/04/23 12:12:43.4      -8   -285     55    286    292 181.8  11.0  34152  289.42 0854.96
2009/04/23 12:12:43.5      -2   -313     85    314    326 180.5  15.3  34148  289.36 0854.96
2009/04/23 12:12:43.6      68   -399    110    405    420 170.3  15.2  34152  289.43 0854.96
2009/04/23 12:12:43.7     130   -404     28    425    426 162.1   3.9  34144  289.29 0854.96
2009/04/23 12:12:43.8      97   -381     57    394    399 165.7   8.2  34156  289.52 0854.96
2009/04/23 12:12:43.9      28   -262    161    264    309 173.8  34.4  34150  289.41 0854.96
2009/04/23 12:12:44.0     -77   -321    137    331    358 193.5  23.7  34156  289.50 0854.96
2009/04/23 12:12:44.1      25   -408    140    409    433 176.4  18.9  34156  289.49 0854.97
2009/04/23 12:12:44.2     186   -360    167    406    439 152.6  23.5  34156  289.51 0854.97
2009/04/23 12:12:44.3     164   -264    221    311    381 148.1  39.1  34162  289.59 0854.97
2009/04/23 12:12:44.4     144   -250    222    289    364 150.1  41.5  34162  289.59 0854.97
2009/04/23 12:12:44.5     118   -321    215    343    404 159.8  35.2  34158  289.55 0854.97
2009/04/23 12:12:44.6      55   -214    164    222    276 165.5  40.1  34162  289.59 0854.97
2009/04/23 12:12:44.7     -42   -266    121    270    295 189.1  25.7  34164  289.64 0854.97
2009/04/23 12:12:44.8      11   -141    172    142    223 175.5  56.4  34168  289.70 0854.97
2009/04/23 12:12:44.9    -108   -147     95    183    206 216.5  29.3  34164  289.65 0854.97
2009/04/23 12:12:45.0    -185    -74     92    200    220 248.2  26.6  34164  289.65 0854.97
2009/04/23 12:12:45.1    -176    -92    129    199    237 242.2  36.3  34162  289.60 0854.97
2009/04/23 12:12:45.2      16      5     70     17     72  71.8  86.9  34168  289.72 0854.97
2009/04/23 12:12:45.3     138    -46    112    146    184 108.6  41.4  34162  289.60 0854.97
2009/04/23 12:12:45.4      57   -106     95    121    153 151.9  42.2  34160  289.57 0854.97
2009/04/23 12:12:45.5     -88   -186     82    206    221 205.3  23.0  34164  289.63 0854.97
2009/04/23 12:12:45.6     -60   -182    123    192    228 198.3  35.6  34166  289.67 0854.97
2009/04/23 12:12:45.8      19   -199    152    200    251 174.4  40.9  34160  289.58 0854.97
2009/04/23 12:12:45.8      17   -137    128    139    188 172.9  47.7  34176  289.85 0854.97
2009/04/23 12:12:45.9     -92   -173    139    197    241 208.1  38.6  34174  289.80 0854.97
2009/04/23 12:12:46.0      12   -308    193    309    364 177.8  35.1  34162  289.59 0854.97
2009/04/23 12:12:46.1      63   -418    258    423    495 171.4  34.3  34160  289.57 0854.97
2009/04/23 12:12:46.2     123   -428    222    446    498 163.9  28.2  34166  289.67 0854.97
2009/04/23 12:12:46.3    -140   -356     19    383    384 201.6   2.9  34172  289.77 0854.97
2009/04/23 12:12:46.4    -209   -209    -75    296    306 225.0 -14.3  34172  289.78 0854.97
2009/04/23 12:12:46.5    -266    -95   -123    283    308 250.3 -29.5  34174  289.81 0854.97
2009/04/23 12:12:46.6    -235    -55   -122    242    271 256.7 -32.9  34178  289.88 0854.97
2009/04/23 12:12:46.7    -295    -51   -104    300    317 260.1 -24.3  34178  289.86 0854.97
2009/04/23 12:12:46.9    -206    -82    -68    223    233 248.2 -22.1  34180  289.92 0854.97
2009/04/23 12:12:47.0    -148    -20    -53    150    160 262.0 -19.7  34182  289.94 0854.97
2009/04/23 12:12:47.0    -115    -47    -25    125    128 247.8 -11.3  34182  289.96 0854.97
2009/04/23 12:12:47.1    -133    -36     66    138    152 254.9  27.2  34182  289.96 0854.97
2009/04/23 12:12:47.2    -116    -17     51    118    128 261.6  25.1  34188  290.06 0854.97
2009/04/23 12:12:47.3    -126     54     87    138    163 293.1  35.5  34192  290.13 0854.97
2009/04/23 12:12:47.4    -187     33     54    190    198 280.1  16.0  34182  289.94 0854.97
2009/04/23 12:12:47.5    -182    -41     36    187    191 257.2  11.0  34186  290.01 0854.97
2009/04/23 12:12:47.6    -153     31     -7    157    158 281.5  -2.8  34184  289.99 0854.97
2009/04/23 12:12:47.7    -109     80    -24    136    139 306.4 -10.3  34204  290.33 0854.97
2009/04/23 12:12:47.8     -82     79    -27    115    119 314.0 -13.4  34226  290.70 0854.97
2009/04/23 12:12:47.9     -72     72    -22    103    106 314.9 -12.4  34218  290.57 0854.97
2009/04/23 12:12:48.0     -47     45    -24     66     70 314.1 -24.4  34222  290.62 0854.97
2009/04/23 12:12:48.1      -6     33    -21     34     39 348.4 -38.8  34220  290.58 0854.97
2009/04/23 12:12:48.2      16     13     -4     22     23  50.5 -11.3  34220  290.60 0854.97
2009/04/23 12:12:48.3      61     12     12     63     65  78.5  11.1  34220  290.58 0854.97
2009/04/23 12:12:48.4      72     20     70     75    102  74.1  48.0  34208  290.38 0854.97
2009/04/23 12:12:48.5     127     -5    115    128    172  92.6  46.6  34194  290.16 0854.97
2009/04/23 12:12:48.6      84    -66     90    108    140 128.2  43.8  34192  290.13 0854.97
2009/04/23 12:12:48.7     177    -16    -60    178    187  95.2 -23.3  34200  290.26 0854.97
2009/04/23 12:12:48.8     105    -76    -37    130    135 126.0 -21.2  34198  290.21 0854.97
2009/04/23 12:12:48.9     189    -81    -56    206    214 113.3 -15.2  34200  290.26 0854.97
2009/04/23 12:12:49.0     199    -74     20    213    215 110.6   5.4  34222  290.64 0854.97
2009/04/23 12:12:49.1     180    -25     34    182    186  97.9  10.6  34228  290.72 0854.98
2009/04/23 12:12:49.2     118     -8     75    119    140  94.3  35.5  34222  290.62 0854.98
2009/04/23 12:12:49.3     128      9     62    129    143  85.6  27.2  34214  290.48 0854.98
2009/04/23 12:12:49.4     181     59     23    191    193  71.8   6.9  34180  289.91 0854.98
2009/04/23 12:12:49.5     168     12     38    169    174  85.9  12.9  34180  289.92 0854.98
2009/04/23 12:12:49.6     199    159    109    255    277  51.4  24.6  34214  290.49 0854.98
2009/04/23 12:12:49.7     222    136    158    261    305  58.4  34.2  34248  291.07 0854.98
2009/04/23 12:12:49.8     146    146    201    207    288  44.9  49.4  34262  291.29 0854.98
2009/04/23 12:12:49.9     152    118    240    193    307  52.2  57.1  34248  291.07 0854.98
2009/04/23 12:12:50.0     177    129    129    220    255  53.8  33.1  34222  290.63 0854.98
2009/04/23 12:12:50.1     167    127    124    211    244  52.7  33.4  34214  290.48 0854.98
2009/04/23 12:12:50.2      39     51    134     65    148  37.8  72.8  34222  290.64 0854.98
2009/04/23 12:12:50.3      32     57     91     66    112  29.0  60.5  34210  290.43 0854.98
2009/04/23 12:12:50.4     -23     68     77     73    106 340.8  51.6  34204  290.31 0854.98
2009/04/23 12:12:50.5     -41    -10     80     43     90 255.8  69.8  34206  290.36 0854.98
2009/04/23 12:12:50.6      33    -19     79     39     88 120.7  71.9  34206  290.35 0854.98
2009/04/23 12:12:50.7     -36     37     94     52    107 315.9  68.8  34206  290.36 0854.98
2009/04/23 12:12:50.8     -66    -36    136     76    155 241.2  68.8  34204  290.31 0854.98
2009/04/23 12:12:50.9    -121     40    173    128    215 288.4  60.0  34202  290.28 0854.98
2009/04/23 12:12:51.0     -52    -22    165     57    174 246.5  81.0  34196  290.18 0854.98
2009/04/23 12:12:51.1     -85     25    181     89    201 286.8  72.1  34198  290.23 0854.98
2009/04/23 12:12:51.2    -113     32    115    118    164 285.9  49.8  34192  290.13 0854.98
2009/04/23 12:12:51.3       8     43    121     44    128  11.6  79.2  34198  290.21 0854.98
2009/04/23 12:12:51.4     -97      7      2     98     99 274.4   1.2  34192  290.11 0854.98
2009/04/23 12:12:51.5     -54    -31    129     63    143 240.2  72.4  34194  290.16 0854.98
2009/04/23 12:12:51.6    -171    -16    202    172    265 264.5  55.4  34194  290.14 0854.98
2009/04/23 12:12:51.7    -175    -44    148    181    233 255.8  43.7  34188  290.04 0854.98
2009/04/23 12:12:51.8    -200    -38    158    204    258 259.2  41.7  34176  289.83 0854.98
2009/04/23 12:12:51.9    -168     44    104    174    202 284.8  33.7  34184  289.99 0854.98
2009/04/23 12:12:52.0      73   -108     75    131    150 145.7  32.4  34186  290.01 0854.98
2009/04/23 12:12:52.1    -174   -109    108    206    232 237.8  30.1  34192  290.13 0854.98
2009/04/23 12:12:52.2    -105    -90     32    139    143 229.6  13.1  34190  290.09 0854.98
2009/04/23 12:12:52.3    -134    -10     99    135    167 265.7  39.9  34200  290.26 0854.98
2009/04/23 12:12:52.4     -66   -200    105    211    235 198.3  28.2  34194  290.14 0854.98
2009/04/23 12:12:52.5       9   -160     52    161    170 176.6  18.1  34194  290.14 0854.98
2009/04/23 12:12:52.6     -28   -119     60    123    136 193.4  27.3  34194  290.16 0854.98
2009/04/23 12:12:52.7     -11   -148    117    149    189 184.5  42.4  34186  290.02 0854.98
2009/04/23 12:12:52.8     -55   -135    102    146    178 202.3  38.6  34190  290.08 0854.98
2009/04/23 12:12:52.9       5    -82    121     83    146 176.4  62.1  34184  289.99 0854.98
2009/04/23 12:12:53.0     -12    122     57    123    135 354.2  27.1  34192  290.11 0854.98
2009/04/23 12:12:53.1      26     90    159     94    184  16.5  66.8  34192  290.11 0854.99
2009/04/23 12:12:53.2     -41    135    103    142    175 343.0  39.3  34188  290.04 0854.99
2009/04/23 12:12:53.3     -68    104     87    125    152 327.0  38.0  34190  290.09 0854.99
2009/04/23 12:12:53.4       6     81     54     82     98   4.5  36.5  34190  290.08 0854.99
2009/04/23 12:12:53.5     -41    -86    112     96    147 205.9  55.4  34186  290.02 0854.99
2009/04/23 12:12:53.6     -49   -137    111    146    183 200.0  40.9  34192  290.13 0854.99
2009/04/23 12:12:53.7    -285   -123    148    311    344 246.7  27.2  34210  290.42 0854.99
2009/04/23 12:12:53.8    -298   -129     59    325    331 246.5  10.4  34198  290.20 0854.99
2009/04/23 12:12:53.9    -324    -65    -32    331    333 258.6  -5.6  34198  290.21 0854.99
2009/04/23 12:12:54.0    -333    -97    -29    347    349 253.7  -4.8  34200  290.25 0854.99
2009/04/23 12:12:54.1    -375   -115   -114    393    410 252.9 -16.2  34178  289.88 0854.99
2009/04/23 12:12:54.2    -398   -122    -74    417    424 252.9 -10.1  34190  290.09 0854.99
2009/04/23 12:12:54.3    -392   -157    -76    423    430 248.2 -10.3  34186  290.00 0854.99
2009/04/23 12:12:54.4    -276    -51   -139    281    313 259.4 -32.8  34176  289.85 0854.99
2009/04/23 12:12:54.5    -263   -134   -106    296    315 243.0 -19.8  34190  290.07 0854.99
2009/04/23 12:12:54.6    -157   -146   -145    215    259 227.1 -41.8  34184  289.98 0854.99
2009/04/23 12:12:54.7    -227    -46    -74    232    243 258.5 -22.9  34192  290.12 0854.99
2009/04/23 12:12:54.8    -234     -3    -67    235    245 269.2 -16.0  34194  290.15 0854.99
2009/04/23 12:12:55.0    -637    -43    -19    639    640 266.1  -1.7  34182  289.96 0854.99
2009/04/23 12:12:55.0    -499    200   -131    538    554 291.9 -13.7  34174  289.80 0854.99
2009/04/23 12:12:55.2    -464    106   -180    476    508 282.9 -26.1  34158  289.54 0854.99
2009/04/23 12:12:55.2    -420     31   -181    422    459 274.3 -29.3  34156  289.51 0854.99
2009/04/23 12:12:55.3    -343     57   -150    348    378 279.5 -29.3  34156  289.52 0854.99
2009/04/23 12:12:55.5    -352     20   -138    353    379 273.4 -26.9  34158  289.55 0854.99
2009/04/23 12:12:55.6    -382     40   -173    385    422 276.1 -30.4  34156  289.49 0854.99
2009/04/23 12:12:55.6    -363     54   -115    368    385 278.5 -22.4  34154  289.47 0854.99
2009/04/23 12:12:55.8    -374     52   -131    378    400 278.0 -24.3  34156  289.52 0854.99
2009/04/23 12:12:55.9    -319     34   -147    321    353 276.2 -30.8  34158  289.54 0854.99
2009/04/23 12:12:56.0    -303     14   -197    304    362 272.8 -40.3  34156  289.50 0854.99
2009/04/23 12:12:56.1    -294    -13   -146    295    329 267.4 -32.6  34164  289.64 0854.99
2009/04/23 12:12:56.2    -268    -92   -131    284    312 251.0 -30.9  34178  289.88 0854.99
2009/04/23 12:12:56.3    -262     11   -140    263    297 272.5 -34.7  34174  289.80 0854.99
2009/04/23 12:12:56.4    -226    -84    -71    242    252 249.6 -21.2  34178  289.88 0854.99
2009/04/23 12:12:56.5    -290    -58    -99    296    312 258.6 -23.6  34172  289.78 0854.99
2009/04/23 12:12:56.6    -299     22   -129    300    326 274.4 -29.2  34156  289.51 0854.99
2009/04/23 12:12:56.7    -233     50   -173    239    295 282.2 -43.9  34166  289.68 0854.99
2009/04/23 12:12:56.8    -102    -17   -153    104    185 260.3 -67.2  34166  289.67 0854.99
2009/04/23 12:12:56.9     -88     -8   -126     89    154 264.3 -65.9  34170  289.74 0854.99
2009/04/23 12:12:57.0      -7    -36    -83     37     90 191.6 -78.4  34166  289.69 0854.99
2009/04/23 12:12:57.1     -70    -26    -70     75    102 249.2 -52.4  34170  289.74 0854.99
2009/04/23 12:12:57.2    -102    -84    -97    133    164 230.5 -44.1  34174  289.80 0854.99
2009/04/23 12:12:57.3     -75    -35    -38     83     91 244.7 -31.0  34174  289.80 0854.99
2009/04/23 12:12:57.4     -22    -40    -28     46     53 209.0 -39.9  34172  289.79 0854.99
2009/04/23 12:12:57.5       2     36    -38     37     53   4.4 -53.5  34172  289.77 0854.99
2009/04/23 12:12:57.6      25     64    -46     69     82  21.8 -41.4  34174  289.80 0854.99
2009/04/23 12:12:57.7      51    -93    -92    107    141 151.0 -49.8  34178  289.87 0854.99
2009/04/23 12:12:57.8      76   -105    -83    130    154 144.0 -39.9  34178  289.87 0854.99
2009/04/23 12:12:57.9     110   -126    -48    168    174 139.0 -21.2  34170  289.74 0854.99
2009/04/23 12:12:58.0     104   -147    -14    181    182 144.6  -4.6  34174  289.82 0854.99
2009/04/23 12:12:58.1      53    -67    -76     86    114 141.3 -50.8  34176  289.84 0854.99
2009/04/23 12:12:58.2      60    -63    -70     88    112 136.3 -48.1  34178  289.87 0854.99
2009/04/23 12:12:58.3      96    -69   -108    119    160 125.5 -51.3  34174  289.82 0854.99
2009/04/23 12:12:58.4      63   -235    -16    244    245 164.9  -3.9  34174  289.81 0854.99
2009/04/23 12:12:58.5      74   -223    -24    236    238 161.5  -6.0  34174  289.80 0854.99
2009/04/23 12:12:58.6      74   -222    -81    235    249 161.5 -19.1  34178  289.86 0854.99
2009/04/23 12:12:58.7      58   -266     38    273    276 167.6   8.0  34170  289.73 0854.99
2009/04/23 12:12:58.8      50   -287      2    292    293 170.0   0.5  34164  289.64 0854.99
2009/04/23 12:12:58.9     -20   -285    -15    286    287 184.0  -3.2  34166  289.66 0854.99
2009/04/23 12:12:59.0      19   -252    -55    253    260 175.6 -12.4  34164  289.63 0854.99
2009/04/23 12:12:59.1      63   -229    -21    238    239 164.4  -5.2  34168  289.70 0854.99
2009/04/23 12:12:59.2      69   -234     12    245    246 163.5   2.9  34168  289.71 0854.99
2009/04/23 12:12:59.3      47   -212     16    218    219 167.3   4.4  34170  289.74 0854.99
2009/04/23 12:12:59.4      51   -249     64    255    263 168.4  14.2  34168  289.70 0854.99
2009/04/23 12:12:59.5      49   -254    -23    259    261 168.9  -5.2  34168  289.70 0854.99
2009/04/23 12:12:59.6       8   -236     -1    237    238 178.0  -0.3  34166  289.68 0854.99
2009/04/23 12:12:59.7      14   -316     -1    317    318 177.3  -0.2  34166  289.66 0854.99
2009/04/23 12:12:59.8     -45   -289    -46    293    297 188.9  -9.0  34166  289.68 0854.99
2009/04/23 12:12:59.9       3   -224    -57    225    233 179.0 -14.3  34168  289.70 0854.99
2009/04/23 12:13:00.0      39   -163    -50    168    175 166.4 -22.1  34170  289.74 0854.99
2009/04/23 12:13:00.1      77   -157    -55    176    184 153.7 -22.5  34166  289.69 0854.99
2009/04/23 12:13:00.2      83   -141    -49    164    171 149.5 -21.5  34170  289.74 0854.99
2009/04/23 12:13:00.3      48   -198    -81    204    219 166.2 -27.4  34170  289.74 0854.99
2009/04/23 12:13:00.4     -15   -192    -61    193    203 184.7 -17.5  34174  289.80 0854.99
2009/04/23 12:13:00.5      13   -140    -81    141    162 174.7 -37.1  34170  289.74 0854.99
2009/04/23 12:13:00.6     -25   -203    -53    205    212 187.1 -14.7  34166  289.69 0854.99
2009/04/23 12:13:00.7      15   -179    -79    180    196 175.1 -29.5  34170  289.74 0854.99
2009/04/23 12:13:00.8      12   -107    -34    108    114 173.3 -17.6  34170  289.75 0854.99
2009/04/23 12:13:00.9      79   -109    -66    135    150 144.0 -31.7  34168  289.72 0854.99
2009/04/23 12:13:01.0      49    -82    -27     96     99 149.3 -20.2  34168  289.72 0854.99
2009/04/23 12:13:01.1      24    -90    -74     94    119 164.9 -46.6  34170  289.74 0854.99
2009/04/23 12:13:01.2      48   -105    -52    116    127 155.5 -30.1  34170  289.75 0854.99
2009/04/23 12:13:01.3      74   -125      8    146    147 149.2   3.3  34168  289.70 0854.99
2009/04/23 12:13:01.4      12   -154      7    155    156 175.5   2.8  34170  289.74 0854.99
2009/04/23 12:13:01.5      -1   -134     -5    135    136 180.8  -2.2  34172  289.77 0854.99
2009/04/23 12:13:01.6      31   -101      5    106    107 162.6   2.9  34170  289.74 0854.99
2009/04/23 12:13:01.7      -3   -121    -13    122    123 181.8  -6.2  34170  289.74 0854.99
2009/04/23 12:13:01.8      -1   -114     -6    115    116 180.9  -3.1  34170  289.75 0854.99
2009/04/23 12:13:01.9      -2   -128    -39    129    135 180.9 -17.0  34170  289.74 0854.99
2009/04/23 12:13:02.0      -2   -106    -30    107    112 181.4 -16.0  34168  289.70 0854.99
2009/04/23 12:13:02.1     -15    -97    -28     99    104 188.9 -16.0  34168  289.72 0854.99
2009/04/23 12:13:02.2       8    -81    -29     82     88 174.2 -19.7  34168  289.70 0854.99
2009/04/23 12:13:02.3       0    -96    -23     97    100 180.4 -13.4  34170  289.74 0854.99
2009/04/23 12:13:02.4      12    -94      9     95     96 172.4   5.9  34172  289.77 0854.99
2009/04/23 12:13:02.5       3    -96      7     97     98 177.8   4.4  34168  289.72 0854.99
2009/04/23 12:13:02.6      16    -91      4     93     94 169.8   2.9  34168  289.72 0854.99
2009/04/23 12:13:02.7      20    -83     -3     86     87 166.2  -2.2  34168  289.72 0854.99
2009/04/23 12:13:02.8      47   -100     -4    111    112 154.7  -2.2  34168  289.72 0854.99
2009/04/23 12:13:02.9      68   -114     36    133    138 149.3  15.3  34174  289.82 0854.99
2009/04/23 12:13:03.0      52    -95     30    109    114 151.0  15.3  34178  289.87 0854.99
2009/04/23 12:13:03.1      40   -101     40    109    116 158.2  20.4  34178  289.89 0854.99
2009/04/23 12:13:03.2      36    -81     29     89     94 155.9  18.4  34180  289.91 0854.99
2009/04/23 12:13:03.3      49    -60     35     78     85 140.3  25.7  34186  290.02 0854.99
2009/04/23 12:13:03.4      18    -99      4    101    102 169.3   2.3  34172  289.79 0854.99
2009/04/23 12:13:03.5     -15   -111     -4    113    114 188.0  -2.2  34172  289.77 0854.99
2009/04/23 12:13:03.6     -18    -85      5     87     88 192.0   3.8  34172  289.79 0854.99
2009/04/23 12:13:03.7      10    -90     -5     91     92 173.3  -3.1  34170  289.75 0854.99
2009/04/23 12:13:03.8      32    -68     33     76     82 154.5  24.6  34170  289.75 0854.99
2009/04/23 12:13:03.9       4    -42     33     43     54 173.8  41.7  34174  289.80 0854.99
2009/04/23 12:13:04.0       8    -30     35     32     47 164.9  52.2  34178  289.89 0854.99
2009/04/23 12:13:04.1      11    -11     50     16     52 135.0  80.7  34188  290.04 0854.99
2009/04/23 12:13:04.2      44      1     60     45     75  88.3  60.5  34192  290.11 0854.99
2009/04/23 12:13:04.3      66    -10     72     67     98  98.8  52.2  34192  290.11 0854.99
2009/04/23 12:13:04.4      55    -23     61     60     85 112.6  49.7  34196  290.18 0854.99
2009/04/23 12:13:04.5      57    -19     62     61     86 108.4  49.7  34198  290.21 0854.99
2009/04/23 12:13:04.6      55    -22     26     60     65 111.7  25.1  34200  290.26 0854.99
2009/04/23 12:13:04.7      41    -28     38     50     62 124.2  41.7  34198  290.23 0854.99
2009/04/23 12:13:04.8       0    -56     60     57     82 179.1  51.2  34194  290.16 0854.99
2009/04/23 12:13:04.9      -5    -86     89     87    124 183.6  50.1  34202  290.30 0854.99
2009/04/23 12:13:05.0      -7   -123    129    124    178 183.6  51.2  34192  290.13 0854.99
2009/04/23 12:13:05.1       0   -142    120    143    186 180.0  44.1  34180  289.92 0854.99
2009/04/23 12:13:05.2     -27   -190     75    192    206 188.2  22.5  34174  289.80 0854.99
2009/04/23 12:13:05.3      10   -140     96    141    170 175.5  37.6  34172  289.79 0854.98
2009/04/23 12:13:05.4      -4   -174     90    175    196 181.6  29.3  34172  289.79 0854.98
2009/04/23 12:13:05.5      13   -161    102    162    191 175.3  35.5  34172  289.77 0854.98
2009/04/23 12:13:05.6      14   -173    104    174    202 175.1  33.7  34170  289.75 0854.98
2009/04/23 12:13:05.7      14   -179    117    180    214 175.5  35.6  34172  289.79 0854.98
2009/04/23 12:13:05.8      -9   -206    106    207    232 182.6  29.3  34172  289.77 0854.98
2009/04/23 12:13:05.9      -4   -180    104    181    208 181.4  32.7  34172  289.77 0854.98
2009/04/23 12:13:06.0     -26   -197     83    199    215 187.6  23.8  34174  289.82 0854.98
2009/04/23 12:13:06.1     -35   -210     73    213    226 189.6  18.9  34174  289.82 0854.98
2009/04/23 12:13:06.2     -43   -178     69    184    196 193.6  21.5  34174  289.80 0854.98
2009/04/23 12:13:06.3     -32   -174     55    177    186 190.5  17.3  34176  289.84 0854.98
2009/04/23 12:13:06.4     -10   -165     43    166    172 183.6  14.5  34172  289.79 0854.98
2009/04/23 12:13:06.5     -13   -179     55    180    189 184.2  17.1  34176  289.84 0854.98
2009/04/23 12:13:06.6      -8   -176     29    177    180 182.7   9.5  34172  289.79 0854.98
2009/04/23 12:13:06.7       0   -169     62    170    180 179.8  21.0  34176  289.84 0854.98
2009/04/23 12:13:06.8      59   -183     57    193    202 162.2  16.6  34174  289.80 0854.98
2009/04/23 12:13:06.9      60   -246     69    254    264 166.2  15.3  34172  289.76 0854.98
2009/04/23 12:13:07.0      25   -277    101    279    297 174.7  19.9  34174  289.81 0854.98
2009/04/23 12:13:07.1      31   -275    110    277    298 173.5  23.0  34174  289.80 0854.98
2009/04/23 12:13:07.2      -8   -270     87    271    285 181.8  17.9  34166  289.68 0854.98
2009/04/23 12:13:07.3      44   -224     72    229    241 168.7  17.4  34176  289.83 0854.98
2009/04/23 12:13:07.4      24   -229     44    231    236 173.8  10.8  34172  289.76 0854.98
2009/04/23 12:13:07.5       7   -323     86    324    336 178.6  15.0  34182  289.93 0854.98
2009/04/23 12:13:07.6      76   -242     89    254    270 162.4  19.4  34170  289.75 0854.98
2009/04/23 12:13:07.7      41   -278     63    282    289 171.5  12.6  34176  289.83 0854.98
2009/04/23 12:13:07.8      66   -303     54    311    316 167.6   9.9  34178  289.88 0854.98
2009/04/23 12:13:07.9      17   -227     76    228    241 175.5  18.4  34182  289.93 0854.98
2009/04/23 12:13:08.0      45   -291     69    295    303 171.1  13.2  34170  289.75 0854.98
2009/04/23 12:13:08.1      10   -241     86    242    256 177.4  20.4  34170  289.73 0854.98
2009/04/23 12:13:08.2      -7   -197     69    198    210 182.2  19.4  34168  289.72 0854.98
2009/04/23 12:13:08.3     -47   -192     63    198    208 193.8  17.7  34172  289.77 0854.98
2009/04/23 12:13:08.4     -12   -206     46    207    213 183.4  12.6  34174  289.80 0854.98
2009/04/23 12:13:08.5      30   -192      0    195    196 170.9   0.2  34172  289.77 0854.98
2009/04/23 12:13:08.6      49   -141    -24    150    153 160.8  -9.4  34172  289.77 0854.98
2009/04/23 12:13:08.7      -1   -125    -21    126    128 180.5  -9.8  34172  289.79 0854.98
2009/04/23 12:13:08.8      -2   -100    -20    101    104 181.4 -11.3  34170  289.75 0854.98
2009/04/23 12:13:08.9     -39    -99     13    107    108 201.8   7.1  34170  289.74 0854.98
2009/04/23 12:13:09.0     -60    -50      4     79     80 230.5   2.9  34172  289.79 0854.98
2009/04/23 12:13:09.1     -68    -15     -9     70     71 257.6  -7.3  34176  289.85 0854.98
2009/04/23 12:13:09.2     -69     -5     -2     70     71 265.7  -2.2  34178  289.87 0854.98
2009/04/23 12:13:09.3     -75     11     -3     76     77 278.8  -2.2  34176  289.84 0854.97
2009/04/23 12:13:09.4     -58     30     14     66     68 297.1  12.2  34176  289.85 0854.97
2009/04/23 12:13:09.5     -60     58     11     84     85 314.0   8.0  34176  289.84 0854.97
2009/04/23 12:13:09.6     -42     59    -20     73     76 324.8 -15.5  34174  289.82 0854.97
2009/04/23 12:13:09.7     -33     33    -13     47     49 315.0 -15.5  34176  289.84 0854.97
2009/04/23 12:13:09.8     -12     38     27     41     49 341.5  36.5  34174  289.82 0854.97
2009/04/23 12:13:09.9     -34     64     30     73     78 331.9  23.0  34176  289.85 0854.97
2009/04/23 12:13:10.0     -41     64     54     77     94 327.4  38.0  34172  289.79 0854.97
2009/04/23 12:13:10.1     -28     69     53     75     91 338.1  39.1  34174  289.80 0854.97
2009/04/23 12:13:10.2     -27     80     33     85     91 341.3  22.0  34174  289.80 0854.97
2009/04/23 12:13:10.3     -14     99     53    101    114 352.0  30.3  34172  289.79 0854.97
2009/04/23 12:13:10.4     -56    103      9    118    119 331.5   4.4  34172  289.77 0854.97
2009/04/23 12:13:10.5     -98     75    -51    124    134 307.8 -27.5  34174  289.80 0854.97
2009/04/23 12:13:10.6       8     74     22     75     79   6.2  16.8  34170  289.74 0854.97
2009/04/23 12:13:10.7     -29     95     54    100    113 343.1  31.3  34174  289.80 0854.97
2009/04/23 12:13:10.8    -135    160     10    210    211 319.9   2.9  34172  289.77 0854.97
2009/04/23 12:13:10.9    -129    202     -6    241    242 327.4  -1.6  34178  289.88 0854.97
2009/04/23 12:13:11.0    -173    261     -8    314    315 326.4  -1.6  34168  289.71 0854.97
2009/04/23 12:13:11.1     -30    265      8    267    268 353.5   1.8  34176  289.83 0854.97
2009/04/23 12:13:11.2      76    229     28    242    244  18.5   6.7  34174  289.80 0854.97
2009/04/23 12:13:11.3      27    339     97    341    355   4.7  15.9  34172  289.77 0854.97
2009/04/23 12:13:11.4       3    358    186    359    404   0.5  29.4  34168  289.71 0854.97
2009/04/23 12:13:11.5    -122    385    139    404    428 342.4  19.1  34184  289.99 0854.97
2009/04/23 12:13:11.6     -64    354     93    360    372 349.7  14.6  34194  290.16 0854.97
2009/04/23 12:13:11.7    -139    103      0    174    175 306.6   0.0  34192  290.13 0854.97
2009/04/23 12:13:11.8    -154     34    -66    158    171 282.8 -28.5  34202  290.30 0854.97
2009/04/23 12:13:11.9    -182     86    -88    202    220 295.5 -29.5  34214  290.50 0854.97
2009/04/23 12:13:12.0     -46     93    -88    104    136 333.7 -48.7  34220  290.58 0854.97
2009/04/23 12:13:12.1     -58     58    -16     83     85 315.0 -11.3  34204  290.31 0854.97
2009/04/23 12:13:12.2      59   -135    122    148    191 156.3  43.8  34186  290.01 0854.97
2009/04/23 12:13:12.3     -83   -307    148    319    351 195.2  26.5  34188  290.03 0854.96
2009/04/23 12:13:12.4     -36   -318    222    321    390 186.5  37.9  34172  289.79 0854.96
2009/04/23 12:13:12.5    -140   -380    147    406    431 200.2  20.9  34174  289.80 0854.96
2009/04/23 12:13:12.6     -73   -377    188    385    428 191.0  27.9  34174  289.82 0854.96
2009/04/23 12:13:12.7    -180   -354     63    398    403 207.0   9.0  34172  289.76 0854.96
2009/04/23 12:13:12.8    -219   -385     13    444    445 209.7   1.7  34176  289.85 0854.96
2009/04/23 12:13:12.9    -289    -81    -46    301    305 254.3  -8.8  34182  289.95 0854.96
2009/04/23 12:13:13.0    -460   -297    -36    548    550 237.1  -3.8  34176  289.84 0854.96
2009/04/23 12:13:13.1    -156   -253    125    298    323 211.6  24.1  34184  289.98 0854.96
2009/04/23 12:13:13.2    -166   -420     -1    452    453 201.6  -0.2  34184  289.99 0854.96
2009/04/23 12:13:13.3    -144   -473    -15    495    496 197.0  -1.8  34172  289.76 0854.96
2009/04/23 12:13:13.4    -217   -460     78    509    515 205.3   8.8  34182  289.95 0854.96
2009/04/23 12:13:13.5     -32   -410     20    412    413 184.6   2.8  34172  289.77 0854.96
2009/04/23 12:13:13.6      34   -330      5    332    333 174.1   1.0  34192  290.11 0854.96
2009/04/23 12:13:13.7     -24   -273     34    275    278 185.1   7.2  34188  290.05 0854.96
2009/04/23 12:13:13.8     -97   -233     54    253    259 202.7  12.1  34156  289.49 0854.96
2009/04/23 12:13:13.9    -148   -143    -58    206    214 226.0 -20.7  34162  289.60 0854.96
2009/04/23 12:13:14.0    -192   -147    -72    243    253 232.5 -21.7  34160  289.58 0854.96
2009/04/23 12:13:14.1     -19   -176   -116    178    212 186.2 -40.1  34162  289.60 0854.96
2009/04/23 12:13:14.2     -23   -246    -83    248    261 185.4 -23.6  34162  289.59 0854.96
2009/04/23 12:13:14.3      49   -349   -121    353    373 171.9 -23.9  34162  289.62 0854.95
2009/04/23 12:13:14.4     -62   -281   -145    288    322 192.5 -33.0  34172  289.76 0854.95
2009/04/23 12:13:14.5    -148   -369    -76    398    406 201.9 -10.9  34176  289.85 0854.95
2009/04/23 12:13:14.6    -163   -240     -5    291    292 214.3  -1.2  34172  289.78 0854.95
2009/04/23 12:13:14.7     -84   -312    -29    324    326 195.1  -5.2  34176  289.83 0854.95
2009/04/23 12:13:14.8    -146   -317     -1    350    351 204.8  -0.2  34170  289.74 0854.95
2009/04/23 12:13:14.9    -155   -329     14    364    365 205.3   2.3  34180  289.91 0854.95
2009/04/23 12:13:15.0    -134   -337      0    363    364 201.7   0.1  34178  289.89 0854.95
2009/04/23 12:13:15.1    -208   -328    -57    389    394 212.5  -8.4  34178  289.87 0854.95
2009/04/23 12:13:15.2    -202   -316    105    376    391 212.6  15.7  34164  289.64 0854.95
2009/04/23 12:13:15.3    -234   -243    107    338    355 224.0  17.7  34162  289.60 0854.95
2009/04/23 12:13:15.4    -338   -314     12    462    463 227.1   1.5  34162  289.60 0854.95
2009/04/23 12:13:15.5    -390   -347     30    523    524 228.3   3.3  34164  289.65 0854.95
2009/04/23 12:13:15.6    -497   -507     27    711    712 224.4   2.2  34168  289.72 0854.95
2009/04/23 12:13:15.7    -643   -305   -157    712    730 244.6 -12.5  34140  289.23 0854.95
2009/04/23 12:13:15.8    -531   -252    -22    588    589 244.6  -2.2  34148  289.37 0854.95
2009/04/23 12:13:15.9    -316   -456     55    556    559 214.7   5.7  34162  289.60 0854.95
2009/04/23 12:13:16.0    -600   -389    -33    716    717 237.0  -2.7  34162  289.59 0854.95
2009/04/23 12:13:16.1    -307   -335    -35    455    457 222.5  -4.5  34164  289.63 0854.95
2009/04/23 12:13:16.2    -229   -525    -12    574    575 203.6  -1.3  34162  289.61 0854.95
2009/04/23 12:13:16.3    -200   -589     32    623    624 198.8   3.0  34156  289.50 0854.95
2009/04/23 12:13:16.4    -394   -357    -47    532    535 227.8  -5.1  34134  289.14 0854.95
2009/04/23 12:13:16.5    -501   -375   -107    626    636 233.2  -9.7  34142  289.28 0854.95
2009/04/23 12:13:16.6    -568   -321   -157    653    672 240.5 -13.6  34138  289.21 0854.95
2009/04/23 12:13:16.7    -629   -296   -200    696    725 244.8 -16.0  34150  289.39 0854.95
2009/04/23 12:13:16.8    -644   -215   -188    680    706 251.5 -15.5  34140  289.23 0854.95
2009/04/23 12:13:16.9    -833   -109    -18    840    841 262.5  -1.3  34150  289.39 0854.95
2009/04/23 12:13:17.0    -890   -108    -71    897    900 263.0  -4.6  34146  289.34 0854.95
2009/04/23 12:13:17.1    -764   -189   -275    787    834 256.1 -19.3  34138  289.21 0854.95
2009/04/23 12:13:17.2    -622   -327   -250    703    746 242.3 -25.0  34146  289.35 0854.95
2009/04/23 12:13:17.3    -603   -131   -122    618    631 257.7 -11.2  34134  289.13 0854.95
2009/04/23 12:13:17.4    -586   -138   -173    603    627 256.7 -20.7  34146  289.33 0854.95
2009/04/23 12:13:17.5    -647    -77   -259    652    701 263.1 -27.3  34140  289.24 0854.95
2009/04/23 12:13:17.6    -536     12   -226    537    582 271.4 -28.6  34146  289.33 0854.95
2009/04/23 12:13:17.7    -312     89   -249    325    409 285.9 -45.6  34138  289.20 0854.95
2009/04/23 12:13:17.8    -348     87   -239    359    431 284.2 -41.3  34148  289.36 0854.95
2009/04/23 12:13:17.9    -339     45   -227    343    411 277.7 -40.9  34144  289.30 0854.95
2009/04/23 12:13:18.0    -333     12   -156    334    368 272.1 -31.5  34142  289.25 0854.95
2009/04/23 12:13:18.1    -306     19   -179    307    355 273.7 -37.4  34144  289.30 0854.95
2009/04/23 12:13:18.2    -293    -51   -144    298    330 260.1 -32.1  34144  289.29 0854.95
2009/04/23 12:13:18.3    -222    -60   -137    231    268 254.7 -37.9  34146  289.32 0854.96
2009/04/23 12:13:18.4    -202    -90   -149    222    267 246.0 -41.4  34148  289.36 0854.96
2009/04/23 12:13:18.5    -184   -152   -180    239    299 230.4 -45.1  34146  289.34 0854.96
2009/04/23 12:13:18.6    -192   -173   -181    259    315 228.0 -42.9  34146  289.32 0854.96
2009/04/23 12:13:18.7    -238   -108   -168    262    311 245.6 -40.0  34148  289.37 0854.96
2009/04/23 12:13:18.8    -211    -66   -168    222    278 252.5 -45.3  34136  289.15 0854.96
2009/04/23 12:13:18.9    -253     72   -240    264    356 285.9 -51.4  34152  289.42 0854.96
2009/04/23 12:13:19.0    -358   -232   -163    428    457 237.0 -26.4  34146  289.34 0854.96
2009/04/23 12:13:19.1    -259   -112   -137    283    314 246.5 -32.2  34150  289.39 0854.96
2009/04/23 12:13:19.2    -362   -196   -144    412    437 241.5 -19.3  34158  289.53 0854.96
2009/04/23 12:13:19.3    -312   -219   -105    382    396 235.0 -20.0  34154  289.47 0854.96
2009/04/23 12:13:19.4    -275   -206   -166    344    381 233.1 -31.8  34156  289.52 0854.96
2009/04/23 12:13:19.5    -259   -275   -120    379    398 223.3 -17.6  34152  289.45 0854.96
2009/04/23 12:13:19.6    -263   -276   -127    382    402 223.7 -23.8  34154  289.48 0854.96
2009/04/23 12:13:19.7    -145   -230   -104    273    292 212.3 -26.1  34156  289.51 0854.96
2009/04/23 12:13:19.8    -106   -284   -134    304    332 200.5 -29.7  34150  289.41 0854.96
2009/04/23 12:13:19.9    -275   -291   -142    401    426 223.4 -19.6  34150  289.41 0854.96
2009/04/23 12:13:20.0    -269   -157   -131    312    338 239.6 -28.3  34148  289.38 0854.96
2009/04/23 12:13:20.1    -136   -143    -97    198    220 223.7 -32.2  34150  289.40 0854.96
2009/04/23 12:13:20.2    -149   -379   -245    408    475 201.5 -38.2  34142  289.26 0854.96
2009/04/23 12:13:20.3     -28   -141   -263    144    299 191.5 -73.3  34152  289.44 0854.98
2009/04/23 12:13:20.4      49   -284   -290    289    409 170.2 -54.5  34154  289.47 0854.98
2009/04/23 12:13:20.5      74   -299   -212    309    374 166.0 -42.1  34156  289.52 0854.98
2009/04/23 12:13:20.6     116   -336    -53    356    361 161.0  -8.6  34146  289.33 0854.98
2009/04/23 12:13:20.7      -7   -447   -206    448    493 181.0 -30.9  34152  289.44 0854.98
2009/04/23 12:13:20.8      35   -466   -148    468    490 175.6 -22.6  34152  289.42 0854.98
2009/04/23 12:13:20.9      -5   -421   -135    422    443 180.8 -22.9  34150  289.41 0854.98
2009/04/23 12:13:21.0      43   -457    -45    460    463 174.6  -5.6  34154  289.48 0854.98
2009/04/23 12:13:21.2      -8   -491    -57    492    496 181.0  -6.7  34152  289.45 0854.98
2009/04/23 12:13:21.2     -14   -478    -19    479    480 181.7  -2.3  34152  289.45 0854.98
2009/04/23 12:13:21.3       0   -504    -68    505    510 180.0  -7.7  34150  289.39 0854.98
2009/04/23 12:13:21.4     -16   -473     -7    474    475 182.0  -0.9  34146  289.35 0854.98
2009/04/23 12:13:21.6     -23   -385     70    386    393 183.5  10.4  34152  289.42 0854.98
2009/04/23 12:13:21.7      16   -375     21    376    377 177.5   3.2  34152  289.43 0854.98
2009/04/23 12:13:21.8     -48   -309     44    313    317 188.9   8.1  34148  289.36 0854.98
2009/04/23 12:13:21.9    -144   -318     95    350    363 204.4  15.2  34158  289.54 0854.98
2009/04/23 12:13:22.0    -159   -329    112    366    383 205.9  17.1  34164  289.65 0854.98
2009/04/23 12:13:22.1     -96   -346     42    360    363 195.6   6.7  34158  289.54 0854.98
2009/04/23 12:13:22.2     -86   -374      0    384    385 193.0   0.1  34154  289.48 0854.98
2009/04/23 12:13:22.3    -125   -234    -32    266    268 208.1  -6.9  34164  289.64 0854.98
2009/04/23 12:13:22.4    -174   -271    -80    323    333 212.7 -13.9  34162  289.59 0854.96
2009/04/23 12:13:22.5    -109   -170   -134    203    243 212.6 -40.9  34154  289.46 0854.96
2009/04/23 12:13:22.6    -214    -65   -126    224    257 252.9 -36.3  34182  289.93 0854.96
2009/04/23 12:13:22.7    -163    -37   -128    168    211 257.2 -45.8  34186  290.02 0854.96
2009/04/23 12:13:22.8    -100    -68   -132    121    179 235.8 -56.9  34194  290.14 0854.96
2009/04/23 12:13:22.9       2   -180   -120    181    217 179.3 -41.1  34180  289.91 0854.96
2009/04/23 12:13:23.0      58   -125   -162    138    212 155.1 -59.8  34172  289.79 0854.96
2009/04/23 12:13:23.1      -9   -206    -64    207    216 182.7 -21.8  34164  289.65 0854.96
2009/04/23 12:13:23.2      25   -172    -56    174    182 171.5 -23.3  34156  289.52 0854.96
2009/04/23 12:13:23.3      49   -187    -61    194    204 165.3 -17.6  34156  289.50 0854.96
2009/04/23 12:13:23.4      82   -187    -36    205    209 156.4 -10.1  34156  289.52 0854.96
2009/04/23 12:13:23.5      81   -162    -40    182    187 153.5 -12.4  34160  289.58 0854.96
2009/04/23 12:13:23.6     145   -200    -19    248    249 144.0  -4.6  34160  289.58 0854.96
2009/04/23 12:13:23.7     124   -276    -16    303    304 155.7  -3.1  34166  289.66 0854.96
2009/04/23 12:13:23.8      53   -264     27    270    272 168.7   5.9  34170  289.73 0854.96
2009/04/23 12:13:23.9      54   -258      2    264    265 168.0   0.5  34172  289.78 0854.96
2009/04/23 12:13:24.0     126   -197    -95    235    253 147.4 -27.4  34170  289.75 0854.96
2009/04/23 12:13:24.1      27   -178      3    181    182 171.1   1.0  34174  289.80 0854.96
2009/04/23 12:13:24.2      87   -258     27    273    275 161.3   5.7  34178  289.86 0854.96
2009/04/23 12:13:24.3     145   -249     58    289    295 149.7  11.4  34174  289.80 0854.96
2009/04/23 12:13:24.4     191   -354     62    403    408 151.6   8.8  34168  289.70 0854.97
2009/04/23 12:13:24.5     258   -390     11    468    469 146.5   1.4  34178  289.86 0854.97
2009/04/23 12:13:24.6     137   -398     66    422    428 161.0   9.0  34184  289.97 0854.97
2009/04/23 12:13:24.7     235   -324     81    401    410 144.0  11.5  34180  289.92 0854.97
2009/04/23 12:13:24.8     237   -325     96    403    415 143.9  13.5  34178  289.87 0854.97
2009/04/23 12:13:24.9     189   -228    171    297    342 140.3  32.6  34182  289.93 0854.97
2009/04/23 12:13:25.0      74   -343    141    352    379 167.7  23.0  34172  289.79 0854.97
2009/04/23 12:13:25.1      61   -407    129    412    432 171.4  17.4  34174  289.80 0854.97
2009/04/23 12:13:25.2     105   -326     57    343    348 162.1   9.5  34174  289.82 0854.97
2009/04/23 12:13:25.3      81   -238    122    252    279 161.1  27.8  34174  289.80 0854.97
2009/04/23 12:13:25.4      44   -315    124    319    342 172.0  22.3  34174  289.82 0854.97
2009/04/23 12:13:25.5     -25   -275    103    277    295 185.3  21.3  34172  289.78 0854.97
2009/04/23 12:13:25.6      21   -173     54    175    184 172.9  17.1  34164  289.63 0854.97
2009/04/23 12:13:25.7     131   -117     65    176    187 131.8  21.0  34166  289.69 0854.97
2009/04/23 12:13:25.8     166    -84     69    187    199 116.9  21.0  34164  289.65 0854.97
2009/04/23 12:13:25.9     201   -121    -38    235    239 121.1  -9.4  34170  289.73 0854.97
2009/04/23 12:13:26.0     112   -247     59    272    279 155.5  12.4  34170  289.73 0854.97
2009/04/23 12:13:26.1       0   -279     23    280    282 180.0   4.9  34168  289.71 0854.97
2009/04/23 12:13:26.2      18   -209     65    210    220 174.9  17.3  34168  289.70 0854.97
2009/04/23 12:13:26.3    -116   -140     -7    183    184 219.7  -2.2  34172  289.77 0854.97
2009/04/23 12:13:26.4    -201   -126    -17    238    239 237.8  -4.1  34164  289.64 0854.94
2009/04/23 12:13:26.5    -219    -86     56    236    243 248.5  13.5  34170  289.75 0854.94
2009/04/23 12:13:26.6    -147    -26     65    150    163 259.9  24.6  34172  289.79 0854.94
2009/04/23 12:13:26.7    -213   -123    108    246    268 240.0  25.3  34174  289.80 0854.94
2009/04/23 12:13:26.8    -203   -145     97    250    268 234.3  22.3  34170  289.75 0854.94
2009/04/23 12:13:26.9    -185   -110    -62    216    225 239.1 -16.0  34170  289.75 0854.94
2009/04/23 12:13:27.0     -87    -48   -123    100    158 241.1 -61.3  34168  289.72 0854.94
2009/04/23 12:13:27.1     -68    -77    -95    104    140 221.4 -52.3  34172  289.77 0854.94
2009/04/23 12:13:27.2     -85    -28    -94     90    130 251.4 -55.6  34176  289.85 0854.94
2009/04/23 12:13:27.3    -186    -92    -63    208    217 243.6 -21.7  34174  289.80 0854.94
2009/04/23 12:13:27.4    -215    -96    -63    236    245 245.8 -15.0  34168  289.70 0854.94
2009/04/23 12:13:27.5    -221     -3    -44    222    227 269.1 -11.3  34176  289.85 0854.94
2009/04/23 12:13:27.6    -320     72   -129    329    353 282.7 -27.1  34184  289.98 0854.94
2009/04/23 12:13:27.7    -286      4   -146    287    322 271.0 -33.6  34194  290.14 0854.94
2009/04/23 12:13:27.8    -262    -13   -111    263    285 267.0 -28.7  34188  290.05 0854.94
2009/04/23 12:13:27.9    -277    -40   -123    280    305 261.6 -29.6  34192  290.12 0854.94
2009/04/23 12:13:28.0    -373    -16   -160    374    406 267.5 -29.0  34154  289.48 0854.94
2009/04/23 12:13:28.1    -572     92   -183    580    608 279.2 -22.5  34148  289.36 0854.94
2009/04/23 12:13:28.2    -480    -91   -227    489    539 259.2 -31.3  34150  289.41 0854.94
2009/04/23 12:13:28.3    -468   -129   -234    486    539 254.5 -31.8  34156  289.50 0854.94
2009/04/23 12:13:28.4    -510    -79   -246    517    572 261.1 -31.7  34156  289.51 0854.93
2009/04/23 12:13:28.5    -317    -11   -176    318    363 267.9 -35.8  34154  289.48 0854.93
2009/04/23 12:13:28.6    -316    -45   -105    320    336 261.9 -23.5  34162  289.59 0854.93
2009/04/23 12:13:28.7    -527    141   -165    546    570 285.1 -21.7  34154  289.48 0854.93
2009/04/23 12:13:28.8    -552    103   -199    562    597 280.6 -19.6  34156  289.49 0854.93
2009/04/23 12:13:28.9    -544     -3   -186    545    575 269.6 -23.8  34150  289.40 0854.93
2009/04/23 12:13:29.0    -484      7    -26    485    486 270.9  -3.2  34168  289.71 0854.93
2009/04/23 12:13:29.1    -509   -137     69    528    533 254.9   7.5  34174  289.82 0854.93
2009/04/23 12:13:29.2    -435   -150   -156    461    487 250.9 -18.7  34172  289.79 0854.93
2009/04/23 12:13:29.3    -412    -90   -122    422    440 257.6 -16.2  34182  289.95 0854.93
2009/04/23 12:13:29.4    -439    -20   -222    440    492 267.3 -33.2  34158  289.54 0854.93
2009/04/23 12:13:29.5    -425    -77   -243    432    495 259.7 -36.3  34170  289.73 0854.93
2009/04/23 12:13:29.6    -280   -309   -125    418    437 222.2 -16.7  34176  289.83 0854.93
2009/04/23 12:13:29.7    -310   -351    -60    469    473 221.4  -7.3  34158  289.54 0854.93
2009/04/23 12:13:29.8    -242   -301    -78    387    395 218.7 -11.5  34160  289.57 0854.93
2009/04/23 12:13:29.9    -209   -301    -52    367    371 214.7  -8.1  34152  289.45 0854.93
2009/04/23 12:13:30.0    -225   -361   -101    426    438 212.0 -13.4  34154  289.48 0854.93
2009/04/23 12:13:30.1    -197   -414    -24    459    460 205.5  -3.0  34162  289.61 0854.93
2009/04/23 12:13:30.2    -179   -349    -15    393    394 207.1  -2.2  34152  289.45 0854.93
2009/04/23 12:13:30.3    -213   -289     -7    360    361 216.4  -1.3  34150  289.40 0854.93
2009/04/23 12:13:30.4    -193   -279    -52    340    345 214.7  -8.8  34154  289.48 0854.93
2009/04/23 12:13:30.5    -180   -260    -23    317    318 214.7  -4.2  34154  289.46 0854.93
2009/04/23 12:13:30.6    -143   -209     -9    254    255 214.3  -2.1  34156  289.51 0854.93
2009/04/23 12:13:30.7     -55   -152     23    162    164 200.0   8.2  34152  289.45 0854.93
2009/04/23 12:13:30.8      -6    -53     50     54     73 187.1  48.0  34152  289.45 0854.93
2009/04/23 12:13:30.9      -8    -29     93     31     98 195.1  81.0  34162  289.62 0854.93
2009/04/23 12:13:31.0      16    -39     30     43     52 157.3  38.6  34156  289.50 0854.93
2009/04/23 12:13:31.1       8   -184     -4    185    186 177.5  -1.3  34156  289.52 0854.93
2009/04/23 12:13:31.2      17   -286      8    287    288 176.5   1.7  34154  289.47 0854.93
2009/04/23 12:13:31.3      10   -416     74    417    424 178.6  10.1  34156  289.51 0854.93
2009/04/23 12:13:31.4      -7   -371    -47    372    375 181.2  -7.2  34154  289.47 0854.91
2009/04/23 12:13:31.5      18   -284    -11    285    286 176.4  -2.2  34156  289.51 0854.91
2009/04/23 12:13:31.6     -11   -253     -5    254    255 182.6  -1.2  34156  289.51 0854.91
2009/04/23 12:13:31.7     -48   -241     29    246    248 191.5   6.9  34154  289.47 0854.91
2009/04/23 12:13:31.8     -76   -169     96    186    209 204.3  29.3  34156  289.52 0854.91
2009/04/23 12:13:31.9     -57   -240    141    247    284 193.6  32.3  34158  289.54 0854.91
2009/04/23 12:13:32.0     -56   -299    150    305    339 190.7  28.0  34166  289.67 0854.91
2009/04/23 12:13:32.1     -35   -282    156    285    324 187.1  30.9  34158  289.53 0854.91
2009/04/23 12:13:32.2     -26   -349    241    350    424 184.4  37.8  34158  289.55 0854.91
2009/04/23 12:13:32.3      12   -402    272    403    486 178.2  37.2  34148  289.38 0854.91
2009/04/23 12:13:32.4     -16   -250    219    251    333 183.8  45.6  34146  289.32 0854.91
2009/04/23 12:13:32.5     301   -181    201    352    405 121.1  32.3  34148  289.38 0854.91
2009/04/23 12:13:32.6     151   -297    133    334    359 153.0  22.9  34154  289.47 0854.91
2009/04/23 12:13:32.7     152   -378    181    408    446 158.1  25.3  34154  289.48 0854.91
2009/04/23 12:13:32.8     149   -408    130    435    455 159.9  16.7  34152  289.43 0854.91
2009/04/23 12:13:32.9     172   -287    156    335    369 149.1  26.9  34150  289.40 0854.91
2009/04/23 12:13:33.0     272   -326     65    425    430 140.1   8.7  34148  289.38 0854.91
2009/04/23 12:13:33.1     247   -345     69    425    431 144.4   9.3  34148  289.38 0854.91
2009/04/23 12:13:33.2     241   -319    110    401    416 142.9  15.4  34150  289.39 0854.91
2009/04/23 12:13:33.3     307   -394    164    500    527 142.1  18.1  34146  289.32 0854.91
2009/04/23 12:13:33.4     200   -416    185    462    497 154.3  23.0  34146  289.32 0854.89
2009/04/23 12:13:33.5     103   -336    229    352    419 163.0  36.0  34152  289.43 0854.89
2009/04/23 12:13:33.6      29   -333    308    335    455 174.9  47.5  34146  289.33 0854.89
2009/04/23 12:13:33.7      49   -431    296    434    525 173.4  37.6  34146  289.35 0854.89
2009/04/23 12:13:33.8      29   -380    217    382    439 175.5  32.3  34154  289.46 0854.89
2009/04/23 12:13:33.9    -113   -352    266    370    455 197.8  39.5  34148  289.36 0854.89
2009/04/23 12:13:34.0     -89   -429    310    439    537 191.8  38.6  34152  289.45 0854.89
2009/04/23 12:13:34.1       0   -483    259    484    548 180.0  30.3  34150  289.40 0854.89
2009/04/23 12:13:34.2     -38   -494    179    496    527 184.5  20.7  34152  289.44 0854.89
2009/04/23 12:13:34.3      20   -281    170    282    329 175.8  34.1  34152  289.44 0854.89
2009/04/23 12:13:34.4     108   -275    103    296    313 158.6  20.0  34148  289.37 0854.89
2009/04/23 12:13:34.5      99   -175     91    202    221 150.6  25.7  34154  289.46 0854.89
2009/04/23 12:13:34.6      27   -239    140    241    278 173.5  32.9  34154  289.47 0854.89
2009/04/23 12:13:34.7     142   -133    211    195    287 133.2  52.2  34156  289.51 0854.89
2009/04/23 12:13:34.8      22    -67    213     71    224 161.5  81.0  34158  289.53 0854.89
2009/04/23 12:13:34.9      24   -287    209    289    356 175.1  39.5  34158  289.54 0854.89
2009/04/23 12:13:35.0      96   -252    215    270    345 159.0  42.7  34158  289.54 0854.89
2009/04/23 12:13:35.1      44   -169    187    175    256 165.3  52.2  34150  289.41 0854.89
2009/04/23 12:13:35.2      66   -137    232    153    277 154.1  63.6  34146  289.34 0854.89
2009/04/23 12:13:35.3     -33   -217    328    220    394 188.7  63.1  34148  289.37 0854.89
2009/04/23 12:13:35.4     -16   -217    313    218    381 184.4  62.0  34142  289.26 0854.89
2009/04/23 12:13:35.5     -36      0    132     37    137 270.0  84.4  34150  289.41 0854.89
2009/04/23 12:13:35.6     -45   -238    229    243    333 190.7  48.2  34152  289.42 0854.89
2009/04/23 12:13:35.7      53   -153    162    163    229 160.8  50.0  34142  289.28 0854.89
2009/04/23 12:13:35.8       0    -84    225     85    240 179.5  78.6  34158  289.53 0854.89
2009/04/23 12:13:35.9    -126   -243    172    274    323 207.4  35.2  34150  289.39 0854.89
2009/04/23 12:13:36.0     -29   -217    266    220    345 187.8  56.3  34148  289.37 0854.89
2009/04/23 12:13:36.1     -82   -228    313    243    396 199.8  58.4  34146  289.33 0854.89
2009/04/23 12:13:36.2     -48   -133    357    142    384 200.1  77.1  34158  289.54 0854.89
2009/04/23 12:13:36.3    -176   -120    280    214    352 235.6  58.7  34158  289.54 0854.89
2009/04/23 12:13:36.4     -57   -212    285    220    360 195.1  58.5  34154  289.47 0854.89
2009/04/23 12:13:36.5     -45   -225    270    230    354 191.5  55.4  34144  289.29 0854.89
2009/04/23 12:13:36.6      17     42    177     46    182  21.8  85.2  34154  289.48 0854.89
2009/04/23 12:13:36.7     -14    -74    131     76    151 190.7  67.2  34150  289.41 0854.89
2009/04/23 12:13:36.8      48     38    115     62    130  52.2  69.3  34150  289.40 0854.89
2009/04/23 12:13:36.9     -34     54    164     65    176 327.5  77.4  34148  289.38 0854.89
2009/04/23 12:13:37.0      -1    123    148    124    193 359.5  56.3  34152  289.43 0854.89
2009/04/23 12:13:37.1     157    229    136    278    309  34.5  27.8  34154  289.46 0854.89
2009/04/23 12:13:37.2       3   -107    243    108    265 178.2  74.5  34150  289.40 0854.89
2009/04/23 12:13:37.3      -7     56    111     57    124 352.9  70.8  34148  289.36 0854.89
2009/04/23 12:13:37.4    -112   -125    216    168    273 221.9  58.4  34156  289.49 0854.89
2009/04/23 12:13:37.5     -73     55     97     92    133 307.3  51.2  34154  289.46 0854.89
2009/04/23 12:13:37.6     139    167    115    218    246  39.6  29.8  34196  290.19 0854.89
2009/04/23 12:13:37.7       9     50    210     51    216  10.7  86.7  34208  290.40 0854.89
2009/04/23 12:13:37.8      95      0    165     96    190  90.0  67.2  34198  290.23 0854.89
2009/04/23 12:13:37.9     158    100    114    188    219  57.6  34.2  34222  290.62 0854.89
2009/04/23 12:13:38.0     151     21    182    153    237  82.1  55.6  34236  290.87 0854.89
2009/04/23 12:13:38.1      -9    -62    115     63    131 188.9  68.9  34190  290.09 0854.89
2009/04/23 12:13:38.2     -93   -120    123    152    195 217.8  43.3  34164  289.63 0854.89
2009/04/23 12:13:38.3    -127    -70     50    146    155 241.1  18.9  34158  289.55 0854.89
2009/04/23 12:13:38.4     -76    -80     89    111    142 223.7  43.7  34164  289.63 0854.89
2009/04/23 12:13:38.5    -133     37     46    139    147 285.5  18.4  34166  289.69 0854.89
2009/04/23 12:13:38.6    -164    -26    140    167    217 260.8  44.1  34174  289.80 0854.89
2009/04/23 12:13:38.7    -155    164    102    226    247 316.6  26.2  34196  290.19 0854.89
2009/04/23 12:13:38.8    -168    -12    146    169    223 265.6  45.6  34210  290.41 0854.89
2009/04/23 12:13:38.9       3    -48    164     49    171 176.4  83.1  34214  290.48 0854.89
2009/04/23 12:13:39.0     156     58     95    167    192  69.4  32.4  34232  290.81 0854.89
2009/04/23 12:13:39.1     227    145     -1    270    271  57.5  -0.3  34224  290.65 0854.89
2009/04/23 12:13:39.2     246    215    -10    327    328  48.8  -1.8  34230  290.76 0854.89
2009/04/23 12:13:39.3     164    274    -12    320    321  31.0  -2.2  34228  290.71 0854.89
2009/04/23 12:13:39.4     110    144      6    182    183  37.2   2.1  34232  290.81 0854.90
2009/04/23 12:13:39.5     174    118    -19    211    212  55.8  -5.2  34238  290.91 0854.90
2009/04/23 12:13:39.6     154    149    -82    215    230  46.0 -26.1  34244  290.99 0854.90
2009/04/23 12:13:39.7      10    107    -22    108    111   5.8 -11.5  34238  290.89 0854.90
2009/04/23 12:13:39.8    -231    132    -19    267    268 299.8  -4.1  34244  290.99 0854.90
2009/04/23 12:13:39.9    -211    112     52    240    246 298.0  12.4  34214  290.48 0854.90
2009/04/23 12:13:40.0    -186     37     23    190    192 281.4   7.1  34196  290.19 0854.90
2009/04/23 12:13:40.1    -223    -39     11    227    228 259.9   2.8  34194  290.14 0854.90
2009/04/23 12:13:40.2    -112    123    -91    167    190 317.7 -35.4  34206  290.35 0854.90
2009/04/23 12:13:40.3     -44    104    -32    114    118 336.8 -20.2  34210  290.41 0854.90
2009/04/23 12:13:40.4     -93     16     73     95    119 280.1  41.7  34220  290.60 0854.90
2009/04/23 12:13:40.5    -104    -41     83    112    139 248.3  39.7  34224  290.65 0854.90
2009/04/23 12:13:40.6    -111   -114    111    160    194 224.1  38.0  34222  290.62 0854.90
2009/04/23 12:13:40.7     -94   -100    135    138    193 223.2  49.8  34204  290.31 0854.90
2009/04/23 12:13:40.8    -115      4      5    116    117 272.1   2.9  34212  290.47 0854.90
2009/04/23 12:13:40.9     -96      7      4     97     98 274.4   2.9  34218  290.55 0854.90
2009/04/23 12:13:41.0     -58    -19      3     62     63 251.8   2.9  34208  290.40 0854.90
2009/04/23 12:13:41.1     -18    -15     22     24     32 228.7  50.0  34204  290.31 0854.90
2009/04/23 12:13:41.2       0      0     41      1     41 189.7  90.0  34204  290.31 0854.90
2009/04/23 12:13:41.3      -1    -12     62     13     63 186.2  89.0  34198  290.23 0854.90
2009/04/23 12:13:41.4     -28    -55     67     62     91 207.2  52.2  34194  290.14 0854.90
2009/04/23 12:13:41.5     -65    -57     30     87     93 228.7  19.4  34184  289.97 0854.90
2009/04/23 12:13:41.6     -47    -57     35     75     82 219.7  26.6  34182  289.96 0854.90
2009/04/23 12:13:41.7     -56    -29     29     64     70 242.9  27.1  34178  289.89 0854.90
2009/04/23 12:13:41.8     -83    -28     42     88     97 251.4  27.2  34186  290.01 0854.90
2009/04/23 12:13:41.9    -157    -25    104    160    190 260.8  35.7  34180  289.91 0854.90
2009/04/23 12:13:42.0    -128    -26     64    131    145 258.5  27.3  34188  290.06 0854.90
2009/04/23 12:13:42.1     -67    -68     33     96    102 224.5  19.4  34190  290.08 0854.90
2009/04/23 12:13:42.2     -97    -70     23    120    123 234.0  11.0  34186  290.02 0854.90
2009/04/23 12:13:42.3    -132    -60     11    146    147 245.6   4.4  34178  289.87 0854.90
2009/04/23 12:13:42.4    -178    -26    108    180    209 261.6  33.7  34196  290.18 0854.90
2009/04/23 12:13:42.5    -235    -61    176    243    300 255.4  39.5  34204  290.31 0854.90
2009/04/23 12:13:42.6    -209    -68    189    220    290 251.8  44.9  34170  289.73 0854.90
2009/04/23 12:13:42.7    -115    -59    160    130    206 243.0  56.4  34172  289.79 0854.90
2009/04/23 12:13:42.8     -24    -11    112     27    115 244.7  86.9  34182  289.96 0854.90
2009/04/23 12:13:42.9     -24      8    136     26    138 288.4  89.6  34176  289.85 0854.90
2009/04/23 12:13:43.0     142     38    167    148    223  75.0  54.0  34172  289.79 0854.90
2009/04/23 12:13:43.1     198    -20    198    200    281  95.9  50.0  34164  289.63 0854.90
2009/04/23 12:13:43.2     191    -31    123    194    229  99.5  35.5  34162  289.62 0854.90
2009/04/23 12:13:43.3     148     -3    178    149    232  91.3  56.3  34168  289.72 0854.90
2009/04/23 12:13:43.4     132    -57    120    145    188 113.5  43.8  34168  289.72 0854.90
2009/04/23 12:13:43.5     227   -143    174    269    320 122.2  35.9  34160  289.58 0854.90
2009/04/23 12:13:43.6     202    -34    102    205    228  99.6  28.2  34160  289.57 0854.90
2009/04/23 12:13:43.7     -20    -84    139     87    163 193.4  64.9  34156  289.50 0854.90
2009/04/23 12:13:43.8      10    -87    117     88    146 172.9  59.4  34152  289.45 0854.90
2009/04/23 12:13:43.9      -8   -173    211    174    273 182.7  56.4  34156  289.49 0854.90
2009/04/23 12:13:44.0     -18   -191    205    192    280 185.6  52.1  34154  289.47 0854.90
2009/04/23 12:13:44.1    -109   -204    120    232    261 208.1  29.5  34152  289.44 0854.90
2009/04/23 12:13:44.2     -22   -133    147    135    199 189.8  52.7  34152  289.43 0854.90
2009/04/23 12:13:44.3     -52   -201    109    208    234 194.7  29.8  34150  289.40 0854.90
2009/04/23 12:13:44.4       2   -165     53    166    175 179.3  17.7  34150  289.41 0854.90
2009/04/23 12:13:44.5      23   -198     49    200    207 173.3  13.9  34152  289.43 0854.90
2009/04/23 12:13:44.6    -120   -234    -74    264    275 207.2 -15.8  34152  289.44 0854.90
2009/04/23 12:13:44.7     -40   -253    -74    257    267 189.1 -20.7  34148  289.37 0854.90
2009/04/23 12:13:44.8    -135   -199     12    241    242 214.3   2.9  34144  289.31 0854.90
2009/04/23 12:13:44.9    -127   -210     96    246    264 211.2  22.5  34152  289.44 0854.90
2009/04/23 12:13:45.0     -94   -200    144    222    264 205.3  35.7  34154  289.46 0854.90
2009/04/23 12:13:45.1    -140   -150    128    206    242 223.0  35.0  34158  289.53 0854.90
2009/04/23 12:13:45.2      14    -71    133     73    151 168.5  68.9  34158  289.55 0854.90
2009/04/23 12:13:45.3      -4   -135    118    136    180 181.8  45.6  34156  289.52 0854.90
2009/04/23 12:13:45.4      96   -143    122    173    211 146.2  38.4  34152  289.45 0854.91
2009/04/23 12:13:45.5      46   -258    192    263    325 169.8  39.8  34154  289.46 0854.91
2009/04/23 12:13:45.6     -10   -275    222    276    354 182.2  43.0  34152  289.42 0854.91
2009/04/23 12:13:45.7     103   -176    129    205    242 149.7  35.5  34148  289.38 0854.91
2009/04/23 12:13:45.8      53   -263      1    269    270 168.5   0.2  34154  289.47 0854.91
2009/04/23 12:13:45.9     115   -266     -6    290    291 156.6  -1.3  34150  289.41 0854.91
2009/04/23 12:13:46.0     197   -178     -5    266    267 132.0  -1.2  34156  289.51 0854.91
2009/04/23 12:13:46.1     152   -196      3    249    250 142.1   0.8  34154  289.47 0854.91
2009/04/23 12:13:46.2      76   -222     88    235    250 161.1  21.0  34150  289.39 0854.91
2009/04/23 12:13:46.3     145   -214     99    259    277 145.7  22.0  34150  289.39 0854.91
2009/04/23 12:13:46.4     137   -166     58    216    224 140.4  15.2  34156  289.50 0854.91
2009/04/23 12:13:46.5     150   -272     26    311    313 151.1   4.9  34156  289.49 0854.91
2009/04/23 12:13:46.6       0   -389     -7    390    391 179.9  -1.2  34146  289.33 0854.91
2009/04/23 12:13:46.7     135   -331    -19    358    359 157.7  -3.1  34152  289.45 0854.91
2009/04/23 12:13:46.8    -136   -509    138    527    545 195.0  14.7  34146  289.33 0854.91
2009/04/23 12:13:46.9     -65   -436    146    441    465 188.6  18.4  34146  289.34 0854.91
2009/04/23 12:13:47.0     -69   -488    172    494    524 188.1  19.2  34150  289.39 0854.91
2009/04/23 12:13:47.1      29   -403    118    404    421 175.9  16.3  34142  289.27 0854.91
2009/04/23 12:13:47.2    -108   -357     21    374    375 196.9   3.3  34152  289.42 0854.91
2009/04/23 12:13:47.3    -168   -299    -68    344    351 209.4 -11.2  34152  289.45 0854.91
2009/04/23 12:13:47.4      60   -307    -43    313    316 168.9  -7.9  34150  289.41 0854.92
2009/04/23 12:13:47.5      85   -281    104    294    313 163.1  19.6  34144  289.31 0854.92
2009/04/23 12:13:47.6    -128   -413    224    433    487 197.3  29.4  34146  289.34 0854.92
2009/04/23 12:13:47.7    -225   -391    205    452    496 209.9  26.2  34146  289.35 0854.92
2009/04/23 12:13:47.8    -151   -329     69    363    370 204.7  10.8  34144  289.30 0854.92
2009/04/23 12:13:48.0     -52   -371    -59    375    380 188.0  -9.0  34142  289.26 0854.92
2009/04/23 12:13:48.1      63   -314     72    321    330 168.5  12.8  34144  289.29 0854.92
2009/04/23 12:13:48.2     120   -228     55    258    264 152.1  12.2  34146  289.34 0854.92
2009/04/23 12:13:48.3     119   -144     90    187    207 140.4  27.3  34146  289.35 0854.92
2009/04/23 12:13:48.4      22   -260    104    262    281 175.1  23.0  34150  289.39 0854.92
2009/04/23 12:13:48.5     -15   -186    106    187    214 184.7  31.9  34152  289.45 0854.92
2009/04/23 12:13:48.6      57   -305    -90    311    324 169.3 -16.2  34152  289.42 0854.92
2009/04/23 12:13:48.7     100   -297    -25    314    316 161.3  -4.6  34148  289.36 0854.92
2009/04/23 12:13:48.8     -44   -229      3    234    235 190.9   0.8  34144  289.31 0854.92
2009/04/23 12:13:48.9      82   -263    -13    276    277 162.6  -2.8  34150  289.41 0854.92
2009/04/23 12:13:49.0     106   -262    -84    283    296 157.9 -16.6  34152  289.42 0854.92
2009/04/23 12:13:49.1     123   -192     -8    229    230 147.4  -2.2  34150  289.40 0854.92
2009/04/23 12:13:49.2      74   -148    -51    166    173 153.5 -22.3  34150  289.41 0854.92
2009/04/23 12:13:49.3      70   -127    -13    145    146 151.1  -5.2  34152  289.43 0854.92
2009/04/23 12:13:49.4      -5    -67     77     68    102 184.5  53.7  34156  289.52 0854.92
2009/04/23 12:13:49.5     -92     30     84     97    128 288.4  45.8  34160  289.58 0854.92
2009/04/23 12:13:49.6     -83    -28    124     88    152 251.4  60.6  34160  289.58 0854.92
2009/04/23 12:13:49.7    -103    -63    128    121    176 238.5  52.0  34158  289.53 0854.92
2009/04/23 12:13:49.8    -103     27     87    107    137 285.0  43.7  34160  289.58 0854.92
2009/04/23 12:13:49.9     -77     20     81     80    113 285.0  49.7  34154  289.48 0854.92
2009/04/23 12:13:50.0     -21    -46     66     51     83 205.5  58.5  34158  289.55 0854.92
2009/04/23 12:13:50.1      15      7     57     17     59  64.7  82.8  34162  289.62 0854.92
2009/04/23 12:13:50.2      -1    -28     98     29    102 182.7  83.3  34158  289.55 0854.92
2009/04/23 12:13:50.3      21     25    102     33    107  39.6  80.7  34160  289.58 0854.92
2009/04/23 12:13:50.4     -18    -82    144     84    166 192.5  67.2  34156  289.50 0854.92
2009/04/23 12:13:50.5      33   -122    188    127    226 164.9  62.8  34152  289.45 0854.92
2009/04/23 12:13:50.6      22   -105    152    108    186 168.0  60.8  34150  289.40 0854.92
2009/04/23 12:13:50.7      47   -273    183    278    332 170.2  36.4  34148  289.36 0854.92
2009/04/23 12:13:50.8      74   -211    199    224    299 160.6  46.2  34152  289.42 0854.92
2009/04/23 12:13:50.9      87    -83    187    121    222 133.6  64.6  34154  289.48 0854.92
2009/04/23 12:13:51.0     176    -83    239    195    308 115.3  56.4  34158  289.53 0854.92
2009/04/23 12:13:51.1      81     -3    206     82    221  92.1  77.1  34160  289.57 0854.92
2009/04/23 12:13:51.2     240    -48    242    245    344 101.5  49.8  34152  289.44 0854.92
2009/04/23 12:13:51.3      97    -15    166     99    193  98.8  66.2  34154  289.48 0854.92
2009/04/23 12:13:51.4     103   -149    188    182    261 145.3  51.2  34156  289.51 0854.92
2009/04/23 12:13:51.5     194   -187    176    270    322 134.0  36.2  34154  289.47 0854.92
2009/04/23 12:13:51.6     283    -76     52    293    298 105.1  10.1  34154  289.47 0854.92
2009/04/23 12:13:51.7     331     95     10    345    346  73.9   1.7  34152  289.43 0854.92
2009/04/23 12:13:51.8     352     17    142    353    380  87.2  23.0  34148  289.38 0854.92
2009/04/23 12:13:51.9     222    -27    112    224    250  97.0  28.2  34150  289.41 0854.92
2009/04/23 12:13:52.0      24   -114     46    117    125 168.0  22.5  34148  289.38 0854.92
2009/04/23 12:13:52.1     -55   -162    145    172    224 198.7  44.1  34150  289.40 0854.92
2009/04/23 12:13:52.2     -75   -118    138    141    197 212.6  49.4  34152  289.45 0854.92
2009/04/23 12:13:52.3     -82    -19    100     85    131 256.7  55.8  34152  289.43 0854.92
2009/04/23 12:13:52.4    -306     42     70    309    317 277.9  12.9  34148  289.36 0854.92
2009/04/23 12:13:52.5    -323    128    -19    348    349 291.7  -3.2  34152  289.43 0854.90
2009/04/23 12:13:52.6     -71     77    -44    105    113 317.2 -28.0  34148  289.38 0854.90
2009/04/23 12:13:52.7     -45    -85     29     97    102 208.1  16.8  34146  289.33 0854.90
2009/04/23 12:13:52.8     -50   -293    165    298    340 189.8  31.4  34152  289.42 0854.90
2009/04/23 12:13:52.9    -127   -248    212    279    350 207.2  40.9  34152  289.45 0854.90
2009/04/23 12:13:53.0    -345   -132     79    370    379 249.0  12.2  34156  289.50 0854.90
2009/04/23 12:13:53.1    -253   -157     -3    298    299 238.2  -0.7  34152  289.44 0854.90
2009/04/23 12:13:53.2    -422   -139   -156    445    472 251.7 -19.4  34148  289.36 0854.90
2009/04/23 12:13:53.3    -239   -227    -63    331    338 226.5 -10.9  34154  289.48 0854.90
2009/04/23 12:13:53.4    -269     73      1    279    280 285.3   0.2  34158  289.54 0854.90
2009/04/23 12:13:53.5    -147    146     32    208    211 314.9   8.8  34156  289.52 0854.90
2009/04/23 12:13:53.6     -94     54   -114    109    157 299.8 -55.8  34156  289.52 0854.90
2009/04/23 12:13:53.7      44     87     97     98    137  27.2  50.0  34156  289.50 0854.90
2009/04/23 12:13:53.8      12   -104    172    105    201 173.3  66.0  34152  289.45 0854.90
2009/04/23 12:13:53.9      -1    -78    101     79    128 180.9  57.9  34154  289.48 0854.90
2009/04/23 12:13:54.0      43   -134    156    141    210 162.2  53.5  34148  289.36 0854.90
2009/04/23 12:13:54.1       4   -143    182    144    232 178.2  57.7  34148  289.36 0854.90
2009/04/23 12:13:54.2    -283   -108    169    303    346 249.1  31.6  34152  289.45 0854.90
2009/04/23 12:13:54.3    -309   -145     63    342    348 244.8  10.6  34140  289.23 0854.90
2009/04/23 12:13:54.4    -363    -41     32    366    368 263.5   5.1  34152  289.42 0854.90
2009/04/23 12:13:54.5    -194   -444    218    485    531 203.6  25.8  34150  289.39 0854.90
2009/04/23 12:13:54.6    -235   -516    115    567    579 204.5  11.5  34144  289.29 0854.90
2009/04/23 12:13:54.7    -272   -431    274    510    578 212.3  30.6  34138  289.19 0854.90
2009/04/23 12:13:54.8    -262   -296    225    396    455 221.5  32.1  34160  289.58 0854.90
2009/04/23 12:13:54.9    -252    -95    157    270    312 249.2  32.9  34154  289.47 0854.90
2009/04/23 12:13:55.0    -256     -7    124    257    285 268.3  27.3  34168  289.70 0854.90
2009/04/23 12:13:55.1      44     47    186     65    197  43.3  79.9  34176  289.84 0854.90
2009/04/23 12:13:55.2       0    -17     91     18     92 180.9  89.1  34182  289.94 0854.90
2009/04/23 12:13:55.3       7      8     75     11     75  39.6  90.0  34180  289.92 0854.90
2009/04/23 12:13:55.4     -19    -93     48     95    106 191.6  28.7  34166  289.67 0854.90
2009/04/23 12:13:55.5     -76    -11    154     77    172 261.2  71.9  34168  289.70 0854.90
2009/04/23 12:13:55.6    -185   -185    114    263    286 225.0  25.1  34158  289.53 0854.90
2009/04/23 12:13:55.7     -92   -113    -33    146    150 219.2 -12.9  34154  289.46 0854.90
2009/04/23 12:13:55.8    -240    -65      7    249    250 254.7   1.7  34150  289.39 0854.90
2009/04/23 12:13:55.9    -376   -182    -38    419    421 244.1  -5.3  34146  289.34 0854.90
2009/04/23 12:13:56.0    -438   -166    -67    469    474 249.2  -8.2  34146  289.32 0854.90
2009/04/23 12:13:56.1    -414   -159      2    444    445 249.0   0.4  34158  289.55 0854.90
2009/04/23 12:13:56.2    -404    -99    -80    416    424 256.2 -11.0  34152  289.44 0854.90
2009/04/23 12:13:56.3    -365    -66    -47    372    375 259.6  -7.2  34156  289.50 0854.90
2009/04/23 12:13:56.4    -248    -30     -1    250    251 263.0  -0.3  34160  289.56 0854.90
2009/04/23 12:13:56.5    -260    113     29    284    286 293.6   5.9  34162  289.59 0854.91
2009/04/23 12:13:56.6    -206     92    -65    226    236 294.2 -16.0  34168  289.70 0854.91
2009/04/23 12:13:56.7    -318    -56    -58    324    330 259.9 -10.2  34166  289.66 0854.91
2009/04/23 12:13:56.8    -306    -52     56    311    317 260.3  10.3  34162  289.59 0854.91
2009/04/23 12:13:56.9    -311   -263     91    408    419 229.7  12.6  34168  289.72 0854.91
2009/04/23 12:13:57.0    -251   -257    181    360    402 224.3  28.6  34158  289.55 0854.91
2009/04/23 12:13:57.1    -126   -260     83    290    302 205.9  16.1  34158  289.53 0854.91
2009/04/23 12:13:57.2     -26   -260    123    262    289 185.8  27.1  34156  289.49 0854.91
2009/04/23 12:13:57.3       8   -216     90    217    234 177.8  24.1  34150  289.41 0854.91
2009/04/23 12:13:57.4     -57   -568     56    571    574 185.8   5.7  34142  289.25 0854.91
2009/04/23 12:13:57.5     192   -539    150    573    593 160.3  14.7  34134  289.14 0854.91
2009/04/23 12:13:57.6     -67   -309    118    317    338 192.3  21.4  34124  288.96 0854.91
2009/04/23 12:13:57.7    -154   -170     97    230    249 222.1  24.2  34138  289.19 0854.91
2009/04/23 12:13:57.8    -222    -10    110    223    248 267.4  28.2  34142  289.27 0854.91
2009/04/23 12:13:57.9    -117     24    166    120    204 281.9  60.6  34146  289.33 0854.91
2009/04/23 12:13:58.0     -95     -5    151     96    178 267.0  64.7  34156  289.52 0854.91
2009/04/23 12:13:58.1    -156    -31    204    160    259 258.5  57.9  34152  289.43 0854.91
2009/04/23 12:13:58.2    -245   -116     43    272    276 244.7   9.0  34142  289.25 0854.91
2009/04/23 12:13:58.3    -480    -34   -146    482    504 265.9 -16.9  34110  288.74 0854.91
2009/04/23 12:13:58.4    -472     23   -156    473    499 272.9 -18.3  34116  288.83 0854.91
2009/04/23 12:13:58.5    -554     54   -171    557    582 275.6 -22.2  34118  288.85 0854.93
2009/04/23 12:13:58.6    -506     60   -165    510    536 276.8 -23.0  34126  289.01 0854.93
2009/04/23 12:13:58.7    -379     73    -91    387    398 280.9 -13.3  34132  289.11 0854.93
2009/04/23 12:13:58.8    -301    -20   -163    302    343 266.1 -35.1  34142  289.26 0854.93
2009/04/23 12:13:58.9    -404     65     33    410    412 279.2   4.7  34138  289.19 0854.93
2009/04/23 12:13:59.0    -330   -102     29    346    348 252.7   4.9  34146  289.33 0854.93
2009/04/23 12:13:59.1    -262   -211    -67    337    344 231.1 -11.3  34146  289.35 0854.93
2009/04/23 12:13:59.2    -176   -240    -27    299    301 216.3  -5.2  34150  289.41 0854.93
2009/04/23 12:13:59.3    -216   -377    -79    435    443 209.9 -10.4  34152  289.43 0854.93
2009/04/23 12:13:59.4     -65   -537    -38    542    544 187.0  -4.0  34152  289.45 0854.93
2009/04/23 12:13:59.5    -116   -318    -40    339    342 200.2  -6.9  34158  289.54 0854.93
2009/04/23 12:13:59.6    -106   -317    -18    335    336 198.5  -3.1  34156  289.52 0854.93
2009/04/23 12:13:59.7    -117   -289    -28    312    314 202.1  -5.2  34156  289.49 0854.93
2009/04/23 12:13:59.8    -160   -268     42    313    316 210.8   7.8  34156  289.51 0854.93
2009/04/23 12:13:59.9     -83   -276     59    289    296 196.7  11.6  34154  289.46 0854.93
2009/04/23 12:14:00.0    -181   -327     80    375    384 209.0  12.1  34158  289.55 0854.93
2009/04/23 12:14:00.1    -337   -199     22    392    393 239.5   3.2  34166  289.67 0854.93
2009/04/23 12:14:00.2    -401   -146     -1    428    429 249.9  -0.3  34170  289.75 0854.93
2009/04/23 12:14:00.3    -283    -86    -20    296    297 253.1  -3.9  34164  289.64 0854.93
2009/04/23 12:14:00.4    -323   -128    -62    348    354 248.3 -10.2  34168  289.71 0854.93
2009/04/23 12:14:00.5    -272   -100    -94    290    305 249.8 -18.0  34164  289.64 0854.94
2009/04/23 12:14:00.6    -177    -61    -72    188    201 250.9 -26.4  34160  289.57 0854.94
2009/04/23 12:14:00.7      97    -13    -53     98    111  97.9 -35.2  34168  289.72 0854.94
2009/04/23 12:14:00.8     375    -88    -21    386    387 103.3  -3.1  34162  289.59 0854.94
2009/04/23 12:14:00.9     298   -173    -44    345    348 120.2  -7.4  34150  289.40 0854.94
2009/04/23 12:14:01.0      87   -302    -45    315    319 164.0  -8.2  34150  289.39 0854.94
2009/04/23 12:14:01.1      89   -286    133    300    328 162.6  25.6  34146  289.34 0854.94
2009/04/23 12:14:01.2     136   -267     98    300    316 153.0  18.1  34146  289.32 0854.94
2009/04/23 12:14:01.3      72   -302    170    311    354 166.6  31.0  34142  289.26 0854.94
2009/04/23 12:14:01.4     204   -274    197    342    394 143.3  32.6  34138  289.21 0854.94
2009/04/23 12:14:01.5     210   -137    152    251    293 123.1  34.0  34138  289.19 0854.94
2009/04/23 12:14:01.6     130   -178    131    221    256 143.7  33.5  34136  289.15 0854.94
2009/04/23 12:14:01.7     -89   -206    129    225    259 203.4  32.4  34140  289.24 0854.94
2009/04/23 12:14:01.8     -86   -181    -18    201    202 205.6  -5.4  34138  289.21 0854.94
2009/04/23 12:14:01.9    -109   -141    -12    179    180 217.6  -3.9  34138  289.19 0854.94
2009/04/23 12:14:02.0    -126    -96   -105    159    190 232.7 -40.9  34136  289.16 0854.94
2009/04/23 12:14:02.1     -58    -64   -118     87    146 222.3 -64.9  34136  289.16 0854.94
2009/04/23 12:14:02.2      33   -196     -7    199    200 170.2  -2.2  34138  289.19 0854.94
2009/04/23 12:14:02.3      35   -162    -55    166    174 167.7 -23.8  34138  289.19 0854.94
2009/04/23 12:14:02.4      61   -301    -41    308    311 168.4  -7.7  34140  289.24 0854.94
2009/04/23 12:14:02.5     -13   -291    -82    292    303 182.7 -20.2  34140  289.22 0854.95
2009/04/23 12:14:02.6    -185   -316     31    367    369 210.3   4.9  34138  289.20 0854.95
2009/04/23 12:14:02.7     -29   -267    -10    269    270 186.2  -2.2  34144  289.29 0854.95
2009/04/23 12:14:02.8      48   -109      8    120    121 156.4   3.8  34142  289.28 0854.95
2009/04/23 12:14:02.9     -69   -109    123    130    178 212.5  48.2  34144  289.31 0854.95
2009/04/23 12:14:03.0     -67   -154    124    169    209 203.6  39.9  34142  289.26 0854.95
2009/04/23 12:14:03.1     -34   -207    225    210    307 189.3  52.2  34142  289.25 0854.95
2009/04/23 12:14:03.2    -103   -319    206    336    394 198.0  34.4  34136  289.15 0854.95
2009/04/23 12:14:03.3    -172   -314    237    359    430 208.7  36.5  34138  289.21 0854.95
2009/04/23 12:14:03.4     -40   -526    364    528    641 184.4  37.9  34130  289.08 0854.95
2009/04/23 12:14:03.5     -83   -560    308    567    645 188.5  30.9  34132  289.11 0854.95
2009/04/23 12:14:03.6     -79   -518    168    524    551 188.7  17.8  34130  289.06 0854.95
2009/04/23 12:14:03.7    -101   -352    190    367    413 196.0  29.4  34122  288.94 0854.95
2009/04/23 12:14:03.8      -2   -328    310    329    452 180.5  48.0  34136  289.17 0854.95
2009/04/23 12:14:03.9      92   -277    128    293    319 161.5  25.1  34134  289.12 0854.95
2009/04/23 12:14:04.0      92   -127     31    158    162 144.0  11.1  34128  289.04 0854.95
2009/04/23 12:14:04.1      30    -65     19     72     75 154.7  15.3  34134  289.13 0854.95
2009/04/23 12:14:04.2     -26    -33     35     43     55 218.7  43.7  34138  289.19 0854.95
2009/04/23 12:14:04.3      23    116     88    119    148  11.5  39.7  34144  289.30 0854.95
2009/04/23 12:14:04.4      42    106    100    115    152  21.8  45.8  34140  289.23 0854.95
2009/04/23 12:14:04.5      83    102    106    132    169  39.2  43.3  34142  289.28 0854.94
2009/04/23 12:14:04.6      96     62     67    115    133  57.1  33.5  34142  289.26 0854.94
2009/04/23 12:14:04.7      22     17    110     29    113  52.2  84.9  34138  289.21 0854.94
2009/04/23 12:14:04.8     216    -75    229    229    323 109.3  50.1  34136  289.15 0854.94
2009/04/23 12:14:04.9     274   -168    196    322    376 121.5  34.2  34136  289.16 0854.94
2009/04/23 12:14:05.0     453   -338    204    566    602 126.8  19.9  34134  289.12 0854.94
2009/04/23 12:14:05.1     252   -232    298    343    454 132.7  45.6  34132  289.11 0854.94
2009/04/23 12:14:05.2     255     -3    310    256    402  90.8  56.4  34138  289.21 0854.94
2009/04/23 12:14:05.3     249    -77    345    261    432 107.3  59.2  34142  289.25 0854.94
2009/04/23 12:14:05.4     196   -158    194    252    318 128.9  41.5  34130  289.07 0854.94
2009/04/23 12:14:05.5      33   -118     96    123    156 164.0  41.7  34130  289.08 0854.94
2009/04/23 12:14:05.6      35     -2    100     36    106  94.4  80.2  34136  289.16 0854.94
2009/04/23 12:14:05.7     110    -14     46    111    120  97.5  23.6  34126  288.99 0854.94
2009/04/23 12:14:05.8     145    -70      8    162    163 115.8   2.9  34130  289.08 0854.94
2009/04/23 12:14:05.9      88     37    -80     96    124  66.9 -48.2  34132  289.09 0854.94
2009/04/23 12:14:06.0     105     99    -29    145    148  46.9 -11.3  34126  289.01 0854.94
2009/04/23 12:14:06.1      21    115    115    118    164  10.7  49.8  34132  289.09 0854.94
2009/04/23 12:14:06.2      -1    112     25    113    116 359.1  12.6  34134  289.13 0854.94
2009/04/23 12:14:06.3     130    116     91    175    197  48.2  29.5  34128  289.02 0854.94
2009/04/23 12:14:06.4     291      0    288    292    410  89.9  49.9  34138  289.20 0854.94
2009/04/23 12:14:06.5      11     -5    148     13    148 115.3  90.0  34142  289.26 0854.91
2009/04/23 12:14:06.6       2    -41    182     42    186 176.4  87.5  34140  289.24 0854.91
2009/04/23 12:14:06.7     -45    -22    164     51    171 243.8  82.3  34142  289.28 0854.91
2009/04/23 12:14:06.8    -133     84    101    158    187 302.5  35.6  34138  289.19 0854.91
2009/04/23 12:14:06.9    -291     92    125    306    330 287.5  23.5  34136  289.15 0854.91
2009/04/23 12:14:07.0    -192    -81     88    209    226 246.9  24.1  34138  289.21 0854.91
2009/04/23 12:14:07.1    -171     64      8    183    184 290.6   2.8  34136  289.16 0854.91
2009/04/23 12:14:07.2    -127    127     20    180    182 315.1   6.5  34136  289.16 0854.91
2009/04/23 12:14:07.3    -151    -29     72    154    170 259.0  27.1  34136  289.18 0854.91
2009/04/23 12:14:07.4    -106     99    155    146    212 313.2  52.0  34142  289.28 0854.91
2009/04/23 12:14:07.5     -27    116    135    120    180 346.6  53.7  34148  289.36 0854.91
2009/04/23 12:14:07.6     -17     53    131     56    142 341.3  76.1  34148  289.36 0854.91
2009/04/23 12:14:07.7     -98    118    126    154    198 320.4  43.7  34158  289.55 0854.91
2009/04/23 12:14:07.8       8    273    206    274    342   1.8  40.8  34190  290.09 0854.91
2009/04/23 12:14:07.9     -74    325      9    334    335 347.1   1.7  34178  289.89 0854.91
2009/04/23 12:14:08.0    -200    364     21    416    417 331.1   3.0  34188  290.04 0854.91
2009/04/23 12:14:08.1    -279    269   -197    388    435 313.9 -33.6  34146  289.34 0854.91
2009/04/23 12:14:08.2    -259    244   -202    357    410 313.3 -36.4  34144  289.30 0854.91
2009/04/23 12:14:08.3     -91    276     68    291    299 341.7  13.2  34170  289.73 0854.91
2009/04/23 12:14:08.4      82    266     33    279    282  17.2   6.9  34166  289.66 0854.91
2009/04/23 12:14:08.5     107    269     36    290    293  21.9   7.1  34144  289.31 0854.91
2009/04/23 12:14:08.6     100     40     46    108    117  68.2  24.1  34154  289.46 0854.91
2009/04/23 12:14:08.7    -194   -120    184    229    293 238.2  43.0  34168  289.70 0854.91
2009/04/23 12:14:08.8    -281   -143    102    316    333 243.0  17.9  34176  289.83 0854.91
2009/04/23 12:14:08.9    -348   -191     58    398    403 241.2   8.3  34172  289.76 0854.91
2009/04/23 12:14:09.0    -130   -275    116    305    326 205.3  21.8  34144  289.29 0854.91
2009/04/23 12:14:09.1    -153   -255    149    298    333 211.0  28.5  34146  289.32 0854.91
2009/04/23 12:14:09.2    -169   -308    159    352    386 208.8  26.0  34154  289.48 0854.91
2009/04/23 12:14:09.3    -188   -307      4    361    362 211.5   0.7  34172  289.77 0854.91
2009/04/23 12:14:09.4     -94   -282    233    298    378 198.5  42.0  34142  289.28 0854.91
2009/04/23 12:14:09.5    -131   -293    262    322    415 204.1  43.4  34142  289.26 0854.91
2009/04/23 12:14:09.6    -186   -269    222    328    396 214.7  37.4  34142  289.26 0854.91
2009/04/23 12:14:09.7    -136   -217    118    257    282 212.1  26.2  34140  289.24 0854.91
2009/04/23 12:14:09.8    -154   -326    220    361    422 205.4  34.4  34136  289.17 0854.91
2009/04/23 12:14:09.9    -380   -350    -52    517    520 227.4  -5.8  34192  290.11 0854.91
2009/04/23 12:14:10.0    -335   -465    -11    574    575 215.8  -1.1  34174  289.81 0854.91
2009/04/23 12:14:10.1    -315   -437    109    539    550 215.8  11.5  34162  289.62 0854.91
2009/04/23 12:14:10.2    -210   -318    158    382    413 213.4  23.7  34140  289.24 0854.91
2009/04/23 12:14:10.3      -2   -284    173    285    333 180.5  34.1  34144  289.31 0854.91
2009/04/23 12:14:10.4     -51   -357    310    361    475 188.3  45.1  34144  289.29 0854.91
2009/04/23 12:14:10.5    -117   -352    287    372    469 198.5  41.5  34144  289.29 0854.91
2009/04/23 12:14:10.6    -112   -379    304    396    499 196.5  41.4  34142  289.28 0854.91
2009/04/23 12:14:10.7    -100   -437    315    449    548 192.9  38.6  34138  289.20 0854.91
2009/04/23 12:14:10.8    -340   -439    270    556    618 217.8  27.8  34144  289.29 0854.91
2009/04/23 12:14:10.9    -293   -434    113    524    537 214.1  12.2  34156  289.50 0854.91
2009/04/23 12:14:11.0    -204   -320    160    380    412 212.5  24.2  34142  289.28 0854.91
2009/04/23 12:14:11.1    -135   -487    200    506    544 195.6  22.9  34138  289.19 0854.91
2009/04/23 12:14:11.2    -143   -498    214    519    561 196.1  23.7  34148  289.38 0854.91
2009/04/23 12:14:11.3    -135   -509    187    527    559 194.9  20.4  34144  289.29 0854.91
2009/04/23 12:14:11.4    -166   -414    150    447    472 201.9  18.6  34142  289.27 0854.91
2009/04/23 12:14:11.5    -231   -482    105    535    546 205.6  11.1  34148  289.36 0854.91
2009/04/23 12:14:11.6    -271   -469    153    542    564 210.0  15.8  34144  289.29 0854.91
2009/04/23 12:14:11.7    -277   -464    123    541    555 210.8  12.9  34132  289.11 0854.91
2009/04/23 12:14:11.8    -248   -419    237    487    541 210.7  27.8  34148  289.36 0854.91
2009/04/23 12:14:11.9    -306   -481    164    571    595 212.5  16.0  34146  289.32 0854.91
2009/04/23 12:14:12.0    -290   -462    188    546    578 212.1  19.1  34146  289.35 0854.91
2009/04/23 12:14:12.1    -338   -489    119    595    607 214.7  11.3  34142  289.25 0854.91
2009/04/23 12:14:12.2    -274   -428    140    509    529 212.6  15.4  34150  289.41 0854.91
2009/04/23 12:14:12.3    -272   -541    191    606    636 206.7  17.5  34146  289.33 0854.91
2009/04/23 12:14:12.4    -181   -212    230    279    361 220.5  43.7  34148  289.38 0854.91
2009/04/23 12:14:12.5    -116   -225    209    254    328 207.4  43.7  34144  289.31 0854.91
2009/04/23 12:14:12.6    -112   -247    254    272    372 204.5  47.9  34138  289.20 0854.91
2009/04/23 12:14:12.7     -62   -282    293    289    411 192.5  50.4  34140  289.23 0854.91
2009/04/23 12:14:12.8     -79   -388    242    397    464 191.6  34.3  34138  289.19 0854.91
2009/04/23 12:14:12.9    -122   -425    130    443    462 196.0  16.4  34136  289.17 0854.91
2009/04/23 12:14:13.0     -27   -347    157    349    382 184.5  26.0  34130  289.06 0854.91
2009/04/23 12:14:13.1    -105   -369    247    384    456 195.9  35.6  34138  289.21 0854.91
2009/04/23 12:14:13.2       0   -376    276    377    467 180.1  39.7  34134  289.12 0854.91
2009/04/23 12:14:13.3     190   -345    248    394    465 151.2  35.5  34140  289.24 0854.91
2009/04/23 12:14:13.4      13   -422    295    423    515 178.2  38.4  34136  289.17 0854.91
2009/04/23 12:14:13.5     144   -287    243    322    403 153.3  40.8  34130  289.06 0854.92
2009/04/23 12:14:13.6     274   -257     52    376    380 133.1   7.9  34136  289.18 0854.92
2009/04/23 12:14:13.7      55   -277     92    283    298 168.7  18.1  34132  289.09 0854.92
2009/04/23 12:14:13.8      60   -483     89    487    496 172.9  10.4  34130  289.06 0854.92
2009/04/23 12:14:13.9     -45   -368     82    371    381 187.1  12.5  34132  289.10 0854.92
2009/04/23 12:14:14.0      67   -324    136    332    358 168.2  23.5  34136  289.15 0854.92
2009/04/23 12:14:14.1     118   -258    132    284    313 155.3  26.6  34128  289.03 0854.92
2009/04/23 12:14:14.2      88   -262    158    277    318 161.3  32.3  34132  289.10 0854.92
2009/04/23 12:14:14.3     -19   -146    209    148    256 187.6  61.3  34132  289.09 0854.92
2009/04/23 12:14:14.4     -23   -131    197    134    238 190.2  62.6  34136  289.18 0854.92
2009/04/23 12:14:14.5      24     64    136     69    152  20.9  71.4  34140  289.23 0854.92
2009/04/23 12:14:14.6      -7     86     91     87    125 355.1  51.2  34136  289.16 0854.92
2009/04/23 12:14:14.7    -182    -49    162    189    248 254.9  44.8  34134  289.14 0854.92
2009/04/23 12:14:14.8     -96    254   -112    272    294 339.3 -28.0  34134  289.12 0854.92
2009/04/23 12:14:14.9    -105    310    -94    328    341 341.3 -20.7  34120  288.91 0854.92
2009/04/23 12:14:15.0     129    431     -9    450    451  16.7  -1.2  34134  289.12 0854.92
2009/04/23 12:14:15.2     253    426    176    496    526  30.7  20.4  34120  288.88 0854.92
2009/04/23 12:14:15.2     152    208    287    258    385  36.1  53.5  34130  289.06 0854.92
2009/04/23 12:14:15.3     -36    -31    246     48    250 228.7  89.4  34142  289.28 0854.92
2009/04/23 12:14:15.4     148    -48    214    156    264 108.2  60.5  34136  289.15 0854.92
2009/04/23 12:14:15.5     244   -168    196    297    355 124.6  36.6  34132  289.11 0854.93
2009/04/23 12:14:15.6     216   -258    116    337    357 140.0  19.1  34136  289.18 0854.93
2009/04/23 12:14:15.8     215   -102      2    239    240 115.5   0.5  34136  289.17 0854.93
2009/04/23 12:14:15.9      76   -153    -24    172    174 153.5  -8.2  34134  289.14 0854.93
2009/04/23 12:14:16.0     235    -93    -32    253    256 111.7  -7.3  34126  289.00 0854.93
2009/04/23 12:14:16.1     103   -126    -44    163    169 140.8 -15.2  34134  289.14 0854.93
2009/04/23 12:14:16.2      26    -78   -114     83    141 161.5 -64.9  34130  289.06 0854.93
2009/04/23 12:14:16.3      38    -45    -29     60     66 139.5 -31.6  34134  289.14 0854.93
2009/04/23 12:14:16.4      59    -92     56    110    123 147.5  29.3  34134  289.14 0854.93
2009/04/23 12:14:16.5      84   -268    219    281    356 162.6  41.9  34128  289.03 0854.93
2009/04/23 12:14:16.6     190   -261    265    324    418 143.9  43.6  34126  289.01 0854.93
2009/04/23 12:14:16.7     294   -248    253    385    460 130.2  36.4  34128  289.02 0854.93
2009/04/23 12:14:16.8     200   -229    269    305    406 138.8  45.9  34130  289.06 0854.93
2009/04/23 12:14:16.9     -47   -202    216    208    299 193.1  51.2  34134  289.14 0854.93
2009/04/23 12:14:17.0      14   -137    187    138    232 173.8  60.5  34128  289.04 0854.93
2009/04/23 12:14:17.1     -50   -230    287    236    371 192.3  56.4  34134  289.13 0854.93
2009/04/23 12:14:17.2      32    -54    193     63    203 149.3  81.0  34138  289.21 0854.93
2009/04/23 12:14:17.3    -115   -242    222    269    348 205.5  43.7  34128  289.03 0854.93
2009/04/23 12:14:17.4      19    -19    182     27    183 134.9  90.0  34138  289.21 0854.93
2009/04/23 12:14:17.5     149     21    147    151    210  82.0  49.4  34136  289.18 0854.93
2009/04/23 12:14:17.6     -70    -15    144     72    160 257.6  71.7  34142  289.26 0854.95
2009/04/23 12:14:17.7    -214    -81    236    229    328 249.2  50.9  34140  289.24 0854.95
2009/04/23 12:14:17.8    -149    -16    204    150    253 263.8  60.3  34148  289.38 0854.95
2009/04/23 12:14:17.9    -241    -81    160    255    301 251.4  35.5  34144  289.29 0854.95
2009/04/23 12:14:18.0      59   -138    238    151    281 156.8  64.7  34142  289.25 0854.95
2009/04/23 12:14:18.1     185   -206    258    277    378 138.1  47.9  34130  289.06 0854.95
2009/04/23 12:14:18.2     187   -331    144    381    407 150.6  21.7  34130  289.08 0854.95
2009/04/23 12:14:18.3      18   -238    189    239    304 175.6  42.7  34134  289.14 0854.95
2009/04/23 12:14:18.4     173   -364    327    404    519 154.5  43.1  34134  289.13 0854.95
2009/04/23 12:14:18.5     199   -364    305    416    515 151.3  39.8  34130  289.08 0854.95
2009/04/23 12:14:18.6     174   -422    350    457    575 157.5  41.3  34134  289.13 0854.95
2009/04/23 12:14:18.7     282   -280    138    398    422 134.8  19.2  34128  289.04 0854.95
2009/04/23 12:14:18.8     205   -226     83    306    318 137.7  15.2  34132  289.10 0854.95
2009/04/23 12:14:18.9      87   -283    199    297    357 162.8  37.2  34130  289.06 0854.95
2009/04/23 12:14:19.0      85   -301    252    313    401 164.2  43.0  34130  289.08 0854.95
2009/04/23 12:14:19.1     142   -242    190    281    339 149.5  37.2  34134  289.14 0854.95
2009/04/23 12:14:19.2     243   -284    210    374    428 139.5  31.9  34132  289.11 0854.95
2009/04/23 12:14:19.3     188   -302    198    356    407 148.1  31.5  34132  289.11 0854.95
2009/04/23 12:14:19.4     170   -313    230    357    424 151.4  35.6  34130  289.05 0854.95
2009/04/23 12:14:19.5     275   -274    148    389    416 134.8  21.8  34132  289.09 0854.95
2009/04/23 12:14:19.6     299   -313    118    433    449 136.3  15.3  34130  289.07 0854.98
2009/04/23 12:14:19.7     313   -293    168    429    460 133.1  22.8  34128  289.02 0854.98
2009/04/23 12:14:19.8     302   -325    192    445    484 137.1  24.9  34126  289.00 0854.98
2009/04/23 12:14:19.9     377   -278    216    469    516 126.4  26.5  34130  289.05 0854.98
2009/04/23 12:14:20.0     410   -269    187    491    525 123.3  21.8  34128  289.03 0854.98
2009/04/23 12:14:20.1     437   -194    197    479    517 114.0  23.6  34134  289.12 0854.98
2009/04/23 12:14:20.2     378   -164    250    413    482 113.5  34.0  34130  289.07 0854.98
2009/04/23 12:14:20.3     388   -209    267    441    515 118.4  34.1  34134  289.12 0854.98
2009/04/23 12:14:20.4     354   -178    183    397    437 116.8  26.5  34132  289.11 0854.98
2009/04/23 12:14:20.5     289   -254    188    385    428 131.3  27.9  34126  288.99 0854.98
2009/04/23 12:14:20.6     291   -324    197    436    478 138.1  26.0  34130  289.08 0854.98
2009/04/23 12:14:20.7     315   -271    246    416    483 130.7  33.5  34134  289.12 0854.98
2009/04/23 12:14:20.8     314   -258    244    407    474 129.5  33.7  34128  289.02 0854.98
2009/04/23 12:14:20.9     268   -217    125    346    367 129.0  20.7  34128  289.03 0854.98
2009/04/23 12:14:21.0     298   -218    123    370    390 126.1  18.4  34134  289.13 0854.98
2009/04/23 12:14:21.1     275   -311    145    416    441 138.6  19.3  34130  289.07 0854.98
2009/04/23 12:14:21.2     237   -264    137    355    380 138.1  22.3  34130  289.08 0854.98
2009/04/23 12:14:21.3     151   -316    308    351    466 154.5  45.8  34134  289.14 0854.98
2009/04/23 12:14:21.4     119   -203    130    236    269 149.7  31.4  34138  289.19 0854.98
2009/04/23 12:14:21.5     326   -220     60    394    399 124.0   8.7  34132  289.11 0854.98
2009/04/23 12:14:21.6     218   -264     39    343    346 140.4   6.6  34126  288.99 0854.98
2009/04/23 12:14:21.7      94   -345    195    358    407 164.7  30.9  34132  289.11 0854.98
2009/04/23 12:14:21.8     116   -372     75    390    398 162.6  11.0  34132  289.11 0854.98
2009/04/23 12:14:21.9     173   -287     10    336    337 149.0   1.8  34136  289.15 0854.98
2009/04/23 12:14:22.0     163   -327     21    366    367 153.5   3.3  34132  289.11 0854.98
2009/04/23 12:14:22.1      96   -357    113    370    388 164.8  17.0  34136  289.15 0854.98
2009/04/23 12:14:22.2     120   -297    111    321    340 157.9  19.2  34136  289.16 0854.98
2009/04/23 12:14:22.3      78   -263    102    275    293 163.3  21.0  34138  289.19 0854.98
2009/04/23 12:14:22.4      77   -221     77    235    248 160.8  18.1  34136  289.15 0854.98
2009/04/23 12:14:22.5     179   -140      3    228    229 128.0   1.0  34136  289.16 0854.98
2009/04/23 12:14:22.6     138   -178    -19    226    227 142.2  -4.9  34134  289.14 0854.98
2009/04/23 12:14:22.7     117   -159    -21    198    200 143.7  -6.2  34134  289.14 0854.98
2009/04/23 12:14:22.8      79   -221    -29    235    237 160.2  -7.2  34134  289.14 0854.98
2009/04/23 12:14:22.9      84   -260    -57    274    281 162.1 -11.9  34134  289.14 0854.98
2009/04/23 12:14:23.0       6   -347   -108    348    365 179.0 -17.3  34138  289.21 0854.98
2009/04/23 12:14:23.1      88   -360    -57    371    376 166.2  -8.8  34134  289.13 0854.98
2009/04/23 12:14:23.2      47   -371    -42    375    378 172.7  -6.5  34136  289.18 0854.98
2009/04/23 12:14:23.3     168   -313    -84    356    366 151.7 -13.4  34132  289.11 0854.98
2009/04/23 12:14:23.4     132   -486   -123    504    519 164.8 -13.8  34140  289.22 0854.98
2009/04/23 12:14:23.5     140   -421    -73    444    451 161.5  -9.4  34132  289.09 0854.98
2009/04/23 12:14:23.6     105   -325   -124    342    363 162.1 -25.3  34132  289.11 0854.97
2009/04/23 12:14:23.7     118   -388   -134    406    428 163.1 -18.3  34138  289.21 0854.97
2009/04/23 12:14:23.8     121   -378    -79    398    406 162.2 -11.3  34138  289.19 0854.97
2009/04/23 12:14:23.9      74   -421    -63    428    433 170.0  -8.4  34138  289.19 0854.97
2009/04/23 12:14:24.0     153   -560    -52    581    584 164.7  -5.2  34138  289.19 0854.97
2009/04/23 12:14:24.1     197   -516    -30    553    554 159.1  -3.2  34140  289.23 0854.97
2009/04/23 12:14:24.2     328   -458    109    564    575 144.4  11.0  34136  289.17 0854.97
2009/04/23 12:14:24.3     245   -507     95    564    573 154.2   9.6  34142  289.27 0854.97
2009/04/23 12:14:24.4     198   -531    129    567    582 159.5  12.9  34148  289.36 0854.97
2009/04/23 12:14:24.5     126   -498    191    514    548 165.7  21.5  34140  289.23 0854.97
2009/04/23 12:14:24.6     267   -481     30    551    552 151.0   3.1  34132  289.09 0854.97
2009/04/23 12:14:24.7     307   -491     29    580    581 148.0   2.9  34130  289.05 0854.97
2009/04/23 12:14:24.8     262   -490    159    556    579 151.9  16.0  34130  289.07 0854.97
2009/04/23 12:14:24.9     222   -431    230    486    537 152.7  27.1  34130  289.06 0854.97
2009/04/23 12:14:25.0     237   -581    111    628    638 157.8  10.1  34136  289.15 0854.97
2009/04/23 12:14:25.1     184   -525     28    557    558 160.7   2.9  34136  289.18 0854.97
2009/04/23 12:14:25.2     128   -431     79    450    458 163.4  10.0  34130  289.07 0854.97
2009/04/23 12:14:25.3     114   -351     66    370    377 162.0  10.2  34136  289.16 0854.97
2009/04/23 12:14:25.4     156   -340     46    375    378 155.3   7.1  34132  289.10 0854.97
2009/04/23 12:14:25.5     149   -365     92    395    406 157.8  13.1  34136  289.18 0854.97
2009/04/23 12:14:25.6     241   -349     56    425    429 145.4   7.6  34128  289.02 0854.96
2009/04/23 12:14:25.7     148   -326    172    359    398 155.5  27.3  34128  289.04 0854.96
2009/04/23 12:14:25.8     126   -236    256    268    370 151.9  48.6  34130  289.06 0854.96
2009/04/23 12:14:25.9      17   -219    193    220    292 175.3  45.8  34136  289.15 0854.96
2009/04/23 12:14:26.0     119    -86    183    148    235 125.9  57.1  34136  289.16 0854.96
2009/04/23 12:14:26.1     270    -30    130    272    301  96.4  27.3  34136  289.17 0854.96
2009/04/23 12:14:26.2     170    -78      5    188    189 114.8   1.8  34136  289.16 0854.96
2009/04/23 12:14:26.3     167    -77     50    184    191 114.8  15.3  34136  289.18 0854.96
2009/04/23 12:14:26.4     139    -50     57    148    158 110.0  22.0  34138  289.19 0854.96
2009/04/23 12:14:26.5     129     20      6    131    132  80.8   2.8  34138  289.19 0854.96
2009/04/23 12:14:26.6      74     78    -22    108    111  43.7 -11.9  34134  289.13 0854.96
2009/04/23 12:14:26.7      65    137    -21    152    154  25.5  -8.0  34138  289.21 0854.96
2009/04/23 12:14:26.8      81     86    -41    119    126  43.2 -19.1  34138  289.19 0854.96
2009/04/23 12:14:26.9      30    -58     70     66     96 152.8  51.2  34136  289.18 0854.96
2009/04/23 12:14:27.0      49      0     42     50     65  90.0  43.8  34138  289.21 0854.96
2009/04/23 12:14:27.1      50     50     53     72     89  45.0  40.1  34136  289.16 0854.96
2009/04/23 12:14:27.2      68    184     32    197    200  20.5   9.5  34138  289.21 0854.96
2009/04/23 12:14:27.3      99    104     68    144    159  43.7  27.2  34138  289.21 0854.96
2009/04/23 12:14:27.4     145    109     30    182    185  53.1   9.5  34142  289.26 0854.96
2009/04/23 12:14:27.5     134    122     49    182    189  47.6  15.3  34138  289.21 0854.96
2009/04/23 12:14:27.6      26    185    -15    187    188   8.0  -4.9  34142  289.26 0854.96
2009/04/23 12:14:27.7     -60    165    -96    176    200 340.0 -35.4  34150  289.41 0854.96
2009/04/23 12:14:27.8    -126    123   -155    177    235 314.2 -50.2  34148  289.36 0854.96
2009/04/23 12:14:27.9    -118    118   -186    167    249 315.0 -57.9  34144  289.30 0854.96
2009/04/23 12:14:28.0    -160    193    -37    251    254 320.4  -8.6  34146  289.32 0854.96
2009/04/23 12:14:28.1       8    267    -53    268    274   1.8 -11.3  34134  289.14 0854.96
2009/04/23 12:14:28.2      71    163     64    179    190  23.6  20.0  34144  289.30 0854.96
2009/04/23 12:14:28.3     135     66     52    151    160  63.8  19.2  34154  289.46 0854.96
2009/04/23 12:14:28.4      99    136    -51    169    177  36.1 -17.0  34152  289.45 0854.96
2009/04/23 12:14:28.5     129    167    -27    212    214  37.8  -7.3  34180  289.91 0854.96
2009/04/23 12:14:28.6     204    254    133    327    353  38.8  23.4  34232  290.81 0854.96
2009/04/23 12:14:28.7     201    310    131    370    393  33.0  19.5  34230  290.76 0854.96
2009/04/23 12:14:28.8     207    322    119    383    402  32.8  17.3  34212  290.45 0854.96
2009/04/23 12:14:28.9     115    413    -30    429    431  15.6  -4.1  34176  289.83 0854.96
2009/04/23 12:14:29.0     113    338     11    357    358  18.5   1.9  34198  290.23 0854.96
2009/04/23 12:14:29.1     294    359    -14    465    466  39.3  -1.8  34232  290.79 0854.96
2009/04/23 12:14:29.2     269    211      0    343    344  51.9   0.1  34226  290.69 0854.96
2009/04/23 12:14:29.3      93    215    -64    235    243  23.4 -20.0  34218  290.54 0854.96
2009/04/23 12:14:29.4     240    186     -6    304    305  52.2  -1.2  34240  290.92 0854.96
2009/04/23 12:14:29.5     164    144     44    219    224  48.7  11.6  34220  290.58 0854.96
2009/04/23 12:14:29.6     134     85     77    160    177  57.5  27.3  34216  290.53 0854.96
2009/04/23 12:14:29.7     113     98     65    150    163  49.1  24.6  34226  290.69 0854.96
2009/04/23 12:14:29.8     109    -36     67    116    133 108.6  33.4  34228  290.72 0854.96
2009/04/23 12:14:29.9     184    -73     70    199    212 111.8  19.4  34220  290.58 0854.96
2009/04/23 12:14:30.0      64     -7     99     65    118  97.0  63.6  34214  290.50 0854.96
2009/04/23 12:14:30.1      37      0    133     38    138  90.0  84.4  34220  290.60 0854.96
2009/04/23 12:14:30.2     113     47    141    123    187  67.4  54.6  34252  291.13 0854.96
2009/04/23 12:14:30.3     146    116     89    187    207  51.6  27.2  34254  291.18 0854.96
2009/04/23 12:14:30.4     211    134     92    251    267  57.5  21.0  34270  291.43 0854.96
2009/04/23 12:14:30.5     265    126    107    294    312  64.6  20.8  34286  291.70 0854.96
2009/04/23 12:14:30.6     340    224    130    408    429  56.7  17.7  34262  291.31 0854.96
2009/04/23 12:14:30.7     443    208    115    490    504  64.8  13.3  34248  291.08 0854.96
2009/04/23 12:14:30.8     311    242    162    395    426  52.2  23.5  34200  290.26 0854.96
2009/04/23 12:14:30.9     347    220     60    411    416  57.6   8.3  34220  290.58 0854.96
2009/04/23 12:14:31.0     230    308    100    385    398  36.8  14.7  34204  290.32 0854.96
2009/04/23 12:14:31.1     234    349     72    421    428  33.8   9.7  34156  289.51 0854.96
2009/04/23 12:14:31.2     203    472     85    514    522  23.3   9.4  34202  290.30 0854.96
2009/04/23 12:14:31.3     445    334     67    557    562  53.1   6.9  34262  291.30 0854.96
2009/04/23 12:14:31.4     347    241    134    423    444  55.2  17.7  34276  291.55 0854.96
2009/04/23 12:14:31.5     195    356    -62    407    412  28.7  -8.7  34228  290.73 0854.96
2009/04/23 12:14:31.6     218    341    -15    405    406  32.6  -2.2  34236  290.85 0854.93
2009/04/23 12:14:31.7     176    265    -95    319    333  33.6 -16.6  34240  290.93 0854.93
2009/04/23 12:14:31.8     166    226    -29    281    283  36.3  -6.0  34230  290.75 0854.93
2009/04/23 12:14:31.9     121    197    -12    232    233  31.6  -3.2  34232  290.79 0854.93
2009/04/23 12:14:32.0      22    247    -45    249    254   5.1 -10.4  34260  291.26 0854.93
2009/04/23 12:14:32.1      52    273     17    279    280  10.9   3.6  34246  291.04 0854.93
2009/04/23 12:14:32.2     241    275    -26    366    367  41.3  -4.1  34212  290.45 0854.93
2009/04/23 12:14:32.3     308    236     51    389    393  52.5   7.6  34262  291.32 0854.93
2009/04/23 12:14:32.4     292    199    123    354    375  55.6  19.2  34270  291.45 0854.93
2009/04/23 12:14:32.5     239    222    -42    327    330  47.1  -7.3  34260  291.28 0854.93
2009/04/23 12:14:32.6     342    125     86    365    376  70.0  13.3  34216  290.52 0854.93
2009/04/23 12:14:32.7     379    122     -3    399    400  72.1  -0.5  34222  290.62 0854.93
2009/04/23 12:14:32.8     399     87     96    409    421  77.6  13.3  34254  291.16 0854.93
2009/04/23 12:14:32.9     413    132     94    434    445  72.2  12.3  34254  291.18 0854.93
2009/04/23 12:14:33.0     485     73    194    491    527  81.4  22.9  34262  291.30 0854.93
2009/04/23 12:14:33.1     488    -34    101    490    501  94.0  11.7  34216  290.52 0854.93
2009/04/23 12:14:33.2     399    -81     80    408    416 101.5  11.1  34254  291.16 0854.93
2009/04/23 12:14:33.3     352     71    -18    360    361  78.5  -3.0  34208  290.38 0854.93
2009/04/23 12:14:33.4     302     46    -92    306    319  81.2 -21.7  34206  290.36 0854.93
2009/04/23 12:14:33.5     235    -17    -67    236    245  94.3 -20.7  34198  290.20 0854.93
2009/04/23 12:14:33.6     283    139      6    316    317  63.8   1.2  34202  290.27 0854.92
2009/04/23 12:14:33.7     268    127      9    297    298  64.6   1.8  34208  290.39 0854.92
2009/04/23 12:14:33.8     287     77    -20    298    299  75.0  -3.9  34196  290.19 0854.92
2009/04/23 12:14:33.9     217     72     -8    229    230  71.4  -2.2  34202  290.30 0854.92
2009/04/23 12:14:34.0     216     72    -63    228    237  71.6 -15.5  34184  289.97 0854.92
2009/04/23 12:14:34.1     116     55    -53    129    139  64.7 -27.5  34194  290.16 0854.92
2009/04/23 12:14:34.2     106     35    -32    112    116  71.4 -21.2  34208  290.38 0854.92
2009/04/23 12:14:34.3      55     50   -102     75    126  47.8 -64.9  34182  289.96 0854.92
2009/04/23 12:14:34.4     -79    -18    -91     82    122 256.7 -57.7  34184  289.97 0854.92
2009/04/23 12:14:34.5     -29    -32    -63     44     76 222.3 -67.0  34188  290.04 0854.92
2009/04/23 12:14:34.6     -20    -20    -54     29     61 225.0 -73.3  34188  290.04 0854.89
2009/04/23 12:14:34.7    -106    -15    -62    108    124 262.0 -37.3  34182  289.94 0854.89
2009/04/23 12:14:34.8    -123    -34    -35    128    133 254.5 -15.5  34184  289.97 0854.89
2009/04/23 12:14:34.9    -121    -44    -33    129    134 250.0 -14.5  34192  290.13 0854.89
2009/04/23 12:14:35.0     -93    -67     -9    115    116 234.1  -4.6  34200  290.25 0854.89
2009/04/23 12:14:35.1     -81    -76     56    112    125 226.9  28.7  34208  290.40 0854.89
2009/04/23 12:14:35.2     -69    -43     32     82     88 237.6  22.0  34220  290.60 0854.89
2009/04/23 12:14:35.3     -48    -18     39     52     65 249.2  39.7  34224  290.67 0854.89
2009/04/23 12:14:35.4     -50      3     61     51     79 273.5  55.8  34220  290.60 0854.89
2009/04/23 12:14:35.5    -119    -82    102    145    177 235.4  38.6  34224  290.67 0854.89
2009/04/23 12:14:35.6    -195     -7    140    196    240 267.9  38.8  34220  290.58 0854.89
2009/04/23 12:14:35.7    -190    -37     99    194    217 258.8  29.2  34216  290.52 0854.89
2009/04/23 12:14:35.8    -161    -36     66    165    177 257.4  23.0  34208  290.40 0854.89
2009/04/23 12:14:35.9    -150    -45     26    157    160 253.1   9.5  34206  290.35 0854.89
2009/04/23 12:14:36.0    -125    -57      7    138    139 245.6   2.9  34196  290.18 0854.89
2009/04/23 12:14:36.1    -113    -52     22    125    127 245.2  10.1  34196  290.18 0854.89
2009/04/23 12:14:36.2    -117    -22     23    120    123 259.0  11.0  34198  290.23 0854.89
2009/04/23 12:14:36.3    -167    -50     -3    175    176 253.4  -1.2  34192  290.11 0854.89
2009/04/23 12:14:36.4    -205    -26    -26    207    209 262.5  -7.3  34196  290.19 0854.89
2009/04/23 12:14:36.5    -176    -47    -21    183    185 254.9  -6.7  34186  290.02 0854.89
2009/04/23 12:14:36.6    -128    -30      1    132    133 256.7   0.7  34196  290.18 0854.86
2009/04/23 12:14:36.7     -76     23     -3     80     81 286.8  -2.2  34202  290.28 0854.86
2009/04/23 12:14:36.8     -84     30     14     90     92 290.0   9.0  34206  290.35 0854.86
2009/04/23 12:14:36.9     -63     54     33     84     90 310.9  22.0  34212  290.45 0854.86
2009/04/23 12:14:37.0     -74     38      0     84     85 297.1   0.2  34204  290.33 0854.86
2009/04/23 12:14:37.1     -72     79     12    107    108 317.7   6.9  34210  290.41 0854.86
2009/04/23 12:14:37.2     -40     36     83     54     99 312.2  64.1  34212  290.47 0854.86
2009/04/23 12:14:37.3     -20     37     54     43     69 331.0  56.4  34206  290.36 0854.86
2009/04/23 12:14:37.4       7     21     48     23     53  18.5  72.9  34208  290.40 0854.86
2009/04/23 12:14:37.5      42     55     15     70     72  37.8  12.2  34212  290.45 0854.86
2009/04/23 12:14:37.6      94     52     37    108    115  61.1  18.9  34190  290.09 0854.86
2009/04/23 12:14:37.7     120     48     25    130    133  68.3  11.0  34186  290.02 0854.86
2009/04/23 12:14:37.8      33     42     59     54     79  38.7  52.2  34200  290.26 0854.86
2009/04/23 12:14:37.9      28     32     47     43     63  41.4  52.2  34208  290.40 0854.86
2009/04/23 12:14:38.0     100     61     18    118    120  58.5   9.0  34210  290.43 0854.86
2009/04/23 12:14:38.1      98    140    115    171    206  35.0  37.4  34228  290.72 0854.86
2009/04/23 12:14:38.2      43    278    144    282    316   8.9  29.3  34244  291.00 0854.86
2009/04/23 12:14:38.3     -51    298    178    303    351 350.3  33.3  34268  291.40 0854.86
2009/04/23 12:14:38.4    -123    232    185    263    321 332.0  38.6  34268  291.39 0854.86
2009/04/23 12:14:38.5    -167    285    181    331    377 329.6  31.3  34254  291.17 0854.86
2009/04/23 12:14:38.6    -152    207    190    258    320 323.7  40.0  34248  291.05 0854.91
2009/04/23 12:14:38.7     -93    162    171    187    253 330.1  47.7  34248  291.07 0854.91
2009/04/23 12:14:38.8       1    121    135    122    181   0.9  53.0  34232  290.81 0854.91
2009/04/23 12:14:38.9    -112    -11     22    113    116 264.3  11.0  34252  291.13 0854.91
2009/04/23 12:14:39.0     -11    -39   -128     41    134 196.0 -85.1  34238  290.89 0854.91
2009/04/23 12:14:39.1     157    -45   -107    164    195 106.2 -40.7  34208  290.40 0854.91
2009/04/23 12:14:39.2     -60   -164   -134    175    220 200.3 -45.8  34222  290.62 0854.91
2009/04/23 12:14:39.3     -14   -123   -215    124    248 186.7 -72.1  34264  291.35 0854.91
2009/04/23 12:14:39.4    -112    -27   -258    116    282 256.3 -78.4  34140  289.22 0854.91
2009/04/23 12:14:39.5      64    194   -259    205    330  18.5 -62.0  34154  289.46 0854.91
2009/04/23 12:14:39.6      28    120   -285    124    310  13.4 -79.4  34162  289.61 0854.91
2009/04/23 12:14:39.7      78     35   -205     86    222  65.6 -80.7  34156  289.50 0854.91
2009/04/23 12:14:39.8     215     58    -65    223    232  74.9 -21.2  34206  290.35 0854.91
2009/04/23 12:14:39.9     685     89    101    691    699  82.6   8.3  34248  291.05 0854.91
2009/04/23 12:14:40.0     708     49    145    710    726  86.0  11.6  34242  290.96 0854.91
2009/04/23 12:14:40.1     579     89     44    586    588  81.2   4.4  34214  290.49 0854.91
2009/04/23 12:14:40.2     484     34    118    486    501  85.9  13.7  34228  290.74 0854.91
2009/04/23 12:14:40.3     520     -2    222    521    566  90.3  24.5  34198  290.21 0854.91
2009/04/23 12:14:40.4     429    -76    154    436    462 100.1  20.2  34194  290.16 0854.91
2009/04/23 12:14:40.5     422    -82    265    430    505 101.0  34.6  34198  290.22 0854.91
2009/04/23 12:14:40.6     260   -263     96    371    384 135.4  14.5  34208  290.40 0854.88
2009/04/23 12:14:40.7     350   -173    -28    391    392 116.4  -4.1  34196  290.18 0854.88
2009/04/23 12:14:40.8     191      2   -125    192    229  89.1 -40.1  34170  289.74 0854.88
2009/04/23 12:14:40.9     140   -112    -72    180    193 128.6 -27.4  34174  289.82 0854.88
2009/04/23 12:14:41.0     133   -338    -41    364    367 158.5  -6.5  34192  290.11 0854.88
2009/04/23 12:14:41.1     146   -424    -32    449    451 161.0  -4.1  34170  289.73 0854.88
2009/04/23 12:14:41.2     158   -460    157    487    512 161.0  17.9  34168  289.71 0854.88
2009/04/23 12:14:41.3     225   -255    174    341    382 138.6  29.2  34166  289.69 0854.88
2009/04/23 12:14:41.4     203   -339    100    396    409 149.1  14.3  34164  289.63 0854.88
2009/04/23 12:14:41.5      57   -361    215    366    424 171.0  33.1  34154  289.46 0854.88
2009/04/23 12:14:41.6     107   -414    201    428    472 165.4  27.0  34156  289.51 0854.88
2009/04/23 12:14:41.7    -104   -347    131    363    385 196.7  20.7  34200  290.25 0854.88
2009/04/23 12:14:41.8    -121   -242     51    271    276 206.7  10.8  34194  290.14 0854.88
2009/04/23 12:14:41.9     -52   -189    102    197    221 195.6  29.3  34194  290.16 0854.88
2009/04/23 12:14:42.0     -93   -197    109    219    244 205.3  28.2  34196  290.17 0854.88
2009/04/23 12:14:42.1    -245   -202    165    318    358 230.5  29.5  34204  290.32 0854.88
2009/04/23 12:14:42.2    -157   -181    193    240    307 221.0  43.0  34198  290.22 0854.88
2009/04/23 12:14:42.3    -130   -203    145    242    282 212.6  33.7  34212  290.44 0854.88
2009/04/23 12:14:42.4    -190   -337    165    387    420 209.4  24.6  34158  289.53 0854.88
2009/04/23 12:14:42.5     -83   -342    124    352    373 193.7  20.3  34146  289.35 0854.88
2009/04/23 12:14:42.6     -12   -256     85    257    271 182.7  18.4  34148  289.36 0854.88
2009/04/23 12:14:42.7     -32   -241     94    244    261 187.6  22.1  34150  289.39 0854.88
2009/04/23 12:14:42.8     -35   -278     98    281    298 187.2  19.4  34148  289.37 0854.88
2009/04/23 12:14:42.9       2   -406     69    407    413 179.7   9.7  34150  289.41 0854.88
2009/04/23 12:14:43.0      26   -340     76    341    350 175.6  12.6  34152  289.45 0854.88
2009/04/23 12:14:43.1     129   -275     83    305    317 154.8  15.2  34158  289.53 0854.88
2009/04/23 12:14:43.2     130   -350    112    374    391 159.6  16.8  34154  289.47 0854.88
2009/04/23 12:14:43.3     145   -345    127    375    397 157.2  18.8  34148  289.37 0854.88
2009/04/23 12:14:43.4     141   -349    120    377    396 157.9  17.7  34146  289.35 0854.88
2009/04/23 12:14:43.6      55   -269    125    275    302 168.4  26.2  34146  289.34 0854.88
2009/04/23 12:14:43.7      71   -276    105    286    304 165.5  21.0  34146  289.34 0854.88
2009/04/23 12:14:43.8      97   -207    157    229    277 154.7  37.6  34148  289.37 0854.88
2009/04/23 12:14:43.9     112   -257    176    281    331 156.4  35.2  34144  289.31 0854.88
2009/04/23 12:14:44.0     160   -249    131    297    324 147.3  25.6  34148  289.37 0854.88
2009/04/23 12:14:44.1      65   -262    149    270    308 166.0  31.4  34146  289.32 0854.88
2009/04/23 12:14:44.2      76   -211    121    225    255 160.2  30.6  34148  289.37 0854.88
2009/04/23 12:14:44.3      84   -188    139    207    249 155.9  37.0  34146  289.34 0854.88
2009/04/23 12:14:44.4     100    -59    152    117    191 120.7  58.5  34150  289.41 0854.88
2009/04/23 12:14:44.5     152   -240    191    285    343 147.7  37.2  34154  289.47 0854.88
2009/04/23 12:14:44.6     127   -247    118    278    302 152.8  24.2  34154  289.47 0854.88
2009/04/23 12:14:44.7     112   -320    196    340    392 160.6  32.4  34146  289.33 0854.92
2009/04/23 12:14:44.8     151   -264    245    305    391 150.2  42.8  34148  289.38 0854.92
2009/04/23 12:14:44.9     100   -301    237    318    396 161.5  40.6  34138  289.21 0854.92
2009/04/23 12:14:45.0     215   -313    272    380    467 145.5  39.1  34130  289.05 0854.92
2009/04/23 12:14:45.1     182   -420    316    458    556 156.5  37.9  34128  289.02 0854.92
2009/04/23 12:14:45.2      99   -357    298    371    475 164.4  42.8  34134  289.14 0854.92
2009/04/23 12:14:45.3     271    -69    148    280    316 104.4  30.2  34130  289.07 0854.92
2009/04/23 12:14:45.4     162   -257     43    305    309 147.7   8.0  34138  289.20 0854.92
2009/04/23 12:14:45.5     219   -252   -116    334    353 139.0 -24.5  34134  289.13 0854.92
2009/04/23 12:14:45.6     218    -73    -65    231    239 108.6 -20.7  34150  289.39 0854.92
2009/04/23 12:14:45.7     216      0    -51    217    224  90.0 -13.4  34170  289.75 0854.92
2009/04/23 12:14:45.8     198     62    -67    208    218  72.5 -23.0  34164  289.63 0854.92
2009/04/23 12:14:45.9     273      0     45    274    278  90.0   9.5  34170  289.75 0854.92
2009/04/23 12:14:46.0     250    -94    148    268    306 110.6  31.4  34166  289.68 0854.92
2009/04/23 12:14:46.1     208    -75    101    222    243 109.9  26.2  34148  289.37 0854.92
2009/04/23 12:14:46.2      99    -72    106    123    162 125.9  45.4  34152  289.45 0854.92
2009/04/23 12:14:46.3     287   -123     43    313    316 113.3   7.9  34148  289.36 0854.92
2009/04/23 12:14:46.4      58   -221    164    229    281 165.3  39.1  34132  289.10 0854.92
2009/04/23 12:14:46.5      21   -286    238    287    372 175.8  43.8  34136  289.16 0854.92
2009/04/23 12:14:46.6      67   -330    222    337    403 168.4  36.5  34136  289.16 0854.92
2009/04/23 12:14:46.7     -52   -397    177    401    438 187.6  25.2  34132  289.11 0854.98
2009/04/23 12:14:46.8    -156   -281    173    322    365 209.0  30.6  34142  289.26 0854.98
2009/04/23 12:14:46.9    -159   -277    -48    320    324 209.9  -8.6  34138  289.19 0854.98
2009/04/23 12:14:47.0     -72   -106   -112    129    170 214.3 -49.8  34138  289.21 0854.98
2009/04/23 12:14:47.1     -44     44    -91     63    110 315.0 -66.5  34140  289.24 0854.98
2009/04/23 12:14:47.2      67     93    -62    115    130  36.0 -35.2  34142  289.28 0854.98
2009/04/23 12:14:47.3      57     -3    115     58    128  93.5  71.4  34142  289.28 0854.98
2009/04/23 12:14:47.4     -24    -74    162     78    179 198.3  72.7  34138  289.21 0854.98
2009/04/23 12:14:47.5     -29    -98     82    103    131 196.5  43.3  34142  289.28 0854.98
2009/04/23 12:14:47.6     -27    -82    120     87    148 198.7  60.5  34142  289.26 0854.98
2009/04/23 12:14:47.7    -289   -104     37    308    311 250.1   6.9  34142  289.25 0854.98
2009/04/23 12:14:47.8    -372   -281     -4    467    468 233.0  -0.5  34140  289.23 0854.98
2009/04/23 12:14:47.9    -253   -212     78    331    341 230.0  13.2  34128  289.03 0854.98
2009/04/23 12:14:48.0     -57   -143    245    155    289 201.8  64.7  34140  289.22 0854.98
2009/04/23 12:14:48.1    -118   -284    192    308    362 202.7  35.1  34138  289.21 0854.98
2009/04/23 12:14:48.2     -70   -213    204    225    303 198.3  47.0  34134  289.12 0854.98
2009/04/23 12:14:48.3     -48   -193    217    199    294 194.0  52.7  34140  289.22 0854.98
2009/04/23 12:14:48.4    -110   -165     82    199    215 213.6  23.4  34130  289.08 0854.98
2009/04/23 12:14:48.5     -93   -270    377    286    473 199.1  59.2  34138  289.19 0854.98
2009/04/23 12:14:48.6    -174   -341    239    384    452 207.1  35.0  34136  289.16 0854.98
2009/04/23 12:14:48.7     -61   -486    -88    490    498 187.2 -10.2  34134  289.13 0854.99
2009/04/23 12:14:48.8      -9   -319    -90    320    332 181.8 -20.3  34134  289.14 0854.99
2009/04/23 12:14:48.9      -4   -365    -52    366    370 180.7  -8.2  34136  289.18 0854.99
2009/04/23 12:14:49.0       8   -323    -18    324    325 178.5  -3.2  34136  289.15 0854.99
2009/04/23 12:14:49.1      26   -294     14    296    297 174.9   2.8  34140  289.22 0854.99
2009/04/23 12:14:49.2      83   -305    -57    317    323 164.8 -10.2  34134  289.14 0854.99
2009/04/23 12:14:49.3     174   -276    -45    327    331 147.7  -7.9  34136  289.15 0854.99
2009/04/23 12:14:49.4     214   -346     16    407    408 148.3   2.3  34134  289.12 0854.99
2009/04/23 12:14:49.5     157   -322      9    359    360 154.0   1.5  34132  289.10 0854.99
2009/04/23 12:14:49.6     102   -435     62    447    452 166.8   8.0  34140  289.22 0854.99
2009/04/23 12:14:49.7      44   -314    157    318    354 171.9  28.2  34142  289.25 0854.99
2009/04/23 12:14:49.8     173   -367     94    406    417 154.7  13.1  34136  289.17 0854.99
2009/04/23 12:14:49.9     122   -424     62    442    447 164.0   8.0  34134  289.12 0854.99
2009/04/23 12:14:50.0      62   -328    -17    334    335 169.2  -3.0  34134  289.13 0854.99
2009/04/23 12:14:50.1     146   -199    -68    247    257 143.7 -15.4  34136  289.15 0854.99
2009/04/23 12:14:50.2     254   -241   -115    351    370 133.5 -18.2  34138  289.20 0854.99
2009/04/23 12:14:50.3     245   -263   -107    360    375 137.1 -21.5  34136  289.15 0854.99
2009/04/23 12:14:50.4      85   -268     -8    282    283 162.4  -1.8  34128  289.02 0854.99
2009/04/23 12:14:50.5     -64   -193    -44    204    209 198.3 -12.4  34134  289.14 0854.99
2009/04/23 12:14:50.6      81    -85     32    118    123 136.3  15.3  34136  289.18 0854.99
2009/04/23 12:14:50.7     140   -146     59    203    212 136.3  16.3  34136  289.18 0855.00
2009/04/23 12:14:50.8     200   -332     78    388    396 148.9  11.5  34140  289.23 0855.00
2009/04/23 12:14:50.9      59   -426    113    431    446 172.0  14.7  34136  289.17 0855.00
2009/04/23 12:14:51.0      57   -405     83    410    419 171.9  11.5  34134  289.12 0855.00
2009/04/23 12:14:51.1      13   -290    115    291    312 177.3  22.8  34132  289.10 0855.00
2009/04/23 12:14:51.2      51   -265    182    270    325 169.1  37.2  34138  289.20 0855.00
2009/04/23 12:14:51.3     136   -209    135    250    284 146.8  30.6  34136  289.17 0855.00
2009/04/23 12:14:51.4     128   -273     59    302    308 154.8  11.1  34134  289.14 0855.00
2009/04/23 12:14:51.5    -117   -352    -20    372    373 198.5  -3.2  34130  289.08 0855.00
2009/04/23 12:14:51.6    -204   -246    -16    320    321 219.6  -3.0  34136  289.17 0855.00
2009/04/23 12:14:51.7    -191   -237     53    305    310 219.0   9.9  34128  289.02 0855.00
2009/04/23 12:14:51.8      -2   -210    119    211    242 180.7  32.1  34136  289.18 0855.00
2009/04/23 12:14:51.9    -162   -297     96    339    353 208.7  15.8  34128  289.03 0855.00
2009/04/23 12:14:52.0    -145   -400    174    426    460 200.0  23.5  34134  289.12 0855.00
2009/04/23 12:14:52.1     -66   -317    148    324    356 191.8  26.2  34138  289.20 0855.00
2009/04/23 12:14:52.2     -77   -222     42    236    240 199.2  10.1  34134  289.14 0855.00
2009/04/23 12:14:52.3     -97   -291     59    307    313 198.5  11.0  34134  289.14 0855.00
2009/04/23 12:14:52.4    -171   -427     48    461    464 201.8   6.0  34136  289.16 0855.00
2009/04/23 12:14:52.5     -88   -543     90    551    559 189.2   9.3  34122  288.92 0855.00
2009/04/23 12:14:52.6    -147   -617    110    635    645 193.4   9.9  34122  288.94 0855.00
2009/04/23 12:14:52.7    -152   -681    121    698    709 192.6   9.9  34130  289.05 0854.98
2009/04/23 12:14:52.8    -159   -871    165    886    902 190.4  10.6  34134  289.13 0854.98
2009/04/23 12:14:52.9    -187   -838    164    859    875 192.6  10.8  34132  289.11 0854.98
2009/04/23 12:14:53.0     -72   -777     83    781    786 185.4   6.1  34132  289.10 0854.98
2009/04/23 12:14:53.1     216   -630     99    667    675 161.1   8.5  34132  289.10 0854.98
2009/04/23 12:14:53.2     229   -672    202    711    740 161.2  15.9  34130  289.08 0854.98
2009/04/23 12:14:53.3     333   -666    162    745    763 153.4  12.3  34130  289.06 0854.98
2009/04/23 12:14:53.4     397   -612     48    730    732 147.0   3.8  34126  289.01 0854.98
2009/04/23 12:14:53.5     378   -536    204    656    688 144.8  17.3  34132  289.10 0854.98
2009/04/23 12:14:53.6     252   -510    305    569    645 153.7  30.6  34130  289.06 0854.98
2009/04/23 12:14:53.7      20   -446    421    447    614 177.4  48.0  34130  289.07 0854.98
2009/04/23 12:14:53.8      13   -464    276    465    540 178.4  33.5  34130  289.06 0854.98
2009/04/23 12:14:53.9      82   -480    211    487    530 170.3  25.0  34126  288.98 0854.98
2009/04/23 12:14:54.0    -228   -206   -255    308    399 227.8 -48.2  34122  288.94 0854.98
2009/04/23 12:14:54.1    -408   -296   -182    505    536 234.0 -25.0  34128  289.02 0854.98
2009/04/23 12:14:54.2    -288   -305     78    420    428 223.4  10.6  34132  289.09 0854.98
2009/04/23 12:14:54.3    -106   -482    148    494    516 192.5  16.7  34130  289.05 0854.98
2009/04/23 12:14:54.4    -307   -814     42    871    873 200.7   2.8  34130  289.08 0854.98
2009/04/23 12:14:54.5    -183   -640     70    666    670 196.0   6.1  34132  289.10 0854.98
2009/04/23 12:14:54.6    -360   -695     51    783    785 207.4   3.8  34140  289.22 0854.98
2009/04/23 12:14:54.7    -518   -340   -138    621    637 236.7 -12.6  34142  289.28 0854.97
2009/04/23 12:14:54.8    -366   -539   -152    652    670 214.2 -13.2  34146  289.32 0854.97
2009/04/23 12:14:54.9    -360   -543   -191    652    679 213.6 -21.1  34134  289.14 0854.97
2009/04/23 12:14:55.0    -290   -596    -70    664    668 206.0  -6.1  34136  289.16 0854.97
2009/04/23 12:14:55.1    -293   -558   -180    631    657 207.7 -15.9  34134  289.13 0854.97
2009/04/23 12:14:55.2    -234   -558   -240    606    651 202.7 -27.3  34132  289.11 0854.97
2009/04/23 12:14:55.3    -376   -388   -200    541    576 224.1 -25.5  34150  289.40 0854.97
2009/04/23 12:14:55.4     -70   -406   -344    413    537 189.8 -48.2  34142  289.25 0854.97
2009/04/23 12:14:55.5     142   -375    -73    402    409 159.2 -10.4  34124  288.95 0854.97
2009/04/23 12:14:55.6      -6   -382    209    383    436 181.0  31.3  34140  289.22 0854.97
2009/04/23 12:14:55.7     -99   -275     40    293    296 199.8   7.8  34138  289.19 0854.95
2009/04/23 12:14:55.8      84    -40     40     94    102 115.8  24.1  34140  289.23 0854.95
2009/04/23 12:14:55.9     238   -180    105    299    316 127.1  20.1  34130  289.07 0854.95
2009/04/23 12:14:56.0     141   -369     55    396    401 159.1   8.0  34140  289.23 0854.95
2009/04/23 12:14:56.1     212   -337     30    399    401 147.8   4.3  34136  289.16 0854.95
2009/04/23 12:14:56.2     203   -290   -104    355    371 145.0 -16.4  34136  289.18 0854.95
2009/04/23 12:14:56.3     223   -490   -162    539    562 155.5 -21.7  34140  289.23 0854.95
2009/04/23 12:14:56.4     301   -384    -83    489    497 141.9  -9.7  34140  289.22 0854.95
2009/04/23 12:14:56.5     384   -312    -63    495    500 129.1  -7.3  34132  289.10 0854.95
2009/04/23 12:14:56.6     404   -337      6    527    528 129.8   0.7  34138  289.19 0854.95
2009/04/23 12:14:56.7     391   -343     26    521    522 131.3   2.9  34138  289.21 0854.95
2009/04/23 12:14:56.8     431   -253     98    500    510 120.4  11.1  34140  289.22 0854.95
2009/04/23 12:14:56.9     462   -248    186    525    558 118.3  19.5  34136  289.16 0854.95
2009/04/23 12:14:57.0     521   -203    225    560    603 111.3  23.0  34134  289.14 0854.95
2009/04/23 12:14:57.1     412   -103    272    425    504 104.2  35.6  34136  289.17 0854.95
2009/04/23 12:14:57.2     363   -137    298    389    490 110.7  41.2  34136  289.17 0854.95
2009/04/23 12:14:57.3     344   -135    271    370    458 111.5  39.7  34138  289.21 0854.95
2009/04/23 12:14:57.4     306   -188    184    360    404 121.5  29.2  34138  289.20 0854.95
2009/04/23 12:14:57.5     284   -108    143    305    336 110.9  27.1  34142  289.27 0854.95
2009/04/23 12:14:57.6     199   -220    181    297    347 137.9  34.3  34138  289.20 0854.95
2009/04/23 12:14:57.7      71   -249    173    260    312 164.0  36.7  34138  289.20 0854.94
2009/04/23 12:14:57.8      -8   -167    167    168    236 182.9  50.0  34138  289.21 0854.94
2009/04/23 12:14:57.9      64   -175    134    187    230 159.7  39.5  34140  289.23 0854.94
2009/04/23 12:14:58.0     -34   -132    106    137    173 194.7  41.7  34140  289.23 0854.94
2009/04/23 12:14:58.1     -59   -237    195    245    313 194.2  42.6  34142  289.25 0854.94
2009/04/23 12:14:58.2       3   -193    119    194    227 179.1  34.8  34142  289.28 0854.94
2009/04/23 12:14:58.3     -11   -342    119    343    364 181.9  19.2  34142  289.28 0854.94
2009/04/23 12:14:58.4      -7   -256    199    257    325 181.6  41.9  34132  289.09 0854.94
2009/04/23 12:14:58.5      23   -136    142    139    198 170.2  50.4  34140  289.24 0854.94
2009/04/23 12:14:58.6    -194   -163    159    254    299 229.8  35.2  34144  289.31 0854.94
2009/04/23 12:14:58.7    -257    -54     94    263    279 258.1  20.4  34144  289.29 0854.94
2009/04/23 12:14:58.8    -189     31    110    192    221 279.5  32.7  34144  289.30 0854.94
2009/04/23 12:14:58.9    -145   -164     86    220    236 221.4  22.5  34144  289.31 0854.94
2009/04/23 12:14:59.0    -226   -215     46    312    316 226.4   8.5  34146  289.34 0854.94
2009/04/23 12:14:59.1    -394   -208    -42    446    449 242.1  -5.5  34138  289.19 0854.94
2009/04/23 12:14:59.2    -445   -234    -44    503    506 242.3  -5.1  34124  288.96 0854.94
2009/04/23 12:14:59.3    -500     -3     38    501    503 269.6   4.4  34136  289.18 0854.94
2009/04/23 12:14:59.4    -364      0    135    365    389 270.0  21.1  34142  289.25 0854.94
2009/04/23 12:14:59.5    -283   -393     74    485    491 215.8   8.7  34134  289.12 0854.94
2009/04/23 12:14:59.6    -130   -233    167    267    314 209.2  35.0  34140  289.24 0854.94
2009/04/23 12:14:59.7     -53   -177    207    185    277 196.7  53.5  34146  289.34 0854.94
2009/04/23 12:14:59.8     -31   -202    244    205    318 188.9  55.8  34154  289.46 0854.94
2009/04/23 12:14:59.9     -37   -252    256    255    361 188.5  50.0  34152  289.42 0854.94
2009/04/23 12:15:00.0      54   -237    243    244    344 167.1  50.1  34148  289.37 0854.94
2009/04/23 12:15:00.1     -96   -360     48    373    377 195.1   7.4  34148  289.38 0854.94
2009/04/23 12:15:00.2     -15   -263      2    264    265 183.4   0.5  34150  289.41 0854.94
2009/04/23 12:15:00.3     -21   -216     27    218    220 185.6   7.1  34144  289.31 0854.94
2009/04/23 12:15:00.4    -238    -74   -107    250    271 252.7 -28.7  34140  289.24 0854.94
2009/04/23 12:15:00.5    -250   -258     40    360    363 224.1   6.4  34142  289.26 0854.94
2009/04/23 12:15:00.6    -140   -207    136    251    285 214.1  30.6  34146  289.34 0854.94
2009/04/23 12:15:00.7    -219   -181    116    285    307 230.5  23.1  34148  289.37 0854.94
2009/04/23 12:15:00.8    -114   -193     78    225    239 210.5  19.2  34152  289.42 0854.94
2009/04/23 12:15:00.9    -277   -401     54    488    492 214.7   6.4  34156  289.52 0854.94
2009/04/23 12:15:01.0    -285   -359     -9    459    460 218.4  -1.2  34158  289.53 0854.94
2009/04/23 12:15:01.1    -170   -362     50    401    405 205.2   7.1  34152  289.43 0854.94
2009/04/23 12:15:01.2    -150   -341     21    373    374 203.9   3.3  34136  289.16 0854.94
2009/04/23 12:15:01.3    -205   -183   -107    275    295 228.2 -26.9  34136  289.17 0854.94
2009/04/23 12:15:01.4    -488   -221    -57    537    541 245.6  -6.1  34150  289.40 0854.94
2009/04/23 12:15:01.5    -347   -193     59    398    403 240.9   8.5  34142  289.26 0854.94
2009/04/23 12:15:01.6    -369   -256     -1    450    451 235.2  -0.2  34142  289.27 0854.94
2009/04/23 12:15:01.7    -277   -202     65    343    350 233.9  10.7  34156  289.52 0854.94
2009/04/23 12:15:01.8    -174   -202      1    267    268 220.8   0.2  34146  289.34 0854.94
2009/04/23 12:15:01.9    -128   -147     28    196    199 221.0   8.2  34146  289.35 0854.94
2009/04/23 12:15:02.0     -83   -211     -4    228    229 201.6  -1.1  34152  289.45 0854.94
2009/04/23 12:15:02.1    -146   -264     15    303    304 209.0   2.9  34146  289.32 0854.94
2009/04/23 12:15:02.2     -99   -404      5    416    417 193.8   0.8  34142  289.27 0854.94
2009/04/23 12:15:02.3    -279   -348    -27    447    448 218.7  -3.5  34146  289.33 0854.94
2009/04/23 12:15:02.4    -227   -339     12    409    410 213.8   1.7  34152  289.43 0854.94
2009/04/23 12:15:02.5    -133   -400     66    422    428 198.5   8.9  34144  289.29 0854.94
2009/04/23 12:15:02.6    -116   -274    -32    298    300 202.9  -6.2  34142  289.25 0854.94
2009/04/23 12:15:02.7    -242   -213     -2    323    324 228.7  -0.4  34156  289.51 0854.94
2009/04/23 12:15:02.8    -184   -141    -55    232    239 232.5 -13.4  34168  289.70 0854.94
2009/04/23 12:15:02.9    -242   -116      9    269    270 244.2   2.1  34166  289.66 0854.94
2009/04/23 12:15:03.0    -173    -90     -7    196    197 242.5  -2.2  34150  289.41 0854.94
2009/04/23 12:15:03.1       0   -110     86    111    140 180.0  41.7  34152  289.45 0854.94
2009/04/23 12:15:03.2      14    -86     92     88    127 170.2  51.2  34148  289.36 0854.94
2009/04/23 12:15:03.3      -8    -48     55     49     73 189.8  52.2  34152  289.43 0854.94
2009/04/23 12:15:03.4     -50    -70      1     87     88 215.6   0.8  34150  289.41 0854.94
2009/04/23 12:15:03.5    -213     -3    -58    214    222 269.1 -15.4  34156  289.50 0854.94
2009/04/23 12:15:03.6    -140    -37   -101    145    176 255.0 -43.0  34152  289.43 0854.94
2009/04/23 12:15:03.7     -69   -108    -57    129    141 212.6 -29.6  34154  289.48 0854.94
2009/04/23 12:15:03.8     -76    -81    -35    112    117 223.3 -22.3  34152  289.43 0854.94
2009/04/23 12:15:03.9    -100   -181   -101    207    230 209.0 -31.8  34144  289.31 0854.94
2009/04/23 12:15:04.0    -144   -151     17    209    210 223.7   4.9  34156  289.50 0854.94
2009/04/23 12:15:04.1    -134    -74   -129    154    200 241.2 -48.7  34150  289.41 0854.94
2009/04/23 12:15:04.2    -270    -16    -44    271    275 266.5  -9.3  34158  289.53 0854.94
2009/04/23 12:15:04.3    -123   -106    -53    163    171 229.1 -23.6  34154  289.46 0854.94
2009/04/23 12:15:04.4     -89    -65    -34    111    117 233.6 -17.0  34156  289.52 0854.94
2009/04/23 12:15:04.5     -82      0   -132     83    155 269.6 -69.1  34160  289.58 0854.94
2009/04/23 12:15:04.6    -103    -14   -165    104    195 262.1 -69.1  34162  289.60 0854.94
2009/04/23 12:15:04.7     -31    -10   -154     33    157 251.4 -90.0  34162  289.62 0854.94
2009/04/23 12:15:04.8     -13      2   -134     14    134 281.5 -90.0  34160  289.57 0854.94
2009/04/23 12:15:04.9    -161      8   -137    162    212 273.0 -48.9  34152  289.45 0854.94
2009/04/23 12:15:05.0    -176    -95    -62    201    210 241.6 -22.3  34152  289.43 0854.94
2009/04/23 12:15:05.1    -296     22   -103    297    314 274.4 -24.4  34152  289.44 0854.94
2009/04/23 12:15:05.2    -396    -59   -170    401    435 261.5 -28.7  34160  289.58 0854.94
2009/04/23 12:15:05.3    -417    -67   -198    423    467 260.9 -31.5  34158  289.55 0854.94
2009/04/23 12:15:05.4    -349    -94   -167    362    398 254.9 -30.8  34146  289.32 0854.94
2009/04/23 12:15:05.5    -383     36     60    385    390 275.5   9.0  34146  289.35 0854.94
2009/04/23 12:15:05.6    -240    103    173    262    313 293.3  36.7  34154  289.47 0854.94
2009/04/23 12:15:05.7    -247     74    263    258    368 286.8  50.4  34154  289.47 0854.94
2009/04/23 12:15:05.8    -129   -274    251    304    394 205.3  43.7  34148  289.37 0854.94
2009/04/23 12:15:05.9     -31   -291    185    293    346 186.3  35.5  34152  289.42 0854.94
2009/04/23 12:15:06.0     -22   -287    117    288    310 184.5  23.1  34152  289.42 0854.94
2009/04/23 12:15:06.1     -69   -246    155    256    299 195.8  34.0  34146  289.34 0854.94
2009/04/23 12:15:06.2    -132   -231    126    267    295 209.8  27.1  34142  289.25 0854.94
2009/04/23 12:15:06.3    -244   -120     23    273    275 243.8   4.9  34140  289.22 0854.94
2009/04/23 12:15:06.4    -208    -33    -35    211    214 261.0  -9.6  34146  289.33 0854.94
2009/04/23 12:15:06.5    -110      0     70    111    131 270.0  35.5  34150  289.41 0854.94
2009/04/23 12:15:06.6     -48    -40      7     63     64 230.4   7.1  34152  289.43 0854.94
2009/04/23 12:15:06.7     133   -282     60    312    318 154.7  11.0  34144  289.31 0854.94
2009/04/23 12:15:06.8      62   -185   -167    196    257 161.3 -49.2  34146  289.34 0854.94
2009/04/23 12:15:06.9     282   -287    -68    403    409 135.5  -9.6  34144  289.29 0854.94
2009/04/23 12:15:07.0     308   -237     76    389    397 127.6  11.1  34144  289.30 0854.94
2009/04/23 12:15:07.1     357   -147     18    387    388 112.5   2.8  34142  289.25 0854.94
2009/04/23 12:15:07.2     208    -36    200    212    291  99.9  48.2  34142  289.25 0854.94
2009/04/23 12:15:07.3      49   -161     81    169    187 162.8  27.3  34138  289.19 0854.94
2009/04/23 12:15:07.4      26   -229    203    231    307 173.5  45.8  34140  289.22 0854.94
2009/04/23 12:15:07.5     129   -278     89    307    320 155.1  16.3  34138  289.20 0854.94
2009/04/23 12:15:07.6      91   -312     99    326    341 163.7  17.0  34138  289.21 0854.94
2009/04/23 12:15:07.7     209   -209    105    296    314 135.0  20.3  34134  289.12 0854.93
2009/04/23 12:15:07.8     168   -163     67    235    245 134.2  16.0  34136  289.17 0854.93
2009/04/23 12:15:07.9     263   -100     99    282    298 110.9  20.0  34134  289.14 0854.93
2009/04/23 12:15:08.0     241    -83    109    256    278 109.1  24.3  34130  289.07 0854.93
2009/04/23 12:15:08.1     241    -53     87    247    262 102.6  19.4  34138  289.20 0854.93
2009/04/23 12:15:08.2     239    -64     56    248    255 105.0  12.9  34138  289.20 0854.93
2009/04/23 12:15:08.3     129      6    165    130    210  87.0  57.9  34130  289.06 0854.93
2009/04/23 12:15:08.4     235    -26     98    237    256  96.4  23.6  34130  289.07 0854.93
2009/04/23 12:15:08.5     207    -16     76    208    221  94.6  21.0  34134  289.13 0854.93
2009/04/23 12:15:08.6     131    -56     44    143    150 113.1  17.4  34142  289.26 0854.93
2009/04/23 12:15:08.7     124   -182    117    221    250 145.7  30.2  34142  289.25 0854.93
2009/04/23 12:15:08.8     318   -155     83    354    364 116.0  13.2  34142  289.26 0854.93
2009/04/23 12:15:08.9     214   -160     37    268    271 126.9   8.0  34140  289.22 0854.93
2009/04/23 12:15:09.0     198   -214     30    292    294 137.2   6.0  34138  289.20 0854.93
2009/04/23 12:15:09.1     122   -221     21    253    254 151.0   5.0  34140  289.22 0854.93
2009/04/23 12:15:09.2      61   -197     67    207    218 162.6  18.1  34134  289.13 0854.93
2009/04/23 12:15:09.3     127   -235     52    268    273 151.5  11.0  34144  289.29 0854.93
2009/04/23 12:15:09.4     132   -230     43    266    270 150.1   9.3  34140  289.24 0854.93
2009/04/23 12:15:09.5     140   -238     59    277    284 149.5  12.2  34138  289.20 0854.93
2009/04/23 12:15:09.6      32   -235     79    238    251 172.2  18.4  34136  289.17 0854.93
2009/04/23 12:15:09.7      29    -79     73     85    112 159.5  44.8  34142  289.26 0854.99
2009/04/23 12:15:09.8     -57      0     96     58    112 270.0  65.7  34148  289.36 0854.99
2009/04/23 12:15:09.9    -145    -15     83    146    167 263.9  32.1  34148  289.36 0854.99
2009/04/23 12:15:10.0    -118    -97     64    153    165 230.5  23.8  34144  289.30 0854.99
2009/04/23 12:15:10.1     -70   -125     61    144    156 209.4  24.1  34138  289.21 0854.99
2009/04/23 12:15:10.2     -84    -75      5    113    114 228.2   2.9  34144  289.30 0854.99
2009/04/23 12:15:10.3    -107   -107    -43    152    159 225.2 -15.8  34144  289.30 0854.99
2009/04/23 12:15:10.4     -92    -91    -59    130    142 225.2 -30.1  34140  289.23 0854.99
2009/04/23 12:15:10.5    -142   -209    -18    253    254 214.3  -4.1  34142  289.27 0854.99
2009/04/23 12:15:10.6     -45   -266     17    270    271 189.8   3.6  34138  289.19 0854.99
2009/04/23 12:15:10.7      30   -196     92    199    219 171.1  26.6  34138  289.19 0854.99
2009/04/23 12:15:10.8     -36   -255     75    258    269 188.1  16.4  34134  289.14 0854.99
2009/04/23 12:15:11.0     -70   -277    -13    286    287 194.3  -2.8  34138  289.19 0854.99
2009/04/23 12:15:11.1     -77   -212     82    226    240 200.0  20.7  34136  289.17 0854.99
2009/04/23 12:15:11.2     -63   -312      6    319    320 191.5   1.1  34136  289.15 0854.99
2009/04/23 12:15:11.3     -59   -347   -112    353    371 189.8 -17.6  34140  289.23 0854.99
2009/04/23 12:15:11.4    -135   -399    -53    422    426 198.7  -7.2  34134  289.12 0854.99
2009/04/23 12:15:11.5     -77   -383     27    391    392 191.5   4.0  34136  289.16 0854.99
2009/04/23 12:15:11.6     -66   -341     -6    348    349 191.0  -1.1  34140  289.23 0854.99
2009/04/23 12:15:11.7     -56   -330     31    335    337 189.8   5.3  34140  289.23 0854.99
2009/04/23 12:15:11.8     -62   -304     56    311    317 191.6  10.3  34140  289.24 0854.96
2009/04/23 12:15:11.9     -52   -283     27    288    290 190.6   5.4  34140  289.24 0854.96
2009/04/23 12:15:12.0    -208   -401    -18    452    453 207.4  -2.3  34138  289.19 0854.96
2009/04/23 12:15:12.1    -152   -413    -37    441    443 200.2  -4.8  34132  289.11 0854.96
2009/04/23 12:15:12.2    -179   -246      4    305    306 216.1   0.8  34140  289.24 0854.96
2009/04/23 12:15:12.3    -220   -174      7    281    282 231.6   1.6  34156  289.49 0854.96
2009/04/23 12:15:12.4    -225   -260      5    345    346 220.9   0.9  34150  289.40 0854.96
2009/04/23 12:15:12.5    -269   -332     -1    428    429 219.1  -0.3  34138  289.19 0854.96
2009/04/23 12:15:12.6    -242   -230     41    335    338 226.5   7.1  34150  289.40 0854.96
2009/04/23 12:15:12.7     -33   -287     34    289    292 186.7   6.9  34138  289.20 0854.96
2009/04/23 12:15:12.8      -6   -314    193    315    369 181.1  34.6  34136  289.16 0854.96
2009/04/23 12:15:12.9      16   -359    282    360    457 177.3  42.0  34134  289.14 0854.96
2009/04/23 12:15:13.0      83   -423    315    432    534 168.9  39.7  34134  289.13 0854.96
2009/04/23 12:15:13.1      76   -369    309    377    487 168.3  43.6  34138  289.21 0854.96
2009/04/23 12:15:13.2      21   -435    190    436    475 177.2  25.1  34136  289.16 0854.96
2009/04/23 12:15:13.3       9   -207    238    208    316 177.4  54.4  34136  289.17 0854.96
2009/04/23 12:15:13.4    -111   -211     33    239    242 207.9   8.0  34136  289.15 0854.96
2009/04/23 12:15:13.5    -129   -164    191    209    283 218.3  47.1  34136  289.17 0854.96
2009/04/23 12:15:13.6     -76   -209    231    223    321 200.0  51.1  34136  289.17 0854.96
2009/04/23 12:15:13.7    -160   -176    124    238    268 222.3  29.8  34142  289.25 0854.96
2009/04/23 12:15:13.8    -176   -124     22    216    218 234.7   5.9  34138  289.19 0854.96
2009/04/23 12:15:13.9    -270   -121    -22    297    298 245.8  -4.4  34144  289.29 0854.96
2009/04/23 12:15:14.0    -156   -163    -29    226    228 223.7  -7.5  34140  289.23 0854.96
2009/04/23 12:15:14.1     -27    -44     -3     52     53 211.6  -4.1  34140  289.23 0854.96
2009/04/23 12:15:14.2     189     54    132    197    237  73.8  37.0  34144  289.31 0854.96
2009/04/23 12:15:14.3     372    -97    202    385    434 104.6  30.0  34138  289.19 0854.96
2009/04/23 12:15:14.4     397   -137    221    421    475 109.1  30.0  34138  289.21 0854.96
2009/04/23 12:15:14.5     235   -182    257    298    393 127.7  45.2  34134  289.13 0854.96
2009/04/23 12:15:14.6      23   -137    298    140    329 170.2  73.1  34144  289.31 0854.96
2009/04/23 12:15:14.7       4    -81    111     82    138 176.9  60.0  34138  289.21 0854.96
2009/04/23 12:15:14.8       0     43     75     44     86   0.0  66.8  34140  289.23 0854.96
2009/04/23 12:15:14.9     239    210     62    319    326  48.7  11.1  34140  289.24 0854.96
2009/04/23 12:15:15.0     293     77     83    303    315  75.2  15.4  34142  289.27 0854.96
2009/04/23 12:15:15.1     228     26     63    230    239  83.4  15.3  34142  289.25 0854.96
2009/04/23 12:15:15.2     150     67     74    165    180  65.8  25.7  34142  289.26 0854.96
2009/04/23 12:15:15.3      74     -1     62     75     97  90.8  43.8  34138  289.21 0854.96
2009/04/23 12:15:15.4    -110   -142    142    180    229 217.8  42.4  34140  289.24 0854.96
2009/04/23 12:15:15.5     -68    -49     98     85    129 234.0  54.8  34138  289.19 0854.96
2009/04/23 12:15:15.6      -6   -108    152    109    187 183.6  60.6  34144  289.30 0854.96
2009/04/23 12:15:15.7      42    -80    129     91    157 151.9  61.3  34146  289.35 0854.96
2009/04/23 12:15:15.8     -25   -156     90    159    182 189.3  32.1  34140  289.24 0855.01
2009/04/23 12:15:15.9    -131   -221    132    258    289 210.7  29.2  34134  289.12 0855.01
2009/04/23 12:15:16.0    -192   -174     14    260    261 227.8   3.3  34138  289.19 0855.01
2009/04/23 12:15:16.1    -172   -162     18    237    238 226.7   4.4  34146  289.32 0855.01
2009/04/23 12:15:16.2    -119   -109     40    162    167 227.3  13.9  34144  289.30 0855.01
2009/04/23 12:15:16.3    -170   -149    -65    227    236 228.7 -20.7  34144  289.31 0855.01
2009/04/23 12:15:16.4    -160   -104     67    192    204 236.9  19.2  34146  289.33 0855.01
2009/04/23 12:15:16.5       2   -128   -120    129    176 179.1 -52.3  34144  289.31 0855.01
2009/04/23 12:15:16.6     142    -15   -183    143    232  96.2 -62.6  34144  289.30 0855.01
2009/04/23 12:15:16.7      99     83   -173    130    216  50.0 -63.8  34146  289.33 0855.01
2009/04/23 12:15:16.8      31     56   -102     65    120  29.0 -69.1  34150  289.40 0855.02
2009/04/23 12:15:16.9      48     48    -64     69     94  45.1 -52.9  34148  289.36 0855.02
2009/04/23 12:15:17.0      33    -39      0     52     53 139.5  -0.3  34146  289.35 0855.02
2009/04/23 12:15:17.1      75   -118     27    141    144 147.4  11.0  34146  289.35 0855.02
2009/04/23 12:15:17.2     136   -120     60    182    192 131.3  18.4  34142  289.28 0855.02
2009/04/23 12:15:17.3      22   -169    131    171    215 172.4  41.6  34138  289.19 0855.02
2009/04/23 12:15:17.4    -132   -224    149    261    300 210.5  32.4  34140  289.24 0855.02
2009/04/23 12:15:17.5     -76   -206    187    220    288 200.3  44.8  34140  289.22 0855.02
2009/04/23 12:15:17.6      39   -253    196    257    323 171.1  41.3  34142  289.25 0855.02
2009/04/23 12:15:17.7      28   -260    159    262    306 173.7  34.2  34140  289.24 0855.02
2009/04/23 12:15:17.8      36   -178    148    182    234 168.4  43.5  34136  289.18 0855.02
2009/04/23 12:15:17.9     -14   -182    182    183    258 184.5  50.0  34144  289.29 0855.02
2009/04/23 12:15:18.0     -59   -305    153    311    346 191.1  28.1  34134  289.13 0855.02
2009/04/23 12:15:18.1     -62   -198    -69    208    219 197.4 -23.8  34140  289.24 0855.02
2009/04/23 12:15:18.2    -104   -110    -34    152    156 223.3 -12.9  34142  289.28 0855.02
2009/04/23 12:15:18.3      83   -112     83    140    162 143.5  33.7  34142  289.26 0855.02
2009/04/23 12:15:18.4     104   -104     96    148    176 134.9  36.0  34142  289.26 0855.02
2009/04/23 12:15:18.5      90    -57    123    107    163 122.5  54.3  34144  289.30 0855.02
2009/04/23 12:15:18.6     104    -35    104    110    151 108.6  48.0  34142  289.28 0855.02
2009/04/23 12:15:18.7     133    -22     95    135    165  99.6  38.6  34144  289.31 0855.02
2009/04/23 12:15:18.8      90    -23    104     94    140 104.6  52.7  34142  289.28 0855.04
2009/04/23 12:15:18.9      51   -153    109    162    195 161.5  36.7  34142  289.26 0855.04
2009/04/23 12:15:19.0      55   -100     97    115    150 151.1  43.8  34144  289.31 0855.04
2009/04/23 12:15:19.1     144    -91     98    171    197 122.4  32.4  34142  289.28 0855.04
2009/04/23 12:15:19.2     120    -99    109    156    190 129.6  38.4  34144  289.31 0855.04
2009/04/23 12:15:19.3      83    -98     45    129    137 139.5  19.4  34144  289.30 0855.04
2009/04/23 12:15:19.4      95    -46     66    106    124 116.2  35.5  34150  289.40 0855.04
2009/04/23 12:15:19.5      75   -137     78    157    175 151.1  28.2  34146  289.35 0855.04
2009/04/23 12:15:19.6     202   -177     24    269    271 131.3   5.2  34140  289.24 0855.04
2009/04/23 12:15:19.7     203   -155     36    256    259 127.3   8.0  34146  289.32 0855.04
2009/04/23 12:15:19.8     107   -199     99    226    246 151.7  25.1  34144  289.31 0855.04
2009/04/23 12:15:19.9      14   -201    130    202    240 175.8  35.7  34142  289.26 0855.04
2009/04/23 12:15:20.0     -11   -246    124    247    276 182.7  28.5  34146  289.32 0855.04
2009/04/23 12:15:20.1     -16   -166     63    167    178 185.6  21.7  34144  289.30 0855.04
2009/04/23 12:15:20.2     -24    -97     70    101    122 194.3  38.0  34144  289.31 0855.04
2009/04/23 12:15:20.3     130    -83    123    155    197 122.4  42.4  34144  289.30 0855.04
2009/04/23 12:15:20.4      56   -146     95    157    183 159.1  34.4  34132  289.11 0855.04
2009/04/23 12:15:20.5     129   -165     89    210    228 142.1  24.3  34140  289.24 0855.04
2009/04/23 12:15:20.6      49   -173    139    181    228 164.0  41.6  34140  289.24 0855.04
2009/04/23 12:15:20.7       0   -117    158    118    197 180.0  59.8  34146  289.35 0855.04
2009/04/23 12:15:20.8      81   -127    221    151    267 147.5  62.6  34146  289.34 0855.03
2009/04/23 12:15:20.9     283   -191      9    342    343 124.1   1.6  34148  289.37 0855.03
2009/04/23 12:15:21.0      37   -303    -51    306    311 172.9  -9.5  34144  289.31 0855.03
2009/04/23 12:15:21.1      19   -190     31    192    195 174.0   9.3  34148  289.38 0855.03
2009/04/23 12:15:21.2     -18    -68     44     71     83 195.1  34.4  34144  289.30 0855.03
2009/04/23 12:15:21.3     -17   -120    134    122    181 188.1  52.7  34146  289.33 0855.03
2009/04/23 12:15:21.4     -63   -163    115    175    209 201.2  36.3  34144  289.31 0855.03
2009/04/23 12:15:21.5     -64   -147    156    161    224 203.6  49.4  34144  289.31 0855.03
2009/04/23 12:15:21.6     -70   -153    101    169    196 204.7  33.5  34140  289.24 0855.03
2009/04/23 12:15:21.7    -112   -177    115    210    239 212.5  31.0  34140  289.24 0855.03
2009/04/23 12:15:21.8    -132   -247     66    281    289 208.1  13.2  34142  289.25 0855.03
2009/04/23 12:15:21.9    -141   -138    137    198    240 225.8  38.0  34140  289.23 0855.03
2009/04/23 12:15:22.0    -111    -92    150    145    208 230.4  50.9  34144  289.30 0855.03
2009/04/23 12:15:22.1     -59    -43    130     74    149 234.1  68.3  34148  289.36 0855.03
2009/04/23 12:15:22.2     -23    -36    143     43    149 212.5  82.7  34156  289.52 0855.03
2009/04/23 12:15:22.3    -133   -147    140    199    243 222.3  38.5  34144  289.31 0855.03
2009/04/23 12:15:22.4    -169   -323     57    365    370 207.7   9.0  34144  289.30 0855.03
2009/04/23 12:15:22.5    -112   -258     46    282    286 203.6   9.3  34144  289.31 0855.03
2009/04/23 12:15:22.6     -17   -327     37    328    331 183.1   6.5  34142  289.26 0855.03
2009/04/23 12:15:22.7     -12   -429    241    430    492 181.6  31.7  34146  289.34 0855.03
2009/04/23 12:15:22.8      41   -490    119    492    507 175.2  13.7  34142  289.27 0854.97
2009/04/23 12:15:22.9     -51   -457     93    460    470 186.5  11.5  34140  289.22 0854.97
2009/04/23 12:15:23.0      90   -368     47    379    382 166.2   7.1  34144  289.30 0854.97
2009/04/23 12:15:23.1      69   -364     30    371    373 169.2   4.7  34140  289.23 0854.97
2009/04/23 12:15:23.2     -41   -381     60    384    389 186.2   9.0  34146  289.32 0854.97
2009/04/23 12:15:23.3     -59   -418     93    423    434 188.1  12.5  34140  289.24 0854.97
2009/04/23 12:15:23.4     -94   -442     71    452    458 192.0   9.0  34140  289.22 0854.97
2009/04/23 12:15:23.5    -142   -344    159    373    405 202.4  24.6  34136  289.15 0854.97
2009/04/23 12:15:23.6    -199   -314    209    373    427 212.4  31.6  34136  289.16 0854.97
2009/04/23 12:15:23.7    -212   -279    130    351    374 217.2  21.3  34144  289.30 0854.97
2009/04/23 12:15:23.8    -168   -314    109    357    374 208.2  17.0  34136  289.15 0854.97
2009/04/23 12:15:23.9     -57   -212    143    220    262 195.1  35.7  34140  289.22 0854.97
2009/04/23 12:15:24.0     -90   -266     77    281    292 198.7  15.3  34140  289.22 0854.97
2009/04/23 12:15:24.1    -249   -180     17    308    309 234.0   3.3  34134  289.14 0854.97
2009/04/23 12:15:24.2    -220     25    -12    222    223 276.6  -3.2  34150  289.41 0854.97
2009/04/23 12:15:24.3    -276     34     98    279    295 277.2  20.0  34144  289.29 0854.97
2009/04/23 12:15:24.4    -243     16    105    244    265 273.9  24.9  34154  289.47 0854.97
2009/04/23 12:15:24.5    -233    -24     48    235    240 263.9  11.6  34156  289.51 0854.97
2009/04/23 12:15:24.6    -186    -96    -34    210    213 242.7  -9.3  34152  289.43 0854.97
2009/04/23 12:15:24.7     -58    -91    -13    109    110 212.6  -7.2  34150  289.40 0854.97
2009/04/23 12:15:24.8    -123    -78     27    146    149 237.6  10.6  34146  289.35 0854.96
2009/04/23 12:15:24.9    -147   -149    -27    210    212 224.5  -7.5  34146  289.35 0854.96
2009/04/23 12:15:25.0    -240   -262   -101    356    370 222.6 -20.7  34142  289.28 0854.96
2009/04/23 12:15:25.1    -299   -151   -101    336    351 243.1 -16.8  34138  289.20 0854.96
2009/04/23 12:15:25.2    -350    -69     -2    357    358 258.8  -0.4  34138  289.20 0854.96
2009/04/23 12:15:25.3    -623   -126   -108    636    646 258.6  -9.7  34126  289.01 0854.96
2009/04/23 12:15:25.4    -559    -63   -134    563    579 263.5 -13.4  34132  289.10 0854.96
2009/04/23 12:15:25.5    -406     87   -179    416    452 282.2 -29.3  34136  289.16 0854.96
2009/04/23 12:15:25.6    -465     65   -168    470    500 278.0 -19.7  34134  289.13 0854.96
2009/04/23 12:15:25.7    -557    177   -170    585    609 287.7 -20.9  34134  289.12 0854.96
2009/04/23 12:15:25.8    -413     66   -121    419    437 279.1 -16.2  34138  289.21 0854.96
2009/04/23 12:15:25.9    -367     51   -139    371    396 277.9 -25.9  34130  289.06 0854.96
2009/04/23 12:15:26.0    -369    188   -121    415    432 297.0 -21.0  34128  289.02 0854.96
2009/04/23 12:15:26.1    -326    213   -107    390    404 303.2 -20.0  34132  289.11 0854.96
2009/04/23 12:15:26.2    -350    464    -37    582    584 323.0  -3.7  34138  289.20 0854.96
2009/04/23 12:15:26.3    -478    262   -174    546    573 298.8 -22.8  34136  289.18 0854.96
2009/04/23 12:15:26.4    -359    382     68    525    530 316.8   7.4  34140  289.24 0854.96
2009/04/23 12:15:26.5    -364    288    -14    465    466 308.4  -1.8  34140  289.22 0854.96
2009/04/23 12:15:26.6    -349    164   -130    386    407 295.2 -23.5  34138  289.21 0854.96
2009/04/23 12:15:26.7    -450    306   -196    545    580 304.2 -19.8  34132  289.09 0854.96
2009/04/23 12:15:26.8    -563    352   -235    665    706 302.0 -19.5  34140  289.22 0854.99
2009/04/23 12:15:26.9    -776    283   -245    827    863 290.1 -16.5  34124  288.95 0854.99
2009/04/23 12:15:27.0    -467   -339     18    578    579 234.0   1.8  34132  289.10 0854.99
2009/04/23 12:15:27.1    -528   -586    -94    790    796 222.0  -6.8  34138  289.19 0854.99
2009/04/23 12:15:27.2    -248   -619     22    668    669 201.9   1.9  34128  289.04 0854.99
2009/04/23 12:15:27.3    -163   -275    275    320    421 210.7  44.9  34132  289.10 0854.99
2009/04/23 12:15:27.4    -321    170    134    364    387 297.9  21.0  34140  289.23 0854.99
2009/04/23 12:15:27.5    -380     40    146    383    409 276.1  22.0  34136  289.16 0854.99
2009/04/23 12:15:27.6    -375    105    202    390    439 285.7  29.4  34144  289.29 0854.99
2009/04/23 12:15:27.7    -330    209    261    391    470 302.4  37.0  34136  289.16 0854.99
2009/04/23 12:15:27.8    -360    121    138    380    404 288.6  20.9  34132  289.11 0854.99
2009/04/23 12:15:27.9    -493    -25    -39    494    496 267.1  -4.6  34136  289.17 0854.99
2009/04/23 12:15:28.0    -366    -75     23    374    375 258.3   3.6  34132  289.11 0854.99
2009/04/23 12:15:28.1    -458   -281      6    538    539 238.5   0.7  34136  289.18 0854.99
2009/04/23 12:15:28.2    -393   -314    -54    504    508 231.4  -6.2  34132  289.10 0854.99
2009/04/23 12:15:28.3    -191   -436     49    477    480 203.6   5.9  34136  289.15 0854.99
2009/04/23 12:15:28.4    -136   -399     13    422    423 198.9   1.8  34134  289.14 0854.99
2009/04/23 12:15:28.5     -51   -428    -40    432    435 186.8  -5.4  34138  289.21 0854.99
2009/04/23 12:15:28.6    -145   -639     26    656    657 192.8   2.3  34142  289.25 0854.99
2009/04/23 12:15:28.7    -433   -673    -17    801    802 212.8  -1.3  34132  289.10 0854.99
2009/04/23 12:15:28.8    -387   -697    -16    798    799 209.0  -1.2  34146  289.32 0854.99
2009/04/23 12:15:28.9    -318   -461     63    561    565 214.6   6.5  34130  289.06 0854.99
2009/04/23 12:15:29.0    -418   -196   -157    462    487 244.8 -23.8  34138  289.20 0854.99
2009/04/23 12:15:29.1    -564   -493   -210    750    780 228.8 -15.7  34130  289.07 0854.99
2009/04/23 12:15:29.2    -792   -354   -239    868    900 245.9 -20.0  34122  288.94 0854.99
2009/04/23 12:15:29.3    -579   -356   -201    680    709 238.4 -21.2  34124  288.95 0854.99
2009/04/23 12:15:29.4   -1072   -155   -395   1084   1153 261.8 -25.4  34128  289.02 0854.99
2009/04/23 12:15:29.5    -757   -637    -89    990    995 229.9  -5.2  34132  289.09 0854.99
2009/04/23 12:15:29.6    -600   -342   -138    691    705 240.3 -11.3  34150  289.40 0854.99
2009/04/23 12:15:29.7    -438   -205   -186    484    518 244.9 -26.6  34146  289.35 0854.99
2009/04/23 12:15:29.8    -440   -451   -172    631    655 224.3 -15.3  34142  289.28 0854.99
2009/04/23 12:15:29.9    -562   -340    -78    658    663 238.8  -6.8  34136  289.17 0854.99
2009/04/23 12:15:30.0    -455   -440   -133    634    648 226.0 -11.9  34144  289.30 0854.99
2009/04/23 12:15:30.1    -165   -247    -22    298    299 213.8  -4.4  34150  289.39 0854.99
2009/04/23 12:15:30.2    -201   -348     80    403    412 210.0  11.3  34142  289.27 0854.99
2009/04/23 12:15:30.3    -214   -240     -2    322    323 221.7  -0.5  34146  289.32 0854.99
2009/04/23 12:15:30.4    -204   -298   -117    362    381 214.4 -18.0  34152  289.45 0854.99
2009/04/23 12:15:30.5    -204   -191    -90    280    295 226.8 -17.9  34152  289.42 0854.99
2009/04/23 12:15:30.6     -75   -213      1    226    227 199.4   0.5  34152  289.43 0854.99
2009/04/23 12:15:30.7     -27   -253     12    255    256 186.2   2.9  34142  289.27 0854.99
2009/04/23 12:15:30.8    -139   -387    -71    412    419 199.8  -9.8  34140  289.24 0854.99
2009/04/23 12:15:30.9      52   -265   -133    271    301 168.9 -32.6  34138  289.20 0854.99
2009/04/23 12:15:31.0    -140   -212   -140    255    290 213.4 -35.7  34138  289.19 0854.99
2009/04/23 12:15:31.1     -53    -75   -118     92    149 215.2 -62.3  34142  289.26 0854.99
2009/04/23 12:15:31.2      66   -248    -86    257    271 165.1 -23.6  34142  289.27 0854.99
2009/04/23 12:15:31.3      57   -258   -164    265    311 167.5 -39.6  34140  289.24 0854.99
2009/04/23 12:15:31.4      10   -118   -140    119    183 175.1 -60.0  34144  289.30 0854.99
2009/04/23 12:15:31.5     100   -225    -96    247    265 155.9 -26.7  34132  289.10 0854.99
2009/04/23 12:15:31.6     165   -181    -53    246    252 137.7 -12.2  34140  289.24 0854.99
2009/04/23 12:15:31.7     108   -200     -1    228    229 151.7  -0.3  34136  289.18 0854.99
2009/04/23 12:15:31.8     114   -118     -2    165    166 135.9  -0.7  34138  289.21 0854.99
2009/04/23 12:15:31.9      99    -82    -16    129    131 129.5  -7.3  34138  289.21 0854.99
2009/04/23 12:15:32.0     -32     64    -77     72    105 332.8 -56.5  34136  289.18 0854.99
2009/04/23 12:15:32.1    -168    134   -158    216    267 308.6 -44.1  34136  289.17 0854.99
2009/04/23 12:15:32.2    -209    207    -26    295    297 314.8  -5.2  34132  289.09 0854.99
2009/04/23 12:15:32.3    -171    196   -115    261    285 319.0 -29.6  34126  289.00 0854.99
2009/04/23 12:15:32.4    -112    208     99    237    256 331.7  24.1  34124  288.97 0854.99
2009/04/23 12:15:32.5     -24     71    283     76    293 341.3  84.9  34136  289.17 0854.99
2009/04/23 12:15:32.6     254   -129    135    286    316 117.0  27.0  34134  289.12 0854.99
2009/04/23 12:15:32.7     261   -248     56    361    366 133.5   8.9  34130  289.06 0854.99
2009/04/23 12:15:32.8     105   -101     98    146    175 134.0  36.7  34134  289.14 0854.98
2009/04/23 12:15:32.9      -9   -237    138    238    275 182.2  32.9  34136  289.15 0854.98
2009/04/23 12:15:33.0       7   -253    217    254    334 178.2  44.8  34132  289.10 0854.98
2009/04/23 12:15:33.1      23   -298    265    299    399 175.5  46.2  34132  289.10 0854.98
2009/04/23 12:15:33.2      83   -341    226    352    418 166.2  35.6  34138  289.21 0854.98
2009/04/23 12:15:33.3      71   -338    123    346    367 168.1  20.2  34136  289.16 0854.98
2009/04/23 12:15:33.4     127   -300     62    326    332 157.1  10.8  34134  289.13 0854.98
2009/04/23 12:15:33.5     117   -203     83    235    250 149.9  19.4  34134  289.14 0854.98
2009/04/23 12:15:33.6     182   -176    135    254    287 134.0  30.2  34136  289.17 0854.98
2009/04/23 12:15:33.7     -21   -103    189    106    216 191.6  68.8  34136  289.18 0854.98
2009/04/23 12:15:33.8       8    -60    222     61    230 172.0  84.8  34138  289.21 0854.98
2009/04/23 12:15:33.9     -24    -73    147     77    165 198.3  70.0  34134  289.14 0854.98
2009/04/23 12:15:34.0     151    -57    191    162    250 110.8  55.4  34138  289.21 0854.98
2009/04/23 12:15:34.1      54   -174    193    183    265 162.8  52.0  34130  289.07 0854.98
2009/04/23 12:15:34.2       3    -88    184     89    204 177.8  72.7  34132  289.11 0854.98
2009/04/23 12:15:34.3     181   -172    190    250    314 133.6  41.2  34136  289.17 0854.98
2009/04/23 12:15:34.4     182   -315    354    364    507 150.0  49.3  34130  289.05 0854.98
2009/04/23 12:15:34.5     105    -81    183    133    226 127.8  60.5  34138  289.21 0854.98
2009/04/23 12:15:34.6      22   -307    211    308    373 175.8  37.8  34130  289.06 0854.98
2009/04/23 12:15:34.7       3   -202    275    203    341 179.0  60.1  34136  289.15 0854.98
2009/04/23 12:15:34.8     -45     45    156     65    169 315.0  76.3  34136  289.18 0854.98
2009/04/23 12:15:34.9    -156   -156    195    221    294 225.0  45.9  34140  289.24 0854.98
2009/04/23 12:15:35.0    -332   -216     -8    397    398 237.0  -1.2  34134  289.13 0854.98
2009/04/23 12:15:35.1    -455   -227    -46    509    512 243.5  -5.2  34136  289.18 0854.98
2009/04/23 12:15:35.2    -585   -348   -118    681    692 239.3  -9.9  34148  289.36 0854.98
2009/04/23 12:15:35.3    -401   -365    -75    543    549 227.7  -7.9  34156  289.50 0854.98
2009/04/23 12:15:35.4    -229   -472    -70    525    530 205.9  -7.7  34142  289.26 0854.98
2009/04/23 12:15:35.5    -269   -431    -94    509    518 212.0 -10.5  34146  289.34 0854.98
2009/04/23 12:15:35.6    -334   -356   -149    489    511 223.2 -21.8  34138  289.20 0854.98
2009/04/23 12:15:35.7    -488   -217   -122    534    548 246.0 -12.9  34146  289.35 0854.98
2009/04/23 12:15:35.8    -389     12   -286    390    483 271.9 -44.3  34150  289.39 0854.98
2009/04/23 12:15:35.9    -504      7   -321    505    598 270.8 -39.9  34138  289.20 0854.98
2009/04/23 12:15:36.0    -541     33   -246    542    595 273.5 -30.6  34130  289.05 0854.98
2009/04/23 12:15:36.1    -481    135   -173    500    530 285.7 -19.1  34134  289.14 0854.98
2009/04/23 12:15:36.2    -185    -52   -216    193    289 254.1 -58.4  34136  289.15 0854.98
2009/04/23 12:15:36.3    -207    -16   -264    208    336 265.4 -62.3  34136  289.17 0854.98
2009/04/23 12:15:36.4    -350    -64   -134    356    380 259.5 -25.9  34136  289.18 0854.98
2009/04/23 12:15:36.6    -253    -78    -30    265    267 252.7  -6.5  34144  289.31 0854.98
2009/04/23 12:15:36.6    -318    188    -44    370    373 300.7  -6.8  34130  289.08 0854.98
2009/04/23 12:15:36.8    -399   -100   -177    412    448 255.9 -29.3  34142  289.27 0854.98
2009/04/23 12:15:36.8    -645    -94   -290    652    713 261.7 -30.1  34144  289.31 0854.98
2009/04/23 12:15:36.9    -624   -126   -326    637    715 258.5 -33.6  34126  288.99 0854.98
2009/04/23 12:15:37.1    -850   -157   -407    865    955 259.5 -31.5  34104  288.62 0854.98
2009/04/23 12:15:37.1    -807    -61   -529    810    967 265.7 -40.6  34118  288.87 0854.98
2009/04/23 12:15:37.2    -543     -7   -358    544    651 269.2 -40.9  34116  288.82 0854.98
2009/04/23 12:15:37.4    -632   -210   -392    666    772 251.6 -37.8  34126  289.01 0854.98
2009/04/23 12:15:37.4    -525   -148   -375    546    662 254.2 -42.2  34128  289.03 0854.98
2009/04/23 12:15:37.6    -235   -350   -150    422    449 213.9 -19.6  34130  289.05 0854.98
2009/04/23 12:15:37.7    -142   -288   -170    322    364 206.3 -34.4  34136  289.16 0854.98
2009/04/23 12:15:37.8     -39   -145   -247    151    289 195.1 -70.1  34134  289.12 0854.98
2009/04/23 12:15:37.9    -248   -158   -144    295    328 237.5 -32.3  34122  288.93 0854.96
2009/04/23 12:15:38.0    -504   -143   -385    525    651 254.1 -44.2  34130  289.07 0854.96
2009/04/23 12:15:38.1    -394   -161   -149    426    451 247.7 -24.4  34134  289.14 0854.96
2009/04/23 12:15:38.2    -319   -445   -184    548    578 215.6 -23.5  34130  289.06 0854.96
2009/04/23 12:15:38.3    -274   -437     58    516    520 212.1   6.5  34134  289.13 0854.96
2009/04/23 12:15:38.4    -150   -538    196    559    593 195.6  19.4  34124  288.95 0854.96
2009/04/23 12:15:38.5      -5   -825    150    826    840 180.4  10.3  34132  289.11 0854.96
2009/04/23 12:15:38.6      14   -828     34    829    830 179.0   2.4  34138  289.20 0854.96
2009/04/23 12:15:38.7     212   -662     20    696    697 162.2   1.7  34132  289.10 0854.96
2009/04/23 12:15:38.8     329   -609      0    693    694 151.6   0.0  34128  289.04 0854.96
2009/04/23 12:15:38.9     494   -464     44    678    680 133.2   3.7  34130  289.07 0854.96
2009/04/23 12:15:39.0     504   -327      8    601    602 123.0   0.8  34132  289.10 0854.96
2009/04/23 12:15:39.1     303   -440     49    535    538 145.4   5.3  34136  289.18 0854.96
2009/04/23 12:15:39.2     243   -492    184    549    580 153.7  18.6  34134  289.12 0854.96
2009/04/23 12:15:39.3     309   -405    145    510    531 142.6  15.9  34122  288.94 0854.96
2009/04/23 12:15:39.4     371   -605    128    710    722 148.5  10.2  34124  288.96 0854.96
2009/04/23 12:15:39.5     180   -552    124    581    595 161.9  12.1  34124  288.97 0854.96
2009/04/23 12:15:39.6     389   -425    161    577    600 137.6  15.6  34128  289.03 0854.96
2009/04/23 12:15:39.7     314   -410    191    517    551 142.5  21.3  34132  289.11 0854.96
2009/04/23 12:15:39.8      70   -506     71    511    517 172.1   8.0  34134  289.12 0854.96
2009/04/23 12:15:39.9      48   -375    103    379    393 172.6  15.3  34126  289.01 0854.95
2009/04/23 12:15:40.0      22   -401    263    402    480 176.8  36.3  34132  289.09 0854.95
2009/04/23 12:15:40.1      79   -275    264    287    389 164.0  47.5  34132  289.10 0854.95
2009/04/23 12:15:40.2    -127   -349    240    372    442 200.1  35.7  34126  289.00 0854.95
2009/04/23 12:15:40.3    -130   -370    148    393    419 199.4  21.6  34132  289.09 0854.95
2009/04/23 12:15:40.4     -64   -329    155    336    370 191.1  26.5  34132  289.11 0854.95
2009/04/23 12:15:40.5     -65   -377    152    383    412 189.8  23.0  34136  289.16 0854.95
2009/04/23 12:15:40.6     -74   -437     87    444    453 189.7  11.1  34132  289.11 0854.95
2009/04/23 12:15:40.7     -48   -446     39    449    451 186.3   5.0  34128  289.02 0854.95
2009/04/23 12:15:40.8     -83   -574     -2    581    582 188.2  -0.2  34120  288.90 0854.95
2009/04/23 12:15:40.9    -261   -505    -71    569    574 207.4  -7.2  34126  288.98 0854.95
2009/04/23 12:15:41.0    -321   -470   -160    570    593 214.4 -15.7  34144  289.29 0854.95
2009/04/23 12:15:41.1    -292   -352   -169    458    488 219.7 -25.7  34132  289.10 0854.95
2009/04/23 12:15:41.2    -156   -390   -114    421    437 201.8 -15.2  34144  289.29 0854.95
2009/04/23 12:15:41.3    -146   -364   -150    393    420 201.9 -26.4  34146  289.34 0854.95
2009/04/23 12:15:41.4    -146   -393   -135    420    441 200.5 -22.9  34136  289.16 0854.95
2009/04/23 12:15:41.5    -149   -314   -152    348    379 205.4 -29.5  34142  289.28 0854.95
2009/04/23 12:15:41.6    -131   -232    -19    267    268 209.4  -4.1  34140  289.24 0854.95
2009/04/23 12:15:41.7    -228   -194    -76    300    310 229.5 -14.3  34136  289.15 0854.95
2009/04/23 12:15:41.8     -43   -264    -42    268    272 189.3  -9.0  34140  289.24 0854.95
2009/04/23 12:15:41.9    -126   -198    -13    235    236 212.5  -3.3  34140  289.24 0854.94
2009/04/23 12:15:42.0      52   -109     57    121    133 154.5  27.2  34138  289.21 0854.94
2009/04/23 12:15:42.1     -83   -200    205    217    298 202.7  48.0  34136  289.17 0854.94
2009/04/23 12:15:42.2     -69   -244    178    254    310 195.8  38.5  34136  289.15 0854.94
2009/04/23 12:15:42.3    -192   -362     33    410    412 208.0   4.7  34130  289.05 0854.94
2009/04/23 12:15:42.4    -225   -421     39    478    480 208.1   4.7  34134  289.13 0854.94
2009/04/23 12:15:42.5    -210   -334     76    395    403 212.1  11.0  34130  289.06 0854.94
2009/04/23 12:15:42.6    -157   -247    161    294    335 212.5  31.3  34134  289.12 0854.94
2009/04/23 12:15:42.7     -55   -249    288    256    385 192.5  54.0  34136  289.16 0854.94
2009/04/23 12:15:42.8     -76   -261    239    272    362 196.3  45.8  34138  289.20 0854.94
2009/04/23 12:15:42.9      54   -250    275    256    375 167.6  52.2  34132  289.11 0854.94
2009/04/23 12:15:43.0     -13    -54    272     56    277 194.3  89.0  34126  288.99 0854.94
2009/04/23 12:15:43.1       5     62    239     63    247   5.3  85.2  34132  289.11 0854.94
2009/04/23 12:15:43.2     -46     75    166     89    188 328.4  69.6  34134  289.13 0854.94
2009/04/23 12:15:43.3     -32    -68    177     76    192 205.5  75.5  34140  289.24 0854.94
2009/04/23 12:15:43.4     -24   -149    203    152    253 189.3  59.6  34136  289.16 0854.94
2009/04/23 12:15:43.5      -3   -112    186    113    217 181.8  66.0  34138  289.19 0854.94
2009/04/23 12:15:43.6     -38   -208    173    212    273 190.5  43.5  34136  289.15 0854.94
2009/04/23 12:15:43.7    -112   -338     70    357    364 198.4  11.1  34132  289.10 0854.94
2009/04/23 12:15:43.8     -23   -366    140    367    392 183.7  22.0  34136  289.16 0854.94
2009/04/23 12:15:43.9     109   -365    151    381    409 163.4  23.0  34134  289.13 0854.93
2009/04/23 12:15:44.0      76   -496    220    502    548 171.2  25.2  34132  289.09 0854.93
2009/04/23 12:15:44.1     137   -447    311    468    561 163.0  36.6  34128  289.04 0854.93
2009/04/23 12:15:44.2     -49   -385    263    389    469 187.3  37.4  34130  289.05 0854.93
2009/04/23 12:15:44.3    -114   -474    168    488    517 193.5  19.1  34126  289.01 0854.93
2009/04/23 12:15:44.4    -146   -655     52    672    675 192.6   4.5  34122  288.94 0854.93
2009/04/23 12:15:44.5    -149   -666    212    683    716 192.6  17.3  34134  289.13 0854.93
2009/04/23 12:15:44.6     -42   -739     93    741    747 183.3   7.2  34130  289.06 0854.93
2009/04/23 12:15:44.7     -43   -724    115    726    736 183.4   9.0  34124  288.95 0854.93
2009/04/23 12:15:44.8    -134   -736    231    749    785 190.4  17.2  34130  289.05 0854.93
2009/04/23 12:15:44.9    -309   -754    308    816    872 202.3  21.7  34128  289.02 0854.93
2009/04/23 12:15:45.0    -301   -710    108    772    780 203.0   8.0  34120  288.88 0854.93
2009/04/23 12:15:45.1    -292   -533     86    608    615 208.8   8.1  34120  288.88 0854.93
2009/04/23 12:15:45.2    -226   -515    326    563    650 203.7  32.7  34110  288.74 0854.93
2009/04/23 12:15:45.3    -393   -533    203    663    694 216.4  17.0  34130  289.05 0854.93
2009/04/23 12:15:45.4    -374   -515    247    637    683 216.0  22.4  34132  289.09 0854.93
2009/04/23 12:15:45.5    -377   -475    202    607    640 218.4  18.4  34132  289.09 0854.93
2009/04/23 12:15:45.6    -554   -543     92    776    782 225.6   6.8  34130  289.07 0854.93
2009/04/23 12:15:45.7    -480   -654     42    812    814 216.3   3.0  34128  289.03 0854.93
2009/04/23 12:15:45.8    -493   -584     10    765    766 220.2   0.8  34134  289.14 0854.93
2009/04/23 12:15:45.9    -459   -332    111    567    578 234.1  11.1  34126  289.00 0854.91
2009/04/23 12:15:46.0    -241   -461    444    521    684 207.6  44.8  34116  288.84 0854.91
2009/04/23 12:15:46.1    -197   -395    276    442    521 206.6  35.0  34124  288.96 0854.91
2009/04/23 12:15:46.2    -206   -313    257    375    454 213.4  37.7  34130  289.05 0854.91
2009/04/23 12:15:46.3      19   -544    377    545    662 178.0  38.0  34128  289.03 0854.91
2009/04/23 12:15:46.4      29   -494    245    495    552 176.6  28.2  34132  289.11 0854.91
2009/04/23 12:15:46.5      -8   -402    248    403    473 181.2  34.4  34140  289.24 0854.91
2009/04/23 12:15:46.6      20   -382    218    383    440 177.0  32.3  34140  289.24 0854.91
2009/04/23 12:15:46.7     -56   -322    201    327    383 189.9  34.8  34134  289.13 0854.91
2009/04/23 12:15:46.8     -89   -376    229    387    449 193.4  33.5  34132  289.09 0854.91
2009/04/23 12:15:46.9    -150   -340    209    372    426 203.9  31.7  34132  289.09 0854.91
2009/04/23 12:15:47.0    -157   -372    243    404    471 202.9  33.8  34128  289.02 0854.91
2009/04/23 12:15:47.1     -44   -347    307    350    465 187.3  45.8  34130  289.05 0854.91
2009/04/23 12:15:47.2     -99   -394    318    407    516 194.2  41.9  34130  289.08 0854.91
2009/04/23 12:15:47.3    -112   -371    318    388    501 196.8  43.7  34134  289.13 0854.91
2009/04/23 12:15:47.4    -150   -522    335    544    638 196.0  34.6  34132  289.10 0854.91
2009/04/23 12:15:47.5      50   -415    364    419    555 173.0  45.5  34130  289.08 0854.91
2009/04/23 12:15:47.6      24   -519    362    520    633 177.3  38.3  34132  289.10 0854.91
2009/04/23 12:15:47.7     -34   -415    310    417    519 184.8  40.2  34126  289.01 0854.91
2009/04/23 12:15:47.8      33   -422    230    424    482 175.5  30.9  34134  289.14 0854.91
2009/04/23 12:15:47.9      23   -444    260    445    515 177.0  32.9  34130  289.06 0854.92
2009/04/23 12:15:48.0      -1   -492    282    493    567 180.2  32.3  34126  289.01 0854.92
2009/04/23 12:15:48.1      69   -499    294    504    583 172.1  32.9  34130  289.06 0854.92
2009/04/23 12:15:48.2       7   -456    308    457    551 179.1  37.3  34128  289.02 0854.92
2009/04/23 12:15:48.3       1   -488    288    489    567 179.8  33.3  34124  288.97 0854.92
2009/04/23 12:15:48.4      -6   -430    337    431    547 180.9  42.1  34128  289.03 0854.92
2009/04/23 12:15:48.5     -28   -411    303    412    511 183.9  40.0  34130  289.08 0854.92
2009/04/23 12:15:48.6      -7   -417    245    418    484 181.0  33.0  34132  289.09 0854.92
2009/04/23 12:15:48.7      -6   -387    290    388    484 181.0  40.6  34130  289.05 0854.92
2009/04/23 12:15:48.8     -85   -475    267    483    551 190.2  31.4  34126  288.99 0854.92
2009/04/23 12:15:48.9    -175   -471    189    503    537 200.4  21.5  34130  289.06 0854.92
2009/04/23 12:15:49.0     -63   -250    270    258    373 194.2  51.5  34126  289.01 0854.92
2009/04/23 12:15:49.1    -152   -217    245    266    361 215.0  47.5  34126  288.99 0854.92
2009/04/23 12:15:49.2     -87   -218    297    235    378 201.8  57.7  34126  289.01 0854.92
2009/04/23 12:15:49.3    -114   -282    270    305    407 202.1  46.1  34128  289.04 0854.92
2009/04/23 12:15:49.4     -40   -291    256    294    389 188.0  45.7  34128  289.03 0854.92
2009/04/23 12:15:49.5    -151   -223      8    270    271 214.2   1.8  34126  288.98 0854.92
2009/04/23 12:15:49.6    -206   -282    148    350    380 216.1  24.3  34126  288.99 0854.92
2009/04/23 12:15:49.7    -270   -374    183    462    496 215.8  22.8  34128  289.03 0854.92
2009/04/23 12:15:49.8    -161   -467     24    495    496 199.1   2.8  34124  288.96 0854.92
2009/04/23 12:15:49.9    -167   -421    158    454    480 201.7  20.0  34118  288.86 0854.95
2009/04/23 12:15:50.0    -175   -191    245    260    357 222.5  48.0  34130  289.05 0854.95
2009/04/23 12:15:50.1    -158    -81    102    178    205 242.7  32.7  34136  289.16 0854.95
2009/04/23 12:15:50.2    -220    -37     62    224    233 260.3  15.6  34132  289.09 0854.95
2009/04/23 12:15:50.3    -234     47    118    239    266 281.5  28.0  34136  289.17 0854.95
2009/04/23 12:15:50.4     -83     51     80     98    126 302.0  43.7  34142  289.28 0854.95
2009/04/23 12:15:50.5     -15   -198    152    199    250 184.5  41.4  34130  289.07 0854.95
2009/04/23 12:15:50.6    -260   -312    -34    407    409 219.8  -4.9  34128  289.04 0854.95
2009/04/23 12:15:50.7    -315   -239    -70    396    403 232.8 -10.1  34118  288.86 0854.95
2009/04/23 12:15:50.8    -248   -190     91    313    327 232.5  16.3  34130  289.07 0854.95
2009/04/23 12:15:50.9    -214   -159    101    267    285 233.4  21.7  34132  289.10 0854.95
2009/04/23 12:15:51.0     -89   -137    116    164    200 213.2  38.8  34130  289.08 0854.95
2009/04/23 12:15:51.1     -91   -191     72    212    225 205.5  18.9  34130  289.08 0854.95
2009/04/23 12:15:51.2    -110   -139    143    178    228 218.3  43.3  34134  289.14 0854.95
2009/04/23 12:15:51.3     -60   -102     72    119    139 210.3  34.0  34134  289.14 0854.95
2009/04/23 12:15:51.4     -73   -155    130    172    215 205.2  41.2  34134  289.13 0854.95
2009/04/23 12:15:51.5    -150   -170    127    227    260 221.5  31.4  34134  289.12 0854.95
2009/04/23 12:15:51.6    -152   -139     98    207    229 227.6  27.2  34128  289.04 0854.95
2009/04/23 12:15:51.7     -27    -80    115     85    143 198.7  60.5  34136  289.16 0854.95
2009/04/23 12:15:51.8     -47    -16    161     50    168 250.9  82.3  34140  289.24 0854.95
2009/04/23 12:15:51.9    -121     -9    141    122    186 265.6  55.0  34128  289.02 0854.93
2009/04/23 12:15:52.0     -45    -34    150     57    160 233.1  78.6  34140  289.23 0854.93
2009/04/23 12:15:52.1    -207   -132     70    246    256 237.5  16.0  34136  289.17 0854.93
2009/04/23 12:15:52.2    -258      0      7    259    260 270.0   1.6  34140  289.24 0854.93
2009/04/23 12:15:52.3    -210    -22     87    212    229 263.9  23.1  34136  289.18 0854.93
2009/04/23 12:15:52.4     -63     99     28    118    122 327.4  13.7  34142  289.26 0854.93
2009/04/23 12:15:52.5      24     47    108     53    120  27.2  72.4  34136  289.16 0854.93
2009/04/23 12:15:52.6     -60    -84    124    104    161 215.6  55.6  34134  289.13 0854.93
2009/04/23 12:15:52.7     -85    -13    103     86    134 261.2  56.3  34128  289.04 0854.93
2009/04/23 12:15:52.8       0     74    132     75    151   0.0  68.3  34136  289.16 0854.93
2009/04/23 12:15:52.9     -66     32    107     74    130 296.2  62.6  34138  289.19 0854.93
2009/04/23 12:15:53.0    -106      8    150    107    184 274.4  61.1  34134  289.14 0854.93
2009/04/23 12:15:53.1    -135    -74     90    155    179 241.2  32.7  34132  289.11 0854.93
2009/04/23 12:15:53.2    -223     -3     92    224    242 269.0  23.6  34134  289.12 0854.93
2009/04/23 12:15:53.3    -101     83     73    132    150 309.5  31.4  34132  289.09 0854.93
2009/04/23 12:15:53.4    -119    -25     33    122    127 258.1  15.3  34132  289.11 0854.93
2009/04/23 12:15:53.5     -94    -60     83    112    139 237.6  39.7  34136  289.16 0854.93
2009/04/23 12:15:53.6    -156    -47     56    164    174 253.1  18.9  34132  289.11 0854.93
2009/04/23 12:15:53.7    -160    -32     34    164    168 258.6  12.0  34128  289.04 0854.93
2009/04/23 12:15:53.8    -113     22     61    116    131 281.4  29.3  34130  289.06 0854.93
2009/04/23 12:15:53.9    -112     -8     44    113    121 265.7  22.5  34130  289.08 0854.92
2009/04/23 12:15:54.0      68    108     -2    128    129  32.1  -1.2  34130  289.06 0854.92
2009/04/23 12:15:54.1     115    230     20    258    259  26.5   4.6  34138  289.19 0854.92
2009/04/23 12:15:54.2      79    266     39    278    281  16.5   8.0  34138  289.19 0854.92
2009/04/23 12:15:54.3      28    244     70    246    256   6.7  16.0  34134  289.14 0854.92
2009/04/23 12:15:54.4     -70    231     89    242    257 343.0  21.0  34134  289.14 0854.92
2009/04/23 12:15:54.5     -51    149     29    158    161 340.8  10.6  34138  289.19 0854.92
2009/04/23 12:15:54.6    -112    177     -7    210    211 327.5  -2.1  34134  289.13 0854.92
2009/04/23 12:15:54.7     -93    176    -65    200    210 332.1 -23.6  34136  289.16 0854.92
2009/04/23 12:15:54.8     -72     87    -98    113    149 320.4 -49.8  34142  289.26 0854.92
2009/04/23 12:15:54.9    -125    213     25    248    250 329.5   5.9  34138  289.19 0854.92
2009/04/23 12:15:55.0    -158    223     43    274    278 324.8   9.0  34136  289.17 0854.92
2009/04/23 12:15:55.1    -211    134     41    251    255 302.4   9.3  34138  289.19 0854.92
2009/04/23 12:15:55.2    -164    129     82    210    225 308.2  22.8  34140  289.24 0854.92
2009/04/23 12:15:55.3    -190    224     25    295    297 319.7   4.9  34134  289.14 0854.92
2009/04/23 12:15:55.4    -241    225     31    330    332 313.0   5.4  34136  289.18 0854.92
2009/04/23 12:15:55.5    -281    247      5    375    376 311.3   0.9  34140  289.23 0854.92
2009/04/23 12:15:55.6    -317    223     40    388    391 305.1   5.9  34146  289.35 0854.92
2009/04/23 12:15:55.7    -322    135    -73    350    358 292.7 -11.8  34142  289.26 0854.92
2009/04/23 12:15:55.8    -201    245    -36    318    321 320.6  -6.5  34138  289.20 0854.92
2009/04/23 12:15:55.9    -271    316    -91    417    428 319.4 -12.4  34132  289.09 0854.95
2009/04/23 12:15:56.0    -294    198   -112    355    372 304.0 -22.6  34122  288.94 0854.95
2009/04/23 12:15:56.1    -184    178     32    257    260 314.0   7.2  34122  288.93 0854.95
2009/04/23 12:15:56.2    -240    181     42    301    305 307.1   8.0  34130  289.07 0854.95
2009/04/23 12:15:56.3    -192    299    109    356    373 327.2  17.1  34126  288.98 0854.95
2009/04/23 12:15:56.4    -125    425    139    443    465 343.6  17.4  34134  289.12 0854.95
2009/04/23 12:15:56.5     -85    419    143    428    452 348.5  18.5  34142  289.26 0854.95
2009/04/23 12:15:56.6     -28    425     59    426    431 356.2   8.0  34144  289.31 0854.95
2009/04/23 12:15:56.7    -116    403    164    420    450 343.9  22.7  34152  289.44 0854.95
2009/04/23 12:15:56.8    -175    367     30    407    409 334.4   4.3  34142  289.27 0854.95
2009/04/23 12:15:56.9     -73    309    218    318    385 346.7  37.7  34136  289.16 0854.95
2009/04/23 12:15:57.0     -75    248    176    260    313 343.1  37.6  34138  289.19 0854.95
2009/04/23 12:15:57.1    -106    293    150    312    346 340.0  27.4  34134  289.13 0854.95
2009/04/23 12:15:57.2     -86    283    135    296    325 343.1  26.3  34132  289.10 0854.95
2009/04/23 12:15:57.3    -171    252    123    305    328 325.7  23.2  34132  289.10 0854.95
2009/04/23 12:15:57.4    -205    187     95    278    294 312.4  18.9  34136  289.15 0854.95
2009/04/23 12:15:57.5    -232    188    136    299    328 309.1  26.2  34132  289.10 0854.95
2009/04/23 12:15:57.6    -139    188    186    235    299 323.5  42.4  34154  289.47 0854.95
2009/04/23 12:15:57.7    -194    142     95    241    259 306.4  22.8  34180  289.90 0854.95
2009/04/23 12:15:57.8    -119    108    112    161    196 312.2  38.0  34154  289.48 0854.95
2009/04/23 12:15:57.9    -132    109    163    172    236 309.5  48.5  34156  289.52 0854.95
2009/04/23 12:15:58.0    -103     57     77    118    140 298.9  36.0  34162  289.62 0854.95
2009/04/23 12:15:58.1    -136    -17    -12    138    139 262.5  -5.2  34160  289.58 0854.95
2009/04/23 12:15:58.2     -42   -119    -59    127    140 199.6 -31.5  34158  289.55 0854.95
2009/04/23 12:15:58.3     -29    -92    -42     97    105 197.8 -29.0  34154  289.48 0854.95
2009/04/23 12:15:58.4    -191    -97    -76    215    228 242.9 -24.4  34154  289.46 0854.95
2009/04/23 12:15:58.5    -231   -176    -39    291    294 232.7  -7.7  34154  289.46 0854.95
2009/04/23 12:15:58.6    -325   -211    -36    388    390 237.0  -5.4  34150  289.40 0854.95
2009/04/23 12:15:58.7    -392   -236    -57    458    462 239.0  -7.2  34150  289.41 0854.95
2009/04/23 12:15:58.9    -287   -238   -118    373    392 230.3 -17.6  34148  289.38 0854.95
2009/04/23 12:15:58.9    -404   -158    -87    434    443 248.6 -11.3  34138  289.19 0854.95
2009/04/23 12:15:59.0    -469   -262   -138    538    556 240.8 -14.4  34134  289.14 0854.95
2009/04/23 12:15:59.1    -339   -369    -60    502    506 222.6  -6.9  34150  289.40 0854.95
2009/04/23 12:15:59.2    -220   -335    -44    401    404 213.3  -6.3  34132  289.11 0854.95
2009/04/23 12:15:59.3    -282   -351     -8    451    452 218.8  -1.1  34160  289.58 0854.95
2009/04/23 12:15:59.4    -399   -335    -56    521    525 230.0  -6.2  34138  289.19 0854.95
2009/04/23 12:15:59.5    -292   -334    -32    444    446 221.2  -4.1  34142  289.26 0854.95
2009/04/23 12:15:59.6    -319   -441    -43    545    547 215.9  -4.6  34168  289.72 0854.95
2009/04/23 12:15:59.7    -556   -317   -108    641    651 240.3  -9.6  34136  289.18 0854.95
2009/04/23 12:15:59.8    -800   -361   -248    878    913 245.7 -15.8  34124  288.97 0854.95
2009/04/23 12:15:59.9    -534   -298   -187    612    641 240.8 -17.0  34130  289.06 0854.95
2009/04/23 12:16:00.0    -431   -390   -158    582    604 227.8 -15.2  34150  289.39 0854.95
2009/04/23 12:16:00.1    -631   -393   -156    744    761 238.1 -11.9  34134  289.12 0854.95
2009/04/23 12:16:00.2    -646   -329   -147    725    740 243.0 -11.5  34126  288.99 0854.95
2009/04/23 12:16:00.3    -498   -305   -161    585    607 238.5 -15.4  34116  288.83 0854.95
2009/04/23 12:16:00.4    -524   -295   -161    602    624 240.6 -15.0  34120  288.89 0854.95
2009/04/23 12:16:00.5    -565   -238   -208    614    649 247.2 -18.7  34124  288.96 0854.95
2009/04/23 12:16:00.6    -514   -175   -233    544    591 251.2 -29.0  34114  288.78 0854.95
2009/04/23 12:16:00.7    -379   -130   -291    401    495 251.0 -44.1  34116  288.84 0854.95
2009/04/23 12:16:00.8    -327   -216    -84    393    403 236.5 -12.2  34128  289.04 0854.95
2009/04/23 12:16:00.9    -468   -139   -266    489    556 253.5 -35.3  34120  288.91 0854.94
2009/04/23 12:16:01.0    -508   -182   -405    540    675 250.2 -45.0  34126  288.99 0854.94
2009/04/23 12:16:01.1    -587   -384   -226    702    737 236.8 -22.9  34140  289.23 0854.94
2009/04/23 12:16:01.2    -401   -333   -136    522    540 230.4 -14.6  34122  288.94 0854.94
2009/04/23 12:16:01.3    -360   -309   -144    475    496 229.4 -21.8  34116  288.83 0854.94
2009/04/23 12:16:01.4    -550   -198   -207    585    620 250.2 -24.7  34116  288.83 0854.94
2009/04/23 12:16:01.5    -609   -220   -249    648    694 250.1 -26.6  34134  289.14 0854.94
2009/04/23 12:16:01.6    -567   -193   -198    600    631 251.2 -23.5  34136  289.16 0854.94
2009/04/23 12:16:01.7    -426   -261   -199    500    538 238.5 -27.4  34130  289.07 0854.94
2009/04/23 12:16:01.8    -358   -277   -220    453    503 232.3 -32.1  34130  289.06 0854.94
2009/04/23 12:16:01.9    -322   -357   -146    481    503 222.0 -17.0  34138  289.20 0854.94
2009/04/23 12:16:02.0    -316   -394   -139    506    524 218.8 -20.1  34126  288.98 0854.94
2009/04/23 12:16:02.1    -254   -334   -253    420    490 217.3 -38.2  34120  288.90 0854.94
2009/04/23 12:16:02.2    -225   -327   -234    398    461 214.5 -37.8  34116  288.83 0854.94
2009/04/23 12:16:02.3     -92    -92   -229    131    263 225.1 -72.1  34124  288.96 0854.94
2009/04/23 12:16:02.4    -230   -234   -188    329    378 224.6 -36.8  34122  288.94 0854.94
2009/04/23 12:16:02.5    -269   -245   -234    364    432 227.7 -40.1  34122  288.92 0854.94
2009/04/23 12:16:02.6    -226   -218   -232    315    391 226.0 -44.4  34120  288.89 0854.94
2009/04/23 12:16:02.7    -223   -255   -255    340    425 221.2 -45.0  34120  288.88 0854.94
2009/04/23 12:16:02.8    -211   -116   -245    242    344 241.1 -54.8  34122  288.92 0854.94
2009/04/23 12:16:02.9     -19    -88   -223     91    240 192.5 -81.2  34124  288.97 0854.94
2009/04/23 12:16:03.0    -236   -195   -117    307    328 230.5 -26.2  34124  288.97 0854.94
2009/04/23 12:16:03.1    -463   -347   -271    579    639 233.1 -31.4  34122  288.93 0854.94
2009/04/23 12:16:03.2    -531   -174   -192    559    591 251.9 -24.3  34126  288.98 0854.94
2009/04/23 12:16:03.3    -278   -228    -48    360    364 230.6  -7.6  34130  289.08 0854.94
2009/04/23 12:16:03.4    -237   -146   -168    279    325 238.4 -38.4  34130  289.07 0854.94
2009/04/23 12:16:03.5    -221   -296    -94    370    382 216.8 -14.3  34126  289.01 0854.94
2009/04/23 12:16:03.7    -316   -295   -133    433    452 227.0 -21.9  34130  289.05 0854.94
2009/04/23 12:16:03.7    -324   -291   -129    436    454 228.1 -21.4  34130  289.05 0854.94
2009/04/23 12:16:03.9    -139   -311   -101    341    356 204.1 -16.6  34132  289.11 0854.94
2009/04/23 12:16:04.0    -161   -223   -134    276    306 215.8 -31.8  34130  289.07 0854.94
2009/04/23 12:16:04.1    -221   -359   -152    422    448 211.6 -25.2  34128  289.02 0854.94
2009/04/23 12:16:04.2    -237   -208   -102    316    332 228.7 -23.2  34132  289.10 0854.94
2009/04/23 12:16:04.3    -123   -349   -103    371    386 199.5 -15.5  34132  289.10 0854.94
2009/04/23 12:16:04.4    -180   -286   -104    339    354 212.2 -21.9  34136  289.18 0854.94
2009/04/23 12:16:04.5    -181   -152    -97    237    256 229.8 -27.8  34138  289.19 0854.94
2009/04/23 12:16:04.6    -225   -185   -103    292    309 230.7 -24.4  34136  289.17 0854.94
2009/04/23 12:16:04.7    -244   -139   -169    282    328 240.3 -38.2  34132  289.10 0854.94
2009/04/23 12:16:04.8    -174   -184   -102    254    273 223.4 -27.4  34134  289.12 0854.94
2009/04/23 12:16:04.9     -98   -191   -117    215    244 207.2 -35.2  34124  288.97 0854.94
2009/04/23 12:16:05.0     -77   -236   -129    249    280 198.0 -33.7  34132  289.09 0854.93
2009/04/23 12:16:05.1       0   -307    -87    308    320 179.9 -20.5  34128  289.03 0854.93
2009/04/23 12:16:05.2       8   -248   -147    249    289 178.0 -37.9  34126  288.98 0854.93
2009/04/23 12:16:05.3     -65   -238   -107    247    269 195.4 -29.5  34132  289.09 0854.93
2009/04/23 12:16:05.4      15   -212    -76    213    227 175.8 -19.6  34128  289.04 0854.93
2009/04/23 12:16:05.5     156   -306     26    344    345 153.0   4.4  34128  289.03 0854.93
2009/04/23 12:16:05.6     130   -351    -31    375    377 159.6  -4.8  34128  289.04 0854.93
2009/04/23 12:16:05.7     135   -445    -31    466    468 163.1  -3.9  34124  288.96 0854.93
2009/04/23 12:16:05.8     149   -312   -112    347    365 154.4 -17.9  34126  288.99 0854.93
2009/04/23 12:16:05.9     172   -316   -121    361    381 151.4 -18.6  34122  288.93 0854.93
2009/04/23 12:16:06.0     120   -330   -150    352    382 160.0 -29.0  34130  289.06 0854.93
2009/04/23 12:16:06.1      43   -272    -89    276    289 170.9 -23.0  34130  289.05 0854.93
2009/04/23 12:16:06.2      11   -227    -63    228    236 177.1 -20.0  34132  289.09 0854.93
2009/04/23 12:16:06.3      -6   -141    -50    142    151 182.6 -19.7  34130  289.08 0854.93
2009/04/23 12:16:06.4     -10   -152     14    153    154 184.0   5.4  34132  289.11 0854.93
2009/04/23 12:16:06.5     -61   -225     68    234    244 195.2  16.3  34134  289.14 0854.93
2009/04/23 12:16:06.6      -2   -310     75    311    321 180.5  13.7  34136  289.17 0854.93
2009/04/23 12:16:06.7     -35   -229    100    232    252 188.7  24.9  34136  289.17 0854.93
2009/04/23 12:16:06.8     -68   -203     76    215    229 198.7  19.6  34138  289.19 0854.93
2009/04/23 12:16:06.9    -144   -298     54    332    337 205.9   9.3  34130  289.08 0854.93
2009/04/23 12:16:07.0    -134   -211    113    251    275 212.5  25.9  34130  289.05 0854.89
2009/04/23 12:16:07.1     -85   -100     94    132    162 220.5  39.1  34132  289.09 0854.89
2009/04/23 12:16:07.2     135   -254     45    288    292 151.9   8.9  34132  289.10 0854.89
2009/04/23 12:16:07.3     274   -424     35    506    508 147.1   4.0  34130  289.08 0854.89
2009/04/23 12:16:07.4      83   -444    222    452    503 169.4  28.0  34120  288.91 0854.89
2009/04/23 12:16:07.5     137   -410    270    433    510 161.4  34.9  34126  289.00 0854.89
2009/04/23 12:16:07.6      35   -353    396    355    531 174.2  53.6  34132  289.10 0854.89
2009/04/23 12:16:07.7      48   -170    271    177    323 164.2  63.9  34126  289.00 0854.89
2009/04/23 12:16:07.8      85   -331    228    342    411 165.6  36.9  34126  288.99 0854.89
2009/04/23 12:16:07.9     100   -352    112    366    383 164.1  17.1  34126  288.99 0854.89
2009/04/23 12:16:08.0      79   -238     -1    251    252 161.5  -0.3  34124  288.97 0854.89
2009/04/23 12:16:08.1      43   -213    -92    218    236 168.4 -28.6  34132  289.09 0854.89
2009/04/23 12:16:08.2     -22   -107    -19    110    112 192.0  -9.8  34130  289.08 0854.89
2009/04/23 12:16:08.3      74    -91     44    118    125 140.8  21.0  34128  289.02 0854.89
2009/04/23 12:16:08.4     207   -103    101    232    253 116.6  25.1  34132  289.09 0854.89
2009/04/23 12:16:08.5     139     -4    182    140    229  91.7  58.5  34128  289.04 0854.89
2009/04/23 12:16:08.6      33    -90    139     97    169 159.5  61.8  34132  289.11 0854.89
2009/04/23 12:16:08.7      62    -12    102     64    120 101.4  64.7  34130  289.06 0854.89
2009/04/23 12:16:08.8     123    -13    160    124    202  96.1  58.5  34126  288.99 0854.89
2009/04/23 12:16:08.9      99   -318    306    334    452 162.6  47.5  34122  288.94 0854.89
2009/04/23 12:16:09.0     -51   -300    193    305    360 189.8  35.5  34126  289.01 0854.89
2009/04/23 12:16:09.1    -134   -261    198    294    354 207.2  37.3  34126  288.98 0854.89
2009/04/23 12:16:09.2    -141   -337    126    366    388 202.7  19.1  34128  289.04 0854.89
2009/04/23 12:16:09.3     -17   -284     80    285    297 183.5  15.8  34126  289.00 0854.89
2009/04/23 12:16:09.4     -12   -288     61    289    296 182.5  12.0  34130  289.05 0854.89
2009/04/23 12:16:09.5     -17   -349     60    350    356 182.9   9.7  34128  289.04 0854.89
2009/04/23 12:16:09.6     -11   -418      0    419    420 181.6   0.0  34134  289.12 0854.89
2009/04/23 12:16:09.7      35   -455    -25    457    458 175.5  -3.1  34128  289.02 0854.89
2009/04/23 12:16:09.8     181   -334    -17    381    382 151.5  -2.7  34126  288.99 0854.89
2009/04/23 12:16:09.9     120   -369     20    389    390 162.0   3.0  34126  288.99 0854.89
2009/04/23 12:16:10.0     -22   -303    -16    304    305 184.2  -3.1  34124  288.97 0854.89
2009/04/23 12:16:10.1    -174   -204   -130    269    298 220.6 -31.7  34132  289.09 0854.89
2009/04/23 12:16:10.2    -280   -292      5    405    406 223.8   0.8  34126  288.99 0854.89
2009/04/23 12:16:10.3    -360   -242     84    435    444 236.1  11.0  34114  288.78 0854.89
2009/04/23 12:16:10.4    -218   -467     38    516    518 205.0   4.2  34118  288.86 0854.89
2009/04/23 12:16:10.5    -189   -496     34    532    534 200.9   3.7  34126  288.99 0854.89
2009/04/23 12:16:10.6     -34   -578     91    580    588 183.4   9.0  34118  288.86 0854.89
2009/04/23 12:16:10.7      22   -670    166    671    692 178.1  13.9  34116  288.82 0854.89
2009/04/23 12:16:10.8    -113   -687   -127    697    709 189.3 -10.4  34116  288.84 0854.89
2009/04/23 12:16:10.9     -87   -438   -142    447    470 191.3 -17.7  34120  288.90 0854.89
2009/04/23 12:16:11.0     -85   -262   -170    276    324 198.0 -39.2  34120  288.88 0854.95
2009/04/23 12:16:11.1      -2   -186     47    187    193 180.7  14.3  34124  288.96 0854.95
2009/04/23 12:16:11.2    -114    -73    -79    136    157 237.5 -37.1  34122  288.94 0854.95
2009/04/23 12:16:11.3    -149   -192     28    244    246 217.9   6.7  34116  288.83 0854.95
2009/04/23 12:16:11.4    -200   -372    125    423    442 208.2  16.5  34120  288.90 0854.95
2009/04/23 12:16:11.5    -284   -449     47    532    535 212.3   5.1  34120  288.91 0854.95
2009/04/23 12:16:11.6    -216   -540     86    582    589 201.8   8.5  34126  288.98 0854.95
2009/04/23 12:16:11.7    -212   -600    144    637    654 199.5  12.8  34120  288.91 0854.95
2009/04/23 12:16:11.8    -417   -580     29    715    716 215.7   2.4  34126  289.00 0854.95
2009/04/23 12:16:11.9    -387   -481    137    618    634 218.8  12.5  34124  288.96 0854.95
2009/04/23 12:16:12.0    -354   -468    104    587    597 217.1  10.1  34124  288.95 0854.95
2009/04/23 12:16:12.1    -466   -517    263    697    744 222.0  21.7  34116  288.81 0854.95
2009/04/23 12:16:12.2    -321   -328    187    460    496 224.4  23.4  34120  288.91 0854.95
2009/04/23 12:16:12.3    -297   -412    225    509    556 215.8  25.6  34124  288.97 0854.95
2009/04/23 12:16:12.4    -207   -516    247    557    609 201.9  25.6  34116  288.81 0854.95
2009/04/23 12:16:12.5    -232   -460    115    516    529 206.8  12.6  34120  288.91 0854.95
2009/04/23 12:16:12.6    -261   -510   -102    573    583 207.1 -10.1  34124  288.95 0854.95
2009/04/23 12:16:12.7     -91   -490     91    499    508 190.6  10.4  34118  288.86 0854.95
2009/04/23 12:16:12.8    -168   -508    140    536    555 198.3  14.7  34116  288.84 0854.95
2009/04/23 12:16:12.9    -220   -415    105    470    482 208.0  12.6  34122  288.93 0854.95
2009/04/23 12:16:13.0    -297   -358     29    466    467 219.6   3.6  34122  288.93 0855.03
2009/04/23 12:16:13.1    -244   -338    126    417    436 215.8  16.8  34108  288.70 0855.03
2009/04/23 12:16:13.2    -223   -323     60    393    398 214.7   8.7  34120  288.91 0855.03
2009/04/23 12:16:13.3    -235   -374     46    442    445 212.1   6.0  34122  288.92 0855.03
2009/04/23 12:16:13.4    -232   -382     21    448    449 211.3   2.8  34124  288.97 0855.03
2009/04/23 12:16:13.5    -139   -536     35    554    556 194.6   3.6  34124  288.96 0855.03
2009/04/23 12:16:13.6    -335   -382    -73    509    515 221.3  -8.2  34124  288.95 0855.03
2009/04/23 12:16:13.7    -454   -180      6    489    490 248.3   0.8  34130  289.06 0855.03
2009/04/23 12:16:13.8    -397    -49     53    401    405 262.9   7.6  34124  288.97 0855.03
2009/04/23 12:16:13.9    -166    -97     91    193    213 239.8  27.2  34124  288.97 0855.03
2009/04/23 12:16:14.0     -89   -118    -52    148    158 217.0 -19.6  34126  289.01 0855.03
2009/04/23 12:16:14.1     -83   -250    -86    264    277 198.5 -23.3  34126  288.98 0855.03
2009/04/23 12:16:14.2      -4   -277   -104    278    296 181.0 -25.9  34126  288.98 0855.03
2009/04/23 12:16:14.3    -144   -236   -168    277    323 211.4 -38.5  34120  288.90 0855.03
2009/04/23 12:16:14.4     -20   -263    -80    264    277 184.4 -17.0  34124  288.95 0855.03
2009/04/23 12:16:14.5      54    -78    -26     96    100 145.3 -15.5  34124  288.96 0855.03
2009/04/23 12:16:14.6     197   -197    -97    280    296 135.0 -24.0  34122  288.93 0855.03
2009/04/23 12:16:14.7      28   -333   -100    335    349 175.2 -21.6  34128  289.03 0855.03
2009/04/23 12:16:14.8      44   -321   -116    325    346 172.1 -19.7  34116  288.81 0855.03
2009/04/23 12:16:14.9     205   -277    -59    345    351 143.5  -9.8  34124  288.96 0855.03
2009/04/23 12:16:15.0     180   -232    -97    294    310 142.2 -18.3  34118  288.87 0855.02
2009/04/23 12:16:15.1      99   -158   -149    187    239 147.9 -47.1  34126  288.99 0855.02
2009/04/23 12:16:15.2     -64   -240   -115    249    274 195.1 -31.0  34128  289.03 0855.02
2009/04/23 12:16:15.3     -70   -378    -91    385    396 190.5 -13.4  34122  288.93 0855.02
2009/04/23 12:16:15.4     144   -243      6    283    284 149.2   1.2  34126  288.98 0855.02
2009/04/23 12:16:15.5     171   -252   -107    305    323 145.8 -24.5  34124  288.97 0855.02
2009/04/23 12:16:15.6     128   -271   -145    300    333 154.6 -32.1  34128  289.02 0855.02
2009/04/23 12:16:15.7     178   -178    -88    252    266 135.0 -24.3  34128  289.02 0855.02
2009/04/23 12:16:15.8     137   -303    -72    333    341 155.7 -12.3  34122  288.93 0855.02
2009/04/23 12:16:15.9     124   -232     37    264    267 151.9   8.0  34120  288.90 0855.02
2009/04/23 12:16:16.0     126   -256    107    286    305 153.7  21.3  34124  288.97 0855.02
2009/04/23 12:16:16.1      58   -216    -44    224    229 164.8 -11.3  34126  289.01 0855.02
2009/04/23 12:16:16.2      76   -226     90    239    255 161.3  21.7  34124  288.97 0855.02
2009/04/23 12:16:16.3     102   -262     34    282    285 158.6   6.9  34126  288.98 0855.02
2009/04/23 12:16:16.4      72   -340    122    348    370 168.0  19.4  34124  288.96 0855.02
2009/04/23 12:16:16.5      64   -320    187    327    376 168.7  32.3  34124  288.96 0855.02
2009/04/23 12:16:16.6      -3   -301    197    302    360 180.7  36.2  34126  288.98 0855.02
2009/04/23 12:16:16.7       9   -261    199    262    329 178.0  41.1  34126  288.98 0855.02
2009/04/23 12:16:16.8      26   -234    220    236    322 173.5  47.8  34126  288.98 0855.02
2009/04/23 12:16:16.9      16   -337    187    338    386 177.2  31.4  34126  289.01 0855.02
2009/04/23 12:16:17.0      34   -335    143    337    366 174.1  24.5  34126  289.01 0854.98
2009/04/23 12:16:17.1    -102   -235     52    257    263 203.4  11.4  34126  288.98 0854.98
2009/04/23 12:16:17.2      -2    -94     98     95    136 181.8  50.2  34124  288.97 0854.98
2009/04/23 12:16:17.3      35   -175    198    179    266 168.4  53.3  34130  289.05 0854.98
2009/04/23 12:16:17.4      79   -253    267    266    376 162.6  50.1  34124  288.96 0854.98
2009/04/23 12:16:17.5     103   -283    271    302    405 159.9  46.5  34122  288.94 0854.98
2009/04/23 12:16:17.6      44   -315    263    319    413 172.0  43.7  34126  288.98 0854.98
2009/04/23 12:16:17.7      55   -319    251    324    409 170.2  41.6  34122  288.93 0854.98
2009/04/23 12:16:17.8      77   -234    211    247    324 161.7  44.8  34124  288.97 0854.98
2009/04/23 12:16:17.9     158   -317    240    355    428 153.5  37.2  34122  288.92 0854.98
2009/04/23 12:16:18.0     134   -377    244    401    469 160.4  34.2  34120  288.90 0854.98
2009/04/23 12:16:18.1     101   -365    273    379    467 164.5  39.2  34120  288.90 0854.98
2009/04/23 12:16:18.2      34   -316    244    318    400 173.8  41.5  34116  288.84 0854.98
2009/04/23 12:16:18.3     209   -292    178    360    401 144.4  28.2  34116  288.82 0854.98
2009/04/23 12:16:18.4     168   -247    191    300    355 145.7  35.5  34120  288.91 0854.98
2009/04/23 12:16:18.5     141   -190    220    237    323 143.5  47.7  34120  288.88 0854.98
2009/04/23 12:16:18.6     231   -306    281    384    475 143.0  39.8  34120  288.89 0854.98
2009/04/23 12:16:18.7     275   -292    303    402    503 136.7  40.7  34120  288.91 0854.98
2009/04/23 12:16:18.8     126   -199    282    236    367 147.7  56.1  34108  288.69 0854.98
2009/04/23 12:16:18.9     152   -144    134    210    249 133.3  35.6  34122  288.93 0854.98
2009/04/23 12:16:19.0     104   -176    191    205    280 149.5  47.9  34124  288.95 0854.96
2009/04/23 12:16:19.1      17     18    107     25    109  43.4  87.5  34126  288.99 0854.96
2009/04/23 12:16:19.2     -33    -21    132     40    137 237.6  82.8  34130  289.08 0854.96
2009/04/23 12:16:19.3      12    -81    132     82    155 171.5  64.7  34132  289.11 0854.96
2009/04/23 12:16:19.4       3   -217     78    218    231 179.1  20.4  34124  288.96 0854.96
2009/04/23 12:16:19.5      86   -232     50    248    253 159.5  11.4  34126  289.00 0854.96
2009/04/23 12:16:19.6      15   -144     51    145    154 173.7  19.4  34128  289.02 0854.96
2009/04/23 12:16:19.7     133   -115     -6    177    178 130.9  -2.1  34128  289.04 0854.96
2009/04/23 12:16:19.8     124    -28     55    128    139 102.8  24.6  34122  288.92 0854.96
2009/04/23 12:16:19.9     -29    -18     46     35     57 237.6  58.5  34130  289.08 0854.96
2009/04/23 12:16:20.0    -114    122    -46    168    175 317.0 -15.5  34128  289.02 0854.95
2009/04/23 12:16:20.1    -208     43     42    213    218 281.9  11.1  34120  288.91 0854.95
2009/04/23 12:16:20.2    -191     31      4    194    195 279.5   1.2  34128  289.02 0854.95
2009/04/23 12:16:20.3    -196    -27     -4    198    199 262.1  -1.2  34126  288.99 0854.95
2009/04/23 12:16:20.4    -144   -100    -53    176    184 235.1 -16.8  34126  289.01 0854.95
2009/04/23 12:16:20.5     -70    -53    -83     89    121 232.7 -52.4  34126  289.01 0854.95
2009/04/23 12:16:20.6     -49    -66    -96     83    126 216.5 -58.7  34126  289.01 0854.95
2009/04/23 12:16:20.7    -179     63    -54    190    198 289.5 -16.0  34128  289.02 0854.95
2009/04/23 12:16:20.8     -98     19   -139    100    171 281.5 -65.2  34130  289.08 0854.95
2009/04/23 12:16:20.9      -6     39   -144     40    149 350.2 -88.8  34134  289.13 0854.95
2009/04/23 12:16:21.0    -391     98     -2    404    405 284.1  -0.4  34134  289.14 0854.95
2009/04/23 12:16:21.1    -320    -95    -55    334    339 253.4  -9.5  34132  289.11 0854.95
2009/04/23 12:16:21.2    -219    -88   -165    237    288 248.2 -42.8  34128  289.03 0854.95
2009/04/23 12:16:21.3    -193    -84   -135    211    250 246.4 -40.0  34132  289.10 0854.95
2009/04/23 12:16:21.4    -177    -59   -115    187    219 251.6 -39.2  34134  289.13 0854.95
2009/04/23 12:16:21.5    -137    -27   -132    140    192 258.5 -52.6  34132  289.09 0854.95
2009/04/23 12:16:21.6    -163     14   -150    164    222 275.2 -52.1  34136  289.16 0854.95
2009/04/23 12:16:21.7    -142    -84    -98    166    192 239.4 -38.1  34138  289.19 0854.95
2009/04/23 12:16:21.8    -153   -169   -124    229    260 222.1 -35.2  34134  289.14 0854.95
2009/04/23 12:16:21.9    -173    -92   -164    196    255 242.0 -48.5  34130  289.07 0854.95
2009/04/23 12:16:22.0    -181   -112   -200    213    292 238.2 -52.4  34136  289.17 0854.91
2009/04/23 12:16:22.1    -226    -62   -209    235    314 254.5 -50.7  34128  289.03 0854.91
2009/04/23 12:16:22.2     -26   -145   -118    148    189 190.2 -47.4  34124  288.97 0854.91
2009/04/23 12:16:22.3      41   -125   -123    132    180 161.5 -52.3  34126  288.99 0854.91
2009/04/23 12:16:22.4     -80    -68   -118    106    158 229.6 -57.7  34126  289.01 0854.91
2009/04/23 12:16:22.5      24    101    -95    104    140  13.4 -52.3  34118  288.86 0854.91
2009/04/23 12:16:22.6     209   -191    -81    284    295 132.4 -20.7  34130  289.05 0854.91
2009/04/23 12:16:22.7     173   -223   -141    283    316 142.1 -33.0  34128  289.02 0854.91
2009/04/23 12:16:22.8     194   -193   -126    274    301 134.9 -30.8  34124  288.97 0854.91
2009/04/23 12:16:22.9     118   -270    -11    295    296 156.4  -2.2  34126  288.98 0854.91
2009/04/23 12:16:23.0      33    -52   -191     62    200 147.4 -85.6  34130  289.06 0854.91
2009/04/23 12:16:23.1     110   -231   -169    257    307 154.5 -40.9  34126  288.98 0854.91
2009/04/23 12:16:23.2     -80   -253   -158    266    309 197.6 -37.9  34122  288.92 0854.91
2009/04/23 12:16:23.3      12   -280   -178    281    332 177.5 -39.9  34124  288.97 0854.91
2009/04/23 12:16:23.4    -170   -154    -96    230    249 227.8 -28.5  34116  288.81 0854.91
2009/04/23 12:16:23.5    -299     13   -244    300    386 272.6 -47.9  34120  288.89 0854.91
2009/04/23 12:16:23.6    -251     56   -284    258    383 282.6 -57.6  34120  288.91 0854.91
2009/04/23 12:16:23.7    -129   -199   -193    238    306 213.0 -48.1  34126  288.98 0854.91
2009/04/23 12:16:23.8       5   -191   -122    192    227 178.4 -39.9  34124  288.96 0854.91
2009/04/23 12:16:23.9      10   -200    -71    201    213 176.9 -24.4  34122  288.94 0854.91
2009/04/23 12:16:24.0      63   -229    -88    238    253 164.6 -25.4  34124  288.97 0854.88
2009/04/23 12:16:24.1      73   -256    -97    267    284 164.0 -25.3  34126  289.00 0854.88
2009/04/23 12:16:24.2     153   -294    -98    332    346 152.4 -21.4  34122  288.94 0854.88
2009/04/23 12:16:24.3     212   -245    -51    325    330 139.1  -8.9  34122  288.93 0854.88
2009/04/23 12:16:24.4     218   -221    -17    311    312 135.5  -3.1  34124  288.97 0854.88
2009/04/23 12:16:24.5     216   -203     19    297    298 133.3   3.8  34124  288.97 0854.88
2009/04/23 12:16:24.6     260   -216     25    339    340 129.8   4.3  34122  288.93 0854.88
2009/04/23 12:16:24.7     235   -139     98    274    291 120.7  20.2  34122  288.92 0854.88
2009/04/23 12:16:24.8     124   -161     17    204    205 142.4   4.9  34122  288.94 0854.88
2009/04/23 12:16:24.9      81   -185     10    203    204 156.4   2.9  34116  288.84 0854.88
2009/04/23 12:16:25.0     106   -162      9    194    195 146.8   2.9  34120  288.89 0854.88
2009/04/23 12:16:25.1     121   -139     65    185    197 139.0  19.4  34122  288.94 0854.88
2009/04/23 12:16:25.2     196    -57     94    205    225 106.2  26.6  34124  288.97 0854.88
2009/04/23 12:16:25.3     161    -74     39    178    183 114.8  12.4  34124  288.96 0854.88
2009/04/23 12:16:25.4      84    -61     36    104    111 126.0  19.4  34122  288.94 0854.88
2009/04/23 12:16:25.5     107   -112     65    156    169 136.3  23.8  34122  288.94 0854.88
2009/04/23 12:16:25.6     152    -72     86    169    189 115.3  28.7  34122  288.94 0854.88
2009/04/23 12:16:25.7     160   -105    118    192    225 123.5  35.0  34122  288.94 0854.88
2009/04/23 12:16:25.8     128   -116    123    173    212 132.2  38.8  34124  288.96 0854.88
2009/04/23 12:16:25.9      97   -116    110    152    187 140.3  39.7  34122  288.94 0854.88
2009/04/23 12:16:26.0     146   -159     92    216    234 137.5  24.6  34120  288.89 0854.87
2009/04/23 12:16:26.1     153   -163     76    224    237 136.8  18.9  34118  288.87 0854.87
2009/04/23 12:16:26.2     135   -153     63    205    215 138.6  17.1  34116  288.84 0854.87
2009/04/23 12:16:26.3     116   -131     62    176    187 138.6  19.6  34116  288.84 0854.87
2009/04/23 12:16:26.4     100   -141     75    174    189 144.6  24.9  34120  288.91 0854.87
2009/04/23 12:16:26.5      77   -150     59    169    180 152.8  19.4  34118  288.86 0854.87
2009/04/23 12:16:26.6      61   -183     68    193    205 161.5  19.6  34120  288.91 0854.87
2009/04/23 12:16:26.7      48   -173     67    180    192 164.2  21.3  34118  288.87 0854.87
2009/04/23 12:16:26.8      66   -219      4    229    230 163.1   1.2  34118  288.87 0854.87
2009/04/23 12:16:26.9      97   -206     11    228    229 154.8   2.8  34118  288.87 0854.87
2009/04/23 12:16:27.0     134   -170     -1    217    218 141.7  -0.5  34116  288.82 0854.87
2009/04/23 12:16:27.1      91   -174      2    197    198 152.4   0.7  34118  288.86 0854.87
2009/04/23 12:16:27.2     131   -206     24    245    247 147.4   5.7  34116  288.83 0854.87
2009/04/23 12:16:27.3      93   -269     58    285    292 160.9  11.6  34118  288.85 0854.87
2009/04/23 12:16:27.4      99   -305      9    321    322 162.0   1.7  34120  288.90 0854.87
2009/04/23 12:16:27.5      80   -316    -20    327    328 165.7  -3.5  34124  288.95 0854.87
2009/04/23 12:16:27.6      30   -311    -17    313    314 174.4  -3.3  34122  288.92 0854.87
2009/04/23 12:16:27.7      10   -325     21    326    327 178.2   3.8  34122  288.92 0854.87
2009/04/23 12:16:27.8      58   -304    -48    310    314 169.1  -8.8  34120  288.88 0854.87
2009/04/23 12:16:27.9     111   -271    -84    293    304 157.7 -20.7  34120  288.90 0854.87
2009/04/23 12:16:28.0      96   -253    -96    271    288 159.1 -19.7  34118  288.85 0854.89
2009/04/23 12:16:28.1      26   -199     -7    201    202 172.4  -2.2  34122  288.92 0854.89
2009/04/23 12:16:28.2      45   -196     -7    202    203 167.1  -2.2  34122  288.92 0854.89
2009/04/23 12:16:28.3       3   -222    -12    223    224 179.0  -3.2  34120  288.89 0854.89
2009/04/23 12:16:28.4     -18   -160     31    162    166 186.7  11.0  34122  288.94 0854.89
2009/04/23 12:16:28.5      10   -160     77    161    178 176.4  27.3  34120  288.91 0854.89
2009/04/23 12:16:28.6      33   -182     99    186    210 169.5  30.1  34120  288.91 0854.89
2009/04/23 12:16:28.7      82   -234     48    249    254 160.6  11.1  34122  288.92 0854.89
2009/04/23 12:16:28.8      56   -227     19    234    235 166.0   4.9  34122  288.93 0854.89
2009/04/23 12:16:28.9      -7   -200     29    201    204 182.0   8.2  34122  288.92 0854.89
2009/04/23 12:16:29.0       8   -174     62    175    186 177.3  19.6  34124  288.96 0854.89
2009/04/23 12:16:29.1      26   -183     80    185    201 171.9  24.9  34124  288.97 0854.89
2009/04/23 12:16:29.2      43   -157    109    163    196 164.6  37.4  34126  288.99 0854.89
2009/04/23 12:16:29.3      16   -152     99    153    182 173.8  35.7  34124  288.97 0854.89
2009/04/23 12:16:29.4      16   -103     98    105    143 171.1  48.0  34126  289.01 0854.89
2009/04/23 12:16:29.5      77    -79     89    111    142 135.9  43.7  34124  288.97 0854.89
2009/04/23 12:16:29.6       6    -70     82     71    108 174.7  54.8  34130  289.06 0854.89
2009/04/23 12:16:29.7      38    -51    105     64    122 143.0  66.2  34130  289.06 0854.89
2009/04/23 12:16:29.8      74   -135    125    155    199 151.1  43.3  34124  288.96 0854.89
2009/04/23 12:16:29.9      63   -171    130    183    224 159.5  39.1  34124  288.97 0854.89
2009/04/23 12:16:30.0      40   -148     91    154    178 164.9  33.1  34126  289.01 0854.91
2009/04/23 12:16:30.2      11   -149     93    150    176 175.6  35.0  34126  288.99 0854.91
2009/04/23 12:16:30.3     -43   -178    104    184    211 193.6  32.1  34128  289.02 0854.91
2009/04/23 12:16:30.4     -29   -137    106    141    176 192.0  40.7  34126  288.99 0854.91
2009/04/23 12:16:30.5      24   -144     89    147    171 170.2  34.4  34126  288.99 0854.91
2009/04/23 12:16:30.6     -15   -194     91    195    215 184.5  27.1  34124  288.96 0854.91
2009/04/23 12:16:30.7     -15   -252     85    253    267 183.4  18.6  34126  288.98 0854.91
2009/04/23 12:16:30.8      16   -260     91    261    277 176.4  19.2  34126  288.98 0854.91
2009/04/23 12:16:30.9       4   -238     57    239    246 179.0  13.5  34124  288.97 0854.91
2009/04/23 12:16:31.0     -36   -235     37    238    242 188.7   9.0  34126  288.98 0854.91
2009/04/23 12:16:31.1     -32   -228     54    231    238 188.0  13.1  34128  289.02 0854.91
2009/04/23 12:16:31.2     -42   -197     55    202    210 192.0  15.3  34128  289.02 0854.91
2009/04/23 12:16:31.3     -67   -190     44    202    207 199.6  12.4  34128  289.04 0854.91
2009/04/23 12:16:31.4    -119   -169     56    207    215 215.2  15.2  34138  289.21 0854.91
2009/04/23 12:16:31.5    -122   -174     10    213    214 215.2   2.9  34138  289.21 0854.91
2009/04/23 12:16:31.6    -106   -150      1    184    185 215.4   0.5  34138  289.21 0854.91
2009/04/23 12:16:31.7     -48   -133      8    142    143 200.0   3.3  34136  289.18 0854.91
2009/04/23 12:16:31.8     -24   -224    121    226    256 186.2  30.6  34130  289.07 0854.91
2009/04/23 12:16:31.9    -140   -170    125    221    253 219.6  32.1  34132  289.09 0854.91
2009/04/23 12:16:32.0    -101   -191    103    217    240 207.9  27.2  34132  289.09 0854.91
2009/04/23 12:16:32.1     -98   -189     75    213    225 207.4  20.0  34140  289.23 0854.92
2009/04/23 12:16:32.2    -129   -192     87    232    247 213.8  21.5  34148  289.37 0854.92
2009/04/23 12:16:32.3    -150   -206     87    256    271 216.1  18.9  34144  289.29 0854.92
2009/04/23 12:16:32.4    -133   -143     84    196    213 223.0  24.6  34144  289.31 0854.92
2009/04/23 12:16:32.5    -184   -222    137    289    319 219.6  27.2  34144  289.31 0854.92
2009/04/23 12:16:32.6    -234   -237     97    334    348 224.6  16.3  34146  289.32 0854.92
2009/04/23 12:16:32.7    -229   -268    116    353    372 220.6  18.2  34156  289.52 0854.92
2009/04/23 12:16:32.8    -255   -220     79    338    348 229.2  13.3  34150  289.40 0854.92
2009/04/23 12:16:32.9    -376   -177    -32    416    418 244.8  -4.5  34148  289.36 0854.92
2009/04/23 12:16:33.0    -394   -108     42    409    412 254.6   6.0  34142  289.27 0854.92
2009/04/23 12:16:33.1    -294    -59    -26    300    302 258.5  -5.1  34138  289.19 0854.92
2009/04/23 12:16:33.2    -283      6    -35    284    287 271.3  -7.2  34144  289.29 0854.92
2009/04/23 12:16:33.3    -228    -20    -37    229    233 264.8  -9.3  34144  289.30 0854.92
2009/04/23 12:16:33.4    -171     14     17    172    173 274.8   5.7  34148  289.36 0854.92
2009/04/23 12:16:33.5    -210    -36    -11    214    215 260.3  -3.1  34128  289.04 0854.92
2009/04/23 12:16:33.6    -326    -66   -116    333    353 258.5 -19.3  34128  289.04 0854.92
2009/04/23 12:16:33.7    -394   -116    -59    411    416 253.5  -8.2  34126  289.00 0854.92
2009/04/23 12:16:33.8    -373   -162    -51    407    411 246.5  -7.2  34130  289.05 0854.92
2009/04/23 12:16:33.9    -339   -151    -34    372    374 246.0  -5.4  34128  289.03 0854.92
2009/04/23 12:16:34.0    -347   -118    -37    367    369 251.2  -5.9  34126  289.01 0854.92
2009/04/23 12:16:34.1    -298   -120    -64    322    329 248.0 -11.3  34130  289.05 0854.92
2009/04/23 12:16:34.2    -259   -141    -87    296    308 241.4 -21.2  34126  289.00 0854.92
2009/04/23 12:16:34.3    -187   -111    -90    218    235 239.4 -28.2  34128  289.02 0854.92
2009/04/23 12:16:34.4    -235   -111    -86    260    273 244.7 -23.8  34130  289.07 0854.92
2009/04/23 12:16:34.5    -270   -102    -84    289    300 249.2 -21.0  34128  289.03 0854.92
2009/04/23 12:16:34.6    -227   -130   -115    262    286 240.2 -29.6  34128  289.03 0854.92
2009/04/23 12:16:34.7    -196   -142    -84    243    257 234.0 -24.0  34126  289.00 0854.92
2009/04/23 12:16:34.8    -166   -145    -67    221    230 228.7 -22.1  34128  289.04 0854.92
2009/04/23 12:16:34.9    -164   -144    -71    219    231 228.7 -18.1  34128  289.04 0854.92
2009/04/23 12:16:35.0    -173   -189    -88    257    272 222.4 -19.1  34128  289.03 0854.92
2009/04/23 12:16:35.1    -157   -157    -63    223    231 225.0 -20.4  34128  289.02 0854.92
2009/04/23 12:16:35.2    -204   -155    -51    257    263 232.7 -11.3  34130  289.05 0854.92
2009/04/23 12:16:35.3    -197   -185    -34    271    274 226.9  -7.2  34132  289.10 0854.92
2009/04/23 12:16:35.4    -231   -132    -37    267    270 240.2  -8.0  34132  289.09 0854.92
2009/04/23 12:16:35.5    -172   -110     36    205    209 237.5  10.1  34134  289.13 0854.92
2009/04/23 12:16:35.6    -132    -52    -51    143    152 248.3 -19.7  34128  289.02 0854.92
2009/04/23 12:16:35.7    -156    -45    -34    163    167 253.8 -11.9  34128  289.04 0854.92
2009/04/23 12:16:35.8    -157    -76    -55    175    183 244.0 -22.8  34130  289.06 0854.92
2009/04/23 12:16:35.9    -143    -81    -22    165    167 240.2  -7.7  34128  289.02 0854.92
2009/04/23 12:16:36.0    -117    -60      4    132    133 242.9   1.8  34128  289.04 0854.92
2009/04/23 12:16:36.1     -80    -89     41    120    127 221.9  18.9  34134  289.14 0854.94
2009/04/23 12:16:36.2     -82   -174     14    193    194 205.2   4.2  34136  289.16 0854.94
2009/04/23 12:16:36.3     -89   -207     35    226    229 203.4   8.8  34142  289.28 0854.94
2009/04/23 12:16:36.4     -90   -208     37    227    231 203.4   9.3  34140  289.23 0854.94
2009/04/23 12:16:36.5     -32   -227     -9    230    231 188.0  -2.3  34136  289.18 0854.94
2009/04/23 12:16:36.6     -19   -271    -64    272    280 184.0 -13.4  34130  289.07 0854.94
2009/04/23 12:16:36.7      20   -270    -19    271    272 175.6  -4.1  34132  289.09 0854.94
2009/04/23 12:16:36.8      64   -258    -13    266    267 166.0  -2.8  34130  289.07 0854.94
2009/04/23 12:16:36.9       3   -251    -26    252    254 179.1  -6.1  34130  289.07 0854.94
2009/04/23 12:16:37.0      51   -268    -35    273    276 169.1  -7.5  34130  289.05 0854.94
2009/04/23 12:16:37.1      41   -200    -62    205    215 168.4 -16.8  34130  289.06 0854.94
2009/04/23 12:16:37.2      33   -180    -44    184    190 169.5 -13.4  34126  289.01 0854.94
2009/04/23 12:16:37.3      -4   -203    -66    204    214 181.4 -23.6  34126  288.99 0854.94
2009/04/23 12:16:37.4     -32   -203    -66    206    216 189.1 -23.0  34128  289.02 0854.94
2009/04/23 12:16:37.5     -32   -214    -60    217    226 188.5 -15.5  34126  289.01 0854.94
2009/04/23 12:16:37.6      38   -226    -33    230    233 170.3  -8.2  34128  289.02 0854.94
2009/04/23 12:16:37.7      49   -237    -62    243    251 168.2 -14.5  34126  289.00 0854.94
2009/04/23 12:16:37.8      30   -215    -59    218    226 171.9 -15.2  34128  289.02 0854.94
2009/04/23 12:16:37.9      15   -192    -73    193    206 175.5 -26.1  34128  289.02 0854.94
2009/04/23 12:16:38.0      18   -238    -89    239    255 175.5 -25.9  34128  289.02 0854.94
2009/04/23 12:16:38.1     -38   -233    -43    237    241 189.3 -10.4  34128  289.03 0855.02
2009/04/23 12:16:38.2       0   -220    -66    221    231 180.0 -16.6  34126  289.01 0855.02
2009/04/23 12:16:38.3      17   -229    -63    230    238 175.5 -20.0  34126  288.98 0855.02
2009/04/23 12:16:38.4       3   -207    -63    208    217 179.0 -21.7  34124  288.96 0855.02
2009/04/23 12:16:38.5       0   -192    -68    193    205 180.0 -19.6  34124  288.97 0855.02
2009/04/23 12:16:38.6      -2   -182    -55    183    192 180.7 -16.8  34126  288.99 0855.02
2009/04/23 12:16:38.7     -11   -161    -52    162    170 184.0 -23.3  34124  288.97 0855.02
2009/04/23 12:16:38.8     -11   -151    -54    152    162 184.4 -19.7  34126  288.99 0855.02
2009/04/23 12:16:38.9      -7   -152    -48    153    160 182.7 -22.5  34124  288.97 0855.02
2009/04/23 12:16:39.0       1   -157    -49    158    166 179.3 -17.3  34126  288.99 0855.02
2009/04/23 12:16:39.1      -6   -149    -47    150    157 182.6 -22.3  34124  288.97 0855.02
2009/04/23 12:16:39.2     -11   -142    -53    143    152 184.5 -25.4  34124  288.97 0855.02
2009/04/23 12:16:39.3       6   -146    -47    147    154 177.4 -23.8  34124  288.97 0855.02
2009/04/23 12:16:39.4      21   -127    -43    129    137 170.2 -18.7  34126  289.01 0855.02
2009/04/23 12:16:39.5       6   -141    -44    142    149 177.4 -17.5  34126  288.99 0855.02
2009/04/23 12:16:39.6     -20   -101    -55    104    117 191.6 -34.7  34126  289.01 0855.02
2009/04/23 12:16:39.7       0    -98    -37     99    105 180.4 -25.9  34126  289.01 0855.02
2009/04/23 12:16:39.8      -1   -119    -38    120    126 180.9 -17.6  34126  288.99 0855.02
2009/04/23 12:16:39.9      11   -156     -8    157    158 175.6  -3.1  34126  289.01 0855.02
2009/04/23 12:16:40.0      -1   -108    -36    109    114 181.0 -23.8  34130  289.08 0855.02
2009/04/23 12:16:40.1     -10   -107    -43    108    116 185.8 -27.4  34130  289.06 0854.84
2009/04/23 12:16:40.2      -1   -125    -16    126    128 180.9  -7.2  34128  289.04 0854.84
2009/04/23 12:16:40.3      -9   -117     -5    118    119 184.4  -2.6  34128  289.04 0854.84
2009/04/23 12:16:40.4      -3   -140     -3    141    142 181.4  -1.3  34128  289.02 0854.84
2009/04/23 12:16:40.5      -2   -172     -6    173    174 180.9  -2.2  34128  289.04 0854.84
2009/04/23 12:16:40.6     -23   -174      3    176    177 187.6   1.2  34128  289.02 0854.84
2009/04/23 12:16:40.7     -15   -160      5    161    162 185.6   2.1  34130  289.08 0854.84
2009/04/23 12:16:40.8      73   -150    -37    168    173 153.9 -12.4  34128  289.02 0854.84
2009/04/23 12:16:40.9      56   -185     -1    194    195 163.1  -0.5  34128  289.04 0854.84
2009/04/23 12:16:41.0      43   -169    -26    175    177 165.7  -8.6  34130  289.06 0854.84
2009/04/23 12:16:41.1      41   -158    -28    164    167 165.5  -9.8  34130  289.06 0854.77
2009/04/23 12:16:41.2      24   -122    -30    125    129 168.9 -13.9  34128  289.04 0854.77
2009/04/23 12:16:41.3       9   -117    -10    118    119 175.5  -5.2  34130  289.08 0854.77
2009/04/23 12:16:41.4      -1    -74    -12     75     77 181.0  -9.3  34130  289.08 0854.77
2009/04/23 12:16:41.5     -51    -80    -49     96    107 212.5 -32.6  34134  289.14 0854.77
2009/04/23 12:16:41.6    -109   -128     -3    169    170 220.3  -1.3  34134  289.13 0854.77
2009/04/23 12:16:41.7    -114   -147    -12    187    188 217.8  -3.9  34136  289.16 0854.77
2009/04/23 12:16:41.8    -117    -86    -49    146    154 233.6 -23.6  34136  289.18 0854.77
2009/04/23 12:16:41.9     -97   -104    -45    143    149 223.2 -23.3  34134  289.14 0854.77
2009/04/23 12:16:42.0     -83   -158    -61    179    190 207.6 -18.9  34134  289.14 0854.77
2009/04/23 12:16:42.1     -82   -171    -24    190    192 205.6  -7.2  34132  289.11 0854.77
2009/04/23 12:16:42.2     -94   -105     -3    142    143 221.9  -1.3  34132  289.09 0854.77
2009/04/23 12:16:42.3    -164    -61     -9    175    176 249.6  -3.2  34134  289.14 0854.77
2009/04/23 12:16:42.4    -143    -57    -54    155    165 248.2 -19.4  34136  289.16 0854.77
2009/04/23 12:16:42.5    -154    -83     -9    176    177 241.6  -3.1  34134  289.13 0854.77
2009/04/23 12:16:42.6    -145   -115     -8    186    187 231.6  -2.6  34136  289.16 0854.77
2009/04/23 12:16:42.7    -136   -111    -63    176    188 230.9 -19.7  34132  289.11 0854.77
2009/04/23 12:16:42.8    -134    -63    -42    149    154 244.8 -20.7  34132  289.11 0854.77
2009/04/23 12:16:42.9    -151    -90    -61    177    188 239.1 -19.1  34132  289.11 0854.77
2009/04/23 12:16:43.0    -177    -90    -30    199    202 242.9  -8.6  34128  289.04 0854.77
2009/04/23 12:16:43.1    -160    -71    -40    176    181 246.0 -12.9  34132  289.11 0854.80
2009/04/23 12:16:43.2    -133    -73    -32    152    156 241.2 -12.2  34130  289.06 0854.80
2009/04/23 12:16:43.3    -110    -75    -63    134    148 235.8 -31.5  34130  289.08 0854.80
2009/04/23 12:16:43.4    -125    -82    -52    150    158 236.7 -24.4  34128  289.04 0854.80
2009/04/23 12:16:43.5    -130    -88    -57    158    167 235.8 -24.8  34128  289.02 0854.80
2009/04/23 12:16:43.6    -115    -79    -57    140    151 235.4 -27.5  34128  289.02 0854.80
2009/04/23 12:16:43.7    -105    -97    -69    144    159 227.3 -31.8  34128  289.04 0854.80
2009/04/23 12:16:43.8     -92   -119    -82    151    171 217.8 -35.2  34130  289.06 0854.80
2009/04/23 12:16:43.9     -54   -135   -101    146    177 201.9 -42.4  34128  289.04 0854.80
2009/04/23 12:16:44.0     -51   -132    -84    142    164 201.4 -38.1  34130  289.08 0854.80
2009/04/23 12:16:44.1     -55   -119    -46    132    139 204.9 -23.8  34130  289.06 0854.80
2009/04/23 12:16:44.2     -32   -121    -43    126    134 195.1 -19.1  34132  289.09 0854.80
2009/04/23 12:16:44.3     -48   -123    -17    133    135 201.4  -7.3  34130  289.08 0854.80
2009/04/23 12:16:44.4     -59   -125    -29    139    143 205.3 -11.9  34130  289.08 0854.80
2009/04/23 12:16:44.5     -77   -116    -44    140    147 213.4 -17.5  34132  289.11 0854.80
2009/04/23 12:16:44.6     -70    -97    -34    120    125 216.0 -16.0  34134  289.13 0854.80
2009/04/23 12:16:44.7     -93    -94    -21    133    135 224.5  -9.3  34134  289.14 0854.80
2009/04/23 12:16:44.8     -94    -78    -20    123    125 230.4  -9.4  34138  289.21 0854.80
2009/04/23 12:16:44.9     -83   -141    -50    164    171 210.5 -22.1  34132  289.09 0854.80
2009/04/23 12:16:45.0     -27   -117    -81    121    145 192.9 -41.4  34134  289.13 0854.80
2009/04/23 12:16:45.1      -8   -113    -75    114    136 184.4 -40.0  34136  289.18 0854.85
2009/04/23 12:16:45.2      -4   -158     69    159    173 181.8  24.9  34138  289.21 0854.85
2009/04/23 12:16:45.3     -97   -132     63    164    175 216.3  22.0  34138  289.19 0854.85
2009/04/23 12:16:45.4    -116   -191     -1    224    225 211.4  -0.3  34142  289.26 0854.85
2009/04/23 12:16:45.5    -102   -160     23    191    193 212.6   6.9  34136  289.18 0854.85
2009/04/23 12:16:45.6     -54   -194     77    202    216 195.8  22.0  34138  289.19 0854.85
2009/04/23 12:16:45.7     -48   -246     92    251    267 191.1  21.0  34138  289.19 0854.85
2009/04/23 12:16:45.8     -69   -221     82    232    247 197.4  19.4  34142  289.27 0854.85
2009/04/23 12:16:45.9     -64   -261     63    269    277 193.8  13.2  34140  289.22 0854.85
2009/04/23 12:16:46.0     -37   -351     76    354    363 186.1  12.1  34136  289.15 0854.85
2009/04/23 12:16:46.1     -17   -397     39    398    400 182.5   5.7  34136  289.16 0854.85
2009/04/23 12:16:46.2      26   -384     -1    385    386 176.0  -0.3  34132  289.11 0854.85
2009/04/23 12:16:46.3       6   -338     47    339    343 178.9   7.9  34128  289.04 0854.85
2009/04/23 12:16:46.4     -26   -282     29    284    286 185.3   5.9  34138  289.20 0854.85
2009/04/23 12:16:46.5      42   -272     38    276    279 171.1   8.0  34136  289.15 0854.85
2009/04/23 12:16:46.6      23   -301     14    302    303 175.6   2.8  34134  289.14 0854.85
2009/04/23 12:16:46.7      78   -350     77    359    368 167.3  12.2  34134  289.13 0854.85
2009/04/23 12:16:46.8     101   -362     85    377    387 164.3  12.8  34132  289.11 0854.85
2009/04/23 12:16:46.9      62   -487     -1    491    492 172.7  -0.2  34136  289.15 0854.85
2009/04/23 12:16:47.0     -45   -442     21    445    446 185.9   2.8  34138  289.21 0854.85
2009/04/23 12:16:47.1    -103   -452    -25    464    465 192.9  -3.2  34124  288.96 0854.87
2009/04/23 12:16:47.2    -127   -482     34    499    501 194.8   3.9  34114  288.79 0854.87
2009/04/23 12:16:47.3    -231   -497     14    549    550 204.9   1.5  34114  288.80 0854.87
2009/04/23 12:16:47.4     -34   -454    -81    456    464 184.4 -10.1  34116  288.83 0854.87
2009/04/23 12:16:47.5      17   -427     32    428    430 177.7   4.3  34118  288.85 0854.87
2009/04/23 12:16:47.6      20   -443    -13    444    445 177.4  -1.8  34118  288.87 0854.87
2009/04/23 12:16:47.7      50   -412    -12    416    417 173.0  -1.7  34130  289.05 0854.87
2009/04/23 12:16:47.8      80   -391    -28    400    401 168.4  -4.1  34136  289.18 0854.87
2009/04/23 12:16:47.9     110   -352    -81    369    378 162.6 -12.4  34142  289.25 0854.87
2009/04/23 12:16:48.0      58   -349    -60    354    360 170.6  -9.6  34130  289.06 0854.87
2009/04/23 12:16:48.1     -15   -462    -76    463    470 181.9  -9.3  34120  288.90 0854.87
2009/04/23 12:16:48.2     -12   -368     65    369    375 182.0  10.1  34124  288.96 0854.87
2009/04/23 12:16:48.3       8   -448     96    449    460 178.9  12.1  34124  288.95 0854.87
2009/04/23 12:16:48.4      30   -357     59    359    364 175.2   9.5  34126  289.01 0854.87
2009/04/23 12:16:48.5      74   -428    -17    435    436 170.1  -2.3  34120  288.90 0854.87
2009/04/23 12:16:48.6      74   -400    -31    407    409 169.4  -4.5  34114  288.78 0854.87
2009/04/23 12:16:48.7     110   -480     20    493    494 167.0   2.3  34124  288.95 0854.87
2009/04/23 12:16:48.8     121   -495     15    510    511 166.2   1.7  34120  288.88 0854.87
2009/04/23 12:16:48.9      90   -481    -75    490    496 169.4  -8.7  34116  288.84 0854.87
2009/04/23 12:16:49.0       8   -499    128    500    517 179.0  14.4  34120  288.90 0854.87
2009/04/23 12:16:49.1     -45   -576     81    578    584 184.5   8.0  34128  289.03 0854.85
2009/04/23 12:16:49.2     -31   -637     74    638    643 182.8   6.7  34118  288.86 0854.85
2009/04/23 12:16:49.3     -83   -591     67    597    601 188.0   6.5  34118  288.86 0854.85
2009/04/23 12:16:49.4    -231   -629     74    671    676 200.2   6.4  34122  288.92 0854.85
2009/04/23 12:16:49.5    -225   -514      4    562    563 203.6   0.5  34122  288.92 0854.85
2009/04/23 12:16:49.6     -43   -467     14    470    471 185.4   1.8  34120  288.88 0854.85
2009/04/23 12:16:49.7     -46   -440      9    443    444 186.1   1.2  34122  288.94 0854.85
2009/04/23 12:16:49.8    -112   -481    -71    494    500 193.1  -8.3  34124  288.96 0854.85
2009/04/23 12:16:49.9    -133   -492    -45    510    513 195.2  -5.1  34124  288.96 0854.85
2009/04/23 12:16:50.0    -131   -500    -66    517    522 194.7  -7.3  34126  289.01 0854.85
2009/04/23 12:16:50.1    -130   -472    -80    490    497 195.4  -9.3  34126  289.01 0854.85
2009/04/23 12:16:50.2     -23   -528    -43    529    531 182.5  -4.7  34124  288.97 0854.85
2009/04/23 12:16:50.3      44   -458    -42    461    464 174.4  -5.3  34120  288.90 0854.85
2009/04/23 12:16:50.4     -26   -450    -53    451    455 183.4  -6.8  34118  288.87 0854.85
2009/04/23 12:16:50.5      -9   -411   -106    412    426 181.4 -14.5  34126  288.99 0854.85
2009/04/23 12:16:50.6     -38   -413    -92    415    426 185.3 -12.6  34122  288.94 0854.85
2009/04/23 12:16:50.7       4   -349    -94    350    363 179.3 -15.1  34126  288.99 0854.85
2009/04/23 12:16:50.8      71   -390    -88    397    407 169.7 -12.5  34128  289.02 0854.85
2009/04/23 12:16:50.9      -1   -402   -136    403    426 180.3 -18.7  34126  289.00 0854.85
2009/04/23 12:16:51.0     -59   -396    -94    401    412 188.6 -13.3  34138  289.19 0854.85
2009/04/23 12:16:51.1     -15   -362    -69    363    370 182.5 -10.9  34130  289.06 0854.82
2009/04/23 12:16:51.2       0   -360   -100    361    375 180.0 -15.5  34130  289.06 0854.82
2009/04/23 12:16:51.3      25   -388   -139    389    414 176.2 -19.7  34126  288.99 0854.82
2009/04/23 12:16:51.4      40   -367   -126    370    391 173.8 -18.8  34120  288.89 0854.82
2009/04/23 12:16:51.5     -76   -431    -91    438    448 190.0 -11.8  34120  288.90 0854.82
2009/04/23 12:16:51.6     -90   -393    -77    404    412 192.9 -10.8  34122  288.94 0854.82
2009/04/23 12:16:51.7    -136   -424    -95    446    457 197.8 -12.0  34122  288.92 0854.82
2009/04/23 12:16:51.8     -56   -439   -116    443    458 187.4 -14.7  34122  288.94 0854.82
2009/04/23 12:16:51.9    -100   -371   -133    385    408 195.2 -19.1  34120  288.91 0854.82
2009/04/23 12:16:52.0    -142   -298    -86    331    343 205.5 -14.6  34126  288.98 0854.82
2009/04/23 12:16:52.1     -74   -432      7    439    440 189.8   1.0  34126  289.00 0854.82
2009/04/23 12:16:52.2     -14   -470     28    471    472 181.7   3.5  34122  288.93 0854.82
2009/04/23 12:16:52.3    -101   -489    -85    500    508 191.7  -9.7  34114  288.79 0854.82
2009/04/23 12:16:52.4    -103   -484    -74    496    502 192.1  -8.6  34118  288.86 0854.82
2009/04/23 12:16:52.5     -55   -475    -96    479    489 186.7 -11.3  34116  288.84 0854.82
2009/04/23 12:16:52.6    -119   -484   -100    499    509 193.9 -11.3  34122  288.93 0854.82
2009/04/23 12:16:52.7    -110   -397    -22    413    414 195.5  -3.1  34118  288.87 0854.82
2009/04/23 12:16:52.8       6   -387    -10    388    389 179.1  -1.6  34122  288.94 0854.82
2009/04/23 12:16:52.9     -42   -433    -13    436    437 185.6  -1.7  34122  288.92 0854.82
2009/04/23 12:16:53.0      -6   -372    -14    373    374 181.0  -2.2  34120  288.91 0854.82
2009/04/23 12:16:53.1     -34   -356    -45    358    361 185.6  -7.3  34120  288.89 0854.84
2009/04/23 12:16:53.2      -3   -326    -38    327    330 180.6  -6.7  34120  288.90 0854.84
2009/04/23 12:16:53.3      27   -211     38    213    217 172.7  10.1  34116  288.84 0854.84
2009/04/23 12:16:53.4      16   -250     54    251    257 176.2  12.2  34116  288.83 0854.84
2009/04/23 12:16:53.5     -17   -277     -2    278    279 183.6  -0.5  34116  288.81 0854.84
2009/04/23 12:16:53.6      -5   -286    -16    287    288 181.1  -3.3  34118  288.85 0854.84
2009/04/23 12:16:53.7      16   -272    -36    273    276 176.6  -7.7  34114  288.80 0854.84
2009/04/23 12:16:53.8      14   -240    -73    241    253 176.6 -17.0  34120  288.90 0854.84
2009/04/23 12:16:53.9     -24   -329    -16    330    331 184.3  -2.8  34130  289.06 0854.84
2009/04/23 12:16:54.0     -48   -278      6    283    284 189.8   1.2  34130  289.05 0854.84
2009/04/23 12:16:54.1     -10   -214     26    215    217 182.9   7.1  34124  288.96 0854.84
2009/04/23 12:16:54.2      18   -233    114    234    260 175.5  27.8  34124  288.97 0854.84
2009/04/23 12:16:54.3      26   -237     81    239    253 173.7  18.9  34124  288.97 0854.84
2009/04/23 12:16:54.4     -20   -268     90    269    284 184.4  18.6  34126  289.00 0854.84
2009/04/23 12:16:54.5     -38   -218    104    222    245 190.0  27.1  34128  289.03 0854.84
2009/04/23 12:16:54.6     -17   -327     45    328    332 183.0   7.9  34126  288.98 0854.84
2009/04/23 12:16:54.7     -32   -332    -31    334    336 185.6  -5.5  34126  288.99 0854.84
2009/04/23 12:16:54.8       6   -347    -39    348    351 178.9  -6.5  34126  289.01 0854.84
2009/04/23 12:16:54.9      31   -254    -71    256    266 172.9 -15.5  34122  288.93 0854.84
2009/04/23 12:16:55.0     -68   -169   -106    183    211 201.8 -37.3  34124  288.96 0854.84
2009/04/23 12:16:55.1    -117   -177    -83    213    228 213.6 -26.9  34124  288.97 0854.86
2009/04/23 12:16:55.2    -165   -190   -134    252    285 221.0 -34.6  34124  288.97 0854.86
2009/04/23 12:16:55.3    -175   -238   -110    296    315 216.3 -25.8  34126  288.98 0854.86
2009/04/23 12:16:55.4    -180   -265    -96    321    336 214.3 -16.6  34122  288.93 0854.86
2009/04/23 12:16:55.5    -201   -267   -137    335    361 217.0 -28.0  34122  288.94 0854.86
2009/04/23 12:16:55.6    -170   -207   -132    269    299 219.4 -32.4  34118  288.85 0854.86
2009/04/23 12:16:55.7    -230   -184   -112    295    315 231.4 -26.1  34122  288.92 0854.86
2009/04/23 12:16:55.8    -201   -208   -104    290    308 224.1 -25.1  34122  288.92 0854.86
2009/04/23 12:16:55.9    -187   -193    -95    269    285 224.1 -24.6  34120  288.90 0854.86
2009/04/23 12:16:56.0    -106   -224    -38    249    252 205.4  -8.8  34120  288.88 0854.86
2009/04/23 12:16:56.1    -122   -192     11    228    229 212.5   2.9  34120  288.91 0854.86
2009/04/23 12:16:56.3    -150   -225     11    271    272 213.8   2.5  34122  288.92 0854.86
2009/04/23 12:16:56.4    -233   -193    -51    303    308 230.4  -9.6  34122  288.93 0854.86
2009/04/23 12:16:56.5    -239   -126    -73    271    281 242.2 -15.2  34122  288.92 0854.86
2009/04/23 12:16:56.6    -252   -129   -101    284    302 242.9 -19.6  34118  288.87 0854.86
2009/04/23 12:16:56.7    -296   -129    -91    324    336 246.4 -20.2  34120  288.91 0854.86
2009/04/23 12:16:56.8    -264   -118    -83    290    302 245.8 -16.0  34124  288.95 0854.86
2009/04/23 12:16:56.9    -275    -81    -79    287    298 253.6 -15.5  34120  288.90 0854.86
2009/04/23 12:16:57.0    -235    -71    -83    246    260 253.2 -18.7  34122  288.93 0854.86
2009/04/23 12:16:57.1    -243    -81    -71    257    266 251.6 -20.0  34122  288.92 0854.86
2009/04/23 12:16:57.2    -214    -96    -85    235    249 245.8 -25.1  34124  288.95 0854.84
2009/04/23 12:16:57.3    -175   -115   -105    210    234 236.7 -32.9  34124  288.96 0854.84
2009/04/23 12:16:57.4    -153    -87    -70    177    190 240.2 -27.2  34124  288.96 0854.84
2009/04/23 12:16:57.5    -101    -67    -68    122    139 236.3 -35.8  34124  288.96 0854.84
2009/04/23 12:16:57.6     -39    -97    -79    105    131 201.8 -45.6  34124  288.96 0854.84
2009/04/23 12:16:57.7     -24   -100    -71    103    125 193.8 -42.0  34122  288.92 0854.84
2009/04/23 12:16:57.8     -16    -83    -62     85    105 191.1 -44.1  34122  288.92 0854.84
2009/04/23 12:16:57.9     -51    -69    -60     86    104 216.5 -43.0  34122  288.92 0854.84
2009/04/23 12:16:58.0     -66    -54    -36     86     93 230.5 -28.5  34124  288.96 0854.84
2009/04/23 12:16:58.1     -61    -59    -33     85     91 226.0 -26.4  34122  288.94 0854.84
2009/04/23 12:16:58.2     -64    -81    -41    104    111 218.3 -26.9  34122  288.94 0854.84
2009/04/23 12:16:58.3     -79   -116    -31    141    145 214.3 -12.4  34126  288.99 0854.84
2009/04/23 12:16:58.4     -71   -115    -21    136    138 211.6  -8.8  34126  288.99 0854.84
2009/04/23 12:16:58.5     -87   -136     96    162    188 212.6  33.7  34124  288.96 0854.84
2009/04/23 12:16:58.6    -134   -112     68    175    187 230.0  22.3  34124  288.97 0854.84
2009/04/23 12:16:58.7     -16    -68     47     70     84 193.4  36.5  34124  288.97 0854.84
2009/04/23 12:16:58.8      36    -18     -8     41     42 117.1 -11.3  34126  288.99 0854.84
2009/04/23 12:16:58.9      -5      4    -54      7     54 309.5 -90.0  34126  288.99 0854.84
2009/04/23 12:16:59.0     -38    -28    -92     48    103 234.0 -74.2  34126  288.99 0854.84
2009/04/23 12:16:59.1     -10    -92    -92     93    130 186.2 -54.4  34126  288.99 0854.84
2009/04/23 12:16:59.2       1    -78    -87     79    117 179.1 -57.1  34124  288.97 0854.82
2009/04/23 12:16:59.3      -9    -73    -77     74    106 187.1 -55.6  34126  288.99 0854.82
2009/04/23 12:16:59.4     -24    -76    -73     80    108 197.8 -51.9  34126  289.01 0854.82
2009/04/23 12:16:59.5     -15    -95    -84     97    128 189.3 -50.2  34128  289.02 0854.82
2009/04/23 12:16:59.6     -60    -77    -85     98    129 217.8 -49.8  34124  288.96 0854.82
2009/04/23 12:16:59.7     -53    -83    -77     99    125 213.0 -46.1  34124  288.97 0854.82
2009/04/23 12:16:59.8     -50    -81    -75     96    121 211.6 -46.1  34124  288.96 0854.82
2009/04/23 12:16:59.9      19    -51    -61     55     82 159.1 -57.1  34126  289.01 0854.82
2009/04/23 12:17:00.0     -25    -25    -44     36     56 225.0 -60.8  34126  288.99 0854.82
2009/04/23 12:17:00.1       6    -33    -51     34     61 168.5 -68.0  34126  289.01 0854.82
2009/04/23 12:17:00.2      -6    -26    -40     27     48 193.4 -68.0  34128  289.02 0854.82
2009/04/23 12:17:00.3       2    -46    -24     47     52 177.3 -32.6  34124  288.97 0854.82
2009/04/23 12:17:00.4      -5    -49    -20     50     53 186.2 -26.4  34126  288.99 0854.82
2009/04/23 12:17:00.5     -63    -59    -16     87     89 226.9 -10.9  34126  289.01 0854.82
2009/04/23 12:17:00.6     -72    -46    -29     86     91 237.6 -19.1  34126  289.01 0854.82
2009/04/23 12:17:00.7     -34    -51    -39     62     73 214.3 -39.9  34130  289.06 0854.82
2009/04/23 12:17:00.8       0    -21    -60     22     63 180.9 -84.6  34130  289.06 0854.82
2009/04/23 12:17:00.9      -7    -15    -69     17     71 205.4 -90.0  34132  289.09 0854.82
2009/04/23 12:17:01.0       0     20    -78     21     80 357.3 -89.8  34132  289.09 0854.82
2009/04/23 12:17:01.1      -4     28    -80     29     85 350.2 -84.6  34130  289.08 0854.82
2009/04/23 12:17:01.2     -41    -31    -69     52     86 233.1 -63.8  34130  289.08 0854.84
2009/04/23 12:17:01.3     -33    -52    -66     62     90 212.5 -56.0  34130  289.06 0854.84
2009/04/23 12:17:01.4      -6    -70    -56     71     90 185.3 -47.1  34130  289.06 0854.84
2009/04/23 12:17:01.5     -14    -47    -47     50     68 196.9 -53.4  34128  289.04 0854.84
2009/04/23 12:17:01.6      -8    -14    -49     17     51 209.0 -85.6  34134  289.13 0854.84
2009/04/23 12:17:01.7      -7      3    -33      8     33 295.3 -90.0  34132  289.11 0854.84
2009/04/23 12:17:01.8       5     16    -21     17     27  18.7 -60.8  34134  289.14 0854.84
2009/04/23 12:17:01.9      17     22     -8     28     29  37.8 -23.8  34134  289.13 0854.84
2009/04/23 12:17:02.0       5     10     -6     12     13  29.0 -31.6  34132  289.09 0854.84
2009/04/23 12:17:02.1      22      7    -10     24     26  71.4 -27.4  34134  289.13 0854.84
2009/04/23 12:17:02.2      22     33    -18     40     43  34.3 -29.5  34134  289.13 0854.85
2009/04/23 12:17:02.3      22     26    -21     35     40  39.7 -38.8  34134  289.14 0854.85
2009/04/23 12:17:02.4      13     33    -19     36     40  21.8 -34.7  34130  289.06 0854.85
2009/04/23 12:17:02.5      21     25    -13     33     35  39.6 -25.4  34130  289.08 0854.85
2009/04/23 12:17:02.6      23     33     -9     41     43  34.3 -13.4  34130  289.08 0854.85
2009/04/23 12:17:02.7      25     26     -1     37     38  43.2  -2.2  34130  289.08 0854.85
2009/04/23 12:17:02.8      31     32     -2     45     46  44.2  -3.1  34128  289.04 0854.85
2009/04/23 12:17:02.9      33     40    -16     52     54  39.6 -23.8  34128  289.04 0854.85
2009/04/23 12:17:03.0      33     33     -2     47     48  45.1  -3.1  34128  289.04 0854.85
2009/04/23 12:17:03.1      27     25     -4     38     39  46.9  -7.3  34130  289.08 0854.85
2009/04/23 12:17:03.2      29     34     -5     46     47  40.5  -7.3  34128  289.02 0854.85
2009/04/23 12:17:03.3      25     60    -22     66     69  22.7 -23.6  34128  289.02 0854.85
2009/04/23 12:17:03.4      20     42     -1     47     48  26.3  -2.2  34132  289.11 0854.85
2009/04/23 12:17:03.5       8     39     16     40     43  11.6  22.0  34152  289.43 0854.85
2009/04/23 12:17:03.6      16     49     22     52     56  18.3  24.1  34162  289.60 0854.85
2009/04/23 12:17:03.7      30     50      7     59     60  30.7   6.9  34160  289.57 0854.85
2009/04/23 12:17:03.8      41     64    -11     77     78  32.5  -8.2  34146  289.33 0854.85
2009/04/23 12:17:03.9      36     55     23     67     72  33.4  19.4  34152  289.45 0854.85
2009/04/23 12:17:04.0      29     48      2     57     58  31.6   2.8  34140  289.24 0854.85
2009/04/23 12:17:04.1      51     30     20     60     64  59.3  18.4  34132  289.11 0854.85
2009/04/23 12:17:04.2      72     30      8     79     80  67.4   5.9  34136  289.16 0854.87
2009/04/23 12:17:04.3      61     30     -1     68     69  63.8  -1.2  34134  289.13 0854.87
2009/04/23 12:17:04.4      84     43    -13     95     96  62.5  -8.2  34144  289.31 0854.87
2009/04/23 12:17:04.5      71     59     -8     93     94  50.5  -5.2  34146  289.35 0854.87
2009/04/23 12:17:04.6      70     62     -3     94     95  48.2  -2.2  34144  289.30 0854.87
2009/04/23 12:17:04.7      78     69     15    105    107  48.7   8.5  34140  289.24 0854.87
2009/04/23 12:17:04.8      87     91    -10    127    128  43.7  -4.6  34138  289.21 0854.87
2009/04/23 12:17:04.9     144     59     33    156    160  67.4  12.2  34148  289.38 0854.87
2009/04/23 12:17:05.0     157     62     26    169    172  68.3   9.0  34144  289.30 0854.87
2009/04/23 12:17:05.1     122     62      7    138    139  63.0   3.3  34146  289.33 0854.87
2009/04/23 12:17:05.2     117     83    -13    144    145  54.5  -5.2  34152  289.43 0854.87
2009/04/23 12:17:05.3     113     62     12    130    131  61.2   5.4  34160  289.58 0854.87
2009/04/23 12:17:05.4     103     57     27    118    122  61.1  13.1  34156  289.50 0854.87
2009/04/23 12:17:05.5      29     -1     74     30     79  92.6  76.6  34158  289.55 0854.87
2009/04/23 12:17:05.6      58    -77     90     97    132 143.0  47.9  34152  289.45 0854.87
2009/04/23 12:17:05.7     107    -94     98    143    173 131.3  37.6  34146  289.33 0854.87
2009/04/23 12:17:05.8     123    -52    131    134    187 113.1  49.4  34178  289.87 0854.87
2009/04/23 12:17:05.9     138    -37    133    143    195 105.1  47.9  34174  289.82 0854.87
2009/04/23 12:17:06.0     162     24     81    164    182  81.4  28.0  34166  289.69 0854.87
2009/04/23 12:17:06.1     153     34     57    157    167  77.2  20.7  34176  289.84 0854.87
2009/04/23 12:17:06.2     117     26     73    121    141  77.2  34.0  34178  289.89 0854.88
2009/04/23 12:17:06.3     113     40     75    120    141  70.5  35.5  34178  289.87 0854.88
2009/04/23 12:17:06.4     117     55     89    130    157  64.8  37.8  34182  289.94 0854.88
2009/04/23 12:17:06.5     154     67     69    169    182  66.5  23.1  34184  289.97 0854.88
2009/04/23 12:17:06.6     113     23     97    116    151  78.5  43.8  34192  290.11 0854.88
2009/04/23 12:17:06.7     101     64    122    120    171  57.6  50.1  34180  289.91 0854.88
2009/04/23 12:17:06.8     147    149     35    210    213  44.5   9.5  34166  289.69 0854.88
2009/04/23 12:17:06.9     167    105     48    198    204  57.8  13.7  34160  289.57 0854.88
2009/04/23 12:17:07.0     147     76     73    166    181  62.7  25.1  34160  289.57 0854.88
2009/04/23 12:17:07.1     183     75     29    198    201  67.6   8.5  34154  289.46 0854.88
2009/04/23 12:17:07.2     175     58     40    185    190  71.4  12.4  34158  289.55 0854.88
2009/04/23 12:17:07.3     141     31     80    145    165  77.6  31.4  34158  289.55 0854.88
2009/04/23 12:17:07.4     198      5    104    199    224  88.3  29.8  34164  289.65 0854.88
2009/04/23 12:17:07.5     176    -22    109    178    208  97.2  34.4  34152  289.43 0854.88
2009/04/23 12:17:07.6     117    -26    100    120    156 102.8  44.3  34176  289.84 0854.88
2009/04/23 12:17:07.7     127    -14    106    128    166  96.6  43.8  34182  289.94 0854.88
2009/04/23 12:17:07.8     151    -21    105    153    185  97.9  37.8  34184  289.97 0854.88
2009/04/23 12:17:07.9     158    -26    106    161    192  99.6  36.0  34236  290.87 0854.88
2009/04/23 12:17:08.0     150    -30     75    154    171 101.5  27.4  34252  291.13 0854.88
2009/04/23 12:17:08.1     124    -34     90    129    157 105.5  38.6  34260  291.28 0854.88
2009/04/23 12:17:08.2     111    -95     93    147    173 130.4  35.5  34252  291.13 0854.90
2009/04/23 12:17:08.3      59   -108    122    124    173 151.1  50.2  34222  290.64 0854.90
2009/04/23 12:17:08.4      77   -100     94    127    158 142.6  40.1  34228  290.74 0854.90
2009/04/23 12:17:08.5      83   -123     80    149    169 145.8  30.6  34230  290.75 0854.90
2009/04/23 12:17:08.6      42   -163     65    169    181 165.5  22.3  34178  289.87 0854.90
2009/04/23 12:17:08.7      21   -150     41    152    158 172.0  15.2  34194  290.14 0854.90
2009/04/23 12:17:08.8      61   -126     59    141    152 154.1  23.6  34192  290.13 0854.90
2009/04/23 12:17:08.9      34   -133     32    138    142 165.3  13.2  34160  289.58 0854.90
2009/04/23 12:17:09.0      -8   -114     40    115    122 184.4  19.4  34170  289.74 0854.90
2009/04/23 12:17:09.1      -3    -80     46     81     93 182.7  31.9  34174  289.80 0854.90
2009/04/23 12:17:09.2      -7    -82     28     83     88 185.3  18.9  34180  289.91 0854.90
2009/04/23 12:17:09.3     -31    -82     43     88     97 200.9  27.3  34202  290.28 0854.90
2009/04/23 12:17:09.4       4    -39     70     40     80 172.9  67.7  34224  290.67 0854.90
2009/04/23 12:17:09.5       0    -46     81     47     93 180.0  66.8  34236  290.86 0854.90
2009/04/23 12:17:09.6     -57    -57     76     82    111 225.0  47.9  34232  290.79 0854.90
2009/04/23 12:17:09.7     -81    -51      7     96     97 237.6   4.4  34204  290.33 0854.90
2009/04/23 12:17:09.8      -2    -85     57     86    103 181.4  36.5  34186  290.02 0854.90
2009/04/23 12:17:09.9     -72   -183     30    197    200 201.6   8.8  34148  289.36 0854.90
2009/04/23 12:17:10.0    -101   -214    -95    237    255 205.3 -27.5  34148  289.36 0854.90
2009/04/23 12:17:10.1     -83   -249    -80    263    274 198.5 -21.7  34144  289.31 0854.90
2009/04/23 12:17:10.2    -116   -283    -85    306    317 202.3 -20.2  34138  289.19 0854.89
2009/04/23 12:17:10.3    -182   -289     25    342    343 212.3   4.3  34140  289.23 0854.89
2009/04/23 12:17:10.5    -202   -250   -102    322    338 219.0 -17.7  34130  289.06 0854.89
2009/04/23 12:17:10.5    -237   -297   -115    381    398 218.6 -16.8  34142  289.25 0854.89
2009/04/23 12:17:10.6    -222   -222   -131    315    341 225.0 -28.2  34130  289.08 0854.89
2009/04/23 12:17:10.7    -204   -339   -141    396    421 211.1 -19.6  34142  289.27 0854.89
2009/04/23 12:17:10.8     -98   -111    -13    149    150 221.4  -5.2  34142  289.28 0854.89
2009/04/23 12:17:10.9      67   -141    -80    157    176 154.7 -33.5  34148  289.36 0854.89
2009/04/23 12:17:11.0      54   -123     15    135    136 156.3   6.5  34146  289.35 0854.89
2009/04/23 12:17:11.1      56    -83     89    101    134 146.2  45.8  34144  289.31 0854.89
2009/04/23 12:17:11.2       8   -136    103    137    171 176.4  40.9  34142  289.26 0854.89
2009/04/23 12:17:11.3     -18   -148     62    150    162 187.1  23.6  34142  289.28 0854.89
2009/04/23 12:17:11.4     -45   -162     12    169    170 195.6   4.4  34140  289.24 0854.89
2009/04/23 12:17:11.5     -36   -160    -54    165    174 192.9 -18.3  34154  289.46 0854.89
2009/04/23 12:17:11.6     -61   -130    -23    144    146 205.3  -9.4  34154  289.46 0854.89
2009/04/23 12:17:11.7      -9   -129    -16    130    132 184.4  -7.3  34150  289.41 0854.89
2009/04/23 12:17:11.8      34   -145    -19    150    152 166.6  -7.3  34146  289.35 0854.89
2009/04/23 12:17:11.9      31   -153    -22    157    159 168.4  -8.0  34150  289.40 0854.89
2009/04/23 12:17:12.0      89   -146    -22    172    174 148.6  -7.3  34146  289.33 0854.89
2009/04/23 12:17:12.1      97   -129    -17    162    163 142.8  -6.2  34142  289.28 0854.89
2009/04/23 12:17:12.2       5   -192    -46    193    199 178.4 -13.4  34126  289.01 0854.87
2009/04/23 12:17:12.3     -17   -222    -76    223    236 184.4 -18.9  34132  289.09 0854.87
2009/04/23 12:17:12.4       0   -260    -81    261    274 180.0 -17.3  34136  289.17 0854.87
2009/04/23 12:17:12.5     -14   -268     34    269    272 183.1   7.2  34134  289.12 0854.87
2009/04/23 12:17:12.6     -38   -326     16    329    330 186.7   2.9  34138  289.20 0854.87
2009/04/23 12:17:12.7       7   -451    -25    452    453 179.0  -3.2  34124  288.95 0854.87
2009/04/23 12:17:12.8     -74   -451    -25    458    459 189.3  -3.1  34138  289.21 0854.87
2009/04/23 12:17:12.9    -149   -313    -13    347    348 205.5  -2.2  34142  289.28 0854.87
2009/04/23 12:17:13.0    -166   -246    -13    297    298 214.1  -2.6  34142  289.25 0854.87
2009/04/23 12:17:13.1    -118   -310      1    332    333 200.9   0.2  34144  289.30 0854.87
2009/04/23 12:17:13.2    -161   -302    -48    343    347 208.1  -8.1  34136  289.15 0854.87
2009/04/23 12:17:13.3     -54   -261    -48    267    272 191.8 -10.3  34124  288.97 0854.87
2009/04/23 12:17:13.4     -28   -336    -30    338    340 184.9  -5.1  34126  288.98 0854.87
2009/04/23 12:17:13.5     -12   -413     21    414    415 181.7   2.9  34124  288.95 0854.87
2009/04/23 12:17:13.6      -1   -359     14    360    361 180.2   2.2  34126  288.99 0854.87
2009/04/23 12:17:13.7       1   -383    -14    384    385 179.8  -2.1  34128  289.03 0854.87
2009/04/23 12:17:13.8     -30   -314      9    316    317 185.6   1.7  34128  289.03 0854.87
2009/04/23 12:17:13.9    -104   -286     45    305    309 200.0   8.5  34128  289.02 0854.87
2009/04/23 12:17:14.0    -205   -221     -6    302    303 222.8  -1.3  34140  289.24 0854.87
2009/04/23 12:17:14.1    -240   -258     26    353    354 223.0   4.3  34148  289.37 0854.87
2009/04/23 12:17:14.2    -240   -235   -119    336    357 225.6 -19.5  34128  289.04 0854.84
2009/04/23 12:17:14.3    -183   -244   -103    305    323 216.9 -18.7  34126  289.00 0854.84
2009/04/23 12:17:14.4    -158   -280    -45    322    326 209.4  -8.1  34134  289.14 0854.84
2009/04/23 12:17:14.5    -136   -244    -43    280    284 209.2  -8.8  34130  289.07 0854.84
2009/04/23 12:17:14.6    -170   -226     -5    284    285 217.0  -1.2  34128  289.03 0854.84
2009/04/23 12:17:14.7    -145   -261    -20    299    300 209.0  -3.9  34128  289.03 0854.84
2009/04/23 12:17:14.8    -126   -339    -19    362    363 200.4  -3.1  34128  289.03 0854.84
2009/04/23 12:17:14.9    -241   -259    -45    354    357 222.9  -7.4  34126  288.98 0854.84
2009/04/23 12:17:15.0    -299   -333    -77    448    455 221.9  -9.8  34130  289.05 0854.84
2009/04/23 12:17:15.1    -282   -292   -123    407    426 224.0 -16.8  34128  289.04 0854.84
2009/04/23 12:17:15.2    -303   -311   -141    435    458 224.3 -18.0  34126  289.00 0854.84
2009/04/23 12:17:15.3    -236   -359   -118    430    445 213.4 -20.0  34128  289.02 0854.84
2009/04/23 12:17:15.4    -295   -356   -103    463    475 219.7 -12.6  34126  289.01 0854.84
2009/04/23 12:17:15.5    -316   -388   -163    501    527 219.2 -18.1  34126  289.00 0854.84
2009/04/23 12:17:15.6    -321   -347   -168    473    503 222.8 -19.6  34130  289.08 0854.84
2009/04/23 12:17:15.7    -226   -354    -86    421    430 212.6 -11.6  34142  289.26 0854.84
2009/04/23 12:17:15.8    -275   -357    -82    451    459 217.6 -10.4  34146  289.33 0854.84
2009/04/23 12:17:15.9    -147   -356    -79    386    395 202.5 -11.6  34142  289.26 0854.84
2009/04/23 12:17:16.0    -180   -300    -97    351    364 211.0 -20.1  34130  289.06 0854.84
2009/04/23 12:17:16.1    -197   -309   -124    367    387 212.6 -23.3  34136  289.15 0854.84
2009/04/23 12:17:16.2    -223   -368   -152    431    458 211.3 -19.5  34136  289.17 0854.82
2009/04/23 12:17:16.3    -194   -349    -93    400    411 209.1 -13.1  34130  289.05 0854.82
2009/04/23 12:17:16.4    -186   -304    -56    357    362 211.4  -9.0  34130  289.06 0854.82
2009/04/23 12:17:16.5     -59   -261    -86    268    282 192.9 -17.9  34128  289.03 0854.82
2009/04/23 12:17:16.6    -184   -214    -90    283    296 220.6 -22.8  34128  289.03 0854.82
2009/04/23 12:17:16.7    -208   -223    -85    306    318 223.0 -15.5  34128  289.03 0854.82
2009/04/23 12:17:16.8    -267   -232    -71    354    362 229.0 -11.3  34132  289.11 0854.82
2009/04/23 12:17:16.9    -216   -232   -118    318    339 223.0 -25.7  34130  289.06 0854.82
2009/04/23 12:17:17.0    -226   -258   -104    344    359 221.2 -21.8  34130  289.06 0854.82
2009/04/23 12:17:17.1    -289   -291    -62    411    416 224.8  -8.6  34130  289.07 0854.82
2009/04/23 12:17:17.2    -229   -269   -115    354    373 220.4 -18.1  34130  289.06 0854.82
2009/04/23 12:17:17.3    -213   -267    -92    342    355 218.6 -15.1  34130  289.06 0854.82
2009/04/23 12:17:17.4    -157   -284   -101    325    340 208.9 -22.4  34126  288.98 0854.82
2009/04/23 12:17:17.5     -87   -291    -97    304    319 196.7 -22.8  34128  289.02 0854.82
2009/04/23 12:17:17.6     -51   -270    -98    275    293 190.7 -19.7  34126  288.98 0854.82
2009/04/23 12:17:17.7     -20   -268    -96    269    286 184.4 -19.7  34130  289.07 0854.82
2009/04/23 12:17:17.8     -10   -238    -43    239    243 182.6 -10.3  34130  289.07 0854.82
2009/04/23 12:17:17.9      45   -263     15    267    268 170.3   3.3  34130  289.05 0854.82
2009/04/23 12:17:18.0     128   -443    -96    462    473 163.9 -11.8  34130  289.06 0854.82
2009/04/23 12:17:18.1     122   -467   -126    483    500 165.3 -14.7  34118  288.86 0854.82
2009/04/23 12:17:18.2      74   -439   -119    446    462 170.4 -15.1  34118  288.85 0854.84
2009/04/23 12:17:18.3      84   -447   -177    455    488 169.3 -26.8  34120  288.90 0854.84
2009/04/23 12:17:18.4     120   -353   -128    373    394 161.2 -24.3  34120  288.89 0854.84
2009/04/23 12:17:18.5     -33   -343     29    345    347 185.6   4.9  34130  289.06 0854.84
2009/04/23 12:17:18.6     -19   -349    123    350    370 183.2  20.1  34130  289.06 0854.84
2009/04/23 12:17:18.7     -65   -379     54    385    389 189.8   8.0  34132  289.11 0854.84
2009/04/23 12:17:18.8     -78   -384     -2    393    394 191.6  -0.4  34130  289.06 0854.84
2009/04/23 12:17:18.9     -15   -454    -57    455    459 181.9  -7.2  34108  288.68 0854.84
2009/04/23 12:17:19.0     -19   -488   -102    489    500 182.2 -11.8  34110  288.74 0854.84
2009/04/23 12:17:19.1     -43   -463   -120    466    482 185.4 -14.5  34110  288.73 0854.84
2009/04/23 12:17:19.2     -71   -421   -122    427    444 189.6 -20.7  34110  288.73 0854.84
2009/04/23 12:17:19.3     -99   -421   -137    433    455 193.3 -17.5  34112  288.75 0854.84
2009/04/23 12:17:19.4     -86   -421   -107    430    444 191.7 -14.1  34114  288.78 0854.84
2009/04/23 12:17:19.5     -71   -438   -119    444    460 189.2 -15.1  34120  288.90 0854.84
2009/04/23 12:17:19.6     -52   -419   -136    423    445 187.1 -17.9  34120  288.90 0854.84
2009/04/23 12:17:19.7     -83   -423   -129    432    452 191.1 -16.7  34122  288.94 0854.84
2009/04/23 12:17:19.8     -13   -369    -60    370    376 182.1  -9.3  34130  289.06 0854.84
2009/04/23 12:17:19.9       0   -455    -92    456    466 180.0 -11.5  34128  289.02 0854.84
2009/04/23 12:17:20.0       1   -431    -34    432    434 179.8  -4.6  34132  289.11 0854.84
2009/04/23 12:17:20.1       6   -456   -110    457    471 179.2 -13.6  34124  288.95 0854.84
2009/04/23 12:17:20.2     -18   -434    -83    435    443 182.5 -10.8  34128  289.02 0854.87
2009/04/23 12:17:20.3     -25   -395    -43    396    399 183.7  -6.2  34126  288.99 0854.87
2009/04/23 12:17:20.4      -3   -382    -48    383    387 180.5  -7.2  34126  288.98 0854.87
2009/04/23 12:17:20.5      21   -320    -65    321    328 176.2 -11.5  34124  288.95 0854.87
2009/04/23 12:17:20.6      54   -347    -74    352    360 171.1 -12.0  34126  288.98 0854.87
2009/04/23 12:17:20.7     107   -356    -57    372    377 163.2  -8.7  34126  289.01 0854.87
2009/04/23 12:17:20.8      49   -321    -22    325    326 171.2  -3.9  34130  289.05 0854.87
2009/04/23 12:17:20.9     -21   -286    -11    287    288 184.4  -2.2  34130  289.05 0854.87
2009/04/23 12:17:21.0      21   -255     -8    256    257 175.1  -1.8  34130  289.07 0854.87
2009/04/23 12:17:21.1      49   -276    -19    281    282 169.8  -3.9  34134  289.14 0854.87
2009/04/23 12:17:21.2      32   -164     43    168    174 168.9  14.5  34134  289.13 0854.87
2009/04/23 12:17:21.3      36   -217    -12    221    222 170.4  -3.2  34134  289.14 0854.87
2009/04/23 12:17:21.4       8   -231      8    232    233 178.0   2.1  34136  289.16 0854.87
2009/04/23 12:17:21.5       8   -215     14    216    217 177.8   3.8  34134  289.14 0854.87
2009/04/23 12:17:21.6     -27   -253     21    255    256 186.2   4.9  34138  289.19 0854.87
2009/04/23 12:17:21.7     -38   -204     75    208    221 190.7  20.4  34138  289.21 0854.87
2009/04/23 12:17:21.8     -41   -216     22    221    223 190.9   5.9  34144  289.31 0854.87
2009/04/23 12:17:21.9      33   -245     50    248    253 172.2  11.4  34142  289.25 0854.87
2009/04/23 12:17:22.0      49   -246    109    251    273 168.7  25.1  34140  289.24 0854.87
2009/04/23 12:17:22.1      76   -280     90    291    305 164.8  17.3  34128  289.03 0854.87
2009/04/23 12:17:22.2       5   -296    118    297    319 178.9  22.7  34124  288.97 0854.90
2009/04/23 12:17:22.3     -27   -255    101    257    276 186.2  22.8  34128  289.02 0854.90
2009/04/23 12:17:22.4     -82   -263    103    276    294 197.4  21.3  34130  289.07 0854.90
2009/04/23 12:17:22.5     -97   -310    108    325    343 197.4  18.4  34146  289.32 0854.90
2009/04/23 12:17:22.6    -114   -347    145    366    393 198.3  22.8  34146  289.32 0854.90
2009/04/23 12:17:22.7     -91   -244    -29    261    263 200.5  -6.5  34124  288.97 0854.90
2009/04/23 12:17:22.8    -183   -221    -58    288    294 219.7 -11.5  34124  288.95 0854.90
2009/04/23 12:17:22.9    -130   -208    -76    246    257 211.9 -22.1  34134  289.14 0854.90
2009/04/23 12:17:23.0    -112   -139    -39    179    184 219.0 -12.4  34134  289.13 0854.90
2009/04/23 12:17:23.1     -83   -200    -12    217    218 202.7  -3.3  34130  289.08 0854.90
2009/04/23 12:17:23.2      49   -212    -14    218    219 166.9  -3.9  34134  289.13 0854.90
2009/04/23 12:17:23.3      36   -214     55    218    226 170.4  14.3  34130  289.06 0854.90
2009/04/23 12:17:23.5      57   -179      0    189    190 162.2   0.0  34130  289.06 0854.90
2009/04/23 12:17:23.6       4   -184    -23    185    187 178.6  -7.2  34130  289.08 0854.90
2009/04/23 12:17:23.7     -66   -208    -69    219    229 197.8 -22.8  34140  289.23 0854.90
2009/04/23 12:17:23.8     -68   -248    -79    258    269 195.4 -22.1  34136  289.17 0854.90
2009/04/23 12:17:23.9     -37   -220    -81    224    238 189.7 -25.1  34136  289.17 0854.90
2009/04/23 12:17:24.0     -27   -198    -68    200    211 188.0 -23.3  34134  289.13 0854.90
2009/04/23 12:17:24.1     -15   -177    -53    178    186 185.1 -16.8  34140  289.24 0854.90
2009/04/23 12:17:24.2     -46   -193    -19    199    200 193.6  -5.6  34142  289.28 0854.90
2009/04/23 12:17:24.3     -16   -204      0    205    206 184.7   0.2  34140  289.24 0854.90
2009/04/23 12:17:24.4     -55   -160      8    170    171 198.9   2.8  34130  289.06 0854.90
2009/04/23 12:17:24.5     -15   -166     17    167    168 185.3   5.9  34134  289.13 0854.90
2009/04/23 12:17:24.6      14   -168      2    169    170 175.1   0.8  34132  289.11 0854.90
2009/04/23 12:17:24.7      -7   -162     22    163    165 182.5   8.0  34130  289.08 0854.90
2009/04/23 12:17:24.8     -33   -141     -4    145    146 193.3  -1.8  34128  289.04 0854.90
2009/04/23 12:17:24.9     -36   -191    -42    195    200 190.9 -12.2  34134  289.14 0854.90
2009/04/23 12:17:25.0      31   -236      9    239    240 172.4   2.3  34134  289.14 0854.90
2009/04/23 12:17:25.1      94   -282     49    298    303 161.5   9.3  34130  289.07 0854.90
2009/04/23 12:17:25.2      72   -269     14    279    280 164.9   2.9  34128  289.03 0854.90
2009/04/23 12:17:25.3      62   -322    -34    329    331 169.0  -6.0  34136  289.15 0854.86
2009/04/23 12:17:25.4     128   -221     -1    256    257 149.9  -0.3  34138  289.20 0854.86
2009/04/23 12:17:25.5     189   -227    -34    296    299 140.3  -6.7  34130  289.05 0854.86
2009/04/23 12:17:25.6     113   -205     78    235    248 151.0  18.6  34138  289.20 0854.86
2009/04/23 12:17:25.7      88   -162     32    185    188 151.5  10.1  34136  289.18 0854.86
2009/04/23 12:17:25.8      46   -139      4    147    148 161.7   1.8  34140  289.24 0854.86
2009/04/23 12:17:25.9     -13   -130     70    131    148 185.8  30.8  34142  289.26 0854.86
2009/04/23 12:17:26.0       3   -204     71    205    216 179.1  20.0  34138  289.19 0854.86
2009/04/23 12:17:26.1     -13   -251     51    252    258 183.1  11.6  34136  289.15 0854.86
2009/04/23 12:17:26.2      -9   -380    114    381    398 181.4  16.7  34136  289.16 0854.86
2009/04/23 12:17:26.3     -33   -402    167    404    437 184.8  23.7  34136  289.16 0854.86
2009/04/23 12:17:26.4      72   -271     82    281    293 165.1  16.4  34140  289.22 0854.86
2009/04/23 12:17:26.5       2   -190     84    191    208 179.1  25.1  34140  289.24 0854.86
2009/04/23 12:17:26.6      53   -315     61    320    326 170.3  10.8  34142  289.25 0854.86
2009/04/23 12:17:26.7      97   -311     15    326    327 162.6   2.8  34138  289.19 0854.86
2009/04/23 12:17:26.8      81   -368    -30    377    379 167.5  -4.6  34138  289.20 0854.86
2009/04/23 12:17:26.9     194   -324    -13    378    379 149.1  -2.1  34132  289.11 0854.86
2009/04/23 12:17:27.0     180   -283    -18    336    337 147.5  -3.1  34134  289.13 0854.86
2009/04/23 12:17:27.1     219   -291    -53    365    369 143.0  -8.4  34136  289.18 0854.86
2009/04/23 12:17:27.2     181   -251     -3    310    311 144.2  -0.7  34132  289.09 0854.86
2009/04/23 12:17:27.3     196   -314     46    371    374 148.0   7.1  34136  289.15 0854.86
2009/04/23 12:17:27.4      45   -244     17    249    250 169.5   3.9  34136  289.15 0854.86
2009/04/23 12:17:27.5     -13   -296     46    297    301 182.7   8.9  34140  289.24 0854.86
2009/04/23 12:17:27.6     -16   -343    -43    344    347 182.7  -7.2  34138  289.21 0854.86
2009/04/23 12:17:27.7     -16   -372    -20    373    374 182.5  -3.1  34144  289.30 0854.86
2009/04/23 12:17:27.8      33   -367    -10    369    370 174.8  -1.6  34146  289.32 0854.86
2009/04/23 12:17:27.9      29   -367     24    369    370 175.4   3.8  34142  289.28 0854.86
2009/04/23 12:17:28.0      80   -465     31    472    474 170.2   3.8  34138  289.20 0854.86
2009/04/23 12:17:28.1     153   -432     25    459    460 160.4   3.2  34136  289.17 0854.86
2009/04/23 12:17:28.2     148   -512     47    533    536 163.9   5.1  34136  289.16 0854.86
2009/04/23 12:17:28.3     101   -488     43    499    501 168.2   5.0  34136  289.18 0854.86
2009/04/23 12:17:28.4     107   -457     19    470    471 166.7   2.4  34138  289.20 0854.86
2009/04/23 12:17:28.5      60   -507    120    511    525 173.2  13.2  34140  289.23 0854.86
2009/04/23 12:17:28.6      56   -576    119    579    592 174.4  11.7  34140  289.24 0854.86
2009/04/23 12:17:28.7      25   -664      1    665    666 177.8   0.1  34142  289.26 0854.86
2009/04/23 12:17:28.8      62   -701     46    704    706 174.9   3.8  34136  289.18 0854.86
2009/04/23 12:17:28.9     -65   -817    -54    820    822 184.6  -3.8  34136  289.16 0854.86
2009/04/23 12:17:29.0    -132   -828   -138    839    851 189.1  -9.3  34122  288.92 0854.86
2009/04/23 12:17:29.1    -164   -818   -177    835    854 191.3 -12.0  34120  288.90 0854.86
2009/04/23 12:17:29.2    -140   -788   -214    801    830 190.1 -15.0  34120  288.89 0854.86
2009/04/23 12:17:29.3    -105   -674   -208    683    715 188.9 -17.0  34122  288.93 0854.87
2009/04/23 12:17:29.4    -130   -587   -178    602    628 192.5 -16.5  34126  288.98 0854.87
2009/04/23 12:17:29.5    -137   -584   -103    600    610 193.3  -9.8  34134  289.12 0854.87
2009/04/23 12:17:29.6    -127   -641   -154    654    672 191.2 -13.3  34130  289.05 0854.87
2009/04/23 12:17:29.7    -115   -648   -170    659    681 190.1 -14.5  34124  288.97 0854.87
2009/04/23 12:17:29.8     -86   -686   -216    692    724 187.2 -22.3  34126  288.98 0854.87
2009/04/23 12:17:29.9    -189   -602   -216    632    669 197.4 -18.9  34132  289.09 0854.87
2009/04/23 12:17:30.0    -124   -726   -201    737    765 189.7 -15.3  34114  288.80 0854.87
2009/04/23 12:17:30.1    -112   -702   -184    712    736 189.1 -14.5  34116  288.84 0854.87
2009/04/23 12:17:30.2    -173   -711   -142    732    746 193.7 -11.0  34126  288.99 0854.87
2009/04/23 12:17:30.3    -211   -708   -178    739    761 196.6 -13.6  34114  288.79 0854.87
2009/04/23 12:17:30.4    -110   -686   -127    695    707 189.1 -10.4  34114  288.79 0854.87
2009/04/23 12:17:30.5     -58   -657   -111    660    670 185.1  -9.6  34114  288.80 0854.87
2009/04/23 12:17:30.6     -16   -684    -38    685    687 181.4  -3.2  34114  288.78 0854.87
2009/04/23 12:17:30.7     -79   -773    -81    778    783 185.9  -6.0  34118  288.85 0854.87
2009/04/23 12:17:30.8    -193   -635    -43    664    666 196.9  -3.7  34120  288.88 0854.87
2009/04/23 12:17:30.9    -263   -693    -95    742    749 200.8  -7.3  34122  288.92 0854.87
2009/04/23 12:17:31.0    -389   -667   -204    773    800 210.3 -14.8  34120  288.91 0854.87
2009/04/23 12:17:31.1    -385   -624   -193    734    759 211.7 -14.8  34120  288.89 0854.87
2009/04/23 12:17:31.2    -423   -632   -165    761    779 213.8 -12.3  34120  288.91 0854.87
2009/04/23 12:17:31.3    -462   -658   -229    805    837 215.1 -15.9  34118  288.86 0854.89
2009/04/23 12:17:31.4    -443   -636   -114    776    785 214.9  -8.4  34118  288.86 0854.89
2009/04/23 12:17:31.5    -241   -726   -188    766    789 198.4 -13.8  34118  288.85 0854.89
2009/04/23 12:17:31.6    -282   -627    -87    688    694 204.2  -7.2  34120  288.88 0854.89
2009/04/23 12:17:31.7    -176   -683   -127    706    718 194.5 -10.2  34124  288.95 0854.89
2009/04/23 12:17:31.8    -279   -650   -104    708    716 203.2  -8.4  34120  288.91 0854.89
2009/04/23 12:17:31.9    -206   -650   -151    682    699 197.6 -12.5  34120  288.90 0854.89
2009/04/23 12:17:32.0    -142   -561   -139    579    596 194.3 -13.6  34124  288.95 0854.89
2009/04/23 12:17:32.1    -147   -547   -108    567    578 195.1 -10.8  34120  288.88 0854.89
2009/04/23 12:17:32.2    -139   -506    -20    525    526 195.4  -2.2  34118  288.85 0854.89
2009/04/23 12:17:32.3     -89   -429    -24    439    440 191.8  -3.1  34114  288.78 0854.89
2009/04/23 12:17:32.4    -217   -407    -97    462    473 208.1 -11.9  34116  288.81 0854.89
2009/04/23 12:17:32.5    -217   -486   -117    533    546 204.1 -12.4  34118  288.85 0854.89
2009/04/23 12:17:32.6    -226   -423   -151    480    504 208.1 -17.5  34118  288.86 0854.89
2009/04/23 12:17:32.7    -242   -425   -127    490    507 209.7 -14.6  34120  288.88 0854.89
2009/04/23 12:17:32.8    -228   -406   -147    466    489 209.3 -17.5  34120  288.90 0854.89
2009/04/23 12:17:32.9    -243   -394   -160    463    490 211.7 -19.1  34120  288.88 0854.89
2009/04/23 12:17:33.0    -251   -379   -156    455    482 213.5 -19.0  34120  288.88 0854.89
2009/04/23 12:17:33.1    -216   -336   -131    400    422 212.7 -18.2  34118  288.85 0854.89
2009/04/23 12:17:33.2    -197   -310   -130    368    391 212.5 -19.6  34120  288.88 0854.89
2009/04/23 12:17:33.3    -199   -271   -109    337    355 216.4 -17.9  34118  288.86 0854.88
2009/04/23 12:17:33.4    -200   -251   -106    322    340 218.5 -18.3  34116  288.84 0854.88
2009/04/23 12:17:33.5    -192   -221    -97    294    310 221.0 -18.3  34118  288.87 0854.88
2009/04/23 12:17:33.6    -187   -219    -85    289    302 220.5 -16.5  34120  288.90 0854.88
2009/04/23 12:17:33.7    -194   -203    -84    282    294 223.7 -21.7  34122  288.93 0854.88
2009/04/23 12:17:33.8    -208   -194    -87    285    297 226.9 -21.8  34120  288.90 0854.88
2009/04/23 12:17:33.9    -126   -181    -70    221    232 215.0 -17.6  34124  288.96 0854.88
2009/04/23 12:17:34.0    -102   -216    -57    240    247 205.3 -13.4  34128  289.02 0854.88
2009/04/23 12:17:34.1     -93   -213    -93    233    250 203.6 -27.4  34130  289.05 0854.88
2009/04/23 12:17:34.2    -118   -202    -98    235    254 210.3 -28.5  34126  288.98 0854.88
2009/04/23 12:17:34.3     -90   -155    -69    180    192 210.1 -26.1  34120  288.91 0854.88
2009/04/23 12:17:34.4     -85   -115    -52    144    153 216.5 -24.8  34122  288.94 0854.88
2009/04/23 12:17:34.5     -80   -137    -62    159    170 210.3 -26.7  34124  288.96 0854.88
2009/04/23 12:17:34.6     -67    -74    -57    101    115 222.3 -36.3  34122  288.92 0854.88
2009/04/23 12:17:34.7    -133    -63    -96    148    176 244.8 -40.4  34122  288.94 0854.88
2009/04/23 12:17:34.8    -153    -51    -79    162    180 251.4 -32.2  34124  288.96 0854.88
2009/04/23 12:17:34.9    -127    -46    -80    136    157 250.0 -37.5  34124  288.97 0854.88
2009/04/23 12:17:35.0    -129    -26    -88    132    158 258.5 -41.4  34126  288.99 0854.88
2009/04/23 12:17:35.1    -131    -22    -95    133    163 260.4 -43.5  34126  289.01 0854.88
2009/04/23 12:17:35.2    -145    -68    -58    161    171 244.7 -24.6  34126  288.99 0854.88
2009/04/23 12:17:35.3    -151    -81    -55    172    180 241.6 -23.0  34126  289.01 0854.89
2009/04/23 12:17:35.4    -130    -81    -50    154    161 238.0 -23.3  34126  289.01 0854.89
2009/04/23 12:17:35.5    -105    -96    -45    143    151 227.3 -17.6  34124  288.97 0854.89
2009/04/23 12:17:35.6    -124    -77    -28    147    150 238.0 -10.9  34122  288.92 0854.89
2009/04/23 12:17:35.7    -113    -60    -13    128    129 242.0  -6.2  34126  288.99 0854.89
2009/04/23 12:17:35.8     -76   -103    -66    129    144 216.5 -33.7  34124  288.97 0854.89
2009/04/23 12:17:35.9     -60    -83   -115    103    154 216.0 -58.1  34126  288.99 0854.89
2009/04/23 12:17:36.0     -47    -97   -118    108    159 205.9 -57.1  34128  289.02 0854.89
2009/04/23 12:17:36.1    -107    -74   -146    131    196 235.4 -58.1  34126  288.99 0854.89
2009/04/23 12:17:36.2     -87    -55   -143    104    176 237.6 -64.9  34128  289.02 0854.89
2009/04/23 12:17:36.3    -133    -60   -157    147    215 245.6 -56.6  34128  289.02 0854.89
2009/04/23 12:17:36.4     -96   -100   -153    139    206 223.7 -57.4  34126  289.01 0854.89
2009/04/23 12:17:36.5     -84   -155   -176    177    249 208.5 -54.4  34124  288.97 0854.89
2009/04/23 12:17:36.6     -88   -170   -138    192    236 207.4 -43.7  34122  288.92 0854.89
2009/04/23 12:17:36.7    -127    -99   -160    162    227 232.2 -54.4  34122  288.94 0854.89
2009/04/23 12:17:36.8     -71    -33   -150     79    169 244.7 -74.8  34122  288.94 0854.89
2009/04/23 12:17:36.9    -197   -101   -164    222    276 242.9 -44.5  34126  289.00 0854.89
2009/04/23 12:17:37.0    -155    -51   -199    164    257 251.8 -60.8  34124  288.96 0854.89
2009/04/23 12:17:37.1     -47    -15   -167     50    174 251.8 -87.2  34124  288.96 0854.89
2009/04/23 12:17:37.2      26    -35   -103     44    112 143.0 -80.5  34126  289.01 0854.89
2009/04/23 12:17:37.3       0      0    -81      1     81 315.0 -90.0  34126  289.01 0854.89
2009/04/23 12:17:37.4      16    -63     11     66     68 165.7  10.1  34130  289.08 0854.89
2009/04/23 12:17:37.5     -21   -149    -53    151    161 188.0 -19.4  34132  289.09 0854.89
2009/04/23 12:17:37.6      39   -176    -95    181    204 167.5 -34.5  34136  289.16 0854.89
2009/04/23 12:17:37.7     197   -155   -140    251    287 128.2 -35.8  34136  289.17 0854.89
2009/04/23 12:17:37.8     142   -171    -72    223    235 140.4 -17.9  34134  289.14 0854.89
2009/04/23 12:17:37.9     233   -251     19    343    344 137.2   3.3  34136  289.16 0854.89
2009/04/23 12:17:38.0     267   -261     43    374    377 134.4   6.7  34134  289.13 0854.89
2009/04/23 12:17:38.1     278   -180     48    332    336 122.9   8.3  34130  289.06 0854.89
2009/04/23 12:17:38.2     268    -54    196    274    336 101.5  39.2  34132  289.09 0854.89
2009/04/23 12:17:38.3     357    175    224    398    456  63.8  31.7  34152  289.44 0854.89
2009/04/23 12:17:38.4     261    -87    165    276    321 108.4  33.7  34158  289.53 0854.89
2009/04/23 12:17:38.5     231   -119    128    260    289 117.3  28.2  34146  289.34 0854.89
2009/04/23 12:17:38.6     117    -79    224    142    265 124.2  64.7  34146  289.33 0854.89
2009/04/23 12:17:38.7     179   -114    168    213    271 122.6  42.7  34142  289.25 0854.89
2009/04/23 12:17:38.8     234      0    245    235    339  90.1  51.3  34152  289.42 0854.89
2009/04/23 12:17:38.9     213     53    181    220    284  75.8  43.7  34156  289.51 0854.89
2009/04/23 12:17:39.0     278     94    302    294    421  71.2  51.1  34154  289.47 0854.89
2009/04/23 12:17:39.1     259     85    219    273    349  71.8  43.1  34150  289.41 0854.89
2009/04/23 12:17:39.2     156     -8    227    157    276  93.0  62.1  34192  290.10 0854.89
2009/04/23 12:17:39.3     139      0    168    140    218  89.6  56.3  34174  289.82 0854.90
2009/04/23 12:17:39.4       4     94    159     95    185   2.7  66.2  34208  290.40 0854.90
2009/04/23 12:17:39.5      64     60    155     88    178  46.9  68.3  34220  290.58 0854.90
2009/04/23 12:17:39.6       9    142    162    143    216   3.6  54.2  34194  290.16 0854.90
2009/04/23 12:17:39.7    -102    202    182    227    290 333.3  43.0  34174  289.81 0854.90
2009/04/23 12:17:39.8    -168    114    187    204    276 304.1  47.5  34170  289.75 0854.90
2009/04/23 12:17:39.9    -174    103    155    203    255 300.7  41.4  34172  289.78 0854.90
2009/04/23 12:17:40.0    -211    107    160    237    285 296.9  37.4  34184  289.97 0854.90
2009/04/23 12:17:40.1    -304    138    127    334    357 294.4  21.7  34186  290.01 0854.90
2009/04/23 12:17:40.2    -110    235     91    260    276 334.8  19.4  34174  289.81 0854.90
2009/04/23 12:17:40.3    -114    120     90    166    188 316.6  31.0  34166  289.69 0854.90
2009/04/23 12:17:40.4     -69     14     92     71    116 281.4  58.5  34180  289.92 0854.90
2009/04/23 12:17:40.5     -47    -32     37     58     68 235.8  35.5  34178  289.87 0854.90
2009/04/23 12:17:40.6     -31     56     36     65     74 331.0  31.4  34186  290.01 0854.90
2009/04/23 12:17:40.7    -149     27     27    152    155 280.6  10.1  34196  290.18 0854.90
2009/04/23 12:17:40.8    -180     64     75    192    206 289.7  22.5  34206  290.36 0854.90
2009/04/23 12:17:40.9    -146    -30     70    150    165 258.1  26.6  34206  290.36 0854.90
2009/04/23 12:17:41.0     -82    161    139    181    228 332.8  41.6  34238  290.91 0854.90
2009/04/23 12:17:41.1     -66    139    140    154    208 334.5  47.1  34240  290.92 0854.90
2009/04/23 12:17:41.2    -107     60     75    123    144 299.3  35.0  34222  290.62 0854.90
2009/04/23 12:17:41.3     -95     60     28    113    117 302.5  14.3  34210  290.41 0854.91
2009/04/23 12:17:41.4     -77     46      4     90     91 301.1   2.9  34208  290.40 0854.91
2009/04/23 12:17:41.5     -73    109     35    132    137 326.2  15.2  34216  290.53 0854.91
2009/04/23 12:17:41.6    -109     69     -7    130    131 302.4  -3.2  34200  290.26 0854.91
2009/04/23 12:17:41.7    -162     77     30    180    183 295.5   9.5  34182  289.96 0854.91
2009/04/23 12:17:41.8     -93     35     -5    100    101 290.8  -3.1  34174  289.82 0854.91
2009/04/23 12:17:41.9     -84    -34    -25     91     94 247.4 -20.7  34170  289.74 0854.91
2009/04/23 12:17:42.0     -82    -64    -15    105    107 231.8  -8.2  34170  289.75 0854.91
2009/04/23 12:17:42.1     -88    -62    -35    108    113 234.9 -23.8  34162  289.62 0854.91
2009/04/23 12:17:42.2    -177    -99    -72    203    215 240.7 -24.4  34194  290.16 0854.91
2009/04/23 12:17:42.3    -107    -31    -82    112    138 253.6 -44.1  34172  289.79 0854.91
2009/04/23 12:17:42.4     -63    -20    -66     67     94 252.3 -54.9  34178  289.87 0854.91
2009/04/23 12:17:42.5      14    -77    -90     79    119 169.3 -58.7  34196  290.18 0854.91
2009/04/23 12:17:42.6      22   -111    -72    114    134 168.5 -39.9  34192  290.11 0854.91
2009/04/23 12:17:42.7       9   -122    -22    123    125 175.5 -10.3  34182  289.94 0854.91
2009/04/23 12:17:42.8      -8    -86     79     87    117 185.8  47.5  34186  290.02 0854.91
2009/04/23 12:17:42.9      15   -109     62    111    127 171.9  31.4  34176  289.85 0854.91
2009/04/23 12:17:43.0      22   -159     82    161    180 172.0  29.1  34152  289.43 0854.91
2009/04/23 12:17:43.1      26   -153     93    156    181 170.3  33.5  34158  289.53 0854.91
2009/04/23 12:17:43.2       9   -209     74    210    222 177.4  20.0  34158  289.55 0854.91
2009/04/23 12:17:43.3       0   -258    103    259    278 179.9  23.0  34132  289.09 0854.93
2009/04/23 12:17:43.4     -23   -282    112    283    304 184.7  23.0  34136  289.17 0854.93
2009/04/23 12:17:43.5     -17   -290    112    291    311 183.4  22.0  34132  289.10 0854.93
2009/04/23 12:17:43.6     -16   -264     79    265    277 183.6  16.6  34134  289.12 0854.93
2009/04/23 12:17:43.7     -35   -291     62    294    301 186.9  12.0  34136  289.17 0854.93
2009/04/23 12:17:43.8     -51   -300     99    305    321 189.7  18.0  34136  289.17 0854.93
2009/04/23 12:17:43.9     -62   -303     79    310    321 191.6  14.4  34142  289.25 0854.93
2009/04/23 12:17:44.0     -49   -330     39    334    337 188.6   6.8  34136  289.18 0854.93
2009/04/23 12:17:44.1     -22   -381     68    382    389 183.4  10.1  34136  289.16 0854.93
2009/04/23 12:17:44.2      -1   -416     74    417    424 180.3  10.1  34140  289.24 0854.93
2009/04/23 12:17:44.3       0   -484     39    485    487 180.0   4.7  34142  289.28 0854.95
2009/04/23 12:17:44.4      27   -505     63    506    510 176.9   7.1  34142  289.27 0854.95
2009/04/23 12:17:44.5     -13   -432     46    433    436 181.8   6.1  34134  289.14 0854.95
2009/04/23 12:17:44.6      19   -466    150    467    491 177.7  17.8  34136  289.17 0854.95
2009/04/23 12:17:44.7      77   -408    125    416    435 169.3  16.8  34136  289.16 0854.95
2009/04/23 12:17:44.8      35   -479    145    481    503 175.8  16.8  34136  289.17 0854.95
2009/04/23 12:17:44.9      72   -463    141    469    490 171.1  16.8  34130  289.08 0854.95
2009/04/23 12:17:45.0     -54   -456    148    460    484 186.8  17.9  34126  289.01 0854.95
2009/04/23 12:17:45.1    -133   -307    -86    335    346 203.5 -14.4  34112  288.77 0854.95
2009/04/23 12:17:45.2     -30   -412    -55    414    418 184.2  -7.6  34124  288.97 0854.95
2009/04/23 12:17:45.3     -32   -529   -102    530    540 183.5 -11.0  34116  288.82 0854.95
2009/04/23 12:17:45.4     -15   -507   -172    508    537 181.8 -18.7  34112  288.77 0854.95
2009/04/23 12:17:45.5     -44   -578   -190    580    611 184.4 -18.2  34110  288.71 0854.95
2009/04/23 12:17:45.6     -53   -578   -179    581    609 185.3 -17.2  34112  288.75 0854.95
2009/04/23 12:17:45.7     -94   -576   -160    584    606 189.3 -15.4  34110  288.73 0854.95
2009/04/23 12:17:45.8     -73   -531   -148    536    556 187.9 -20.2  34112  288.77 0854.95
2009/04/23 12:17:45.9     -96   -480   -158    490    514 191.3 -22.9  34114  288.78 0854.95
2009/04/23 12:17:46.0     -63   -384   -139    390    414 189.3 -24.8  34128  289.02 0854.95
2009/04/23 12:17:46.1      74   -241    -82    253    265 162.8 -23.3  34124  288.97 0854.95
2009/04/23 12:17:46.2     200   -401     30    449    450 153.5   3.9  34118  288.87 0854.95
2009/04/23 12:17:46.3     347   -461    -84    578    585 143.0  -8.3  34124  288.95 0854.96
2009/04/23 12:17:46.4     372   -449     14    584    585 140.4   1.4  34130  289.05 0854.96
2009/04/23 12:17:46.5     268   -325    -16    422    423 140.5  -2.2  34128  289.04 0854.96
2009/04/23 12:17:46.6     251   -265     76    366    374 136.6  11.8  34122  288.94 0854.96
2009/04/23 12:17:46.7       0   -277    188    278    335 180.0  37.4  34128  289.02 0854.96
2009/04/23 12:17:46.8      -9   -294    196    295    354 181.8  36.7  34126  288.99 0854.96
2009/04/23 12:17:46.9      51   -302    226    307    381 170.3  39.9  34126  288.99 0854.96
2009/04/23 12:17:47.0     -17   -519     26    520    521 181.9   2.9  34120  288.91 0854.96
2009/04/23 12:17:47.1      72   -492    -51    498    501 171.6  -5.9  34126  289.00 0854.96
2009/04/23 12:17:47.2     143   -427    -17    451    452 161.4  -2.2  34128  289.04 0854.96
2009/04/23 12:17:47.3     128   -385    -12    406    407 161.5  -1.7  34130  289.05 0854.96
2009/04/23 12:17:47.4     129   -273     45    302    306 154.7   8.5  34126  289.00 0854.96
2009/04/23 12:17:47.5     -39   -440    150    442    468 185.2  18.8  34128  289.04 0854.96
2009/04/23 12:17:47.6      50   -532    -29    535    536 174.6  -3.1  34132  289.09 0854.96
2009/04/23 12:17:47.7     160   -542     27    566    567 163.5   2.8  34126  289.01 0854.96
2009/04/23 12:17:47.8     169   -557     30    583    584 163.1   3.0  34128  289.03 0854.96
2009/04/23 12:17:47.9     157   -566     40    588    590 164.4   3.9  34128  289.02 0854.96
2009/04/23 12:17:48.0     184   -554     59    584    588 161.6   5.8  34124  288.97 0854.96
2009/04/23 12:17:48.1     179   -527    166    557    582 161.2  16.6  34122  288.93 0854.96
2009/04/23 12:17:48.2     192   -492    188    529    562 158.7  19.6  34128  289.02 0854.96
2009/04/23 12:17:48.3      73   -375    240    383    451 168.9  35.2  34128  289.04 0854.96
2009/04/23 12:17:48.4     -28   -385    224    387    447 184.3  32.7  34134  289.14 0854.96
2009/04/23 12:17:48.5     -56   -404    191    408    450 187.9  27.1  34134  289.14 0854.96
2009/04/23 12:17:48.6     -52   -386    215    390    445 187.8  31.3  34136  289.16 0854.96
2009/04/23 12:17:48.7    -110   -368    197    385    432 196.6  29.2  34132  289.09 0854.96
2009/04/23 12:17:48.8     -78   -374    177    383    421 191.9  26.9  34130  289.05 0854.96
2009/04/23 12:17:48.9     -99   -353    166    367    402 195.7  26.2  34126  289.01 0854.96
2009/04/23 12:17:49.0     -69   -310    163    318    357 192.7  29.3  34126  289.01 0854.96
2009/04/23 12:17:49.1    -100   -274    183    292    344 200.1  35.2  34126  289.00 0854.96
2009/04/23 12:17:49.2     -77   -257    207    269    339 196.7  41.5  34128  289.02 0854.96
2009/04/23 12:17:49.3     -59   -211    167    220    276 195.6  40.9  34128  289.03 0854.96
2009/04/23 12:17:49.4    -110   -172    156    205    257 212.6  40.9  34128  289.03 0854.96
2009/04/23 12:17:49.5     -98   -186    168    211    269 207.9  42.7  34130  289.07 0854.96
2009/04/23 12:17:49.6    -106   -191    146    219    263 209.0  36.5  34130  289.07 0854.96
2009/04/23 12:17:49.7     -80   -152    119    173    209 207.9  37.8  34130  289.06 0854.96
2009/04/23 12:17:49.8     -38   -142     98    148    177 195.1  36.7  34134  289.14 0854.96
2009/04/23 12:17:49.9     -26   -154     55    157    166 189.8  20.0  34132  289.09 0854.96
2009/04/23 12:17:50.0      38   -169      0    174    175 167.3   0.0  34130  289.08 0854.96
2009/04/23 12:17:50.2      67   -193     28    205    208 160.8   8.0  34130  289.06 0854.96
2009/04/23 12:17:50.2       7   -227     38    228    232 178.2   9.5  34130  289.06 0854.96
2009/04/23 12:17:50.3      34   -167    -23    171    173 168.2  -7.7  34132  289.11 0854.97
2009/04/23 12:17:50.4      31   -176    -35    179    183 170.0 -11.1  34132  289.11 0854.97
2009/04/23 12:17:50.5      85   -152     -7    175    176 150.6  -2.3  34132  289.11 0854.97
2009/04/23 12:17:50.6      88   -163    -23    186    188 151.7  -7.3  34128  289.04 0854.97
2009/04/23 12:17:50.7     119   -137     10    182    183 139.0   3.1  34130  289.06 0854.97
2009/04/23 12:17:50.8      94   -133    -45    163    169 144.8 -20.2  34132  289.09 0854.97
2009/04/23 12:17:50.9      44   -132    -51    140    149 161.3 -25.3  34130  289.08 0854.97
2009/04/23 12:17:51.0      87   -137    -22    163    165 147.7  -8.0  34130  289.08 0854.97
2009/04/23 12:17:51.1      66   -192    -40    204    208 161.1 -11.1  34126  289.01 0854.97
2009/04/23 12:17:51.2      77   -171    -34    188    192 155.7 -10.3  34130  289.06 0854.97
2009/04/23 12:17:51.4      62   -154    -48    167    174 157.9 -16.0  34130  289.08 0854.97
2009/04/23 12:17:51.5       7   -182    -25    183    185 177.5  -8.0  34134  289.13 0854.97
2009/04/23 12:17:51.6       0   -207    -26    208    210 179.8  -7.3  34130  289.08 0854.97
2009/04/23 12:17:51.7       7   -242    -13    243    244 178.2  -3.1  34134  289.12 0854.97
2009/04/23 12:17:51.8      26   -223    -55    225    232 173.3 -13.9  34130  289.06 0854.97
2009/04/23 12:17:51.9      26   -188     22    190    192 172.0   6.7  34132  289.09 0854.97
2009/04/23 12:17:52.0      80   -200     74    216    229 158.2  18.9  34128  289.04 0854.97
2009/04/23 12:17:52.1      93   -160     54    186    194 149.9  16.3  34128  289.04 0854.97
2009/04/23 12:17:52.2       4   -179     72    180    193 178.6  23.0  34132  289.09 0854.97
2009/04/23 12:17:52.3      13   -163      6    164    165 175.1   2.3  34134  289.13 0854.97
2009/04/23 12:17:52.4      44   -151     10    158    159 163.5   3.8  34132  289.11 0854.97
2009/04/23 12:17:52.5      20   -126     78    128    149 170.7  35.0  34128  289.02 0854.97
2009/04/23 12:17:52.6      49   -103    114    115    161 154.7  50.0  34134  289.14 0854.97
2009/04/23 12:17:52.7      43    -99     76    109    132 156.4  38.0  34136  289.16 0854.97
2009/04/23 12:17:52.8       0   -106     54    107    119 179.5  29.2  34134  289.13 0854.97
2009/04/23 12:17:52.9     -18   -130     20    132    134 188.0   8.9  34132  289.09 0854.97
2009/04/23 12:17:53.0      67   -106     82    126    150 147.5  35.6  34130  289.06 0854.97
2009/04/23 12:17:53.1     -23   -103    105    106    149 192.9  50.0  34130  289.08 0854.97
2009/04/23 12:17:53.2     -87    -50     87    101    133 239.8  45.8  34132  289.09 0854.97
2009/04/23 12:17:53.3    -119    100    -85    156    177 310.0 -35.4  34132  289.11 0854.97
2009/04/23 12:17:53.4      35     32     41     48     63  47.8  44.8  34136  289.18 0854.97
2009/04/23 12:17:53.5     -48    -45     44     66     79 226.8  37.0  34132  289.11 0854.97
2009/04/23 12:17:53.6     -54    -58     49     80     93 223.2  35.0  34130  289.06 0854.97
2009/04/23 12:17:53.7     -60    -20     22     64     68 250.9  19.4  34130  289.06 0854.97
2009/04/23 12:17:53.8     -84     47    -34     97    104 299.3 -19.6  34130  289.06 0854.97
2009/04/23 12:17:53.9     -18    128    -27    130    133 352.0 -11.9  34132  289.09 0854.97
2009/04/23 12:17:54.0     -79     96     39    125    132 320.4  17.4  34134  289.13 0854.97
2009/04/23 12:17:54.1    -164    153     65    225    235 313.1  16.3  34132  289.11 0854.97
2009/04/23 12:17:54.2    -162    199    -14    257    258 320.8  -3.1  34134  289.12 0854.97
2009/04/23 12:17:54.3    -165    242    -71    294    303 325.7 -13.7  34132  289.10 0854.97
2009/04/23 12:17:54.4    -201    257    -57    327    332 321.9  -9.9  34132  289.11 0854.97
2009/04/23 12:17:54.5    -306    226   -147    381    408 306.5 -26.5  34136  289.15 0854.97
2009/04/23 12:17:54.6    -376    193   -126    423    442 297.2 -16.6  34134  289.12 0854.97
2009/04/23 12:17:54.7    -460    183   -150    496    518 291.7 -21.7  34132  289.10 0854.97
2009/04/23 12:17:54.8    -465    220   -153    515    537 295.3 -21.5  34126  288.99 0854.97
2009/04/23 12:17:54.9    -369    214   -214    427    477 300.1 -33.1  34128  289.04 0854.97
2009/04/23 12:17:55.0    -290    322   -129    434    453 318.0 -16.6  34128  289.02 0854.97
2009/04/23 12:17:55.1    -220    325    -98    393    406 325.8 -14.1  34128  289.03 0854.97
2009/04/23 12:17:55.2    -268    197    166    333    372 306.3  28.5  34134  289.13 0854.97
2009/04/23 12:17:55.3    -466    100    -18    477    478 282.2  -2.2  34134  289.12 0854.97
2009/04/23 12:17:55.4    -545    -39   -130    547    563 265.9 -13.4  34140  289.23 0854.97
2009/04/23 12:17:55.5    -563    -57   -178    566    593 264.2 -22.5  34122  288.93 0854.97
2009/04/23 12:17:55.6    -588    -53   -345    591    684 264.8 -37.4  34122  288.94 0854.97
2009/04/23 12:17:55.7    -655   -201   -213    686    718 252.9 -22.2  34116  288.83 0854.97
2009/04/23 12:17:55.8    -492   -266   -375    560    673 241.6 -41.4  34124  288.96 0854.97
2009/04/23 12:17:55.9    -450   -179   -384    485    618 248.3 -46.8  34124  288.97 0854.97
2009/04/23 12:17:56.0    -244    -78   -383    257    461 252.3 -67.2  34124  288.97 0854.97
2009/04/23 12:17:56.1    -525     -4   -355    526    634 269.5 -41.6  34126  289.00 0854.97
2009/04/23 12:17:56.2    -471   -169   -266    501    567 250.2 -34.6  34128  289.02 0854.97
2009/04/23 12:17:56.3    -447    140   -414    469    625 287.4 -50.5  34128  289.03 0854.97
2009/04/23 12:17:56.4    -461    370      8    592    593 308.7   0.8  34130  289.08 0854.96
2009/04/23 12:17:56.5    -302    371    -42    479    481 320.8  -5.1  34140  289.22 0854.96
2009/04/23 12:17:56.6    -340    127   -170    364    401 290.5 -31.5  34126  288.99 0854.96
2009/04/23 12:17:56.7    -411    101   -294    424    515 283.9 -42.4  34124  288.95 0854.96
2009/04/23 12:17:56.8    -482    178   -225    514    561 290.3 -29.6  34126  289.01 0854.96
2009/04/23 12:17:56.9    -392    115   -179    409    446 286.4 -29.6  34126  289.00 0854.96
2009/04/23 12:17:57.0    -129     21   -144    131    194 279.6 -57.4  34126  289.01 0854.96
2009/04/23 12:17:57.1    -102     14   -152    104    184 278.0 -67.0  34128  289.02 0854.96
2009/04/23 12:17:57.2    -284   -134   -154    315    350 244.7 -32.2  34136  289.16 0854.96
2009/04/23 12:17:57.3    -217   -171   -181    277    330 231.8 -40.6  34130  289.07 0854.96
2009/04/23 12:17:57.4    -296   -183   -144    349    377 238.2 -28.0  34144  289.30 0854.96
2009/04/23 12:17:57.5    -243   -238   -282    341    442 225.6 -48.1  34132  289.09 0854.96
2009/04/23 12:17:57.6      22      1   -187     23    188  85.6 -90.0  34142  289.28 0854.96
2009/04/23 12:17:57.7      29    -45    -83     54     99 147.4 -68.5  34132  289.11 0854.96
2009/04/23 12:17:57.8    -219   -226   -245    316    399 224.1 -46.0  34134  289.13 0854.96
2009/04/23 12:17:57.9     -20   -429   -131    430    449 182.8 -21.8  34138  289.21 0854.96
2009/04/23 12:17:58.0      62   -438   -137    443    463 171.9 -22.2  34140  289.24 0854.96
2009/04/23 12:17:58.1     100   -470   -172    481    511 168.0 -19.7  34134  289.12 0854.96
2009/04/23 12:17:58.2      74   -537   -145    543    563 172.1 -15.0  34132  289.09 0854.96
2009/04/23 12:17:58.3     142   -526    -68    545    550 164.9  -7.2  34134  289.13 0854.96
2009/04/23 12:17:58.4     167   -535   -108    561    572 162.6 -10.9  34136  289.16 0854.97
2009/04/23 12:17:58.5     102   -567    -47    577    580 169.8  -4.7  34136  289.15 0854.97
2009/04/23 12:17:58.6      75   -506     16    512    513 171.5   1.8  34132  289.10 0854.97
2009/04/23 12:17:58.7     133   -401   -102    423    436 161.5 -13.6  34140  289.22 0854.97
2009/04/23 12:17:58.8     139   -302    -82    333    344 155.2 -13.9  34142  289.26 0854.97
2009/04/23 12:17:58.9      64   -292   -168    300    343 167.5 -36.0  34142  289.28 0854.97
2009/04/23 12:17:59.0      23   -217    -66    219    229 173.8 -16.8  34138  289.19 0854.97
2009/04/23 12:17:59.1     -49   -234    -47    240    245 191.8 -11.1  34132  289.10 0854.97
2009/04/23 12:17:59.2     -23   -220    -52    222    229 186.0 -13.3  34140  289.24 0854.97
2009/04/23 12:17:59.3     -59   -331     22    337    338 190.2   3.8  34136  289.16 0854.97
2009/04/23 12:17:59.4      28   -367    -27    369    370 175.5  -4.2  34136  289.18 0854.97
2009/04/23 12:17:59.5     -20   -361     38    362    365 183.2   6.1  34138  289.20 0854.97
2009/04/23 12:17:59.6     -62   -377      0    383    384 189.3   0.1  34136  289.16 0854.97
2009/04/23 12:17:59.7     -92   -307     47    321    325 196.7   8.5  34132  289.10 0854.97
2009/04/23 12:17:59.8    -114   -334     51    354    358 198.9   8.2  34142  289.25 0854.97
2009/04/23 12:17:59.9     -77   -399     72    407    414 191.0  10.1  34140  289.24 0854.97
2009/04/23 12:18:00.0     -80   -378     90    387    398 192.0  13.1  34138  289.21 0854.97
2009/04/23 12:18:00.1      23   -355     92    356    368 176.3  14.5  34142  289.25 0854.97
2009/04/23 12:18:00.2     119   -359      5    379    380 161.6   0.8  34136  289.16 0854.97
2009/04/23 12:18:00.3     234   -420    -60    481    485 150.9  -7.2  34136  289.18 0854.97
2009/04/23 12:18:00.4     116   -516   -142    529    548 167.3 -15.1  34138  289.19 0854.98
2009/04/23 12:18:00.5      21   -385      0    386    387 176.9   0.0  34138  289.20 0854.98
2009/04/23 12:18:00.6       5   -347    -93    348    361 179.1 -15.0  34138  289.20 0854.98
2009/04/23 12:18:00.7    -119   -398    -75    416    423 196.6 -10.3  34128  289.02 0854.98
2009/04/23 12:18:00.8    -294   -439    -41    529    531 213.9  -4.5  34142  289.26 0854.98
2009/04/23 12:18:00.9     -65   -466    161    471    498 188.0  18.9  34140  289.23 0854.98
2009/04/23 12:18:01.0    -204   -398     22    448    449 207.2   2.9  34142  289.27 0854.98
2009/04/23 12:18:01.1    -105   -334     98    351    365 197.4  15.7  34142  289.28 0854.98
2009/04/23 12:18:01.2    -110   -311    200    330    385 199.5  34.2  34150  289.40 0854.98
2009/04/23 12:18:01.3      -8   -421    187    422    461 181.2  25.3  34142  289.26 0854.98
2009/04/23 12:18:01.4     -39   -394    169    396    430 185.7  24.6  34136  289.16 0854.98
2009/04/23 12:18:01.5     -17   -323    185    324    373 183.2  32.1  34136  289.16 0854.98
2009/04/23 12:18:01.6       0   -302    -20    303    304 179.9  -3.9  34136  289.15 0854.98
2009/04/23 12:18:01.7      90   -442     69    452    458 168.4   8.7  34130  289.07 0854.98
2009/04/23 12:18:01.8      26   -431     34    432    434 176.5   4.6  34130  289.07 0854.98
2009/04/23 12:18:01.9      40   -422     -3    424    425 174.6  -0.5  34130  289.05 0854.98
2009/04/23 12:18:02.0      89   -430      5    440    441 168.2   0.7  34128  289.02 0854.98
2009/04/23 12:18:02.1     127   -462     35    480    482 164.6   4.2  34130  289.06 0854.98
2009/04/23 12:18:02.2     108   -441     54    455    459 166.2   6.9  34130  289.05 0854.98
2009/04/23 12:18:02.3      99   -418     45    430    433 166.6   6.0  34128  289.04 0854.98
2009/04/23 12:18:02.4      80   -416     50    424    427 169.0   6.8  34128  289.02 0854.98
2009/04/23 12:18:02.5      53   -405    100    409    422 172.4  13.8  34128  289.02 0854.98
2009/04/23 12:18:02.6     123   -336    140    359    385 159.8  22.4  34128  289.03 0854.98
2009/04/23 12:18:02.7     140   -335    145    364    391 157.3  23.0  34126  289.01 0854.98
2009/04/23 12:18:02.8      68   -393    212    399    451 170.1  30.2  34130  289.05 0854.98
2009/04/23 12:18:02.9      86   -388    141    398    423 167.4  19.6  34128  289.04 0854.98
2009/04/23 12:18:03.0      17   -437    105    438    451 177.8  13.6  34132  289.11 0854.98
2009/04/23 12:18:03.1       3   -396    122    397    416 179.5  17.2  34132  289.09 0854.98
2009/04/23 12:18:03.2      69   -400    143    407    432 170.1  19.4  34130  289.05 0854.98
2009/04/23 12:18:03.3      30   -330    149    332    363 174.7  25.8  34130  289.06 0854.98
2009/04/23 12:18:03.4      55   -396     77    400    408 172.0  11.0  34136  289.17 0854.98
2009/04/23 12:18:03.5     138   -369     56    395    400 159.5   8.1  34132  289.11 0854.98
2009/04/23 12:18:03.6     144   -412    126    437    455 160.7  16.1  34128  289.04 0854.98
2009/04/23 12:18:03.7     149   -347    121    378    398 156.7  17.8  34130  289.08 0854.98
2009/04/23 12:18:03.8     220   -220    110    312    332 135.0  19.5  34140  289.22 0854.98
2009/04/23 12:18:03.9     228   -176    101    289    307 127.7  19.4  34136  289.17 0854.98
2009/04/23 12:18:04.0     202   -119     41    235    239 120.6  10.0  34134  289.12 0854.98
2009/04/23 12:18:04.1     149    -78     77    169    185 117.5  26.4  34134  289.14 0854.98
2009/04/23 12:18:04.2      95    -49     90    108    140 117.5  43.8  34138  289.19 0854.98
2009/04/23 12:18:04.3       6    -31     84     32     89 168.5  78.6  34142  289.28 0854.98
2009/04/23 12:18:04.4      -9   -121    159    122    200 184.5  58.5  34136  289.18 0854.97
2009/04/23 12:18:04.5      33    -97    160    103    190 160.8  64.6  34136  289.16 0854.97
2009/04/23 12:18:04.6       4    -56    147     57    157 175.6  77.8  34136  289.18 0854.97
2009/04/23 12:18:04.7      -5    -80     88     81    119 184.0  52.2  34138  289.21 0854.97
2009/04/23 12:18:04.8       3    -49    108     50    119 175.6  73.1  34138  289.19 0854.97
2009/04/23 12:18:04.9      15     -9    135     18    136 122.4  90.0  34134  289.14 0854.97
2009/04/23 12:18:05.0      32   -118     90    123    152 164.9  39.7  34136  289.16 0854.97
2009/04/23 12:18:05.1      16   -150    125    151    196 173.8  43.8  34134  289.13 0854.97
2009/04/23 12:18:05.2     -58   -221    125    229    260 194.7  31.3  34134  289.14 0854.97
2009/04/23 12:18:05.3     -58   -257     92    264    279 192.9  20.0  34134  289.14 0854.97
2009/04/23 12:18:05.4     -82   -226     40    241    245 200.1   9.5  34138  289.19 0854.96
2009/04/23 12:18:05.5     -96   -197    109    220    245 206.1  28.2  34132  289.10 0854.96
2009/04/23 12:18:05.6     -59   -258    103    265    284 192.9  22.3  34134  289.14 0854.96
2009/04/23 12:18:05.7     -83   -211     76    227    240 201.6  18.5  34132  289.09 0854.96
2009/04/23 12:18:05.8    -141   -254     55    291    297 209.2  10.8  34140  289.22 0854.96
2009/04/23 12:18:05.9     -83   -242     30    257    259 199.1   6.9  34132  289.10 0854.96
2009/04/23 12:18:06.0     -60   -198     73    208    221 196.9  19.4  34132  289.11 0854.96
2009/04/23 12:18:06.1     -67   -143    -17    159    160 205.3  -6.2  34134  289.13 0854.96
2009/04/23 12:18:06.2     -11   -144     12    145    146 184.5   4.9  34130  289.08 0854.96
2009/04/23 12:18:06.3       0    -99     35    100    107 180.0  19.4  34132  289.09 0854.96
2009/04/23 12:18:06.4      33   -112      0    117    118 163.5   0.2  34132  289.09 0854.96
2009/04/23 12:18:06.5     -27   -182    -37    185    189 188.5 -11.5  34132  289.09 0854.96
2009/04/23 12:18:06.6     -35   -178    -23    182    184 191.1  -7.2  34130  289.08 0854.96
2009/04/23 12:18:06.7     -17   -199     47    200    206 185.1  13.2  34134  289.13 0854.96
2009/04/23 12:18:06.8      -7   -233    -13    234    235 181.8  -3.3  34132  289.10 0854.96
2009/04/23 12:18:06.9     -32   -233     10    236    237 187.8   2.5  34132  289.09 0854.96
2009/04/23 12:18:07.0     -38   -223     25    227    229 189.7   6.5  34132  289.11 0854.96
2009/04/23 12:18:07.1     -16   -217     18    218    219 184.4   4.9  34132  289.11 0854.96
2009/04/23 12:18:07.2     -22   -225     29    227    229 185.6   7.5  34132  289.09 0854.96
2009/04/23 12:18:07.3       8   -286      8    287    288 178.2   1.7  34134  289.12 0854.96
2009/04/23 12:18:07.4      36   -253      8    256    257 171.8   1.8  34132  289.10 0854.96
2009/04/23 12:18:07.5      31   -259     24    261    263 173.1   5.4  34134  289.14 0854.96
2009/04/23 12:18:07.6      27   -290     -6    292    293 174.7  -1.3  34134  289.12 0854.96
2009/04/23 12:18:07.7     -27   -207   -102    209    232 187.6 -31.8  34128  289.04 0854.96
2009/04/23 12:18:07.8    -124     93     -6    155    156 306.9  -2.2  34126  289.01 0854.96
2009/04/23 12:18:07.9     -67   -171     98    184    208 201.6  30.3  34132  289.11 0854.96
2009/04/23 12:18:08.0     -49   -149     37    157    162 198.3  13.2  34130  289.06 0854.96
2009/04/23 12:18:08.1     -98   -245     43    265    269 201.8   9.3  34126  289.00 0854.96
2009/04/23 12:18:08.2    -450   -440   -182    630    656 225.7 -16.2  34120  288.91 0854.96
2009/04/23 12:18:08.3    -270   -221   -221    350    413 230.7 -39.9  34110  288.71 0854.96
2009/04/23 12:18:08.4    -535    -36   -143    537    556 266.1 -15.0  34122  288.92 0854.96
2009/04/23 12:18:08.5    -732   -194   -196    758    783 255.1 -14.5  34120  288.88 0854.96
2009/04/23 12:18:08.6    -711   -190   -241    736    775 255.0 -18.2  34120  288.90 0854.96
2009/04/23 12:18:08.7    -576    -57   -183    579    608 264.3 -17.5  34122  288.93 0854.96
2009/04/23 12:18:08.8    -711    -84   -255    717    762 263.2 -19.6  34132  289.09 0854.96
2009/04/23 12:18:08.9    -726    -85    197    731    758 263.3  15.1  34130  289.06 0854.96
2009/04/23 12:18:09.0    -611   -169     27    635    636 254.5   2.5  34120  288.89 0854.96
2009/04/23 12:18:09.1    -397   -185     -2    439    440 245.0  -0.3  34126  288.99 0854.96
2009/04/23 12:18:09.2    -287   -322     28    432    433 221.7   3.8  34144  289.31 0854.96
2009/04/23 12:18:09.3    -297     -4     35    298    301 269.2   6.9  34136  289.17 0854.96
2009/04/23 12:18:09.4    -289   -153    121    328    349 242.1  21.0  34136  289.18 0854.96
2009/04/23 12:18:09.5    -142   -242   -160    281    323 210.5 -36.5  34138  289.19 0854.96
2009/04/23 12:18:09.6     -41   -106   -128    114    171 201.4 -58.1  34138  289.21 0854.96
2009/04/23 12:18:09.7      -9   -117   -122    118    169 184.5 -55.1  34136  289.16 0854.96
2009/04/23 12:18:09.8     -10   -122   -124    123    174 184.9 -54.1  34136  289.16 0854.96
2009/04/23 12:18:09.9      16   -264   -100    265    283 176.5 -25.9  34134  289.14 0854.96
2009/04/23 12:18:10.0    -397   -398   -150    563    583 224.9 -15.0  34114  288.80 0854.96
2009/04/23 12:18:10.1    -436   -540   -206    695    724 218.9 -21.2  34116  288.81 0854.96
2009/04/23 12:18:10.2    -474   -602   -217    767    797 218.2 -20.5  34108  288.69 0854.96
2009/04/23 12:18:10.3    -472   -585   -269    752    799 218.9 -19.7  34108  288.69 0854.96
2009/04/23 12:18:10.4    -487   -530   -211    721    751 222.6 -21.1  34108  288.68 0854.96
2009/04/23 12:18:10.5    -536   -539   -258    761    803 224.8 -23.8  34112  288.75 0854.96
2009/04/23 12:18:10.6    -441   -652   -238    788    823 214.1 -21.7  34132  289.09 0854.96
2009/04/23 12:18:10.7    -260   -727   -177    773    794 199.7 -12.9  34128  289.02 0854.96
2009/04/23 12:18:10.8    -279   -631   -182    691    715 203.9 -14.8  34122  288.93 0854.96
2009/04/23 12:18:10.9    -459   -482   -133    666    680 223.6 -11.3  34120  288.88 0854.96
2009/04/23 12:18:11.0    -429   -400      0    587    588 227.0   0.0  34128  289.02 0854.96
2009/04/23 12:18:11.1    -458   -478   -170    663    685 223.8 -14.4  34114  288.78 0854.96
2009/04/23 12:18:11.2    -444   -484    -71    657    661 222.5  -6.2  34114  288.80 0854.96
2009/04/23 12:18:11.3    -376   -399    -85    549    556 223.3  -8.9  34108  288.69 0854.96
2009/04/23 12:18:11.4    -323   -384   -182    503    534 220.1 -25.2  34120  288.89 0854.95
2009/04/23 12:18:11.5    -295   -304    -53    424    428 224.1  -7.2  34118  288.85 0854.95
2009/04/23 12:18:11.6    -221   -244     61    330    336 222.2  10.6  34126  288.99 0854.95
2009/04/23 12:18:11.7      20   -259    -10    260    261 175.5  -2.2  34122  288.93 0854.95
2009/04/23 12:18:11.8     -45   -389      1    392    393 186.7   0.2  34126  288.99 0854.95
2009/04/23 12:18:11.9     -17   -160    103    161    191 186.2  35.6  34126  289.01 0854.95
2009/04/23 12:18:12.0      43   -167    101    173    200 165.5  33.1  34124  288.97 0854.95
2009/04/23 12:18:12.1     -16   -361     80    362    371 182.6  12.6  34126  288.98 0854.95
2009/04/23 12:18:12.2    -265   -404    -31    484    485 213.3  -3.7  34130  289.05 0854.95
2009/04/23 12:18:12.3    -243   -385     79    456    463 212.3   9.9  34128  289.04 0854.95
2009/04/23 12:18:12.4    -183   -415    164    454    482 203.9  20.7  34130  289.05 0854.95
2009/04/23 12:18:12.5     -50   -508    238    511    563 185.7  26.7  34118  288.87 0854.95
2009/04/23 12:18:12.6    -245   -525    -68    580    584 205.0  -6.7  34122  288.92 0854.95
2009/04/23 12:18:12.7    -326   -439    -76    547    553 216.6  -7.9  34112  288.77 0854.95
2009/04/23 12:18:12.8    -283   -386    -35    479    481 216.3  -4.2  34112  288.76 0854.95
2009/04/23 12:18:12.9    -247   -319    -56    404    408 217.7  -7.9  34112  288.75 0854.95
2009/04/23 12:18:13.0    -270   -296    -86    401    411 222.4 -12.2  34110  288.73 0854.95
2009/04/23 12:18:13.1    -199   -355   -124    408    427 209.3 -17.0  34116  288.83 0854.95
2009/04/23 12:18:13.2    -179   -319   -114    366    383 209.3 -22.3  34116  288.82 0854.95
2009/04/23 12:18:13.3    -175   -285   -102    335    350 211.6 -22.1  34120  288.88 0854.95
2009/04/23 12:18:13.4    -197   -324    -89    380    391 211.3 -13.3  34116  288.84 0854.95
2009/04/23 12:18:13.5    -107   -320    -94    338    350 198.6 -20.2  34122  288.93 0854.95
2009/04/23 12:18:13.6     -95   -348   -102    361    375 195.3 -20.4  34122  288.94 0854.95
2009/04/23 12:18:13.7    -101   -415   -120    428    445 193.7 -15.7  34120  288.89 0854.95
2009/04/23 12:18:13.8     -40   -576   -117    578    590 184.0 -11.5  34120  288.90 0854.95
2009/04/23 12:18:13.9      68   -489      1    494    495 172.0   0.2  34124  288.95 0854.95
2009/04/23 12:18:14.0       7   -493    -84    494    502 179.1  -9.7  34130  289.05 0854.95
2009/04/23 12:18:14.1     -10   -530   -131    531    547 181.1 -13.9  34124  288.96 0854.95
2009/04/23 12:18:14.2     -38   -508   -182    510    542 184.4 -19.7  34116  288.84 0854.95
2009/04/23 12:18:14.3     -16   -415    -98    416    428 182.2 -13.3  34120  288.89 0854.95
2009/04/23 12:18:14.4    -116   -442   -101    458    470 194.8 -12.5  34124  288.95 0854.95
2009/04/23 12:18:14.5     -77   -516   -187    522    554 188.5 -24.8  34116  288.84 0854.95
2009/04/23 12:18:14.6     -64   -525   -201    529    565 187.0 -26.4  34116  288.84 0854.95
2009/04/23 12:18:14.7     -10   -505   -161    506    530 181.2 -22.6  34120  288.89 0854.95
2009/04/23 12:18:14.8     138   -399    -64    423    428 160.8  -8.7  34126  289.00 0854.95
2009/04/23 12:18:14.9     159   -500    -49    525    528 162.3  -5.4  34124  288.97 0854.95
2009/04/23 12:18:15.0     174   -490    -24    521    522 160.4  -2.7  34118  288.87 0854.95
2009/04/23 12:18:15.1     139   -465     89    486    495 163.4  10.4  34116  288.83 0854.95
2009/04/23 12:18:15.2     177   -466     62    499    503 159.2   7.1  34124  288.96 0854.95
2009/04/23 12:18:15.3     160   -494     14    520    521 162.0   1.6  34126  289.01 0854.95
2009/04/23 12:18:15.4     153   -323    156    358    390 154.6  25.1  34124  288.96 0854.94
2009/04/23 12:18:15.5     183   -330    155    378    408 151.0  23.5  34130  289.06 0854.94
2009/04/23 12:18:15.6      56   -450     36    454    456 172.9   4.6  34122  288.92 0854.94
2009/04/23 12:18:15.7      93   -507     39    516    518 169.5   4.4  34124  288.95 0854.94
2009/04/23 12:18:15.8      53   -566     14    569    570 174.6   1.5  34126  288.98 0854.94
2009/04/23 12:18:15.9      93   -528     64    537    541 170.0   6.9  34120  288.91 0854.94
2009/04/23 12:18:16.1      51   -555     38    558    560 174.7   3.9  34120  288.91 0854.94
2009/04/23 12:18:16.2      68   -542     29    547    548 172.8   3.1  34116  288.84 0854.94
2009/04/23 12:18:16.2      -4   -571      7    572    573 180.5   0.7  34124  288.95 0854.94
2009/04/23 12:18:16.3       1   -569    -41    570    572 179.9  -4.1  34124  288.95 0854.94
2009/04/23 12:18:16.4     -17   -566    -75    567    572 181.8  -7.6  34124  288.97 0854.94
2009/04/23 12:18:16.5      79   -511    -65    518    523 171.2  -7.2  34122  288.94 0854.94
2009/04/23 12:18:16.6      72   -546    -21    551    552 172.4  -2.2  34124  288.96 0854.94
2009/04/23 12:18:16.7       8   -607    -66    608    612 179.2  -6.3  34124  288.95 0854.94
2009/04/23 12:18:16.8      49   -630    -58    633    636 175.5  -5.3  34126  289.01 0854.94
2009/04/23 12:18:16.9      40   -568    -31    570    571 175.9  -3.1  34130  289.07 0854.94
2009/04/23 12:18:17.1     -18   -558    -44    559    561 181.9  -4.6  34130  289.06 0854.94
2009/04/23 12:18:17.1     -71   -563    -51    568    571 187.2  -5.2  34130  289.08 0854.94
2009/04/23 12:18:17.2    -102   -567    -72    577    582 190.2  -7.2  34130  289.05 0854.94
2009/04/23 12:18:17.3       4   -536    -69    537    542 179.5  -7.3  34124  288.97 0854.94
2009/04/23 12:18:17.4       0   -576    -74    577    582 180.0  -7.3  34124  288.97 0854.93
2009/04/23 12:18:17.5     -50   -516    -72    519    524 185.6  -7.9  34116  288.82 0854.93
2009/04/23 12:18:17.6    -107   -536   -139    547    565 191.4 -14.3  34116  288.84 0854.93
2009/04/23 12:18:17.7     -86   -525   -153    533    555 189.3 -16.1  34118  288.87 0854.93
2009/04/23 12:18:17.8     -80   -550   -125    556    570 188.4 -12.7  34120  288.89 0854.93
2009/04/23 12:18:17.9     -89   -541   -120    549    563 189.3 -12.4  34116  288.84 0854.93
2009/04/23 12:18:18.0     -59   -538   -104    542    553 186.3 -10.9  34120  288.89 0854.93
2009/04/23 12:18:18.1     -58   -508   -132    512    529 186.6 -14.5  34120  288.89 0854.93
2009/04/23 12:18:18.3     -75   -508   -121    514    529 188.5 -13.3  34116  288.84 0854.93
2009/04/23 12:18:18.3     -75   -506    -61    512    516 188.5  -6.8  34122  288.93 0854.93
2009/04/23 12:18:18.4    -103   -551    -34    561    563 190.6  -3.5  34124  288.96 0854.93
2009/04/23 12:18:18.5    -150   -541    -86    562    569 195.6  -8.7  34124  288.96 0854.93
2009/04/23 12:18:18.6     -50   -467   -129    470    488 186.2 -15.4  34120  288.88 0854.93
2009/04/23 12:18:18.7     -43   -464   -115    467    482 185.3 -13.9  34120  288.90 0854.93
2009/04/23 12:18:18.8     -13   -445   -150    446    471 181.8 -18.7  34120  288.90 0854.93
2009/04/23 12:18:18.9     -73   -454   -113    460    474 189.2 -13.9  34120  288.88 0854.93
2009/04/23 12:18:19.1    -162   -504   -106    530    541 197.8 -11.3  34124  288.96 0854.93
2009/04/23 12:18:19.2     -95   -471   -116    481    495 191.5 -13.6  34116  288.84 0854.93
2009/04/23 12:18:19.3     -35   -406   -133    408    429 185.0 -23.2  34126  288.99 0854.93
2009/04/23 12:18:19.4    -145   -400   -252    426    494 200.0 -37.8  34128  289.03 0854.93
2009/04/23 12:18:19.5       7   -475   -164    476    504 179.1 -19.1  34120  288.91 0854.93
2009/04/23 12:18:19.6       0   -563   -167    564    588 180.0 -21.2  34118  288.86 0854.93
2009/04/23 12:18:19.7     113   -519   -203    532    569 167.7 -26.4  34120  288.89 0854.93
2009/04/23 12:18:19.8     195   -578   -206    611    644 161.3 -23.7  34120  288.89 0854.93
2009/04/23 12:18:19.9     308   -576   -220    654    690 151.9 -23.7  34122  288.94 0854.93
2009/04/23 12:18:20.0     218   -621   -215    659    694 160.6 -18.1  34126  289.00 0854.93
2009/04/23 12:18:20.1     211   -599   -203    636    668 160.6 -17.7  34122  288.92 0854.93
2009/04/23 12:18:20.2     133   -659   -348    673    757 168.5 -33.8  34124  288.95 0854.93
2009/04/23 12:18:20.3     155   -729   -277    746    795 168.0 -25.8  34124  288.97 0854.93
2009/04/23 12:18:20.4     180   -644   -249    669    713 164.3 -25.8  34124  288.96 0854.93
2009/04/23 12:18:20.5     270   -525   -226    591    632 152.8 -26.4  34124  288.96 0854.93
2009/04/23 12:18:20.6     344   -457    -80    573    579 143.0  -8.0  34122  288.93 0854.93
2009/04/23 12:18:20.7     257   -460   -161    527    552 150.8 -17.0  34108  288.69 0854.93
2009/04/23 12:18:20.8     289   -478    -11    559    560 148.8  -1.2  34120  288.91 0854.93
2009/04/23 12:18:20.9     237   -470    165    527    553 153.2  17.4  34122  288.94 0854.93
2009/04/23 12:18:21.0     199   -378    254    428    497 152.3  33.5  34120  288.88 0854.93
2009/04/23 12:18:21.1     298   -370     36    476    478 141.2   4.3  34124  288.95 0854.93
2009/04/23 12:18:21.2     270   -447    -55    523    526 148.8  -6.1  34124  288.96 0854.93
2009/04/23 12:18:21.3     210   -341   -129    401    422 148.4 -17.9  34126  288.99 0854.93
2009/04/23 12:18:21.4     195   -502    -78    539    545 158.7  -8.3  34120  288.89 0854.93
2009/04/23 12:18:21.5     153   -328     41    363    366 155.0   6.6  34120  288.88 0854.94
2009/04/23 12:18:21.6     135   -135    110    192    221 135.0  32.7  34122  288.94 0854.94
2009/04/23 12:18:21.7      -2    -64    180     65    191 181.8  79.9  34126  289.01 0854.94
2009/04/23 12:18:21.8       3   -173    207    174    270 178.9  56.1  34126  289.00 0854.94
2009/04/23 12:18:21.9      33   -144    165    148    221 166.7  53.5  34126  288.99 0854.94
2009/04/23 12:18:22.0       0   -240    184    241    303 180.0  41.4  34132  289.09 0854.94
2009/04/23 12:18:22.1      31   -217    142    220    261 171.9  35.6  34136  289.15 0854.94
2009/04/23 12:18:22.2      60   -154    121    166    205 158.6  39.7  34134  289.14 0854.94
2009/04/23 12:18:22.3     120   -135    102    181    207 138.3  31.9  34134  289.13 0854.94
2009/04/23 12:18:22.4       1    -82    142     83    164 179.1  67.0  34136  289.16 0854.94
2009/04/23 12:18:22.5      15   -168    220    169    277 174.7  58.5  34132  289.09 0854.94
2009/04/23 12:18:22.6       4   -183    223    184    289 178.6  56.4  34136  289.15 0854.94
2009/04/23 12:18:22.7      23   -114    152    117    191 168.4  58.5  34136  289.16 0854.94
2009/04/23 12:18:22.8      34   -167    169    171    240 168.4  50.0  34132  289.11 0854.94
2009/04/23 12:18:22.9      12    -33    159     36    163 160.0  87.5  34136  289.18 0854.94
2009/04/23 12:18:23.0      17     40    105     44    113  23.6  76.6  34138  289.19 0854.94
2009/04/23 12:18:23.1      85    -49    122     99    157 119.8  56.9  34138  289.21 0854.94
2009/04/23 12:18:23.2      82    -64    136    105    171 128.2  58.5  34140  289.23 0854.94
2009/04/23 12:18:23.3      23    -23    127     33    131 135.0  85.4  34138  289.19 0854.94
2009/04/23 12:18:23.4     -26   -171    130    174    217 188.9  40.4  34134  289.13 0854.94
2009/04/23 12:18:23.5     -16   -149     88    150    173 186.3  33.5  34132  289.11 0854.96
2009/04/23 12:18:23.6     -55   -106     48    120    129 207.6  23.0  34130  289.06 0854.96
2009/04/23 12:18:23.7     -35     -7     51     36     62 258.5  60.6  34136  289.16 0854.96
2009/04/23 12:18:23.8     -20    -60    115     64    131 198.5  68.8  34136  289.16 0854.96
2009/04/23 12:18:23.9       7   -132     72    133    151 176.9  31.3  34134  289.14 0854.96
2009/04/23 12:18:24.0      53   -153     87    163    184 160.8  30.6  34124  288.96 0854.96
2009/04/23 12:18:24.1     112   -133    144    174    225 139.9  43.8  34126  289.01 0854.96
2009/04/23 12:18:24.2     101   -161    109    191    219 147.9  32.1  34130  289.08 0854.96
2009/04/23 12:18:24.3     132   -261    206    293    358 153.0  38.6  34132  289.10 0854.96
2009/04/23 12:18:24.4     103   -190    180    217    281 151.5  43.8  34130  289.05 0854.96
2009/04/23 12:18:24.5      -5   -207    201    208    289 181.6  49.0  34132  289.09 0854.96
2009/04/23 12:18:24.6      53   -250     50    256    261 168.0  11.1  34132  289.09 0854.96
2009/04/23 12:18:24.7    -113   -221     -9    249    250 207.1  -2.2  34134  289.12 0854.96
2009/04/23 12:18:24.8    -102   -184    -37    211    215 209.0 -10.1  34134  289.13 0854.96
2009/04/23 12:18:24.9    -164   -114      3    201    202 235.1   1.0  34134  289.13 0854.96
2009/04/23 12:18:25.0    -113   -102    -35    153    157 227.8 -12.9  34132  289.11 0854.96
2009/04/23 12:18:25.1     -86    -49     12    100    101 240.2   7.1  34134  289.13 0854.96
2009/04/23 12:18:25.2       0    -55     24     56     60 179.1  24.1  34134  289.14 0854.96
2009/04/23 12:18:25.3       0    -21     54     22     58 180.9  78.2  34134  289.13 0854.96
2009/04/23 12:18:25.4     -16     18     45     25     51 318.6  68.8  34136  289.18 0854.96
2009/04/23 12:18:25.5     -31     32     42     45     61 315.8  47.9  34138  289.21 0854.96
2009/04/23 12:18:25.6     -36     92     94     99    136 338.6  49.0  34140  289.23 0854.96
2009/04/23 12:18:25.7     -54    101    120    115    166 331.5  51.2  34140  289.23 0854.96
2009/04/23 12:18:25.8      26     78     95     83    126  18.7  54.3  34142  289.26 0854.96
2009/04/23 12:18:25.9       0     30     61     31     68 359.1  71.9  34144  289.30 0854.96
2009/04/23 12:18:26.0     -89      5     29     90     95 273.5  17.9  34142  289.28 0854.96
2009/04/23 12:18:26.1    -132      0     60    133    145 270.0  25.7  34140  289.23 0854.96
2009/04/23 12:18:26.2    -114     -3     63    115    131 268.3  31.3  34140  289.24 0854.96
2009/04/23 12:18:26.3    -150    -88     52    174    182 239.6  16.8  34140  289.24 0854.96
2009/04/23 12:18:26.4      19     31     -1     37     38  32.5  -2.2  34146  289.33 0854.96
2009/04/23 12:18:26.5       0     99     20    100    103 359.5  11.6  34144  289.30 0854.96
2009/04/23 12:18:26.6     -35     66     -9     75     76 331.9  -7.3  34150  289.40 0854.96
2009/04/23 12:18:26.7       6     93     54     94    108   4.0  32.4  34148  289.38 0854.96
2009/04/23 12:18:26.8     -31     94     28     99    103 341.7  15.8  34148  289.38 0854.96
2009/04/23 12:18:26.9     -24     -9      9     26     28 248.3  19.2  34146  289.33 0854.96
2009/04/23 12:18:27.0     -18    -58     39     61     72 197.8  35.6  34152  289.45 0854.96
2009/04/23 12:18:27.1      23     45     90     51    103  27.2  68.8  34158  289.55 0854.96
2009/04/23 12:18:27.2      41      0     90     42     99  90.0  73.1  34160  289.57 0854.96
2009/04/23 12:18:27.3     -28    -40     82     50     96 215.2  65.1  34172  289.79 0854.96
2009/04/23 12:18:27.4     -21    -54    106     59    121 201.8  68.8  34166  289.67 0854.96
2009/04/23 12:18:27.5     -50    -14     85     52     99 254.1  65.7  34164  289.65 0854.96
2009/04/23 12:18:27.6     -84   -139     21    163    165 211.0   7.5  34160  289.57 0854.96
2009/04/23 12:18:27.7    -123   -134     67    182    193 222.5  20.7  34158  289.55 0854.96
2009/04/23 12:18:27.8    -219   -139     34    260    263 237.6   7.5  34164  289.64 0854.96
2009/04/23 12:18:27.9    -103    -94     46    140    148 227.8  18.4  34160  289.57 0854.96
2009/04/23 12:18:28.0     -91   -116     -8    148    149 218.3  -3.2  34148  289.38 0854.96
2009/04/23 12:18:28.1     -25   -148    -54    151    161 189.7 -19.7  34144  289.30 0854.96
2009/04/23 12:18:28.2     -88   -117    -34    147    152 217.0 -13.3  34150  289.41 0854.96
2009/04/23 12:18:28.3      13    -79    -14     81     83 170.7  -9.8  34152  289.45 0854.96
2009/04/23 12:18:28.4      70    -23    114     74    135 108.6  64.6  34150  289.41 0854.96
2009/04/23 12:18:28.5      80    -86     42    118    125 137.2  20.0  34144  289.31 0854.95
2009/04/23 12:18:28.6     133   -105     60    170    180 128.4  20.0  34146  289.33 0854.95
2009/04/23 12:18:28.7     120   -123     37    172    176 135.7  12.2  34150  289.41 0854.95
2009/04/23 12:18:28.8      74   -174     35    190    194 157.1  10.6  34146  289.35 0854.95
2009/04/23 12:18:28.9     139   -146    140    202    245 136.3  38.0  34144  289.30 0854.95
2009/04/23 12:18:29.0     172   -116    182    208    276 124.0  45.8  34142  289.27 0854.95
2009/04/23 12:18:29.1      60   -293    199    300    360 168.4  36.6  34142  289.26 0854.95
2009/04/23 12:18:29.2     129   -284    216    313    380 155.5  37.8  34142  289.28 0854.95
2009/04/23 12:18:29.3     141   -231    224    271    351 148.6  43.7  34144  289.29 0854.95
2009/04/23 12:18:29.4     107   -288    240    308    390 159.5  41.9  34142  289.28 0854.95
2009/04/23 12:18:29.5      18   -219    231    220    319 175.1  51.5  34146  289.32 0854.95
2009/04/23 12:18:29.6      16   -209    191    210    283 175.5  47.0  34142  289.25 0854.95
2009/04/23 12:18:29.7      86   -206    175    224    284 157.3  42.0  34142  289.27 0854.95
2009/04/23 12:18:29.8      36   -169    193    173    259 167.7  53.5  34140  289.24 0854.95
2009/04/23 12:18:29.9      10   -241    161    242    290 177.4  36.5  34136  289.15 0854.95
2009/04/23 12:18:30.0      34   -364    217    366    425 174.6  33.5  34138  289.19 0854.95
2009/04/23 12:18:30.1      45   -387    223    390    449 173.3  32.3  34138  289.19 0854.95
2009/04/23 12:18:30.2     -72   -385    285    392    484 190.6  39.7  34138  289.21 0854.95
2009/04/23 12:18:30.3     147   -416    205    442    487 160.5  26.6  34134  289.13 0854.95
2009/04/23 12:18:30.4     174   -333    211    376    431 152.4  31.6  34138  289.19 0854.95
2009/04/23 12:18:30.5      72   -335    165    343    380 167.7  27.3  34130  289.08 0854.96
2009/04/23 12:18:30.6      50   -360    109    364    380 172.0  16.7  34132  289.10 0854.96
2009/04/23 12:18:30.7      20   -267    160    268    312 175.5  33.7  34136  289.17 0854.96
2009/04/23 12:18:30.8       3   -245    112    246    270 179.3  26.2  34140  289.24 0854.96
2009/04/23 12:18:30.9      13   -301     -6    302    303 177.5  -1.2  34140  289.24 0854.96
2009/04/23 12:18:31.0      98   -270    -63    288    295 160.0 -12.4  34138  289.19 0854.96
2009/04/23 12:18:31.1     119   -276    -67    301    309 156.6 -12.6  34138  289.19 0854.96
2009/04/23 12:18:31.2     119   -336    -65    357    363 160.4 -10.4  34138  289.20 0854.96
2009/04/23 12:18:31.3      76   -420    -29    427    428 169.7  -3.9  34142  289.26 0854.96
2009/04/23 12:18:31.4      92   -437     -9    447    448 168.0  -1.3  34136  289.17 0854.96
2009/04/23 12:18:31.5      37   -442     73    444    451 175.1   9.4  34138  289.21 0854.96
2009/04/23 12:18:31.6       5   -347     -2    348    349 179.1  -0.4  34142  289.25 0854.96
2009/04/23 12:18:31.7      23   -357    -14    358    359 176.3  -2.2  34138  289.21 0854.96
2009/04/23 12:18:31.8      61   -358    -42    364    367 170.2  -6.6  34140  289.23 0854.96
2009/04/23 12:18:31.9      70   -417    -30    423    425 170.4  -4.1  34136  289.17 0854.96
2009/04/23 12:18:32.0      80   -422     21    430    431 169.2   2.9  34130  289.05 0854.96
2009/04/23 12:18:32.1      33   -427    -16    429    430 175.5  -2.2  34132  289.09 0854.96
2009/04/23 12:18:32.2     124   -478    -35    494    496 165.4  -4.1  34126  289.01 0854.96
2009/04/23 12:18:32.3      -6   -421     -6    422    423 180.9  -0.9  34130  289.05 0854.96
2009/04/23 12:18:32.4      49   -454    -10    457    458 173.8  -1.3  34128  289.04 0854.96
2009/04/23 12:18:32.5      64   -447    -27    452    453 171.8  -3.5  34124  288.97 0854.94
2009/04/23 12:18:32.6      38   -433    -63    435    440 174.9  -8.3  34138  289.21 0854.94
2009/04/23 12:18:32.7      53   -383    -91    387    398 172.0 -13.3  34136  289.15 0854.94
2009/04/23 12:18:32.8      29   -418   -138    420    443 176.0 -18.2  34140  289.22 0854.94
2009/04/23 12:18:32.9      19   -451   -106    452    465 177.5 -13.3  34126  289.00 0854.94
2009/04/23 12:18:33.0      -3   -405   -112    406    422 180.5 -15.4  34126  288.99 0854.94
2009/04/23 12:18:33.1     -37   -350    -87    353    364 186.1 -13.9  34130  289.06 0854.94
2009/04/23 12:18:33.2    -122   -379   -119    399    417 197.8 -16.7  34132  289.11 0854.94
2009/04/23 12:18:33.3    -139   -399    -93    423    434 199.3 -12.4  34136  289.16 0854.94
2009/04/23 12:18:33.4    -222   -387   -150    447    471 209.9 -23.7  34128  289.02 0854.94
2009/04/23 12:18:33.5    -241   -378   -157    449    475 212.6 -24.4  34124  288.95 0854.94
2009/04/23 12:18:33.6    -199   -319   -137    377    401 212.0 -25.2  34130  289.06 0854.94
2009/04/23 12:18:33.7    -111   -357   -134    374    398 197.3 -19.8  34120  288.89 0854.94
2009/04/23 12:18:33.8    -252   -397    -42    471    473 212.4  -5.2  34130  289.05 0854.94
2009/04/23 12:18:33.9    -100   -356    -74    370    378 195.8 -11.3  34126  288.99 0854.94
2009/04/23 12:18:34.0    -111   -316   -112    336    354 199.4 -23.6  34124  288.96 0854.94
2009/04/23 12:18:34.1     -67   -208    -78    219    232 198.0 -24.6  34124  288.96 0854.94
2009/04/23 12:18:34.2    -158   -149    -71    218    229 226.8 -23.6  34134  289.14 0854.94
2009/04/23 12:18:34.3    -133    -98    -54    166    174 233.6 -23.8  34134  289.13 0854.94
2009/04/23 12:18:34.4     -81   -123    -76    148    166 213.4 -33.5  34132  289.09 0854.94
2009/04/23 12:18:34.5     -75   -144    -45    163    169 207.6 -20.2  34136  289.16 0854.95
2009/04/23 12:18:34.6    -114   -170    -73    205    218 213.8 -19.7  34134  289.13 0854.95
2009/04/23 12:18:34.7     -83   -158    -77    179    194 207.9 -29.3  34132  289.09 0854.95
2009/04/23 12:18:34.8     -56   -212    -77    220    233 194.9 -23.8  34130  289.08 0854.95
2009/04/23 12:18:34.9     -75   -159    -82    176    194 205.4 -31.5  34130  289.08 0854.95
2009/04/23 12:18:35.0     -63    -62    -99     89    133 225.4 -57.7  34134  289.13 0854.95
2009/04/23 12:18:35.1    -137    -27   -142    140    199 258.6 -54.5  34130  289.08 0854.95
2009/04/23 12:18:35.2     -77    -15   -143     79    163 258.5 -72.9  34134  289.14 0854.95
2009/04/23 12:18:35.3      24     31   -112     40    118  37.8 -84.1  34132  289.11 0854.95
2009/04/23 12:18:35.4      25    -51    -76     57     95 153.7 -63.8  34130  289.06 0854.95
2009/04/23 12:18:35.5      24     31    -85     40     93  37.8 -77.5  34132  289.11 0854.95
2009/04/23 12:18:35.6     -93    -25   -110     97    146 254.5 -58.6  34130  289.06 0854.95
2009/04/23 12:18:35.7    -146     -6    -46    147    154 267.4 -22.8  34132  289.11 0854.95
2009/04/23 12:18:35.8     -88     -3    -47     89    100 267.9 -34.7  34134  289.14 0854.95
2009/04/23 12:18:35.9     -70    -14    -88     72    113 258.6 -60.8  34136  289.18 0854.95
2009/04/23 12:18:36.0     -74    -74    -69    105    125 225.1 -40.4  34138  289.19 0854.95
2009/04/23 12:18:36.1    -134   -165    -27    213    215 219.2  -7.3  34134  289.13 0854.95
2009/04/23 12:18:36.2    -130   -175    -10    219    220 216.5  -2.8  34130  289.08 0854.95
2009/04/23 12:18:36.3     -82   -158     11    179    180 207.4   3.6  34132  289.11 0854.95
2009/04/23 12:18:36.4    -141   -130     19    192    194 227.3   5.9  34132  289.09 0854.95
2009/04/23 12:18:36.5    -112   -146      5    185    186 217.4   1.8  34132  289.09 0854.94
2009/04/23 12:18:36.6     -86    -98    -70    131    148 221.4 -35.2  34134  289.14 0854.94
2009/04/23 12:18:36.7    -100    -99    -50    141    150 225.2 -19.7  34136  289.16 0854.94
2009/04/23 12:18:36.8    -102   -137    -85    171    190 216.7 -32.6  34134  289.13 0854.94
2009/04/23 12:18:36.9     -36   -171    -84    175    194 192.0 -31.7  34130  289.06 0854.94
2009/04/23 12:18:37.0     -66   -130    -56    146    156 207.1 -26.4  34132  289.11 0854.94
2009/04/23 12:18:37.1     -97   -117    -36    153    158 219.7 -13.4  34136  289.18 0854.94
2009/04/23 12:18:37.2    -110    -90    -60    143    155 230.5 -28.0  34138  289.19 0854.94
2009/04/23 12:18:37.3    -175    -87    -65    196    206 243.6 -23.8  34138  289.19 0854.94
2009/04/23 12:18:37.4    -229    -32    -38    232    236 261.9  -9.3  34132  289.09 0854.94
2009/04/23 12:18:37.5    -117   -129     28    175    178 222.1   9.3  34132  289.11 0854.94
2009/04/23 12:18:37.6    -138   -109      0    177    178 231.6   0.0  34132  289.09 0854.94
2009/04/23 12:18:37.7    -159    -35    -24    163    165 257.4  -8.6  34126  288.99 0854.94
2009/04/23 12:18:37.8     -56   -111     44    125    133 206.7  19.4  34126  289.01 0854.94
2009/04/23 12:18:37.9      26    -90    -11     94     95 163.5  -7.2  34130  289.06 0854.94
2009/04/23 12:18:38.0     -22    -93    -80     96    124 193.8 -48.2  34130  289.08 0854.94
2009/04/23 12:18:38.1     -99   -193    -88    217    234 207.2 -27.4  34124  288.97 0854.94
2009/04/23 12:18:38.2     -95   -209    -95    230    248 204.5 -28.0  34124  288.95 0854.94
2009/04/23 12:18:38.3     -64   -275    -89    283    297 193.1 -17.6  34124  288.95 0854.94
2009/04/23 12:18:38.4    -106   -259    -90    280    294 202.3 -23.0  34118  288.87 0854.94
2009/04/23 12:18:38.5    -166   -188    -70    251    260 221.4 -20.0  34130  289.05 0854.93
2009/04/23 12:18:38.6    -129   -236   -131    270    300 208.7 -31.8  34122  288.93 0854.93
2009/04/23 12:18:38.7    -208   -204   -105    292    310 225.6 -24.8  34130  289.05 0854.93
2009/04/23 12:18:38.8    -217   -156    -35    268    271 234.3  -7.5  34132  289.10 0854.93
2009/04/23 12:18:38.9    -120   -176    -62    214    222 214.3 -21.2  34128  289.02 0854.93
2009/04/23 12:18:39.0    -119   -186    -70    221    232 212.6 -17.6  34122  288.94 0854.93
2009/04/23 12:18:39.1     -64   -190    -60    201    209 198.7 -21.7  34122  288.94 0854.93
2009/04/23 12:18:39.2     -53   -198   -123    206    239 195.1 -37.9  34120  288.91 0854.93
2009/04/23 12:18:39.3     -65   -190    -85    201    218 198.9 -28.5  34120  288.91 0854.93
2009/04/23 12:18:39.4     -69   -179   -145    192    240 201.2 -45.1  34118  288.87 0854.93
2009/04/23 12:18:39.5     -48   -188   -107    195    222 194.5 -35.8  34122  288.92 0854.93
2009/04/23 12:18:39.6     -51   -200   -134    207    246 194.5 -40.1  34124  288.97 0854.93
2009/04/23 12:18:39.7     -56   -167    -87    177    197 198.5 -32.4  34120  288.89 0854.93
2009/04/23 12:18:39.8     -16   -214    -85    215    231 184.5 -27.4  34120  288.91 0854.93
2009/04/23 12:18:39.9      59   -248   -113    255    278 166.6 -29.7  34122  288.93 0854.93
2009/04/23 12:18:40.0      57   -231   -108    239    262 166.0 -30.3  34120  288.90 0854.93
2009/04/23 12:18:40.1      34   -290    -83    292    303 173.3 -20.4  34122  288.92 0854.93
2009/04/23 12:18:40.2      37   -247    -84    250    263 171.3 -23.3  34126  288.98 0854.93
2009/04/23 12:18:40.3      97   -231   -116    251    276 157.2 -30.8  34124  288.97 0854.93
2009/04/23 12:18:40.4      85   -196   -100    214    236 156.4 -31.4  34122  288.94 0854.93
2009/04/23 12:18:40.5      80   -200    -83    216    231 158.2 -26.4  34120  288.91 0854.94
2009/04/23 12:18:40.6      40   -172    -32    177    180 166.9 -10.5  34122  288.92 0854.94
2009/04/23 12:18:40.7      62   -137    -42    151    157 155.5 -15.8  34124  288.97 0854.94
2009/04/23 12:18:40.8      52   -131    -77    142    161 158.2 -35.2  34120  288.91 0854.94
2009/04/23 12:18:40.9      43   -144    -61    151    162 163.1 -27.4  34120  288.89 0854.94
2009/04/23 12:18:41.0      28   -139    -49    142    151 168.5 -19.1  34124  288.96 0854.94
2009/04/23 12:18:41.1      33   -129    -49    134    142 165.3 -25.3  34124  288.97 0854.94
2009/04/23 12:18:41.2      23    -96    -72     99    122 166.2 -44.1  34124  288.97 0854.94
2009/04/23 12:18:41.3      29    -87    -67     92    113 161.5 -44.1  34124  288.97 0854.94
2009/04/23 12:18:41.4      60    -50    -36     79     86 129.5 -30.1  34122  288.94 0854.94
2009/04/23 12:18:41.5      61    -39    -24     73     76 122.4 -23.8  34126  288.99 0854.94
2009/04/23 12:18:41.6      41    -41    -15     58     60 135.0 -14.5  34126  289.01 0854.94
2009/04/23 12:18:41.7      36    -39    -17     54     56 137.7 -23.8  34124  288.97 0854.94
2009/04/23 12:18:41.8      61    -36      0     71     72 120.7  -0.3  34124  288.96 0854.94
2009/04/23 12:18:41.9      41    -38     -2     57     58 133.1  -2.2  34122  288.94 0854.94
2009/04/23 12:18:42.0      29    -52    -12     60     62 150.1 -11.5  34126  288.99 0854.94
2009/04/23 12:18:42.1       8    -47    -38     48     61 169.3 -48.1  34124  288.97 0854.94
2009/04/23 12:18:42.2       2    -37    -49     38     62 175.5 -62.9  34126  289.01 0854.94
2009/04/23 12:18:42.3      69    -32    -51     77     92 115.3 -40.9  34126  288.99 0854.94
2009/04/23 12:18:42.4     132     -4     -5    133    134  92.1  -2.2  34126  289.01 0854.94
2009/04/23 12:18:42.5     200   -117     17    233    234 120.4   4.4  34124  288.95 0854.94
2009/04/23 12:18:42.6      76   -191    -43    206    211 158.2 -11.9  34124  288.97 0854.94
2009/04/23 12:18:42.7      -2   -187    -43    188    193 180.7 -12.9  34126  288.99 0854.94
2009/04/23 12:18:42.8     -22   -188      9    190    191 186.9   2.9  34124  288.96 0854.94
2009/04/23 12:18:42.9     -43   -157    -48    163    170 195.4 -16.4  34126  288.99 0854.94
2009/04/23 12:18:43.0     -11   -244    -84    245    260 182.6 -19.1  34128  289.02 0854.94
2009/04/23 12:18:43.1      50   -248    -60    254    262 168.5 -13.4  34126  288.98 0854.94
2009/04/23 12:18:43.2      74   -258    -83    269    282 164.0 -17.3  34128  289.02 0854.94
2009/04/23 12:18:43.3      47   -286   -114    290    311 170.7 -26.9  34128  289.03 0854.94
2009/04/23 12:18:43.4     -31   -288    -98    290    307 186.3 -18.7  34126  289.00 0854.94
2009/04/23 12:18:43.5      72   -306   -101    315    330 166.7 -23.0  34130  289.05 0854.94
2009/04/23 12:18:43.6     134   -310   -107    338    355 156.6 -17.6  34128  289.03 0854.94
2009/04/23 12:18:43.7     163   -274     13    319    320 149.3   2.5  34126  289.00 0854.94
2009/04/23 12:18:43.8      79   -302     35    313    316 165.3   6.5  34122  288.93 0854.94
2009/04/23 12:18:43.9      -1   -198    -47    199    205 180.5 -13.4  34130  289.06 0854.94
2009/04/23 12:18:44.0      74   -307     61    316    322 166.4  11.0  34126  288.98 0854.94
2009/04/23 12:18:44.1     241   -276    -68    367    374 138.9 -10.5  34120  288.89 0854.94
2009/04/23 12:18:44.2      94   -323    -40    337    340 163.7  -6.8  34130  289.08 0854.94
2009/04/23 12:18:44.3     135   -307    -40    336    339 156.2  -6.9  34128  289.04 0854.94
2009/04/23 12:18:44.4      72   -389     50    396    400 169.4   7.2  34122  288.94 0854.94
2009/04/23 12:18:44.5     117   -322    119    343    364 160.0  19.2  34126  288.99 0854.94
2009/04/23 12:18:44.6      85   -230    136    246    281 159.7  31.4  34124  288.97 0854.94
2009/04/23 12:18:44.7      91   -188    165    209    266 154.1  42.7  34130  289.05 0854.94
2009/04/23 12:18:44.8      72   -218    140    230    269 161.7  34.4  34126  289.00 0854.94
2009/04/23 12:18:44.9      35   -170    178    174    248 168.2  50.4  34128  289.02 0854.94
2009/04/23 12:18:45.0     -57   -179    148    189    240 197.8  42.0  34124  288.96 0854.94
2009/04/23 12:18:45.1    -103   -149    129    182    223 214.5  38.8  34124  288.97 0854.94
2009/04/23 12:18:45.2    -155   -182    150    240    283 220.5  35.5  34124  288.95 0854.94
2009/04/23 12:18:45.3    -162   -202    143    260    296 218.7  31.3  34128  289.02 0854.94
2009/04/23 12:18:45.4     -87   -199    154    218    266 203.6  38.6  34120  288.90 0854.94
2009/04/23 12:18:45.6     -85   -209    196    226    299 202.3  45.6  34124  288.95 0854.94
2009/04/23 12:18:45.6     -87   -261    189    276    334 198.5  37.7  34126  289.00 0854.94
2009/04/23 12:18:45.8    -131   -276    185    306    357 205.5  34.0  34126  288.99 0854.94
2009/04/23 12:18:45.9    -163   -265    118    312    333 211.6  21.8  34130  289.05 0854.94
2009/04/23 12:18:46.0    -150   -266     88    306    319 209.4  16.0  34130  289.07 0854.94
2009/04/23 12:18:46.1    -121   -276     32    302    304 203.7   6.1  34130  289.05 0854.94
2009/04/23 12:18:46.2    -100   -277     63    295    302 200.0  12.2  34128  289.03 0854.94
2009/04/23 12:18:46.3    -107   -292     37    312    315 200.1   6.9  34126  288.98 0854.94
2009/04/23 12:18:46.4    -145   -243      8    284    285 210.8   1.7  34140  289.22 0854.94
2009/04/23 12:18:46.5    -127   -263     -1    293    294 205.9  -0.3  34138  289.19 0854.94
2009/04/23 12:18:46.6    -154   -260     14    303    304 210.7   2.8  34138  289.19 0854.96
2009/04/23 12:18:46.7    -137   -257     54    292    297 208.0  10.6  34136  289.17 0854.96
2009/04/23 12:18:46.8    -160   -312      3    351    352 207.2   0.5  34124  288.96 0854.96
2009/04/23 12:18:46.9    -164   -279      5    324    325 210.5   0.9  34128  289.02 0854.96
2009/04/23 12:18:47.0    -129   -345      9    369    370 200.5   1.5  34126  288.98 0854.96
2009/04/23 12:18:47.1    -141   -221     51    263    269 212.5  11.1  34122  288.93 0854.96
2009/04/23 12:18:47.2    -357   -140    -89    384    395 248.5 -13.1  34116  288.82 0854.96
2009/04/23 12:18:47.3    -347   -225   -124    414    432 237.0 -21.6  34124  288.95 0854.96
2009/04/23 12:18:47.4    -206   -240      8    317    318 220.6   1.5  34128  289.02 0854.96
2009/04/23 12:18:47.5    -141   -220     11    262    263 212.7   2.5  34128  289.03 0854.96
2009/04/23 12:18:47.6    -186   -179     50    259    264 226.2  11.1  34128  289.03 0854.96
2009/04/23 12:18:47.7    -136   -156    -43    208    213 221.0 -11.9  34126  288.99 0854.96
2009/04/23 12:18:47.8     -86    -92     15    127    128 223.2   7.1  34128  289.04 0854.96
2009/04/23 12:18:47.9    -244    -96    -14    263    264 248.5  -3.1  34126  289.00 0854.96
2009/04/23 12:18:48.0    -262    -95    -10    279    280 250.0  -2.2  34128  289.03 0854.96
2009/04/23 12:18:48.1    -225   -106     25    249    251 244.8   5.9  34132  289.09 0854.96
2009/04/23 12:18:48.2    -404   -165    -97    437    448 247.7 -12.6  34126  288.99 0854.96
2009/04/23 12:18:48.3    -440   -272   -103    518    529 238.2 -11.3  34132  289.09 0854.96
2009/04/23 12:18:48.4    -198   -352    -96    405    417 209.4 -13.4  34124  288.97 0854.96
2009/04/23 12:18:48.5    -124   -376    -87    397    407 198.3 -12.4  34128  289.02 0854.96
2009/04/23 12:18:48.6    -155   -399    -94    429    440 201.3 -12.4  34132  289.11 0854.96
2009/04/23 12:18:48.7    -317   -348   -148    471    494 222.3 -17.5  34138  289.20 0854.96
2009/04/23 12:18:48.8    -272   -270   -113    384    401 225.3 -16.4  34138  289.20 0854.96
2009/04/23 12:18:48.9    -166   -280    -60    326    332 210.8 -10.5  34140  289.23 0854.96
2009/04/23 12:18:49.0    -287   -124      0    313    314 246.5   0.1  34144  289.29 0854.96
2009/04/23 12:18:49.1    -202    -71     29    215    217 250.7   7.8  34142  289.26 0854.96
2009/04/23 12:18:49.2    -194   -184    -34    268    271 226.4  -7.3  34140  289.24 0854.96
2009/04/23 12:18:49.3    -201   -176   -133    268    299 228.7 -32.6  34136  289.15 0854.96
2009/04/23 12:18:49.4    -101   -266     18    285    286 200.9   3.8  34136  289.15 0854.96
2009/04/23 12:18:49.5    -169   -146    -49    224    230 229.3 -12.4  34130  289.08 0854.96
2009/04/23 12:18:49.6    -108   -164    -78    197    211 213.4 -27.2  34134  289.14 0854.92
2009/04/23 12:18:49.7    -113   -117     16    163    164 223.9   5.7  34138  289.21 0854.92
2009/04/23 12:18:49.8    -117   -114      1    164    165 225.8   0.5  34144  289.31 0854.92
2009/04/23 12:18:49.9    -150    -50    -23    159    161 251.4  -8.2  34138  289.21 0854.92
2009/04/23 12:18:50.0    -387   -181    -16    428    429 244.9  -2.2  34136  289.16 0854.92
2009/04/23 12:18:50.1    -461   -305    -92    554    562 236.5  -9.5  34122  288.92 0854.92
2009/04/23 12:18:50.2    -441   -317   -117    544    557 234.3 -12.2  34126  289.01 0854.92
2009/04/23 12:18:50.3    -517   -312    -64    604    608 238.9  -6.1  34120  288.90 0854.92
2009/04/23 12:18:50.4    -524   -329    -79    619    625 237.9  -7.3  34120  288.89 0854.92
2009/04/23 12:18:50.5    -503   -218   -142    549    568 246.6 -14.5  34124  288.96 0854.92
2009/04/23 12:18:50.6    -451   -151   -133    476    495 251.4 -15.7  34126  289.01 0854.92
2009/04/23 12:18:50.7    -411   -161    -72    442    449 248.6  -9.3  34128  289.02 0854.92
2009/04/23 12:18:50.8    -467   -190    -55    505    509 247.8  -6.3  34136  289.15 0854.92
2009/04/23 12:18:50.9    -531   -169    -53    558    561 252.3  -5.5  34148  289.38 0854.92
2009/04/23 12:18:51.0    -477   -157   -171    503    532 251.7 -18.8  34130  289.07 0854.92
2009/04/23 12:18:51.1    -461   -267   -150    533    554 239.9 -15.8  34128  289.04 0854.92
2009/04/23 12:18:51.2    -328   -122   -174    351    391 249.5 -32.6  34144  289.30 0854.92
2009/04/23 12:18:51.3    -333   -178   -222    378    438 241.8 -37.8  34144  289.29 0854.92
2009/04/23 12:18:51.4    -352   -102   -196    367    416 253.8 -34.7  34138  289.21 0854.92
2009/04/23 12:18:51.5    -356    112    -17    374    375 287.5  -2.6  34136  289.16 0854.92
2009/04/23 12:18:51.6    -291     18     79    292    303 273.7  15.2  34134  289.14 0854.89
2009/04/23 12:18:51.7    -293    -64     25    301    303 257.6   4.9  34140  289.22 0854.89
2009/04/23 12:18:51.8    -394    -23    -47    395    398 266.6  -6.8  34134  289.13 0854.89
2009/04/23 12:18:51.9    -250    -24     92    252    268 264.3  20.9  34134  289.14 0854.89
2009/04/23 12:18:52.0    -282     23     18    283    284 274.8   3.8  34140  289.24 0854.89
2009/04/23 12:18:52.1    -286     49     48    291    296 279.9   9.5  34140  289.24 0854.89
2009/04/23 12:18:52.2    -275      0    102    276    294 270.0  21.0  34142  289.25 0854.89
2009/04/23 12:18:52.3    -241    -18     30    242    244 265.7   7.2  34140  289.22 0854.89
2009/04/23 12:18:52.4    -164     14     18    165    167 275.2   6.5  34138  289.21 0854.89
2009/04/23 12:18:52.5    -224   -114     -1    252    253 242.9  -0.3  34138  289.19 0854.89
2009/04/23 12:18:52.6    -187   -135     26    231    233 234.1   6.5  34134  289.14 0854.89
2009/04/23 12:18:52.7    -199     74     57    213    221 290.6  15.2  34142  289.28 0854.89
2009/04/23 12:18:52.8    -213     36     22    217    219 279.7   5.9  34140  289.24 0854.89
2009/04/23 12:18:52.9    -226    126    -14    259    260 299.1  -3.1  34144  289.31 0854.89
2009/04/23 12:18:53.0    -202     67    -32    213    216 288.4  -8.6  34142  289.28 0854.89
2009/04/23 12:18:53.1    -182    -11     -3    183    184 266.5  -1.1  34142  289.26 0854.89
2009/04/23 12:18:53.2    -110   -101     69    150    165 227.3  26.4  34138  289.19 0854.89
2009/04/23 12:18:53.3      20     -8     43     22     48 111.7  70.8  34142  289.28 0854.89
2009/04/23 12:18:53.4      -5     66     85     67    108 355.5  56.9  34148  289.38 0854.89
2009/04/23 12:18:53.5     -20     48    116     53    127 337.3  74.0  34146  289.35 0854.89
2009/04/23 12:18:53.6       7     50     83     51     97   8.9  64.7  34142  289.26 0854.88
2009/04/23 12:18:53.7       4     39    100     40    107   6.2  77.1  34144  289.31 0854.88
2009/04/23 12:18:53.8     -27    106     55    110    122 345.3  28.2  34138  289.21 0854.88
2009/04/23 12:18:53.9       0     79     66     80    103   0.0  43.8  34142  289.26 0854.88
2009/04/23 12:18:54.0      33     35     71     49     86  43.2  62.1  34138  289.19 0854.88
2009/04/23 12:18:54.1      54    111     79    124    147  25.9  35.5  34138  289.21 0854.88
2009/04/23 12:18:54.2     138    -51    151    148    211 110.4  50.4  34132  289.11 0854.88
2009/04/23 12:18:54.3     106    -74    125    130    180 125.1  49.0  34138  289.19 0854.88
2009/04/23 12:18:54.4     160    -53     45    169    175 108.4  15.0  34136  289.18 0854.88
2009/04/23 12:18:54.5     172   -109      9    204    205 122.5   2.8  34134  289.14 0854.88
2009/04/23 12:18:54.6     112   -256    -25    280    282 156.4  -5.2  34138  289.20 0854.88
2009/04/23 12:18:54.7     236   -107    -23    260    262 114.4  -5.2  34134  289.12 0854.88
2009/04/23 12:18:54.8     283   -134     24    314    315 115.4   4.4  34130  289.07 0854.88
2009/04/23 12:18:54.9     235   -144     75    276    287 121.6  15.2  34132  289.10 0854.88
2009/04/23 12:18:55.0     262   -105     66    283    291 111.8  13.2  34138  289.19 0854.88
2009/04/23 12:18:55.1     152   -127     38    199    203 129.8  10.8  34138  289.21 0854.88
2009/04/23 12:18:55.2     137   -139    -43    196    201 135.3 -12.4  34138  289.21 0854.88
2009/04/23 12:18:55.3     246   -156    -41    292    295 122.4  -8.0  34136  289.17 0854.88
2009/04/23 12:18:55.4     208    -29    -63    211    221  98.0 -16.8  34136  289.18 0854.88
2009/04/23 12:18:55.5     205   -148     -9    254    255 125.9  -2.2  34142  289.27 0854.88
2009/04/23 12:18:55.6     248    -50    -85    254    269 101.5 -18.6  34140  289.24 0854.88
2009/04/23 12:18:55.7      94    -72    -10    119    120 127.3  -5.2  34142  289.26 0854.88
2009/04/23 12:18:55.8     139    -87    -49    165    173 122.0 -16.8  34146  289.33 0854.88
2009/04/23 12:18:55.9      74   -149    115    167    202 153.5  37.6  34144  289.30 0854.88
2009/04/23 12:18:56.0     -33   -247    146    250    289 187.8  33.1  34144  289.29 0854.88
2009/04/23 12:18:56.1      13   -294    155    295    333 177.4  30.0  34144  289.29 0854.88
2009/04/23 12:18:56.2     -42   -298     81    302    313 188.0  15.0  34144  289.29 0854.88
2009/04/23 12:18:56.3     -94   -278     69    294    302 198.7  13.2  34146  289.34 0854.88
2009/04/23 12:18:56.4    -135   -219     31    258    260 211.6   6.9  34140  289.22 0854.88
2009/04/23 12:18:56.5    -331   -237      3    408    409 234.4   0.5  34140  289.24 0854.88
2009/04/23 12:18:56.6    -227   -222    -63    318    325 225.6 -11.3  34138  289.20 0854.88
2009/04/23 12:18:56.7    -225   -121    -63    256    264 241.6 -13.9  34140  289.24 0854.88
2009/04/23 12:18:56.8    -177   -146    -29    230    232 230.4  -7.2  34144  289.30 0854.88
2009/04/23 12:18:56.9    -111   -202    -75    231    243 208.9 -18.1  34140  289.24 0854.88
2009/04/23 12:18:57.0     -71   -215    -49    227    233 198.3 -12.2  34140  289.24 0854.88
2009/04/23 12:18:57.1     -66   -180    -45    192    198 200.3 -13.2  34140  289.23 0854.88
2009/04/23 12:18:57.2    -101   -213      9    236    237 205.5   2.3  34140  289.22 0854.88
2009/04/23 12:18:57.3     -29   -237    -13    239    240 187.1  -3.2  34136  289.17 0854.88
2009/04/23 12:18:57.4      52   -369    -20    373    374 171.9  -3.1  34132  289.11 0854.88
2009/04/23 12:18:57.5     141   -379    -46    405    408 159.5  -6.6  34134  289.12 0854.88
2009/04/23 12:18:57.6     106   -387    -80    402    410 164.7 -11.3  34134  289.12 0854.92
2009/04/23 12:18:57.7     109   -392    -44    407    410 164.4  -6.2  34132  289.09 0854.92
2009/04/23 12:18:57.8      71   -363    -57    370    375 168.9  -8.9  34130  289.08 0854.92
2009/04/23 12:18:57.9      18   -353   -112    354    372 177.0 -17.5  34134  289.13 0854.92
2009/04/23 12:18:58.0      89   -342    -72    354    362 165.3 -11.5  34132  289.10 0854.92
2009/04/23 12:18:58.1      16   -306    -61    307    314 176.9 -11.3  34132  289.10 0854.92
2009/04/23 12:18:58.2      69   -338    -19    346    347 168.3  -3.2  34130  289.08 0854.92
2009/04/23 12:18:58.3     105   -299   -112    318    338 160.6 -19.5  34130  289.08 0854.92
2009/04/23 12:18:58.4      38   -310    -85    313    324 172.9 -20.0  34134  289.12 0854.92
2009/04/23 12:18:58.5      40   -261    -91    265    281 171.1 -18.9  34138  289.20 0854.92
2009/04/23 12:18:58.6      43   -272   -124    276    302 170.9 -30.6  34132  289.10 0854.92
2009/04/23 12:18:58.7       0   -219   -205    220    300 180.2 -52.3  34138  289.20 0854.92
2009/04/23 12:18:58.8      83   -251   -183    265    322 161.5 -42.3  34142  289.25 0854.92
2009/04/23 12:18:58.9     105   -249   -140    271    305 157.2 -33.7  34140  289.24 0854.92
2009/04/23 12:18:59.0      84   -193    -35    211    214 156.4  -9.6  34128  289.02 0854.92
2009/04/23 12:18:59.1     -18   -217     -4    218    219 184.9  -1.1  34132  289.11 0854.92
2009/04/23 12:18:59.2       7   -200    -17    201    202 177.8  -4.9  34136  289.18 0854.92
2009/04/23 12:18:59.3      -9   -196    -24    197    199 182.7  -7.2  34138  289.21 0854.92
2009/04/23 12:18:59.4      75   -184     -3    199    200 157.7  -1.1  34134  289.14 0854.92
2009/04/23 12:18:59.5      93   -242    -28    260    262 158.8  -6.2  34136  289.17 0854.92
2009/04/23 12:18:59.6      51   -273     38    278    281 169.3   7.8  34138  289.20 0854.92
2009/04/23 12:18:59.7      31   -282     41    284    287 173.7   8.2  34136  289.15 0854.92
2009/04/23 12:18:59.8      26   -276      8    278    279 174.6   1.7  34134  289.14 0854.92
2009/04/23 12:18:59.9      19   -310      8    311    312 176.4   1.6  34136  289.15 0854.92
2009/04/23 12:19:00.0      18   -364     -7    365    366 177.1  -1.2  34132  289.11 0854.92
2009/04/23 12:19:00.1      37   -338    -23    341    342 173.7  -3.9  34134  289.13 0854.92
2009/04/23 12:19:00.2      40   -400     29    403    405 174.2   4.2  34136  289.16 0854.92
2009/04/23 12:19:00.3      63   -422     -1    427    428 171.5  -0.3  34132  289.11 0854.92
2009/04/23 12:19:00.4      20   -436    -14    437    438 177.3  -1.9  34132  289.11 0854.92
2009/04/23 12:19:00.5      39   -424    -22    427    428 174.7  -3.0  34136  289.16 0854.92
2009/04/23 12:19:00.6      48   -395    -21    398    399 173.0  -3.1  34132  289.11 0854.92
2009/04/23 12:19:00.7      62   -364    -40    370    373 170.3  -6.3  34136  289.15 0854.92
2009/04/23 12:19:00.8      25   -324    -88    326    338 175.5 -15.2  34134  289.13 0854.92
2009/04/23 12:19:00.9      22   -284    -86    285    297 175.5 -21.7  34134  289.14 0854.92
2009/04/23 12:19:01.0     -11   -248    -69    249    259 182.7 -15.5  34134  289.14 0854.92
2009/04/23 12:19:01.1      23   -301     14    302    303 175.6   2.8  34134  289.14 0854.92
2009/04/23 12:19:01.2       7   -389     73    390    397 178.9  10.6  34138  289.21 0854.92
2009/04/23 12:19:01.3       7   -416     65    417    423 179.0   8.9  34142  289.27 0854.92
2009/04/23 12:19:01.4     -18   -403     -1    404    405 182.7  -0.2  34142  289.26 0854.92
2009/04/23 12:19:01.5     -84   -403    -90    412    422 191.9 -12.4  34134  289.14 0854.92
2009/04/23 12:19:01.6     -31   -398    -69    400    407 184.5  -9.8  34128  289.04 0854.93
2009/04/23 12:19:01.7       0   -384    -49    385    389 180.0  -7.3  34132  289.10 0854.93
2009/04/23 12:19:01.8     -74   -546   -100    552    561 187.8 -10.3  34124  288.97 0854.93
2009/04/23 12:19:01.9     -61   -561   -139    565    582 186.2 -13.9  34124  288.95 0854.93
2009/04/23 12:19:02.0    -123   -577   -158    591    612 192.1 -15.1  34132  289.10 0854.93
2009/04/23 12:19:02.1    -111   -522   -166    534    559 192.0 -22.3  34126  288.99 0854.93
2009/04/23 12:19:02.2    -127   -454    -98    472    483 195.7 -11.8  34142  289.25 0854.93
2009/04/23 12:19:02.3    -129   -440   -100    459    471 196.4 -12.4  34140  289.22 0854.93
2009/04/23 12:19:02.4    -176   -451    186    485    519 201.3  22.0  34136  289.15 0854.93
2009/04/23 12:19:02.5    -184   -407     89    447    456 204.4  11.3  34138  289.19 0854.93
2009/04/23 12:19:02.6    -147   -417    -24    443    444 199.4  -3.1  34132  289.09 0854.93
2009/04/23 12:19:02.7    -133   -451    -14    471    472 196.5  -1.8  34136  289.15 0854.93
2009/04/23 12:19:02.8     -87   -426    -13    436    437 191.6  -1.8  34140  289.22 0854.93
2009/04/23 12:19:02.9    -123   -493    -15    509    510 194.1  -1.7  34138  289.20 0854.93
2009/04/23 12:19:03.0    -170   -428    -93    461    471 201.7 -11.5  34138  289.20 0854.93
2009/04/23 12:19:03.1     -32   -369   -115    371    388 185.1 -22.3  34136  289.18 0854.93
2009/04/23 12:19:03.2     -21   -332   -183    333    379 183.7 -35.8  34142  289.26 0854.93
2009/04/23 12:19:03.3      47   -310   -164    314    354 171.3 -34.0  34140  289.23 0854.93
2009/04/23 12:19:03.4      83   -426   -106    435    448 168.9 -13.8  34150  289.39 0854.93
2009/04/23 12:19:03.5      76   -461   -102    468    480 170.6 -12.3  34146  289.35 0854.93
2009/04/23 12:19:03.6     133   -489    -65    507    512 164.7  -7.3  34140  289.23 0854.90
2009/04/23 12:19:03.7      80   -497    -58    504    508 170.8  -6.6  34136  289.15 0854.90
2009/04/23 12:19:03.8     133   -509    -67    527    532 165.3  -7.3  34134  289.13 0854.90
2009/04/23 12:19:03.9     149   -458    -26    482    483 162.0  -3.1  34138  289.20 0854.90
2009/04/23 12:19:04.0     157   -502    -35    527    529 162.6  -3.9  34138  289.21 0854.90
2009/04/23 12:19:04.1     149   -465    -76    489    496 162.2  -8.9  34140  289.23 0854.90
2009/04/23 12:19:04.2     142   -406    -59    431    436 160.7  -7.9  34138  289.19 0854.90
2009/04/23 12:19:04.3     217   -395    -98    451    462 151.1 -12.3  34126  289.00 0854.90
2009/04/23 12:19:04.4     121   -335   -107    357    372 160.1 -21.6  34128  289.03 0854.90
2009/04/23 12:19:04.5      40   -336     -6    339    340 173.1  -1.2  34132  289.11 0854.90
2009/04/23 12:19:04.6     108   -355    -42    372    375 163.1  -6.5  34128  289.03 0854.90
2009/04/23 12:19:04.7      98   -312    -86    328    340 162.5 -14.7  34126  288.98 0854.90
2009/04/23 12:19:04.8      82   -272   -121    285    309 163.1 -28.7  34126  289.00 0854.90
2009/04/23 12:19:04.9     213   -335   -109    398    413 147.5 -15.4  34128  289.02 0854.90
2009/04/23 12:19:05.0     159   -374    -58    407    412 157.0  -8.1  34130  289.07 0854.90
2009/04/23 12:19:05.1      87   -434     87    443    452 168.6  11.1  34136  289.17 0854.90
2009/04/23 12:19:05.2      29   -445    -42    446    449 176.2  -5.5  34136  289.17 0854.90
2009/04/23 12:19:05.3     -77   -401     -7    409    410 190.9  -1.1  34136  289.17 0854.90
2009/04/23 12:19:05.4      39   -508   -126    510    526 175.5 -13.9  34132  289.11 0854.90
2009/04/23 12:19:05.5     174   -524   -181    553    581 161.6 -23.3  34126  288.98 0854.90
2009/04/23 12:19:05.6      82   -529   -176    536    564 171.1 -23.5  34106  288.67 0854.90
2009/04/23 12:19:05.7      92   -489   -109    498    510 169.3 -12.4  34124  288.96 0854.90
2009/04/23 12:19:05.8      96   -441   -150    452    476 167.6 -23.6  34126  288.98 0854.90
2009/04/23 12:19:05.9      93   -413    -12    424    425 167.2  -1.7  34130  289.05 0854.90
2009/04/23 12:19:06.0     192   -371     94    418    429 152.6  12.8  34134  289.14 0854.90
2009/04/23 12:19:06.1     131   -358     74    382    390 159.8  11.0  34134  289.13 0854.90
2009/04/23 12:19:06.2     141   -338     78    367    376 157.4  12.1  34128  289.03 0854.90
2009/04/23 12:19:06.3     125   -349     -3    371    372 160.2  -0.6  34128  289.03 0854.90
2009/04/23 12:19:06.4      50   -300     19    305    306 170.4   3.6  34126  288.98 0854.90
2009/04/23 12:19:06.5       0   -295     75    296    306 179.9  14.3  34126  288.98 0854.90
2009/04/23 12:19:06.6     -28   -294     67    296    304 185.6  12.9  34130  289.07 0854.90
2009/04/23 12:19:06.7     -66   -281     98    289    306 193.3  18.8  34130  289.05 0854.90
2009/04/23 12:19:06.8    -151   -236    116    281    304 212.6  23.6  34132  289.09 0854.90
2009/04/23 12:19:06.9     -75   -244     14    256    257 197.2   3.1  34128  289.02 0854.90
2009/04/23 12:19:07.0     -92   -351    -93    363    375 194.8 -14.5  34126  288.99 0854.90
2009/04/23 12:19:07.1     -92   -380    -29    392    394 193.7  -4.2  34128  289.04 0854.90
2009/04/23 12:19:07.2    -108   -331    -21    349    350 198.1  -3.5  34128  289.04 0854.90
2009/04/23 12:19:07.3     -49   -293   -115    298    319 189.6 -26.4  34128  289.02 0854.90
2009/04/23 12:19:07.4     -58   -209    -80    217    231 195.6 -25.3  34124  288.97 0854.90
2009/04/23 12:19:07.5    -145   -181    -91    232    249 218.7 -26.7  34130  289.07 0854.90
2009/04/23 12:19:07.6    -131   -158    -79    206    220 219.7 -26.1  34128  289.04 0854.88
2009/04/23 12:19:07.7    -118   -154    -72    195    207 217.4 -25.4  34130  289.08 0854.88
2009/04/23 12:19:07.8    -110   -200    -42    229    233 208.9 -10.5  34130  289.06 0854.88
2009/04/23 12:19:07.9     -45   -150    -48    157    165 196.9 -17.0  34128  289.04 0854.88
2009/04/23 12:19:08.0     -54   -124    -65    136    150 203.6 -31.6  34132  289.11 0854.88
2009/04/23 12:19:08.1      -7    -54    -64     55     84 188.0 -58.7  34132  289.11 0854.88
2009/04/23 12:19:08.2     -30    -97    -26    102    106 197.4 -14.5  34130  289.06 0854.88
2009/04/23 12:19:08.3     -85   -184     32    203    206 204.9   9.0  34132  289.09 0854.88
2009/04/23 12:19:08.4     -97   -174    -10    200    201 209.0  -3.1  34132  289.09 0854.88
2009/04/23 12:19:08.5      -6    -58     87     59    105 186.2  63.2  34132  289.11 0854.88
2009/04/23 12:19:08.6     -37    -87    159     95    185 203.2  66.2  34132  289.09 0854.82
2009/04/23 12:19:08.7       1    -99    138    100    170 179.1  60.5  34136  289.18 0854.82
2009/04/23 12:19:08.8      46    -81    133     94    162 150.1  61.5  34134  289.13 0854.82
2009/04/23 12:19:08.9      -1    -40    120     41    126 182.7  81.2  34136  289.16 0854.82
2009/04/23 12:19:09.0      22   -113    115    116    163 168.9  50.2  34134  289.13 0854.82
2009/04/23 12:19:09.1     -61    -92    161    111    195 213.8  62.4  34136  289.18 0854.82
2009/04/23 12:19:09.2    -102    -26    125    106    163 255.4  55.6  34138  289.21 0854.82
2009/04/23 12:19:09.3    -133     40     77    139    158 286.8  31.6  34142  289.26 0854.82
2009/04/23 12:19:09.4    -147     11     -5    148    149 274.3  -2.2  34140  289.24 0854.82
2009/04/23 12:19:09.5     -92     49   -119    105    158 298.0 -58.1  34130  289.08 0854.82
2009/04/23 12:19:09.6    -128     29    -41    132    138 282.8 -21.8  34136  289.16 0854.82
2009/04/23 12:19:09.7    -152    -25    -20    155    157 260.4  -7.5  34136  289.18 0854.82
2009/04/23 12:19:09.8    -124    -45     10    133    134 250.0   4.4  34140  289.24 0854.82
2009/04/23 12:19:09.9     -95     -2     63     96    114 268.7  35.6  34146  289.35 0854.82
2009/04/23 12:19:10.0    -121    -28     66    125    141 256.7  29.8  34152  289.45 0854.82
2009/04/23 12:19:10.1    -108     69     35    129    134 302.4  15.3  34148  289.36 0854.82
2009/04/23 12:19:10.2    -110     63     25    127    130 299.8  11.1  34138  289.19 0854.82
2009/04/23 12:19:10.3     -32     67     22     75     79 334.6  16.3  34136  289.18 0854.82
2009/04/23 12:19:10.4     -54     25    -12     60     62 295.2 -11.3  34136  289.16 0854.82
2009/04/23 12:19:10.5     -76    -16      3     78     79 257.6   2.3  34134  289.13 0854.82
2009/04/23 12:19:10.6    -100     14    -32    102    107 278.4 -17.6  34128  289.02 0854.82
2009/04/23 12:19:10.7    -114     54    -29    127    131 295.3 -12.9  34134  289.13 0854.82
2009/04/23 12:19:10.8    -138     52    -42    148    155 290.8 -16.0  34120  288.91 0854.82
2009/04/23 12:19:10.9    -114     58    -68    129    145 297.1 -34.7  34122  288.92 0854.82
2009/04/23 12:19:11.0    -134      2    -47    135    142 270.9 -23.8  34126  288.99 0854.82
2009/04/23 12:19:11.1    -116     -4    -33    117    121 267.9 -20.7  34132  289.09 0854.82
2009/04/23 12:19:11.2    -111     48     54    122    133 293.5  25.2  34130  289.08 0854.82
2009/04/23 12:19:11.3    -157     38     43    162    168 283.7  15.0  34138  289.21 0854.82
2009/04/23 12:19:11.4    -112     10     39    113    120 275.2  19.4  34138  289.19 0854.82
2009/04/23 12:19:11.5     -94      0    -10     95     96 269.6  -6.2  34138  289.19 0854.82
2009/04/23 12:19:11.6     -82    -26    -20     87     90 252.3 -12.9  34136  289.16 0854.82
2009/04/23 12:19:11.7     -48    -72     24     87     91 213.8  15.3  34136  289.16 0854.82
2009/04/23 12:19:11.8     -17    -67     58     70     90 194.3  43.8  34140  289.24 0854.82
2009/04/23 12:19:11.9     -21    -58     60     62     86 200.0  50.0  34134  289.14 0854.82
2009/04/23 12:19:12.0       8    -73     63     74     97 173.8  44.8  34132  289.11 0854.82
2009/04/23 12:19:12.2      74    -15    -29     76     81 101.5 -25.9  34134  289.13 0854.82
2009/04/23 12:19:12.3      45    -40    -49     61     78 131.3 -48.1  34136  289.18 0854.82
2009/04/23 12:19:12.4      35     -8    -85     36     92 103.3 -80.5  34132  289.09 0854.82
2009/04/23 12:19:12.5      47    -74    -55     88    103 147.4 -39.9  34134  289.14 0854.82
2009/04/23 12:19:12.6      68     67    -98     96    137  45.4 -54.5  34134  289.14 0854.82
2009/04/23 12:19:12.7      86     89   -101    124    159  44.1 -47.7  34138  289.19 0854.84
2009/04/23 12:19:12.8      33     33    -51     47     69  45.0 -56.6  34140  289.24 0854.84
2009/04/23 12:19:12.9      39     -3    -62     40     73  94.4 -69.0  34156  289.52 0854.84
2009/04/23 12:19:13.0     118    -35    -75    124    144 106.8 -38.8  34158  289.53 0854.84
2009/04/23 12:19:13.1      90     11    -43     91    100  83.0 -31.6  34166  289.69 0854.84
2009/04/23 12:19:13.2      93     11     -5     94     95  83.0  -3.1  34188  290.06 0854.84
2009/04/23 12:19:13.3      83    -12    -28     84     89  98.8 -18.7  34196  290.18 0854.84
2009/04/23 12:19:13.4      64     31    -59     72     93  63.8 -48.1  34176  289.84 0854.84
2009/04/23 12:19:13.5      64     53    -64     84    105  50.5 -45.6  34156  289.52 0854.84
2009/04/23 12:19:13.6      40      4    -68     41     79  83.9 -70.6  34150  289.41 0854.84
2009/04/23 12:19:13.7       9    -48    -92     49    104 169.3 -73.7  34142  289.26 0854.84
2009/04/23 12:19:13.8      53   -153    -55    163    172 160.8 -23.3  34134  289.13 0854.84
2009/04/23 12:19:13.9      80   -134    -46    157    164 149.3 -16.4  34146  289.33 0854.84
2009/04/23 12:19:14.0      93   -132     -7    162    163 144.8  -2.6  34144  289.31 0854.84
2009/04/23 12:19:14.1      74    -90     33    117    122 140.4  15.8  34142  289.28 0854.84
2009/04/23 12:19:14.2      77    -60      0     98     99 127.8  -0.3  34142  289.28 0854.84
2009/04/23 12:19:14.3      76    -52     13     93     94 124.6   8.0  34144  289.30 0854.84
2009/04/23 12:19:14.4      95    -74     19    121    123 127.8   8.9  34144  289.30 0854.84
2009/04/23 12:19:14.5     119    -55     25    132    135 114.8  11.0  34146  289.33 0854.84
2009/04/23 12:19:14.6      81    -50     63     96    114 122.0  35.6  34144  289.30 0854.84
2009/04/23 12:19:14.7      98    -66     61    119    133 123.7  29.3  34140  289.23 0854.87
2009/04/23 12:19:14.8     146   -131     78    197    211 131.8  22.8  34140  289.24 0854.87
2009/04/23 12:19:14.9     210   -152     81    260    273 125.9  17.3  34140  289.22 0854.87
2009/04/23 12:19:15.0     201   -161    111    258    280 128.6  24.9  34142  289.27 0854.87
2009/04/23 12:19:15.1     188   -233     42    300    304 141.0   8.0  34138  289.20 0854.87
2009/04/23 12:19:15.2     200   -188     58    275    282 133.2  12.0  34140  289.22 0854.87
2009/04/23 12:19:15.3     183   -149    109    237    260 129.1  26.4  34140  289.24 0854.87
2009/04/23 12:19:15.4     193   -151    107    246    268 128.0  25.1  34140  289.24 0854.87
2009/04/23 12:19:15.5     217   -163    123    272    298 126.9  26.2  34142  289.27 0854.87
2009/04/23 12:19:15.6     217   -166    154    274    314 127.3  31.7  34140  289.24 0854.87
2009/04/23 12:19:15.7     149   -182    135    236    271 140.8  32.4  34140  289.22 0854.87
2009/04/23 12:19:15.8     160   -181    101    242    262 138.6  23.8  34138  289.19 0854.87
2009/04/23 12:19:15.9     226   -196     53    300    305 130.9  10.1  34142  289.25 0854.87
2009/04/23 12:19:16.0     249   -194      4    316    317 128.0   0.8  34142  289.27 0854.87
2009/04/23 12:19:16.1     214   -150     13    262    263 125.0   2.9  34140  289.22 0854.87
2009/04/23 12:19:16.2     182   -173     -3    252    253 133.6  -0.7  34140  289.22 0854.87
2009/04/23 12:19:16.3     168   -193    -30    257    259 139.0  -6.9  34140  289.22 0854.87
2009/04/23 12:19:16.4      69   -202     -8    214    215 161.1  -2.2  34138  289.19 0854.87
2009/04/23 12:19:16.5     100   -218    -30    241    243 155.3  -7.2  34144  289.29 0854.87
2009/04/23 12:19:16.6      60   -271    -56    278    284 167.5 -11.5  34144  289.31 0854.87
2009/04/23 12:19:16.7      78   -267    -46    279    283 163.7  -9.4  34144  289.31 0854.88
2009/04/23 12:19:16.8      67   -266    -55    275    281 165.7 -11.5  34144  289.31 0854.88
2009/04/23 12:19:16.9      63   -270    -82    278    291 166.9 -16.5  34140  289.22 0854.88
2009/04/23 12:19:17.0      53   -263    -65    269    277 168.4 -13.7  34142  289.27 0854.88
2009/04/23 12:19:17.1      30   -274    -93    276    292 173.7 -18.7  34148  289.36 0854.88
2009/04/23 12:19:17.2      31   -281   -101    283    301 173.7 -19.7  34146  289.32 0854.88
2009/04/23 12:19:17.3      22   -251    -45    253    258 174.9 -10.1  34144  289.31 0854.88
2009/04/23 12:19:17.4      63   -207     11    217    218 163.1   2.9  34144  289.31 0854.88
2009/04/23 12:19:17.5      82   -234      2    249    250 160.6   0.5  34144  289.31 0854.88
2009/04/23 12:19:17.6      67   -206    -41    217    222 162.0 -10.9  34146  289.33 0854.88
2009/04/23 12:19:17.7      46   -230     -8    235    236 168.7  -2.1  34146  289.32 0854.88
2009/04/23 12:19:17.8      43   -211     36    216    219 168.4   9.5  34148  289.36 0854.88
2009/04/23 12:19:17.9      18   -222     26    223    225 175.3   6.7  34150  289.40 0854.88
2009/04/23 12:19:18.0      39   -229     -4    233    234 170.3  -1.2  34150  289.39 0854.88
2009/04/23 12:19:18.1      79   -218    -78    233    246 160.0 -18.6  34150  289.41 0854.88
2009/04/23 12:19:18.2     177   -294   -209    344    402 149.0 -38.5  34150  289.40 0854.88
2009/04/23 12:19:18.3     190   -312   -237    366    436 148.6 -40.4  34152  289.43 0854.88
2009/04/23 12:19:18.4      91   -285   -189    300    354 162.2 -39.6  34146  289.33 0854.88
2009/04/23 12:19:18.5      42   -347   -156    350    383 173.0 -30.2  34142  289.28 0854.88
2009/04/23 12:19:18.6       9   -297   -159    298    337 178.2 -34.9  34150  289.39 0854.88
2009/04/23 12:19:18.7     -77   -231    -31    244    246 198.5  -7.3  34152  289.42 0854.88
2009/04/23 12:19:18.8     -23   -218    -34    220    223 186.2  -9.0  34150  289.40 0854.88
2009/04/23 12:19:18.9      -9   -235   -111    236    260 182.2 -31.5  34142  289.25 0854.88
2009/04/23 12:19:19.0     -14   -300   -213    301    368 182.7 -43.1  34144  289.30 0854.88
2009/04/23 12:19:19.1     -37   -293   -172    296    342 187.2 -37.3  34136  289.17 0854.88
2009/04/23 12:19:19.2     -62   -264   -214    272    346 193.3 -46.7  34140  289.22 0854.88
2009/04/23 12:19:19.3      82   -210   -160    226    276 158.6 -43.2  34148  289.37 0854.88
2009/04/23 12:19:19.4      54   -276   -134    282    312 168.9 -31.7  34148  289.36 0854.88
2009/04/23 12:19:19.5      84   -260   -162    274    318 162.1 -37.7  34148  289.36 0854.88
2009/04/23 12:19:19.6     128   -215   -219    251    333 149.2 -50.0  34152  289.42 0854.88
2009/04/23 12:19:19.7     235   -232   -225    331    400 134.6 -41.8  34142  289.28 0854.88
2009/04/23 12:19:19.8     175   -153   -230    233    327 131.3 -54.2  34142  289.25 0854.88
2009/04/23 12:19:19.9      41    -57   -202     71    214 143.9 -84.9  34132  289.11 0854.88
2009/04/23 12:19:20.0     -34    -74   -219     82    233 204.9 -83.5  34128  289.04 0854.88
2009/04/23 12:19:20.1     -26    -68   -144     73    161 200.9 -75.8  34130  289.06 0854.88
2009/04/23 12:19:20.2     -60    -19   -119     64    135 251.8 -73.7  34130  289.08 0854.88
2009/04/23 12:19:20.3     -49   -104   -130    116    174 205.4 -58.1  34132  289.11 0854.88
2009/04/23 12:19:20.4      19   -110   -144    112    182 169.8 -62.9  34134  289.14 0854.88
2009/04/23 12:19:20.5     -10   -134   -144    135    197 184.5 -56.5  34130  289.08 0854.88
2009/04/23 12:19:20.6     -69   -207   -142    219    261 198.5 -40.1  34126  288.98 0854.88
2009/04/23 12:19:20.7    -123   -222   -105    255    275 209.0 -28.2  34130  289.05 0854.91
2009/04/23 12:19:20.8     -40   -177   -128    182    222 192.9 -43.0  34128  289.02 0854.91
2009/04/23 12:19:20.9     -24   -187    -84    189    206 187.6 -29.7  34128  289.04 0854.91
2009/04/23 12:19:21.0     -77   -253    -80    265    277 196.9 -16.8  34134  289.14 0854.91
2009/04/23 12:19:21.1    -152   -272      6    312    313 209.2   1.2  34134  289.14 0854.91
2009/04/23 12:19:21.2    -123   -252     14    281    282 206.1   2.9  34140  289.22 0854.91
2009/04/23 12:19:21.3    -167   -184     30    249    251 222.3   6.9  34138  289.20 0854.91
2009/04/23 12:19:21.4    -118   -249     64    276    284 205.3  13.1  34136  289.17 0854.91
2009/04/23 12:19:21.5    -137   -164     38    214    218 219.9  10.1  34132  289.11 0854.91
2009/04/23 12:19:21.6    -208   -190    166    283    328 227.6  33.1  34142  289.27 0854.91
2009/04/23 12:19:21.7    -224   -133    158    261    305 239.3  34.2  34152  289.42 0854.91
2009/04/23 12:19:21.8    -163    -60    107    174    204 249.8  34.8  34148  289.36 0854.91
2009/04/23 12:19:21.9    -145    -20    117    147    187 262.0  43.0  34154  289.48 0854.91
2009/04/23 12:19:22.0    -221    -95    115    241    267 246.7  27.3  34148  289.37 0854.91
2009/04/23 12:19:22.1    -245     19    135    246    280 274.6  31.3  34144  289.29 0854.91
2009/04/23 12:19:22.2    -243     -3     86    244    259 269.1  19.4  34150  289.39 0854.91
2009/04/23 12:19:22.3    -173    -38     36    178    182 257.4  11.6  34150  289.40 0854.91
2009/04/23 12:19:22.4    -173    -39     29    178    181 257.2   9.3  34150  289.40 0854.91
2009/04/23 12:19:22.5    -141    -27     95    144    172 259.0  36.3  34152  289.45 0854.91
2009/04/23 12:19:22.6    -163    -81     79    183    199 243.6  25.1  34148  289.36 0854.91
2009/04/23 12:19:22.7    -196    -41      1    201    202 258.1   0.5  34150  289.40 0854.91
2009/04/23 12:19:22.8    -141    -60     43    154    161 246.9  15.8  34150  289.41 0854.91
2009/04/23 12:19:23.0    -158    -52     12    167    168 251.6   4.2  34150  289.40 0854.91
2009/04/23 12:19:23.0     -82    -66     65    106    124 231.4  35.0  34148  289.38 0854.91
2009/04/23 12:19:23.1    -121      7     66    122    138 273.5  31.3  34148  289.36 0854.91
2009/04/23 12:19:23.2    -164     32     27    168    171 281.0   9.3  34144  289.30 0854.91
2009/04/23 12:19:23.3    -255    -19     85    256    270 265.6  18.4  34144  289.31 0854.91
2009/04/23 12:19:23.4    -233    -64     24    242    244 254.5   5.7  34144  289.31 0854.91
2009/04/23 12:19:23.5    -330    -39    -44    333    336 263.1  -7.7  34140  289.23 0854.91
2009/04/23 12:19:23.6    -267    -59    -45    274    278 257.4  -9.3  34134  289.12 0854.91
2009/04/23 12:19:23.7    -259    -84    -19    273    274 252.1  -4.1  34140  289.22 0854.91
2009/04/23 12:19:23.8    -214      3      6    215    216 270.9   1.6  34142  289.26 0854.91
2009/04/23 12:19:23.9    -184    -75    -17    199    200 247.8  -5.1  34142  289.26 0854.91
2009/04/23 12:19:24.0    -141   -112    -61    181    191 231.6 -23.3  34142  289.26 0854.91
2009/04/23 12:19:24.1    -229   -104    -38    252    255 245.4  -8.6  34138  289.19 0854.91
2009/04/23 12:19:24.2    -285   -114   -109    308    327 248.2 -19.6  34148  289.36 0854.91
2009/04/23 12:19:24.3    -235    -21     -5    236    237 264.8  -1.3  34148  289.37 0854.91
2009/04/23 12:19:24.4     -94   -121     15    154    155 217.8   5.7  34142  289.28 0854.91
2009/04/23 12:19:24.5     -56   -238     57    245    252 193.4  13.2  34140  289.22 0854.91
2009/04/23 12:19:24.6     -19   -252     89    253    269 184.4  19.4  34140  289.24 0854.91
2009/04/23 12:19:24.7      25   -238     95    240    258 173.8  23.0  34144  289.31 0854.92
2009/04/23 12:19:24.8     -19   -234    128    235    267 184.9  31.0  34144  289.29 0854.92
2009/04/23 12:19:24.9     -73   -288     60    298    305 194.3  11.4  34146  289.34 0854.92
2009/04/23 12:19:25.0     -85   -247     97    262    279 199.1  21.0  34146  289.32 0854.92
2009/04/23 12:19:25.2    -159   -303     42    343    346 207.7   7.1  34148  289.38 0854.92
2009/04/23 12:19:25.2     -75   -226     -4    239    240 198.3  -1.2  34148  289.37 0854.92
2009/04/23 12:19:25.3     -34   -228    -44    231    236 188.7 -10.9  34148  289.36 0854.92
2009/04/23 12:19:25.4     -57   -261     44    268    272 192.5   9.5  34150  289.41 0854.92
2009/04/23 12:19:25.5     -54   -268     53    274    280 191.6  11.1  34144  289.31 0854.92
2009/04/23 12:19:25.6      -8   -277    106    278    297 181.8  22.0  34152  289.42 0854.92
2009/04/23 12:19:25.7    -134   -266    107    298    316 206.7  20.4  34154  289.47 0854.92
2009/04/23 12:19:25.8    -190   -354    139    402    426 208.3  19.2  34150  289.41 0854.92
2009/04/23 12:19:25.9    -178   -329    125    375    396 208.4  18.4  34148  289.38 0854.92
2009/04/23 12:19:26.0    -144   -329    123    360    381 203.7  18.9  34152  289.43 0854.92
2009/04/23 12:19:26.1     -91   -413    170    424    456 192.5  23.0  34154  289.46 0854.92
2009/04/23 12:19:26.2     -63   -388     46    394    397 189.3   6.7  34150  289.40 0854.92
2009/04/23 12:19:26.3     -23   -310    110    311    331 184.4  19.6  34150  289.41 0854.92
2009/04/23 12:19:26.4       3   -320     -5    321    322 179.4  -0.9  34152  289.42 0854.92
2009/04/23 12:19:26.5     -16   -254     -9    255    256 183.6  -2.2  34152  289.44 0854.92
2009/04/23 12:19:26.6     -16   -199    -24    200    202 184.7  -6.9  34150  289.40 0854.92
2009/04/23 12:19:26.7     -49    -91    -43    104    112 208.1 -27.5  34150  289.41 0854.96
2009/04/23 12:19:26.8      -4    -77     -7     78     79 183.6  -5.2  34152  289.43 0854.96
2009/04/23 12:19:26.9      22    -59    -21     64     67 159.1 -23.8  34150  289.41 0854.96
2009/04/23 12:19:27.0      79    -83    -32    115    119 136.3 -20.2  34152  289.45 0854.96
2009/04/23 12:19:27.1      42   -101   -105    110    152 157.3 -52.9  34150  289.41 0854.96
2009/04/23 12:19:27.2      69    -64   -108     95    143 133.1 -58.6  34154  289.46 0854.96
2009/04/23 12:19:27.3      59   -100   -105    117    157 149.3 -51.0  34146  289.35 0854.96
2009/04/23 12:19:27.4      51    -63    -79     82    113 140.8 -53.8  34146  289.35 0854.96
2009/04/23 12:19:27.5     114   -107    -80    157    176 133.1 -33.5  34152  289.45 0854.96
2009/04/23 12:19:27.6      56   -116   -100    130    164 154.1 -45.8  34148  289.38 0854.96
2009/04/23 12:19:27.7      50    -50   -121     72    140 135.0 -71.2  34150  289.40 0854.96
2009/04/23 12:19:27.8      30    -55    -71     63     94 151.0 -58.1  34150  289.41 0854.96
2009/04/23 12:19:27.9      10    -95   -100     96    138 173.8 -55.6  34152  289.43 0854.96
2009/04/23 12:19:28.0      32   -136    -43    140    146 166.6 -21.8  34150  289.41 0854.96
2009/04/23 12:19:28.1      -2   -145    -57    146    156 181.0 -26.9  34152  289.43 0854.96
2009/04/23 12:19:28.2     -31   -133    -49    137    146 193.3 -19.7  34150  289.41 0854.96
2009/04/23 12:19:28.3     -37   -216    -56    220    228 189.8 -14.3  34142  289.28 0854.96
2009/04/23 12:19:28.4     -58   -233    -55    241    248 194.0 -12.9  34146  289.32 0854.96
2009/04/23 12:19:28.5       3   -225      0    226    227 179.0   0.0  34142  289.26 0854.96
2009/04/23 12:19:28.6      84   -176     17    196    197 154.4   5.2  34138  289.21 0854.96
2009/04/23 12:19:28.7     148   -122    -62    192    202 129.5 -17.9  34146  289.33 0854.94
2009/04/23 12:19:28.8     152   -152    -78    216    229 135.0 -25.1  34150  289.40 0854.94
2009/04/23 12:19:28.9     164   -181    -73    245    256 137.7 -16.8  34156  289.49 0854.94
2009/04/23 12:19:29.0     143   -249    -94    288    302 150.1 -23.8  34154  289.47 0854.94
2009/04/23 12:19:29.1     134   -252    -93    286    301 152.0 -18.2  34150  289.39 0854.94
2009/04/23 12:19:29.2     172   -208    -77    271    282 140.4 -16.0  34154  289.46 0854.94
2009/04/23 12:19:29.3     151   -187    -86    241    257 141.2 -19.7  34150  289.39 0854.94
2009/04/23 12:19:29.4     130   -209    -75    247    259 148.1 -17.0  34152  289.42 0854.94
2009/04/23 12:19:29.5     129   -197    -74    236    248 146.6 -17.6  34154  289.46 0854.94
2009/04/23 12:19:29.6     136   -187    -45    232    237 143.9 -11.1  34150  289.41 0854.94
2009/04/23 12:19:29.7     153   -201    -51    253    259 142.8 -11.5  34152  289.42 0854.94
2009/04/23 12:19:29.8     198   -172    -35    263    266 131.1  -7.7  34152  289.42 0854.94
2009/04/23 12:19:29.9     141   -187    -41    235    239 143.0 -10.1  34150  289.39 0854.94
2009/04/23 12:19:30.0     127   -126    -23    179    181 134.8  -7.3  34152  289.43 0854.94
2009/04/23 12:19:30.1     169   -139     -8    220    221 129.5  -2.2  34154  289.46 0854.94
2009/04/23 12:19:30.2     161   -123     -3    203    204 127.3  -1.1  34152  289.45 0854.94
2009/04/23 12:19:30.3     149    -92     -7    176    177 121.8  -2.3  34154  289.46 0854.94
2009/04/23 12:19:30.4     162    -87    -23    185    187 118.4  -7.2  34154  289.46 0854.94
2009/04/23 12:19:30.5     157    -74      1    174    175 115.5   0.5  34152  289.45 0854.94
2009/04/23 12:19:30.6     147    -76      6    166    167 117.5   2.3  34152  289.45 0854.94
2009/04/23 12:19:30.7     141    -62     18    155    157 114.0   6.9  34152  289.45 0854.94
2009/04/23 12:19:30.8     131    -41     62    138    151 107.7  26.2  34150  289.40 0854.94
2009/04/23 12:19:30.9     141     -2     44    142    149  90.9  17.4  34148  289.36 0854.94
2009/04/23 12:19:31.0     146     -2     15    147    148  90.8   5.9  34150  289.40 0854.94
2009/04/23 12:19:31.1     130      8    -36    131    136  86.5 -15.5  34150  289.40 0854.94
2009/04/23 12:19:31.2     184    -29    -49    187    194  99.0 -14.7  34148  289.36 0854.94
2009/04/23 12:19:31.3     153    -53    -21    163    165 109.3  -7.5  34144  289.31 0854.94
2009/04/23 12:19:31.4     105    -33     55    111    123 107.3  28.7  34148  289.36 0854.94
2009/04/23 12:19:31.5      95    -38     48    103    113 112.2  27.1  34152  289.45 0854.94
2009/04/23 12:19:31.6      72    -34     33     80     86 115.2  23.0  34160  289.58 0854.94
2009/04/23 12:19:31.7      59    -16     40     62     73 105.1  35.6  34170  289.75 0854.92
2009/04/23 12:19:31.8      27    -44     -2     52     53 148.4  -3.1  34158  289.53 0854.92
2009/04/23 12:19:31.9      50    -35    -10     62     63 125.1  -9.3  34154  289.48 0854.92
2009/04/23 12:19:32.0      25    -30     17     40     43 140.4  23.0  34160  289.57 0854.92
2009/04/23 12:19:32.1      24      4     17     25     30  80.3  37.6  34158  289.55 0854.92
2009/04/23 12:19:32.2      52      4     37     53     64  84.8  38.6  34162  289.62 0854.92
2009/04/23 12:19:32.3      88     -1     49     89    101  91.3  31.4  34168  289.72 0854.92
2009/04/23 12:19:32.4      86    -12     42     87     96  98.4  27.3  34158  289.53 0854.92
2009/04/23 12:19:32.5      65    -42     38     78     86 123.3  27.8  34160  289.58 0854.92
2009/04/23 12:19:32.6      93    -22     46     96    106 103.3  27.3  34194  290.16 0854.92
2009/04/23 12:19:32.7      78    -17     70     81    107 102.8  45.4  34220  290.58 0854.92
2009/04/23 12:19:32.8      52    -33     62     62     87 122.4  50.1  34210  290.41 0854.92
2009/04/23 12:19:32.9      -2    -48     59     49     76 182.7  56.3  34190  290.09 0854.92
2009/04/23 12:19:33.0      12    -49     39     51     64 165.7  40.7  34194  290.14 0854.92
2009/04/23 12:19:33.1      93    -15     68     95    116  99.2  39.1  34214  290.50 0854.92
2009/04/23 12:19:33.2      81    -76     74    112    134 133.1  36.0  34212  290.45 0854.92
2009/04/23 12:19:33.3      47    -56     59     74     94 140.4  42.7  34216  290.53 0854.92
2009/04/23 12:19:33.4      42    -93     76    103    128 155.5  40.1  34226  290.69 0854.92
2009/04/23 12:19:33.5      57    -69     89     90    126 140.4  50.0  34242  290.96 0854.92
2009/04/23 12:19:33.6      41    -97     95    106    142 156.8  46.9  34238  290.91 0854.92
2009/04/23 12:19:33.7      43   -157    115    163    199 164.6  38.8  34200  290.26 0854.88
2009/04/23 12:19:33.8      61   -198     78    208    222 162.8  21.5  34164  289.63 0854.88
2009/04/23 12:19:33.9      68   -205     47    217    223 161.5  12.4  34162  289.62 0854.88
2009/04/23 12:19:34.0      58   -217    115    225    252 164.9  29.3  34160  289.56 0854.88
2009/04/23 12:19:34.1      55   -280     89    286    300 168.9  17.3  34154  289.46 0854.88
2009/04/23 12:19:34.2      21   -233    114    235    261 174.7  27.4  34158  289.54 0854.88
2009/04/23 12:19:34.3      -2   -165    187    166    250 180.9  54.0  34164  289.65 0854.88
2009/04/23 12:19:34.4      33   -185    145    189    238 169.8  41.4  34160  289.57 0854.88
2009/04/23 12:19:34.5     129   -154     97    202    224 140.1  27.3  34160  289.58 0854.88
2009/04/23 12:19:34.6     146   -176     89    229    245 140.3  22.3  34160  289.56 0854.88
2009/04/23 12:19:34.7     130   -219    124    255    283 149.3  27.4  34154  289.46 0854.88
2009/04/23 12:19:34.8     181   -257     82    315    326 144.9  14.7  34150  289.41 0854.88
2009/04/23 12:19:34.9     225   -279     94    359    372 141.0  14.7  34146  289.33 0854.88
2009/04/23 12:19:35.0     164   -288    111    332    351 150.4  18.6  34146  289.32 0854.88
2009/04/23 12:19:35.1     118   -314     25    336    337 159.4   4.4  34142  289.25 0854.88
2009/04/23 12:19:35.2      88   -337     65    349    355 165.4  10.6  34146  289.32 0854.88
2009/04/23 12:19:35.3      89   -300     53    313    318 163.5   9.7  34146  289.34 0854.88
2009/04/23 12:19:35.4      55   -321     44    326    330 170.2   7.8  34142  289.27 0854.88
2009/04/23 12:19:35.5     114   -346      6    365    366 161.7   1.0  34142  289.26 0854.88
2009/04/23 12:19:35.6     109   -382    -28    398    399 164.1  -4.1  34156  289.52 0854.88
2009/04/23 12:19:35.7      99   -338      0    353    354 163.7   0.1  34144  289.30 0854.86
2009/04/23 12:19:35.8      98   -318     63    333    340 162.8  10.8  34156  289.50 0854.86
2009/04/23 12:19:35.9      54   -365     95    370    383 171.5  14.4  34154  289.47 0854.86
2009/04/23 12:19:36.0      59   -352     91    357    369 170.4  14.3  34152  289.45 0854.86
2009/04/23 12:19:36.1      91   -275    105    290    308 161.7  20.9  34152  289.44 0854.86
2009/04/23 12:19:36.2     104   -226     30    249    251 155.3   6.9  34150  289.41 0854.86
2009/04/23 12:19:36.3      92   -210     19    230    231 156.4   4.9  34150  289.40 0854.86
2009/04/23 12:19:36.4     127   -259     32    289    291 153.9   6.5  34152  289.42 0854.86
2009/04/23 12:19:36.5     114   -270     -3    294    295 157.1  -0.7  34156  289.49 0854.86
2009/04/23 12:19:36.6     148   -256     52    296    301 149.9  10.0  34152  289.44 0854.86
2009/04/23 12:19:36.7     146   -147     30    208    211 135.2   8.2  34154  289.46 0854.86
2009/04/23 12:19:36.8     111   -221      3    248    249 153.3   0.7  34156  289.49 0854.86
2009/04/23 12:19:36.9      76   -202     -2    216    217 159.3  -0.7  34154  289.46 0854.86
2009/04/23 12:19:37.0     138   -224     56    264    270 148.4  12.0  34156  289.49 0854.86
2009/04/23 12:19:37.1     138   -187     88    233    249 143.5  21.5  34158  289.54 0854.86
2009/04/23 12:19:37.2     124   -182     78    221    235 145.7  19.6  34158  289.55 0854.86
2009/04/23 12:19:37.3     111   -184     67    216    227 148.8  17.3  34160  289.58 0854.86
2009/04/23 12:19:37.5     100   -167     81    195    211 149.0  23.8  34156  289.50 0854.86
2009/04/23 12:19:37.5      87   -199     54    218    225 156.4  13.9  34158  289.55 0854.86
2009/04/23 12:19:37.6     115   -170     -1    206    207 145.9  -0.5  34156  289.52 0854.86
2009/04/23 12:19:37.7     131   -129     73    184    197 134.6  22.8  34158  289.55 0854.86
2009/04/23 12:19:37.8      64   -134     92    149    175 154.5  35.0  34154  289.48 0854.86
2009/04/23 12:19:37.9      59   -208     90    217    234 164.0  24.1  34156  289.52 0854.86
2009/04/23 12:19:38.0      50   -241    103    247    267 168.2  24.1  34154  289.47 0854.86
2009/04/23 12:19:38.1      68   -241     87    251    266 164.2  19.2  34148  289.37 0854.86
2009/04/23 12:19:38.3      39   -206     73    210    223 169.1  19.2  34146  289.35 0854.86
2009/04/23 12:19:38.4      12   -196    103    197    222 176.4  30.1  34154  289.46 0854.86
2009/04/23 12:19:38.5      -2   -178     98    179    204 180.7  31.3  34152  289.45 0854.86
2009/04/23 12:19:38.6     -14   -159     78    160    178 185.3  28.0  34150  289.40 0854.86
2009/04/23 12:19:38.7     -17   -151     69    153    167 186.7  25.9  34148  289.38 0854.86
2009/04/23 12:19:38.8     -23   -114     46    117    125 191.5  22.5  34148  289.36 0854.86
2009/04/23 12:19:38.9     -23    -78     38     82     90 196.9  27.1  34148  289.38 0854.86
2009/04/23 12:19:39.0      -7    -70      8     71     72 186.2   7.1  34148  289.38 0854.86
2009/04/23 12:19:39.1     -53    -83    -39     99    106 212.6 -26.9  34144  289.31 0854.86
2009/04/23 12:19:39.2     -83    -77    -61    114    129 226.9 -34.7  34150  289.40 0854.86
2009/04/23 12:19:39.3    -108    -92    -51    142    150 229.6 -24.4  34150  289.41 0854.86
2009/04/23 12:19:39.4     -91    -75    -42    119    127 230.5 -19.7  34152  289.43 0854.86
2009/04/23 12:19:39.5     -61     12    -79     63    101 281.5 -61.3  34148  289.36 0854.86
2009/04/23 12:19:39.6       0     59    -87     60    105 359.1 -67.0  34148  289.38 0854.86
2009/04/23 12:19:39.7      63     39    -91     75    117  58.5 -60.7  34148  289.36 0854.86
2009/04/23 12:19:39.8      63     80    -83    103    132  38.3 -48.1  34148  289.38 0854.85
2009/04/23 12:19:39.9      14     93   -105     95    141   8.9 -57.1  34150  289.41 0854.85
2009/04/23 12:19:40.0      10     51   -114     53    125  11.6 -77.9  34152  289.45 0854.85
2009/04/23 12:19:40.1     -74     47   -104     88    136 302.4 -60.2  34154  289.48 0854.85
2009/04/23 12:19:40.2      -5     17    -92     18     93 341.5 -90.0  34154  289.48 0854.85
2009/04/23 12:19:40.3      32    -32    -76     46     88 135.8 -70.1  34152  289.45 0854.85
2009/04/23 12:19:40.4     -16     22    -57     28     63 323.9 -77.2  34154  289.46 0854.85
2009/04/23 12:19:40.5      19    101    -65    103    121  11.1 -39.9  34148  289.38 0854.85
2009/04/23 12:19:40.6      38    112    -42    119    127  18.7 -19.6  34150  289.41 0854.85
2009/04/23 12:19:40.7      29     77    -29     83     89  20.9 -19.7  34152  289.45 0854.85
2009/04/23 12:19:40.8      34     83    -40     90     98  22.7 -30.1  34150  289.40 0854.85
2009/04/23 12:19:40.9      24     79    -38     83     91  16.9 -31.0  34148  289.38 0854.85
2009/04/23 12:19:41.0      36     58    -53     69     87  31.6 -46.1  34148  289.38 0854.85
2009/04/23 12:19:41.1      47     70    -13     85     86  34.3  -8.8  34152  289.45 0854.85
2009/04/23 12:19:41.2      38     46    -20     60     64  39.6 -18.7  34152  289.43 0854.85
2009/04/23 12:19:41.3       9     57     -5     58     59   9.8  -5.2  34152  289.45 0854.85
2009/04/23 12:19:41.4      10     54     -7     55     56  10.7  -7.2  34152  289.45 0854.85
2009/04/23 12:19:41.5      29     62    -23     69     72  25.4 -23.6  34152  289.43 0854.85
2009/04/23 12:19:41.6       7     75    -24     76     79   5.3 -22.8  34148  289.38 0854.85
2009/04/23 12:19:41.7       8    109    -14    110    111   4.5  -7.3  34148  289.36 0854.85
2009/04/23 12:19:41.8      45    114    -15    123    124  21.9  -7.2  34146  289.33 0854.85
2009/04/23 12:19:41.9      69    213    -28    225    227  18.0  -7.3  34148  289.36 0854.85
2009/04/23 12:19:42.0     252    189    -19    316    317  53.2  -3.5  34150  289.39 0854.85
2009/04/23 12:19:42.1     330    202    -50    388    392  58.5  -7.4  34148  289.37 0854.85
2009/04/23 12:19:42.2     296    245     42    385    388  50.4   6.4  34202  290.28 0854.85
2009/04/23 12:19:42.3     255    170    137    307    336  56.3  25.7  34238  290.90 0854.85
2009/04/23 12:19:42.4     223    185    108    290    309  50.4  21.0  34188  290.05 0854.85
2009/04/23 12:19:42.5     295    136    -14    325    326  65.2  -2.5  34168  289.71 0854.85
2009/04/23 12:19:42.6     226    156    -29    275    277  55.4  -6.2  34154  289.47 0854.85
2009/04/23 12:19:42.7     180    290     98    342    356  31.9  16.0  34152  289.43 0854.85
2009/04/23 12:19:42.8     167    351     -7    389    390  25.5  -1.2  34154  289.47 0854.85
2009/04/23 12:19:42.9     144    376     89    403    413  21.0  12.5  34174  289.80 0854.85
2009/04/23 12:19:43.0     133    375     66    399    405  19.6   9.5  34164  289.65 0854.85
2009/04/23 12:19:43.1     161    370     84    404    413  23.6  11.8  34190  290.07 0854.85
2009/04/23 12:19:43.2      -2    430    151    431    457 359.7  19.4  34246  291.02 0854.85
2009/04/23 12:19:43.3     -27    429    152    430    456 356.4  20.2  34236  290.87 0854.85
2009/04/23 12:19:43.4     -21    418    157    419    447 357.0  21.5  34226  290.68 0854.85
2009/04/23 12:19:43.5      16    410    134    411    433   2.2  18.0  34222  290.61 0854.85
2009/04/23 12:19:43.6      74    262    111    273    294  15.8  23.1  34194  290.14 0854.85
2009/04/23 12:19:43.7     146    285     98    321    336  27.2  17.0  34176  289.84 0854.85
2009/04/23 12:19:43.8     147    300    121    335    356  26.1  20.8  34172  289.76 0854.87
2009/04/23 12:19:43.9     175    301     94    349    362  30.2  15.1  34162  289.60 0854.87
2009/04/23 12:19:44.0     147    315     26    348    349  25.0   4.4  34158  289.54 0854.87
2009/04/23 12:19:44.1     148    295     12    331    332  26.7   2.2  34156  289.50 0854.87
2009/04/23 12:19:44.2     127    270     81    299    310  25.3  15.3  34154  289.47 0854.87
2009/04/23 12:19:44.3     181    226    105    290    309  38.7  19.9  34150  289.39 0854.87
2009/04/23 12:19:44.4     103    235    116    257    281  23.8  25.9  34152  289.44 0854.87
2009/04/23 12:19:44.5      18    270     68    271    280   4.0  14.2  34158  289.54 0854.87
2009/04/23 12:19:44.6      56    211    -47    219    225  15.1 -12.2  34138  289.21 0854.87
2009/04/23 12:19:44.7      79    196    -72    212    225  22.1 -18.9  34128  289.02 0854.87
2009/04/23 12:19:44.8      89    184    -36    205    209  25.9 -10.1  34126  289.01 0854.87
2009/04/23 12:19:44.9     101    196     -8    221    222  27.4  -2.2  34124  288.97 0854.87
2009/04/23 12:19:45.0      89    226      9    244    245  21.6   2.3  34126  288.98 0854.87
2009/04/23 12:19:45.1      94    203     -8    224    225  24.9  -2.2  34128  289.02 0854.87
2009/04/23 12:19:45.2      93    203    -14    224    225  24.7  -3.7  34126  288.99 0854.87
2009/04/23 12:19:45.3      69    161    -50    176    184  23.4 -16.0  34130  289.08 0854.87
2009/04/23 12:19:45.4      63    159    -57    172    182  21.8 -18.3  34142  289.28 0854.87
2009/04/23 12:19:45.5      48    137    -35    146    151  19.6 -13.4  34140  289.24 0854.87
2009/04/23 12:19:45.6      20    174    -25    176    178   6.7  -8.2  34140  289.23 0854.87
2009/04/23 12:19:45.7      35    209    -16    212    213   9.6  -4.4  34150  289.41 0854.87
2009/04/23 12:19:45.8      87    261     70    276    285  18.5  14.3  34160  289.58 0854.88
2009/04/23 12:19:45.9      95    216     82    237    251  23.7  19.2  34172  289.78 0854.88
2009/04/23 12:19:46.0     176    213     61    277    284  39.7  12.6  34170  289.73 0854.88
2009/04/23 12:19:46.1     190    179     67    262    271  46.8  14.5  34174  289.80 0854.88
2009/04/23 12:19:46.2     165    196     89    257    273  40.1  19.2  34212  290.46 0854.88
2009/04/23 12:19:46.3     203    129     81    241    255  57.6  18.6  34228  290.71 0854.88
2009/04/23 12:19:46.4     207     98    118    230    258  64.6  29.3  34274  291.50 0854.88
2009/04/23 12:19:46.5     192     83    148    210    256  66.5  38.6  34290  291.77 0854.88
2009/04/23 12:19:46.6     146     79    192    167    254  61.4  54.6  34312  292.15 0854.88
2009/04/23 12:19:46.7     138    121    157    184    241  48.9  44.9  34300  291.96 0854.88
2009/04/23 12:19:46.8      59    197     86    206    223  16.9  23.6  34252  291.13 0854.88
2009/04/23 12:19:46.9      18    232     50    233    239   4.5  12.1  34192  290.12 0854.88
2009/04/23 12:19:47.0      44    255     51    259    265   9.8  11.1  34204  290.31 0854.88
2009/04/23 12:19:47.1      19    254     -5    255    256   4.4  -1.2  34204  290.31 0854.88
2009/04/23 12:19:47.2     -15    204     -4    205    206 355.5  -1.2  34238  290.89 0854.88
2009/04/23 12:19:47.3      51    154     44    163    169  18.3  15.3  34256  291.20 0854.88
2009/04/23 12:19:47.4     107    168     78    200    214  32.6  22.5  34302  291.98 0854.88
2009/04/23 12:19:47.5      92    194    -15    215    216  25.5  -4.1  34278  291.57 0854.88
2009/04/23 12:19:47.6     127    117      1    174    175  47.3   0.5  34254  291.16 0854.88
2009/04/23 12:19:47.7     134     93     -9    164    165  55.1  -3.3  34240  290.94 0854.88
2009/04/23 12:19:47.8     144     82    -27    167    170  60.2  -9.3  34224  290.65 0854.89
2009/04/23 12:19:47.9     110     30     18    115    117  74.9   8.9  34214  290.50 0854.89
2009/04/23 12:19:48.0     134     -1     67    135    150  90.8  27.8  34206  290.35 0854.89
2009/04/23 12:19:48.1     113    -40     82    120    145 109.5  37.6  34216  290.53 0854.89
2009/04/23 12:19:48.2     118    -75    114    141    181 122.5  43.3  34190  290.09 0854.89
2009/04/23 12:19:48.3     107    -67     99    127    161 122.0  42.0  34180  289.91 0854.89
2009/04/23 12:19:48.4     110    -46     70    120    138 112.6  33.4  34186  290.01 0854.89
2009/04/23 12:19:48.5      92    -28     79     97    125 107.3  43.7  34186  290.01 0854.89
2009/04/23 12:19:48.6      52    -61     53     81     96 139.5  35.6  34184  289.97 0854.89
2009/04/23 12:19:48.7       0    -98     83     99    129 179.5  43.8  34194  290.14 0854.89
2009/04/23 12:19:48.8       4    -89     74     90    116 177.3  43.7  34204  290.33 0854.89
2009/04/23 12:19:48.9     -25   -124     63    127    141 191.6  28.2  34224  290.65 0854.89
2009/04/23 12:19:49.0     -47   -113     64    123    138 202.7  29.3  34232  290.81 0854.89
2009/04/23 12:19:49.1     -57   -120     60    133    145 205.4  25.7  34242  290.98 0854.89
2009/04/23 12:19:49.2     -77   -119     36    143    148 213.0  14.3  34244  291.01 0854.89
2009/04/23 12:19:49.3     -99   -120     29    156    159 219.6  10.8  34258  291.23 0854.89
2009/04/23 12:19:49.4    -120   -120      1    170    171 225.0   0.5  34258  291.23 0854.89
2009/04/23 12:19:49.5    -129   -141     62    192    202 222.5  17.9  34238  290.89 0854.89
2009/04/23 12:19:49.6    -158   -148     40    217    221 226.8  10.6  34230  290.75 0854.89
2009/04/23 12:19:49.7    -143   -136     61    198    208 226.4  17.3  34232  290.79 0854.89
2009/04/23 12:19:49.8    -109   -149     53    185    193 216.1  16.0  34248  291.08 0854.89
2009/04/23 12:19:49.9     -85   -212     35    229    232 201.8   8.9  34240  290.94 0854.89
2009/04/23 12:19:50.0     -79   -199     35    215    218 201.8   9.3  34228  290.72 0854.89
2009/04/23 12:19:50.1     -70   -195     27    208    210 200.0   7.5  34218  290.57 0854.89
2009/04/23 12:19:50.2     -80   -178    -15    196    197 204.1  -4.6  34216  290.53 0854.89
2009/04/23 12:19:50.3     -94   -151    -36    178    182 211.9 -11.5  34194  290.14 0854.89
2009/04/23 12:19:50.4    -150   -137     -9    204    205 227.6  -2.8  34186  290.01 0854.89
2009/04/23 12:19:50.5    -182   -132    -45    225    230 234.0 -11.3  34142  289.26 0854.89
2009/04/23 12:19:50.6    -229    -60    -54    237    244 255.2 -12.9  34134  289.12 0854.89
2009/04/23 12:19:50.7    -233    -54     -9    240    241 256.8  -2.2  34134  289.12 0854.89
2009/04/23 12:19:50.8    -246   -171     16    300    301 235.1   3.1  34142  289.25 0854.89
2009/04/23 12:19:50.9    -234   -159    -78    283    294 235.8 -15.4  34132  289.09 0854.89
2009/04/23 12:19:51.0    -142   -237    -95    277    292 211.0 -24.0  34136  289.17 0854.89
2009/04/23 12:19:51.1     -76   -227    -83    240    253 198.7 -24.0  34134  289.12 0854.89
2009/04/23 12:19:51.2     -93   -183   -101    206    229 207.1 -32.2  34132  289.11 0854.89
2009/04/23 12:19:51.3     -69   -151   -122    167    206 204.5 -44.3  34136  289.18 0854.89
2009/04/23 12:19:51.4     -98   -118    -95    154    180 219.7 -39.2  34134  289.13 0854.89
2009/04/23 12:19:51.5    -120    -64   -110    137    175 242.0 -47.4  34132  289.11 0854.89
2009/04/23 12:19:51.6     -83   -126    -88    152    175 213.4 -37.1  34130  289.08 0854.89
2009/04/23 12:19:51.7    -118   -139    -48    183    190 220.5 -14.7  34132  289.09 0854.89
2009/04/23 12:19:51.8     -95   -171    -54    196    204 209.0 -15.5  34128  289.02 0854.89
2009/04/23 12:19:51.9    -125   -156    -18    201    202 218.7  -5.2  34126  288.99 0854.89
2009/04/23 12:19:52.0    -161   -171    -22    236    238 223.2  -5.4  34132  289.10 0854.89
2009/04/23 12:19:52.1    -210   -125     -4    245    246 239.3  -1.2  34132  289.09 0854.89
2009/04/23 12:19:52.2    -208   -147     22    255    257 234.7   5.0  34132  289.09 0854.89
2009/04/23 12:19:52.3    -191    -67    -73    203    215 250.7 -25.1  34132  289.11 0854.89
2009/04/23 12:19:52.4    -185    -85    -81    204    219 245.2 -27.4  34132  289.09 0854.89
2009/04/23 12:19:52.5    -193    -32   -103    196    221 260.5 -34.2  34132  289.11 0854.89
2009/04/23 12:19:52.6    -140    -26   -135    143    196 259.4 -52.6  34136  289.16 0854.89
2009/04/23 12:19:52.7    -112    -37    -81    119    143 251.4 -42.0  34134  289.13 0854.89
2009/04/23 12:19:52.8     -66    -54    -90     86    124 230.5 -55.1  34134  289.13 0854.89
2009/04/23 12:19:52.9     -27    -83   -110     88    140 198.3 -61.3  34132  289.11 0854.89
2009/04/23 12:19:53.0       4    -63    -90     64    110 176.4 -65.0  34134  289.13 0854.89
2009/04/23 12:19:53.1      21   -128    -98    130    162 170.3 -45.1  34134  289.13 0854.89
2009/04/23 12:19:53.2     -66   -163    -40    176    181 202.1 -12.9  34132  289.11 0854.89
2009/04/23 12:19:53.3     -99   -160    -22    189    191 211.9  -6.9  34134  289.14 0854.89
2009/04/23 12:19:53.4     -76   -138      2    158    159 208.9   0.8  34134  289.13 0854.89
2009/04/23 12:19:53.5     -65   -102     42    122    130 212.5  19.2  34136  289.16 0854.89
2009/04/23 12:19:53.6     -45   -114     26    123    126 201.8  12.2  34138  289.19 0854.89
2009/04/23 12:19:53.7     -24   -120    -11    123    124 191.6  -5.2  34138  289.19 0854.89
2009/04/23 12:19:53.8     -41   -105      5    113    114 201.4   2.8  34140  289.23 0854.89
2009/04/23 12:19:53.9     -53    -84     26    100    104 212.5  14.7  34144  289.30 0854.89
2009/04/23 12:19:54.0     -16   -104     13    106    107 188.9   7.1  34138  289.21 0854.89
2009/04/23 12:19:54.1       4   -100      0    101    102 177.3   0.2  34136  289.16 0854.89
2009/04/23 12:19:54.2     -53   -116    -16    128    130 204.5  -7.2  34134  289.14 0854.89
2009/04/23 12:19:54.3     -51    -51    -24     73     76 225.0 -23.8  34134  289.13 0854.89
2009/04/23 12:19:54.4     -62    -15     -3     64     65 255.8  -3.2  34142  289.26 0854.89
2009/04/23 12:19:54.5     -72    -24     -1     76     77 251.4  -1.3  34140  289.23 0854.89
2009/04/23 12:19:54.6     -92    -18     61     94    112 258.5  35.6  34146  289.33 0854.89
2009/04/23 12:19:54.7     -83    -41     52     93    106 243.8  31.4  34148  289.36 0854.89
2009/04/23 12:19:54.8     -70    -33     37     78     86 244.6  27.2  34148  289.36 0854.88
2009/04/23 12:19:54.9     -35    -30     39     47     61 229.6  43.8  34148  289.36 0854.88
2009/04/23 12:19:55.0     -51    -28     40     59     71 241.1  36.5  34150  289.40 0854.88
2009/04/23 12:19:55.1     -82    -50     -2     97     98 238.5  -1.3  34150  289.41 0854.88
2009/04/23 12:19:55.2     -70    -35    -13     79     81 242.9  -9.8  34152  289.43 0854.88
2009/04/23 12:19:55.3     -50    -56     12     76     78 221.4   9.5  34152  289.45 0854.88
2009/04/23 12:19:55.4     -44    -61     15     76     78 216.1  11.1  34150  289.41 0854.88
2009/04/23 12:19:55.5     -62    -33    -31     71     77 242.0 -29.5  34144  289.30 0854.88
2009/04/23 12:19:55.6    -161   -132    -42    209    214 230.5 -11.3  34134  289.14 0854.88
2009/04/23 12:19:55.7    -229   -138    -30    268    270 238.9  -6.5  34134  289.14 0854.88
2009/04/23 12:19:55.8    -224   -138    -40    264    268 238.4  -8.6  34136  289.15 0854.88
2009/04/23 12:19:55.9    -203   -130    -43    242    246 237.4 -10.3  34138  289.19 0854.88
2009/04/23 12:19:56.0    -165   -155   -105    227    250 226.9 -31.0  34136  289.15 0854.88
2009/04/23 12:19:56.1     -99   -106    -90    146    171 223.2 -39.2  34138  289.19 0854.88
2009/04/23 12:19:56.2    -202   -162   -157    260    303 231.3 -38.4  34124  288.97 0854.88
2009/04/23 12:19:56.3    -218   -160   -125    271    298 233.8 -31.0  34130  289.05 0854.88
2009/04/23 12:19:56.4    -213   -155   -103    264    283 234.0 -26.7  34126  289.00 0854.88
2009/04/23 12:19:56.5    -181   -144   -102    232    253 231.6 -29.7  34134  289.14 0854.88
2009/04/23 12:19:56.6    -147    -98   -123    177    215 236.3 -43.0  34134  289.13 0854.88
2009/04/23 12:19:56.7    -145   -148   -153    208    258 224.5 -44.1  34136  289.15 0854.88
2009/04/23 12:19:56.8     -77   -193   -168    208    267 201.8 -47.7  34132  289.10 0854.89
2009/04/23 12:19:56.9     -14   -182    -58    183    191 184.5 -22.8  34134  289.13 0854.89
2009/04/23 12:19:57.0     -22   -164    -70    166    180 187.8 -28.5  34134  289.13 0854.89
2009/04/23 12:19:57.1     -23   -178    -65    180    191 187.6 -24.6  34136  289.16 0854.89
2009/04/23 12:19:57.2     -11   -154   -134    155    204 184.4 -50.0  34136  289.18 0854.89
2009/04/23 12:19:57.3      14   -153   -127    154    199 174.7 -48.1  34136  289.18 0854.89
2009/04/23 12:19:57.4      53   -170    -60    179    188 162.6 -23.6  34134  289.14 0854.89
2009/04/23 12:19:57.5      70   -109    -37    130    136 147.4 -16.0  34132  289.09 0854.89
2009/04/23 12:19:57.6     125    -98    -57    160    170 128.2 -19.7  34136  289.18 0854.89
2009/04/23 12:19:57.7     117   -116    -42    165    171 134.8 -14.5  34134  289.13 0854.89
2009/04/23 12:19:57.8     170   -108    -29    202    205 122.5  -8.2  34134  289.14 0854.89
2009/04/23 12:19:57.9     158    -79     -2    177    178 116.6  -0.7  34134  289.14 0854.89
2009/04/23 12:19:58.0     120    -90     21    151    153 126.9   8.0  34136  289.16 0854.89
2009/04/23 12:19:58.1     102   -140     22    174    176 143.7   7.5  34136  289.18 0854.89
2009/04/23 12:19:58.2      88   -186     40    206    210 154.7  11.0  34136  289.16 0854.89
2009/04/23 12:19:58.3     120   -157     10    198    199 142.6   2.9  34134  289.13 0854.89
2009/04/23 12:19:58.4     108   -104    -27    151    154 134.0 -10.3  34136  289.18 0854.89
2009/04/23 12:19:58.5     143   -166     76    220    234 139.2  19.2  34134  289.13 0854.89
2009/04/23 12:19:58.6     171   -165     22    238    240 134.0   5.4  34138  289.19 0854.89
2009/04/23 12:19:58.7     178   -130    -33    221    224 126.2  -8.6  34134  289.13 0854.89
2009/04/23 12:19:58.8     164   -162    -65    231    239 134.7 -20.7  34140  289.22 0854.90
2009/04/23 12:19:58.9     133   -142    -58    195    203 136.8 -21.7  34140  289.24 0854.90
2009/04/23 12:19:59.0      97   -138    -42    169    175 144.8 -13.9  34140  289.24 0854.90
2009/04/23 12:19:59.1      67   -198    -89    210    228 161.3 -28.7  34142  289.26 0854.90
2009/04/23 12:19:59.2      68   -218    -86    229    244 162.6 -25.7  34144  289.29 0854.90
2009/04/23 12:19:59.3     175   -192    -18    260    261 137.7  -4.1  34144  289.29 0854.90
2009/04/23 12:19:59.4     105   -216    -54    241    248 154.1 -12.6  34136  289.17 0854.90
2009/04/23 12:19:59.5     122   -239    -74    269    280 152.9 -15.5  34142  289.25 0854.90
2009/04/23 12:19:59.6     184   -236    -95    300    315 142.2 -17.7  34140  289.22 0854.90
2009/04/23 12:19:59.7     247   -247    -13    350    351 135.0  -2.2  34138  289.21 0854.90
2009/04/23 12:19:59.8     201   -176    120    268    293 131.3  25.9  34138  289.19 0854.90
2009/04/23 12:19:59.9     146   -222    174    266    317 146.6  36.4  34136  289.17 0854.90
2009/04/23 12:20:00.0     121   -252      5    280    281 154.4   1.2  34140  289.24 0854.90
2009/04/23 12:20:00.1     187   -302    -33    356    358 148.3  -5.3  34136  289.16 0854.90
2009/04/23 12:20:00.2     104   -268    -67    288    296 158.8 -13.2  34142  289.27 0854.90
2009/04/23 12:20:00.3     153   -201    -46    253    258 142.8 -10.3  34142  289.25 0854.90
2009/04/23 12:20:00.4     156   -239   -139    286    317 146.8 -32.3  34144  289.31 0854.90
2009/04/23 12:20:00.5     130   -326    -67    352    359 158.2 -10.9  34142  289.26 0854.90
2009/04/23 12:20:00.6      77   -262     31    274    276 163.5   6.5  34142  289.27 0854.90
2009/04/23 12:20:00.7     120   -274     70    300    309 156.3  13.1  34144  289.29 0854.90
2009/04/23 12:20:00.8     208   -220    132    304    331 136.6  24.9  34134  289.12 0854.89
2009/04/23 12:20:00.9     168   -220    -25    277    279 142.6  -5.2  34142  289.27 0854.89
2009/04/23 12:20:01.0     227   -315     44    389    392 144.2   6.6  34140  289.23 0854.89
2009/04/23 12:20:01.1     162   -121    -34    203    206 126.9  -9.6  34142  289.26 0854.89
2009/04/23 12:20:01.2     201    -54     11    209    210 105.1   3.1  34144  289.30 0854.89
2009/04/23 12:20:01.3     197    -71     57    210    218 110.0  15.2  34138  289.19 0854.89
2009/04/23 12:20:01.4     191    -54    125    199    235 105.9  35.2  34140  289.24 0854.89
2009/04/23 12:20:01.5     132    -72    124    151    195 118.9  43.7  34138  289.19 0854.89
2009/04/23 12:20:01.6     187   -111    121    218    249 120.6  31.4  34138  289.20 0854.89
2009/04/23 12:20:01.7     174   -184    166    254    303 136.7  36.0  34136  289.17 0854.89
2009/04/23 12:20:01.8     223   -109     25    249    251 116.2   5.9  34136  289.15 0854.89
2009/04/23 12:20:01.9     157   -102     -4    188    189 123.1  -1.3  34140  289.24 0854.89
2009/04/23 12:20:02.0     200   -162     -5    258    259 129.1  -1.2  34142  289.27 0854.89
2009/04/23 12:20:02.1     183    -93     41    206    211 116.9  11.4  34140  289.24 0854.89
2009/04/23 12:20:02.2     184    -41    116    189    221 102.8  34.8  34136  289.18 0854.89
2009/04/23 12:20:02.3     160    -15     99    161    189  95.7  35.0  34142  289.26 0854.89
2009/04/23 12:20:02.4     105      0     47    106    115  90.4  25.7  34142  289.28 0854.89
2009/04/23 12:20:02.5     166     -8     21    167    169  92.8   7.2  34142  289.26 0854.89
2009/04/23 12:20:02.6     211     33      6    214    215  81.0   1.8  34140  289.24 0854.89
2009/04/23 12:20:02.7     145     45     72    152    168  72.7  27.2  34142  289.26 0854.89
2009/04/23 12:20:02.8     127     50     33    137    142  68.3  13.7  34142  289.26 0854.87
2009/04/23 12:20:02.9      78     43     74     90    116  61.1  43.7  34140  289.23 0854.87
2009/04/23 12:20:03.0      65     78     74    102    126  39.7  39.7  34142  289.26 0854.87
2009/04/23 12:20:03.1      83     72     80    110    136  49.1  39.7  34144  289.30 0854.87
2009/04/23 12:20:03.2      24    120     70    123    141  11.5  31.9  34144  289.30 0854.87
2009/04/23 12:20:03.4      49     50     74     71    102  44.1  51.2  34142  289.26 0854.87
2009/04/23 12:20:03.4      21     64     49     68     83  18.3  39.7  34144  289.30 0854.87
2009/04/23 12:20:03.5      -8     57     32     58     66 352.0  31.4  34144  289.30 0854.87
2009/04/23 12:20:03.6     -16     36     37     40     54 335.5  49.0  34144  289.31 0854.87
2009/04/23 12:20:03.7     -32     20     53     39     65 302.4  60.5  34146  289.35 0854.87
2009/04/23 12:20:03.8       5     17     68     18     70  18.5  84.9  34146  289.33 0854.87
2009/04/23 12:20:03.9      16     16     52     23     56  45.0  75.0  34144  289.31 0854.87
2009/04/23 12:20:04.0       9     19     32     22     38  25.4  62.6  34146  289.35 0854.87
2009/04/23 12:20:04.1      24     12      6     27     28  62.9  13.2  34148  289.36 0854.87
2009/04/23 12:20:04.2      16     18    -10     25     26  41.4 -25.4  34146  289.33 0854.87
2009/04/23 12:20:04.3      15     23      4     28     29  34.3   9.0  34148  289.36 0854.87
2009/04/23 12:20:04.4     -11     23     36     26     44 334.6  60.5  34156  289.52 0854.87
2009/04/23 12:20:04.6     -13     30     47     33     57 336.4  61.5  34154  289.48 0854.87
2009/04/23 12:20:04.7       6     26     47     27     54  13.4  66.8  34152  289.43 0854.87
2009/04/23 12:20:04.8       0     29     56     30     63 359.1  68.9  34154  289.48 0854.87
2009/04/23 12:20:04.9       7     23     63     25     67  18.5  77.1  34152  289.45 0854.82
2009/04/23 12:20:05.0       0     51     60     52     79 359.1  54.8  34150  289.41 0854.82
2009/04/23 12:20:05.1     -23     70     64     74     97 341.5  45.8  34150  289.41 0854.82
2009/04/23 12:20:05.1     -37     72     65     82    104 332.8  42.7  34148  289.38 0854.82
2009/04/23 12:20:05.3      -3    101     30    102    107 357.8  16.3  34148  289.38 0854.82
2009/04/23 12:20:05.4     -34    104     13    110    111 341.7   6.9  34148  289.38 0854.82
2009/04/23 12:20:05.5     -31     92    -30     98    103 341.5 -17.0  34148  289.38 0854.82
2009/04/23 12:20:05.6      34    114    -31    120    124  16.9 -14.5  34148  289.36 0854.82
2009/04/23 12:20:05.7      31     76    -10     83     84  22.3  -7.3  34150  289.40 0854.82
2009/04/23 12:20:05.8      68     59     32     91     97  49.1  19.4  34150  289.40 0854.82
2009/04/23 12:20:05.9      35     78      4     86     87  24.5   2.9  34146  289.35 0854.82
2009/04/23 12:20:06.0      25     85     17     89     91  16.9  11.0  34148  289.38 0854.82
2009/04/23 12:20:06.1      25     74     16     79     81  18.7  11.6  34146  289.35 0854.82
2009/04/23 12:20:06.2      45     54     43     71     83  39.6  34.0  34158  289.55 0854.82
2009/04/23 12:20:06.3      73     88     42    115    122  39.7  20.9  34174  289.80 0854.82
2009/04/23 12:20:06.4      40     85     57     95    110  25.4  34.4  34166  289.69 0854.82
2009/04/23 12:20:06.5       0     93     95     94    133   0.0  50.1  34172  289.77 0854.82
2009/04/23 12:20:06.6     -17     51     82     54     98 341.3  63.6  34172  289.77 0854.82
2009/04/23 12:20:06.7     -41     33     46     53     70 308.6  44.8  34168  289.70 0854.82
2009/04/23 12:20:06.8     -72     12     58     74     94 279.7  42.2  34168  289.72 0854.82
2009/04/23 12:20:06.9     -76      0     44     77     88 270.0  32.4  34166  289.67 0854.83
2009/04/23 12:20:07.0     -30    -31     -5     44     45 224.2  -7.3  34162  289.62 0854.83
2009/04/23 12:20:07.1       0    -16     46     17     49 182.7  81.2  34164  289.63 0854.83
2009/04/23 12:20:07.2      15      0     65     16     66  90.0  85.9  34160  289.58 0854.83
2009/04/23 12:20:07.3      -6    -15     84     17     85 201.8  89.6  34166  289.67 0854.83
2009/04/23 12:20:07.4     -32      0     71     33     78 269.2  73.5  34166  289.67 0854.83
2009/04/23 12:20:07.5    -101    -15     73    103    126 261.2  39.1  34174  289.80 0854.83
2009/04/23 12:20:07.6     -91     10     34     92     98 276.6  21.5  34176  289.85 0854.83
2009/04/23 12:20:07.7     -94    -13     32     95    101 262.1  18.9  34170  289.74 0854.83
2009/04/23 12:20:07.8     -67     32     42     75     85 295.4  31.9  34164  289.63 0854.83
2009/04/23 12:20:07.9     -69      0     33     70     77 270.0  27.1  34158  289.55 0854.83
2009/04/23 12:20:08.0    -127      7     47    128    136 273.5  20.9  34154  289.48 0854.83
2009/04/23 12:20:08.1    -139      0     42    140    147 270.4  16.8  34156  289.52 0854.83
2009/04/23 12:20:08.2     -98    -32     35    104    111 251.6  18.9  34156  289.52 0854.83
2009/04/23 12:20:08.3     -50    -92     33    105    111 208.5  17.3  34152  289.45 0854.83
2009/04/23 12:20:08.4     -31   -196     80    199    214 189.1  23.0  34152  289.45 0854.83
2009/04/23 12:20:08.5     -11   -253     94    254    270 182.7  21.0  34154  289.46 0854.83
2009/04/23 12:20:08.6     -77   -303    113    313    332 194.3  20.7  34150  289.41 0854.83
2009/04/23 12:20:08.7    -108   -326    120    344    365 198.3  19.3  34148  289.38 0854.83
2009/04/23 12:20:08.8    -174   -427    170    462    492 202.2  21.3  34162  289.59 0854.83
2009/04/23 12:20:08.9    -237   -481    199    537    572 206.3  21.4  34162  289.60 0854.85
2009/04/23 12:20:09.0    -325   -346     49    475    478 223.2   6.0  34156  289.50 0854.85
2009/04/23 12:20:09.1    -347   -286   -127    450    468 230.5 -15.8  34170  289.73 0854.85
2009/04/23 12:20:09.2    -350   -204    -44    406    409 239.8  -6.2  34158  289.55 0854.85
2009/04/23 12:20:09.3    -361   -206    -99    416    428 240.3 -13.4  34148  289.36 0854.85
2009/04/23 12:20:09.4    -423   -242   -150    488    510 240.2 -21.9  34148  289.37 0854.85
2009/04/23 12:20:09.5    -453   -194    -84    493    501 246.8  -9.7  34152  289.44 0854.85
2009/04/23 12:20:09.6    -570   -356    -88    673    679 238.0  -7.5  34152  289.44 0854.85
2009/04/23 12:20:09.7    -540   -337    -84    637    643 238.0  -7.6  34144  289.31 0854.85
2009/04/23 12:20:09.8    -598   -199   -212    631    666 251.5 -18.6  34136  289.16 0854.85
2009/04/23 12:20:09.9    -650   -268   -197    704    731 247.6 -20.3  34138  289.20 0854.85
2009/04/23 12:20:10.0    -451   -150   -164    476    504 251.6 -19.1  34136  289.18 0854.85
2009/04/23 12:20:10.1    -124   -288   -132    314    340 203.4 -28.5  34152  289.43 0854.85
2009/04/23 12:20:10.2    -327   -166   -150    367    396 243.0 -27.9  34142  289.25 0854.85
2009/04/23 12:20:10.3    -173   -196   -181    262    318 221.4 -42.4  34148  289.37 0854.85
2009/04/23 12:20:10.4    -177   -183    -75    255    265 224.1 -21.5  34150  289.39 0854.85
2009/04/23 12:20:10.5     -16   -308    -68    309    317 183.1 -12.5  34150  289.41 0854.85
2009/04/23 12:20:10.6     -83   -300     58    312    318 195.6  10.6  34156  289.51 0854.85
2009/04/23 12:20:10.7    -182   -311     98    361    375 210.3  15.3  34164  289.64 0854.85
2009/04/23 12:20:10.8    -103   -225     60    248    256 204.7  13.7  34160  289.58 0854.85
2009/04/23 12:20:10.9     -34   -278     23    281    283 187.1   4.9  34156  289.49 0854.87
2009/04/23 12:20:11.0    -138   -209     87    251    266 213.4  19.2  34160  289.56 0854.87
2009/04/23 12:20:11.1    -219   -217    109    309    327 225.2  20.2  34158  289.53 0854.87
2009/04/23 12:20:11.2    -252   -207     89    327    340 230.6  15.3  34148  289.38 0854.87
2009/04/23 12:20:11.3    -347   -162      7    383    384 245.0   1.1  34148  289.37 0854.87
2009/04/23 12:20:11.4    -293    -94     60    308    314 252.2  11.1  34148  289.37 0854.87
2009/04/23 12:20:11.5    -198    -73     27    212    214 249.8   7.5  34150  289.40 0854.87
2009/04/23 12:20:11.6    -117    141     85    184    202 320.4  26.4  34144  289.31 0854.87
2009/04/23 12:20:11.7      33    221     78    224    237   8.5  20.0  34174  289.80 0854.87
2009/04/23 12:20:11.8     105     52    191    118    224  63.8  65.1  34152  289.43 0854.87
2009/04/23 12:20:11.9     -98   -204    180    227    289 205.6  42.7  34146  289.34 0854.89
2009/04/23 12:20:12.0    -130   -230    115    265    288 209.4  25.1  34146  289.32 0854.89
2009/04/23 12:20:12.1     -31   -283     77    285    296 186.3  15.2  34144  289.31 0854.89
2009/04/23 12:20:12.2     -20   -267     27    268    270 184.5   5.9  34146  289.32 0854.89
2009/04/23 12:20:12.3      19   -278     23    279    281 176.0   4.9  34146  289.32 0854.89
2009/04/23 12:20:12.4      82   -139     66    162    174 149.3  23.4  34152  289.43 0854.89
2009/04/23 12:20:12.5      73   -217     75    230    243 161.3  18.1  34150  289.41 0854.89
2009/04/23 12:20:12.6      73   -314    102    323    339 166.9  17.5  34144  289.30 0854.89
2009/04/23 12:20:12.7      30   -292     53    294    299 174.0  10.3  34146  289.32 0854.89
2009/04/23 12:20:12.8     -23   -296     -1    297    298 184.5  -0.3  34150  289.39 0854.89
2009/04/23 12:20:12.9     -50   -362    -17    366    367 188.0  -2.8  34148  289.37 0854.89
2009/04/23 12:20:13.0     -48   -382     32    386    388 187.2   4.9  34142  289.25 0854.89
2009/04/23 12:20:13.1    -149   -342     87    374    384 203.6  13.1  34142  289.26 0854.89
2009/04/23 12:20:13.2    -237   -347     23    421    422 214.3   3.1  34148  289.36 0854.89
2009/04/23 12:20:13.3    -181   -350    -22    395    396 207.4  -3.3  34144  289.30 0854.89
2009/04/23 12:20:13.4    -149   -271     -6    310    311 208.9  -1.2  34142  289.25 0854.89
2009/04/23 12:20:13.5    -212   -228    -25    312    314 223.0  -4.6  34154  289.47 0854.89
2009/04/23 12:20:13.6     -93   -323     -7    337    338 196.0  -1.3  34140  289.23 0854.89
2009/04/23 12:20:13.7     -83   -250    -24    264    266 198.5  -5.2  34144  289.29 0854.89
2009/04/23 12:20:13.8     -71   -159    -68    175    187 204.1 -26.7  34152  289.45 0854.89
2009/04/23 12:20:13.9     -40   -119    -40    126    133 198.7 -17.6  34154  289.48 0854.91
2009/04/23 12:20:14.0      57   -259     60    266    273 167.5  12.9  34154  289.46 0854.91
2009/04/23 12:20:14.1      74   -354     20    362    363 168.1   3.2  34140  289.23 0854.91
2009/04/23 12:20:14.2      50   -332    126    336    358 171.4  21.5  34142  289.26 0854.91
2009/04/23 12:20:14.3      67   -264    194    273    334 165.7  39.0  34142  289.25 0854.91
2009/04/23 12:20:14.4      58   -269    170    276    324 167.7  34.8  34142  289.25 0854.91
2009/04/23 12:20:14.5      67   -331    167    339    377 168.4  28.1  34142  289.28 0854.91
2009/04/23 12:20:14.6     130   -333    129    358    381 158.6  19.9  34140  289.23 0854.91
2009/04/23 12:20:14.7     116   -381    164    399    431 163.1  23.6  34144  289.29 0854.91
2009/04/23 12:20:14.8      87   -301    161    314    352 163.9  29.3  34142  289.28 0854.91
2009/04/23 12:20:14.9      71   -298    170    307    350 166.6  31.4  34146  289.33 0854.91
2009/04/23 12:20:15.0      87   -391    138    401    425 167.4  19.1  34150  289.39 0854.91
2009/04/23 12:20:15.1      53   -390    185    394    435 172.2  27.1  34154  289.48 0854.91
2009/04/23 12:20:15.2      76   -413    202    420    466 169.5  27.3  34150  289.41 0854.91
2009/04/23 12:20:15.3      99   -379    203    392    441 165.3  29.3  34148  289.36 0854.91
2009/04/23 12:20:15.4     169   -385    151    421    447 156.3  20.6  34144  289.31 0854.91
2009/04/23 12:20:15.5      33   -377    156    379    409 174.9  23.6  34152  289.42 0854.91
2009/04/23 12:20:15.6     -24   -399    131    400    421 183.5  18.1  34148  289.36 0854.91
2009/04/23 12:20:15.7     -57   -409    156    414    442 188.0  21.7  34154  289.46 0854.91
2009/04/23 12:20:15.8     -36   -286    177    289    338 187.2  34.6  34146  289.34 0854.91
2009/04/23 12:20:15.9       8   -257    140    258    293 178.2  31.0  34150  289.41 0854.93
2009/04/23 12:20:16.0     -17   -195    220    196    294 185.1  54.0  34152  289.42 0854.93
2009/04/23 12:20:16.1     -19   -118    114    120    165 189.3  48.7  34152  289.43 0854.93
2009/04/23 12:20:16.2      86    -71     91    112    144 129.6  43.7  34154  289.46 0854.93
2009/04/23 12:20:16.3      31   -112     71    117    136 164.4  34.4  34152  289.45 0854.93
2009/04/23 12:20:16.4     -72    -61     90     95    130 229.6  48.5  34150  289.41 0854.93
2009/04/23 12:20:16.5    -108     -8     76    109    132 265.6  38.0  34154  289.48 0854.93
2009/04/23 12:20:16.6     -17   -108    183    110    213 189.3  66.2  34152  289.45 0854.93
2009/04/23 12:20:16.7     -49   -254    247    259    357 191.1  48.6  34150  289.40 0854.93
2009/04/23 12:20:16.8    -162   -215    177    270    322 217.0  36.3  34148  289.36 0854.93
2009/04/23 12:20:16.9    -145   -293    122    328    349 206.4  21.3  34146  289.35 0854.93
2009/04/23 12:20:17.0    -198   -327    198    383    431 211.1  29.3  34150  289.41 0854.93
2009/04/23 12:20:17.1    -148   -226    197    271    335 213.2  39.7  34152  289.44 0854.93
2009/04/23 12:20:17.2     -20   -200    177    202    268 185.8  45.8  34148  289.36 0854.93
2009/04/23 12:20:17.3      -8   -202     88    203    221 182.5  24.9  34142  289.28 0854.93
2009/04/23 12:20:17.4     100   -156     23    186    188 147.4   7.1  34148  289.36 0854.93
2009/04/23 12:20:17.5      50   -100    -34    113    118 153.3 -21.7  34152  289.45 0854.93
2009/04/23 12:20:17.6       3    -35    -55     36     65 173.8 -69.0  34152  289.43 0854.93
2009/04/23 12:20:17.7     -62    151     57    164    174 337.5  19.4  34140  289.23 0854.93
2009/04/23 12:20:17.8     -20    132     58    134    146 351.1  25.1  34152  289.43 0854.93
2009/04/23 12:20:17.9      31    152     10    156    157  11.5   3.8  34152  289.43 0854.94
2009/04/23 12:20:18.0      -2    135    -22    136    138 359.1  -9.4  34152  289.43 0854.94
2009/04/23 12:20:18.1      -9     96    -31     97    101 354.2 -23.3  34154  289.46 0854.94
2009/04/23 12:20:18.2    -131     48     20    140    142 290.4   8.5  34154  289.48 0854.94
2009/04/23 12:20:18.3    -112     21     -5    115    116 281.0  -2.6  34154  289.46 0854.94
2009/04/23 12:20:18.4     -75    -48    -17     90     92 237.1 -10.9  34152  289.45 0854.94
2009/04/23 12:20:18.5      23    -72     27     76     80 161.7  20.0  34150  289.41 0854.94
2009/04/23 12:20:18.6      81    -40     41     91     99 116.2  26.2  34154  289.48 0854.94
2009/04/23 12:20:18.7      59    -16     41     62     74 105.1  35.6  34154  289.46 0854.94
2009/04/23 12:20:18.8      22    -22     78     32     84 134.9  77.1  34156  289.52 0854.94
2009/04/23 12:20:18.9      24      4     84     25     87  80.3  82.8  34152  289.43 0854.94
2009/04/23 12:20:19.0      22     33     83     40     92  34.3  72.9  34158  289.53 0854.94
2009/04/23 12:20:19.1     -24      4     69     25     73 279.7  81.2  34156  289.52 0854.94
2009/04/23 12:20:19.2     -14      1     39     15     41 274.4  78.2  34154  289.46 0854.94
2009/04/23 12:20:19.3      38      9     45     40     60  76.7  53.3  34156  289.50 0854.94
2009/04/23 12:20:19.4      39    -24     67     46     81 121.5  62.1  34156  289.52 0854.94
2009/04/23 12:20:19.5     -19     -6     42     20     46 251.8  72.9  34158  289.53 0854.94
2009/04/23 12:20:19.6     -50      0     51     51     72 270.0  50.1  34158  289.53 0854.94
2009/04/23 12:20:19.7     -70     16     -2     72     73 283.3  -2.2  34154  289.46 0854.94
2009/04/23 12:20:19.8     -51     98    -14    111    112 332.4  -7.2  34152  289.45 0854.94
2009/04/23 12:20:19.9      19    144     17    146    148   7.6   6.9  34150  289.41 0854.95
2009/04/23 12:20:20.0     -24    113     31    116    121 348.0  15.3  34152  289.43 0854.95
2009/04/23 12:20:20.1     -47    115     73    125    144 337.7  33.4  34152  289.45 0854.95
2009/04/23 12:20:20.2     -29     48     66     57     87 328.4  54.3  34154  289.46 0854.95
2009/04/23 12:20:20.3      -1     58     69     59     90 358.2  55.4  34152  289.45 0854.95
2009/04/23 12:20:20.4      20    109     94    111    145  10.7  44.3  34150  289.40 0854.95
2009/04/23 12:20:20.5      23     92     57     95    110  14.3  34.4  34152  289.45 0854.95
2009/04/23 12:20:20.6       5     45     74     46     87   7.1  64.7  34154  289.48 0854.95
2009/04/23 12:20:20.7       0     24     73     25     77   0.9  81.2  34156  289.52 0854.95
2009/04/23 12:20:20.8      -1    -39     47     40     61 182.6  55.4  34158  289.53 0854.95
2009/04/23 12:20:20.9     -41    -11     78     43     89 254.9  68.8  34158  289.55 0854.95
2009/04/23 12:20:21.0     -85     -7     33     86     92 264.8  21.5  34158  289.53 0854.95
2009/04/23 12:20:21.1     -98    -65     43    118    125 236.3  20.4  34156  289.52 0854.95
2009/04/23 12:20:21.2    -185     19    -15    186    187 275.9  -4.9  34156  289.52 0854.95
2009/04/23 12:20:21.3    -165     63      7    177    178 291.1   2.5  34158  289.55 0854.95
2009/04/23 12:20:21.4    -189     50     47    196    202 285.1  13.7  34158  289.55 0854.95
2009/04/23 12:20:21.5    -188    141     50    235    241 306.9  12.1  34158  289.53 0854.95
2009/04/23 12:20:21.6    -117    108     18    160    162 312.7   6.7  34150  289.40 0854.95
2009/04/23 12:20:21.7     -68     97     87    119    147 324.8  39.7  34156  289.52 0854.95
2009/04/23 12:20:21.8     -19     40     90     45    100 333.7  71.9  34162  289.60 0854.95
2009/04/23 12:20:21.9     -36     32     92     49    104 311.3  69.3  34158  289.53 0854.94
2009/04/23 12:20:22.0     -16     47     91     50    103 341.3  68.8  34160  289.58 0854.94
2009/04/23 12:20:22.1       7     23     90     25     93  18.5  84.4  34162  289.62 0854.94
2009/04/23 12:20:22.2      92     58    134    109    172  57.6  56.4  34158  289.55 0854.94
2009/04/23 12:20:22.3      70     62    132     94    162  48.7  61.1  34168  289.70 0854.94
2009/04/23 12:20:22.4      32     86     92     92    130  20.5  50.1  34160  289.57 0854.94
2009/04/23 12:20:22.5     111     82     84    139    162  53.6  34.2  34178  289.87 0854.94
2009/04/23 12:20:22.6     -68    134    118    151    191 332.9  42.2  34164  289.63 0854.94
2009/04/23 12:20:22.7    -180    150    114    235    261 309.8  27.4  34154  289.46 0854.94
2009/04/23 12:20:22.8     -89    120    118    150    190 323.5  42.4  34154  289.48 0854.94
2009/04/23 12:20:22.9      31    101    166    106    196  17.4  64.6  34164  289.65 0854.94
2009/04/23 12:20:23.0      -3    111    159    112    194 358.2  61.5  34164  289.65 0854.94
2009/04/23 12:20:23.1       0    135    131    136    188   0.0  49.0  34158  289.55 0854.94
2009/04/23 12:20:23.2     -58    184     79    194    209 342.4  23.1  34164  289.65 0854.94
2009/04/23 12:20:23.3     -37    113     98    120    154 341.7  43.7  34164  289.65 0854.94
2009/04/23 12:20:23.4     -71     70     47    101    111 314.6  27.1  34170  289.75 0854.94
2009/04/23 12:20:23.5    -111     68     91    131    159 301.5  38.4  34170  289.74 0854.94
2009/04/23 12:20:23.6    -167    -29     79    170    187 259.9  27.0  34166  289.69 0854.94
2009/04/23 12:20:23.7    -229    -97    162    249    297 246.9  36.0  34164  289.63 0854.94
2009/04/23 12:20:23.8     -96   -146    115    175    209 213.4  36.3  34166  289.67 0854.94
2009/04/23 12:20:23.9    -154   -106    171    188    254 235.4  47.5  34174  289.81 0854.93
2009/04/23 12:20:24.0      31     33    101     46    110  43.2  73.5  34162  289.60 0854.93
2009/04/23 12:20:24.1     135    -17    107    137    173  97.5  42.2  34158  289.55 0854.93
2009/04/23 12:20:24.2      30     19    116     36    121  57.6  82.3  34168  289.70 0854.93
2009/04/23 12:20:24.3    -120    -11    115    121    166 264.3  48.7  34170  289.74 0854.93
2009/04/23 12:20:24.4    -102   -112    217    152    264 222.3  61.5  34162  289.61 0854.93
2009/04/23 12:20:24.5    -147    -45     98    154    182 252.7  35.5  34164  289.65 0854.93
2009/04/23 12:20:24.6    -206   -111    137    235    272 241.6  33.1  34160  289.58 0854.93
2009/04/23 12:20:24.7    -230    -17    131    231    265 265.6  32.1  34164  289.63 0854.93
2009/04/23 12:20:24.8    -134   -110    134    174    219 230.7  41.6  34154  289.46 0854.93
2009/04/23 12:20:24.9     -76   -155    139    173    221 206.1  43.3  34156  289.50 0854.93
2009/04/23 12:20:25.0      -7    -94    158     95    184 184.5  66.2  34162  289.60 0854.93
2009/04/23 12:20:25.1     -76   -178    195    194    275 203.2  50.1  34168  289.71 0854.93
2009/04/23 12:20:25.2     -37   -137    186    142    234 195.2  58.7  34156  289.52 0854.93
2009/04/23 12:20:25.3      82    -63    123    104    161 127.3  55.6  34158  289.55 0854.93
2009/04/23 12:20:25.4     -19    -30    147     36    151 212.5  86.9  34164  289.63 0854.93
2009/04/23 12:20:25.5     -45   -136    136    144    198 198.3  48.2  34156  289.50 0854.93
2009/04/23 12:20:25.6     -93   -138     84    167    186 214.1  28.2  34164  289.65 0854.93
2009/04/23 12:20:25.7     -33   -102    122    108    162 197.8  53.7  34164  289.63 0854.93
2009/04/23 12:20:25.8     -85    -75     21    114    116 228.7  10.6  34152  289.45 0854.93
2009/04/23 12:20:25.9     -88    -56     17    105    107 237.5   9.5  34156  289.52 0854.91
2009/04/23 12:20:26.0    -128    -65     53    144    153 243.0  20.9  34166  289.69 0854.91
2009/04/23 12:20:26.1    -110    -80     17    137    139 234.0   7.1  34162  289.62 0854.91
2009/04/23 12:20:26.2     -30    -68     14     75     77 203.6  11.1  34162  289.62 0854.91
2009/04/23 12:20:26.3      34    -73     20     81     84 154.7  14.3  34158  289.55 0854.91
2009/04/23 12:20:26.4     -42   -103    127    112    169 202.3  54.3  34152  289.45 0854.91
2009/04/23 12:20:26.5     -27    -96    113    100    150 196.0  54.2  34152  289.45 0854.91
2009/04/23 12:20:26.6       9   -104    116    105    156 174.7  52.7  34152  289.43 0854.91
2009/04/23 12:20:26.7      -1    -78    128     79    150 180.9  64.7  34152  289.43 0854.91
2009/04/23 12:20:26.8       9    -41     87     42     96 167.5  72.8  34152  289.43 0854.91
2009/04/23 12:20:26.9      16    -69    118     71    137 166.6  66.7  34150  289.40 0854.91
2009/04/23 12:20:27.0    -131    -52    115    142    182 248.3  43.5  34166  289.67 0854.91
2009/04/23 12:20:27.1    -138    -70     72    155    170 242.9  26.6  34168  289.72 0854.91
2009/04/23 12:20:27.2    -106    -73    100    129    163 235.4  41.7  34168  289.72 0854.91
2009/04/23 12:20:27.3    -108    -89     32    140    144 230.5  13.1  34166  289.67 0854.91
2009/04/23 12:20:27.4     -92    -98    135    135    190 223.2  50.1  34150  289.41 0854.91
2009/04/23 12:20:27.5     -63   -160    145    173    225 201.6  43.8  34144  289.31 0854.91
2009/04/23 12:20:27.6     -84   -181    145    200    247 204.9  39.5  34150  289.39 0854.91
2009/04/23 12:20:27.7    -113   -142    130    182    223 218.5  39.3  34150  289.41 0854.91
2009/04/23 12:20:27.8    -140   -134    123    194    229 226.2  35.5  34160  289.58 0854.91
2009/04/23 12:20:27.9    -171   -172     88    243    259 224.8  19.9  34166  289.66 0854.90
2009/04/23 12:20:28.0    -125   -234     72    266    276 208.1  15.2  34168  289.71 0854.90
2009/04/23 12:20:28.1    -114   -193     88    225    241 210.5  22.3  34172  289.76 0854.90
2009/04/23 12:20:28.2     -97   -175    101    201    224 209.0  28.5  34168  289.72 0854.90
2009/04/23 12:20:28.3     -72   -229    111    241    265 197.4  26.6  34162  289.59 0854.90
2009/04/23 12:20:28.4     -45   -256     95    261    277 190.0  21.0  34154  289.47 0854.90
2009/04/23 12:20:28.5     -54   -245    131    251    283 192.5  29.8  34152  289.42 0854.90
2009/04/23 12:20:28.6     -84   -254    130    268    297 198.3  27.8  34152  289.44 0854.90
2009/04/23 12:20:28.7    -107   -297    108    316    335 200.0  18.9  34148  289.37 0854.90
2009/04/23 12:20:28.8    -126   -287     96    314    329 203.8  17.1  34150  289.39 0854.90
2009/04/23 12:20:28.9     -67   -288     75    296    306 193.3  14.3  34154  289.46 0854.90
2009/04/23 12:20:29.0     -23   -333     65    334    341 184.1  11.0  34152  289.45 0854.90
2009/04/23 12:20:29.1      -8   -324     39    325    328 181.5   6.9  34156  289.49 0854.90
2009/04/23 12:20:29.2    -133   -258    126    291    317 207.4  24.9  34154  289.47 0854.90
2009/04/23 12:20:29.3     -80   -257    226    270    352 197.4  44.2  34172  289.78 0854.90
2009/04/23 12:20:29.4       0   -293    213    294    363 180.1  39.7  34178  289.86 0854.90
2009/04/23 12:20:29.5      47   -195    189    201    275 166.2  48.0  34168  289.70 0854.90
2009/04/23 12:20:29.7      85   -135    121    160    200 147.9  40.9  34170  289.75 0854.90
2009/04/23 12:20:29.8     -48   -142     54    150    159 198.7  20.4  34168  289.70 0854.90
2009/04/23 12:20:29.8     -94   -271    107    287    306 199.2  21.3  34170  289.73 0854.90
2009/04/23 12:20:29.9     -63   -330     90    337    349 190.9  15.0  34184  289.99 0854.89
2009/04/23 12:20:30.0      28   -325     59    327    333 175.0  10.2  34196  290.18 0854.89
2009/04/23 12:20:30.1     -46   -295    106    299    318 188.9  19.6  34188  290.05 0854.89
2009/04/23 12:20:30.2     -62   -308     43    315    318 191.5   7.8  34178  289.86 0854.89
2009/04/23 12:20:30.3      51   -334    139    338    365 171.2  23.6  34154  289.48 0854.89
2009/04/23 12:20:30.4      29   -354    153    356    387 175.2  24.8  34154  289.48 0854.89
2009/04/23 12:20:30.5      51   -328    117    333    354 171.1  19.4  34156  289.52 0854.89
2009/04/23 12:20:30.6      59   -336    122    342    363 170.0  20.6  34152  289.45 0854.89
2009/04/23 12:20:30.7     111   -297    103    318    335 159.5  18.0  34158  289.55 0854.89
2009/04/23 12:20:30.9     107   -319    140    337    364 161.4  23.9  34166  289.69 0854.89
2009/04/23 12:20:31.0    -201   -340     35    396    398 210.6   5.1  34164  289.65 0854.89
2009/04/23 12:20:31.0     -19    -91    252     94    268 192.0  78.9  34176  289.85 0854.89
2009/04/23 12:20:31.1      23   -192    180    194    264 173.1  47.9  34166  289.68 0854.89
2009/04/23 12:20:31.3     -35   -229    197    232    304 188.7  44.5  34164  289.63 0854.89
2009/04/23 12:20:31.4     -54   -201    149    209    256 195.1  39.1  34162  289.61 0854.89
2009/04/23 12:20:31.5     -55   -203    137    211    251 195.2  35.7  34164  289.64 0854.89
2009/04/23 12:20:31.6     -23   -214    172    216    276 186.2  42.7  34170  289.75 0854.89
2009/04/23 12:20:31.7     -10   -222    240    223    327 182.7  52.3  34170  289.73 0854.89
2009/04/23 12:20:31.8     -85   -198    239    216    322 203.2  53.4  34172  289.76 0854.89
2009/04/23 12:20:31.9      -3   -192     99    193    216 180.9  29.3  34172  289.79 0854.89
2009/04/23 12:20:32.0     -71   -217    137    229    266 198.3  33.7  34176  289.83 0854.89
2009/04/23 12:20:32.1     -88   -266    173    281    329 198.3  34.8  34184  289.98 0854.89
2009/04/23 12:20:32.2     -22   -207    189    209    281 186.3  46.9  34168  289.70 0854.89
2009/04/23 12:20:32.3     -42    -98    207    107    233 203.2  70.8  34158  289.55 0854.89
2009/04/23 12:20:32.4     -84   -123    211    150    258 214.3  61.1  34164  289.65 0854.89
2009/04/23 12:20:32.5     -77   -148    194    168    256 207.6  54.6  34174  289.82 0854.89
2009/04/23 12:20:32.6     -92   -196     89    217    234 205.2  23.8  34154  289.48 0854.89
2009/04/23 12:20:32.7     -29   -141    147    145    206 191.6  50.2  34166  289.67 0854.89
2009/04/23 12:20:32.8     -96   -218    180    239    299 203.7  40.7  34168  289.71 0854.89
2009/04/23 12:20:32.9    -198   -224     98    300    316 221.4  18.1  34198  290.20 0854.89
2009/04/23 12:20:33.0    -158   -128     85    204    221 230.9  23.6  34188  290.04 0854.85
2009/04/23 12:20:33.1    -171   -150     82    228    242 228.7  20.7  34184  289.98 0854.85
2009/04/23 12:20:33.2    -140   -212    190    255    318 213.4  40.4  34182  289.95 0854.85
2009/04/23 12:20:33.3    -102   -216    186    239    302 205.3  41.7  34166  289.66 0854.85
2009/04/23 12:20:33.4    -132   -235    187    270    328 209.4  38.0  34170  289.73 0854.85
2009/04/23 12:20:33.5    -126   -214    147    249    289 210.5  33.5  34176  289.85 0854.85
2009/04/23 12:20:33.6     -88   -181    151    202    252 206.1  40.6  34160  289.58 0854.85
2009/04/23 12:20:33.7     -21   -150    224    152    270 188.0  62.8  34156  289.51 0854.85
2009/04/23 12:20:33.8     -67   -177    207    190    280 200.9  52.7  34154  289.46 0854.85
2009/04/23 12:20:33.9    -122   -192    188    228    295 212.6  43.7  34150  289.41 0854.85
2009/04/23 12:20:34.0    -116   -211    140    242    279 208.9  32.7  34152  289.42 0854.85
2009/04/23 12:20:34.1     -94   -239    157    258    302 201.6  34.4  34150  289.39 0854.85
2009/04/23 12:20:34.2    -106   -199    161    226    277 208.1  39.1  34150  289.41 0854.85
2009/04/23 12:20:34.3    -119   -232    188    261    321 207.2  39.2  34152  289.44 0854.85
2009/04/23 12:20:34.4    -121   -278    191    304    359 203.6  35.3  34148  289.38 0854.85
2009/04/23 12:20:34.5    -100   -231    124    252    280 203.4  28.2  34152  289.44 0854.85
2009/04/23 12:20:34.6     -72   -104     91    127    156 214.7  39.1  34148  289.38 0854.85
2009/04/23 12:20:34.7     -71    -73    100    103    143 224.1  49.4  34154  289.48 0854.85
2009/04/23 12:20:34.8    -100   -117     40    154    160 220.5  14.7  34152  289.45 0854.85
2009/04/23 12:20:34.9    -152   -140     52    207    214 227.3  14.3  34150  289.40 0854.85
2009/04/23 12:20:35.0    -146   -152    110    211    237 223.9  29.8  34152  289.43 0854.83
2009/04/23 12:20:35.1    -190   -127    120    229    258 236.3  30.1  34152  289.44 0854.83
2009/04/23 12:20:35.2    -189    -26    162    191    250 261.9  44.8  34160  289.56 0854.83
2009/04/23 12:20:35.3     -64    -52    158     83    178 230.5  70.0  34170  289.75 0854.83
2009/04/23 12:20:35.4      -9   -117    213    118    243 184.4  68.8  34168  289.70 0854.83
2009/04/23 12:20:35.5     -59    -97    137    114    178 211.6  56.1  34166  289.69 0854.83
2009/04/23 12:20:35.6     -70    -28    150     76    168 248.2  71.1  34172  289.77 0854.83
2009/04/23 12:20:35.7      -7    -26    128     27    130 195.1  89.0  34170  289.75 0854.83
2009/04/23 12:20:35.8     -48    -12    150     50    158 255.8  81.0  34186  290.02 0854.83
2009/04/23 12:20:35.9      22     17     91     29     95  52.2  80.7  34172  289.79 0854.83
2009/04/23 12:20:36.0      38    -16     90     42     99 113.5  73.1  34162  289.60 0854.83
2009/04/23 12:20:36.1      46    -21     90     51    103 114.4  68.8  34168  289.72 0854.83
2009/04/23 12:20:36.2     -21    -32    131     39    136 212.6  82.7  34164  289.65 0854.83
2009/04/23 12:20:36.3     -31    -94     75    100    125 198.3  40.7  34162  289.60 0854.83
2009/04/23 12:20:36.4       0    -63    136     64    150 180.9  73.1  34168  289.70 0854.83
2009/04/23 12:20:36.5     -37     13     72     40     82 290.0  68.8  34184  289.99 0854.83
2009/04/23 12:20:36.6     -71      4     39     72     81 273.5  30.8  34198  290.21 0854.83
2009/04/23 12:20:36.7     -65      4    -14     66     68 274.3 -12.4  34198  290.23 0854.83
2009/04/23 12:20:36.8     -54      7     -2     55     56 277.9  -2.2  34200  290.26 0854.83
2009/04/23 12:20:36.9     -67      7     40     68     78 276.1  33.5  34202  290.30 0854.83
2009/04/23 12:20:37.0     -78     -7     46     79     91 264.8  32.9  34194  290.14 0854.83
2009/04/23 12:20:37.1     -66      8     44     67     80 277.0  36.5  34200  290.26 0854.83
2009/04/23 12:20:37.2     -93     16     25     95     99 279.7  14.7  34212  290.45 0854.83
2009/04/23 12:20:37.3     -88    -15     15     90     92 259.9   9.5  34206  290.35 0854.83
2009/04/23 12:20:37.4    -101    -56     13    116    117 241.1   6.9  34174  289.80 0854.83
2009/04/23 12:20:37.5    -131    -62     17    146    148 244.6   6.9  34186  290.01 0854.83
2009/04/23 12:20:37.6    -125    -74     -9    146    147 239.4  -3.7  34180  289.92 0854.83
2009/04/23 12:20:37.7    -115    -49     38    125    131 246.9  17.3  34192  290.11 0854.83
2009/04/23 12:20:37.8     -93    -31     53     99    112 251.4  30.8  34204  290.33 0854.83
2009/04/23 12:20:37.9     -90    -23     49     93    105 255.4  30.3  34214  290.48 0854.83
2009/04/23 12:20:38.0     -90    -19     49     93    105 257.6  30.3  34220  290.60 0854.83
2009/04/23 12:20:38.1    -102    -39     38    110    117 249.2  19.4  34222  290.64 0854.83
2009/04/23 12:20:38.2     -86    -27     17     91     93 252.3  11.0  34226  290.70 0854.83
2009/04/23 12:20:38.3     -71    -63     14     96     98 228.2   8.5  34212  290.45 0854.83
2009/04/23 12:20:38.4     -45    -54     41     71     81 219.6  32.9  34186  290.01 0854.83
2009/04/23 12:20:38.5     -46    -39     56     61     82 229.6  47.9  34184  289.97 0854.83
2009/04/23 12:20:38.6     -30      3     45     31     54 276.1  62.6  34198  290.21 0854.83
2009/04/23 12:20:38.7      -8    -23     31     25     39 200.0  56.4  34200  290.26 0854.83
2009/04/23 12:20:38.8     -32    -11      0     35     36 250.0  -1.3  34214  290.50 0854.83
2009/04/23 12:20:38.9     -14     -9      5     17     18 237.6  18.9  34218  290.55 0854.83
2009/04/23 12:20:39.0     -23     18     16     30     34 307.8  29.3  34200  290.26 0854.83
2009/04/23 12:20:39.1     -14     14     -7     21     23 315.0 -19.7  34204  290.31 0854.83
2009/04/23 12:20:39.2       7    -39    -18     40     43 169.3 -29.5  34200  290.26 0854.83
2009/04/23 12:20:39.3      44    -23     -1     50     51 118.0  -2.2  34204  290.31 0854.83
2009/04/23 12:20:39.4      61     -4     26     62     67  94.3  23.1  34232  290.81 0854.83
2009/04/23 12:20:39.5      68      5     36     69     77  85.6  29.3  34234  290.82 0854.83
2009/04/23 12:20:39.6      49    -37     40     62     73 126.9  35.6  34216  290.53 0854.83
2009/04/23 12:20:39.7      31    -19     22     37     43 122.5  33.5  34230  290.75 0854.83
2009/04/23 12:20:39.8       3    -12     32     13     34 164.9  79.2  34238  290.89 0854.83
2009/04/23 12:20:39.9     -16    -16     31     24     39 225.0  56.4  34240  290.94 0854.83
2009/04/23 12:20:40.0      29     18     63     35     72  57.5  68.8  34242  290.98 0854.83
2009/04/23 12:20:40.1      50      0     90     51    103  90.0  68.8  34236  290.86 0854.83
2009/04/23 12:20:40.2      67     -4     38     68     77  93.5  31.4  34238  290.89 0854.83
2009/04/23 12:20:40.3      48    -15     15     51     54 107.7  16.3  34234  290.82 0854.83
2009/04/23 12:20:40.4      71    -39     22     82     86 118.8  15.3  34232  290.79 0854.83
2009/04/23 12:20:40.5      48    -57     35     75     82 139.5  26.6  34228  290.74 0854.83
2009/04/23 12:20:40.6    -113    -93     12    147    148 230.4   4.9  34224  290.65 0854.83
2009/04/23 12:20:40.7     -69    -95     17    118    120 216.1   8.5  34224  290.65 0854.83
2009/04/23 12:20:40.8      50    -63     59     81    100 141.7  39.7  34224  290.65 0854.83
2009/04/23 12:20:40.9       0    -21     82     22     84 180.9  84.9  34222  290.64 0854.83
2009/04/23 12:20:41.0     -43   -108     15    117    118 201.9   7.5  34250  291.09 0854.83
2009/04/23 12:20:41.1      12    -93      2     94     95 172.4   1.8  34258  291.25 0854.83
2009/04/23 12:20:41.2     -31   -155     43    159    165 191.3  15.3  34256  291.21 0854.83
2009/04/23 12:20:41.3     -60   -178     34    188    192 198.7  10.3  34218  290.55 0854.83
2009/04/23 12:20:41.4     -16   -164     51    165    173 185.6  17.3  34190  290.09 0854.83
2009/04/23 12:20:41.5     -63   -199     65    209    220 197.6  17.4  34214  290.50 0854.83
2009/04/23 12:20:41.6     -24   -220     58    222    230 186.2  14.7  34192  290.11 0854.83
2009/04/23 12:20:41.7     -38   -234     85    238    252 189.3  20.2  34202  290.27 0854.83
2009/04/23 12:20:41.8    -104   -260    134    281    311 201.9  27.2  34262  291.31 0854.83
2009/04/23 12:20:41.9    -128   -239    145    272    308 208.1  30.3  34256  291.19 0854.83
2009/04/23 12:20:42.0    -126   -226     91    259    275 209.2  19.4  34238  290.88 0854.83
2009/04/23 12:20:42.1    -130   -189     99    230    250 214.5  24.9  34220  290.58 0854.83
2009/04/23 12:20:42.2    -128   -210     67    247    257 211.4  15.3  34218  290.56 0854.83
2009/04/23 12:20:42.3    -168   -234     40    289    292 215.6   8.0  34186  290.00 0854.83
2009/04/23 12:20:42.4    -197   -210     40    289    292 223.2   8.0  34202  290.29 0854.83
2009/04/23 12:20:42.5    -143   -189     12    238    239 217.2   2.9  34172  289.78 0854.83
2009/04/23 12:20:42.6     -94   -199     72    221    233 205.2  18.1  34186  290.02 0854.83
2009/04/23 12:20:42.7       7   -207     76    208    221 178.0  21.0  34194  290.16 0854.83
2009/04/23 12:20:42.8     -33   -205     90    208    226 189.3  25.1  34186  290.02 0854.83
2009/04/23 12:20:42.9     -22   -204     71    206    219 186.2  19.2  34172  289.79 0854.83
2009/04/23 12:20:43.0      -9   -210     65    211    221 182.7  17.3  34168  289.72 0854.82
2009/04/23 12:20:43.1      28   -189    144    192    240 171.5  40.7  34192  290.11 0854.82
2009/04/23 12:20:43.2       0   -177    113    178    210 180.2  35.5  34186  290.02 0854.82
2009/04/23 12:20:43.3     -38   -160     75    165    181 193.4  26.2  34178  289.87 0854.82
2009/04/23 12:20:43.4     -35   -133    104    138    172 195.1  40.9  34180  289.91 0854.82
2009/04/23 12:20:43.5     -39   -145     84    151    172 195.1  31.6  34172  289.77 0854.82
2009/04/23 12:20:43.6     -36   -135    104    140    174 195.2  40.4  34176  289.84 0854.82
2009/04/23 12:20:43.7     -51   -120     58    131    143 203.2  25.1  34162  289.62 0854.82
2009/04/23 12:20:43.8     -52   -137     28    147    150 200.9  11.0  34162  289.60 0854.82
2009/04/23 12:20:43.9     -75   -156     48    174    181 205.9  15.6  34158  289.53 0854.82
2009/04/23 12:20:44.0     -42   -174     67    180    192 193.8  21.3  34162  289.62 0854.82
2009/04/23 12:20:44.1      29   -138     84    142    164 168.0  33.7  34178  289.87 0854.82
2009/04/23 12:20:44.2      94   -130     66    161    174 144.0  23.4  34164  289.65 0854.82
2009/04/23 12:20:44.3     129    -90     65    158    170 125.1  23.6  34164  289.65 0854.82
2009/04/23 12:20:44.4     117    -91     72    149    165 127.7  27.8  34164  289.65 0854.82
2009/04/23 12:20:44.5      76    -88    104    117    156 139.5  46.4  34158  289.55 0854.82
2009/04/23 12:20:44.6      58    -96     98    113    149 148.8  45.4  34154  289.48 0854.82
2009/04/23 12:20:44.7      38   -187     94    191    212 168.5  28.0  34148  289.36 0854.82
2009/04/23 12:20:44.8     -42   -218    114    223    250 191.1  29.2  34152  289.42 0854.82
2009/04/23 12:20:44.9     -32   -207    130    210    246 188.9  34.8  34154  289.46 0854.82
2009/04/23 12:20:45.0      16   -147    127    148    195 173.8  44.8  34150  289.40 0854.82
2009/04/23 12:20:45.1       9    -53     84     54     99 170.2  64.6  34156  289.52 0854.82
2009/04/23 12:20:45.2      -7   -100    115    101    153 184.0  54.2  34152  289.45 0854.82
2009/04/23 12:20:45.3     -20   -104     92    107    141 191.1  45.4  34148  289.38 0854.82
2009/04/23 12:20:45.4       0   -120    125    121    173 180.4  50.7  34150  289.41 0854.82
2009/04/23 12:20:45.5      50    -44     92     67    113 131.3  60.5  34152  289.45 0854.82
2009/04/23 12:20:45.6     105      1    112    106    154  89.2  51.6  34154  289.46 0854.82
2009/04/23 12:20:45.7     149   -130     69    199    211 131.1  19.2  34150  289.41 0854.82
2009/04/23 12:20:45.8      68   -205     39    217    221 161.5  10.3  34148  289.36 0854.82
2009/04/23 12:20:45.9     -17   -220     60    221    230 184.5  15.2  34142  289.28 0854.82
2009/04/23 12:20:46.0     -34   -214     96    217    237 189.1  25.2  34150  289.40 0854.82
2009/04/23 12:20:46.1     -35   -230     82    233    248 188.7  19.4  34152  289.42 0854.82
2009/04/23 12:20:46.2     -18   -262     56    263    270 184.0  12.2  34152  289.44 0854.82
2009/04/23 12:20:46.3     -26   -228     58    230    238 186.7  14.3  34152  289.42 0854.82
2009/04/23 12:20:46.4     -65   -187    -13    199    200 199.2  -3.9  34150  289.40 0854.82
2009/04/23 12:20:46.5     -53   -201     10    208    209 194.9   2.8  34154  289.48 0854.82
2009/04/23 12:20:46.6     -39   -194     95    199    220 191.6  27.3  34156  289.50 0854.82
2009/04/23 12:20:46.7     -40   -197     47    201    207 191.5  13.2  34158  289.53 0854.82
2009/04/23 12:20:46.8     -24   -144     -1    147    148 189.7  -0.7  34162  289.60 0854.82
2009/04/23 12:20:46.9      19   -131     25    133    136 171.5  11.0  34160  289.57 0854.82
2009/04/23 12:20:47.0       6    -84      7     85     86 175.5   4.9  34162  289.60 0854.83
2009/04/23 12:20:47.1       5    -35     47     36     59 172.0  58.5  34164  289.65 0854.83
2009/04/23 12:20:47.2      -7    -42     41     43     59 190.7  49.0  34164  289.65 0854.83
2009/04/23 12:20:47.3      -9    -31     44     33     55 196.9  59.4  34166  289.67 0854.83
2009/04/23 12:20:47.4      -3    -22     42     23     47 189.8  68.8  34164  289.65 0854.83
2009/04/23 12:20:47.5       5    -39     50     40     64 172.0  56.4  34162  289.60 0854.83
2009/04/23 12:20:47.6       0    -63     63     64     89 179.1  50.5  34166  289.69 0854.83
2009/04/23 12:20:47.7       4    -54     57     55     79 175.6  50.7  34166  289.67 0854.83
2009/04/23 12:20:47.8      -9    -44     40     46     60 192.5  45.8  34162  289.62 0854.83
2009/04/23 12:20:47.9      -1    -53     28     54     60 181.8  30.3  34162  289.60 0854.83
2009/04/23 12:20:48.0       7    -54     36     55     65 172.0  35.6  34162  289.62 0854.83
2009/04/23 12:20:48.1      23    -68     45     73     85 160.8  35.0  34162  289.62 0854.83
2009/04/23 12:20:48.2      47    -88     45    100    109 151.9  26.2  34162  289.62 0854.83
2009/04/23 12:20:48.3      46    -72     58     86    103 147.5  37.0  34162  289.62 0854.83
2009/04/23 12:20:48.4      50    -77     76     92    119 147.0  43.7  34162  289.60 0854.83
2009/04/23 12:20:48.5      78    -73     76    108    132 133.1  38.6  34160  289.57 0854.83
2009/04/23 12:20:48.6      47    -77     73     91    116 148.4  43.7  34160  289.58 0854.83
2009/04/23 12:20:48.7      75    -35     94     83    125 115.2  54.2  34164  289.65 0854.83
2009/04/23 12:20:48.8      50    -16     95     53    108 108.6  68.8  34166  289.67 0854.83
2009/04/23 12:20:48.9      16     11     64     20     67  55.8  80.7  34166  289.67 0854.83
2009/04/23 12:20:49.0      59     12    102     61    118  78.6  66.7  34160  289.57 0854.84
2009/04/23 12:20:49.1     135     15     96    136    166  83.4  38.8  34158  289.55 0854.84
2009/04/23 12:20:49.2     130     21    119    132    177  80.8  46.9  34158  289.55 0854.84
2009/04/23 12:20:49.3     135    -27     87    138    163 101.4  35.5  34160  289.57 0854.84
2009/04/23 12:20:49.4     113    -15    113    115    161  97.9  49.8  34162  289.60 0854.84
2009/04/23 12:20:49.5     117     -2    127    118    173  91.3  52.2  34162  289.60 0854.84
2009/04/23 12:20:49.6     109    -34    106    115    156 107.3  47.9  34160  289.58 0854.84
2009/04/23 12:20:49.7     122    -13     90    123    152  96.1  39.7  34158  289.55 0854.84
2009/04/23 12:20:49.8     156      2     75    157    173  89.1  27.3  34156  289.52 0854.84
2009/04/23 12:20:49.9     181    -18     91    182    203  95.9  28.7  34154  289.48 0854.84
2009/04/23 12:20:50.0     186    -14     77    187    202  94.6  23.6  34156  289.50 0854.84
2009/04/23 12:20:50.1     155     -2    115    156    193  90.9  39.9  34156  289.52 0854.84
2009/04/23 12:20:50.2     166      7    142    167    219  87.4  44.5  34158  289.55 0854.84
2009/04/23 12:20:50.3     168    -18    131    170    214  96.4  41.6  34160  289.58 0854.84
2009/04/23 12:20:50.4     171    -19    121    173    211  96.6  38.4  34156  289.52 0854.84
2009/04/23 12:20:50.5     187    -34     99    191    215 100.4  29.3  34158  289.53 0854.84
2009/04/23 12:20:50.6     181    -61    102    192    217 108.6  30.6  34156  289.50 0854.84
2009/04/23 12:20:50.7     193    -53     51    201    208 105.5  14.3  34158  289.55 0854.84
2009/04/23 12:20:50.8     175    -39     75    180    195 102.6  23.8  34162  289.60 0854.84
2009/04/23 12:20:50.9     141     -7     43    142    149  93.0  16.8  34158  289.55 0854.84
2009/04/23 12:20:51.0     130      0     33    131    136  90.0  14.3  34162  289.60 0854.84
2009/04/23 12:20:51.1     106     13     34    107    113  82.5  17.9  34162  289.62 0854.84
2009/04/23 12:20:51.2     116      0      0    117    118  90.0  -0.3  34162  289.62 0854.84
2009/04/23 12:20:51.3     111     15    -14    113    114  82.0  -7.2  34160  289.57 0854.84
2009/04/23 12:20:51.4     103     27    -20    107    109  74.9 -10.9  34168  289.72 0854.84
2009/04/23 12:20:51.5      93     36    -23    100    103  68.7 -13.4  34172  289.77 0854.84
2009/04/23 12:20:51.6      67     55    -28     88     93  50.5 -17.6  34178  289.89 0854.84
2009/04/23 12:20:51.7      75     43    -33     87     93  59.8 -25.9  34208  290.38 0854.84
2009/04/23 12:20:51.8      74      5      3     75     76  85.7   2.8  34182  289.94 0854.84
2009/04/23 12:20:51.9      94    -18     50     96    108 101.0  29.3  34164  289.63 0854.84
2009/04/23 12:20:52.0     109    -35      5    115    116 108.2   2.8  34180  289.91 0854.84
2009/04/23 12:20:52.1     145     -4    -24    146    148  91.7  -9.4  34188  290.04 0854.84
2009/04/23 12:20:52.2     146    -12    -97    147    176  94.8 -40.9  34166  289.67 0854.84
2009/04/23 12:20:52.3     189    -17   -141    190    236  95.2 -44.8  34166  289.67 0854.84
2009/04/23 12:20:52.4     176    -13   -139    177    225  94.4 -46.8  34164  289.65 0854.84
2009/04/23 12:20:52.5     156    -21   -121    158    199  98.0 -45.8  34158  289.53 0854.84
2009/04/23 12:20:52.6     118     39    -89    125    153  71.4 -43.5  34168  289.72 0854.84
2009/04/23 12:20:52.7     142     47    -62    150    162  71.6 -28.0  34180  289.91 0854.84
2009/04/23 12:20:52.8     126     42     -7    133    134  71.4  -3.1  34188  290.06 0854.84
2009/04/23 12:20:52.9     107     78     -9    133    134  53.6  -4.1  34182  289.94 0854.84
2009/04/23 12:20:53.0      79     78    -10    112    113  45.4  -5.6  34182  289.94 0854.84
2009/04/23 12:20:53.1     115     78    -16    140    141  55.9  -6.7  34174  289.82 0854.84
2009/04/23 12:20:53.2     145     -2    -14    146    147  90.8  -5.6  34162  289.60 0854.84
2009/04/23 12:20:53.3     162    -12    -23    163    165  94.3  -8.2  34164  289.63 0854.84
2009/04/23 12:20:53.4     154     49    -45    162    169  72.3 -15.5  34168  289.70 0854.84
2009/04/23 12:20:53.5     131      9    -27    132    135  85.7 -11.9  34162  289.62 0854.84
2009/04/23 12:20:53.6      86     -1     17     87     89  91.3  11.1  34162  289.60 0854.84
2009/04/23 12:20:53.7      70     54     -3     89     90  52.2  -2.2  34168  289.72 0854.84
2009/04/23 12:20:53.8      70    111    -36    132    138  32.5 -15.5  34166  289.69 0854.84
2009/04/23 12:20:54.0      81     44    -62     93    111  61.1 -40.9  34156  289.50 0854.84
2009/04/23 12:20:54.0      66     26    -49     72     87  68.3 -41.4  34160  289.57 0854.84
2009/04/23 12:20:54.1      66    -10    -49     67     83  98.8 -44.5  34160  289.57 0854.84
2009/04/23 12:20:54.2      93    -22    -12     96     97 103.3  -7.2  34160  289.57 0854.84
2009/04/23 12:20:54.3      97    -15     -3     99    100  98.8  -2.2  34162  289.62 0854.84
2009/04/23 12:20:54.4     118     23    -30    121    125  78.6 -13.9  34158  289.55 0854.84
2009/04/23 12:20:54.5     165      8     69    166    179  87.2  23.8  34160  289.57 0854.84
2009/04/23 12:20:54.6     128     16     38    130    136  82.5  16.3  34158  289.53 0854.84
2009/04/23 12:20:54.7      92     38     62    100    117  67.4  35.0  34160  289.57 0854.84
2009/04/23 12:20:54.8      73     38     57     83    100  62.0  38.0  34156  289.52 0854.84
2009/04/23 12:20:54.9      63     46     83     79    114  54.0  51.2  34154  289.48 0854.84
2009/04/23 12:20:55.0      50     47     83     69    107  46.9  56.3  34160  289.58 0854.84
2009/04/23 12:20:55.1       0     10     82     11     82 357.3  90.0  34164  289.63 0854.84
2009/04/23 12:20:55.2      -1      8     65      9     65 350.3  90.0  34162  289.62 0854.84
2009/04/23 12:20:55.3      -1     17     63     18     65 355.6  84.8  34162  289.62 0854.84
2009/04/23 12:20:55.4      -4     14     76     15     77 341.5  89.1  34162  289.62 0854.84
2009/04/23 12:20:55.5      10     28     65     30     71  20.0  73.1  34160  289.58 0854.84
2009/04/23 12:20:55.6      41     13     76     44     87  72.3  67.2  34156  289.50 0854.84
2009/04/23 12:20:55.7      82     17     90     84    123  78.1  52.1  34154  289.46 0854.84
2009/04/23 12:20:55.8      81     42    101     92    136  62.5  52.7  34156  289.52 0854.84
2009/04/23 12:20:55.9      79     42    112     90    143  61.6  56.9  34156  289.52 0854.84
2009/04/23 12:20:56.0      64     46     89     80    119  54.0  53.3  34156  289.52 0854.81
2009/04/23 12:20:56.1      49     26     66     56     86  62.0  54.8  34162  289.62 0854.81
2009/04/23 12:20:56.2      23    -15     36     28     45 122.5  58.5  34162  289.62 0854.81
2009/04/23 12:20:56.3      83     22    102     86    133  74.9  55.8  34184  289.99 0854.81
2009/04/23 12:20:56.4       7     18     46     20     50  21.8  74.0  34204  290.33 0854.81
2009/04/23 12:20:56.5      10    -10     52     15     54 135.0  82.8  34200  290.25 0854.81
2009/04/23 12:20:56.6      30     -9     57     32     65 106.8  68.8  34194  290.14 0854.81
2009/04/23 12:20:56.7      63      8     65     64     91  82.1  50.1  34190  290.08 0854.81
2009/04/23 12:20:56.8     102     50     88    114    144  63.8  41.7  34204  290.33 0854.81
2009/04/23 12:20:56.9      77     51    113     93    146  56.7  56.4  34208  290.40 0854.81
2009/04/23 12:20:57.0      80     30    112     86    141  69.2  58.5  34206  290.36 0854.81
2009/04/23 12:20:57.1      79      9     80     80    113  83.0  50.1  34194  290.16 0854.81
2009/04/23 12:20:57.2     109      0     54    110    122  90.0  27.8  34196  290.18 0854.81
2009/04/23 12:20:57.3     111      5     45    112    120  87.0  23.0  34184  289.99 0854.81
2009/04/23 12:20:57.4     122      8     74    123    143  86.1  34.0  34162  289.60 0854.81
2009/04/23 12:20:57.5     115     35     51    121    131  73.1  24.6  34154  289.48 0854.81
2009/04/23 12:20:57.6     109     53      1    122    123  64.2   0.8  34158  289.55 0854.81
2009/04/23 12:20:57.7      81     38    -11     90     91  64.8  -7.3  34158  289.53 0854.81
2009/04/23 12:20:57.8      81     17    -28     83     88  78.1 -18.7  34160  289.58 0854.81
2009/04/23 12:20:57.9      66     14    -28     68     73  77.6 -27.4  34160  289.58 0854.81
2009/04/23 12:20:58.0      67      0    -20     68     71  89.2 -16.6  34160  289.58 0854.78
2009/04/23 12:20:58.1      71    -29    -12     77     79 112.6  -9.3  34162  289.60 0854.78
2009/04/23 12:20:58.2      75    -37     13     84     86 116.2   9.0  34174  289.80 0854.78
2009/04/23 12:20:58.3      72    -45    -22     85     88 122.0 -14.5  34166  289.69 0854.78
2009/04/23 12:20:58.4      68    -18     21     71     75 105.1  16.3  34174  289.82 0854.78
2009/04/23 12:20:58.5      87      5      6     88     89  86.5   4.4  34176  289.85 0854.78
2009/04/23 12:20:58.6      87      3     -3     88     89  87.9  -2.2  34170  289.74 0854.78
2009/04/23 12:20:58.7      81    -14     17     83     85 100.1  12.2  34168  289.72 0854.78
2009/04/23 12:20:58.8      75    -24     19     79     82 108.2  13.7  34174  289.80 0854.78
2009/04/23 12:20:58.9      95    -19     44     97    106 101.4  26.2  34186  290.02 0854.78
2009/04/23 12:20:59.1      69      0     53     70     87  90.0  41.2  34182  289.96 0854.78
2009/04/23 12:20:59.2      58      0     53     59     79  90.0  47.5  34186  290.01 0854.78
2009/04/23 12:20:59.3      30      0     64     31     71  90.8  72.8  34188  290.04 0854.78
2009/04/23 12:20:59.4      46     -4     72     47     85  95.2  64.1  34184  289.99 0854.78
2009/04/23 12:20:59.5      85     33     35     92     98  68.3  22.0  34174  289.82 0854.78
2009/04/23 12:20:59.6      74     15     26     76     81  78.6  19.4  34176  289.85 0854.78
2009/04/23 12:20:59.7      90    -18     40     92    100 101.5  25.1  34178  289.87 0854.78
2009/04/23 12:20:59.8     102      3     18    103    105  88.3  10.1  34174  289.80 0854.78
2009/04/23 12:20:59.9      78    -15    -15     80     82 101.0 -10.9  34174  289.80 0854.78
2009/04/23 12:21:00.0      67    -26      8     73     74 111.7   6.9  34182  289.94 0854.78
2009/04/23 12:21:00.1      57    -12     33     59     67 102.4  31.4  34184  289.97 0854.78
2009/04/23 12:21:00.2      36      0     63     37     73  90.0  66.8  34184  289.99 0854.78
2009/04/23 12:21:00.3       0    -21     48     22     52 180.9  73.1  34186  290.01 0854.78
2009/04/23 12:21:00.4      32    -17     30     37     47 118.9  43.7  34182  289.96 0854.78
2009/04/23 12:21:00.5      15      1     57     16     59  85.6  84.8  34182  289.96 0854.78
2009/04/23 12:21:00.6      -8     12     53     15     55 327.5  83.9  34188  290.04 0854.78
2009/04/23 12:21:00.7       0     -3     36      4     36 189.7  90.0  34184  289.97 0854.78
2009/04/23 12:21:00.8      49     10     18     51     55  78.5  19.4  34184  289.99 0854.78
2009/04/23 12:21:00.9      53      8     65     54     84  81.2  56.4  34196  290.18 0854.78
2009/04/23 12:21:01.0      61     21     70     65     95  70.9  52.2  34204  290.33 0854.78
2009/04/23 12:21:01.1      84      8    108     85    137  84.3  57.9  34214  290.48 0854.78
2009/04/23 12:21:01.2      89     65    104    111    152  54.1  48.0  34252  291.13 0854.78
2009/04/23 12:21:01.3     109     60     83    125    150  61.1  36.5  34264  291.33 0854.78
2009/04/23 12:21:01.4     107     69    104    128    164  57.1  43.3  34272  291.49 0854.78
2009/04/23 12:21:01.5      83     51    109     98    146  58.5  53.3  34272  291.49 0854.78
2009/04/23 12:21:01.6     118     39     70    125    143  71.8  31.4  34242  290.98 0854.78
2009/04/23 12:21:01.7      82     19     98     85    129  76.7  54.8  34236  290.86 0854.78
2009/04/23 12:21:01.8      66     31     92     73    117  64.8  56.9  34246  291.03 0854.78
2009/04/23 12:21:01.9      84     27     83     89    121  72.3  48.0  34248  291.06 0854.78
2009/04/23 12:21:02.0      72     42     82     84    117  59.3  49.9  34232  290.81 0854.78
2009/04/23 12:21:02.1      51      3     91     52    104  85.6  67.7  34216  290.53 0854.79
2009/04/23 12:21:02.2      13      0     82     14     83  90.8  90.0  34212  290.47 0854.79
2009/04/23 12:21:02.3      55    -11     74     57     93 101.5  57.9  34208  290.38 0854.79
2009/04/23 12:21:02.4      -4    -56     90     57    106 184.5  64.7  34184  289.99 0854.79
2009/04/23 12:21:02.5       9    -64    108     65    126 172.0  66.2  34184  289.99 0854.79
2009/04/23 12:21:02.6     -31    -91    110     97    146 199.2  54.2  34182  289.96 0854.79
2009/04/23 12:21:02.7     -59    -42     40     73     83 234.1  30.8  34178  289.89 0854.79
2009/04/23 12:21:02.8     -51    -30     68     60     90 239.3  54.3  34178  289.87 0854.79
2009/04/23 12:21:02.9       4    -59    121     60    135 175.5  71.9  34156  289.52 0854.79
2009/04/23 12:21:03.0      -6    -70     90     71    114 185.3  57.5  34158  289.53 0854.79
2009/04/23 12:21:03.1      -1    -53    105     54    118 181.8  71.0  34160  289.57 0854.79
2009/04/23 12:21:03.2       7    -26     60     27     65 164.9  74.0  34170  289.74 0854.79
2009/04/23 12:21:03.3      53    -44     82     69    107 129.6  55.8  34160  289.58 0854.79
2009/04/23 12:21:03.4      64     -4    104     65    122  94.4  65.1  34162  289.60 0854.79
2009/04/23 12:21:03.5      20     -8     70     22     73 111.7  80.7  34166  289.69 0854.79
2009/04/23 12:21:03.6      55    -45     78     72    106 129.6  52.2  34158  289.53 0854.79
2009/04/23 12:21:03.7      89    -61     69    109    129 124.6  35.5  34152  289.43 0854.79
2009/04/23 12:21:03.8      61     -1     67     62     91  91.7  52.2  34156  289.50 0854.79
2009/04/23 12:21:03.9       7    -45     83     46     94 170.2  68.3  34166  289.69 0854.79
2009/04/23 12:21:04.0     -15   -103    106    105    149 188.5  50.1  34178  289.89 0854.79
2009/04/23 12:21:04.1     -29    -95     88    100    133 196.9  45.9  34180  289.92 0854.82
2009/04/23 12:21:04.2     -20   -102     69    104    124 191.1  36.5  34176  289.85 0854.82
2009/04/23 12:21:04.3     -35   -117    111    123    165 197.0  46.9  34170  289.74 0854.82
2009/04/23 12:21:04.4      13    -90    109     92    142 171.5  55.8  34168  289.70 0854.82
2009/04/23 12:21:04.5      -8   -104    110    105    152 184.5  51.6  34164  289.65 0854.82
2009/04/23 12:21:04.6      -2    -91    113     92    145 181.4  56.4  34168  289.72 0854.82
2009/04/23 12:21:04.7       6    -91    100     92    135 176.0  52.2  34156  289.52 0854.82
2009/04/23 12:21:04.8      -7   -104    112    105    153 184.0  52.1  34160  289.57 0854.82
2009/04/23 12:21:04.9      -7   -131    115    132    175 183.1  45.6  34166  289.69 0854.82
2009/04/23 12:21:05.0      -8   -114    107    115    157 184.4  47.9  34160  289.57 0854.82
2009/04/23 12:21:05.1     -12   -127    107    128    166 185.8  44.1  34152  289.45 0854.82
2009/04/23 12:21:05.2      -8   -120     97    121    155 184.0  43.7  34154  289.46 0854.82
2009/04/23 12:21:05.3       7    -94     89     95    130 175.6  48.0  34156  289.50 0854.82
2009/04/23 12:21:05.4      10    -99     82    100    129 174.2  43.7  34154  289.48 0854.82
2009/04/23 12:21:05.5       0   -113     69    114    133 180.4  34.4  34152  289.43 0854.82
2009/04/23 12:21:05.6     -25    -90     41     94    102 196.0  24.6  34154  289.46 0854.82
2009/04/23 12:21:05.7      13    -63     40     65     76 168.4  35.5  34154  289.46 0854.82
2009/04/23 12:21:05.8      35    -64     34     74     81 151.1  26.2  34156  289.50 0854.82
2009/04/23 12:21:05.9      30    -91     15     96     98 161.7   9.0  34156  289.50 0854.82
2009/04/23 12:21:06.0      -1    -94     40     95    103 180.9  23.6  34156  289.52 0854.82
2009/04/23 12:21:06.1      10    -75     45     76     88 172.0  33.5  34156  289.52 0854.83
2009/04/23 12:21:06.2       0   -100     41    101    109 180.0  23.0  34154  289.46 0854.83
2009/04/23 12:21:06.3       6    -86     35     87     93 175.5  22.5  34152  289.45 0854.83
2009/04/23 12:21:06.4      -7    -84     32     85     90 185.3  21.5  34154  289.46 0854.83
2009/04/23 12:21:06.5      -8   -108     40    109    116 184.4  20.4  34152  289.45 0854.83
2009/04/23 12:21:06.6     -41   -123     39    130    136 198.5  16.8  34152  289.43 0854.83
2009/04/23 12:21:06.7     -24   -121     27    124    128 191.6  12.6  34152  289.43 0854.83
2009/04/23 12:21:06.8       0   -102     41    103    110 180.4  23.0  34154  289.46 0854.83
2009/04/23 12:21:06.9      14   -109     41    110    117 172.4  21.0  34154  289.46 0854.83
2009/04/23 12:21:07.0      22   -112     36    115    121 168.5  17.4  34152  289.45 0854.83
2009/04/23 12:21:07.1      39   -129     27    135    138 163.1  11.6  34150  289.41 0854.83
2009/04/23 12:21:07.2      48   -157     19    165    167 163.1   6.9  34150  289.40 0854.83
2009/04/23 12:21:07.3      32   -157     -3    161    162 168.5  -1.3  34152  289.45 0854.83
2009/04/23 12:21:07.4      29   -211    -11    214    215 172.0  -3.2  34150  289.41 0854.83
2009/04/23 12:21:07.5      41   -196    -31    201    204 168.2  -9.0  34150  289.41 0854.83
2009/04/23 12:21:07.6      42   -178     21    184    186 166.6   6.7  34152  289.43 0854.83
2009/04/23 12:21:07.7      69   -187     13    200    201 159.7   3.8  34154  289.48 0854.83
2009/04/23 12:21:07.8      54   -179     -3    188    189 163.1  -1.2  34156  289.52 0854.83
2009/04/23 12:21:07.9      55   -169      0    178    179 162.0   0.2  34158  289.53 0854.83
2009/04/23 12:21:08.0      45   -173     51    179    187 165.3  16.0  34158  289.55 0854.83
2009/04/23 12:21:08.1      27   -170     61    173    184 170.9  19.6  34158  289.53 0854.82
2009/04/23 12:21:08.2       8   -165     33    166    170 177.1  11.4  34154  289.46 0854.82
2009/04/23 12:21:08.3      33   -145     40    149    155 167.1  15.2  34158  289.53 0854.82
2009/04/23 12:21:08.4       2   -173     21    174    176 179.1   6.9  34158  289.53 0854.82
2009/04/23 12:21:08.5      22   -179     12    181    182 172.9   3.8  34156  289.50 0854.82
2009/04/23 12:21:08.6      15   -185     -5    186    187 175.3  -1.8  34154  289.46 0854.82
2009/04/23 12:21:08.7      -2   -185     -8    186    187 180.9  -2.6  34154  289.48 0854.82
2009/04/23 12:21:08.8       6   -202     15    203    204 178.2   4.2  34154  289.48 0854.82
2009/04/23 12:21:08.9      30   -218      0    221    222 172.0   0.2  34156  289.52 0854.82
2009/04/23 12:21:09.0       8   -199     31    200    203 177.5   9.0  34154  289.46 0854.82
2009/04/23 12:21:09.1      21   -194     16    196    197 173.8   4.9  34154  289.46 0854.82
2009/04/23 12:21:09.2      20   -192     41    194    199 173.8  12.0  34158  289.53 0854.82
2009/04/23 12:21:09.3      77   -157     23    175    177 153.9   7.5  34158  289.53 0854.82
2009/04/23 12:21:09.4      30   -150    -52    154    163 168.4 -18.9  34160  289.57 0854.82
2009/04/23 12:21:09.5       7   -106    -40    107    114 176.0 -24.8  34160  289.57 0854.82
2009/04/23 12:21:09.6      -2   -122    -15    123    125 181.0  -7.3  34158  289.53 0854.82
2009/04/23 12:21:09.7      -2   -113     44    114    122 181.4  22.0  34156  289.52 0854.82
2009/04/23 12:21:09.8      31   -108     48    113    122 164.0  24.1  34158  289.53 0854.82
2009/04/23 12:21:09.9      21   -114     27    117    121 169.3  13.1  34158  289.55 0854.82
2009/04/23 12:21:10.0      29   -132      2    136    137 167.5   1.2  34158  289.55 0854.82
2009/04/23 12:21:10.1      20   -115     10    117    118 169.8   4.9  34160  289.57 0854.80
2009/04/23 12:21:10.2      27   -100      2    104    105 164.9   1.2  34158  289.55 0854.80
2009/04/23 12:21:10.3      32   -117      6    122    123 164.4   2.9  34160  289.57 0854.80
2009/04/23 12:21:10.4      40   -118     29    125    129 161.3  13.2  34160  289.57 0854.80
2009/04/23 12:21:10.5      33   -101     45    107    116 161.7  24.1  34160  289.57 0854.80
2009/04/23 12:21:10.6      22   -110     71    113    133 168.4  35.5  34158  289.55 0854.80
2009/04/23 12:21:10.7      41   -103     68    111    130 158.2  34.4  34158  289.55 0854.80
2009/04/23 12:21:10.8      59    -93     46    111    120 147.5  23.6  34162  289.60 0854.80
2009/04/23 12:21:10.9      39    -94     33    102    108 157.3  17.9  34158  289.55 0854.80
2009/04/23 12:21:11.0      42    -92     21    102    105 155.5  11.6  34158  289.53 0854.80
2009/04/23 12:21:11.1      49    -53     11     73     74 137.7   9.0  34156  289.52 0854.80
2009/04/23 12:21:11.2       0    -40     32     41     52 180.0  42.7  34158  289.55 0854.80
2009/04/23 12:21:11.3     -19    -43     41     48     63 203.6  44.8  34160  289.57 0854.80
2009/04/23 12:21:11.4     -24    -50     35     56     66 206.3  35.5  34158  289.55 0854.80
2009/04/23 12:21:11.5     -30    -38     17     49     52 218.7  19.4  34158  289.55 0854.80
2009/04/23 12:21:11.6     -40    -42      7     59     60 223.2   6.9  34160  289.57 0854.80
2009/04/23 12:21:11.7     -34    -41     11     54     56 219.6  12.2  34156  289.52 0854.80
2009/04/23 12:21:11.8     -30    -33     -4     45     46 222.3  -6.2  34158  289.53 0854.80
2009/04/23 12:21:11.9     -33    -27    -14     43     45 230.5 -23.8  34156  289.50 0854.80
2009/04/23 12:21:12.0     -37    -37    -18     53     57 225.0 -18.7  34156  289.52 0854.80
2009/04/23 12:21:12.1     -35    -45     -3     58     59 217.8  -3.1  34158  289.53 0854.79
2009/04/23 12:21:12.2     -31    -62     -1     70     71 206.3  -1.3  34158  289.53 0854.79
2009/04/23 12:21:12.3     -51    -82     -1     97     98 212.1  -1.2  34162  289.62 0854.79
2009/04/23 12:21:12.4     -39    -93     19    101    103 202.7  11.1  34166  289.69 0854.79
2009/04/23 12:21:12.5     -26    -92     49     96    107 196.0  28.2  34170  289.75 0854.79
2009/04/23 12:21:12.6     -53   -133     -5    144    145 201.9  -2.2  34160  289.58 0854.79
2009/04/23 12:21:12.7     -58   -132     28    145    148 203.7  11.1  34164  289.65 0854.79
2009/04/23 12:21:12.8     -50   -129     58    139    150 201.4  23.6  34162  289.62 0854.79
2009/04/23 12:21:12.9     -76   -149     94    168    192 207.2  31.9  34166  289.67 0854.79
2009/04/23 12:21:13.0     -96   -124     47    157    164 217.8  16.8  34168  289.70 0854.79
2009/04/23 12:21:13.1     -93   -137     46    166    173 214.3  15.6  34166  289.69 0854.79
2009/04/23 12:21:13.2     -73   -144     56    162    172 207.0  19.2  34160  289.57 0854.79
2009/04/23 12:21:13.3     -65   -138     53    153    163 205.4  19.2  34162  289.60 0854.79
2009/04/23 12:21:13.4     -71   -161     74    177    191 203.8  23.8  34158  289.53 0854.79
2009/04/23 12:21:13.5      -6   -129     25    130    133 182.7  11.0  34158  289.53 0854.79
2009/04/23 12:21:13.6     -26   -153     -1    156    157 189.8  -0.5  34156  289.50 0854.79
2009/04/23 12:21:13.7       3   -186     60    187    197 178.9  17.9  34154  289.46 0854.79
2009/04/23 12:21:13.8      42   -191     58    196    205 167.5  16.6  34154  289.48 0854.79
2009/04/23 12:21:13.9      -1   -168     58    169    179 180.5  19.2  34156  289.50 0854.79
2009/04/23 12:21:14.0     -33   -159     32    163    167 192.0  11.1  34154  289.46 0854.79
2009/04/23 12:21:14.1     -50   -150     54    159    169 198.7  18.9  34154  289.46 0854.77
2009/04/23 12:21:14.2     -15   -132     41    133    140 186.7  17.3  34156  289.52 0854.77
2009/04/23 12:21:14.3     -15   -145     21    146    148 186.2   8.5  34154  289.48 0854.77
2009/04/23 12:21:14.4     -38   -105     13    112    113 200.0   6.9  34156  289.50 0854.77
2009/04/23 12:21:14.5     -32    -94     17    100    102 198.7  10.1  34154  289.48 0854.77
2009/04/23 12:21:14.6     -33   -100    100    106    145 198.7  48.0  34158  289.53 0854.77
2009/04/23 12:21:14.7       8    -65    104     66    123 172.9  64.7  34162  289.60 0854.77
2009/04/23 12:21:14.8     -25    -76     82     81    115 198.5  49.1  34160  289.57 0854.77
2009/04/23 12:21:14.9     -82    -82     58    117    130 225.1  27.8  34156  289.52 0854.77
2009/04/23 12:21:15.0     -85    -68     21    109    112 231.4  11.1  34160  289.58 0854.77
2009/04/23 12:21:15.1     -76    -92      3    120    121 219.6   1.8  34156  289.50 0854.76
2009/04/23 12:21:15.2     -86    -93     37    127    133 222.8  16.3  34162  289.60 0854.76
2009/04/23 12:21:15.3     -89    -84     13    123    124 226.9   6.5  34162  289.62 0854.76
2009/04/23 12:21:15.4    -110    -80     32    137    141 234.0  13.1  34166  289.67 0854.76
2009/04/23 12:21:15.5    -127    -28     45    131    139 257.2  19.2  34164  289.65 0854.76
2009/04/23 12:21:15.6    -137    -13     15    138    139 264.3   6.5  34162  289.62 0854.76
2009/04/23 12:21:15.7    -102     -4     54    103    116 267.4  29.8  34166  289.67 0854.76
2009/04/23 12:21:15.8     -87     -1      6     88     89 268.7   4.4  34160  289.57 0854.76
2009/04/23 12:21:15.9     -81     -7    -10     82     83 264.8  -7.2  34158  289.53 0854.76
2009/04/23 12:21:16.0    -100      7      6    101    102 274.4   3.8  34162  289.62 0854.76
2009/04/23 12:21:16.1     -88      0     -3     89     90 270.0  -2.2  34160  289.58 0854.76
2009/04/23 12:21:16.2     -67     -9    -20     68     71 262.1 -16.6  34160  289.58 0854.76
2009/04/23 12:21:16.3     -68     13    -25     70     74 281.4 -23.3  34162  289.60 0854.76
2009/04/23 12:21:16.4     -82      5    -29     83     89 273.9 -19.7  34160  289.57 0854.76
2009/04/23 12:21:16.5     -99      0    -22    100    103 270.0 -12.4  34160  289.57 0854.76
2009/04/23 12:21:16.6     -78      5    -25     79     82 274.3 -22.8  34160  289.57 0854.76
2009/04/23 12:21:16.7     -62     11    -27     64     69 280.6 -27.5  34160  289.57 0854.76
2009/04/23 12:21:16.8     -45    -16     -5     48     49 250.0  -6.2  34160  289.58 0854.76
2009/04/23 12:21:16.9     -38    -24      2     45     46 237.6   2.9  34162  289.62 0854.76
2009/04/23 12:21:17.0     -28    -33     10     44     46 220.5  13.2  34162  289.62 0854.76
2009/04/23 12:21:17.1     -21    -64     31     68     74 198.3  27.1  34162  289.62 0854.75
2009/04/23 12:21:17.2     -35    -76     47     84     96 204.9  31.9  34160  289.58 0854.75
2009/04/23 12:21:17.3     -38    -87     44     96    105 203.6  26.6  34162  289.62 0854.75
2009/04/23 12:21:17.4     -80    -64     46    103    112 231.4  25.7  34164  289.63 0854.75
2009/04/23 12:21:17.5     -93    -33     39     99    106 250.5  22.5  34164  289.65 0854.75
2009/04/23 12:21:17.6     -57    -47     41     75     85 230.4  31.4  34164  289.65 0854.75
2009/04/23 12:21:17.7     -29    -59     52     66     84 206.3  42.2  34164  289.63 0854.75
2009/04/23 12:21:17.8      15    -58     56     61     82 164.9  47.9  34164  289.65 0854.75
2009/04/23 12:21:17.9       9    -98     34     99    105 174.2  19.4  34158  289.55 0854.75
2009/04/23 12:21:18.0       7    -93     -2     94     95 175.5  -1.8  34158  289.53 0854.75
2009/04/23 12:21:18.1       1    -96    -24     97    100 179.1 -13.9  34160  289.57 0854.75
2009/04/23 12:21:18.2       4    -92    -21     93     96 177.3 -12.9  34156  289.52 0854.75
2009/04/23 12:21:18.3      12   -133    -17    134    136 174.7  -7.3  34156  289.52 0854.75
2009/04/23 12:21:18.4      12   -133    -17    134    136 174.7  -7.3  34156  289.52 0854.75
2009/04/23 12:21:18.5      14   -130    -16    131    133 173.8  -7.3  34154  289.48 0854.75
2009/04/23 12:21:18.6      16   -147     -8    148    149 173.8  -3.2  34154  289.48 0854.75
2009/04/23 12:21:18.7     -11   -152    -19    153    155 184.4  -7.2  34154  289.48 0854.75
2009/04/23 12:21:18.8      -7   -160      0    161    162 182.5   0.2  34154  289.48 0854.75
2009/04/23 12:21:18.9       2   -168    -24    169    171 179.1  -8.2  34156  289.52 0854.75
2009/04/23 12:21:19.0       5   -173     13    174    175 178.2   4.4  34154  289.46 0854.75
2009/04/23 12:21:19.1       2   -179      3    180    181 179.3   1.0  34156  289.50 0854.75
2009/04/23 12:21:19.2      33   -230     28    233    235 171.8   6.9  34152  289.44 0854.75
2009/04/23 12:21:19.3       0   -286     12    287    288 180.0   2.5  34154  289.47 0854.75
2009/04/23 12:21:19.4      32   -270     74    272    282 173.1  15.3  34156  289.51 0854.75
2009/04/23 12:21:19.5      -5   -296    154    297    334 181.0  29.5  34154  289.47 0854.75
2009/04/23 12:21:19.6     -18   -288    131    289    317 183.6  26.2  34156  289.49 0854.75
2009/04/23 12:21:19.7     -33   -239    117    242    268 188.0  27.3  34154  289.47 0854.75
2009/04/23 12:21:19.8     -29   -223    143    225    266 187.6  35.5  34152  289.42 0854.75
2009/04/23 12:21:19.9     -50   -202    134    209    248 194.0  35.6  34150  289.39 0854.75
2009/04/23 12:21:20.0     -46   -158    107    165    196 196.3  36.0  34150  289.40 0854.75
2009/04/23 12:21:20.1     -42   -163     41    169    174 194.5  13.7  34150  289.40 0854.75
2009/04/23 12:21:20.2      16   -147    -19    148    150 173.7  -7.3  34150  289.41 0854.75
2009/04/23 12:21:20.3      52   -120    -20    132    134 156.4  -8.8  34152  289.43 0854.75
2009/04/23 12:21:20.4      97    -48     -3    109    110 116.2  -1.8  34154  289.46 0854.75
2009/04/23 12:21:20.5      89     -4     10     90     91  92.6   6.9  34156  289.52 0854.75
2009/04/23 12:21:20.6      82     -6      4     83     84  94.8   2.8  34158  289.53 0854.75
2009/04/23 12:21:20.7      82    -29    -19     87     90 109.5 -12.4  34158  289.55 0854.75
2009/04/23 12:21:20.8      45     -8    -16     46     48 100.6 -23.3  34158  289.55 0854.75
2009/04/23 12:21:20.9      71     40     -5     82     83  60.7  -4.1  34152  289.45 0854.75
2009/04/23 12:21:21.0      92     98    -61    135    148  43.2 -30.6  34154  289.46 0854.75
2009/04/23 12:21:21.1     128     66    -58    145    156  62.5 -27.4  34158  289.55 0854.74
2009/04/23 12:21:21.2     141      7     22    142    144  87.0   8.9  34158  289.53 0854.74
2009/04/23 12:21:21.3     258     15     50    259    264  86.6  11.1  34166  289.66 0854.74
2009/04/23 12:21:21.4     233     -7     50    234    240  91.9  12.2  34164  289.64 0854.74
2009/04/23 12:21:21.5     236      5     -9    237    238  88.7  -2.2  34158  289.54 0854.74
2009/04/23 12:21:21.6     257     52     23    263    265  78.5   5.2  34162  289.59 0854.74
2009/04/23 12:21:21.7     237     50     90    243    259  78.1  21.0  34152  289.44 0854.74
2009/04/23 12:21:21.8     211    -21     42    213    218  95.9  11.1  34152  289.43 0854.74
2009/04/23 12:21:21.9     182    -14     66    183    194  94.6  20.2  34152  289.45 0854.74
2009/04/23 12:21:22.0     149     -9     76    150    168  93.5  29.1  34152  289.43 0854.74
2009/04/23 12:21:22.1     126     -5     49    127    136  92.6  22.0  34154  289.48 0854.74
2009/04/23 12:21:22.2      87     -1     30     88     94  90.8  19.2  34154  289.48 0854.74
2009/04/23 12:21:22.3      35      0     21     36     41  90.0  32.4  34156  289.50 0854.74
2009/04/23 12:21:22.4       7    -32     29     33     43 166.6  46.9  34154  289.48 0854.74
2009/04/23 12:21:22.5      40    -28     17     49     52 125.1  19.2  34156  289.50 0854.74
2009/04/23 12:21:22.6      52    -49     -2     72     73 133.1  -2.2  34154  289.48 0854.74
2009/04/23 12:21:22.7      22    -64      4     68     69 160.8   3.8  34152  289.45 0854.74
2009/04/23 12:21:22.8       0    -53     12     54     56 180.9  13.2  34152  289.45 0854.74
2009/04/23 12:21:22.9     -28    -73     39     79     88 200.9  28.2  34152  289.43 0854.74
2009/04/23 12:21:23.0     -47    -55     62     73     95 220.5  44.3  34154  289.46 0854.74
2009/04/23 12:21:23.1     -22    -47     71     53     88 205.5  59.4  34154  289.48 0854.73
2009/04/23 12:21:23.2     -61    -43     23     75     79 234.9  17.3  34154  289.46 0854.73
2009/04/23 12:21:23.3     -38     -9     43     40     58 256.7  51.2  34154  289.46 0854.73
2009/04/23 12:21:23.4     -30     -2     44     31     53 265.6  61.5  34156  289.50 0854.73
2009/04/23 12:21:23.5     -30     10     31     32     44 290.0  51.1  34156  289.50 0854.73
2009/04/23 12:21:23.6      -7      7     45     11     46 315.0  85.9  34160  289.58 0854.73
2009/04/23 12:21:23.7      -3    -10     46     11     47 198.5  86.9  34160  289.58 0854.73
2009/04/23 12:21:23.8     -28    -15     47     33     57 241.1  61.5  34160  289.58 0854.73
2009/04/23 12:21:23.9      12    -16     53     21     57 142.2  78.2  34162  289.60 0854.73
2009/04/23 12:21:24.0       5     -2     47      6     47 115.3  90.0  34164  289.65 0854.73
2009/04/23 12:21:24.1       0     -2     48      3     48 189.7  90.0  34162  289.60 0854.73
2009/04/23 12:21:24.2      16    -34     55     38     66 154.6  62.6  34160  289.58 0854.73
2009/04/23 12:21:24.3      -4     -7     69      9     69 212.5  90.0  34160  289.58 0854.73
2009/04/23 12:21:24.4      10    -68     79     69    104 171.1  54.3  34156  289.50 0854.73
2009/04/23 12:21:24.5      -1    -72     88     73    114 180.9  56.4  34156  289.52 0854.73
2009/04/23 12:21:24.6       0    -25     89     26     92 180.9  83.3  34158  289.55 0854.73
2009/04/23 12:21:24.7      -2    -21     66     22     69 186.2  81.0  34160  289.58 0854.73
2009/04/23 12:21:24.8      24    -51     85     57    102 154.5  63.2  34160  289.57 0854.73
2009/04/23 12:21:24.9      -2     16     89     17     90 352.0  89.6  34162  289.60 0854.73
2009/04/23 12:21:25.0      25      2    105     26    108  83.9  86.4  34160  289.57 0854.73
2009/04/23 12:21:25.1      12   -158    176    159    237 175.5  53.3  34152  289.45 0854.71
2009/04/23 12:21:25.2      30   -148    106    152    185 168.4  38.4  34152  289.43 0854.71
2009/04/23 12:21:25.3     -42   -140     97    147    176 196.9  36.5  34154  289.48 0854.71
2009/04/23 12:21:25.4     -25   -146    111    149    185 189.8  40.7  34152  289.45 0854.71
2009/04/23 12:21:25.5    -100   -203     33    227    230 206.3   8.5  34150  289.41 0854.71
2009/04/23 12:21:25.6     -61   -199     42    209    214 197.0  11.6  34152  289.43 0854.71
2009/04/23 12:21:25.7     -34   -116    123    121    172 196.5  50.1  34150  289.41 0854.71
2009/04/23 12:21:25.8      18    -73    144     76    162 165.7  69.8  34156  289.52 0854.71
2009/04/23 12:21:25.9     -36    -93     86    100    131 201.4  45.4  34152  289.45 0854.71
2009/04/23 12:21:26.0      -6    -40    108     41    115 188.9  79.2  34154  289.48 0854.71
2009/04/23 12:21:26.1       0    -44    110     45    118 180.0  77.0  34150  289.41 0854.71
2009/04/23 12:21:26.2      52      9    126     53    136  79.4  76.1  34158  289.55 0854.71
2009/04/23 12:21:26.3     -26    -26    130     37    135 225.0  83.3  34156  289.50 0854.71
2009/04/23 12:21:26.4      42    -50     98     66    118 139.5  62.7  34158  289.53 0854.71
2009/04/23 12:21:26.5     -43    -18    131     47    139 247.4  79.7  34160  289.58 0854.71
2009/04/23 12:21:26.6     -13    -67    133     69    149 191.5  70.8  34152  289.43 0854.71
2009/04/23 12:21:26.7      67   -141    159    157    223 154.7  50.1  34148  289.38 0854.71
2009/04/23 12:21:26.9      97   -232    107    252    273 157.3  24.3  34148  289.37 0854.71
2009/04/23 12:21:27.0      36   -213    106    217    241 170.2  28.0  34146  289.34 0854.71
2009/04/23 12:21:27.1      77   -211     94    225    243 160.0  23.8  34148  289.37 0854.71
2009/04/23 12:21:27.2     158   -233     77    282    293 145.7  15.3  34148  289.37 0854.69
2009/04/23 12:21:27.3     161   -198    119    256    282 141.0  26.6  34150  289.41 0854.69
2009/04/23 12:21:27.4     148   -200    112    249    273 143.5  25.9  34148  289.36 0854.69
2009/04/23 12:21:27.5     109   -171    136    204    245 147.4  37.0  34150  289.40 0854.69
2009/04/23 12:21:27.6      87   -200    128    219    253 156.4  32.9  34150  289.41 0854.69
2009/04/23 12:21:27.7     103   -186    108    213    238 151.0  29.1  34146  289.35 0854.69
2009/04/23 12:21:27.8      26   -153    127    156    201 170.3  43.5  34148  289.38 0854.69
2009/04/23 12:21:27.9      45   -148    106    155    187 163.1  37.6  34150  289.41 0854.69
2009/04/23 12:21:28.0      73   -133    110    152    187 151.1  39.7  34148  289.38 0854.69
2009/04/23 12:21:28.1      48   -146    136    154    205 161.7  45.9  34148  289.38 0854.69
2009/04/23 12:21:28.2      41    -86    125     96    157 154.6  58.5  34150  289.40 0854.69
2009/04/23 12:21:28.3      14    -47     95     50    107 163.1  69.8  34152  289.45 0854.69
2009/04/23 12:21:28.4      44    -28     89     53    103 122.4  66.2  34154  289.46 0854.69
2009/04/23 12:21:28.5      81    -69     91    107    140 130.4  44.8  34154  289.46 0854.69
2009/04/23 12:21:28.6      63    -29     86     70    110 115.2  56.4  34154  289.46 0854.69
2009/04/23 12:21:28.7      -2    -43    105     44    113 183.6  76.6  34158  289.55 0854.69
2009/04/23 12:21:28.8      55   -144    121    155    196 159.1  42.0  34156  289.50 0854.69
2009/04/23 12:21:28.9     169   -137    122    218    249 129.1  31.6  34152  289.44 0854.69
2009/04/23 12:21:29.0     176   -103    148    205    252 120.4  39.3  34150  289.41 0854.69
2009/04/23 12:21:29.1     128    -70     93    147    173 118.8  35.5  34154  289.46 0854.69
2009/04/23 12:21:29.2     122   -110    106    165    196 132.0  35.6  34150  289.41 0854.69
2009/04/23 12:21:29.3      93   -113     82    147    168 140.3  31.6  34152  289.43 0854.69
2009/04/23 12:21:29.4     122   -140     65    186    198 139.0  19.4  34154  289.48 0854.69
2009/04/23 12:21:29.5     102   -145     71    178    191 144.8  23.0  34152  289.45 0854.69
2009/04/23 12:21:29.6      41   -134     62    141    154 163.0  25.1  34148  289.38 0854.69
2009/04/23 12:21:29.7      72    -59    104     94    140 129.1  52.7  34152  289.43 0854.69
2009/04/23 12:21:29.8     123   -102     75    160    176 129.6  27.0  34152  289.43 0854.69
2009/04/23 12:21:29.9      79    -92    103    122    159 139.5  44.5  34154  289.46 0854.69
2009/04/23 12:21:30.0      57   -116     69    130    147 153.7  29.8  34154  289.48 0854.69
2009/04/23 12:21:30.1      78   -201     11    216    217 158.6   2.9  34150  289.41 0854.69
2009/04/23 12:21:30.2      81   -283     20    295    296 164.0   3.9  34148  289.36 0854.69
2009/04/23 12:21:30.3     110   -344     41    362    365 162.2   6.6  34146  289.35 0854.69
2009/04/23 12:21:30.4     109   -296     24    316    317 159.7   4.4  34146  289.32 0854.69
2009/04/23 12:21:30.5      77   -265     25    277    279 163.7   5.2  34144  289.29 0854.69
2009/04/23 12:21:30.6      36   -285    145    288    322 172.7  28.6  34144  289.29 0854.69
2009/04/23 12:21:30.7      33   -291    156    293    331 173.5  30.5  34144  289.31 0854.69
2009/04/23 12:21:30.8      26   -260    150    262    301 174.2  32.4  34146  289.32 0854.69
2009/04/23 12:21:30.9     -12   -269    166    270    316 182.7  34.4  34146  289.34 0854.69
2009/04/23 12:21:31.0     -42   -280    199    284    346 188.7  38.5  34148  289.37 0854.69
2009/04/23 12:21:31.1      10   -330    173    331    373 178.2  29.8  34148  289.38 0854.69
2009/04/23 12:21:31.2       9   -329    174    330    373 178.3  30.1  34152  289.45 0854.68
2009/04/23 12:21:31.3      10   -341    201    342    396 178.3  33.1  34150  289.40 0854.68
2009/04/23 12:21:31.4       3   -349    186    350    396 179.5  30.3  34152  289.45 0854.68
2009/04/23 12:21:31.5      20   -304    101    305    322 176.2  18.5  34152  289.42 0854.68
2009/04/23 12:21:31.6      52   -258     50    264    269 168.4  10.8  34150  289.41 0854.68
2009/04/23 12:21:31.7      94   -108     63    144    157 139.0  25.1  34150  289.41 0854.68
2009/04/23 12:21:31.8      25    -37     95     45    105 145.7  72.9  34152  289.43 0854.68
2009/04/23 12:21:31.9     -67   -107    125    127    178 212.1  49.8  34152  289.45 0854.68
2009/04/23 12:21:32.0    -123   -145    109    191    219 220.3  32.1  34152  289.43 0854.68
2009/04/23 12:21:32.1    -150   -116     79    190    205 232.2  23.8  34154  289.46 0854.68
2009/04/23 12:21:32.2    -150    -49     55    158    168 251.8  19.2  34160  289.57 0854.68
2009/04/23 12:21:32.3     -38     -7     32     39     50 258.5  43.7  34162  289.60 0854.68
2009/04/23 12:21:32.4     -43      4     36     44     56 276.1  43.7  34162  289.60 0854.68
2009/04/23 12:21:32.5     -64    -26     27     70     75 248.2  21.0  34160  289.58 0854.68
2009/04/23 12:21:32.6      34     36     46     50     67  43.2  48.0  34158  289.55 0854.68
2009/04/23 12:21:32.7     -88     82    132    121    179 313.1  52.5  34162  289.62 0854.68
2009/04/23 12:21:32.8    -156     75    120    174    211 295.8  37.6  34162  289.62 0854.68
2009/04/23 12:21:32.9     -98     82    126    128    179 310.0  50.0  34166  289.67 0854.68
2009/04/23 12:21:33.0     -43    123    140    131    191 340.8  52.1  34160  289.57 0854.68
2009/04/23 12:21:33.1      48     51     41     71     81  43.2  32.9  34164  289.65 0854.68
2009/04/23 12:21:33.2      63     25     48     68     83  68.3  39.1  34162  289.60 0854.69
2009/04/23 12:21:33.3      40    -33     43     52     67 129.5  43.8  34158  289.53 0854.69
2009/04/23 12:21:33.4      75    -36     -7     84     85 115.4  -5.2  34156  289.52 0854.69
2009/04/23 12:21:33.5      71    -48      9     86     87 124.2   6.5  34154  289.46 0854.69
2009/04/23 12:21:33.6      45    -40     44     61     75 131.3  39.5  34152  289.45 0854.69
2009/04/23 12:21:33.7      50    -41     70     66     96 129.5  51.2  34154  289.48 0854.69
2009/04/23 12:21:33.8      49    -19     74     53     91 111.7  61.1  34154  289.48 0854.69
2009/04/23 12:21:33.9      49    -10     52     51     72 102.4  49.1  34156  289.50 0854.69
2009/04/23 12:21:34.0      40      6     54     41     67  81.2  59.4  34158  289.53 0854.69
2009/04/23 12:21:34.1      56     13     55     58     79  76.7  49.0  34156  289.50 0854.69
2009/04/23 12:21:34.2      37      7     41     38     55  78.6  52.2  34156  289.52 0854.69
2009/04/23 12:21:34.3      14     10     56     18     58  54.0  80.7  34162  289.60 0854.69
2009/04/23 12:21:34.4      10    -10     45     15     47 135.0  81.0  34162  289.62 0854.69
2009/04/23 12:21:34.5     -20      4     40     21     45 281.5  69.8  34168  289.70 0854.69
2009/04/23 12:21:34.6     -27     -9     47     29     55 251.4  64.7  34168  289.70 0854.69
2009/04/23 12:21:34.7     -29     -5     62     30     68 258.5  72.9  34170  289.75 0854.69
2009/04/23 12:21:34.8     -61     -4     60     62     86 265.7  50.0  34174  289.80 0854.69
2009/04/23 12:21:34.9     -30     -6     33     31     45 258.5  51.2  34166  289.67 0854.69
2009/04/23 12:21:35.0     -23    -13     38     27     46 239.3  61.5  34168  289.70 0854.69
2009/04/23 12:21:35.1     -22    -17     66     29     72 232.2  75.0  34164  289.65 0854.69
2009/04/23 12:21:35.2     -47    -65     55     81     97 216.1  37.0  34160  289.58 0854.70
2009/04/23 12:21:35.3     -64    -55      8     85     86 229.6   5.4  34156  289.50 0854.70
2009/04/23 12:21:35.4     -36    -87     -6     95     96 202.7  -3.7  34158  289.53 0854.70
2009/04/23 12:21:35.5      -9    -65     12     66     68 188.0  11.0  34158  289.53 0854.70
2009/04/23 12:21:35.6     -10    -49     -6     51     52 191.6  -7.3  34156  289.52 0854.70
2009/04/23 12:21:35.7     -13    -57     -4     59     60 193.4  -4.1  34158  289.53 0854.70
2009/04/23 12:21:35.8       2    -95     26     96    100 178.6  15.2  34156  289.52 0854.70
2009/04/23 12:21:35.9      42   -208     39    213    217 168.4  10.6  34154  289.48 0854.70
2009/04/23 12:21:36.0      19   -232     45    233    238 175.1  11.1  34152  289.44 0854.70
2009/04/23 12:21:36.1     -43   -163     59    169    180 195.1  19.2  34154  289.48 0854.70
2009/04/23 12:21:36.2     -12   -133     54    134    144 185.3  23.0  34156  289.50 0854.70
2009/04/23 12:21:36.3     -57   -190     71    199    212 196.9  19.6  34156  289.52 0854.70
2009/04/23 12:21:36.4     -94   -210     85    231    246 204.1  21.0  34156  289.49 0854.70
2009/04/23 12:21:36.5    -132   -169    117    215    244 218.1  30.8  34154  289.47 0854.70
2009/04/23 12:21:36.6     -63   -116    109    132    171 208.5  43.7  34158  289.55 0854.70
2009/04/23 12:21:36.7    -114   -121     87    167    188 223.2  29.8  34158  289.55 0854.70
2009/04/23 12:21:36.8     -30    -69    168     76    184 203.6  74.0  34158  289.53 0854.70
2009/04/23 12:21:36.9     189    -72    171    203    265 111.1  44.3  34158  289.54 0854.70
2009/04/23 12:21:37.0     133    -69    156    151    217 117.5  51.2  34162  289.62 0854.70
2009/04/23 12:21:37.1     117   -157    146    196    244 143.3  40.7  34156  289.50 0854.70
2009/04/23 12:21:37.2      51   -134    192    144    240 159.1  59.4  34156  289.52 0854.70
2009/04/23 12:21:37.3      33   -189    182    192    264 170.0  48.5  34156  289.49 0854.70
2009/04/23 12:21:37.4       0   -256    139    257    292 180.0  31.3  34154  289.47 0854.70
2009/04/23 12:21:37.5      16   -220    151    221    267 175.8  37.6  34156  289.49 0854.70
2009/04/23 12:21:37.6     -47   -215    106    221    245 192.5  27.3  34154  289.47 0854.70
2009/04/23 12:21:37.7     -48   -183    115    190    222 194.9  34.2  34152  289.45 0854.70
2009/04/23 12:21:37.8     -88   -181     74    202    215 206.1  20.9  34154  289.46 0854.70
2009/04/23 12:21:37.9     -49   -147     75    156    173 198.7  27.3  34152  289.45 0854.70
2009/04/23 12:21:38.0      73   -177     88    192    211 157.5  26.4  34150  289.41 0854.70
2009/04/23 12:21:38.1     100   -181    123    208    241 151.0  33.5  34152  289.43 0854.70
2009/04/23 12:21:38.2      43   -212    118    217    247 168.4  30.8  34152  289.42 0854.72
2009/04/23 12:21:38.3      31   -209    125    212    246 171.5  33.4  34154  289.47 0854.72
2009/04/23 12:21:38.4     -37   -197    118    201    233 190.9  33.4  34152  289.45 0854.72
2009/04/23 12:21:38.5     -33   -158    117    162    199 191.8  39.5  34152  289.45 0854.72
2009/04/23 12:21:38.6     -18   -136    118    138    181 187.6  45.1  34152  289.45 0854.72
2009/04/23 12:21:38.7     -46   -163    120    170    208 195.8  38.8  34154  289.46 0854.72
2009/04/23 12:21:38.8     -91   -194    104    215    238 205.2  27.8  34154  289.46 0854.72
2009/04/23 12:21:38.9     -90   -109    111    142    180 219.6  42.0  34158  289.53 0854.72
2009/04/23 12:21:39.0    -180     13    108    181    210 274.3  33.5  34158  289.55 0854.72
2009/04/23 12:21:39.1     -93   -110     66    145    159 220.1  26.2  34156  289.50 0854.72
2009/04/23 12:21:39.2     -16    -98    132    100    165 189.8  59.2  34154  289.48 0854.72
2009/04/23 12:21:39.3     -22    -83    115     86    143 195.1  60.0  34156  289.52 0854.72
2009/04/23 12:21:39.4     -11    -55     87     57    104 191.5  64.1  34158  289.53 0854.72
2009/04/23 12:21:39.5       0    -35     71     36     79 180.9  71.4  34160  289.57 0854.72
2009/04/23 12:21:39.6      -1     18     44     19     47 355.5  76.1  34164  289.65 0854.72
2009/04/23 12:21:39.7      33     12     62     36     71  70.0  66.8  34160  289.58 0854.72
2009/04/23 12:21:39.8      55     45     88     72    113  50.5  56.4  34154  289.48 0854.72
2009/04/23 12:21:39.9      40     32    100     52    112  51.4  70.8  34158  289.53 0854.72
2009/04/23 12:21:40.0      83     68     94    108    143  50.5  45.8  34158  289.53 0854.72
2009/04/23 12:21:40.1      92     25    111     96    146  74.5  54.8  34168  289.72 0854.72
2009/04/23 12:21:40.2      61    -26    113     67    131 113.5  66.7  34168  289.70 0854.72
2009/04/23 12:21:40.3      16     -7     98     18     99 115.3  90.0  34168  289.72 0854.72
2009/04/23 12:21:40.4      -5    -17     71     18     73 198.5  85.9  34166  289.67 0854.72
2009/04/23 12:21:40.5      14     20     55     25     60  36.1  73.1  34172  289.79 0854.72
2009/04/23 12:21:40.6     -38    -34     36     52     63 227.8  38.6  34164  289.65 0854.72
2009/04/23 12:21:40.7     -59      4     64     60     87 274.4  51.2  34166  289.67 0854.72
2009/04/23 12:21:40.8     -55    -58     73     81    109 223.4  47.5  34158  289.55 0854.72
2009/04/23 12:21:40.9     -36    -66     65     76    100 209.0  44.8  34160  289.57 0854.72
2009/04/23 12:21:41.0       8    -57     77     58     96 171.1  59.4  34160  289.57 0854.72
2009/04/23 12:21:41.1      36     66    -39     76     85  28.9 -33.7  34160  289.58 0854.72
2009/04/23 12:21:41.2     111     90     12    144    145  50.9   5.0  34166  289.69 0854.72
2009/04/23 12:21:41.3      68    132     86    149    172  27.2  32.7  34158  289.55 0854.72
2009/04/23 12:21:41.5      58    110     65    125    140  28.1  29.3  34170  289.75 0854.72
2009/04/23 12:21:41.5     141     90     87    168    189  57.6  29.5  34168  289.70 0854.72
2009/04/23 12:21:41.6      60     75    129     97    161  38.7  59.2  34166  289.67 0854.72
2009/04/23 12:21:41.7      -9    -38     79     40     88 193.4  71.9  34170  289.74 0854.72
2009/04/23 12:21:41.8      19    -34    114     40    120 151.0  80.2  34160  289.57 0854.72
2009/04/23 12:21:41.9       1    -73    124     74    144 179.1  66.2  34160  289.57 0854.72
2009/04/23 12:21:42.0      27    -17    134     32    137 122.4  86.9  34162  289.62 0854.72
2009/04/23 12:21:42.1     -42    -80    154     91    178 208.1  67.0  34158  289.53 0854.72
2009/04/23 12:21:42.2     -52   -110    188    122    224 205.3  64.4  34160  289.57 0854.73
2009/04/23 12:21:42.3     -32   -156    139    160    211 191.6  45.6  34158  289.53 0854.73
2009/04/23 12:21:42.4     -85   -145     74    169    184 210.5  25.1  34154  289.48 0854.73
2009/04/23 12:21:42.5     -13    -96    155     97    182 188.0  64.7  34158  289.53 0854.73
2009/04/23 12:21:42.6     -31   -114    167    119    205 195.2  61.1  34156  289.52 0854.73
2009/04/23 12:21:42.7       0    -41     82     42     92 180.9  71.4  34154  289.46 0854.73
2009/04/23 12:21:42.8       1    -62    145     63    158 179.0  75.3  34160  289.58 0854.73
2009/04/23 12:21:42.9       0   -114    131    115    174 180.0  54.3  34158  289.55 0854.73
2009/04/23 12:21:43.0      51    -64    116     83    142 141.3  60.6  34154  289.48 0854.73
2009/04/23 12:21:43.1       8    -42    102     43    110 168.4  76.1  34160  289.58 0854.73
2009/04/23 12:21:43.2      -4   -138    161    139    212 181.8  54.6  34154  289.46 0854.73
2009/04/23 12:21:43.3      -5   -166    178    167    244 181.8  52.0  34156  289.50 0854.73
2009/04/23 12:21:43.4     -10   -135    179    136    224 184.5  59.2  34156  289.50 0854.73
2009/04/23 12:21:43.5     -31   -142    169    146    223 192.5  54.6  34158  289.53 0854.73
2009/04/23 12:21:43.6     -45   -157    165    164    232 196.0  50.1  34156  289.50 0854.73
2009/04/23 12:21:43.7      10   -123    175    124    214 175.1  61.5  34162  289.60 0854.73
2009/04/23 12:21:43.8     -12    -11    106     17    107 226.7  90.0  34166  289.67 0854.73
2009/04/23 12:21:43.9       9    -38    125     40    131 166.6  81.2  34160  289.57 0854.73
2009/04/23 12:21:44.0      97   -104    121    143    187 136.8  44.5  34158  289.55 0854.73
2009/04/23 12:21:44.1      65    -31     97     73    121 115.4  59.0  34158  289.55 0854.73
2009/04/23 12:21:44.2     111     29     27    115    119  75.0  13.2  34160  289.58 0854.74
2009/04/23 12:21:44.3      65    -21    117     69    135 108.2  66.7  34162  289.60 0854.74
2009/04/23 12:21:44.4     120    -18     99    122    157  98.8  43.3  34160  289.58 0854.74
2009/04/23 12:21:44.5      89    -17    101     91    135 101.4  53.3  34160  289.58 0854.74
2009/04/23 12:21:44.6      55    -53     81     77    111 134.1  51.6  34160  289.58 0854.74
2009/04/23 12:21:44.7       7   -116    136    117    179 176.4  55.0  34158  289.53 0854.74
2009/04/23 12:21:44.8      -7   -101     93    102    138 184.5  47.9  34158  289.53 0854.74
2009/04/23 12:21:44.9     -31   -164     99    167    194 190.7  33.7  34156  289.52 0854.74
2009/04/23 12:21:45.0     -52   -156     71    165    179 198.7  24.9  34160  289.57 0854.74
2009/04/23 12:21:45.1      -1   -114     65    115    132 180.9  31.9  34156  289.52 0854.74
2009/04/23 12:21:45.2      37   -122     45    128    136 163.1  19.4  34156  289.52 0854.74
2009/04/23 12:21:45.3     -53   -240    153    246    289 192.5  35.0  34156  289.51 0854.74
2009/04/23 12:21:45.4     -47   -221    154    226    273 192.0  37.6  34158  289.53 0854.74
2009/04/23 12:21:45.5     -47   -233    184    238    300 191.6  41.6  34156  289.51 0854.74
2009/04/23 12:21:45.6     -57   -261    250    268    366 192.5  47.9  34158  289.54 0854.74
2009/04/23 12:21:45.7       6   -166    197    167    258 177.8  55.4  34156  289.52 0854.74
2009/04/23 12:21:45.8       2   -130    143    131    193 179.0  52.5  34158  289.55 0854.74
2009/04/23 12:21:45.9      96    -96    141    137    196 135.0  50.9  34158  289.55 0854.74
2009/04/23 12:21:46.0     166   -138     99    217    238 129.8  26.2  34156  289.52 0854.74
2009/04/23 12:21:46.1     138    -44     97    145    174 107.7  36.7  34158  289.53 0854.74
2009/04/23 12:21:46.2     197   -125    103    234    255 122.5  25.2  34158  289.53 0854.74
2009/04/23 12:21:46.3     181    -97     -8    206    207 118.2  -2.2  34160  289.58 0854.74
2009/04/23 12:21:46.4     149    -82    -13    171    172 118.9  -4.6  34160  289.57 0854.74
2009/04/23 12:21:46.5     188    -90      9    209    210 115.8   2.5  34156  289.52 0854.74
2009/04/23 12:21:46.6     151   -161    -40    221    225 136.8 -10.3  34156  289.50 0854.74
2009/04/23 12:21:46.7     135   -192    -20    235    236 144.8  -5.1  34158  289.54 0854.74
2009/04/23 12:21:46.8     160   -171    -58    235    243 137.0 -13.9  34160  289.56 0854.74
2009/04/23 12:21:46.9     114   -178    -66    212    223 147.4 -17.3  34158  289.55 0854.74
2009/04/23 12:21:47.0     164   -175      7    241    242 136.8   1.8  34160  289.56 0854.74
2009/04/23 12:21:47.1     153   -162     -1    224    225 136.6  -0.5  34158  289.53 0854.74
2009/04/23 12:21:47.2     100   -181    -26    207    209 151.1  -7.2  34158  289.53 0854.74
2009/04/23 12:21:47.3      85   -168     27    189    191 153.0   8.2  34156  289.50 0854.74
2009/04/23 12:21:47.4     132   -183    -53    226    233 144.2 -13.3  34156  289.52 0854.74
2009/04/23 12:21:47.5      94   -214    -38    234    238 156.3  -9.3  34156  289.51 0854.74
2009/04/23 12:21:47.6     112   -239    -30    265    267 154.8  -6.5  34156  289.49 0854.74
2009/04/23 12:21:47.7     144   -235     -5    276    277 148.4  -1.2  34158  289.53 0854.74
2009/04/23 12:21:47.8     155   -212    -14    263    264 143.9  -3.1  34156  289.51 0854.74
2009/04/23 12:21:47.9     214   -178    -26    279    281 129.6  -5.4  34154  289.47 0854.74
2009/04/23 12:21:48.0     144   -242     60    282    289 149.3  12.2  34144  289.29 0854.74
2009/04/23 12:21:48.1     131   -304    -12    332    333 156.7  -2.2  34136  289.16 0854.74
2009/04/23 12:21:48.2       1   -367     94    368    380 179.8  14.4  34146  289.32 0854.75
2009/04/23 12:21:48.3    -150   -367     25    397    398 202.3   3.7  34152  289.43 0854.75
2009/04/23 12:21:48.4     -19   -355    -98    356    370 183.2 -15.4  34146  289.32 0854.75
2009/04/23 12:21:48.5      41   -334    -65    337    344 172.9 -11.0  34142  289.28 0854.75
2009/04/23 12:21:48.6      19   -520    -52    521    524 177.9  -5.8  34146  289.33 0854.75
2009/04/23 12:21:48.7      14   -555   -116    556    569 178.5 -11.8  34132  289.09 0854.75
2009/04/23 12:21:48.8     120   -518    -71    532    537 166.9  -7.7  34132  289.11 0854.75
2009/04/23 12:21:48.9     168   -473   -139    503    523 160.4 -15.5  34134  289.13 0854.75
2009/04/23 12:21:49.0      -3   -488    -63    489    493 180.4  -7.4  34142  289.25 0854.75
2009/04/23 12:21:49.1     -19   -592   -107    593    603 181.9 -10.3  34146  289.32 0854.75
2009/04/23 12:21:49.2     116   -708   -112    718    727 170.7  -8.9  34136  289.15 0854.75
2009/04/23 12:21:49.3     137   -493   -173    512    541 164.4 -18.7  34128  289.04 0854.75
2009/04/23 12:21:49.4    -146   -772   -251    786    825 190.7 -22.8  34126  288.99 0854.75
2009/04/23 12:21:49.5    -184   -603   -217    631    668 197.0 -19.0  34132  289.11 0854.75
2009/04/23 12:21:49.6      -8   -475   -226    476    526 181.0 -31.7  34130  289.06 0854.75
2009/04/23 12:21:49.7     -43   -467   -135    470    489 185.4 -20.7  34134  289.12 0854.75
2009/04/23 12:21:49.8    -186   -508   -182    542    572 200.1 -18.6  34130  289.06 0854.75
2009/04/23 12:21:49.9     -24   -514   -183    515    547 182.7 -19.6  34130  289.06 0854.75
2009/04/23 12:21:50.0      18   -546   -161    547    571 178.1 -16.4  34134  289.13 0854.75
2009/04/23 12:21:50.1      27   -590   -129    591    606 177.3 -12.4  34130  289.07 0854.75
2009/04/23 12:21:50.2      76   -684    -91    689    696 173.6  -7.6  34130  289.05 0854.76
2009/04/23 12:21:50.3      93   -567      0    575    576 170.7   0.0  34134  289.14 0854.76
2009/04/23 12:21:50.4     115   -575     16    587    588 168.7   1.6  34138  289.20 0854.76
2009/04/23 12:21:50.5     160   -580     32    602    603 164.5   3.1  34134  289.14 0854.76
2009/04/23 12:21:50.6     157   -581      8    603    604 164.8   0.8  34132  289.10 0854.76
2009/04/23 12:21:50.7     108   -634    -35    644    646 170.3  -3.2  34132  289.11 0854.76
2009/04/23 12:21:50.8     157   -618      1    638    639 165.7   0.1  34132  289.11 0854.76
2009/04/23 12:21:50.9     173   -599     23    624    625 163.9   2.1  34136  289.16 0854.76
2009/04/23 12:21:51.0     157   -602    -24    623    624 165.3  -2.3  34142  289.25 0854.76
2009/04/23 12:21:51.1     137   -576    -32    593    594 166.6  -3.2  34136  289.17 0854.76
2009/04/23 12:21:51.2     167   -597     10    621    622 164.3   1.0  34136  289.16 0854.76
2009/04/23 12:21:51.3     170   -581    -23    606    607 163.7  -2.2  34138  289.19 0854.76
2009/04/23 12:21:51.4     104   -577   -137    587    603 169.8 -13.2  34138  289.19 0854.76
2009/04/23 12:21:51.5     123   -668   -207    680    712 169.5 -17.0  34136  289.17 0854.76
2009/04/23 12:21:51.6     202   -794    -73    820    824 165.7  -5.1  34134  289.13 0854.76
2009/04/23 12:21:51.7    -246   -696    143    739    753 199.5  11.0  34138  289.21 0854.76
2009/04/23 12:21:51.8    -187   -615     61    644    648 197.0   5.4  34138  289.21 0854.76
2009/04/23 12:21:51.9    -140   -547    -16    565    566 194.4  -1.7  34142  289.26 0854.76
2009/04/23 12:21:52.0    -212   -515    -80    557    563 202.4  -8.3  34142  289.26 0854.76
2009/04/23 12:21:52.1    -196   -536    -47    571    574 200.1  -4.8  34142  289.25 0854.76
2009/04/23 12:21:52.2     -83   -507    -28    514    515 189.3  -3.1  34142  289.25 0854.76
2009/04/23 12:21:52.3     -76   -559     28    565    566 187.8   2.9  34142  289.28 0854.76
2009/04/23 12:21:52.4     -11   -550    -38    551    553 181.2  -4.0  34140  289.23 0854.76
2009/04/23 12:21:52.5     131   -527      6    544    545 166.0   0.7  34136  289.18 0854.76
2009/04/23 12:21:52.6     112   -553     51    565    568 168.5   5.2  34138  289.19 0854.76
2009/04/23 12:21:52.7      91   -592      7    599    600 171.2   0.7  34136  289.17 0854.76
2009/04/23 12:21:52.8     192   -519    -27    554    555 159.7  -2.8  34136  289.18 0854.76
2009/04/23 12:21:52.9     190   -535     -7    569    570 160.4  -0.7  34134  289.13 0854.76
2009/04/23 12:21:53.0     213   -526      3    568    569 157.9   0.4  34134  289.14 0854.76
2009/04/23 12:21:53.1     181   -509     43    541    543 160.4   4.6  34134  289.14 0854.76
2009/04/23 12:21:53.2     158   -475     18    501    502 161.5   2.1  34136  289.15 0854.76
2009/04/23 12:21:53.3     179   -512     -5    543    544 160.7  -0.6  34142  289.28 0854.76
2009/04/23 12:21:53.4     131   -530    -39    546    548 166.1  -4.1  34140  289.24 0854.76
2009/04/23 12:21:53.5     227   -450    -16    505    506 153.2  -1.9  34126  289.00 0854.76
2009/04/23 12:21:53.7     279   -398     58    487    491 145.0   6.8  34136  289.17 0854.76
2009/04/23 12:21:53.8     162   -416     33    447    449 158.7   4.3  34138  289.21 0854.76
2009/04/23 12:21:53.9      83   -379    210    389    442 167.6  30.6  34140  289.22 0854.76
2009/04/23 12:21:54.0     276   -312     75    417    424 138.5  10.2  34136  289.17 0854.76
2009/04/23 12:21:54.1     126   -264     80    293    304 154.4  15.3  34138  289.19 0854.76
2009/04/23 12:21:54.2     174   -202    -58    267    274 139.2 -12.4  34138  289.20 0854.76
2009/04/23 12:21:54.3     109   -142    -33    180    184 142.6 -10.5  34136  289.18 0854.77
2009/04/23 12:21:54.4     -36   -161    -69    166    179 192.7 -28.2  34140  289.23 0854.77
2009/04/23 12:21:54.5     -16   -118    -53    120    131 188.0 -29.6  34138  289.19 0854.77
2009/04/23 12:21:54.6      35   -251    -65    254    263 172.0 -14.5  34138  289.20 0854.77
2009/04/23 12:21:54.7     -51   -377   -100    381    394 187.8 -14.8  34138  289.20 0854.77
2009/04/23 12:21:54.8    -110   -454    -81    468    476 193.7  -9.9  34140  289.23 0854.77
2009/04/23 12:21:54.9    -104   -307    118    325    345 198.7  20.7  34136  289.15 0854.77
2009/04/23 12:21:55.0    -172   -279    -98    328    343 211.6 -16.7  34134  289.13 0854.77
2009/04/23 12:21:55.1    -213   -382    -69    438    444 209.1  -9.0  34150  289.39 0854.77
2009/04/23 12:21:55.2    -185   -464   -258    500    562 201.8 -33.8  34144  289.31 0854.77
2009/04/23 12:21:55.3     -40   -517   -167    519    545 184.5 -22.9  34138  289.21 0854.77
2009/04/23 12:21:55.4    -217   -512   -101    557    567 203.0 -10.3  34136  289.16 0854.77
2009/04/23 12:21:55.5    -260   -551   -180    610    636 205.3 -21.2  34138  289.21 0854.77
2009/04/23 12:21:55.6    -220   -460   -186    511    543 205.6 -25.3  34140  289.23 0854.77
2009/04/23 12:21:55.7    -253   -429   -245    499    555 210.5 -32.6  34144  289.29 0854.77
2009/04/23 12:21:55.8    -336   -513   -321    614    692 213.2 -34.2  34142  289.26 0854.77
2009/04/23 12:21:55.9    -301   -145   -301    335    450 244.2 -51.0  34124  288.97 0854.77
2009/04/23 12:21:56.0    -185   -363   -121    408    425 207.1 -21.5  34140  289.24 0854.77
2009/04/23 12:21:56.1    -151   -373   -122    403    421 202.1 -21.8  34142  289.26 0854.77
2009/04/23 12:21:56.2    -218   -240   -240    325    404 222.2 -44.5  34142  289.25 0854.77
2009/04/23 12:21:56.3    -135   -207   -275    248    370 213.2 -57.9  34130  289.08 0854.77
2009/04/23 12:21:56.4    -208   -133   -224    248    334 237.4 -51.2  34142  289.25 0854.77
2009/04/23 12:21:56.5     -41    -93   -130    102    165 204.1 -62.3  34142  289.26 0854.77
2009/04/23 12:21:56.6     -43   -142   -111    149    185 196.9 -45.1  34136  289.18 0854.77
2009/04/23 12:21:56.7      57   -153    110    164    197 159.5  37.3  34140  289.24 0854.77
2009/04/23 12:21:56.8      96   -175    166    200    259 151.3  43.8  34142  289.25 0854.77
2009/04/23 12:21:56.9      77    -93    122    122    172 140.4  50.1  34148  289.36 0854.77
2009/04/23 12:21:57.0     313   -221    -26    384    385 125.2  -4.0  34142  289.28 0854.77
2009/04/23 12:21:57.1     375   -231    -80    441    449 121.6 -10.4  34142  289.26 0854.77
2009/04/23 12:21:57.2     339   -360    -27    495    496 136.7  -3.1  34138  289.20 0854.77
2009/04/23 12:21:57.3     361   -283     90    460    469 128.1  11.1  34140  289.22 0854.78
2009/04/23 12:21:57.4     301   -288     88    417    427 133.7  12.0  34140  289.22 0854.78
2009/04/23 12:21:57.5     245   -265    118    362    381 137.2  18.2  34140  289.23 0854.78
2009/04/23 12:21:57.6     187   -228    115    296    317 140.6  22.3  34140  289.24 0854.78
2009/04/23 12:21:57.7     168   -204    151    265    305 140.6  32.3  34142  289.25 0854.78
2009/04/23 12:21:57.8     150   -269    181    309    358 150.8  33.1  34140  289.23 0854.78
2009/04/23 12:21:57.9      48   -280    219    285    359 170.2  41.5  34140  289.23 0854.78
2009/04/23 12:21:58.0      60   -251    241    259    353 166.6  47.9  34138  289.20 0854.78
2009/04/23 12:21:58.1     115   -367    237    385    452 162.6  34.5  34130  289.07 0854.78
2009/04/23 12:21:58.2     119   -468    284    484    561 165.7  33.1  34136  289.16 0854.78
2009/04/23 12:21:58.3     144   -467    379    489    618 162.8  41.7  34140  289.24 0854.78
2009/04/23 12:21:58.4     192   -466    411    505    651 157.6  43.4  34134  289.14 0854.78
2009/04/23 12:21:58.5     291   -593    450    661    799 153.8  37.6  34136  289.18 0854.78
2009/04/23 12:21:58.6     256   -597    237    650    691 156.8  20.9  34142  289.26 0854.78
2009/04/23 12:21:58.7     205   -537    138    576    593 159.1  13.5  34140  289.22 0854.78
2009/04/23 12:21:58.8     342   -555     31    652    653 148.4   2.8  34132  289.09 0854.78
2009/04/23 12:21:58.9     360   -436     58    566    569 140.5   5.9  34134  289.14 0854.78
2009/04/23 12:21:59.0     311   -396     90    504    513 141.9  10.1  34138  289.20 0854.78
2009/04/23 12:21:59.1     175   -349    116    391    408 153.4  16.5  34134  289.14 0854.78
2009/04/23 12:21:59.2      99   -332    -48    347    351 163.4  -8.0  34136  289.15 0854.78
2009/04/23 12:21:59.3     201   -199     14    283    284 134.7   2.9  34134  289.12 0854.78
2009/04/23 12:21:59.4     -32   -224    104    227    249 188.1  26.2  34136  289.17 0854.78
2009/04/23 12:21:59.5     -81   -263    120    276    300 197.2  25.1  34142  289.25 0854.78
2009/04/23 12:21:59.6     -60   -325     86    331    343 190.5  14.7  34142  289.28 0854.78
2009/04/23 12:21:59.7      20   -271     53    272    278 175.6  11.1  34140  289.24 0854.78
2009/04/23 12:21:59.8     250   -177    171    307    351 125.3  31.6  34142  289.28 0854.78
2009/04/23 12:21:59.9     121   -289    259    314    407 157.3  43.7  34136  289.16 0854.78
2009/04/23 12:22:00.0     -44   -312    153    316    351 188.1  27.4  34138  289.21 0854.78
2009/04/23 12:22:00.1     117   -246    -45    273    277 154.5  -9.4  34146  289.32 0854.78
2009/04/23 12:22:00.2      62   -245    -45    253    258 165.7 -10.1  34144  289.29 0854.78
2009/04/23 12:22:00.3     153   -231     53    278    284 146.4  10.8  34142  289.27 0854.78
2009/04/23 12:22:00.4     220   -141     97    262    279 122.6  21.0  34144  289.31 0854.78
2009/04/23 12:22:00.5     252   -176    254    308    399 124.9  43.7  34144  289.30 0854.78
2009/04/23 12:22:00.6     133    -74    243    153    287 119.3  64.7  34138  289.20 0854.78
2009/04/23 12:22:00.7     117   -237    177    265    318 153.7  37.0  34144  289.31 0854.78
2009/04/23 12:22:00.8     136   -361    181    387    427 159.3  27.1  34138  289.21 0854.78
2009/04/23 12:22:00.9      14   -243    183    244    305 176.5  40.7  34144  289.29 0854.78
2009/04/23 12:22:01.0      57   -281     89    287    301 168.5  17.3  34146  289.32 0854.78
2009/04/23 12:22:01.1     175   -255    168    310    352 145.5  30.8  34142  289.28 0854.78
2009/04/23 12:22:01.2     110   -274    259    296    393 158.1  45.7  34142  289.26 0854.78
2009/04/23 12:22:01.3     316   -171    219    360    421 118.4  34.3  34140  289.23 0854.77
2009/04/23 12:22:01.4     170   -356    210    395    447 154.5  30.2  34142  289.27 0854.77
2009/04/23 12:22:01.5     219   -454    233    505    556 154.2  26.6  34148  289.36 0854.77
2009/04/23 12:22:01.6     220   -300    239    373    443 143.8  35.6  34146  289.33 0854.77
2009/04/23 12:22:01.7     459   -306    128    552    567 123.7  13.1  34144  289.31 0854.77
2009/04/23 12:22:01.8     386   -341    246    516    571 131.4  27.3  34146  289.35 0854.77
2009/04/23 12:22:01.9     183   -332    239    380    448 151.2  35.3  34142  289.26 0854.77
2009/04/23 12:22:02.0      71   -301    194    310    365 166.7  35.2  34142  289.25 0854.77
2009/04/23 12:22:02.1     326   -274    246    427    492 130.1  32.6  34148  289.37 0854.77
2009/04/23 12:22:02.2     278   -367    255    461    526 142.9  31.4  34140  289.22 0854.77
2009/04/23 12:22:02.3     328   -366    197    492    529 138.1  23.0  34146  289.34 0854.77
2009/04/23 12:22:02.4     356   -400    175    536    565 138.3  18.1  34146  289.33 0854.77
2009/04/23 12:22:02.5     149   -495    182    518    550 163.2  19.4  34144  289.29 0854.77
2009/04/23 12:22:02.6     242   -475    185    534    566 153.0  19.2  34148  289.38 0854.77
2009/04/23 12:22:02.7     214   -500    163    545    569 156.8  16.7  34144  289.29 0854.77
2009/04/23 12:22:02.8     130   -481     79    499    506 164.9   9.0  34152  289.42 0854.77
2009/04/23 12:22:02.9     116   -495    145    509    530 166.7  15.9  34144  289.29 0854.77
2009/04/23 12:22:03.0     102   -526    196    536    570 169.0  21.0  34148  289.38 0854.77
2009/04/23 12:22:03.1     166   -605    265    628    681 164.6  24.2  34144  289.31 0854.77
2009/04/23 12:22:03.2     235   -424    183    485    518 151.0  21.7  34150  289.40 0854.77
2009/04/23 12:22:03.3     132   -411    132    432    452 162.2  17.0  34146  289.34 0854.76
2009/04/23 12:22:03.4     227   -567     41    611    613 158.2   3.9  34146  289.32 0854.76
2009/04/23 12:22:03.5      70   -677    105    681    689 174.1   8.8  34156  289.49 0854.76
2009/04/23 12:22:03.6      38   -634    154    636    655 176.5  13.7  34154  289.47 0854.76
2009/04/23 12:22:03.7      43   -493    134    496    514 174.9  15.1  34146  289.35 0854.76
2009/04/23 12:22:03.8     198   -469    185    510    542 157.1  20.8  34152  289.45 0854.76
2009/04/23 12:22:03.9     121   -391    145    410    434 162.8  20.3  34154  289.46 0854.76
2009/04/23 12:22:04.0     166   -396     62    430    435 157.3   8.2  34152  289.44 0854.76
2009/04/23 12:22:04.1     163   -439    143    469    491 159.6  17.0  34150  289.40 0854.76
2009/04/23 12:22:04.2     118   -482    155    497    521 166.2  17.4  34150  289.40 0854.76
2009/04/23 12:22:04.3     266   -301    183    402    441 138.6  26.2  34148  289.38 0854.76
2009/04/23 12:22:04.4      90   -320    154    333    366 164.3  26.6  34156  289.50 0854.76
2009/04/23 12:22:04.5     206   -354    261    410    486 149.8  35.5  34156  289.49 0854.76
2009/04/23 12:22:04.6     114   -313    167    334    373 160.0  28.5  34154  289.48 0854.76
2009/04/23 12:22:04.7     177   -331     68    376    383 151.8  10.4  34154  289.47 0854.76
2009/04/23 12:22:04.8     208   -275    143    345    373 142.9  23.7  34154  289.47 0854.76
2009/04/23 12:22:04.9     137   -246     99    282    300 150.8  19.4  34156  289.51 0854.76
2009/04/23 12:22:05.0      73   -271    169    281    327 164.9  34.0  34154  289.47 0854.76
2009/04/23 12:22:05.1     203   -262     59    332    338 142.3  10.1  34154  289.47 0854.76
2009/04/23 12:22:05.2      83   -318     30    329    331 165.2   5.3  34156  289.52 0854.76
2009/04/23 12:22:05.3     117   -178     52    214    221 146.6  13.7  34154  289.48 0854.76
2009/04/23 12:22:05.4     152   -217    124    266    293 144.9  27.1  34156  289.51 0854.76
2009/04/23 12:22:05.5     132   -206    149    245    286 147.3  34.4  34158  289.53 0854.76
2009/04/23 12:22:05.6      86   -251     78    266    278 160.9  16.4  34156  289.49 0854.76
2009/04/23 12:22:05.7      57   -215     84    223    238 165.1  21.5  34152  289.42 0854.76
2009/04/23 12:22:05.8      90   -314    118    327    348 164.0  19.9  34154  289.48 0854.76
2009/04/23 12:22:05.9      56   -170     82    180    197 161.7  26.2  34158  289.55 0854.76
2009/04/23 12:22:06.0      18    -45    131     49    139 157.3  79.1  34162  289.60 0854.76
2009/04/23 12:22:06.1      75    204    136    218    256  20.3  35.2  34154  289.46 0854.76
2009/04/23 12:22:06.2     219     59    170    227    283  74.9  40.7  34160  289.56 0854.76
2009/04/23 12:22:06.3      25    169    167    171    239   8.5  49.4  34154  289.48 0854.76
2009/04/23 12:22:06.4      54    114     86    127    153  25.4  37.0  34158  289.53 0854.76
2009/04/23 12:22:06.5     -37    -58    -50     69     85 212.6 -43.5  34162  289.62 0854.76
2009/04/23 12:22:06.6     -46   -163   -116    170    205 195.8 -42.0  34154  289.48 0854.76
2009/04/23 12:22:06.7    -199    -96    -71    221    232 244.2 -23.3  34162  289.62 0854.76
2009/04/23 12:22:06.8     122   -140     44    186    192 139.0  13.5  34152  289.43 0854.76
2009/04/23 12:22:06.9     250   -242     17    349    350 134.1   2.9  34156  289.52 0854.76
2009/04/23 12:22:07.0     191   -339     25    390    391 150.6   3.8  34156  289.50 0854.76
2009/04/23 12:22:07.1      52   -349    104    353    369 171.5  16.5  34152  289.45 0854.76
2009/04/23 12:22:07.2      27   -290    -57    292    298 174.7 -11.1  34152  289.44 0854.76
2009/04/23 12:22:07.3      -3   -252    -79    253    265 180.9 -22.5  34156  289.49 0854.76
2009/04/23 12:22:07.4    -120   -251     15    279    280 205.5   3.1  34154  289.47 0854.76
2009/04/23 12:22:07.5    -117   -155     51    195    202 217.2  14.7  34154  289.46 0854.76
2009/04/23 12:22:07.6    -202   -142     69    248    258 234.9  15.6  34160  289.58 0854.76
2009/04/23 12:22:07.7      13   -292     70    293    302 177.3  13.5  34154  289.46 0854.76
2009/04/23 12:22:07.8      71   -245     92    256    272 163.9  20.4  34158  289.54 0854.76
2009/04/23 12:22:07.9      50   -213    137    219    258 166.7  35.2  34166  289.68 0854.76
2009/04/23 12:22:08.0      30   -226    195    228    300 172.4  44.9  34158  289.54 0854.76
2009/04/23 12:22:08.1      27   -185    126    188    226 171.5  37.0  34160  289.58 0854.76
2009/04/23 12:22:08.2      59   -328    177    334    378 169.7  30.2  34156  289.50 0854.76
2009/04/23 12:22:08.3      89   -306    133    319    345 163.7  23.9  34156  289.50 0854.76
2009/04/23 12:22:08.4     101   -332    147    348    377 163.1  24.2  34156  289.50 0854.76
2009/04/23 12:22:08.5     149   -343    128    375    397 156.5  18.9  34154  289.47 0854.76
2009/04/23 12:22:08.6     120   -356    184    376    418 161.3  28.0  34158  289.55 0854.76
2009/04/23 12:22:08.7       8   -272    214    273    346 178.2  42.1  34156  289.51 0854.76
2009/04/23 12:22:08.8     171   -295    204    342    398 149.9  33.7  34158  289.54 0854.76
2009/04/23 12:22:08.9     205   -364    151    419    445 150.6  20.7  34156  289.49 0854.76
2009/04/23 12:22:09.0     217   -320    129    387    409 145.8  18.5  34154  289.47 0854.76
2009/04/23 12:22:09.1     261   -298    140    397    420 138.8  20.0  34154  289.48 0854.76
2009/04/23 12:22:09.2     268   -260    161    374    407 134.2  24.8  34154  289.48 0854.76
2009/04/23 12:22:09.3     186   -363    116    409    426 152.8  15.9  34158  289.53 0854.76
2009/04/23 12:22:09.4     154   -379    109    410    425 157.8  14.9  34158  289.53 0854.76
2009/04/23 12:22:09.5     210   -421    114    471    485 153.5  13.7  34156  289.50 0854.76
2009/04/23 12:22:09.6     160   -265    187    310    362 148.8  34.0  34156  289.52 0854.76
2009/04/23 12:22:09.7     159   -219    182    271    326 144.0  37.0  34160  289.56 0854.76
2009/04/23 12:22:09.8     149   -261    211    301    367 150.2  38.5  34154  289.48 0854.76
2009/04/23 12:22:09.9     326   -193     69    379    386 120.7  10.4  34154  289.48 0854.76
2009/04/23 12:22:10.0     207   -161     87    263    278 127.8  18.4  34158  289.53 0854.76
2009/04/23 12:22:10.1     221   -209    158    305    343 133.3  29.4  34158  289.55 0854.76
2009/04/23 12:22:10.2     230   -389    147    452    476 149.4  18.0  34156  289.49 0854.76
2009/04/23 12:22:10.3     220   -318     18    388    389 145.3   2.8  34156  289.50 0854.76
2009/04/23 12:22:10.4     195   -215    129    291    318 137.7  25.6  34154  289.47 0854.76
2009/04/23 12:22:10.5     231   -279    164    363    398 140.4  26.0  34154  289.48 0854.76
2009/04/23 12:22:10.6     111   -237    187    262    321 154.8  39.0  34154  289.47 0854.76
2009/04/23 12:22:10.7     148   -298    185    333    380 153.6  31.4  34156  289.50 0854.76
2009/04/23 12:22:10.8     196   -311    158    368    400 147.8  24.9  34154  289.47 0854.76
2009/04/23 12:22:10.9      31   -346    194    348    398 174.8  31.7  34156  289.52 0854.76
2009/04/23 12:22:11.0      33   -409    203    411    458 175.3  28.2  34156  289.51 0854.76
2009/04/23 12:22:11.1      44   -387    255    390    465 173.4  36.2  34158  289.53 0854.76
2009/04/23 12:22:11.2     116   -347    254    367    446 161.4  37.9  34152  289.44 0854.76
2009/04/23 12:22:11.3     143   -412    281    437    519 160.8  35.6  34156  289.50 0854.75
2009/04/23 12:22:11.4     111   -321    228    340    409 160.8  37.0  34160  289.57 0854.75
2009/04/23 12:22:11.5       5   -333    252    334    418 179.1  40.8  34158  289.54 0854.75
2009/04/23 12:22:11.6       0   -305    275    306    411 180.0  46.6  34154  289.47 0854.75
2009/04/23 12:22:11.7       4   -278    221    279    355 179.1  42.3  34156  289.52 0854.75
2009/04/23 12:22:11.8     -37   -258    228    261    346 188.2  45.6  34154  289.47 0854.75
2009/04/23 12:22:11.9     -58   -234    268    242    361 194.0  53.4  34156  289.49 0854.75
2009/04/23 12:22:12.0     -24   -191    238    193    306 187.3  56.4  34158  289.53 0854.75
2009/04/23 12:22:12.1    -159   -294    332    335    471 208.5  49.9  34160  289.56 0854.75
2009/04/23 12:22:12.2    -150   -254    310    296    428 210.7  51.4  34158  289.54 0854.75
2009/04/23 12:22:12.3    -230   -133    160    266    310 240.0  34.2  34162  289.61 0854.75
2009/04/23 12:22:12.4    -130   -168    194    213    288 217.9  47.0  34158  289.54 0854.75
2009/04/23 12:22:12.5    -258    -83    178    272    325 252.1  36.3  34168  289.70 0854.75
2009/04/23 12:22:12.6    -317      6    106    318    336 271.3  18.4  34168  289.71 0854.75
2009/04/23 12:22:12.7    -267     41     28    271    273 278.8   6.0  34162  289.61 0854.75
2009/04/23 12:22:12.8    -293     54     76    299    309 280.6  14.3  34160  289.56 0854.75
2009/04/23 12:22:12.9    -238    -48    161    243    291 258.5  36.5  34160  289.58 0854.75
2009/04/23 12:22:13.0    -170    -59    104    181    208 250.7  32.7  34156  289.52 0854.75
2009/04/23 12:22:13.1    -135    -66    156    151    217 243.8  51.2  34158  289.53 0854.75
2009/04/23 12:22:13.2     -88   -164    173    187    254 208.3  47.9  34158  289.54 0854.75
2009/04/23 12:22:13.3     -66   -129    119    146    188 207.2  43.7  34156  289.52 0854.75
2009/04/23 12:22:13.4      55   -116     -2    129    130 154.7  -1.3  34156  289.52 0854.75
2009/04/23 12:22:13.5      12   -155    -62    156    167 175.5 -27.2  34156  289.50 0854.75
2009/04/23 12:22:13.6      16    -52    -59     55     80 162.2 -56.6  34152  289.45 0854.75
2009/04/23 12:22:13.7      29    -48    -80     57     98 148.4 -65.0  34158  289.53 0854.75
2009/04/23 12:22:13.8      76   -135    -62    155    166 150.6 -27.4  34156  289.50 0854.75
2009/04/23 12:22:13.9      89   -200   -155    220    269 155.9 -43.0  34154  289.47 0854.75
2009/04/23 12:22:14.0     148   -246     14    288    289 149.0   2.8  34154  289.46 0854.75
2009/04/23 12:22:14.1     113   -192     34    223    226 149.5   8.8  34154  289.46 0854.75
2009/04/23 12:22:14.2      96   -202     27    224    226 154.5   6.9  34154  289.46 0854.75
2009/04/23 12:22:14.3      58   -169     -2    179    180 161.1  -0.7  34154  289.48 0854.75
2009/04/23 12:22:14.4      63    -95     27    115    119 146.2  13.2  34154  289.46 0854.75
2009/04/23 12:22:14.5      27   -157    -56    160    170 170.2 -19.4  34158  289.53 0854.75
2009/04/23 12:22:14.6     -30   -171    -61    174    185 190.0 -19.4  34158  289.53 0854.75
2009/04/23 12:22:14.7      -7   -144    -22    145    147 183.1  -8.8  34158  289.53 0854.75
2009/04/23 12:22:14.8     -38   -117     -2    124    125 198.3  -1.3  34158  289.53 0854.75
2009/04/23 12:22:14.9      -6    -69     -3     70     71 185.3  -3.1  34156  289.52 0854.75
2009/04/23 12:22:15.0     -36    -11     33     38     50 251.8  44.8  34160  289.58 0854.75
2009/04/23 12:22:15.1      -6     14     33     16     36 334.6  72.9  34162  289.60 0854.75
2009/04/23 12:22:15.2     -18     17     21     26     33 313.1  43.7  34158  289.55 0854.75
2009/04/23 12:22:15.3     -60     72     42     94    102 320.3  25.7  34162  289.60 0854.75
2009/04/23 12:22:15.4    -160    102      3    191    192 302.6   1.0  34156  289.52 0854.75
2009/04/23 12:22:15.5    -185     87    -52    205    212 295.2 -14.3  34160  289.58 0854.75
2009/04/23 12:22:15.6    -126    122    -47    176    183 314.0 -15.0  34158  289.55 0854.75
2009/04/23 12:22:15.7    -112    110    -57    158    167 314.4 -24.8  34162  289.60 0854.75
2009/04/23 12:22:15.8     -15     58   -117     61    131 344.8 -75.2  34158  289.55 0854.75
2009/04/23 12:22:15.9     -76     15    -91     78    119 281.5 -59.2  34162  289.60 0854.75
2009/04/23 12:22:16.0     -39     -3   -104     40    111 265.6 -82.6  34160  289.58 0854.75
2009/04/23 12:22:16.1      23     71    -65     75     99  18.5 -49.8  34160  289.57 0854.75
2009/04/23 12:22:16.2      35     16    -46     39     60  64.7 -60.7  34162  289.62 0854.75
2009/04/23 12:22:16.3      -5    -10    -60     12     61 209.0 -90.0  34160  289.57 0854.76
2009/04/23 12:22:16.4     -21      0    -49     22     53 270.0 -79.4  34162  289.62 0854.76
2009/04/23 12:22:16.5       0      0    -74      1     74 189.7 -90.0  34162  289.60 0854.76
2009/04/23 12:22:16.6      48     -9    -88     49    100 100.6 -73.2  34158  289.55 0854.76
2009/04/23 12:22:16.7      -4    -13    -93     14     94 198.7 -90.0  34166  289.67 0854.76
2009/04/23 12:22:16.8     -76    -92   -100    120    156 219.6 -48.7  34164  289.63 0854.76
2009/04/23 12:22:16.9     -33    -50    -87     61    106 213.4 -65.9  34168  289.70 0854.76
2009/04/23 12:22:17.0      11    -32    -75     35     82 160.0 -77.9  34166  289.67 0854.76
2009/04/23 12:22:17.1      11      3    -48     12     49  71.6 -90.0  34166  289.67 0854.76
2009/04/23 12:22:17.2       5      5    -28      8     29  45.0 -85.1  34162  289.60 0854.76
2009/04/23 12:22:17.3     -49    -48    -22     69     72 225.9 -23.8  34162  289.60 0854.76
2009/04/23 12:22:17.4     -78    -61     -9    100    101 231.8  -5.6  34162  289.62 0854.76
2009/04/23 12:22:17.5    -117    -45      2    126    127 248.7   1.2  34160  289.57 0854.76
2009/04/23 12:22:17.6    -186    -62    -23    197    199 251.4  -6.7  34158  289.55 0854.76
2009/04/23 12:22:17.7    -152    -72    -47    169    175 244.6 -20.4  34158  289.55 0854.76
2009/04/23 12:22:17.8    -108      0    -12    109    110 270.0  -6.7  34162  289.60 0854.76
2009/04/23 12:22:17.9    -107      0     43    108    116 270.0  23.0  34162  289.60 0854.76
2009/04/23 12:22:18.0     -83     -5     89     84    122 266.5  51.6  34166  289.67 0854.76
2009/04/23 12:22:18.1     -77     47     86     91    125 301.1  49.0  34162  289.62 0854.76
2009/04/23 12:22:18.2     -74     88     63    116    132 319.9  30.8  34162  289.62 0854.76
2009/04/23 12:22:18.3     -79     50     49     94    106 302.4  29.8  34164  289.63 0854.75
2009/04/23 12:22:18.4     -33    -14     22     36     42 246.5  34.4  34162  289.62 0854.75
2009/04/23 12:22:18.5     -16    -42    -16     45     47 200.9 -23.3  34162  289.60 0854.75
2009/04/23 12:22:18.6     -27    -22    -27     36     45 230.5 -45.1  34162  289.60 0854.75
2009/04/23 12:22:18.7     -15     40    -32     43     53 339.1 -45.1  34162  289.60 0854.75
2009/04/23 12:22:18.8      -9     69    -45     70     83 352.0 -40.4  34166  289.67 0854.75
2009/04/23 12:22:18.9      -4     60    -58     61     84 355.5 -53.4  34166  289.67 0854.75
2009/04/23 12:22:19.0       0     57    -65     58     87   0.0 -57.7  34164  289.63 0854.75
2009/04/23 12:22:19.1     -88     12   -110     89    141 278.4 -60.8  34170  289.74 0854.75
2009/04/23 12:22:19.2     -80      1    -97     81    126 270.9 -60.2  34168  289.70 0854.75
2009/04/23 12:22:19.3      46     29    -75     55     93  57.6 -64.4  34166  289.69 0854.75
2009/04/23 12:22:19.4      80      2    -85     81    117  88.3 -55.6  34162  289.62 0854.75
2009/04/23 12:22:19.5     116     40    -91    123    153  70.9 -44.1  34160  289.58 0854.75
2009/04/23 12:22:19.6     109     50    -56    121    133  65.2 -31.0  34160  289.58 0854.75
2009/04/23 12:22:19.7     121     36    -40    127    134  73.1 -17.6  34162  289.60 0854.75
2009/04/23 12:22:19.8     110     56    -59    124    137  62.9 -31.6  34162  289.62 0854.75
2009/04/23 12:22:20.0      94     93    -85    133    157  45.2 -40.1  34164  289.63 0854.75
2009/04/23 12:22:20.0     122     57    -56    135    146  64.8 -27.5  34164  289.65 0854.75
2009/04/23 12:22:20.1     127     34    -77    132    152  75.0 -37.8  34164  289.65 0854.75
2009/04/23 12:22:20.3     177     39    -64    182    194  77.4 -19.6  34164  289.63 0854.75
2009/04/23 12:22:20.4     203      7      5    204    205  87.9   1.6  34160  289.58 0854.75
2009/04/23 12:22:20.5     178     47     37    185    189  75.2  11.4  34162  289.62 0854.75
2009/04/23 12:22:20.6      96    -41     -3    105    106 113.1  -1.8  34160  289.57 0854.75
2009/04/23 12:22:20.7     148    -30    -53    151    161 101.5 -19.6  34166  289.67 0854.75
2009/04/23 12:22:20.8     167     -6      0    168    169  92.1  -0.3  34166  289.69 0854.75
2009/04/23 12:22:20.9     183    -83     10    202    203 114.4   2.9  34164  289.63 0854.75
2009/04/23 12:22:21.0     138    -52    -17    148    150 110.8  -6.7  34164  289.65 0854.75
2009/04/23 12:22:21.1     121    -26    -29    124    128 102.4 -13.3  34164  289.65 0854.75
2009/04/23 12:22:21.2     159    -93    -66    185    197 120.4 -19.7  34166  289.67 0854.75
2009/04/23 12:22:21.3     172    -17    -72    173    187  95.9 -28.2  34166  289.67 0854.75
2009/04/23 12:22:21.4     231     13    -54    232    239  86.7 -13.2  34164  289.64 0854.75
2009/04/23 12:22:21.5     226     -8    -39    227    231  92.1  -9.8  34162  289.62 0854.75
2009/04/23 12:22:21.6     201    -80    -64    217    227 111.8 -16.4  34164  289.63 0854.75
2009/04/23 12:22:21.7     218    -30    -10    221    222  98.0  -2.6  34160  289.57 0854.75
2009/04/23 12:22:21.8     239    -57    -42    246    250 103.5  -9.8  34160  289.56 0854.75
2009/04/23 12:22:21.9     207     -6    -21    208    210  91.9  -6.0  34158  289.53 0854.75
2009/04/23 12:22:22.0     214     43    -20    219    221  78.5  -5.4  34162  289.60 0854.75
2009/04/23 12:22:22.1     247     79     51    260    266  72.3  11.1  34160  289.56 0854.75
2009/04/23 12:22:22.2     229     49     94    235    253  77.8  23.0  34162  289.59 0854.75
2009/04/23 12:22:22.3     200     33     73    203    215  80.5  20.7  34162  289.62 0854.75
2009/04/23 12:22:22.4     174     -6     67    175    187  92.1  22.0  34166  289.67 0854.74
2009/04/23 12:22:22.5     120     -1     53    121    132  90.9  25.1  34166  289.67 0854.74
2009/04/23 12:22:22.6      60     -8     59     61     84  98.0  50.0  34164  289.65 0854.74
2009/04/23 12:22:22.7      58    -14     78     60     98 104.2  57.9  34166  289.67 0854.74
2009/04/23 12:22:22.8      53    -25     95     59    111 115.3  64.7  34162  289.60 0854.74
2009/04/23 12:22:22.9      -6    -18     74     20     76 200.0  84.8  34166  289.69 0854.74
2009/04/23 12:22:23.0      -3    -31     56     32     64 186.2  67.7  34164  289.63 0854.74
2009/04/23 12:22:23.1      76    -30     99     82    128 111.8  56.3  34164  289.63 0854.74
2009/04/23 12:22:23.2      83    -74     84    112    140 131.8  40.7  34166  289.67 0854.74
2009/04/23 12:22:23.3     111    -67     60    130    143 121.1  26.6  34164  289.63 0854.74
2009/04/23 12:22:23.4     111    -51    103    123    160 114.8  44.3  34162  289.62 0854.74
2009/04/23 12:22:23.5      95   -134     43    165    171 144.8  14.7  34162  289.60 0854.74
2009/04/23 12:22:23.6     110   -134     46    174    181 140.8  15.0  34162  289.60 0854.74
2009/04/23 12:22:23.7     142   -113     73    182    196 128.6  23.0  34162  289.62 0854.74
2009/04/23 12:22:23.8     135   -171     27    218    220 141.7   7.1  34162  289.60 0854.74
2009/04/23 12:22:23.9     155   -169    -12    230    231 137.5  -3.1  34160  289.57 0854.74
2009/04/23 12:22:24.0     169   -116     -8    206    207 124.6  -2.2  34160  289.57 0854.74
2009/04/23 12:22:24.1     162   -121     38    203    207 126.6  10.8  34160  289.57 0854.74
2009/04/23 12:22:24.2     125   -154     48    199    205 141.0  13.7  34162  289.60 0854.74
2009/04/23 12:22:24.3     148   -174     79    229    243 139.5  19.2  34162  289.59 0854.74
2009/04/23 12:22:24.4     175     -9     94    176    199  93.0  30.6  34160  289.57 0854.74
2009/04/23 12:22:24.5     182    -86    128    202    239 115.5  35.5  34160  289.58 0854.74
2009/04/23 12:22:24.6     193    -64    117    204    235 108.4  32.3  34160  289.58 0854.74
2009/04/23 12:22:24.7     198   -101     62    223    232 117.0  15.6  34162  289.60 0854.74
2009/04/23 12:22:24.8     197   -119     81    231    245 121.1  19.4  34162  289.61 0854.74
2009/04/23 12:22:24.9     201   -148     78    250    263 126.4  17.4  34164  289.63 0854.74
2009/04/23 12:22:25.0     191   -134     81    234    248 125.1  19.2  34164  289.63 0854.74
2009/04/23 12:22:25.1     177    -99     91    203    222 119.3  25.7  34162  289.60 0854.74
2009/04/23 12:22:25.2     163    -83    107    184    212 117.1  33.1  34164  289.63 0854.74
2009/04/23 12:22:25.3     189    -95     99    212    233 116.9  27.1  34164  289.63 0854.74
2009/04/23 12:22:25.4     199    -66    106    210    235 108.4  28.7  34158  289.55 0854.74
2009/04/23 12:22:25.5     172    -48    138    179    226 105.7  41.7  34162  289.62 0854.74
2009/04/23 12:22:25.6     128    -13    131    129    183  96.2  50.1  34162  289.60 0854.74
2009/04/23 12:22:25.7      57     15     78     60     98  74.9  57.9  34160  289.57 0854.74
2009/04/23 12:22:25.8      70    -33     41     78     88 115.2  29.8  34164  289.63 0854.74
2009/04/23 12:22:25.9      82     -5     39     83     91  93.9  27.1  34162  289.60 0854.74
2009/04/23 12:22:26.0      72    -24    -21     76     78 108.6 -20.2  34160  289.57 0854.74
2009/04/23 12:22:26.1      39    -68    -27     79     84 149.7 -19.1  34164  289.65 0854.74
2009/04/23 12:22:26.2     118     -5    -42    119    126  92.6 -23.8  34164  289.65 0854.74
2009/04/23 12:22:26.3      95    -38    -53    103    115 112.2 -33.7  34166  289.69 0854.74
2009/04/23 12:22:26.4     129   -104     12    166    167 128.9   4.4  34164  289.63 0854.74
2009/04/23 12:22:26.5     132    -67      7    149    150 117.0   2.9  34162  289.62 0854.74
2009/04/23 12:22:26.6      60    -49     61     78     99 129.6  42.2  34164  289.65 0854.74
2009/04/23 12:22:26.7      93   -152     77    179    194 148.6  24.9  34160  289.58 0854.74
2009/04/23 12:22:26.8       4   -184     80    185    201 178.6  24.9  34160  289.58 0854.74
2009/04/23 12:22:26.9      36   -178     82    182    199 168.4  25.9  34160  289.57 0854.74
2009/04/23 12:22:27.0       8   -126     90    127    155 176.0  39.1  34160  289.57 0854.74
2009/04/23 12:22:27.1      -9   -194     79    195    210 182.7  23.1  34160  289.57 0854.74
2009/04/23 12:22:27.2      38   -280     88    283    297 172.2  17.3  34160  289.58 0854.74
2009/04/23 12:22:27.3      21   -263     77    264    276 175.3  16.4  34160  289.56 0854.74
2009/04/23 12:22:27.4      42   -206    116    211    240 168.4  31.3  34160  289.57 0854.74
2009/04/23 12:22:27.5       0   -249     74    250    261 180.1  16.6  34160  289.56 0854.74
2009/04/23 12:22:27.6      28   -253     21    255    257 173.7   4.9  34160  289.58 0854.74
2009/04/23 12:22:27.7     -31   -299     73    301    310 186.0  13.7  34160  289.56 0854.74
2009/04/23 12:22:27.8     -18   -296    100    297    314 183.6  18.6  34160  289.58 0854.74
2009/04/23 12:22:27.9     -12   -315     74    316    325 182.2  13.3  34160  289.56 0854.74
2009/04/23 12:22:28.0       2   -321     73    322    331 179.5  12.9  34158  289.54 0854.74
2009/04/23 12:22:28.1      14   -286    -31    287    289 177.1  -6.2  34158  289.54 0854.74
2009/04/23 12:22:28.2      33   -312      0    314    315 173.8   0.1  34160  289.56 0854.74
2009/04/23 12:22:28.3      51   -296     82    301    313 170.2  15.3  34152  289.42 0854.74
2009/04/23 12:22:28.4      29   -232     64    234    243 172.7  15.3  34160  289.58 0854.74
2009/04/23 12:22:28.5     186   -230     57    297    303 141.0  11.0  34158  289.53 0854.74
2009/04/23 12:22:28.6     103   -174    115    203    233 149.5  32.1  34158  289.55 0854.74
2009/04/23 12:22:28.7     133   -155     71    205    218 139.5  19.2  34156  289.52 0854.74
2009/04/23 12:22:28.8       1   -163     10    164    165 179.5   3.6  34158  289.55 0854.74
2009/04/23 12:22:28.9      23    -83     14     87     89 164.4   9.5  34160  289.57 0854.74
2009/04/23 12:22:29.0      34    -79      5     87     88 156.8   3.3  34160  289.58 0854.74
2009/04/23 12:22:29.1      29    -85     22     91     94 160.8  13.7  34160  289.57 0854.74
2009/04/23 12:22:29.2       3    -91     65     92    112 177.8  39.1  34158  289.53 0854.74
2009/04/23 12:22:29.3       0    -84     73     85    112 180.5  44.8  34158  289.55 0854.74
2009/04/23 12:22:29.4      49   -149     98    157    185 161.7  35.2  34160  289.57 0854.74
2009/04/23 12:22:29.5      80   -199    106    215    239 158.1  28.2  34160  289.57 0854.74
2009/04/23 12:22:29.6      79   -280     62    292    299 164.2  12.2  34160  289.56 0854.74
2009/04/23 12:22:29.7      41   -292    102    295    313 172.0  19.2  34156  289.51 0854.74
2009/04/23 12:22:29.8      -9   -301     98    302    318 181.8  18.1  34162  289.59 0854.74
2009/04/23 12:22:29.9      39   -375     74    378    386 174.0  11.1  34158  289.54 0854.74
2009/04/23 12:22:30.0     183   -330     57    378    383 151.0   8.7  34156  289.52 0854.74
2009/04/23 12:22:30.1     199   -296      3    357    358 146.1   0.5  34156  289.50 0854.74
2009/04/23 12:22:30.2     127   -267     99    296    313 154.5  18.6  34154  289.47 0854.74
2009/04/23 12:22:30.3     112   -247     64    272    280 155.5  13.2  34156  289.49 0854.74
2009/04/23 12:22:30.4      66   -212     60    223    232 162.6  15.2  34154  289.48 0854.75
2009/04/23 12:22:30.5      44   -215     59    220    229 168.2  15.2  34154  289.48 0854.75
2009/04/23 12:22:30.6     -19   -243     57    244    251 184.5  13.2  34154  289.47 0854.75
2009/04/23 12:22:30.7      27   -207     -1    209    210 172.4  -0.5  34154  289.48 0854.75
2009/04/23 12:22:30.8      92   -206    -62    226    235 155.9 -15.5  34156  289.50 0854.75
2009/04/23 12:22:30.9      98   -265    -24    283    285 159.5  -4.9  34154  289.47 0854.75
2009/04/23 12:22:31.0     111   -295    -28    316    318 159.3  -5.1  34154  289.47 0854.75
2009/04/23 12:22:31.1      80   -298    -81    309    320 164.9 -14.8  34152  289.44 0854.75
2009/04/23 12:22:31.2      99   -324    -61    339    345 163.0 -10.3  34158  289.55 0854.75
2009/04/23 12:22:31.3     163   -425    -11    456    457 159.0  -1.4  34152  289.44 0854.75
2009/04/23 12:22:31.4     248   -389     41    462    464 147.4   5.2  34154  289.46 0854.75
2009/04/23 12:22:31.5     273   -289     41    398    401 136.7   6.0  34152  289.42 0854.75
2009/04/23 12:22:31.6     146   -264   -121    303    326 151.0 -27.4  34156  289.51 0854.75
2009/04/23 12:22:31.7      60   -255   -107    263    283 166.6 -27.5  34158  289.54 0854.75
2009/04/23 12:22:31.8     -28   -283    -96    285    300 185.8 -23.3  34156  289.49 0854.75
2009/04/23 12:22:31.9    -124   -283   -149    310    343 203.6 -31.7  34162  289.60 0854.75
2009/04/23 12:22:32.0     -66   -234    -77    244    255 195.8 -22.8  34156  289.51 0854.75
2009/04/23 12:22:32.1      68   -356     14    363    364 169.1   2.2  34164  289.64 0854.75
2009/04/23 12:22:32.2      64   -346     37    352    355 169.4   6.1  34162  289.60 0854.75
2009/04/23 12:22:32.3      42   -302     77    306    316 172.0  14.2  34160  289.56 0854.75
2009/04/23 12:22:32.4      55   -324     85    329    340 170.3  14.5  34162  289.60 0854.75
2009/04/23 12:22:32.5      44   -315    111    319    338 172.0  19.2  34158  289.55 0854.75
2009/04/23 12:22:32.6      64   -227    123    236    266 164.2  29.5  34160  289.58 0854.75
2009/04/23 12:22:32.7     118   -204    176    236    294 149.9  40.6  34154  289.46 0854.75
2009/04/23 12:22:32.8     101   -239    169    260    310 157.1  35.6  34154  289.46 0854.75
2009/04/23 12:22:32.9      28   -259    171    261    312 173.8  36.0  34146  289.34 0854.75
2009/04/23 12:22:33.0     -42   -272    234    276    361 188.9  44.5  34152  289.43 0854.75
2009/04/23 12:22:33.1    -101   -292    235    310    389 199.1  41.1  34152  289.43 0854.75
2009/04/23 12:22:33.2    -108   -267    180    289    340 202.1  35.1  34154  289.47 0854.75
2009/04/23 12:22:33.3     -96   -284    153    300    336 198.7  29.2  34154  289.46 0854.75
2009/04/23 12:22:33.4     -32   -259     67    262    271 187.1  14.5  34158  289.54 0854.76
2009/04/23 12:22:33.5     -25   -250    -13    252    253 185.8  -3.1  34158  289.53 0854.76
2009/04/23 12:22:33.6     -35   -229    -57    232    240 188.7 -13.9  34158  289.53 0854.76
2009/04/23 12:22:33.7     -51   -179    -82    187    204 196.0 -29.5  34156  289.52 0854.76
2009/04/23 12:22:33.8    -112   -218   -100    246    265 207.2 -27.8  34158  289.53 0854.76
2009/04/23 12:22:33.9      13   -320   -134    321    347 177.5 -28.2  34156  289.50 0854.76
2009/04/23 12:22:34.0     -77   -345    -53    354    359 192.7  -8.6  34158  289.54 0854.76
2009/04/23 12:22:34.1    -109   -240    -83    264    277 204.5 -17.6  34158  289.54 0854.76
2009/04/23 12:22:34.2    -109   -324    -80    343    353 198.7 -13.2  34156  289.50 0854.76
2009/04/23 12:22:34.3    -129   -399    -47    420    423 197.9  -6.5  34154  289.46 0854.76
2009/04/23 12:22:34.4     -83   -365    -48    375    379 192.9  -7.3  34156  289.52 0854.76
2009/04/23 12:22:34.5    -105   -325    -54    342    347 198.0  -9.1  34154  289.48 0854.76
2009/04/23 12:22:34.6    -101   -372    -35    386    388 195.2  -5.2  34156  289.52 0854.76
2009/04/23 12:22:34.7    -131   -457    -76    476    483 196.1  -9.1  34156  289.49 0854.76
2009/04/23 12:22:34.8     -54   -428   -129    432    452 187.2 -16.7  34158  289.53 0854.76
2009/04/23 12:22:34.9     -57   -423   -129    427    446 187.7 -21.8  34158  289.53 0854.76
2009/04/23 12:22:35.0    -197   -391   -133    438    459 206.8 -17.0  34156  289.51 0854.76
2009/04/23 12:22:35.1    -207   -351   -173    408    443 210.6 -28.7  34158  289.55 0854.76
2009/04/23 12:22:35.2    -210   -401   -134    453    473 207.6 -16.5  34160  289.56 0854.76
2009/04/23 12:22:35.3    -120   -333   -117    355    373 199.9 -23.6  34152  289.43 0854.76
2009/04/23 12:22:35.4     -10   -342   -109    343    359 181.7 -22.8  34158  289.54 0854.76
2009/04/23 12:22:35.5      -6   -375   -102    376    390 181.0 -15.2  34156  289.50 0854.76
2009/04/23 12:22:35.6      52   -378    -84    382    392 172.1 -12.4  34156  289.52 0854.76
2009/04/23 12:22:35.7       3   -441    -41    442    445 179.5  -5.4  34154  289.48 0854.76
2009/04/23 12:22:35.8      44   -404    -91    407    418 173.7 -12.6  34158  289.55 0854.76
2009/04/23 12:22:35.9      95   -373    -49    386    390 165.6  -7.4  34154  289.47 0854.76
2009/04/23 12:22:36.0     115   -304     65    326    333 159.3  11.3  34154  289.48 0854.76
2009/04/23 12:22:36.1     161   -310    105    350    366 152.5  16.8  34156  289.52 0854.76
2009/04/23 12:22:36.2     149   -302    116    337    357 153.7  19.1  34152  289.45 0854.76
2009/04/23 12:22:36.3     158   -294    117    334    355 151.7  19.4  34156  289.52 0854.76
2009/04/23 12:22:36.4     174   -341     94    384    396 152.9  13.8  34154  289.48 0854.76
2009/04/23 12:22:36.5     247   -320    122    405    423 142.3  16.8  34154  289.46 0854.76
2009/04/23 12:22:36.6     264   -345    128    435    454 142.5  16.4  34154  289.48 0854.76
2009/04/23 12:22:36.7     213   -351    179    411    448 148.7  25.1  34152  289.44 0854.76
2009/04/23 12:22:36.8     237   -389    129    456    474 148.6  15.8  34152  289.45 0854.76
2009/04/23 12:22:36.9     206   -385    116    437    453 151.8  14.9  34156  289.49 0854.76
2009/04/23 12:22:37.0     206   -353     99    410    422 149.7  13.7  34154  289.48 0854.76
2009/04/23 12:22:37.1     191   -358    104    406    420 151.9  14.4  34154  289.46 0854.76
2009/04/23 12:22:37.2     222   -377     88    438    447 149.5  11.4  34152  289.44 0854.76
2009/04/23 12:22:37.3     149   -402     53    429    433 159.6   7.1  34154  289.48 0854.76
2009/04/23 12:22:37.4     114   -414     60    430    435 164.5   8.0  34156  289.51 0854.76
2009/04/23 12:22:37.5     145   -397     64    423    428 159.9   8.7  34152  289.43 0854.76
2009/04/23 12:22:37.6     156   -380     89    411    421 157.7  12.3  34154  289.46 0854.76
2009/04/23 12:22:37.7     145   -306     73    339    348 154.5  12.3  34154  289.48 0854.76
2009/04/23 12:22:37.8     119   -317    121    339    359 159.3  20.4  34146  289.35 0854.76
2009/04/23 12:22:37.9     149   -205    102    254    273 143.9  23.0  34150  289.39 0854.76
2009/04/23 12:22:38.0      89   -177    110    199    227 153.3  31.4  34152  289.45 0854.76
2009/04/23 12:22:38.1      86   -180    178    200    267 154.4  46.4  34154  289.47 0854.76
2009/04/23 12:22:38.2      77   -286    196    297    355 164.9  36.6  34146  289.35 0854.76
2009/04/23 12:22:38.3       6   -330    143    331    360 178.9  24.9  34154  289.47 0854.76
2009/04/23 12:22:38.4      34   -384    -51    386    390 174.9  -7.6  34152  289.43 0854.76
2009/04/23 12:22:38.5     -28   -318    -69    320    328 185.2 -12.3  34152  289.44 0854.76
2009/04/23 12:22:38.6       7   -326   -112    327    346 178.6 -18.9  34158  289.54 0854.76
2009/04/23 12:22:38.7     -64   -314   -117    321    341 191.6 -25.1  34152  289.43 0854.76
2009/04/23 12:22:38.8     -85   -381   -137    391    414 192.6 -24.5  34156  289.49 0854.76
2009/04/23 12:22:38.9     -45   -288   -156    292    331 188.9 -35.0  34152  289.42 0854.76
2009/04/23 12:22:39.0    -198   -397   -210    444    491 206.6 -31.6  34152  289.45 0854.76
2009/04/23 12:22:39.1    -305   -295   -167    425    456 225.9 -27.2  34154  289.46 0854.76
2009/04/23 12:22:39.2    -305   -322   -130    444    463 223.5 -16.4  34154  289.48 0854.76
2009/04/23 12:22:39.3    -310   -382   -225    493    541 219.1 -30.7  34154  289.46 0854.76
2009/04/23 12:22:39.4    -206   -334   -222    393    451 211.7 -36.1  34152  289.43 0854.76
2009/04/23 12:22:39.5    -257   -107    -81    279    290 247.4 -21.2  34156  289.49 0854.76
2009/04/23 12:22:39.6    -258   -159    -61    304    311 238.4 -11.5  34156  289.49 0854.76
2009/04/23 12:22:39.7    -189   -156    -37    246    249 230.5  -8.6  34158  289.53 0854.76
2009/04/23 12:22:39.8    -210   -238    -53    318    323 221.5  -9.5  34156  289.49 0854.76
2009/04/23 12:22:39.9    -257   -264     27    369    370 224.2   4.2  34154  289.47 0854.76
2009/04/23 12:22:40.0    -189   -159   -106    248    269 230.0 -29.0  34158  289.54 0854.76
2009/04/23 12:22:40.1    -160   -179   -106    241    263 221.7 -29.5  34156  289.51 0854.76
2009/04/23 12:22:40.2    -161   -143   -226    216    312 228.4 -55.7  34156  289.49 0854.76
2009/04/23 12:22:40.3    -144   -110   -147    182    233 232.7 -47.9  34146  289.35 0854.76
2009/04/23 12:22:40.4    -113   -106   -110    156    190 226.9 -43.2  34158  289.53 0854.76
2009/04/23 12:22:40.5     -75   -224   -138    237    274 198.5 -37.1  34160  289.58 0854.76
2009/04/23 12:22:40.6     -98   -240    -74    260    270 202.3 -20.7  34156  289.51 0854.76
2009/04/23 12:22:40.7     -42   -144    -98    151    180 196.5 -40.4  34158  289.53 0854.76
2009/04/23 12:22:40.8     -58   -114   -102    129    164 207.2 -46.6  34156  289.52 0854.76
2009/04/23 12:22:40.9     -70   -101   -119    124    171 214.7 -53.4  34160  289.57 0854.76
2009/04/23 12:22:41.0     -53    -61   -102     81    130 221.0 -61.9  34160  289.58 0854.76
2009/04/23 12:22:41.1      43   -128    -93    136    164 161.3 -42.0  34158  289.53 0854.76
2009/04/23 12:22:41.2      20   -191    -51    193    200 174.0 -15.0  34156  289.50 0854.76
2009/04/23 12:22:41.3     138   -154     33    208    211 138.1   9.0  34154  289.48 0854.76
2009/04/23 12:22:41.4     129   -106    -27    168    171 129.3  -9.3  34154  289.48 0854.76
2009/04/23 12:22:41.5      97   -160     40    188    193 148.8  12.2  34156  289.50 0854.76
2009/04/23 12:22:41.6     189   -344    -50    393    397 151.1  -7.3  34152  289.45 0854.76
2009/04/23 12:22:41.7     239   -336    -72    413    420 144.5  -9.9  34150  289.41 0854.76
2009/04/23 12:22:41.8     254   -321    -70    410    417 141.7  -9.8  34154  289.48 0854.76
2009/04/23 12:22:41.9     201   -333    -97    390    403 148.9 -14.1  34154  289.47 0854.76
2009/04/23 12:22:42.0     228   -335   -108    406    421 145.8 -15.0  34154  289.48 0854.76
2009/04/23 12:22:42.1     249   -350    -84    430    439 144.5 -11.1  34154  289.48 0854.76
2009/04/23 12:22:42.2     205   -332   -110    391    407 148.4 -15.7  34154  289.48 0854.76
2009/04/23 12:22:42.3     208   -318   -118    381    400 146.8 -17.3  34152  289.42 0854.76
2009/04/23 12:22:42.4     184   -361    -38    406    408 153.0  -5.5  34152  289.44 0854.76
2009/04/23 12:22:42.5     174   -366    -43    406    409 154.5  -6.1  34156  289.49 0854.76
2009/04/23 12:22:42.6     185   -348    -57    395    400 152.0  -8.2  34154  289.47 0854.76
2009/04/23 12:22:42.7     196   -307    -33    365    367 147.5  -5.2  34152  289.45 0854.76
2009/04/23 12:22:42.8     190   -319    -66    372    378 149.2 -10.1  34154  289.48 0854.76
2009/04/23 12:22:42.9     201   -324    -86    382    392 148.1 -12.7  34152  289.45 0854.76
2009/04/23 12:22:43.0     123   -365    -77    386    394 161.3 -11.3  34156  289.52 0854.76
2009/04/23 12:22:43.1     149   -346    -92    377    389 156.7 -13.8  34154  289.47 0854.76
2009/04/23 12:22:43.2     128   -326    -83    351    361 158.6 -13.4  34154  289.47 0854.76
2009/04/23 12:22:43.3     116   -329   -110    350    368 160.5 -17.5  34154  289.48 0854.76
2009/04/23 12:22:43.4     118   -324   -122    345    367 160.0 -19.5  34156  289.52 0854.77
2009/04/23 12:22:43.5     189   -297    -63    353    359 147.5 -10.2  34154  289.48 0854.77
2009/04/23 12:22:43.6     151   -347   -109    379    394 156.4 -20.8  34154  289.48 0854.77
2009/04/23 12:22:43.7      58   -363    114    368    386 170.8  17.3  34158  289.55 0854.77
2009/04/23 12:22:43.8      34   -347     41    349    352 174.3   6.8  34158  289.55 0854.77
2009/04/23 12:22:43.9      57   -399      8    404    405 171.8   1.2  34162  289.60 0854.77
2009/04/23 12:22:44.0      35   -346    -51    348    352 174.1  -8.4  34160  289.57 0854.77
2009/04/23 12:22:44.1       3   -337    -55    338    343 179.4  -9.3  34162  289.62 0854.77
2009/04/23 12:22:44.2      35   -372    -84    374    384 174.6 -12.7  34162  289.59 0854.77
2009/04/23 12:22:44.4       1   -279    -80    280    291 179.8 -20.8  34160  289.58 0854.77
2009/04/23 12:22:44.5     -37   -266    -94    269    284 188.1 -24.4  34166  289.66 0854.77
2009/04/23 12:22:44.5     -33   -308   -108    310    328 186.2 -24.4  34162  289.61 0854.77
2009/04/23 12:22:44.6    -115   -346    -97    365    378 198.5 -15.0  34160  289.57 0854.77
2009/04/23 12:22:44.7    -207   -280    -97    349    363 216.4 -15.5  34162  289.60 0854.77
2009/04/23 12:22:44.8    -173   -240   -101    296    313 215.8 -18.9  34160  289.58 0854.77
2009/04/23 12:22:44.9    -152   -232   -125    278    304 213.4 -30.6  34162  289.61 0854.77
2009/04/23 12:22:45.0    -189   -245    -86    310    321 217.8 -20.3  34172  289.76 0854.77
2009/04/23 12:22:45.1    -140   -258    -92    294    308 208.5 -22.5  34168  289.71 0854.77
2009/04/23 12:22:45.2    -172   -252    -78    306    316 214.3 -14.3  34160  289.56 0854.77
2009/04/23 12:22:45.3    -154   -227   -138    275    307 214.3 -32.9  34164  289.64 0854.77
2009/04/23 12:22:45.4     -80   -206    -98    222    242 201.2 -29.6  34166  289.66 0854.77
2009/04/23 12:22:45.6     -61    -90    -98    109    146 214.3 -51.3  34164  289.65 0854.77
2009/04/23 12:22:45.7    -141    -65    -91    156    180 245.2 -37.3  34164  289.65 0854.77
2009/04/23 12:22:45.8    -154    -11   -112    155    191 265.6 -43.9  34168  289.70 0854.77
2009/04/23 12:22:45.8    -159    -32    -64    163    175 258.5 -26.4  34170  289.75 0854.77
2009/04/23 12:22:45.9    -114    -58    -68    129    145 242.9 -34.7  34168  289.72 0854.77
2009/04/23 12:22:46.0     -62   -112    -39    129    134 209.0 -22.3  34162  289.62 0854.77
2009/04/23 12:22:46.1     -93    -52     -5    107    108 240.7  -3.1  34172  289.79 0854.77
2009/04/23 12:22:46.3     -76   -106    -16    131    133 215.6  -7.3  34172  289.79 0854.77
2009/04/23 12:22:46.4    -107   -100      7    147    148 226.9   2.8  34158  289.53 0854.77
2009/04/23 12:22:46.5       0    -36     48     37     60 179.1  58.5  34162  289.62 0854.76
2009/04/23 12:22:46.6     112   -113     65    160    172 135.1  23.0  34162  289.62 0854.76
2009/04/23 12:22:46.6      83   -114     52    142    151 143.9  21.0  34160  289.58 0854.76
2009/04/23 12:22:46.8      96   -117     -8    152    153 140.8  -3.2  34162  289.62 0854.76
2009/04/23 12:22:46.9     129   -172     16    216    217 143.0   4.2  34158  289.53 0854.76
2009/04/23 12:22:47.0     115   -236     -5    263    264 153.9  -1.2  34160  289.56 0854.76
2009/04/23 12:22:47.1     151   -316    -10    351    352 154.4  -1.8  34156  289.52 0854.76
2009/04/23 12:22:47.2     156   -237     47    285    289 146.6   9.5  34156  289.51 0854.76
2009/04/23 12:22:47.3     176   -234      2    294    295 143.0   0.5  34156  289.51 0854.76
2009/04/23 12:22:47.4     202   -252    -18    323    324 141.3  -3.3  34158  289.53 0854.76
2009/04/23 12:22:47.5     186   -376     48    420    423 153.7   6.6  34156  289.49 0854.76
2009/04/23 12:22:47.6     125   -372    -33    393    395 161.4  -4.9  34158  289.54 0854.76
2009/04/23 12:22:47.7     230   -457    -20    512    513 153.3  -2.2  34156  289.52 0854.76
2009/04/23 12:22:47.8     174   -367    -57    407    412 154.6  -8.0  34158  289.55 0854.76
2009/04/23 12:22:47.9     107   -348    -85    365    375 162.8 -13.2  34158  289.55 0854.76
2009/04/23 12:22:48.0     157   -294    -92    334    347 151.9 -15.4  34154  289.48 0854.76
2009/04/23 12:22:48.1     198   -387     -9    435    436 152.9  -1.3  34156  289.51 0854.76
2009/04/23 12:22:48.2     122   -366    103    387    401 161.5  15.0  34148  289.37 0854.76
2009/04/23 12:22:48.3     214   -253    -83    332    343 139.7 -14.1  34158  289.54 0854.76
2009/04/23 12:22:48.4     143   -241    -56    281    287 149.2 -11.3  34158  289.54 0854.76
2009/04/23 12:22:48.5     162   -230      7    282    283 144.8   1.6  34158  289.54 0854.76
2009/04/23 12:22:48.6     185   -245     26    308    310 143.0   4.9  34158  289.53 0854.76
2009/04/23 12:22:48.7     202   -301    -10    363    364 146.1  -1.6  34156  289.52 0854.76
2009/04/23 12:22:48.8     150   -252    -27    294    296 149.3  -5.4  34158  289.54 0854.76
2009/04/23 12:22:48.9     139   -253    -37    289    292 151.1  -7.3  34162  289.59 0854.76
2009/04/23 12:22:49.0     137   -318    -66    347    354 156.6 -10.9  34160  289.57 0854.76
2009/04/23 12:22:49.1     158   -326    -67    363    370 154.1 -10.5  34162  289.60 0854.76
2009/04/23 12:22:49.2     116   -328   -112    348    366 160.5 -17.9  34162  289.62 0854.76
2009/04/23 12:22:49.3     158   -433   -103    462    474 160.0 -12.7  34160  289.56 0854.76
2009/04/23 12:22:49.4     144   -436      1    460    461 161.7   0.2  34158  289.53 0854.76
2009/04/23 12:22:49.5     153   -354     45    386    389 156.6   6.7  34156  289.50 0854.76
2009/04/23 12:22:49.6     189   -389     36    433    435 154.0   4.9  34158  289.55 0854.76
2009/04/23 12:22:49.7     160   -398    -16    430    431 158.1  -2.2  34158  289.55 0854.76
2009/04/23 12:22:49.8     145   -330    -32    361    363 156.3  -5.2  34156  289.52 0854.76
2009/04/23 12:22:49.9     175   -239     58    297    303 143.9  11.1  34158  289.54 0854.76
2009/04/23 12:22:50.0     186   -256     21    317    318 143.9   3.8  34158  289.53 0854.76
2009/04/23 12:22:50.1     265   -282     82    388    397 136.8  12.0  34156  289.52 0854.76
2009/04/23 12:22:50.2     242   -384     53    455    459 147.8   6.7  34158  289.53 0854.76
2009/04/23 12:22:50.3     158   -247    -41    294    297 147.4  -8.0  34158  289.54 0854.76
2009/04/23 12:22:50.4     133   -260    -98    293    310 152.8 -18.6  34160  289.58 0854.76
2009/04/23 12:22:50.5     203   -271    -47    339    343 143.2  -7.9  34160  289.57 0854.78
2009/04/23 12:22:50.6     181   -276    -69    331    339 146.7 -11.9  34156  289.52 0854.78
2009/04/23 12:22:50.7     213   -293   -107    363    379 144.0 -16.4  34154  289.48 0854.78
2009/04/23 12:22:50.8     177   -189   -151    260    300 136.8 -37.3  34160  289.56 0854.78
2009/04/23 12:22:50.9     188   -188   -154    267    308 135.0 -36.8  34160  289.56 0854.78
2009/04/23 12:22:51.0     177   -173   -122    248    276 134.4 -32.6  34160  289.58 0854.78
2009/04/23 12:22:51.1      92   -180    -45    203    209 153.0 -12.6  34164  289.63 0854.78
2009/04/23 12:22:51.2      47   -171     -2    178    179 164.4  -0.7  34164  289.65 0854.78
2009/04/23 12:22:51.3     107   -134     -8    172    173 141.3  -2.8  34160  289.57 0854.78
2009/04/23 12:22:51.4     192    -84     11    210    211 113.6   3.1  34162  289.60 0854.78
2009/04/23 12:22:51.5     204   -121     84    238    253 120.7  19.6  34160  289.56 0854.78
2009/04/23 12:22:51.6     177   -183     -1    255    256 135.9  -0.3  34162  289.61 0854.78
2009/04/23 12:22:51.7     157   -206     -8    260    261 142.6  -1.8  34160  289.58 0854.78
2009/04/23 12:22:51.8     194   -228      2    300    301 139.5   0.5  34162  289.59 0854.78
2009/04/23 12:22:51.9     203   -253    -58    325    331 141.2 -10.2  34160  289.56 0854.78
2009/04/23 12:22:52.0     231   -231    -20    328    329 135.0  -3.5  34160  289.58 0854.78
2009/04/23 12:22:52.1     231   -237    -56    332    337 135.7  -9.6  34152  289.43 0854.78
2009/04/23 12:22:52.2     229   -215    -56    315    320 133.1 -10.1  34156  289.49 0854.78
2009/04/23 12:22:52.3     194   -226    -36    299    302 139.4  -6.9  34158  289.53 0854.78
2009/04/23 12:22:52.4     185   -248     75    310    320 143.3  13.7  34158  289.54 0854.78
2009/04/23 12:22:52.5     184   -222     50    289    294 140.3   9.9  34154  289.47 0854.79
2009/04/23 12:22:52.6     163   -174      6    239    240 136.8   1.6  34158  289.54 0854.79
2009/04/23 12:22:52.7     166   -242    -60    294    301 145.5 -11.6  34162  289.59 0854.79
2009/04/23 12:22:52.8     137   -230     -2    268    269 149.2  -0.5  34162  289.61 0854.79
2009/04/23 12:22:52.9     135   -175    -28    222    224 142.4  -7.3  34164  289.63 0854.79
2009/04/23 12:22:53.0      84   -209     -1    226    227 157.9  -0.3  34162  289.62 0854.79
2009/04/23 12:22:53.1      51   -240     12    246    247 168.0   2.9  34164  289.63 0854.79
2009/04/23 12:22:53.2      22   -225     32    227    230 174.2   8.0  34162  289.60 0854.79
2009/04/23 12:22:53.3      79   -193     65    209    219 157.5  17.3  34164  289.63 0854.79
2009/04/23 12:22:53.4     116   -180     47    215    221 147.3  12.4  34162  289.60 0854.79
2009/04/23 12:22:53.5     199   -174     17    265    266 131.3   3.8  34162  289.61 0854.79
2009/04/23 12:22:53.6     215   -165     66    272    280 127.5  13.7  34160  289.58 0854.79
2009/04/23 12:22:53.7     181   -205     45    274    278 138.5   9.3  34164  289.64 0854.79
2009/04/23 12:22:53.8     167   -256    -27    306    308 146.8  -5.2  34160  289.58 0854.79
2009/04/23 12:22:53.9     164   -220    -33    275    277 143.3  -6.9  34162  289.59 0854.79
2009/04/23 12:22:54.0     103   -198    -16    224    225 152.4  -4.1  34164  289.63 0854.79
2009/04/23 12:22:54.1      85   -175    -32    195    198 154.1  -9.4  34162  289.62 0854.79
2009/04/23 12:22:54.2      57   -200     18    209    210 164.0   5.2  34162  289.60 0854.79
2009/04/23 12:22:54.3     151   -150    -75    213    225 134.8 -24.4  34162  289.60 0854.79
2009/04/23 12:22:54.4     173   -140    -76    223    235 129.1 -23.6  34162  289.62 0854.79
2009/04/23 12:22:54.5     125   -196    -15    233    234 147.5  -3.9  34164  289.63 0854.81
2009/04/23 12:22:54.6     127   -188      9    227    228 145.9   2.5  34164  289.65 0854.81
2009/04/23 12:22:54.7      54   -177    -23    186    188 163.1  -7.3  34160  289.58 0854.81
2009/04/23 12:22:54.8      70   -176     -7    190    191 158.2  -2.2  34162  289.62 0854.81
2009/04/23 12:22:54.9     128   -223     47    258    263 150.2  10.3  34162  289.61 0854.81
2009/04/23 12:22:55.0      98   -261     50    280    285 159.3  10.1  34164  289.63 0854.81
2009/04/23 12:22:55.1      59   -202     -8    211    212 163.7  -2.2  34162  289.60 0854.81
2009/04/23 12:22:55.2      62   -189     -4    200    201 161.7  -1.3  34164  289.65 0854.81
2009/04/23 12:22:55.3      73   -219    -39    231    235 161.5  -9.8  34162  289.61 0854.81
2009/04/23 12:22:55.4      99   -263    -18    282    283 159.3  -3.7  34164  289.64 0854.81
2009/04/23 12:22:55.5      60   -295     20    302    303 168.4   3.9  34164  289.64 0854.81
2009/04/23 12:22:55.6     113   -372      5    389    390 163.1   0.8  34166  289.69 0854.81
2009/04/23 12:22:55.7      77   -381    -29    389    391 168.6  -4.4  34168  289.71 0854.81
2009/04/23 12:22:55.8     131   -371    -11    394    395 160.4  -1.6  34162  289.62 0854.81
2009/04/23 12:22:55.9     125   -373    -15    394    395 161.4  -2.2  34162  289.62 0854.81
2009/04/23 12:22:56.0      78   -309    -55    319    324 165.7  -9.8  34166  289.66 0854.81
2009/04/23 12:22:56.1     135   -317    -75    345    354 156.8 -12.4  34166  289.67 0854.81
2009/04/23 12:22:56.2     109   -310   -115    329    349 160.5 -19.3  34166  289.69 0854.81
2009/04/23 12:22:56.3     105   -310   -111    328    347 161.2 -18.8  34168  289.71 0854.81
2009/04/23 12:22:56.4     101   -310   -110    327    346 161.9 -18.7  34166  289.69 0854.81
2009/04/23 12:22:56.5      84   -320   -101    331    347 165.2 -17.0  34162  289.62 0854.82
2009/04/23 12:22:56.6      91   -382    -82    393    402 166.6 -11.9  34162  289.62 0854.82
2009/04/23 12:22:56.7      92   -399    -78    410    418 167.0 -10.8  34164  289.65 0854.82
2009/04/23 12:22:56.8      84   -370    -54    380    384 167.2  -8.1  34162  289.62 0854.82
2009/04/23 12:22:56.9     115   -415    -54    431    435 164.4  -7.2  34164  289.65 0854.82
2009/04/23 12:22:57.0     100   -421    -61    433    438 166.6  -8.1  34164  289.63 0854.82
2009/04/23 12:22:57.1      37   -441    -62    443    448 175.2  -8.0  34168  289.70 0854.82
2009/04/23 12:22:57.2      19   -440    -41    441    444 177.5  -5.3  34164  289.65 0854.82
2009/04/23 12:22:57.3     -39   -423    -38    426    428 185.3  -5.2  34166  289.68 0854.82
2009/04/23 12:22:57.4       4   -405    -51    406    410 179.4  -7.2  34166  289.66 0854.82
2009/04/23 12:22:57.5      27   -332    -96    334    348 175.2 -16.0  34164  289.65 0854.82
2009/04/23 12:22:57.6       3   -366   -119    367    386 179.4 -18.1  34162  289.60 0854.82
2009/04/23 12:22:57.7      26   -389   -110    390    405 176.1 -20.7  34162  289.62 0854.82
2009/04/23 12:22:57.8      65   -351    -89    357    368 169.4 -14.1  34162  289.60 0854.82
2009/04/23 12:22:57.9      75   -318    -79    327    337 166.6 -13.7  34162  289.62 0854.82
2009/04/23 12:22:58.0     155   -281    -34    321    323 151.1  -6.1  34158  289.53 0854.82
2009/04/23 12:22:58.1     132   -277    -54    307    312 154.5 -10.1  34162  289.61 0854.82
2009/04/23 12:22:58.2     134   -306    -18    335    336 156.3  -3.2  34166  289.67 0854.82
2009/04/23 12:22:58.3      49   -315    -76    319    328 171.1 -13.4  34164  289.63 0854.82
2009/04/23 12:22:58.4      47   -349    -29    353    355 172.3  -4.8  34164  289.64 0854.82
2009/04/23 12:22:58.5      79   -336     21    346    347 166.8   3.6  34162  289.62 0854.84
2009/04/23 12:22:58.6     134   -410     18    432    433 161.9   2.5  34160  289.58 0854.84
2009/04/23 12:22:58.7     128   -382     48    404    407 161.4   6.9  34160  289.58 0854.84
2009/04/23 12:22:58.8      45   -411     21    414    415 173.7   3.0  34162  289.60 0854.84
2009/04/23 12:22:58.9      98   -327     77    342    351 163.2  12.8  34154  289.48 0854.84
2009/04/23 12:22:59.0      72   -328    130    336    360 167.5  22.2  34156  289.50 0854.84
2009/04/23 12:22:59.1      86   -324     84    336    347 165.0  14.2  34152  289.43 0854.84
2009/04/23 12:22:59.2      74   -321     25    330    331 166.9   4.4  34158  289.54 0854.84
2009/04/23 12:22:59.3      70   -260     84    270    283 164.9  17.3  34156  289.49 0854.84
2009/04/23 12:22:59.4      90   -268     55    283    289 161.3  11.0  34158  289.53 0854.84
2009/04/23 12:22:59.5      61   -333     53    339    344 169.5   9.0  34162  289.59 0854.84
2009/04/23 12:22:59.6      95   -320     74    334    343 163.4  12.5  34154  289.47 0854.84
2009/04/23 12:22:59.7      91   -327     26    340    341 164.4   4.4  34160  289.57 0854.84
2009/04/23 12:22:59.8     132   -316     67    343    350 157.3  11.1  34156  289.52 0854.84
2009/04/23 12:22:59.9      96   -301    142    317    347 162.2  25.8  34162  289.62 0854.84
2009/04/23 12:23:00.0     134   -261    149    294    329 152.8  28.9  34160  289.58 0854.84
2009/04/23 12:23:00.1     128   -218    129    254    284 149.5  29.1  34162  289.59 0854.84
2009/04/23 12:23:00.2      79   -259    116    271    294 163.0  24.6  34160  289.56 0854.84
2009/04/23 12:23:00.3     134   -230    142    267    302 149.9  30.3  34156  289.49 0854.84
2009/04/23 12:23:00.4      33   -244    148    247    287 172.2  33.5  34162  289.59 0854.84
2009/04/23 12:23:00.5      13   -277    139    278    310 177.3  28.2  34162  289.59 0854.85
2009/04/23 12:23:00.6      26   -193    155    195    249 172.2  42.7  34162  289.59 0854.85
2009/04/23 12:23:00.7      39   -226    127    230    262 170.2  31.4  34158  289.54 0854.85
2009/04/23 12:23:00.8       7   -207    130    208    245 178.0  35.2  34160  289.56 0854.85
2009/04/23 12:23:00.9      11   -175    127    176    217 176.2  39.5  34160  289.58 0854.85
2009/04/23 12:23:01.0      16   -207     85    208    224 175.5  23.1  34160  289.57 0854.85
2009/04/23 12:23:01.1      27   -210     71    212    224 172.7  18.6  34160  289.57 0854.85
2009/04/23 12:23:01.2       3   -213     93    214    233 179.0  25.1  34158  289.55 0854.85
2009/04/23 12:23:01.3      12   -227     41    228    232 176.9  10.3  34160  289.58 0854.85
2009/04/23 12:23:01.4      -3   -193     68    194    206 181.0  19.4  34160  289.58 0854.85
2009/04/23 12:23:01.5      -3   -222     30    223    226 181.0   7.8  34162  289.62 0854.85
2009/04/23 12:23:01.6       5   -208     44    209    214 178.6  12.0  34162  289.62 0854.85
2009/04/23 12:23:01.7      17   -225     72    226    238 175.6  17.7  34162  289.59 0854.85
2009/04/23 12:23:01.8      24   -236     57    238    245 174.0  13.5  34160  289.58 0854.85
2009/04/23 12:23:01.9      46   -207     17    213    214 167.5   4.6  34158  289.55 0854.85
2009/04/23 12:23:02.0      98   -164     87    192    210 149.0  26.2  34156  289.50 0854.85
2009/04/23 12:23:02.1      74   -172     64    188    199 156.6  18.9  34156  289.52 0854.85
2009/04/23 12:23:02.2      49   -185    118    192    225 165.1  35.0  34158  289.53 0854.85
2009/04/23 12:23:02.3      33   -189    107    192    219 170.0  31.4  34160  289.57 0854.85
2009/04/23 12:23:02.4      33   -179     92    183    204 169.5  28.7  34158  289.53 0854.85
2009/04/23 12:23:02.5      24   -200     70    202    214 173.1  19.2  34160  289.58 0854.85
2009/04/23 12:23:02.6      23   -247    101    249    268 174.7  23.1  34158  289.53 0854.85
2009/04/23 12:23:02.7      -4   -272     23    273    275 181.0   4.9  34158  289.53 0854.85
2009/04/23 12:23:02.8      23   -217     79    219    232 173.8  20.4  34152  289.45 0854.85
2009/04/23 12:23:02.9       0   -239    126    240    271 180.0  30.2  34158  289.54 0854.85
2009/04/23 12:23:03.0     -55   -211    108    219    244 194.7  28.2  34156  289.51 0854.85
2009/04/23 12:23:03.1     -41   -185     90    190    210 192.5  27.2  34158  289.55 0854.85
2009/04/23 12:23:03.2     -16   -130     18    132    134 187.1   8.0  34158  289.53 0854.85
2009/04/23 12:23:03.3     -29   -146    132    149    199 191.5  46.2  34160  289.58 0854.85
2009/04/23 12:23:03.4      -5    -93     76     94    120 183.1  43.7  34162  289.62 0854.85
2009/04/23 12:23:03.5      10   -114     45    115    123 174.7  22.5  34158  289.55 0854.80
2009/04/23 12:23:03.6      64   -166     -2    179    180 158.8  -0.7  34160  289.58 0854.80
2009/04/23 12:23:03.7      33   -308    -39    310    313 173.8  -7.2  34154  289.47 0854.80
2009/04/23 12:23:03.8      22   -325     24    326    327 176.1   4.2  34156  289.51 0854.80
2009/04/23 12:23:03.9      18   -279     48    280    285 176.2   9.9  34160  289.56 0854.80
2009/04/23 12:23:04.0      44   -312     -2    316    317 171.9  -0.4  34158  289.54 0854.80
2009/04/23 12:23:04.1      -1   -327     41    328    331 180.2   7.2  34158  289.55 0854.80
2009/04/23 12:23:04.2     -41   -365     39    368    371 186.5   6.1  34160  289.57 0854.80
2009/04/23 12:23:04.3     -38   -338     32    341    343 186.5   5.4  34156  289.50 0854.80
2009/04/23 12:23:04.4     -34   -316     31    318    320 186.3   5.7  34158  289.53 0854.80
2009/04/23 12:23:04.5     -47   -330     13    334    335 188.2   2.4  34160  289.57 0854.80
2009/04/23 12:23:04.6     -46   -326     49    330    334 188.1   8.5  34158  289.55 0854.80
2009/04/23 12:23:04.7     -80   -278    -30    290    292 196.0  -6.0  34158  289.53 0854.80
2009/04/23 12:23:04.8     -48   -323    -33    327    329 188.6  -5.9  34158  289.53 0854.80
2009/04/23 12:23:04.9     -39   -332    -82    335    345 186.8 -13.8  34158  289.54 0854.80
2009/04/23 12:23:05.0     -11   -297    -89    298    311 182.2 -16.6  34160  289.58 0854.80
2009/04/23 12:23:05.1       3   -219    -59    220    229 179.1 -15.2  34156  289.50 0854.80
2009/04/23 12:23:05.2     -35   -186    -88    190    209 190.7 -31.4  34160  289.58 0854.80
2009/04/23 12:23:05.3     -60   -196    -93    206    226 197.2 -30.6  34160  289.57 0854.80
2009/04/23 12:23:05.4     -44   -216    -65    221    230 191.6 -21.7  34158  289.53 0854.80
2009/04/23 12:23:05.5     -55   -234    -79    241    254 193.4 -18.3  34158  289.54 0854.80
2009/04/23 12:23:05.6     -24   -230    -65    232    242 186.0 -15.8  34160  289.58 0854.80
2009/04/23 12:23:05.7       6   -267    -28    268    270 178.6  -6.1  34160  289.56 0854.80
2009/04/23 12:23:05.8     -20   -262    -55    263    269 184.4 -11.9  34160  289.56 0854.80
2009/04/23 12:23:05.9      -8   -259    -82    260    272 181.8 -22.8  34160  289.56 0854.80
2009/04/23 12:23:06.0      25   -270    -34    272    275 174.6  -7.2  34160  289.58 0854.80
2009/04/23 12:23:06.1      61   -247    -80    255    268 166.0 -17.6  34162  289.59 0854.80
2009/04/23 12:23:06.2     104   -285    -71    304    313 160.0 -13.1  34160  289.56 0854.80
2009/04/23 12:23:06.3     115   -326    -39    346    349 160.5  -6.6  34160  289.57 0854.80
2009/04/23 12:23:06.4     133   -327    -58    354    359 157.8  -9.4  34160  289.57 0854.80
2009/04/23 12:23:06.5     150   -315     19    350    351 154.5   3.1  34158  289.55 0854.80
2009/04/23 12:23:06.6     143   -232    -54    273    279 148.4 -11.3  34158  289.54 0854.80
2009/04/23 12:23:06.7     138   -218    -52    259    265 147.7 -11.5  34156  289.51 0854.80
2009/04/23 12:23:06.8     116   -250    -56    276    282 155.1 -11.5  34158  289.53 0854.80
2009/04/23 12:23:06.9     133   -261    -77    294    305 152.9 -14.8  34156  289.49 0854.80
2009/04/23 12:23:07.0     158   -217    -19    269    270 143.9  -4.1  34154  289.47 0854.80
2009/04/23 12:23:07.1     185   -193      2    268    269 136.1   0.5  34156  289.49 0854.80
2009/04/23 12:23:07.2     191   -216    -11    289    290 138.5  -2.2  34156  289.49 0854.80
2009/04/23 12:23:07.3     171   -205    -10    268    269 140.1  -2.2  34156  289.49 0854.80
2009/04/23 12:23:07.4     152   -205    -25    256    258 143.5  -5.6  34154  289.47 0854.80
2009/04/23 12:23:07.5     164   -198    -23    258    260 140.4  -5.2  34156  289.49 0854.80
2009/04/23 12:23:07.6     145   -227    -69    270    279 147.5 -14.4  34154  289.46 0854.80
2009/04/23 12:23:07.7     136   -237    -80    274    285 150.2 -21.2  34156  289.51 0854.80
2009/04/23 12:23:07.8      74   -256    -29    267    269 163.7  -6.2  34158  289.54 0854.80
2009/04/23 12:23:07.9      84   -225   -102    241    261 159.5 -28.5  34160  289.56 0854.80
2009/04/23 12:23:08.0      60   -174    -93    185    207 160.8 -32.9  34158  289.53 0854.80
2009/04/23 12:23:08.1      39   -270   -103    273    291 171.8 -25.9  34160  289.56 0854.80
2009/04/23 12:23:08.2      60   -234    -22    242    244 165.5  -5.2  34156  289.49 0854.80
2009/04/23 12:23:08.3       9   -192     27    193    195 177.1   8.0  34158  289.53 0854.80
2009/04/23 12:23:08.4     -18   -199     69    200    212 185.3  19.2  34158  289.53 0854.80
2009/04/23 12:23:08.5      -8   -320     40    321    324 181.6   7.1  34158  289.54 0854.80
2009/04/23 12:23:08.6      42   -296     15    300    301 171.9   2.9  34158  289.53 0854.80
2009/04/23 12:23:08.7       0   -240     24    241    243 180.2   5.9  34158  289.53 0854.80
2009/04/23 12:23:08.8      18   -223     39    224    228 175.3   9.9  34156  289.52 0854.80
2009/04/23 12:23:08.9       0   -261     -2    262    263 179.9  -0.5  34158  289.54 0854.80
2009/04/23 12:23:09.0      40   -272    -34    276    279 171.5  -7.2  34158  289.53 0854.80
2009/04/23 12:23:09.1      34   -227    -31    230    233 171.3  -7.7  34158  289.55 0854.80
2009/04/23 12:23:09.2      29   -211    -11    214    215 172.0  -3.2  34160  289.58 0854.80
2009/04/23 12:23:09.3      31   -222    -37    225    229 172.0  -9.4  34158  289.55 0854.80
2009/04/23 12:23:09.4      31   -190    -10    193    194 170.7  -3.1  34158  289.55 0854.80
2009/04/23 12:23:09.5      65   -217     53    227    234 163.3  13.2  34160  289.57 0854.77
2009/04/23 12:23:09.6      97   -167     63    194    205 149.7  18.1  34162  289.60 0854.77
2009/04/23 12:23:09.7     156   -173     43    234    239 137.9  10.6  34160  289.58 0854.77
2009/04/23 12:23:09.8     111   -239     88    264    279 155.1  18.5  34160  289.58 0854.77
2009/04/23 12:23:09.9     101   -245     94    266    283 157.5  19.6  34162  289.59 0854.77
2009/04/23 12:23:10.0      87   -284     78    298    309 163.0  14.7  34160  289.56 0854.77
2009/04/23 12:23:10.1      74   -214    139    227    266 160.8  34.5  34162  289.61 0854.77
2009/04/23 12:23:10.2      -3   -230    163    231    282 180.9  38.6  34162  289.59 0854.77
2009/04/23 12:23:10.3     -10   -187    156    188    244 183.1  43.8  34160  289.57 0854.77
2009/04/23 12:23:10.4     -29   -193    161    196    253 188.7  43.7  34164  289.63 0854.77
2009/04/23 12:23:10.5     -70   -245     98    256    274 196.1  22.0  34162  289.59 0854.77
2009/04/23 12:23:10.6    -131   -199     68    239    249 213.4  16.0  34162  289.59 0854.77
2009/04/23 12:23:10.7    -137   -223     87    262    277 211.6  18.5  34160  289.56 0854.77
2009/04/23 12:23:10.8    -150   -272     54    311    316 208.9  10.0  34156  289.51 0854.77
2009/04/23 12:23:10.9    -144   -320     90    352    364 204.3  14.4  34158  289.55 0854.77
2009/04/23 12:23:11.0    -117   -315     25    337    338 200.5   4.4  34156  289.50 0854.77
2009/04/23 12:23:11.1    -121   -280     46    306    310 203.4   8.7  34160  289.56 0854.77
2009/04/23 12:23:11.2    -127   -248     61    279    286 207.1  12.4  34162  289.61 0854.77
2009/04/23 12:23:11.3    -115   -241     62    268    276 205.5  13.1  34160  289.58 0854.77
2009/04/23 12:23:11.4    -114   -241     33    267    270 205.3   7.1  34160  289.58 0854.77
2009/04/23 12:23:11.5     -88   -197     52    216    223 204.1  13.7  34160  289.57 0854.76
2009/04/23 12:23:11.6     -74   -174     59    190    200 203.2  17.4  34160  289.58 0854.76
2009/04/23 12:23:11.7     -23   -121     59    124    137 190.7  27.2  34160  289.58 0854.76
2009/04/23 12:23:11.8     -54   -143     62    154    166 200.9  23.4  34162  289.60 0854.76
2009/04/23 12:23:11.9     -90   -159     61    184    194 209.6  18.4  34162  289.60 0854.76
2009/04/23 12:23:12.0      -6   -192     75    193    207 181.8  22.5  34160  289.58 0854.76
2009/04/23 12:23:12.1      -3   -194     -7    195    196 180.9  -2.2  34158  289.55 0854.76
2009/04/23 12:23:12.2      77   -228     24    241    243 161.3   5.9  34160  289.56 0854.76
2009/04/23 12:23:12.3      76   -190     37    205    209 158.1  10.3  34158  289.53 0854.76
2009/04/23 12:23:12.5     141   -165     75    218    231 139.5  19.2  34156  289.52 0854.76
2009/04/23 12:23:12.5     173   -189     91    257    273 137.5  19.6  34158  289.53 0854.76
2009/04/23 12:23:12.7     185   -168    127    251    281 132.2  29.2  34156  289.51 0854.76
2009/04/23 12:23:12.7     185   -161    104    246    267 130.9  24.2  34158  289.54 0854.76
2009/04/23 12:23:12.9     166   -172     98    240    259 136.1  23.1  34156  289.51 0854.76
2009/04/23 12:23:12.9     194   -124     77    231    244 122.5  18.6  34158  289.53 0854.76
2009/04/23 12:23:13.1     160   -131     48    207    213 129.3  13.2  34156  289.50 0854.76
2009/04/23 12:23:13.2     176   -111    100    209    231 122.2  27.3  34158  289.53 0854.76
2009/04/23 12:23:13.3     186   -186     93    264    280 135.0  19.4  34156  289.51 0854.76
2009/04/23 12:23:13.4     132   -170    105    216    240 142.1  27.8  34156  289.52 0854.76
2009/04/23 12:23:13.5     120   -148    121    191    226 141.0  35.5  34156  289.52 0854.76
2009/04/23 12:23:13.6     143   -113    142    183    231 128.4  41.7  34156  289.50 0854.75
2009/04/23 12:23:13.7     113    -68    109    132    171 121.1  43.7  34158  289.53 0854.75
2009/04/23 12:23:13.8      21   -104     82    107    134 168.4  41.6  34156  289.50 0854.75
2009/04/23 12:23:13.9      19    -93     67     95    116 168.4  38.6  34158  289.53 0854.75
2009/04/23 12:23:14.0      30   -147     35    151    156 168.4  13.2  34156  289.52 0854.75
2009/04/23 12:23:14.1      78   -115     69    140    156 145.8  27.3  34152  289.43 0854.75
2009/04/23 12:23:14.2      44   -157    104    164    194 164.2  35.5  34158  289.53 0854.75
2009/04/23 12:23:14.3       0   -157     57    158    167 180.0  20.4  34158  289.53 0854.75
2009/04/23 12:23:14.4      24   -154     58    156    166 171.1  21.5  34160  289.57 0854.75
2009/04/23 12:23:14.5      42   -163     32    169    173 165.5  10.8  34158  289.53 0854.75
2009/04/23 12:23:14.6      41   -154     47    160    167 164.9  16.6  34158  289.55 0854.75
2009/04/23 12:23:14.7      20   -143     70    145    161 172.0  27.4  34158  289.53 0854.75
2009/04/23 12:23:14.8      98   -137     60    169    179 144.2  20.2  34160  289.57 0854.75
2009/04/23 12:23:14.9      62   -206     59    216    224 163.1  15.3  34154  289.46 0854.75
2009/04/23 12:23:15.0      32   -284    -11    286    287 173.5  -2.2  34160  289.56 0854.75
2009/04/23 12:23:15.1      38   -306    -69    309    317 172.9 -12.6  34160  289.56 0854.75
2009/04/23 12:23:15.2      81   -311    -65    322    329 165.3 -11.6  34162  289.59 0854.75
2009/04/23 12:23:15.3      38   -316    -61    319    325 173.1 -11.0  34160  289.58 0854.75
2009/04/23 12:23:15.4      65   -300    -68    308    316 167.7 -12.5  34162  289.59 0854.75
2009/04/23 12:23:15.5      69   -270    -56    279    285 165.5 -11.3  34162  289.61 0854.75
2009/04/23 12:23:15.6      53   -285      9    290    291 169.4   1.8  34160  289.58 0854.73
2009/04/23 12:23:15.7      40   -261      1    265    266 171.1   0.2  34160  289.58 0854.73
2009/04/23 12:23:15.8       4   -272    -19    273    274 179.1  -4.1  34162  289.61 0854.73
2009/04/23 12:23:15.9      13   -333    -35    334    336 177.7  -6.1  34160  289.57 0854.73
2009/04/23 12:23:16.0      -9   -376     -7    377    378 181.4  -1.2  34156  289.52 0854.73
2009/04/23 12:23:16.1     -21   -368     -1    369    370 183.4  -0.2  34158  289.54 0854.73
2009/04/23 12:23:16.2       0   -368     24    369    370 180.1   3.8  34156  289.52 0854.73
2009/04/23 12:23:16.3       2   -391     -6    392    393 179.7  -0.9  34158  289.54 0854.73
2009/04/23 12:23:16.4      -6   -397      1    398    399 180.9   0.2  34158  289.55 0854.73
2009/04/23 12:23:16.5      23   -434    -10    435    436 176.9  -1.4  34154  289.48 0854.73
2009/04/23 12:23:16.6     -24   -371     31    372    374 183.7   4.9  34156  289.52 0854.73
2009/04/23 12:23:16.7      22   -398      0    399    400 176.8   0.1  34158  289.54 0854.73
2009/04/23 12:23:16.8      18   -387     12    388    389 177.2   1.9  34146  289.35 0854.73
2009/04/23 12:23:16.9      51   -361     62    365    371 171.9   9.7  34152  289.42 0854.73
2009/04/23 12:23:17.0     206   -431     -9    478    479 154.4  -1.2  34150  289.39 0854.73
2009/04/23 12:23:17.1     152   -450    -18    476    477 161.3  -2.2  34152  289.44 0854.73
2009/04/23 12:23:17.2      78   -370     -7    379    380 168.1  -1.2  34152  289.42 0854.73
2009/04/23 12:23:17.3     -16   -297    -54    298    303 183.1 -10.3  34156  289.49 0854.73
2009/04/23 12:23:17.4      72   -305    -23    314    315 166.6  -4.2  34156  289.51 0854.73
2009/04/23 12:23:17.5      75   -292    -36    302    305 165.5  -6.9  34156  289.49 0854.73
2009/04/23 12:23:17.6      32   -300    -16    302    303 173.8  -3.1  34156  289.51 0854.75
2009/04/23 12:23:17.7      55   -287     21    293    294 169.1   4.2  34156  289.49 0854.75
2009/04/23 12:23:17.8     -24   -279     46    281    285 185.1   9.3  34156  289.51 0854.75
2009/04/23 12:23:17.9     -42   -238     40    242    246 190.0   9.5  34156  289.51 0854.75
2009/04/23 12:23:18.0     -26   -246     26    248    250 186.2   6.1  34158  289.54 0854.75
2009/04/23 12:23:18.1     -33   -247     16    250    251 187.8   3.8  34158  289.54 0854.75
2009/04/23 12:23:18.2     -22   -227      0    229    230 185.6   0.0  34158  289.53 0854.75
2009/04/23 12:23:18.3      -7   -235    -21    236    237 181.8  -5.2  34158  289.53 0854.75
2009/04/23 12:23:18.4     -13   -228     -8    229    230 183.4  -2.2  34156  289.52 0854.75
2009/04/23 12:23:18.5       0   -257     17    258    259 180.2   3.8  34154  289.47 0854.75
2009/04/23 12:23:18.6      39   -315    -29    318    320 172.9  -5.4  34152  289.44 0854.75
2009/04/23 12:23:18.7      42   -301    -21    305    306 172.0  -4.1  34158  289.53 0854.75
2009/04/23 12:23:18.8      75   -294    -38    304    307 165.7  -7.2  34154  289.46 0854.75
2009/04/23 12:23:18.9      32   -379     77    381    389 175.0  11.5  34152  289.42 0854.75
2009/04/23 12:23:19.0     148   -283      5    320    321 152.4   1.0  34150  289.41 0854.75
2009/04/23 12:23:19.1      97   -335     77    349    358 163.7  12.5  34154  289.47 0854.75
2009/04/23 12:23:19.2     155   -280     69    321    329 151.0  12.3  34148  289.37 0854.75
2009/04/23 12:23:19.3     137   -336      5    363    364 157.8   0.8  34148  289.37 0854.75
2009/04/23 12:23:19.4     145   -282    -22    318    319 152.8  -4.0  34150  289.41 0854.75
2009/04/23 12:23:19.5     148   -290     13    326    327 152.9   2.3  34150  289.41 0854.75
2009/04/23 12:23:19.6     130   -314     69    340    348 157.5  11.6  34164  289.64 0854.77
2009/04/23 12:23:19.7      67   -270    119    279    303 166.0  24.6  34154  289.47 0854.77
2009/04/23 12:23:19.8     103   -166     70    196    208 148.1  20.4  34160  289.57 0854.77
2009/04/23 12:23:19.9     163   -161      0    230    231 134.7   0.0  34152  289.45 0854.77
2009/04/23 12:23:20.0     112   -150     61    188    198 143.3  18.1  34158  289.53 0854.77
2009/04/23 12:23:20.1     110    -95     57    146    156 130.9  22.5  34160  289.57 0854.77
2009/04/23 12:23:20.2     114    -87     28    144    147 127.3  11.0  34156  289.50 0854.77
2009/04/23 12:23:20.3     105    -95     22    142    144 132.2   9.0  34158  289.55 0854.77
2009/04/23 12:23:20.4      87    -78     27    118    122 131.8  13.1  34160  289.57 0854.77
2009/04/23 12:23:20.5      74    -83     30    112    117 138.1  15.2  34160  289.58 0854.77
2009/04/23 12:23:20.6      70    -67     48     98    109 133.6  27.8  34158  289.55 0854.77
2009/04/23 12:23:20.7      25    -74     31     79     84 161.3  22.0  34160  289.57 0854.77
2009/04/23 12:23:20.8      -8    -70      8     71     72 187.1   7.1  34158  289.53 0854.77
2009/04/23 12:23:20.9     -11    -56     20     58     62 191.6  18.9  34156  289.50 0854.77
2009/04/23 12:23:21.0      48   -103     36    114    120 155.1  17.9  34158  289.55 0854.77
2009/04/23 12:23:21.1      37   -188     58    192    201 168.7  16.8  34158  289.53 0854.77
2009/04/23 12:23:21.2      85   -134    122    159    200 147.5  41.6  34160  289.58 0854.77
2009/04/23 12:23:21.3      68   -174     91    187    207 158.6  27.8  34156  289.52 0854.77
2009/04/23 12:23:21.4      49   -172    149    179    232 164.0  43.8  34162  289.60 0854.77
2009/04/23 12:23:21.5      52   -213     92    220    238 166.2  24.1  34160  289.58 0854.77
2009/04/23 12:23:21.6      42   -205    150    210    258 168.2  39.3  34166  289.66 0854.77
2009/04/23 12:23:21.7      47   -200    106    206    231 166.7  29.3  34162  289.60 0854.77
2009/04/23 12:23:21.8      39   -165     85    170    190 166.6  28.2  34160  289.57 0854.77
2009/04/23 12:23:21.9      39   -104     64    112    128 159.1  32.4  34160  289.58 0854.77
2009/04/23 12:23:22.0      76   -106     41    131    138 144.0  17.3  34158  289.53 0854.77
2009/04/23 12:23:22.1      88    -95     53    130    140 137.2  23.1  34158  289.53 0854.77
2009/04/23 12:23:22.2      91    -84     74    124    144 132.7  34.0  34162  289.60 0854.77
2009/04/23 12:23:22.3      79    -65     90    103    136 129.6  45.8  34162  289.62 0854.77
2009/04/23 12:23:22.4      96    -55     87    111    141 119.8  42.2  34160  289.58 0854.77
2009/04/23 12:23:22.5     100    -51    101    113    151 117.1  46.4  34166  289.67 0854.77
2009/04/23 12:23:22.6     100    -47     98    111    148 115.4  45.9  34166  289.67 0854.79
2009/04/23 12:23:22.7      76   -112     79    136    157 145.7  32.7  34162  289.62 0854.79
2009/04/23 12:23:22.8      58   -145     86    157    179 158.1  31.3  34162  289.62 0854.79
2009/04/23 12:23:22.9      64   -137    103    152    183 154.7  37.3  34164  289.63 0854.79
2009/04/23 12:23:23.0     -17   -168     70    169    182 186.0  23.4  34166  289.69 0854.79
2009/04/23 12:23:23.1     -33   -160     70    164    178 191.8  24.3  34168  289.70 0854.79
2009/04/23 12:23:23.2     -48   -149     54    157    167 197.8  19.2  34168  289.72 0854.79
2009/04/23 12:23:23.3     -94   -161     44    187    193 210.5  13.2  34166  289.69 0854.79
2009/04/23 12:23:23.4    -102   -135      9    170    171 217.0   3.3  34168  289.70 0854.79
2009/04/23 12:23:23.5     -86   -103    -39    135    140 219.6 -20.7  34166  289.69 0854.79
2009/04/23 12:23:23.6     -52    -49    -27     72     76 226.9 -24.4  34166  289.69 0854.79
2009/04/23 12:23:23.7     -26    -40    -33     48     58 213.4 -40.9  34168  289.70 0854.79
2009/04/23 12:23:23.8      11    -74     -9     75     76 171.1  -7.3  34166  289.67 0854.79
2009/04/23 12:23:23.9      43    -58     25     73     78 143.9  19.4  34164  289.65 0854.79
2009/04/23 12:23:24.0      46    -40     38     62     72 131.3  35.5  34168  289.70 0854.79
2009/04/23 12:23:24.1      60    -38     62     72     95 122.4  45.4  34166  289.67 0854.79
2009/04/23 12:23:24.2      56    -46     53     73     90 129.6  39.7  34168  289.72 0854.79
2009/04/23 12:23:24.3      22    -29     43     37     56 142.2  54.3  34166  289.69 0854.79
2009/04/23 12:23:24.4       3    -22     58     23     62 170.2  77.1  34168  289.70 0854.79
2009/04/23 12:23:24.5      47    -65     56     81     98 143.9  37.6  34166  289.67 0854.79
2009/04/23 12:23:24.6      89    -32     71     95    118 110.0  40.7  34162  289.62 0854.81
2009/04/23 12:23:24.7      67    -53     85     86    120 128.2  50.0  34166  289.67 0854.81
2009/04/23 12:23:24.8      62    -45     68     77    102 126.0  46.4  34166  289.69 0854.81
2009/04/23 12:23:24.9     -78    -83     94    115    148 223.2  43.7  34164  289.65 0854.81
2009/04/23 12:23:25.0     -70    -74     85    103    133 223.3  43.7  34166  289.67 0854.81
2009/04/23 12:23:25.1     -25   -147     56    150    160 189.8  21.3  34164  289.65 0854.81
2009/04/23 12:23:25.2     -31   -118     19    123    125 195.1   9.0  34164  289.65 0854.81
2009/04/23 12:23:25.3     -37    -72    -29     81     87 207.2 -19.7  34162  289.62 0854.81
2009/04/23 12:23:25.4      11    -79     28     80     85 171.9  19.4  34162  289.62 0854.81
2009/04/23 12:23:25.5       0    -86     40     87     95 180.4  26.6  34162  289.62 0854.81
2009/04/23 12:23:25.6     -22    -81     45     85     96 195.6  30.3  34162  289.60 0854.81
2009/04/23 12:23:25.7     -36   -107     83    113    140 198.7  39.7  34164  289.63 0854.81
2009/04/23 12:23:25.8     -90   -133     60    161    171 214.3  21.3  34162  289.62 0854.81
2009/04/23 12:23:25.9    -112   -112     93    159    184 225.0  33.1  34158  289.53 0854.81
2009/04/23 12:23:26.0    -206   -133    131    246    278 237.1  30.3  34160  289.58 0854.81
2009/04/23 12:23:26.1     -24    -79    146     83    167 197.4  68.1  34164  289.65 0854.81
2009/04/23 12:23:26.2      17   -163    156    164    226 174.0  48.2  34164  289.63 0854.81
2009/04/23 12:23:26.3      14   -186    164    187    248 175.5  45.8  34164  289.63 0854.81
2009/04/23 12:23:26.4      39   -145    132    151    200 164.9  45.8  34162  289.62 0854.81
2009/04/23 12:23:26.5      74   -152     96    170    195 154.1  32.1  34162  289.60 0854.81
2009/04/23 12:23:26.6      27   -136     80    139    160 168.5  32.4  34162  289.60 0854.83
2009/04/23 12:23:26.7     -24   -123     43    126    134 191.1  18.9  34162  289.62 0854.83
2009/04/23 12:23:26.8     -24    -90     15     94     96 195.1   9.0  34162  289.62 0854.83
2009/04/23 12:23:26.9       0    -43     12     44     46 180.0  15.3  34164  289.63 0854.83
2009/04/23 12:23:27.0      31     -6     16     32     35 101.4  27.3  34164  289.65 0854.83
2009/04/23 12:23:27.1      21     -8     31     23     38 111.7  58.5  34164  289.65 0854.83
2009/04/23 12:23:27.2      12    -12     48     18     51 135.0  79.2  34166  289.69 0854.83
2009/04/23 12:23:27.3      11    -17     25     21     32 145.7  56.3  34164  289.63 0854.83
2009/04/23 12:23:27.4     -19    -10     41     22     46 242.9  69.8  34166  289.67 0854.83
2009/04/23 12:23:27.5     -46     -1     57     47     73 268.3  56.3  34164  289.63 0854.83
2009/04/23 12:23:27.6     -61     33     67     70     96 298.9  49.4  34166  289.67 0854.83
2009/04/23 12:23:27.7     -71     66     38     98    105 313.1  22.5  34162  289.60 0854.83
2009/04/23 12:23:27.8    -147    123     94    192    213 310.0  28.0  34158  289.53 0854.83
2009/04/23 12:23:27.9    -153    106    146    187    237 304.6  41.7  34160  289.58 0854.83
2009/04/23 12:23:28.0    -151    142    115    208    237 313.2  31.4  34160  289.57 0854.83
2009/04/23 12:23:28.1    -212    105    113    237    262 296.4  27.3  34154  289.47 0854.83
2009/04/23 12:23:28.2    -186    132    124    229    260 305.5  30.8  34154  289.47 0854.83
2009/04/23 12:23:28.3    -164     80     60    183    193 296.2  18.1  34152  289.43 0854.83
2009/04/23 12:23:28.4    -110    104     39    152    157 313.2  14.5  34152  289.43 0854.83
2009/04/23 12:23:28.5    -143    103     54    177    186 306.0  17.1  34150  289.40 0854.83
2009/04/23 12:23:28.6    -144     94     -2    173    174 303.1  -0.7  34148  289.36 0854.83
2009/04/23 12:23:28.7    -159    103     12    190    191 302.9   3.8  34148  289.38 0854.83
2009/04/23 12:23:28.8    -150     93      0    177    178 302.0  -0.3  34148  289.36 0854.83
2009/04/23 12:23:28.9    -122    115    -25    168    170 313.3  -8.6  34150  289.40 0854.83
2009/04/23 12:23:29.0     -24    107     34    110    116 347.1  17.3  34160  289.58 0854.83
2009/04/23 12:23:29.1      -3    144     -9    145    146 358.6  -3.7  34162  289.60 0854.83
2009/04/23 12:23:29.2      29    109     29    113    117  15.2  14.7  34164  289.65 0854.83
2009/04/23 12:23:29.3      83     73      5    111    112  48.7   2.8  34168  289.70 0854.83
2009/04/23 12:23:29.4      81     90     -7    122    123  41.9  -3.7  34164  289.63 0854.83
2009/04/23 12:23:29.5     154     99      1    184    185  57.4   0.5  34166  289.69 0854.83
2009/04/23 12:23:29.6     204     71     26    217    219  70.7   6.9  34162  289.60 0854.83
2009/04/23 12:23:29.7     191    105    -37    219    223  61.1  -9.6  34156  289.50 0854.83
2009/04/23 12:23:29.8     120    102    -42    158    164  49.6 -15.0  34160  289.58 0854.83
2009/04/23 12:23:29.9     122    110    -19    165    167  47.8  -6.9  34164  289.63 0854.83
2009/04/23 12:23:30.0     150     73      2    167    168  64.0   1.0  34164  289.65 0854.83
2009/04/23 12:23:30.1     155    155     86    220    236  45.0  22.5  34180  289.92 0854.83
2009/04/23 12:23:30.2     101    116     75    154    171  41.0  27.4  34174  289.80 0854.83
2009/04/23 12:23:30.3      30    149    113    153    190  11.5  40.1  34180  289.91 0854.83
2009/04/23 12:23:30.4     129     61    126    143    190  64.6  45.8  34176  289.85 0854.83
2009/04/23 12:23:30.5     160     88    117    183    217  61.1  35.6  34168  289.70 0854.83
2009/04/23 12:23:30.6     175     95    155    200    253  61.6  41.7  34170  289.73 0854.83
2009/04/23 12:23:30.7     232    104    148    255    294  65.8  32.4  34150  289.41 0854.83
2009/04/23 12:23:30.8     273     73    162    283    326  74.9  32.4  34150  289.39 0854.83
2009/04/23 12:23:30.9     178    115    138    212    252  57.1  36.0  34148  289.37 0854.83
2009/04/23 12:23:31.0     198     72    181    211    277  70.0  45.1  34150  289.39 0854.83
2009/04/23 12:23:31.1     166     85     68    187    198  62.9  20.9  34152  289.43 0854.83
2009/04/23 12:23:31.2     171    173    100    244    263  44.5  23.4  34150  289.41 0854.83
2009/04/23 12:23:31.3      43    180    140    186    232  13.4  40.7  34160  289.57 0854.83
2009/04/23 12:23:31.4      15     70     97     72    120  12.5  60.0  34162  289.62 0854.83
2009/04/23 12:23:31.5      51     88    122    103    159  30.3  55.6  34160  289.58 0854.83
2009/04/23 12:23:31.6      49    213    124    219    251  13.1  32.3  34158  289.54 0854.83
2009/04/23 12:23:31.7     -49    334    235    338    411 351.5  38.4  34144  289.30 0854.83
2009/04/23 12:23:31.8     -91    390    157    401    430 346.8  22.7  34148  289.36 0854.83
2009/04/23 12:23:31.9      31    396     85    398    408   4.6  12.1  34156  289.49 0854.83
2009/04/23 12:23:32.0    -122    344     72    366    374 340.4  11.1  34158  289.55 0854.83
2009/04/23 12:23:32.1    -111    328     83    347    357 341.2  13.5  34158  289.55 0854.83
2009/04/23 12:23:32.2    -166    329    -11    369    370 333.2  -1.7  34154  289.48 0854.83
2009/04/23 12:23:32.3     -86    231     -6    247    248 339.5  -1.6  34144  289.29 0854.83
2009/04/23 12:23:32.4     -58    246    -50    253    259 346.7 -11.3  34142  289.25 0854.83
2009/04/23 12:23:32.5     -39    281    -67    284    292 352.0 -13.4  34132  289.09 0854.83
2009/04/23 12:23:32.6     -63    290    -37    297    300 347.6  -7.2  34128  289.03 0854.83
2009/04/23 12:23:32.7     -50    292    -11    297    298 350.2  -2.2  34130  289.05 0854.83
2009/04/23 12:23:32.8     -46    300    -28    304    306 351.1  -5.4  34132  289.09 0854.83
2009/04/23 12:23:32.9     -68    286    -56    294    300 346.6 -10.9  34134  289.12 0854.83
2009/04/23 12:23:33.0     -75    285    -37    295    298 345.1  -7.3  34132  289.09 0854.83
2009/04/23 12:23:33.1     -89    267    -52    282    287 341.5 -10.5  34134  289.12 0854.83
2009/04/23 12:23:33.2     -63    254    -33    262    265 346.0  -7.2  34132  289.10 0854.83
2009/04/23 12:23:33.3     -46    250    -37    255    258 349.4  -8.3  34132  289.09 0854.83
2009/04/23 12:23:33.4     -50    245    -57    251    258 348.4 -12.9  34132  289.09 0854.83
2009/04/23 12:23:33.5     -42    240    -67    244    254 350.0 -15.5  34132  289.10 0854.83
2009/04/23 12:23:33.6     -26    222    -79    224    238 353.1 -19.4  34130  289.05 0854.83
2009/04/23 12:23:33.7     -19    244    -22    245    247 355.5  -5.2  34130  289.07 0854.83
2009/04/23 12:23:33.8       4    243    -22    244    246   1.0  -5.2  34130  289.05 0854.83
2009/04/23 12:23:34.0       8    236    -21    237    238   2.0  -5.2  34128  289.02 0854.83
2009/04/23 12:23:34.0      26    242    -16    244    245   6.3  -3.9  34130  289.05 0854.83
2009/04/23 12:23:34.1      29    228    -29    230    232   7.3  -7.3  34130  289.08 0854.83
2009/04/23 12:23:34.2      28    244    -16    246    247   6.7  -3.7  34130  289.05 0854.83
2009/04/23 12:23:34.3      34    238     -2    241    242   8.2  -0.5  34128  289.02 0854.83
2009/04/23 12:23:34.4      33    238    -13    241    242   8.0  -3.3  34132  289.09 0854.83
2009/04/23 12:23:34.5      28    262    -10    264    265   6.2  -2.3  34132  289.10 0854.83
2009/04/23 12:23:34.6      54    252    -28    258    260  12.3  -6.2  34134  289.12 0854.83
2009/04/23 12:23:34.7      57    271     -2    278    279  12.0  -0.5  34132  289.09 0854.83
2009/04/23 12:23:34.8      88    274     -5    288    289  17.8  -1.2  34136  289.15 0854.83
2009/04/23 12:23:34.9      32    281     24    283    285   6.7   4.9  34136  289.17 0854.83
2009/04/23 12:23:35.0      61    272    -12    279    280  12.7  -2.6  34134  289.12 0854.83
2009/04/23 12:23:35.1      59    265    -13    272    273  12.7  -2.8  34134  289.14 0854.83
2009/04/23 12:23:35.2      20    264     -5    265    266   4.4  -1.3  34134  289.14 0854.83
2009/04/23 12:23:35.3      -7    250    -41    251    255 358.4  -9.3  34132  289.09 0854.83
2009/04/23 12:23:35.4     -31    246    -12    249    250 352.7  -2.8  34134  289.14 0854.83
2009/04/23 12:23:35.5      19    273     -2    274    275   4.0  -0.5  34132  289.10 0854.83
2009/04/23 12:23:35.6     -39    194    -39    198    202 348.5 -11.3  34132  289.11 0854.83
2009/04/23 12:23:35.7     -31    157    -23    161    163 348.9  -8.2  34132  289.11 0854.83
2009/04/23 12:23:35.8     -24    180    -48    182    189 352.4 -15.0  34134  289.13 0854.83
2009/04/23 12:23:35.9       0    183    -73    184    197   0.2 -27.2  34130  289.08 0854.83
2009/04/23 12:23:36.0     -10    223    -61    224    233 357.3 -15.2  34182  289.96 0854.83
2009/04/23 12:23:36.1     -53    219    -71    226    236 346.4 -22.5  34260  291.26 0854.83
2009/04/23 12:23:36.2    -128    232    -58    266    273 331.1 -12.4  34218  290.56 0854.83
2009/04/23 12:23:36.3    -164    255    -16    304    305 327.3  -3.1  34216  290.51 0854.83
2009/04/23 12:23:36.4     -10    256     49    257    262 357.8  10.8  34152  289.42 0854.83
2009/04/23 12:23:36.5     120    173     35    211    214  34.7   9.5  34144  289.30 0854.83
2009/04/23 12:23:36.6     148    160    -27    219    221  42.8  -7.2  34140  289.24 0854.82
2009/04/23 12:23:36.7     138    144    -25    200    202  43.9  -7.2  34140  289.23 0854.82
2009/04/23 12:23:36.8     144     93     50    172    180  56.9  16.3  34148  289.36 0854.82
2009/04/23 12:23:36.9      75    136     27    156    159  29.0   9.9  34192  290.13 0854.82
2009/04/23 12:23:37.0      34    105     52    111    122  18.3  26.6  34200  290.26 0854.82
2009/04/23 12:23:37.1     -91     75     19    119    121 309.5   9.5  34200  290.25 0854.82
2009/04/23 12:23:37.2     -99     55      1    114    115 299.3   0.8  34184  289.97 0854.82
2009/04/23 12:23:37.3    -134     36      7    139    140 285.1   2.9  34186  290.02 0854.82
2009/04/23 12:23:37.4    -132     43     51    139    148 288.2  21.0  34184  289.97 0854.82
2009/04/23 12:23:37.5    -226     48      7    232    233 282.2   1.8  34178  289.89 0854.82
2009/04/23 12:23:37.6    -255     56     40    262    266 282.4   8.8  34188  290.03 0854.82
2009/04/23 12:23:37.7    -265     71     31    275    277 285.1   6.5  34192  290.12 0854.82
2009/04/23 12:23:37.8    -241     80    116    254    279 288.4  26.2  34180  289.92 0854.82
2009/04/23 12:23:37.9    -262     91     88    278    292 289.3  17.7  34178  289.86 0854.82
2009/04/23 12:23:38.0    -334     45     18    338    339 277.7   3.1  34162  289.59 0854.82
2009/04/23 12:23:38.1    -289     58    -64    295    303 281.5 -12.4  34152  289.44 0854.82
2009/04/23 12:23:38.2    -218     99    -75    240    252 294.6 -17.5  34164  289.63 0854.82
2009/04/23 12:23:38.3    -280    122    -12    306    307 293.6  -2.3  34198  290.22 0854.82
2009/04/23 12:23:38.4    -252    182     36    312    315 305.9   6.7  34198  290.20 0854.82
2009/04/23 12:23:38.5    -207    188     81    280    292 312.2  16.3  34204  290.31 0854.82
2009/04/23 12:23:38.6    -177    129     18    220    221 306.2   4.9  34202  290.30 0854.81
2009/04/23 12:23:38.7    -197     86     81    216    230 293.6  21.0  34208  290.38 0854.81
2009/04/23 12:23:38.8    -172     35     94    176    199 281.5  30.6  34198  290.23 0854.81
2009/04/23 12:23:38.9    -187    -24     37    189    193 262.5  11.1  34218  290.57 0854.81
2009/04/23 12:23:39.1    -144    -48     93    152    178 251.4  34.4  34232  290.81 0854.81
2009/04/23 12:23:39.1    -158     16    107    159    191 276.1  36.7  34230  290.75 0854.81
2009/04/23 12:23:39.3    -104     80    119    132    177 307.7  46.9  34222  290.62 0854.81
2009/04/23 12:23:39.4     -71     48    103     86    134 304.2  56.3  34226  290.70 0854.81
2009/04/23 12:23:39.5     -36     12     72     39     81 288.6  69.3  34228  290.74 0854.81
2009/04/23 12:23:39.6     -66     97     21    118    120 325.7  10.1  34238  290.91 0854.81
2009/04/23 12:23:39.7     -46    104     31    115    120 335.9  15.3  34230  290.77 0854.81
2009/04/23 12:23:39.8     -17    157    -40    158    164 353.8 -14.3  34216  290.52 0854.81
2009/04/23 12:23:39.9      15    178    -35    179    183   4.9 -11.1  34206  290.35 0854.81
2009/04/23 12:23:40.0      48    134    -18    143    145  20.0  -7.2  34198  290.21 0854.81
2009/04/23 12:23:40.1      13    171     31    172    175   4.5  10.3  34204  290.33 0854.81
2009/04/23 12:23:40.2       3    193     23    194    196   0.9   6.9  34208  290.40 0854.81
2009/04/23 12:23:40.3     -29    196     13    199    200 351.5   3.8  34208  290.38 0854.81
2009/04/23 12:23:40.4    -138    232     -1    271    272 329.2  -0.3  34230  290.76 0854.81
2009/04/23 12:23:40.5    -213    158     -5    266    267 306.6  -1.3  34216  290.53 0854.81
2009/04/23 12:23:40.6    -203    133      3    244    245 303.3   0.8  34206  290.36 0854.81
2009/04/23 12:23:40.7    -246    139     -2    283    284 299.5  -0.5  34212  290.46 0854.81
2009/04/23 12:23:40.8    -125     85     74    152    169 304.2  27.8  34218  290.55 0854.81
2009/04/23 12:23:40.9     -24     50    113     56    126 333.7  71.9  34228  290.74 0854.81
2009/04/23 12:23:41.0     -15    144    100    145    176 353.7  38.0  34226  290.70 0854.81
2009/04/23 12:23:41.1     -41    214    127    218    252 349.1  33.1  34220  290.58 0854.81
2009/04/23 12:23:41.2     -66    264     53    273    279 346.0  11.1  34212  290.44 0854.81
2009/04/23 12:23:41.3     -34    318     65    320    327 353.8  11.6  34196  290.19 0854.81
2009/04/23 12:23:41.4      21    263     85    264    278   4.7  17.9  34180  289.92 0854.81
2009/04/23 12:23:41.5       0    386    189    387    430 359.9  28.1  34198  290.21 0854.81
2009/04/23 12:23:41.6      34    356    181    358    401   5.6  28.9  34202  290.30 0854.81
2009/04/23 12:23:41.7     -90    212     77    231    244 337.1  18.4  34212  290.46 0854.81
2009/04/23 12:23:41.8    -148     94     61    176    187 302.5  19.2  34232  290.79 0854.81
2009/04/23 12:23:41.9    -195    215    108    291    310 317.7  21.0  34224  290.66 0854.81
2009/04/23 12:23:42.0    -208    311     75    375    383 326.3  11.4  34226  290.69 0854.81
2009/04/23 12:23:42.1    -173    283     55    332    337 328.5   9.4  34212  290.45 0854.81
2009/04/23 12:23:42.2    -105    288     96    307    322 339.9  17.5  34218  290.54 0854.81
2009/04/23 12:23:42.3    -287    357    -87    459    468 321.2 -10.8  34188  290.05 0854.81
2009/04/23 12:23:42.4    -327    224   -137    397    421 304.4 -19.1  34216  290.53 0854.81
2009/04/23 12:23:42.5    -299    264    -51    400    404 311.4  -7.3  34218  290.57 0854.81
2009/04/23 12:23:42.6    -303    276    -60    411    416 312.3  -8.4  34216  290.53 0854.81
2009/04/23 12:23:42.7    -208    201    -11    290    291 314.0  -2.2  34200  290.26 0854.81
2009/04/23 12:23:42.8    -180     85    -46    200    206 295.2 -13.2  34232  290.81 0854.81
2009/04/23 12:23:42.9    -246    215      9    327    328 311.2   1.6  34248  291.05 0854.81
2009/04/23 12:23:43.0    -311    221    -14    382    383 305.4  -2.2  34268  291.42 0854.81
2009/04/23 12:23:43.1    -289    218    -39    363    366 307.1  -6.3  34264  291.34 0854.81
2009/04/23 12:23:43.2    -218    240    -27    325    327 317.8  -4.9  34276  291.55 0854.81
2009/04/23 12:23:43.3    -155    266    -35    309    311 329.7  -6.5  34248  291.07 0854.81
2009/04/23 12:23:43.4     -54    230    -25    237    239 346.6  -6.2  34236  290.85 0854.81
2009/04/23 12:23:43.5     -93    230    -14    249    250 337.9  -3.3  34236  290.85 0854.81
2009/04/23 12:23:43.6    -119    166     -8    205    206 324.2  -2.2  34240  290.94 0854.81
2009/04/23 12:23:43.7     -54    123    105    135    171 336.4  42.2  34214  290.48 0854.82
2009/04/23 12:23:43.8     -45    157     86    164    185 344.0  30.1  34218  290.55 0854.82
2009/04/23 12:23:43.9      16    108     57    110    123   8.5  29.3  34212  290.47 0854.82
2009/04/23 12:23:44.0       7     42     58     43     72  10.7  60.5  34216  290.52 0854.82
2009/04/23 12:23:44.1       3     11     14     12     18  18.5  48.2  34212  290.47 0854.82
2009/04/23 12:23:44.2     -18     -6     17     20     26 251.4  45.8  34214  290.48 0854.82
2009/04/23 12:23:44.3     -16     29     24     34     41 331.0  39.7  34214  290.48 0854.82
2009/04/23 12:23:44.4     -61     21     55     65     85 289.1  44.8  34214  290.48 0854.82
2009/04/23 12:23:44.5     -61    -12     28     63     68 258.5  25.1  34216  290.52 0854.82
2009/04/23 12:23:44.6      27      9     77     29     82  70.0  78.6  34218  290.55 0854.82
2009/04/23 12:23:44.7      35     -8     82     36     89 103.3  74.5  34214  290.50 0854.82
2009/04/23 12:23:44.8      -5    -17     71     18     73 198.5  85.9  34214  290.48 0854.82
2009/04/23 12:23:44.9     -58    -21     50     62     79 250.0  43.3  34216  290.53 0854.82
2009/04/23 12:23:45.0     -35    -60     54     70     88 210.7  42.2  34216  290.53 0854.82
2009/04/23 12:23:45.1      47    -55     41     73     83 139.5  32.4  34222  290.64 0854.82
2009/04/23 12:23:45.2      60   -128     17    142    144 154.7   6.9  34232  290.79 0854.82
2009/04/23 12:23:45.3      52   -159      3    168    169 161.7   1.2  34238  290.91 0854.82
2009/04/23 12:23:45.4      40   -174     29    179    182 166.9   9.5  34240  290.94 0854.82
2009/04/23 12:23:45.5      41   -174     64    179    190 166.6  20.0  34232  290.81 0854.82
2009/04/23 12:23:45.6      71   -198     45    211    216 160.2  12.2  34226  290.70 0854.82
2009/04/23 12:23:45.7      60   -187    -10    197    198 162.2  -3.1  34228  290.74 0854.82
2009/04/23 12:23:45.8      62   -110    -89    127    155 150.6 -43.0  34222  290.62 0854.82
2009/04/23 12:23:45.9      62   -112    -70    129    146 151.1 -35.2  34216  290.52 0854.82
2009/04/23 12:23:46.0     102    -95    -21    140    142 133.2  -8.8  34198  290.21 0854.82
2009/04/23 12:23:46.1      56    -87      5    104    105 147.0   2.8  34196  290.18 0854.82
2009/04/23 12:23:46.2      16    -29    -80     34     86 151.0 -80.5  34198  290.21 0854.82
2009/04/23 12:23:46.3     -14      0    -46     15     48 270.0 -85.1  34212  290.45 0854.82
2009/04/23 12:23:46.4       5    -23    -32     24     40 166.6 -63.8  34216  290.53 0854.82
2009/04/23 12:23:46.5      64    -60    -13     88     90 133.1  -8.8  34212  290.47 0854.82
2009/04/23 12:23:46.6     129    -52    -44    140    146 111.8 -23.3  34196  290.18 0854.82
2009/04/23 12:23:46.7      65   -129    -82    145    166 153.3 -36.5  34206  290.36 0854.82
2009/04/23 12:23:46.8      78    -85   -100    116    153 137.2 -49.8  34208  290.40 0854.82
2009/04/23 12:23:46.9     198    -65   -102    209    232 108.2 -31.8  34186  290.01 0854.82
2009/04/23 12:23:47.0     199    -35    -70    203    214 100.1 -23.6  34184  289.97 0854.82
2009/04/23 12:23:47.1     179    -36    -51    183    189 101.5 -20.4  34186  290.02 0854.82
2009/04/23 12:23:47.2     167    -11    -74    168    183  93.9 -29.5  34184  289.99 0854.82
2009/04/23 12:23:47.3     126     -5    -35    127    132  92.6 -15.4  34184  289.97 0854.82
2009/04/23 12:23:47.4     121     -5    -39    122    128  92.6 -23.3  34186  290.02 0854.82
2009/04/23 12:23:47.5     143    -22    -79    145    165  98.8 -35.4  34192  290.11 0854.82
2009/04/23 12:23:47.6     167      0    -73    168    183  90.0 -29.0  34190  290.08 0854.82
2009/04/23 12:23:47.7     146      0    -57    147    157  89.6 -26.7  34186  290.01 0854.80
2009/04/23 12:23:47.8     139     28    -63    142    155  78.6 -29.6  34184  289.97 0854.80
2009/04/23 12:23:47.9     125     33    -52    130    140  75.0 -27.4  34184  289.97 0854.80
2009/04/23 12:23:48.0     193     84    -46    211    217  66.3 -12.4  34166  289.67 0854.80
2009/04/23 12:23:48.1     246     77     62    258    266  72.5  13.5  34170  289.73 0854.80
2009/04/23 12:23:48.2     277     93     62    293    300  71.4  12.1  34162  289.61 0854.80
2009/04/23 12:23:48.3     307     87    135    320    347  74.1  24.2  34162  289.60 0854.80
2009/04/23 12:23:48.4     300     92     15    314    315  72.9   2.9  34162  289.61 0854.80
2009/04/23 12:23:48.5     237     74     76    249    261  72.7  17.1  34160  289.56 0854.80
2009/04/23 12:23:48.6     202     60     22    211    213  73.4   6.1  34158  289.53 0854.80
2009/04/23 12:23:48.7     178     12    142    179    228  86.1  42.7  34174  289.82 0854.80
2009/04/23 12:23:48.8     196     30    165    199    258  81.2  43.8  34162  289.59 0854.80
2009/04/23 12:23:48.9     251     13     12    252    253  87.0   2.8  34158  289.53 0854.80
2009/04/23 12:23:49.0     312      4    -50    313    318  89.2  -9.1  34162  289.61 0854.80
2009/04/23 12:23:49.1     220     10    -25    221    223  87.2  -6.5  34170  289.75 0854.80
2009/04/23 12:23:49.2     221     44    -63    226    235  78.5 -15.8  34166  289.69 0854.80
2009/04/23 12:23:49.3     149     74     58    167    177  63.4  19.2  34178  289.89 0854.80
2009/04/23 12:23:49.4      23    115     14    118    119  11.6   6.9  34178  289.87 0854.80
2009/04/23 12:23:49.5     118    101     41    156    162  49.6  15.0  34184  289.99 0854.80
2009/04/23 12:23:49.6     -10    102     87    103    134 354.2  44.3  34184  289.97 0854.80
2009/04/23 12:23:49.7      32    160     95    164    189  11.5  32.7  34190  290.09 0854.80
2009/04/23 12:23:49.8      17    165     76    166    182   6.2  26.4  34194  290.14 0854.80
2009/04/23 12:23:49.9      57    174    122    184    220  18.3  36.7  34192  290.11 0854.80
2009/04/23 12:23:50.0     102    174    124    202    237  30.5  34.4  34186  290.02 0854.80
2009/04/23 12:23:50.1     152    217     91    266    282  35.1  18.9  34190  290.09 0854.80
2009/04/23 12:23:50.2     160    201    118    258    283  38.5  26.4  34190  290.09 0854.80
2009/04/23 12:23:50.3     248    180    130    307    333  54.1  24.2  34202  290.29 0854.80
2009/04/23 12:23:50.4     253    218     97    335    349  49.2  16.3  34210  290.42 0854.80
2009/04/23 12:23:50.5     197    230    112    303    323  40.6  21.1  34234  290.82 0854.80
2009/04/23 12:23:50.6     130    204    120    243    271  32.5  28.0  34214  290.49 0854.80
2009/04/23 12:23:50.7     165    114    140    201    244  55.4  38.5  34198  290.21 0854.80
2009/04/23 12:23:50.8     257    154    200    300    360  59.1  36.9  34216  290.52 0854.80
2009/04/23 12:23:50.9     146    145    144    207    252  45.2  38.0  34210  290.42 0854.80
2009/04/23 12:23:51.0      81    225     99    240    259  19.8  23.6  34214  290.49 0854.80
2009/04/23 12:23:51.1     112     67    177    131    220  58.9  60.0  34216  290.52 0854.80
2009/04/23 12:23:51.2     231    156    168    279    325  55.9  34.0  34210  290.42 0854.80
2009/04/23 12:23:51.3     205    213    167    296    339  43.9  32.0  34190  290.07 0854.80
2009/04/23 12:23:51.4     358    243     96    433    444  55.8  12.5  34180  289.90 0854.80
2009/04/23 12:23:51.5     337    203     97    394    406  59.0  13.9  34208  290.37 0854.80
2009/04/23 12:23:51.6     297    120    178    321    367  68.0  31.4  34216  290.52 0854.80
2009/04/23 12:23:51.7     244    145    183    285    338  59.3  35.6  34206  290.34 0854.80
2009/04/23 12:23:51.8     206    170    105    268    287  50.4  22.5  34186  290.02 0854.80
2009/04/23 12:23:51.9     163    187     73    249    260  41.0  16.4  34176  289.85 0854.80
2009/04/23 12:23:52.0     150    241     -8    284    285  31.9  -1.8  34186  290.02 0854.80
2009/04/23 12:23:52.1     152    275     69    315    323  29.0  12.4  34208  290.39 0854.80
2009/04/23 12:23:52.2     144    276     49    312    316  27.6   9.0  34212  290.44 0854.80
2009/04/23 12:23:52.3     169    204     72    265    275  39.6  15.2  34200  290.26 0854.80
2009/04/23 12:23:52.4     207    174    119    271    295  50.0  25.2  34190  290.07 0854.80
2009/04/23 12:23:52.5     167    177     61    244    252  43.2  14.2  34200  290.24 0854.80
2009/04/23 12:23:52.6     126    152     66    198    209  39.6  18.4  34204  290.31 0854.80
2009/04/23 12:23:52.7     116    178    117    213    243  33.2  31.4  34194  290.15 0854.80
2009/04/23 12:23:52.8      59    197    118    206    237  16.7  32.4  34196  290.18 0854.80
2009/04/23 12:23:52.9      50    215     85    221    236  13.3  22.1  34186  290.02 0854.80
2009/04/23 12:23:53.0      17    177     78    178    194   5.6  25.3  34176  289.85 0854.80
2009/04/23 12:23:53.1     -38    112     28    119    123 341.3  13.2  34196  290.18 0854.80
2009/04/23 12:23:53.2     -69    116     31    135    139 329.3  13.2  34210  290.41 0854.80
2009/04/23 12:23:53.3    -153     85     41    176    181 299.1  13.2  34224  290.67 0854.80
2009/04/23 12:23:53.4     -78     72     15    107    109 312.7   8.0  34222  290.62 0854.80
2009/04/23 12:23:53.5     -34    101     37    107    114 341.3  19.4  34224  290.67 0854.80
2009/04/23 12:23:53.6       6     90     28     91     96   4.4  17.3  34224  290.65 0854.80
2009/04/23 12:23:53.7       9     74     -9     75     76   7.1  -7.2  34224  290.65 0854.78
2009/04/23 12:23:53.8      -4     24    -32     25     40 350.2 -62.9  34222  290.64 0854.78
2009/04/23 12:23:53.9     -25     14    -40     29     49 298.9 -64.9  34216  290.53 0854.78
2009/04/23 12:23:54.0     -16     38    -13     42     45 336.4 -17.6  34214  290.50 0854.78
2009/04/23 12:23:54.1      10     53    -15     55     58  11.5 -15.5  34212  290.47 0854.78
2009/04/23 12:23:54.2      57     22    -21     62     65  68.3 -23.6  34214  290.50 0854.78
2009/04/23 12:23:54.3      91     57     -4    108    109  57.6  -2.2  34212  290.47 0854.78
2009/04/23 12:23:54.4     132    110     23    173    175  50.2   7.8  34240  290.92 0854.78
2009/04/23 12:23:54.5     178     58      6    188    189  71.8   2.1  34266  291.38 0854.78
2009/04/23 12:23:54.6     136    162     49    212    218  39.9  13.2  34298  291.93 0854.78
2009/04/23 12:23:54.7     196     81    166    213    270  67.6  42.0  34290  291.77 0854.78
2009/04/23 12:23:54.8     242     77    105    255    275  72.3  23.8  34274  291.50 0854.78
2009/04/23 12:23:55.0     207    143    142    252    289  55.4  31.9  34250  291.09 0854.78
2009/04/23 12:23:55.0     224    146    159    268    311  56.9  33.5  34210  290.42 0854.78
2009/04/23 12:23:55.1     272    200    207    338    396  53.7  34.4  34240  290.93 0854.78
2009/04/23 12:23:55.2     326     96    130    341    364  73.5  21.7  34318  292.24 0854.78
2009/04/23 12:23:55.3     346    209    108    405    420  58.8  15.0  34308  292.09 0854.78
2009/04/23 12:23:55.4     384    237    172    452    483  58.3  21.8  34268  291.42 0854.78
2009/04/23 12:23:55.5     401    199    175    448    480  63.5  22.5  34282  291.63 0854.78
2009/04/23 12:23:55.6     398    223    211    457    503  60.7  26.6  34254  291.17 0854.78
2009/04/23 12:23:55.7     365    184    197    409    453  63.2  27.3  34300  291.94 0854.79
2009/04/23 12:23:55.8     349    199    153    403    431  60.3  22.0  34266  291.38 0854.79
2009/04/23 12:23:55.9     333    216    155    398    427  57.0  22.4  34218  290.55 0854.79
2009/04/23 12:23:56.0     277    225    153    358    389  50.9  24.6  34186  290.01 0854.79
2009/04/23 12:23:56.1     129    202    130    240    272  32.6  31.0  34194  290.14 0854.79
2009/04/23 12:23:56.2     161    137    147    212    257  49.6  38.4  34200  290.26 0854.79
2009/04/23 12:23:56.3     262    144    147    299    333  61.2  28.1  34204  290.32 0854.79
2009/04/23 12:23:56.4     300    221    143    373    399  53.6  22.0  34204  290.33 0854.79
2009/04/23 12:23:56.5     309    186    150    361    390  59.0  23.9  34198  290.23 0854.79
2009/04/23 12:23:56.6     215    190    156    288    327  48.6  30.8  34198  290.20 0854.79
2009/04/23 12:23:56.7     212    210    135    299    328  45.2  26.0  34182  289.93 0854.79
2009/04/23 12:23:56.8     208    150    119    257    283  54.1  27.0  34178  289.86 0854.79
2009/04/23 12:23:56.9      87    151    117    175    210  30.1  37.0  34182  289.94 0854.79
2009/04/23 12:23:57.0      83    141     36    164    168  30.7  12.4  34184  289.99 0854.79
2009/04/23 12:23:57.1     114    124     38    169    174  42.5  12.9  34182  289.94 0854.79
2009/04/23 12:23:57.2     119    106     29    160    163  48.2  10.6  34172  289.79 0854.79
2009/04/23 12:23:57.3      84    140     22    164    166  31.2   7.8  34170  289.75 0854.79
2009/04/23 12:23:57.4      79    124     49    148    156  32.5  18.4  34178  289.89 0854.79
2009/04/23 12:23:57.5      79    118     43    143    150  33.8  16.8  34180  289.92 0854.79
2009/04/23 12:23:57.6     104    131     -3    168    169  38.3  -1.3  34168  289.72 0854.79
2009/04/23 12:23:57.7     111    118     37    163    168  43.3  12.9  34178  289.87 0854.80
2009/04/23 12:23:57.8     249     35    120    252    279  81.9  27.3  34240  290.93 0854.80
2009/04/23 12:23:57.9     249     15    140    250    286  86.5  31.6  34254  291.17 0854.80
2009/04/23 12:23:58.0     190     45    156    196    250  76.5  42.7  34192  290.10 0854.80
2009/04/23 12:23:58.1     139    118     96    183    206  49.6  29.5  34198  290.23 0854.80
2009/04/23 12:23:58.2     184    115     38    217    221  58.0  10.1  34186  290.01 0854.80
2009/04/23 12:23:58.3     185    118     74    220    233  57.5  18.6  34180  289.92 0854.80
2009/04/23 12:23:58.4     146     94     35    175    179  57.1  11.6  34184  289.99 0854.80
2009/04/23 12:23:58.5     103     70    -38    125    131  55.8 -17.0  34196  290.19 0854.80
2009/04/23 12:23:58.6     117     69    -48    136    145  59.4 -19.7  34194  290.16 0854.80
2009/04/23 12:23:58.7      85     91    -21    125    127  43.2  -9.8  34196  290.18 0854.80
2009/04/23 12:23:58.8      29     88    -40     93    101  18.7 -29.0  34200  290.25 0854.80
2009/04/23 12:23:58.9      68     71    -86     99    131  43.7 -50.2  34200  290.26 0854.80
2009/04/23 12:23:59.0      78     83    -40    115    121  43.2 -23.8  34198  290.21 0854.80
2009/04/23 12:23:59.1      92     79     -8    122    123  49.1  -4.1  34198  290.21 0854.80
2009/04/23 12:23:59.2     150     85    -31    173    176  60.5 -10.3  34194  290.16 0854.80
2009/04/23 12:23:59.3     205     69     89    217    234  71.2  23.8  34208  290.38 0854.80
2009/04/23 12:23:59.4     253     39     32    256    259  81.2   7.2  34238  290.88 0854.80
2009/04/23 12:23:59.5     220     72    108    232    255  71.8  27.0  34212  290.44 0854.80
2009/04/23 12:23:59.6     255     39    -10    259    260  81.2  -2.2  34208  290.39 0854.80
2009/04/23 12:23:59.7     211    109     60    238    246  62.5  14.3  34204  290.31 0854.79
2009/04/23 12:23:59.8     198    133     93    239    256  56.0  22.5  34184  289.97 0854.79
2009/04/23 12:23:59.9     201     91    114    221    248  65.6  29.3  34206  290.34 0854.79
2009/04/23 12:24:00.0     173     92    159    196    252  62.0  43.3  34298  291.90 0854.79
2009/04/23 12:24:00.1     124     67    139    142    198  61.6  49.8  34304  292.03 0854.79
2009/04/23 12:24:00.2     110     89    148    142    205  50.9  50.9  34238  290.91 0854.79
2009/04/23 12:24:00.3      37     67    132     77    152  29.0  66.8  34226  290.69 0854.79
2009/04/23 12:24:00.4     144    116    126    186    224  51.1  37.4  34204  290.33 0854.79
2009/04/23 12:24:00.5     132    129    123    185    222  45.6  36.7  34194  290.16 0854.79
2009/04/23 12:24:00.6     219    118    124    249    278  61.6  28.5  34210  290.41 0854.79
2009/04/23 12:24:00.7     237     98    108    257    278  67.6  24.1  34240  290.92 0854.79
2009/04/23 12:24:00.8     188    113    137    220    259  59.1  35.0  34220  290.58 0854.79
2009/04/23 12:24:00.9     187    148    120    239    267  51.6  28.5  34184  289.97 0854.79
2009/04/23 12:24:01.0     147    161     96    219    239  42.3  25.1  34196  290.19 0854.79
2009/04/23 12:24:01.1     129     92     67    159    172  54.5  24.1  34188  290.06 0854.79
2009/04/23 12:24:01.2      96    124     37    157    162  37.8  13.2  34180  289.92 0854.79
2009/04/23 12:24:01.3      88    100     21    134    136  41.5   9.0  34180  289.92 0854.79
2009/04/23 12:24:01.4     139    120    -15    184    185  49.1  -4.9  34176  289.84 0854.79
2009/04/23 12:24:01.5     151     96     -8    180    181  57.4  -2.8  34176  289.85 0854.79
2009/04/23 12:24:01.6     108    129    106    169    199  40.1  35.2  34260  291.28 0854.79
2009/04/23 12:24:01.7     157     95    106    184    212  58.9  32.9  34276  291.54 0854.80
2009/04/23 12:24:01.8     133     53    106    144    178  68.3  39.9  34264  291.33 0854.80
2009/04/23 12:24:01.9     218     76    115    231    258  70.7  28.2  34228  290.73 0854.80
2009/04/23 12:24:02.0     157    107      9    191    192  55.6   2.8  34220  290.60 0854.80
2009/04/23 12:24:02.1     124     44     87    132    158  70.5  36.5  34242  290.96 0854.80
2009/04/23 12:24:02.2     235     76    193    247    313  72.1  42.1  34272  291.46 0854.80
2009/04/23 12:24:02.3     243      5    174    244    299  88.7  39.3  34244  290.99 0854.80
2009/04/23 12:24:02.4     217     27    168    219    276  82.8  41.6  34226  290.70 0854.80
2009/04/23 12:24:02.5      43     52    131     68    147  39.7  70.8  34266  291.37 0854.80
2009/04/23 12:24:02.6     142    -18    140    144    200  97.5  49.4  34252  291.13 0854.80
2009/04/23 12:24:02.7     117    -12    147    118    188  96.1  56.9  34222  290.64 0854.80
2009/04/23 12:24:02.8      97     61     88    115    144  57.6  41.2  34214  290.48 0854.80
2009/04/23 12:24:02.9     103    103     34    147    151  45.0  13.2  34188  290.04 0854.80
2009/04/23 12:24:03.0     176    112     40    209    213  57.6  11.0  34180  289.92 0854.80
2009/04/23 12:24:03.1     137     96     22    168    170  55.1   7.5  34184  289.97 0854.80
2009/04/23 12:24:03.2     155     54     68    165    178  70.7  23.4  34192  290.13 0854.80
2009/04/23 12:24:03.3      96    152     47    180    187  32.3  14.7  34182  289.96 0854.80
2009/04/23 12:24:03.4      89    107     43    140    147  39.6  17.3  34184  289.97 0854.80
2009/04/23 12:24:03.5     127     56     70    140    156  66.0  28.5  34198  290.21 0854.80
2009/04/23 12:24:03.6      67    -13     56     69     88 101.4  43.7  34214  290.48 0854.80
2009/04/23 12:24:03.7      59      7     51     60     78  83.0  45.4  34214  290.48 0854.81
2009/04/23 12:24:03.8      64     40     92     76    119  57.6  56.4  34230  290.75 0854.81
2009/04/23 12:24:03.9      37     40     96     55    110  43.2  67.7  34256  291.21 0854.81
2009/04/23 12:24:04.0       5     60     55     61     82   5.3  47.5  34242  290.96 0854.81
2009/04/23 12:24:04.1     -14     72     41     74     84 348.4  31.9  34204  290.31 0854.81
2009/04/23 12:24:04.2      36     66     40     76     85  29.0  30.3  34206  290.36 0854.81
2009/04/23 12:24:04.3      45     40    -22     61     64  48.7 -23.3  34216  290.52 0854.81
2009/04/23 12:24:04.4      38      2    -22     39     44  85.6 -36.8  34224  290.67 0854.81
2009/04/23 12:24:04.5      29     -3      9     30     32  96.1  17.3  34222  290.64 0854.81
2009/04/23 12:24:04.6      40     -1     25     41     48  92.6  35.5  34214  290.50 0854.81
2009/04/23 12:24:04.7      58     15     37     61     71  75.0  35.5  34214  290.50 0854.81
2009/04/23 12:24:04.8      50      0     28     51     58  90.0  31.4  34222  290.62 0854.81
2009/04/23 12:24:04.9      14     -2     29     15     32 101.5  70.8  34234  290.84 0854.81
2009/04/23 12:24:05.0       0    -10     14     11     17 182.7  56.4  34232  290.81 0854.81
2009/04/23 12:24:05.1     -18    -11      5     22     23 239.3  13.2  34220  290.60 0854.81
2009/04/23 12:24:05.2     -47      3     -1     48     49 274.3  -2.2  34224  290.65 0854.81
2009/04/23 12:24:05.3     -22     22     -1     32     33 314.9  -2.2  34230  290.77 0854.81
2009/04/23 12:24:05.4     -26     27     -2     38     39 316.6  -3.1  34234  290.84 0854.81
2009/04/23 12:24:05.5     -36     36     -2     52     53 314.9  -2.2  34236  290.87 0854.81
2009/04/23 12:24:05.6     -29     43    -36     53     64 325.7 -42.0  34216  290.53 0854.81
2009/04/23 12:24:05.7     -47     12    -53     49     72 285.1 -56.6  34206  290.36 0854.81
2009/04/23 12:24:05.8     -58      6    -38     59     70 276.1 -40.0  34206  290.35 0854.81
2009/04/23 12:24:05.9     -41     15    -13     44     45 290.8 -21.7  34212  290.47 0854.81
2009/04/23 12:24:06.0     -38     18    -31     43     53 295.3 -44.1  34216  290.53 0854.81
2009/04/23 12:24:06.1     -41      9    -38     43     57 282.4 -51.3  34222  290.62 0854.81
2009/04/23 12:24:06.2     -16     38    -31     42     52 336.4 -45.1  34220  290.58 0854.81
2009/04/23 12:24:06.3      -3     50    -17     51     53 355.6 -23.6  34220  290.58 0854.81
2009/04/23 12:24:06.4     -18     56    -16     59     62 341.7 -15.5  34226  290.70 0854.81
2009/04/23 12:24:06.5      -1     57      6     58     59 358.2   5.9  34226  290.70 0854.81
2009/04/23 12:24:06.6     -32     87     -1     93     94 339.5  -0.7  34228  290.74 0854.81
2009/04/23 12:24:06.7     -57    127    -25    140    143 335.9 -10.3  34228  290.74 0854.81
2009/04/23 12:24:06.9     -91     85    -48    125    133 313.1 -25.9  34226  290.70 0854.81
2009/04/23 12:24:07.0     -95     89    -93    131    160 313.1 -43.5  34178  289.89 0854.81
2009/04/23 12:24:07.1     -92    117    -62    150    162 321.7 -28.0  34194  290.16 0854.81
2009/04/23 12:24:07.2    -103     34   -129    109    168 288.6 -60.2  34190  290.09 0854.81
2009/04/23 12:24:07.3     -75    136    -41    156    162 331.1 -14.7  34190  290.09 0854.81
2009/04/23 12:24:07.4     -48    121     17    131    133 338.2   7.5  34202  290.28 0854.81
2009/04/23 12:24:07.5     -61    187     45    197    203 341.7  12.9  34234  290.82 0854.81
2009/04/23 12:24:07.6     -87    178     36    199    203 333.9  10.3  34240  290.92 0854.81
2009/04/23 12:24:07.7     -42    168     31    174    177 345.7  10.1  34234  290.82 0854.81
2009/04/23 12:24:07.8     -43    214    -28    219    221 348.5  -7.3  34226  290.69 0854.81
2009/04/23 12:24:07.9     -14    213    -31    214    217 356.0  -8.2  34218  290.55 0854.81
2009/04/23 12:24:08.0     -61    183    -39    194    198 341.5 -11.5  34232  290.79 0854.81
2009/04/23 12:24:08.1       0    204    -29    205    208 359.8  -8.2  34218  290.57 0854.81
2009/04/23 12:24:08.2      26    182    -20    184    186   8.2  -6.5  34224  290.67 0854.81
2009/04/23 12:24:08.3      60    155     -3    167    168  21.2  -1.3  34214  290.48 0854.81
2009/04/23 12:24:08.4     104    118     44    158    165  41.5  15.6  34218  290.55 0854.81
2009/04/23 12:24:08.5      55     47    105     73    127  49.6  62.1  34258  291.25 0854.81
2009/04/23 12:24:08.6      28     33     75     44     86  40.5  66.8  34254  291.18 0854.81
2009/04/23 12:24:08.7       9     28     81     30     86  18.7  79.7  34260  291.26 0854.81
2009/04/23 12:24:08.8       5     92    121     93    152   3.1  58.5  34276  291.54 0854.80
2009/04/23 12:24:08.9       9     27     72     29     77  18.3  77.1  34260  291.28 0854.80
2009/04/23 12:24:09.0      36     57     69     68     96  32.5  49.7  34234  290.84 0854.80
2009/04/23 12:24:09.1      33     61     67     70     96  29.0  49.4  34232  290.81 0854.80
2009/04/23 12:24:09.2      25     39     75     47     88  32.5  64.7  34234  290.82 0854.80
2009/04/23 12:24:09.3      -2     48     78     49     92 357.3  64.7  34240  290.94 0854.80
2009/04/23 12:24:09.4     -15     76     79     78    111 348.5  50.1  34258  291.25 0854.80
2009/04/23 12:24:09.5     -33     90     72     97    120 339.5  40.1  34264  291.33 0854.80
2009/04/23 12:24:09.6     -54     76     63     94    113 324.8  36.5  34256  291.20 0854.80
2009/04/23 12:24:09.7     -62     93     68    113    131 326.2  34.0  34246  291.03 0854.80
2009/04/23 12:24:09.8     -53     71     78     89    118 323.0  45.8  34236  290.87 0854.80
2009/04/23 12:24:09.9     -80     24     82     84    117 287.3  49.9  34238  290.91 0854.80
2009/04/23 12:24:10.0     -74     39     56     84    100 298.0  37.0  34234  290.84 0854.80
2009/04/23 12:24:10.1     -58     36     64     69     94 302.4  48.5  34242  290.96 0854.80
2009/04/23 12:24:10.2     -57     47    -15     75     77 309.5 -11.3  34234  290.84 0854.80
2009/04/23 12:24:10.3     -37     48    -20     61     65 322.2 -18.7  34230  290.75 0854.80
2009/04/23 12:24:10.4     -31     31    -25     44     50 315.0 -36.8  34234  290.82 0854.80
2009/04/23 12:24:10.5     -38     -2    -45     39     59 265.6 -58.7  34232  290.81 0854.80
2009/04/23 12:24:10.6     -30     29    -12     42     44 314.0 -16.6  34234  290.82 0854.80
2009/04/23 12:24:10.7     -38     53      0     66     67 324.8   0.8  34232  290.79 0854.80
2009/04/23 12:24:10.8     -33     47    -11     58     60 324.8 -11.5  34234  290.82 0854.81
2009/04/23 12:24:10.9     -32     39     -2     51     52 320.4  -2.2  34232  290.81 0854.81
2009/04/23 12:24:11.0     -31     31     10     45     47 315.0  13.2  34230  290.75 0854.81
2009/04/23 12:24:11.1     -10     18    -10     21     23 331.0 -29.5  34232  290.79 0854.81
2009/04/23 12:24:11.2     -17     17     16     25     29 314.9  35.5  34228  290.72 0854.81
2009/04/23 12:24:11.3     -10     -2     29     11     31 254.9  79.2  34228  290.72 0854.81
2009/04/23 12:24:11.4      68    -64     17     94     96 133.6  10.6  34210  290.43 0854.81
2009/04/23 12:24:11.5      75   -103     -5    128    129 143.9  -2.6  34206  290.36 0854.81
2009/04/23 12:24:11.6      56    -87    -30    104    109 147.4 -16.0  34212  290.45 0854.81
2009/04/23 12:24:11.7      46    -89      0    101    102 152.4  -0.3  34210  290.43 0854.81
2009/04/23 12:24:11.8      15    -57     15     60     62 164.9  14.3  34212  290.45 0854.81
2009/04/23 12:24:11.9     -10    -82     28     83     88 187.6  18.9  34208  290.40 0854.81
2009/04/23 12:24:12.0     -22    -84     41     87     96 194.7  27.2  34206  290.35 0854.81
2009/04/23 12:24:12.1      14    -99     23    101    104 172.0  13.2  34202  290.30 0854.81
2009/04/23 12:24:12.2      17    -94     26     96    100 169.8  15.3  34202  290.28 0854.81
2009/04/23 12:24:12.3      51    -93     -4    107    108 151.1  -2.2  34196  290.18 0854.81
2009/04/23 12:24:12.4      22    -86     12     89     90 165.3   8.0  34190  290.09 0854.81
2009/04/23 12:24:12.5      -6    -84     10     85     86 184.4   6.9  34204  290.33 0854.81
2009/04/23 12:24:12.6      -8   -104    -14    105    106 184.5  -7.7  34212  290.45 0854.81
2009/04/23 12:24:12.7      -6   -128    -27    129    132 182.7 -11.9  34212  290.45 0854.81
2009/04/23 12:24:12.8      16   -135    -39    137    143 172.9 -16.0  34204  290.31 0854.81
2009/04/23 12:24:12.9      35   -112    -19    118    120 162.6  -9.3  34204  290.31 0854.81
2009/04/23 12:24:13.0      15   -101      1    103    104 171.5   0.8  34210  290.43 0854.81
2009/04/23 12:24:13.1     -59   -147     -6    159    160 201.9  -2.2  34214  290.50 0854.81
2009/04/23 12:24:13.2     -80   -142     29    164    167 209.4  10.3  34200  290.26 0854.81
2009/04/23 12:24:13.3     -55   -145      6    156    157 200.9   2.5  34200  290.25 0854.81
2009/04/23 12:24:13.4     -27   -134     -5    137    138 191.5  -2.2  34200  290.26 0854.81
2009/04/23 12:24:13.5     -19   -141    -26    143    146 188.0 -10.3  34202  290.30 0854.81
2009/04/23 12:24:13.6     -53   -130      4    141    142 202.3   1.8  34198  290.21 0854.81
2009/04/23 12:24:13.7     -30   -128     20    132    134 193.4   9.0  34200  290.26 0854.81
2009/04/23 12:24:13.8      15   -154     18    155    157 174.2   6.7  34198  290.21 0854.81
2009/04/23 12:24:13.9     -17   -158     34    159    163 186.2  12.2  34194  290.16 0854.81
2009/04/23 12:24:14.0      11   -149     46    150    158 175.5  17.3  34188  290.06 0854.81
2009/04/23 12:24:14.1      26   -142     28    145    148 169.3  11.1  34188  290.04 0854.81
2009/04/23 12:24:14.2      30   -176     29    179    182 170.2   9.5  34182  289.94 0854.81
2009/04/23 12:24:14.3      24   -200     -4    202    203 172.9  -1.2  34174  289.82 0854.81
2009/04/23 12:24:14.4      23   -179     35    181    185 172.7  11.1  34174  289.80 0854.81
2009/04/23 12:24:14.5      37   -160     27    165    168 166.9   9.5  34180  289.91 0854.81
2009/04/23 12:24:14.6      60   -140     13    153    154 156.8   4.9  34184  289.97 0854.81
2009/04/23 12:24:14.7      54   -117     40    130    137 155.1  17.3  34180  289.91 0854.81
2009/04/23 12:24:14.8      26   -127     54    130    140 168.4  23.6  34176  289.84 0854.81
2009/04/23 12:24:14.9      24   -109     52    112    123 167.5  26.6  34174  289.80 0854.81
2009/04/23 12:24:15.0      45    -88     44    100    109 152.8  25.7  34178  289.89 0854.81
2009/04/23 12:24:15.1      58    -94     39    111    118 148.4  19.4  34174  289.82 0854.81
2009/04/23 12:24:15.2      66   -107     77    126    147 148.4  35.0  34174  289.80 0854.81
2009/04/23 12:24:15.3      56   -114     98    128    161 153.7  41.4  34176  289.85 0854.81
2009/04/23 12:24:15.4      56   -146    140    157    210 159.1  46.2  34172  289.77 0854.81
2009/04/23 12:24:15.5      93   -162     51    188    195 150.1  15.3  34178  289.87 0854.81
2009/04/23 12:24:15.6      86   -137     44    162    168 147.9  15.3  34178  289.87 0854.81
2009/04/23 12:24:15.7      89   -139     31    166    169 147.5  10.6  34176  289.84 0854.81
2009/04/23 12:24:15.8      93   -144     20    172    174 147.0   6.7  34178  289.89 0854.81
2009/04/23 12:24:15.9     100   -152      5    183    184 146.6   1.8  34176  289.85 0854.81
2009/04/23 12:24:16.0     103   -168    -10    198    199 148.4  -3.1  34178  289.87 0854.81
2009/04/23 12:24:16.1      95   -171     17    196    197 151.0   5.0  34172  289.79 0854.81
2009/04/23 12:24:16.2      95   -156     44    183    189 148.6  13.7  34174  289.82 0854.81
2009/04/23 12:24:16.3     109   -156     -2    191    192 145.0  -0.7  34178  289.87 0854.81
2009/04/23 12:24:16.4     124   -183     14    222    223 145.9   3.8  34172  289.77 0854.81
2009/04/23 12:24:16.5      93   -197     34    219    222 154.6   9.0  34168  289.72 0854.81
2009/04/23 12:24:16.6      84   -173     28    193    196 153.9   8.2  34168  289.70 0854.81
2009/04/23 12:24:16.7      89   -217     28    235    237 157.7   6.9  34164  289.64 0854.81
2009/04/23 12:24:16.8      58   -204     14    213    214 164.0   3.8  34164  289.63 0854.82
2009/04/23 12:24:16.9      21   -169     59    171    182 172.9  19.2  34170  289.74 0854.82
2009/04/23 12:24:17.0      23   -203     92    205    224 173.3  25.7  34164  289.65 0854.82
2009/04/23 12:24:17.1      22   -207    102    209    232 173.7  27.4  34162  289.62 0854.82
2009/04/23 12:24:17.2      64   -222     87    232    247 164.0  21.5  34162  289.59 0854.82
2009/04/23 12:24:17.3      48   -209    108    215    240 166.9  28.5  34160  289.56 0854.82
2009/04/23 12:24:17.4      92   -211     96    231    250 156.3  24.1  34160  289.58 0854.82
2009/04/23 12:24:17.5     114   -176     85    210    226 147.0  23.1  34160  289.57 0854.82
2009/04/23 12:24:17.6      79   -176    117    194    226 155.7  34.0  34162  289.62 0854.82
2009/04/23 12:24:17.7     125   -172     92    213    232 143.9  24.9  34158  289.53 0854.82
2009/04/23 12:24:17.8      99   -208     45    231    236 154.4  11.1  34162  289.59 0854.82
2009/04/23 12:24:17.9      90   -205    110    225    250 156.3  27.8  34160  289.56 0854.82
2009/04/23 12:24:18.0      83   -223    162    239    288 159.5  37.4  34168  289.70 0854.82
2009/04/23 12:24:18.1      25   -202     37    204    208 172.7  10.3  34162  289.60 0854.82
2009/04/23 12:24:18.2     -33   -192     32    195    198 189.8   9.3  34166  289.67 0854.82
2009/04/23 12:24:18.3     -79   -200      3    216    217 201.6   0.8  34168  289.70 0854.82
2009/04/23 12:24:18.4     -51   -175     57    183    192 196.3  17.3  34164  289.65 0854.82
2009/04/23 12:24:18.5     -16   -147     43    148    155 186.2  16.3  34168  289.72 0854.82
2009/04/23 12:24:18.6     -25   -135     15    138    139 190.7   6.5  34166  289.69 0854.82
2009/04/23 12:24:18.7     -12   -143     16    144    145 184.9   6.5  34166  289.69 0854.82
2009/04/23 12:24:18.8     -58   -158     61    169    179 200.3  20.4  34170  289.74 0854.82
2009/04/23 12:24:18.9       0   -167     87    168    189 180.2  29.5  34170  289.74 0854.82
2009/04/23 12:24:19.0     -27   -161    118    164    202 189.6  39.3  34168  289.70 0854.82
2009/04/23 12:24:19.1     -46   -180    133    186    228 194.5  39.3  34174  289.80 0854.82
2009/04/23 12:24:19.2     -60   -196    105    206    231 197.0  29.1  34168  289.72 0854.82
2009/04/23 12:24:19.3     -67   -199    104    211    235 198.7  28.2  34172  289.77 0854.82
2009/04/23 12:24:19.4     -54   -173    109    182    212 197.6  34.0  34170  289.74 0854.82
2009/04/23 12:24:19.5     -31   -181     97    184    208 190.0  29.8  34170  289.75 0854.82
2009/04/23 12:24:19.6     -76   -198     67    213    224 201.2  17.4  34168  289.70 0854.82
2009/04/23 12:24:19.7    -105   -185    118    213    243 209.6  31.4  34166  289.68 0854.82
2009/04/23 12:24:19.8     -31   -112    133    117    177 195.6  54.0  34166  289.69 0854.82
2009/04/23 12:24:19.9      40    -10    100     42    108 104.2  76.1  34178  289.89 0854.82
2009/04/23 12:24:20.0      65    -52    113     84    140 128.6  60.0  34174  289.82 0854.82
2009/04/23 12:24:20.1      44   -138     83    145    167 162.2  32.7  34170  289.75 0854.82
2009/04/23 12:24:20.2      35    -83     86     91    125 156.8  49.0  34174  289.82 0854.82
2009/04/23 12:24:20.3      50    -82     94     97    135 148.4  49.9  34172  289.77 0854.82
2009/04/23 12:24:20.4      25    -80     92     84    124 162.6  52.7  34164  289.65 0854.82
2009/04/23 12:24:20.5      -2    -94     92     95    132 181.8  49.4  34162  289.62 0854.82
2009/04/23 12:24:20.6      -1    -94    101     95    138 180.9  52.1  34162  289.60 0854.82
2009/04/23 12:24:20.7      10    -31     85     33     91 161.3  78.2  34166  289.67 0854.82
2009/04/23 12:24:20.8      -1    -67     72     68     99 181.0  51.6  34160  289.58 0854.81
2009/04/23 12:24:20.9       8    -20     65     22     68 158.2  81.0  34164  289.65 0854.81
2009/04/23 12:24:21.0     -73   -124     58    145    156 210.7  23.0  34162  289.60 0854.81
2009/04/23 12:24:21.1     -27   -136     74    139    157 191.5  30.1  34166  289.69 0854.81
2009/04/23 12:24:21.2     -36   -131     90    137    163 195.6  36.3  34164  289.63 0854.81
2009/04/23 12:24:21.3     -63   -116     86    133    158 208.5  36.0  34164  289.63 0854.81
2009/04/23 12:24:21.4     -35    -81     90     89    126 203.6  50.1  34162  289.60 0854.81
2009/04/23 12:24:21.5      -2    -74     92     75    118 181.8  56.4  34164  289.65 0854.81
2009/04/23 12:24:21.6      -3    -57     78     58     97 183.6  59.4  34164  289.63 0854.81
2009/04/23 12:24:21.7      -4    -42     66     43     78 186.2  64.6  34166  289.67 0854.81
2009/04/23 12:24:21.8       6    -30     70     31     76 168.4  75.0  34164  289.63 0854.81
2009/04/23 12:24:21.9      21    -15     56     27     62 126.0  72.9  34166  289.69 0854.81
2009/04/23 12:24:22.0     -25    -78     84     82    117 197.8  50.2  34162  289.60 0854.81
2009/04/23 12:24:22.1     -33    -93    100     99    140 200.0  50.1  34160  289.58 0854.81
2009/04/23 12:24:22.2     -31    -92    103     98    142 198.7  51.6  34162  289.60 0854.81
2009/04/23 12:24:22.3     -64    -67     94     93    132 223.7  50.1  34160  289.57 0854.81
2009/04/23 12:24:22.4     -71    -86    115    112    160 219.6  50.7  34158  289.53 0854.81
2009/04/23 12:24:22.5     -94   -107     95    143    171 221.4  36.7  34156  289.50 0854.81
2009/04/23 12:24:22.6     -97   -116    103    152    183 219.7  37.3  34156  289.52 0854.81
2009/04/23 12:24:22.7    -102    -98    112    142    180 226.0  42.4  34158  289.55 0854.81
2009/04/23 12:24:22.8     -94    -90    105    131    167 226.4  43.0  34158  289.55 0854.82
2009/04/23 12:24:22.9     -92    -91    108    130    169 225.1  43.8  34156  289.52 0854.82
2009/04/23 12:24:23.0     -86    -86    109    123    164 225.0  46.4  34158  289.55 0854.82
2009/04/23 12:24:23.1     -91    -74     76    118    140 230.9  35.6  34162  289.62 0854.82
2009/04/23 12:24:23.2    -107    -89     77    140    159 230.4  31.0  34160  289.58 0854.82
2009/04/23 12:24:23.3     -69    -81    112    107    154 220.5  51.2  34162  289.60 0854.82
2009/04/23 12:24:23.4     -47    -45     97     66    117 225.9  63.2  34168  289.70 0854.82
2009/04/23 12:24:23.5     -42    -66     99     79    126 212.6  57.5  34168  289.72 0854.82
2009/04/23 12:24:23.6     -87    -93     90    128    156 223.3  38.6  34166  289.67 0854.82
2009/04/23 12:24:23.7     -60    -97    107    115    157 211.6  47.9  34170  289.74 0854.82
2009/04/23 12:24:23.8     -28    -87    101     92    136 198.3  52.7  34172  289.79 0854.82
2009/04/23 12:24:23.9     -31    -82    104     88    136 200.9  55.8  34172  289.79 0854.82
2009/04/23 12:24:24.0     -32    -28     79     43     89 228.7  69.3  34172  289.79 0854.82
2009/04/23 12:24:24.1      16      0     31     17     35  90.0  66.8  34178  289.87 0854.82
2009/04/23 12:24:24.2      51    -51     50     73     88 135.0  37.6  34180  289.92 0854.82
2009/04/23 12:24:24.3      17    -89     97     91    133 168.9  51.6  34174  289.82 0854.82
2009/04/23 12:24:24.4      20    -88     57     91    107 167.1  35.5  34170  289.75 0854.82
2009/04/23 12:24:24.5       7    -85     43     86     96 174.7  28.2  34166  289.69 0854.82
2009/04/23 12:24:24.6     -16    -91     51     93    106 190.2  31.4  34160  289.58 0854.82
2009/04/23 12:24:24.7     -40    -84     25     94     98 205.4  15.3  34158  289.55 0854.82
2009/04/23 12:24:24.8     -37    -72     31     82     87 207.2  21.0  34162  289.62 0854.81
2009/04/23 12:24:24.9     -43    -68     38     81     89 212.6  27.1  34164  289.63 0854.81
2009/04/23 12:24:25.0     -49    -60     33     78     84 219.7  23.6  34164  289.65 0854.81
2009/04/23 12:24:25.1     -44    -61     21     76     80 216.1  15.8  34162  289.62 0854.81
2009/04/23 12:24:25.2     -39    -69     27     80     85 209.9  18.9  34162  289.62 0854.81
2009/04/23 12:24:25.3     -42    -67     22     80     84 212.5  15.8  34162  289.62 0854.81
2009/04/23 12:24:25.4     -28    -64     24     70     75 203.6  19.4  34160  289.58 0854.81
2009/04/23 12:24:25.5     -34    -52     17     63     66 213.4  15.2  34162  289.62 0854.81
2009/04/23 12:24:25.6     -32    -39     29     51     58 219.6  33.5  34164  289.65 0854.81
2009/04/23 12:24:25.7     -24    -35     42     43     60 214.3  50.0  34164  289.63 0854.81
2009/04/23 12:24:25.8     -39    -60     63     72     95 213.4  45.8  34172  289.77 0854.82
2009/04/23 12:24:25.9     -42    -46     67     63     91 222.3  51.6  34176  289.85 0854.82
2009/04/23 12:24:26.0     -42    -55     54     70     88 217.8  42.2  34168  289.72 0854.82
2009/04/23 12:24:26.1     -38    -52     44     65     78 216.0  36.5  34172  289.77 0854.82
2009/04/23 12:24:26.2     -41    -42     49     59     76 224.1  43.8  34168  289.72 0854.82
2009/04/23 12:24:26.3     -40    -59     35     72     80 214.3  27.8  34168  289.72 0854.82
2009/04/23 12:24:26.4     -34    -59     26     69     73 209.9  20.0  34166  289.67 0854.82
2009/04/23 12:24:26.5     -48    -25     36     55     65 242.9  35.6  34172  289.77 0854.82
2009/04/23 12:24:26.6     -60     -7     36     61     70 263.0  33.5  34178  289.89 0854.82
2009/04/23 12:24:26.7     -67     20     35     70     78 286.8  27.3  34198  290.21 0854.82
2009/04/23 12:24:26.8     -77      9     32     78     84 277.0  23.0  34188  290.06 0854.82
2009/04/23 12:24:26.9     -61     33     54     70     88 298.9  42.2  34210  290.43 0854.82
2009/04/23 12:24:27.0     -60     38     36     72     80 302.5  28.7  34206  290.36 0854.82
2009/04/23 12:24:27.1     -55     26     53     61     80 295.3  45.8  34198  290.21 0854.82
2009/04/23 12:24:27.2     -60     44     50     75     90 306.0  36.5  34188  290.04 0854.82
2009/04/23 12:24:27.3     -84     21     65     87    108 284.2  40.7  34188  290.06 0854.82
2009/04/23 12:24:27.4    -119     37     24    125    128 287.3  11.1  34200  290.25 0854.82
2009/04/23 12:24:27.5     -75     44     53     88    102 300.7  34.0  34178  289.87 0854.82
2009/04/23 12:24:27.6     -80     39     68     90    112 296.2  41.2  34212  290.47 0854.82
2009/04/23 12:24:27.7     -86     39     83     95    126 294.8  45.8  34270  291.45 0854.82
2009/04/23 12:24:27.8    -118     23     49    121    130 281.4  23.1  34200  290.25 0854.83
2009/04/23 12:24:27.9    -122     49     90    132    159 291.8  37.8  34232  290.79 0854.83
2009/04/23 12:24:28.0    -103     95     66    141    155 312.7  27.1  34316  292.23 0854.83
2009/04/23 12:24:28.1    -132     57     41    145    151 293.5  15.8  34222  290.64 0854.83
2009/04/23 12:24:28.2    -123     13      6    124    125 276.1   2.9  34186  290.01 0854.83
2009/04/23 12:24:28.3    -129     -8     20    130    132 266.1   9.0  34190  290.09 0854.83
2009/04/23 12:24:28.4    -153    -27      4    156    157 259.9   1.8  34194  290.14 0854.83
2009/04/23 12:24:28.5     -84      0     44     85     95 270.4  29.3  34202  290.28 0854.83
2009/04/23 12:24:28.6     -67      5     43     68     80 274.4  35.5  34204  290.31 0854.83
2009/04/23 12:24:28.7    -104     22     36    107    114 282.4  18.9  34200  290.26 0854.83
2009/04/23 12:24:28.8    -101     86     13    133    134 310.4   5.9  34216  290.53 0854.83
2009/04/23 12:24:28.9     -87     79     -2    118    119 312.2  -1.3  34216  290.53 0854.83
2009/04/23 12:24:29.0     -82     38     18     91     93 295.2  11.6  34202  290.30 0854.83
2009/04/23 12:24:29.1     -58     11     48     60     76 281.4  43.7  34214  290.48 0854.83
2009/04/23 12:24:29.2     -68     65     17     95     97 313.6  10.6  34206  290.36 0854.83
2009/04/23 12:24:29.3    -112     81      0    139    140 306.0  -0.3  34214  290.48 0854.83
2009/04/23 12:24:29.4     -94     76    -21    122    124 309.1  -9.8  34222  290.62 0854.83
2009/04/23 12:24:29.5     -94     31    -18    100    102 288.6 -10.3  34230  290.75 0854.83
2009/04/23 12:24:29.6    -100     12    -23    101    104 277.0 -12.9  34230  290.75 0854.83
2009/04/23 12:24:29.7     -45    -29      2     54     55 236.7   2.8  34228  290.74 0854.83
2009/04/23 12:24:29.8      10    -13     31     17     35 143.9  66.8  34226  290.70 0854.83
2009/04/23 12:24:29.9      37    -18     42     42     59 115.4  50.1  34216  290.53 0854.83
2009/04/23 12:24:30.0      78     -6     49     79     92  94.4  35.5  34204  290.31 0854.83
2009/04/23 12:24:30.1      57      4     60     58     83  85.7  50.1  34230  290.75 0854.83
2009/04/23 12:24:30.2      23    -30     64     39     74 142.2  64.7  34200  290.26 0854.83
2009/04/23 12:24:30.3      36    -41     55     55     77 138.6  50.1  34192  290.11 0854.83
2009/04/23 12:24:30.4      87    -34     75     94    120 111.7  42.7  34182  289.94 0854.83
2009/04/23 12:24:30.5     100      6    107    101    147  86.1  52.1  34194  290.14 0854.83
2009/04/23 12:24:30.6      80    -11     92     81    122  97.9  54.2  34232  290.79 0854.83
2009/04/23 12:24:30.7      15      0     72     16     73  90.0  88.0  34256  291.20 0854.83
2009/04/23 12:24:30.8     -15      2     42     16     44 277.9  79.2  34244  291.01 0854.83
2009/04/23 12:24:30.9      29      8     50     31     58  74.9  64.7  34212  290.47 0854.83
2009/04/23 12:24:31.1      22    -22     46     32     56 135.0  62.6  34210  290.41 0854.83
2009/04/23 12:24:31.1      16    -16     57     24     61 135.0  77.0  34186  290.02 0854.83
2009/04/23 12:24:31.2       8    -14     63     17     65 151.0  84.9  34188  290.06 0854.83
2009/04/23 12:24:31.3      17      5     48     18     51  71.8  79.2  34192  290.13 0854.83
2009/04/23 12:24:31.4       3    -45     58     46     74 175.6  56.4  34184  289.97 0854.83
2009/04/23 12:24:31.6      -5    -48     34     49     59 186.2  38.6  34176  289.84 0854.83
2009/04/23 12:24:31.6       0    -42     42     43     60 180.0  50.0  34176  289.84 0854.83
2009/04/23 12:24:31.7       0    -46     40     47     61 180.0  44.8  34174  289.82 0854.83
2009/04/23 12:24:31.8      17    -53     40     56     68 161.3  39.5  34184  289.97 0854.84
2009/04/23 12:24:31.9       8    -63     56     64     85 172.0  45.8  34180  289.91 0854.84
2009/04/23 12:24:32.0      20    -66     53     70     87 163.1  41.2  34176  289.85 0854.84
2009/04/23 12:24:32.1      -6    -58     33     59     67 186.2  31.4  34174  289.80 0854.84
2009/04/23 12:24:32.2     -12    -38     47     41     62 198.5  53.3  34180  289.92 0854.84
2009/04/23 12:24:32.3       8    -63     70     64     94 172.0  52.7  34180  289.91 0854.84
2009/04/23 12:24:32.4      -1    -82     93     83    124 180.9  53.7  34180  289.92 0854.84
2009/04/23 12:24:32.5       5    -72     65     73     97 175.5  46.9  34176  289.84 0854.84
2009/04/23 12:24:32.6     -24    -92     69     96    118 195.1  39.7  34170  289.74 0854.84
2009/04/23 12:24:32.7     -30    -54     52     62     80 209.0  44.8  34170  289.74 0854.84
2009/04/23 12:24:32.8      -9    -67     49     68     83 188.1  39.7  34168  289.70 0854.84
2009/04/23 12:24:32.9      -3    -56     57     57     80 183.6  50.1  34170  289.74 0854.84
2009/04/23 12:24:33.0      -9    -68     50     69     85 188.0  39.1  34168  289.72 0854.84
2009/04/23 12:24:33.1     -26    -87     52     91    104 196.9  32.4  34182  289.96 0854.84
2009/04/23 12:24:33.2     -64    -64     52     91    104 224.7  32.4  34192  290.13 0854.84
2009/04/23 12:24:33.3     -72    -58     31     93     99 231.4  18.4  34190  290.09 0854.84
2009/04/23 12:24:33.5     -68    -75     24    102    105 222.3  13.2  34188  290.04 0854.84
2009/04/23 12:24:33.5     -68   -104     37    125    131 213.4  16.8  34180  289.92 0854.84
2009/04/23 12:24:33.6     -61   -103     26    120    123 210.7  12.6  34176  289.85 0854.84
2009/04/23 12:24:33.7     -82   -114     12    141    142 216.0   4.9  34174  289.80 0854.84
2009/04/23 12:24:33.8     -66   -113     13    132    133 210.3   5.9  34172  289.77 0854.84
2009/04/23 12:24:33.9     -74    -96     42    122    130 217.8  19.2  34178  289.87 0854.84
2009/04/23 12:24:34.0     -78   -101     30    128    132 217.9  13.2  34176  289.84 0854.84
2009/04/23 12:24:34.1     -72   -102     53    125    135 215.2  24.6  34178  289.87 0854.84
2009/04/23 12:24:34.2     -72    -99     65    123    139 216.1  30.3  34178  289.89 0854.84
2009/04/23 12:24:34.3     -72    -81     40    109    116 221.9  20.4  34172  289.77 0854.84
2009/04/23 12:24:34.4     -77    -93     38    122    128 219.6  17.3  34168  289.72 0854.84
2009/04/23 12:24:34.5     -74    -89     32    116    121 219.7  15.8  34172  289.79 0854.84
2009/04/23 12:24:34.7     -57    -50     22     77     81 228.7  15.8  34196  290.19 0854.84
2009/04/23 12:24:34.8     -37    -78     56     87    103 205.4  35.6  34240  290.92 0854.84
2009/04/23 12:24:34.9     -71    -50     80     87    118 234.9  47.9  34236  290.86 0854.84
2009/04/23 12:24:35.0       2    -36     94     37    101 175.6  77.1  34226  290.70 0854.84
2009/04/23 12:24:35.1      23      0     68     24     72  90.0  81.2  34204  290.33 0854.84
2009/04/23 12:24:35.2       0     -5     48      6     48 182.7  90.0  34188  290.06 0854.84
2009/04/23 12:24:35.3     -15    -31     62     35     71 207.2  68.8  34186  290.01 0854.84
2009/04/23 12:24:35.4     -27    -39     41     48     63 215.2  44.8  34200  290.26 0854.84
2009/04/23 12:24:35.5     -41    -42     29     59     65 224.1  28.2  34200  290.25 0854.84
2009/04/23 12:24:35.6     -27    -28     34     40     52 224.1  44.8  34196  290.18 0854.84
2009/04/23 12:24:35.7     -29    -45     65     54     84 212.6  56.4  34192  290.11 0854.84
2009/04/23 12:24:35.8     -86    -86     53    122    133 225.0  25.1  34190  290.09 0854.84
2009/04/23 12:24:35.9     -96   -109     63    146    159 221.5  24.6  34188  290.06 0854.84
2009/04/23 12:24:36.0     -68   -109     71    129    147 212.1  31.3  34198  290.23 0854.84
2009/04/23 12:24:36.1     -78    -83     40    115    122 223.3  19.4  34216  290.53 0854.84
2009/04/23 12:24:36.2     -35    -68     88     77    116 207.2  54.3  34206  290.35 0854.84
2009/04/23 12:24:36.3     -17    -82     71     84    109 192.0  43.8  34222  290.64 0854.84
2009/04/23 12:24:36.4     -59    -97     80    114    139 211.2  39.1  34224  290.65 0854.84
2009/04/23 12:24:36.5     -76   -128     74    149    166 210.8  28.0  34210  290.43 0854.84
2009/04/23 12:24:36.6     -29    -99     59    104    119 196.5  31.9  34200  290.26 0854.84
2009/04/23 12:24:36.7      -7    -91     59     92    109 184.5  35.6  34208  290.38 0854.84
2009/04/23 12:24:36.8     -15    -99     52    101    113 188.9  28.7  34220  290.58 0854.84
2009/04/23 12:24:36.9     -24   -140     97    143    172 189.7  37.3  34204  290.33 0854.84
2009/04/23 12:24:37.0     -13   -140     95    141    170 185.3  37.3  34210  290.43 0854.84
2009/04/23 12:24:37.1      18    -73    103     76    128 165.7  60.0  34200  290.25 0854.84
2009/04/23 12:24:37.2      23    -37     81     44     92 147.5  69.3  34216  290.53 0854.84
2009/04/23 12:24:37.3      26    -56     81     62    102 154.6  59.0  34194  290.16 0854.84
2009/04/23 12:24:37.4       9    -83     72     84    110 173.3  44.8  34188  290.06 0854.84
2009/04/23 12:24:37.5      35     -2     69     36     77  94.4  70.8  34208  290.38 0854.84
2009/04/23 12:24:37.6      63      0     85     64    106  89.1  59.4  34230  290.77 0854.84
2009/04/23 12:24:37.7      64      9     67     65     93  82.0  50.1  34294  291.86 0854.84
2009/04/23 12:24:37.8      60    -20     65     64     91 109.1  50.1  34298  291.91 0854.84
2009/04/23 12:24:37.9     105      1     42    106    114  89.2  22.5  34338  292.61 0854.83
2009/04/23 12:24:38.0      62      4     68     63     92  85.6  52.2  34292  291.83 0854.83
2009/04/23 12:24:38.1      94    -13     97     95    135  97.9  50.1  34248  291.08 0854.83
2009/04/23 12:24:38.2     123      0     88    124    152  89.6  39.5  34326  292.40 0854.83
2009/04/23 12:24:38.3     150     56     56    161    171  69.6  19.4  34318  292.25 0854.83
2009/04/23 12:24:38.4     160     63     66    173    185  68.5  21.5  34296  291.89 0854.83
2009/04/23 12:24:38.5     120    108     76    162    178  47.8  27.1  34284  291.67 0854.83
2009/04/23 12:24:38.6      63     17     62     66     90  74.9  48.5  34286  291.72 0854.83
2009/04/23 12:24:38.7     112     -1    115    113    161  90.8  50.4  34272  291.47 0854.83
2009/04/23 12:24:38.8      57    -30     80     65    103 118.0  56.4  34264  291.35 0854.83
2009/04/23 12:24:38.9     147      2    139    148    203  89.1  48.2  34304  292.01 0854.83
2009/04/23 12:24:39.0     172     88    175    194    261  62.7  46.9  34314  292.19 0854.83
2009/04/23 12:24:39.1     163    121    124    204    238  53.4  34.2  34312  292.15 0854.83
2009/04/23 12:24:39.2      26    122     78    125    147  12.0  35.5  34286  291.71 0854.83
2009/04/23 12:24:39.3      10    -62    100     63    118 170.2  64.7  34282  291.64 0854.83
2009/04/23 12:24:39.4     -21     -7     95     23     97 250.0  86.4  34276  291.54 0854.83
2009/04/23 12:24:39.5     -80    -72    119    108    160 227.8  53.3  34220  290.58 0854.83
2009/04/23 12:24:39.6      20    -42     26     47     53 154.6  31.4  34190  290.09 0854.83
2009/04/23 12:24:39.7     112    -45     -6    121    122 112.2  -3.1  34192  290.11 0854.83
2009/04/23 12:24:39.8      27    -80    -54     85    100 160.8 -39.9  34184  289.97 0854.83
2009/04/23 12:24:39.9      51      8    -26     52     58  80.3 -32.6  34218  290.57 0854.85
2009/04/23 12:24:40.0     134     88     56    161    171  56.7  19.2  34280  291.62 0854.85
2009/04/23 12:24:40.1      82     94     51    125    135  41.0  23.1  34264  291.33 0854.85
2009/04/23 12:24:40.2     115     95    -25    150    153  50.5  -9.8  34198  290.23 0854.85
2009/04/23 12:24:40.3     -46     -2     29     47     55 267.4  35.5  34198  290.23 0854.85
2009/04/23 12:24:40.4     -20   -101    120    104    158 191.6  54.8  34196  290.19 0854.85
2009/04/23 12:24:40.5      -5    -86     83     87    120 183.6  48.5  34176  289.85 0854.85
2009/04/23 12:24:40.6     -31    -95    107    101    147 198.5  52.1  34182  289.94 0854.85
2009/04/23 12:24:40.7     -30   -101     27    106    110 196.9  14.3  34180  289.92 0854.85
2009/04/23 12:24:40.8      13    -65     80     67    104 168.5  56.3  34172  289.77 0854.85
2009/04/23 12:24:40.9      61    -21    100     65    119 109.1  64.1  34178  289.87 0854.85
2009/04/23 12:24:41.0      75    -25     78     80    111 108.6  50.0  34180  289.91 0854.85
2009/04/23 12:24:41.1     119     -2    100    120    156  91.3  44.3  34170  289.75 0854.85
2009/04/23 12:24:41.2     146      0    109    147    183  89.6  40.1  34172  289.79 0854.85
2009/04/23 12:24:41.3     180    148    140    234    272  50.5  34.0  34204  290.31 0854.85
2009/04/23 12:24:41.4     105     89    128    138    188  49.6  47.9  34200  290.25 0854.85
2009/04/23 12:24:41.5      66    -24     43     71     83 110.0  34.0  34192  290.13 0854.85
2009/04/23 12:24:41.6     111    -26    137    115    178 103.3  55.8  34170  289.75 0854.85
2009/04/23 12:24:41.7      57    106    154    121    195  28.5  57.9  34194  290.16 0854.85
2009/04/23 12:24:41.8     -13    -85    149     87    172 188.9  66.8  34198  290.21 0854.85
2009/04/23 12:24:41.9      76    -61    145     98    175 128.6  63.2  34176  289.84 0854.86
2009/04/23 12:24:42.0     101    -16    143    103    176  99.2  60.5  34166  289.69 0854.86
2009/04/23 12:24:42.1     148   -105    183    182    258 125.3  50.1  34174  289.80 0854.86
2009/04/23 12:24:42.2     193   -107    170    221    278 119.1  41.6  34182  289.95 0854.86
2009/04/23 12:24:42.3      65    -79    131    103    166 140.4  57.7  34184  289.97 0854.86
2009/04/23 12:24:42.4      92      0    116     93    148  90.0  56.9  34178  289.89 0854.86
2009/04/23 12:24:42.5      40    -49    154     64    166 140.4  76.1  34176  289.85 0854.86
2009/04/23 12:24:42.6      25   -110    154    113    191 167.1  60.3  34178  289.87 0854.86
2009/04/23 12:24:42.7     -90   -116    114    147    186 217.8  42.0  34182  289.96 0854.86
2009/04/23 12:24:42.8    -127   -116     71    173    187 227.6  23.6  34180  289.91 0854.86
2009/04/23 12:24:42.9     -94   -133     66    163    175 215.2  23.0  34182  289.96 0854.86
2009/04/23 12:24:43.0    -133   -147     92    199    219 222.3  26.6  34178  289.87 0854.86
2009/04/23 12:24:43.1    -155   -146    102    214    237 226.8  27.2  34194  290.14 0854.86
2009/04/23 12:24:43.2    -106   -249    163    271    316 203.2  33.8  34172  289.76 0854.86
2009/04/23 12:24:43.3      16   -277    111    278    299 176.6  23.0  34166  289.66 0854.86
2009/04/23 12:24:43.4      35   -283    175    286    335 172.8  34.3  34166  289.68 0854.86
2009/04/23 12:24:43.5       3   -237    131    238    271 179.1  31.4  34164  289.63 0854.86
2009/04/23 12:24:43.6     154   -266    200    308    367 149.9  36.0  34178  289.86 0854.86
2009/04/23 12:24:43.7     122   -269    148    296    330 155.5  28.6  34172  289.78 0854.86
2009/04/23 12:24:43.8     168   -311    159    354    388 151.6  25.9  34168  289.71 0854.86
2009/04/23 12:24:43.9     110   -361    132    378    400 163.1  20.0  34164  289.65 0854.86
2009/04/23 12:24:44.0     135   -353    124    379    399 159.0  18.1  34164  289.64 0854.86
2009/04/23 12:24:44.1     157   -264     48    308    312 149.2   9.0  34168  289.71 0854.86
2009/04/23 12:24:44.2     114   -216     67    245    255 152.1  15.3  34166  289.66 0854.86
2009/04/23 12:24:44.3      96   -259     99    277    294 159.7  20.7  34166  289.68 0854.86
2009/04/23 12:24:44.4      82   -286    106    298    316 164.0  20.3  34166  289.66 0854.86
2009/04/23 12:24:44.5      -3   -270    150    271    309 180.7  31.4  34164  289.64 0854.86
2009/04/23 12:24:44.6     -84   -287    185    300    352 196.3  34.6  34172  289.76 0854.86
2009/04/23 12:24:44.7     -18   -304    207    305    368 183.5  37.4  34164  289.64 0854.86
2009/04/23 12:24:44.8     -93   -346    179    359    401 195.1  28.4  34168  289.72 0854.86
2009/04/23 12:24:44.9     -81   -383    171    392    427 192.1  25.1  34168  289.70 0854.86
2009/04/23 12:24:45.0     -28   -376    133    377    399 184.3  20.1  34166  289.69 0854.86
2009/04/23 12:24:45.1      21   -402     51    403    407 177.0   7.2  34168  289.72 0854.86
2009/04/23 12:24:45.2     119   -443     65    459    464 164.9   8.1  34156  289.49 0854.86
2009/04/23 12:24:45.3     120   -435    133    452    472 164.5  16.4  34156  289.49 0854.86
2009/04/23 12:24:45.4      48   -370    134    374    397 172.6  20.4  34154  289.47 0854.86
2009/04/23 12:24:45.5      75   -394    136    402    425 169.1  18.8  34156  289.51 0854.86
2009/04/23 12:24:45.6      76   -361    149    370    398 168.0  23.0  34156  289.52 0854.86
2009/04/23 12:24:45.7     -18   -325    131    326    351 183.2  23.0  34156  289.52 0854.86
2009/04/23 12:24:45.8       4   -336    191    337    387 179.3  32.0  34158  289.55 0854.86
2009/04/23 12:24:45.9     -22   -349    271    350    442 183.7  41.7  34164  289.65 0854.85
2009/04/23 12:24:46.0     -94   -293    136    308    336 197.8  25.3  34160  289.58 0854.85
2009/04/23 12:24:46.1    -156   -349     29    383    385 204.1   4.4  34162  289.62 0854.85
2009/04/23 12:24:46.2    -205   -454     50    499    502 204.3   5.8  34168  289.71 0854.85
2009/04/23 12:24:46.3    -164   -425     83    456    464 201.2  10.4  34166  289.68 0854.85
2009/04/23 12:24:46.4    -174   -434    -26    468    469 201.9  -3.2  34162  289.59 0854.85
2009/04/23 12:24:46.5    -256   -415    -93    488    497 211.6 -10.8  34164  289.64 0854.85
2009/04/23 12:24:46.6    -261   -397   -164    476    504 213.4 -19.1  34158  289.54 0854.85
2009/04/23 12:24:46.7    -294   -301   -124    421    438 224.3 -21.4  34158  289.55 0854.85
2009/04/23 12:24:46.8    -154   -317   -222    353    417 205.9 -39.6  34166  289.67 0854.85
2009/04/23 12:24:46.9     -31   -236   -187    239    303 187.6 -46.4  34158  289.54 0854.83
2009/04/23 12:24:47.0    -100   -244   -154    264    305 202.3 -37.5  34158  289.54 0854.83
2009/04/23 12:24:47.1     -93   -286   -103    301    318 198.0 -24.0  34156  289.51 0854.83
2009/04/23 12:24:47.2     -45   -292    -41    296    299 188.9  -8.0  34158  289.53 0854.83
2009/04/23 12:24:47.3      -8   -258    -84    259    273 181.8 -17.9  34158  289.54 0854.83
2009/04/23 12:24:47.4     -63   -276    -66    284    292 192.9 -13.2  34156  289.49 0854.83
2009/04/23 12:24:47.5    -113   -288    -44    310    314 201.4  -8.2  34156  289.51 0854.83
2009/04/23 12:24:47.6      20   -287    -32    288    290 176.0  -6.5  34156  289.49 0854.83
2009/04/23 12:24:47.7      27   -256    -89    258    274 173.8 -19.1  34156  289.51 0854.83
2009/04/23 12:24:47.8      43   -284    -87    288    300 171.3 -21.7  34152  289.44 0854.83
2009/04/23 12:24:47.9      20   -233    -66    234    244 174.9 -15.8  34150  289.39 0854.83
2009/04/23 12:24:48.0      -1   -181    -94    182    204 180.5 -33.7  34148  289.38 0854.83
2009/04/23 12:24:48.1      43   -179    -78    185    200 166.4 -28.5  34152  289.45 0854.83
2009/04/23 12:24:48.2       9   -195     -7    196    197 177.1  -2.2  34152  289.43 0854.83
2009/04/23 12:24:48.3     -33   -183    -32    186    189 190.2  -9.8  34148  289.38 0854.83
2009/04/23 12:24:48.4     -95   -148     17    177    178 212.7   5.7  34156  289.50 0854.83
2009/04/23 12:24:48.5    -153   -156    -91    219    237 224.5 -28.5  34150  289.41 0854.83
2009/04/23 12:24:48.6    -104   -146   -146    180    231 215.6 -48.1  34154  289.46 0854.83
2009/04/23 12:24:48.7     -93   -105    -90    141    167 221.4 -39.9  34154  289.46 0854.83
2009/04/23 12:24:48.8    -107    -68   -120    127    174 237.5 -53.1  34156  289.50 0854.83
2009/04/23 12:24:48.9     -74    -82   -108    111    154 222.3 -54.3  34156  289.50 0854.82
2009/04/23 12:24:49.0     -64    -89   -144    110    181 216.0 -63.1  34158  289.53 0854.82
2009/04/23 12:24:49.1     -94   -156    -53    183    190 211.2 -21.0  34156  289.50 0854.82
2009/04/23 12:24:49.2    -130   -184    -84    226    241 215.2 -25.7  34154  289.47 0854.82
2009/04/23 12:24:49.3    -125   -210    -93    245    262 210.8 -26.4  34154  289.47 0854.82
2009/04/23 12:24:49.4    -144   -185    -92    235    252 217.9 -26.7  34158  289.54 0854.82
2009/04/23 12:24:49.5    -140   -230    -91    270    286 211.4 -18.7  34148  289.37 0854.82
2009/04/23 12:24:49.6    -224   -191   -122    295    319 229.6 -28.1  34156  289.49 0854.82
2009/04/23 12:24:49.7    -241   -241   -123    341    362 225.0 -25.2  34152  289.45 0854.82
2009/04/23 12:24:49.8    -134   -283   -110    314    333 205.3 -19.4  34156  289.49 0854.82
2009/04/23 12:24:49.9     -88   -242   -119    258    284 200.0 -31.0  34160  289.56 0854.82
2009/04/23 12:24:50.0     -62   -201    -94    211    230 197.2 -30.1  34158  289.53 0854.82
2009/04/23 12:24:50.1     -38   -210    -74    214    226 190.5 -23.8  34156  289.52 0854.82
2009/04/23 12:24:50.2      69   -285    -16    294    295 166.4  -3.2  34152  289.44 0854.82
2009/04/23 12:24:50.3      24   -260    -72    262    272 174.7 -15.5  34156  289.49 0854.82
2009/04/23 12:24:50.4      81   -301    -84    312    324 164.9 -15.2  34158  289.53 0854.82
2009/04/23 12:24:50.5      24   -327    -88    328    340 175.8 -15.0  34158  289.54 0854.82
2009/04/23 12:24:50.6      51   -368    -42    372    375 172.1  -6.6  34156  289.52 0854.82
2009/04/23 12:24:50.7     -34   -317    -90    319    331 186.3 -20.3  34156  289.51 0854.82
2009/04/23 12:24:50.8     -66   -249   -131    258    289 194.9 -33.5  34154  289.46 0854.82
2009/04/23 12:24:50.9      16   -245    -99    246    265 176.2 -27.5  34154  289.46 0854.81
2009/04/23 12:24:51.0    -113   -221   -100    249    268 207.0 -27.4  34152  289.44 0854.81
2009/04/23 12:24:51.1     -88   -119    -86    149    172 216.5 -37.1  34154  289.46 0854.81
2009/04/23 12:24:51.2    -130   -107   -112    169    202 230.5 -40.9  34152  289.45 0854.81
2009/04/23 12:24:51.3     -89   -188   -103    209    233 205.3 -32.4  34156  289.50 0854.81
2009/04/23 12:24:51.4     -48   -188   -114    195    225 194.5 -37.3  34154  289.48 0854.81
2009/04/23 12:24:51.5      77   -172    -97    189    212 155.9 -33.7  34156  289.50 0854.81
2009/04/23 12:24:51.6     117   -204    -71    236    246 150.1 -21.7  34154  289.46 0854.81
2009/04/23 12:24:51.7     188   -189    -95    267    284 135.2 -19.6  34158  289.53 0854.81
2009/04/23 12:24:51.8     192   -232   -111    302    321 140.3 -25.2  34154  289.46 0854.81
2009/04/23 12:24:51.9     168   -106   -117    199    230 122.4 -37.9  34152  289.45 0854.81
2009/04/23 12:24:52.0     258   -153   -110    300    319 120.7 -25.4  34154  289.46 0854.81
2009/04/23 12:24:52.1     205   -240   -165    316    356 139.5 -34.0  34148  289.38 0854.81
2009/04/23 12:24:52.2     222   -197   -218    297    368 131.6 -44.3  34152  289.45 0854.81
2009/04/23 12:24:52.3     298   -288   -140    415    437 134.0 -23.5  34156  289.49 0854.81
2009/04/23 12:24:52.4     207   -345   -283    403    492 149.0 -43.0  34160  289.56 0854.81
2009/04/23 12:24:52.5     201   -357   -265    410    488 150.6 -40.3  34156  289.49 0854.81
2009/04/23 12:24:52.6     156   -282   -278    323    426 151.1 -49.5  34152  289.45 0854.81
2009/04/23 12:24:52.7     -92   -203   -293    224    368 204.5 -63.1  34150  289.39 0854.81
2009/04/23 12:24:52.8    -397   -111   -264    413    490 254.3 -40.0  34150  289.39 0854.81
2009/04/23 12:24:52.9    -456      6   -282    457    537 270.8 -39.2  34152  289.42 0854.80
2009/04/23 12:24:53.0    -478     14   -235    479    533 271.7 -32.5  34152  289.45 0854.80
2009/04/23 12:24:53.1    -269   -241   -309    362    475 228.2 -49.3  34154  289.48 0854.80
2009/04/23 12:24:53.2    -321   -127   -144    346    374 248.4 -28.3  34146  289.35 0854.80
2009/04/23 12:24:53.3    -487    -69   -225    493    541 261.9 -30.7  34154  289.46 0854.80
2009/04/23 12:24:53.4    -334   -132   -177    360    401 248.4 -32.5  34156  289.52 0854.80
2009/04/23 12:24:53.5    -309   -124    -57    334    340 248.0  -9.8  34152  289.42 0854.80
2009/04/23 12:24:53.6    -171      2    -11    172    173 270.8  -3.7  34154  289.46 0854.80
2009/04/23 12:24:53.7    -192      8    -61    193    203 272.6 -17.6  34148  289.36 0854.80
2009/04/23 12:24:53.8    -342    -23    -43    343    346 266.1  -7.2  34146  289.35 0854.80
2009/04/23 12:24:53.9    -234    141    -25    274    276 301.1  -5.4  34154  289.46 0854.80
2009/04/23 12:24:54.0    -420    140     -8    443    444 288.5  -1.2  34152  289.43 0854.80
2009/04/23 12:24:54.1    -471     73    -62    477    482 278.8  -7.5  34152  289.42 0854.80
2009/04/23 12:24:54.2    -520     10   -163    521    545 271.2 -22.3  34150  289.41 0854.80
2009/04/23 12:24:54.3    -406     -6    -96    407    419 269.1 -13.3  34148  289.36 0854.80
2009/04/23 12:24:54.4    -347   -118    -10    367    368 251.2  -1.6  34158  289.55 0854.80
2009/04/23 12:24:54.5    -382    -13   -164    383    416 268.0 -28.9  34152  289.43 0854.80
2009/04/23 12:24:54.6    -326    -51   -104    331    348 261.1 -17.5  34150  289.40 0854.80
2009/04/23 12:24:54.7    -396    -18   -181    397    436 267.4 -30.6  34148  289.38 0854.80
2009/04/23 12:24:54.8    -436    -50   -226    439    493 263.4 -33.8  34152  289.45 0854.80
2009/04/23 12:24:54.9    -380   -126   -131    401    421 251.6 -23.3  34152  289.44 0854.79
2009/04/23 12:24:55.0    -284   -103   -139    303    333 250.1 -30.8  34156  289.51 0854.79
2009/04/23 12:24:55.1    -266    -54   -146    272    308 258.5 -35.0  34150  289.41 0854.79
2009/04/23 12:24:55.2    -249    -94    -69    267    276 249.2 -14.5  34154  289.47 0854.79
2009/04/23 12:24:55.3    -348   -109   -165    365    400 252.5 -30.6  34148  289.38 0854.79
2009/04/23 12:24:55.4    -246   -122    -93    275    290 243.6 -23.3  34152  289.42 0854.79
2009/04/23 12:24:55.5    -304     -9   -100    305    320 268.3 -23.3  34150  289.41 0854.79
2009/04/23 12:24:55.6    -289   -146    -75    324    333 243.1 -13.1  34154  289.47 0854.79
2009/04/23 12:24:55.7    -236   -135    -88    273    287 240.2 -17.9  34158  289.53 0854.79
2009/04/23 12:24:55.8    -227   -126   -122    260    287 240.9 -31.5  34158  289.53 0854.79
2009/04/23 12:24:55.9    -237     -7   -121    238    266 268.3 -33.5  34154  289.47 0854.79
2009/04/23 12:24:56.0    -168     -2   -130    169    213 269.0 -46.0  34156  289.50 0854.79
2009/04/23 12:24:56.1    -150     -2    -69    151    166 269.1 -30.8  34160  289.57 0854.79
2009/04/23 12:24:56.2     -96     -7    -55     97    111 265.7 -36.3  34162  289.60 0854.79
2009/04/23 12:24:56.3    -145     20   -120    147    189 277.9 -48.1  34164  289.63 0854.79
2009/04/23 12:24:56.4    -151     60    -92    163    187 291.7 -36.3  34160  289.58 0854.79
2009/04/23 12:24:56.5    -158     76    -46    176    182 295.8 -14.7  34162  289.60 0854.79
2009/04/23 12:24:56.6    -297    158   -127    337    360 298.0 -25.9  34156  289.50 0854.79
2009/04/23 12:24:56.7    -223    242   -132    330    355 317.4 -27.4  34154  289.48 0854.79
2009/04/23 12:24:56.8    -214    228   -173    314    358 316.8 -35.7  34148  289.38 0854.79
2009/04/23 12:24:57.0    -207    207   -128    294    320 315.0 -29.4  34158  289.53 0854.78
2009/04/23 12:24:57.0    -387    104   -258    401    476 285.1 -40.1  34144  289.31 0854.78
2009/04/23 12:24:57.1    -341    140   -227    369    433 292.3 -38.9  34144  289.29 0854.78
2009/04/23 12:24:57.2    -180    149   -175    235    293 309.6 -44.8  34154  289.46 0854.78
2009/04/23 12:24:57.3    -230     77   -145    243    282 288.6 -37.9  34150  289.39 0854.78
2009/04/23 12:24:57.4    -244     54   -164    251    299 282.6 -40.4  34160  289.58 0854.78
2009/04/23 12:24:57.5    -237     41   -170    241    294 279.9 -43.2  34162  289.61 0854.78
2009/04/23 12:24:57.6    -215      5   -124    216    249 271.5 -36.8  34164  289.63 0854.78
2009/04/23 12:24:57.7    -142     27    -49    145    153 281.0 -23.3  34164  289.65 0854.78
2009/04/23 12:24:57.8     -70     44    -76     83    112 302.0 -52.3  34162  289.62 0854.78
2009/04/23 12:24:57.9      14    100    -60    102    118   8.0 -37.9  34168  289.70 0854.78
2009/04/23 12:24:58.0      31     94    -82    100    129  18.3 -48.1  34166  289.69 0854.78
2009/04/23 12:24:58.1     -24    151    -53    154    164 350.7 -19.1  34160  289.57 0854.78
2009/04/23 12:24:58.2      11    141    -99    142    173   4.5 -42.4  34160  289.58 0854.78
2009/04/23 12:24:58.3    -111    185   -137    217    256 329.0 -39.9  34156  289.49 0854.78
2009/04/23 12:24:58.4    -218    244   -121    328    349 318.2 -25.4  34152  289.45 0854.78
2009/04/23 12:24:58.5    -207    251    -41    326    329 320.4  -7.3  34156  289.49 0854.78
2009/04/23 12:24:58.6    -206    303    -47    367    370 325.7  -7.3  34160  289.57 0854.78
2009/04/23 12:24:58.7    -160    235    -20    285    286 325.8  -4.1  34158  289.53 0854.78
2009/04/23 12:24:58.8    -120    229    -33    259    262 332.4  -7.3  34156  289.49 0854.78
2009/04/23 12:24:58.9    -133    259    -87    292    305 332.8 -16.6  34150  289.39 0854.78
2009/04/23 12:24:59.0    -286    160    -42    328    331 299.3  -7.3  34158  289.55 0854.78
2009/04/23 12:24:59.1    -231     88    -83    248    262 290.8 -18.7  34162  289.61 0854.78
2009/04/23 12:24:59.2    -188     92    -59    210    219 296.0 -15.8  34160  289.58 0854.78
2009/04/23 12:24:59.4    -229     93   -116    248    273 292.2 -31.5  34162  289.59 0854.78
2009/04/23 12:24:59.5    -200    140    -40    245    249 305.0  -9.3  34160  289.58 0854.78
2009/04/23 12:24:59.5    -131    205     69    244    254 327.4  15.8  34152  289.42 0854.78
2009/04/23 12:24:59.6    -102    188    195    214    289 331.5  47.0  34164  289.63 0854.78
2009/04/23 12:24:59.7     -68    190    202    202    285 340.2  50.1  34162  289.61 0854.78
2009/04/23 12:24:59.8     -41    176    186    181    259 346.9  50.9  34160  289.58 0854.78
2009/04/23 12:24:59.9     -31    252    126    255    284 352.8  28.2  34160  289.56 0854.78
2009/04/23 12:25:00.0      -9    257    100    258    276 358.0  22.3  34166  289.68 0854.78
2009/04/23 12:25:00.1     -19    247    131    248    280 355.5  30.1  34164  289.63 0854.78
2009/04/23 12:25:00.2     -19    244    148    245    286 355.5  34.0  34160  289.56 0854.78
2009/04/23 12:25:00.3      80    179    103    197    222  24.1  30.1  34156  289.50 0854.78
2009/04/23 12:25:00.4      35    186     64    190    201  10.7  18.6  34160  289.58 0854.78
2009/04/23 12:25:00.6     158     75     79    176    192  64.5  25.9  34158  289.53 0854.78
2009/04/23 12:25:00.7     112     50     49    123    132  65.6  23.0  34156  289.50 0854.78
2009/04/23 12:25:00.7     121     95      4    155    156  51.8   1.8  34156  289.50 0854.78
2009/04/23 12:25:00.8     157    140     41    211    215  48.2  11.0  34154  289.48 0854.78
2009/04/23 12:25:00.9     168    138     80    218    232  50.5  21.0  34152  289.45 0854.77
2009/04/23 12:25:01.0     198    194     41    278    282  45.6   8.5  34150  289.39 0854.77
2009/04/23 12:25:01.1     276    296    -64    406    412  43.0  -9.0  34156  289.51 0854.77
2009/04/23 12:25:01.2     326    242   -115    407    424  53.4 -15.8  34156  289.49 0854.77
2009/04/23 12:25:01.3     288    237    -96    374    387  50.5 -14.4  34154  289.47 0854.77
2009/04/23 12:25:01.5     346     68     -5    353    354  78.8  -0.9  34160  289.57 0854.77
2009/04/23 12:25:01.5     538    120    -91    552    560  77.4  -9.4  34154  289.48 0854.77
2009/04/23 12:25:01.6     443    209    -45    490    493  64.7  -5.3  34156  289.50 0854.77
2009/04/23 12:25:01.8     306    168     -6    350    351  61.2  -1.1  34152  289.45 0854.77
2009/04/23 12:25:01.8     284    180     44    337    340  57.7   7.6  34156  289.50 0854.77
2009/04/23 12:25:02.0     300    223    -34    375    377  53.4  -5.3  34146  289.33 0854.77
2009/04/23 12:25:02.1     282    191    159    341    376  55.8  27.1  34158  289.54 0854.77
2009/04/23 12:25:02.2     374    177     44    414    417  64.7   6.1  34152  289.43 0854.77
2009/04/23 12:25:02.3     213    188    105    285    303  48.6  21.0  34172  289.76 0854.77
2009/04/23 12:25:02.4     126     68     75    144    162  61.6  29.5  34164  289.63 0854.77
2009/04/23 12:25:02.5     195     75    138    209    250  68.9  36.5  34164  289.64 0854.77
2009/04/23 12:25:02.6     247    157    120    294    317  57.5  23.5  34160  289.56 0854.77
2009/04/23 12:25:02.7     214    155    129    265    294  54.0  27.8  34156  289.51 0854.77
2009/04/23 12:25:02.8     329    166    115    369    387  63.2  17.3  34158  289.54 0854.77
2009/04/23 12:25:02.9     124    208    132    243    276  30.8  31.0  34178  289.88 0854.77
2009/04/23 12:25:03.0     183    201     55    272    278  42.3  11.4  34200  290.26 0854.77
2009/04/23 12:25:03.1      68    267    -50    276    281  14.3 -10.3  34176  289.83 0854.77
2009/04/23 12:25:03.2     173    155    -75    233    245  48.0 -17.9  34160  289.58 0854.77
2009/04/23 12:25:03.3     155    132    -93    204    224  49.6 -30.6  34160  289.58 0854.77
2009/04/23 12:25:03.4      98     54    -80    112    137  61.2 -43.9  34166  289.67 0854.77
2009/04/23 12:25:03.5     170     26     74    173    188  81.2  24.3  34164  289.63 0854.77
2009/04/23 12:25:03.6     211    107   -115    237    263  62.9 -31.8  34162  289.59 0854.77
2009/04/23 12:25:03.7     141     90   -215    168    272  57.6 -62.6  34166  289.68 0854.77
2009/04/23 12:25:03.8     135    -49    -45    144    150 110.0 -22.8  34154  289.46 0854.77
2009/04/23 12:25:03.9      97    -11     -9     98     99  97.0  -5.6  34160  289.57 0854.77
2009/04/23 12:25:04.0     150     58    -39    162    167  68.7 -13.7  34154  289.46 0854.77
2009/04/23 12:25:04.1     340     85     36    351    353  75.8   6.0  34172  289.79 0854.77
2009/04/23 12:25:04.2     214     81    -52    229    235  69.2 -12.9  34174  289.81 0854.77
2009/04/23 12:25:04.3     267    131    -31    298    300  63.8  -6.0  34188  290.03 0854.77
2009/04/23 12:25:04.4     186     34     67    190    201  79.4  20.0  34186  290.02 0854.77
2009/04/23 12:25:04.5     136      0     74    137    155  89.6  31.3  34180  289.91 0854.77
2009/04/23 12:25:04.6      53    -13     79     55     96 104.2  62.1  34180  289.91 0854.77
2009/04/23 12:25:04.7     -12    -14     20     19     27 221.4  48.2  34176  289.85 0854.77
2009/04/23 12:25:04.8     -70    -56     41     90     98 231.4  26.2  34174  289.80 0854.77
2009/04/23 12:25:04.9    -108    -53      4    121    122 243.8   2.3  34170  289.75 0854.77
2009/04/23 12:25:05.0    -130    -40      4    137    138 252.7   1.8  34172  289.79 0854.78
2009/04/23 12:25:05.1     -97    -17     65     99    118 259.9  36.5  34174  289.80 0854.78
2009/04/23 12:25:05.2     -66     54    -41     86     95 309.1 -31.6  34178  289.87 0854.78
2009/04/23 12:25:05.3     -94     19   -111     97    147 281.9 -58.7  34192  290.11 0854.78
2009/04/23 12:25:05.4     -52    -33    -21     62     65 237.6 -23.6  34180  289.92 0854.78
2009/04/23 12:25:05.5      28    -20     23     35     41 126.0  36.5  34174  289.82 0854.78
2009/04/23 12:25:05.6      23   -151    -11    153    154 171.1  -4.1  34174  289.80 0854.78
2009/04/23 12:25:05.7     -10   -132    -56    133    144 184.4 -28.0  34172  289.77 0854.78
2009/04/23 12:25:05.8      11   -149     -6    150    151 175.5  -2.6  34174  289.82 0854.78
2009/04/23 12:25:05.9     -46   -140     -5    148    149 198.3  -2.2  34176  289.84 0854.78
2009/04/23 12:25:06.0     -78   -163     32    181    184 205.6  10.3  34170  289.74 0854.78
2009/04/23 12:25:06.1     -31   -164     68    167    180 190.7  23.1  34172  289.77 0854.78
2009/04/23 12:25:06.2     -16   -147     65    148    161 186.2  25.1  34164  289.65 0854.78
2009/04/23 12:25:06.3      22    -88     56     91    106 165.7  35.0  34166  289.69 0854.78
2009/04/23 12:25:06.4      31    -31     52     45     68 135.0  55.4  34166  289.67 0854.78
2009/04/23 12:25:06.5      29    -33     64     45     78 138.6  61.5  34168  289.72 0854.78
2009/04/23 12:25:06.6       8   -110    116    111    160 175.6  51.4  34164  289.65 0854.78
2009/04/23 12:25:06.7     -42   -171    123    177    215 194.0  38.6  34164  289.63 0854.78
2009/04/23 12:25:06.8     -12   -158    101    159    188 184.5  35.5  34168  289.72 0854.78
2009/04/23 12:25:06.9      55   -125     97    137    167 156.3  38.8  34170  289.74 0854.78
2009/04/23 12:25:07.0      40   -141    117    147    187 164.0  43.0  34168  289.72 0854.77
2009/04/23 12:25:07.1     -39   -194    167    198    259 191.5  44.3  34168  289.71 0854.77
2009/04/23 12:25:07.2     -87   -287    105    301    319 196.9  19.3  34172  289.76 0854.77
2009/04/23 12:25:07.3     -47   -248     83    253    267 190.9  18.1  34170  289.73 0854.77
2009/04/23 12:25:07.4     -36   -287     32    290    292 187.2   6.5  34172  289.78 0854.77
2009/04/23 12:25:07.5      61   -205     69    215    226 163.3  17.9  34170  289.75 0854.77
2009/04/23 12:25:07.6      57   -203     99    211    233 164.2  27.1  34168  289.70 0854.77
2009/04/23 12:25:07.7      85   -134    111    159    193 147.5  38.4  34168  289.72 0854.77
2009/04/23 12:25:07.8      -7      0    120      8    120 265.6  90.0  34178  289.87 0854.77
2009/04/23 12:25:07.9    -130     43     59    138    150 288.6  24.6  34178  289.87 0854.77
2009/04/23 12:25:08.0    -138    -60      7    151    152 246.5   2.9  34174  289.80 0854.78
2009/04/23 12:25:08.1    -163      7    -53    164    173 272.8 -17.9  34166  289.69 0854.78
2009/04/23 12:25:08.2    -286     58    -92    292    306 281.5 -22.8  34154  289.47 0854.78
2009/04/23 12:25:08.3    -254     -3    -37    255    258 269.2  -8.3  34160  289.56 0854.78
2009/04/23 12:25:08.4     -45    -63      5     78     79 216.0   3.8  34154  289.46 0854.78
2009/04/23 12:25:08.5      27   -134     86    137    161 168.5  35.0  34166  289.69 0854.78
2009/04/23 12:25:08.6     -56   -129    152    141    207 203.7  52.2  34170  289.75 0854.78
2009/04/23 12:25:08.7    -105   -195    143    222    264 208.3  35.6  34170  289.73 0854.78
2009/04/23 12:25:08.8    -120   -233    101    263    281 207.2  22.0  34168  289.70 0854.78
2009/04/23 12:25:08.9     -58   -174    131    184    225 198.5  39.3  34170  289.74 0854.78
2009/04/23 12:25:09.0     -45    -91    122    102    159 206.3  55.8  34164  289.63 0854.78
2009/04/23 12:25:09.1     -42   -120    134    128    185 199.2  51.4  34166  289.69 0854.78
2009/04/23 12:25:09.2     -10    -94    116     95    149 186.2  56.4  34170  289.75 0854.78
2009/04/23 12:25:09.3    -100    -65    107    120    160 236.7  46.4  34166  289.69 0854.78
2009/04/23 12:25:09.4    -285      4    120    286    310 270.8  24.1  34162  289.59 0854.78
2009/04/23 12:25:09.5    -237    226    148    328    359 313.6  25.9  34172  289.79 0854.78
2009/04/23 12:25:09.6    -237    222    120    326    347 313.1  21.1  34174  289.81 0854.78
2009/04/23 12:25:09.7    -196    -22    179    198    266 263.4  46.9  34168  289.71 0854.78
2009/04/23 12:25:09.8    -146    159     95    217    236 317.5  25.1  34172  289.77 0854.78
2009/04/23 12:25:09.9     -58    222    166    230    283 345.3  39.5  34164  289.64 0854.78
2009/04/23 12:25:10.0    -102    228    148    250    290 335.9  33.5  34162  289.61 0854.78
2009/04/23 12:25:10.1    -108    212    100    239    259 332.9  23.8  34162  289.59 0854.78
2009/04/23 12:25:10.2    -116    215    131    245    277 331.5  30.3  34164  289.63 0854.78
2009/04/23 12:25:10.3     -85    178    148    198    247 334.5  40.7  34164  289.65 0854.78
2009/04/23 12:25:10.4    -214    221    128    308    333 315.9  23.8  34168  289.71 0854.78
2009/04/23 12:25:10.5    -224    143    170    266    315 302.6  35.6  34160  289.58 0854.78
2009/04/23 12:25:10.6    -287    131    116    316    336 294.6  21.1  34166  289.67 0854.78
2009/04/23 12:25:10.7    -188    -38    168    192    255 258.5  45.8  34166  289.68 0854.78
2009/04/23 12:25:10.8    -128     14     74    129    148 276.6  32.4  34178  289.87 0854.78
2009/04/23 12:25:10.9     -50    -41     85     66    107 230.5  57.9  34174  289.82 0854.78
2009/04/23 12:25:11.0     155    -84    164    177    241 118.6  47.9  34170  289.75 0854.78
2009/04/23 12:25:11.1      57    -83    140    101    172 145.3  61.1  34170  289.75 0854.78
2009/04/23 12:25:11.2      71     -4    103     72    125  93.5  62.1  34170  289.75 0854.78
2009/04/23 12:25:11.3      12     12     95     18     96  45.0  90.0  34172  289.77 0854.78
2009/04/23 12:25:11.4     -21     37     46     43     62 330.1  52.1  34176  289.84 0854.78
2009/04/23 12:25:11.5      41     31     18     52     56  52.2  18.9  34172  289.79 0854.78
2009/04/23 12:25:11.6      81     33     93     88    128  67.4  51.6  34168  289.72 0854.78
2009/04/23 12:25:11.7     103    -41     55    111    123 111.8  28.7  34166  289.67 0854.78
2009/04/23 12:25:11.8      56     26     97     62    115  64.8  64.7  34198  290.23 0854.78
2009/04/23 12:25:11.9      69    153     -6    168    169  24.3  -2.2  34206  290.36 0854.78
2009/04/23 12:25:12.0     140    140    -61    199    208  45.0 -22.1  34198  290.23 0854.78
2009/04/23 12:25:12.1      51    141    -97    150    178  20.0 -40.1  34200  290.25 0854.78
2009/04/23 12:25:12.2      44    134     87    142    166  18.5  34.4  34206  290.35 0854.78
2009/04/23 12:25:12.3     -78    129    131    151    199 328.8  45.6  34194  290.16 0854.78
2009/04/23 12:25:12.4     -52    -71    109     89    140 216.1  56.4  34174  289.80 0854.78
2009/04/23 12:25:12.5      10    -32    168     34    171 161.5  89.0  34174  289.80 0854.78
2009/04/23 12:25:12.6       7     32     90     33     95  13.4  79.7  34174  289.80 0854.78
2009/04/23 12:25:12.7      24    -61    109     66    127 158.2  66.2  34178  289.87 0854.78
2009/04/23 12:25:12.8      -2    -50    108     51    119 182.7  72.9  34178  289.87 0854.78
2009/04/23 12:25:12.9      -5    -68    158     69    172 184.4  75.0  34172  289.77 0854.78
2009/04/23 12:25:13.0     -39   -109    110    117    160 200.0  48.2  34170  289.75 0854.78
2009/04/23 12:25:13.1     146      2     97    147    176  89.2  36.5  34176  289.85 0854.78
2009/04/23 12:25:13.2     -34    -83    143     90    168 202.7  64.7  34174  289.82 0854.78
2009/04/23 12:25:13.3     -76   -148    199    167    259 207.2  55.8  34174  289.80 0854.78
2009/04/23 12:25:13.4    -163   -200    218    259    338 219.2  44.3  34178  289.88 0854.78
2009/04/23 12:25:13.5    -305   -172    190    351    399 240.6  30.8  34182  289.94 0854.78
2009/04/23 12:25:13.6    -347   -104     97    363    376 253.2  15.0  34182  289.96 0854.78
2009/04/23 12:25:13.7    -191   -287    143    346    374 213.7  23.7  34166  289.67 0854.78
2009/04/23 12:25:13.8    -221   -303    -45    376    379 216.1  -6.9  34162  289.59 0854.78
2009/04/23 12:25:13.9    -161   -309    -19    349    350 207.5  -3.2  34162  289.62 0854.78
2009/04/23 12:25:14.0    -113   -289     63    311    318 201.4  11.6  34162  289.61 0854.79
2009/04/23 12:25:14.1     -56   -294    109    300    319 190.9  20.7  34164  289.63 0854.79
2009/04/23 12:25:14.2     -53   -311     77    316    326 189.8  13.8  34164  289.64 0854.79
2009/04/23 12:25:14.3      -4   -284    158    285    325 181.0  31.5  34164  289.63 0854.79
2009/04/23 12:25:14.4      -4   -276    151    277    315 180.9  31.0  34168  289.70 0854.79
2009/04/23 12:25:14.5      37   -268    145    271    307 172.0  30.6  34168  289.70 0854.79
2009/04/23 12:25:14.6      -8   -268    136    269    301 181.8  29.2  34166  289.66 0854.79
2009/04/23 12:25:14.7      17   -233     97    234    253 175.8  23.8  34174  289.81 0854.79
2009/04/23 12:25:14.8      40   -198    106    202    228 168.5  29.8  34174  289.80 0854.79
2009/04/23 12:25:14.9      49   -158     81    166    184 162.6  27.8  34176  289.84 0854.79
2009/04/23 12:25:15.0      60   -162    106    174    203 159.5  34.4  34176  289.85 0854.79
2009/04/23 12:25:15.1     145   -120    104    189    215 129.5  31.3  34180  289.91 0854.79
2009/04/23 12:25:15.2     160    -40    158    165    228 104.2  48.7  34190  290.09 0854.79
2009/04/23 12:25:15.3     219    -25    139    221    261  96.6  35.5  34202  290.27 0854.79
2009/04/23 12:25:15.4     155    -76    104    173    201 116.2  34.0  34202  290.30 0854.79
2009/04/23 12:25:15.5      25    -76    138     81    160 161.7  67.0  34192  290.13 0854.79
2009/04/23 12:25:15.6      46     10    100     48    110  77.6  72.8  34184  289.99 0854.79
2009/04/23 12:25:15.7      30    -68    118     75    139 156.4  64.7  34178  289.87 0854.79
2009/04/23 12:25:15.8      22   -110    111    113    158 168.4  49.8  34172  289.79 0854.79
2009/04/23 12:25:15.9      24   -170     37    172    177 171.8  12.2  34164  289.63 0854.79
2009/04/23 12:25:16.0     -24   -145     57    148    158 189.7  22.0  34166  289.67 0854.79
2009/04/23 12:25:16.1      24   -144     27    147    150 170.2  10.6  34166  289.69 0854.79
2009/04/23 12:25:16.2      56    -88     40    105    112 147.5  21.5  34170  289.75 0854.79
2009/04/23 12:25:16.3      21   -100     53    103    115 168.0  29.3  34168  289.72 0854.79
2009/04/23 12:25:16.4      11   -144    -15    145    146 175.6  -6.2  34168  289.72 0854.79
2009/04/23 12:25:16.5     -66   -123     36    140    145 208.5  14.7  34168  289.72 0854.79
2009/04/23 12:25:16.6    -107   -132     67    171    183 219.0  22.5  34164  289.65 0854.79
2009/04/23 12:25:16.7    -110   -142     91    180    201 217.8  29.1  34168  289.70 0854.79
2009/04/23 12:25:16.8    -141   -168     88    220    236 220.1  23.0  34166  289.69 0854.79
2009/04/23 12:25:16.9    -147   -119     39    190    195 231.1  11.6  34168  289.70 0854.79
2009/04/23 12:25:17.0    -151    -93     90    178    199 238.5  29.1  34166  289.67 0854.79
2009/04/23 12:25:17.1    -256    -85    103    270    288 251.6  21.7  34168  289.71 0854.79
2009/04/23 12:25:17.2    -154   -115    137    193    236 233.4  38.8  34164  289.65 0854.79
2009/04/23 12:25:17.3    -189   -132     64    231    240 234.9  15.6  34168  289.71 0854.79
2009/04/23 12:25:17.4    -170   -170     54    241    248 224.9  12.6  34166  289.68 0854.79
2009/04/23 12:25:17.5    -146   -134    141    199    243 227.6  38.6  34164  289.63 0854.79
2009/04/23 12:25:17.6    -130   -213     73    250    261 211.4  16.4  34164  289.64 0854.79
2009/04/23 12:25:17.7    -188   -142     57    236    243 232.9  13.7  34166  289.68 0854.79
2009/04/23 12:25:17.8    -230   -185     36    296    299 231.1   7.1  34166  289.68 0854.79
2009/04/23 12:25:17.9    -228   -232     29    326    328 224.4   5.2  34164  289.64 0854.79
2009/04/23 12:25:18.0    -288   -217     38    361    364 233.0   6.1  34166  289.67 0854.80
2009/04/23 12:25:18.1    -348   -163     30    385    387 245.0   4.6  34164  289.64 0854.80
2009/04/23 12:25:18.2    -259   -167    210    309    373 237.1  37.4  34164  289.65 0854.80
2009/04/23 12:25:18.3    -188   -230    177    298    346 219.2  33.6  34162  289.59 0854.80
2009/04/23 12:25:18.4    -240   -256    185    352    397 223.2  30.0  34162  289.60 0854.80
2009/04/23 12:25:18.5    -241   -212      1    322    323 228.7   0.2  34180  289.92 0854.80
2009/04/23 12:25:18.6    -254    -76    -93    266    281 253.4 -24.3  34184  289.97 0854.80
2009/04/23 12:25:18.7    -254   -210    -54    330    335 230.4  -9.3  34182  289.96 0854.80
2009/04/23 12:25:18.8    -329   -173    -18    372    373 242.2  -2.8  34182  289.93 0854.80
2009/04/23 12:25:18.9    -278   -297    -15    407    408 223.1  -2.2  34170  289.75 0854.80
2009/04/23 12:25:19.0    -143   -126    -53    191    199 228.7 -15.5  34164  289.65 0854.80
2009/04/23 12:25:19.1    -326   -128     86    351    362 248.6  13.9  34164  289.65 0854.80
2009/04/23 12:25:19.2    -354    -95    -65    367    373 254.9 -10.1  34168  289.72 0854.80
2009/04/23 12:25:19.3    -281   -179     18    334    335 237.5   3.2  34182  289.94 0854.80
2009/04/23 12:25:19.4    -201   -163     11    260    261 230.9   2.5  34176  289.85 0854.80
2009/04/23 12:25:19.5    -301    -32     -2    303    304 263.9  -0.5  34164  289.63 0854.80
2009/04/23 12:25:19.6    -398   -154    -23    427    428 248.8  -3.2  34170  289.73 0854.80
2009/04/23 12:25:19.7    -212   -187     44    284    288 228.6   8.9  34168  289.71 0854.80
2009/04/23 12:25:19.8    -273   -224     71    354    362 230.7  11.4  34162  289.59 0854.80
2009/04/23 12:25:19.9    -233   -198     49    307    312 229.6   9.2  34168  289.70 0854.80
2009/04/23 12:25:20.0    -244   -266    149    362    391 222.5  23.7  34162  289.60 0854.80
2009/04/23 12:25:20.1    -278   -173     89    328    340 238.0  15.2  34170  289.74 0854.80
2009/04/23 12:25:20.2    -268   -242     70    362    369 227.9  11.0  34168  289.72 0854.80
2009/04/23 12:25:20.3    -286   -210     20    356    357 233.7   3.2  34168  289.71 0854.80
2009/04/23 12:25:20.4    -305   -237     59    387    392 232.2   8.7  34166  289.69 0854.80
2009/04/23 12:25:20.5    -292   -217     46    365    368 233.4   7.2  34164  289.64 0854.80
2009/04/23 12:25:20.6    -306   -197    -11    365    366 237.2  -1.8  34174  289.82 0854.80
2009/04/23 12:25:20.7    -144   -260     58    298    304 209.0  11.1  34164  289.63 0854.80
2009/04/23 12:25:20.8    -279   -169     42    327    330 238.7   7.5  34172  289.76 0854.80
2009/04/23 12:25:20.9    -246   -161     52    295    300 236.7  10.1  34168  289.70 0854.80
2009/04/23 12:25:21.0    -278   -103      5    297    298 249.6   1.0  34176  289.85 0854.80
2009/04/23 12:25:21.1    -206   -206    -61    292    299 225.1 -11.9  34166  289.68 0854.80
2009/04/23 12:25:21.2    -211   -235    -54    316    321 221.9  -9.8  34164  289.64 0854.80
2009/04/23 12:25:21.3    -172   -183    -86    252    267 223.2 -18.9  34166  289.66 0854.80
2009/04/23 12:25:21.4    -136   -187    -64    232    241 216.0 -15.5  34166  289.68 0854.80
2009/04/23 12:25:21.5    -132   -160    -59    208    217 219.4 -15.8  34166  289.67 0854.80
2009/04/23 12:25:21.6    -126    -73    -98    146    175 239.8 -41.1  34200  290.26 0854.80
2009/04/23 12:25:21.7      -1   -103    -98    104    142 181.0 -52.4  34190  290.09 0854.80
2009/04/23 12:25:21.8     -13   -126     10    127    128 186.3   4.9  34180  289.92 0854.80
2009/04/23 12:25:21.9     -83   -150     70    172    185 209.0  23.1  34176  289.84 0854.80
2009/04/23 12:25:22.0    -116   -152     49    192    199 217.2  14.5  34170  289.74 0854.80
2009/04/23 12:25:22.1     -95   -165     30    191    194 210.1   9.0  34170  289.74 0854.80
2009/04/23 12:25:22.2     -56   -142     39    153    158 201.8  14.3  34168  289.70 0854.80
2009/04/23 12:25:22.3     -56   -166     74    176    190 198.7  24.1  34162  289.60 0854.80
2009/04/23 12:25:22.4     -91   -151     89    177    198 211.0  29.1  34166  289.67 0854.80
2009/04/23 12:25:22.5     -82   -161     77    181    196 207.2  24.6  34170  289.75 0854.80
2009/04/23 12:25:22.6     -82   -172     98    191    214 205.5  29.3  34172  289.77 0854.80
2009/04/23 12:25:22.7     -85   -188     27    207    209 204.5   7.5  34178  289.89 0854.80
2009/04/23 12:25:22.8     -54   -155     38    165    170 199.2  13.2  34182  289.94 0854.80
2009/04/23 12:25:22.9     -36   -136     52    141    150 195.2  20.9  34180  289.91 0854.80
2009/04/23 12:25:23.0      -4   -108     84    109    137 182.2  41.7  34178  289.87 0854.80
2009/04/23 12:25:23.1      17    -54     93     57    109 161.7  65.1  34178  289.87 0854.80
2009/04/23 12:25:23.2     -19    -35    108     41    115 209.0  79.2  34174  289.82 0854.80
2009/04/23 12:25:23.3     -72    -34     75     80    109 244.8  48.0  34168  289.72 0854.80
2009/04/23 12:25:23.4     -48    -23     61     54     81 244.8  53.7  34170  289.75 0854.80
2009/04/23 12:25:23.5     -54     -7     79     55     96 262.1  62.1  34170  289.75 0854.80
2009/04/23 12:25:23.6    -119    -36     87    125    152 253.2  38.0  34170  289.74 0854.80
2009/04/23 12:25:23.7    -156    -63    126    169    210 248.0  40.4  34172  289.77 0854.80
2009/04/23 12:25:23.8    -161    -21     72    163    178 262.5  25.1  34176  289.84 0854.80
2009/04/23 12:25:23.9    -240    -78    112    253    276 251.8  25.2  34178  289.86 0854.80
2009/04/23 12:25:24.0    -208     40     74    212    225 281.0  19.4  34170  289.75 0854.80
2009/04/23 12:25:24.1    -218     89     79    236    250 292.2  18.6  34174  289.80 0854.80
2009/04/23 12:25:24.2    -259     28     30    261    263 276.2   6.7  34176  289.85 0854.80
2009/04/23 12:25:24.3    -288     -1     67    289    297 269.6  13.2  34176  289.85 0854.80
2009/04/23 12:25:24.4    -326    -42    114    329    349 262.5  19.2  34178  289.86 0854.80
2009/04/23 12:25:24.5    -377    -93     98    389    402 256.1  14.2  34172  289.79 0854.80
2009/04/23 12:25:24.6    -376   -128    144    398    423 251.2  20.8  34164  289.63 0854.80
2009/04/23 12:25:24.7    -347   -158     89    382    393 245.5  13.2  34162  289.60 0854.80
2009/04/23 12:25:24.8    -288   -125     44    315    319 246.5   8.0  34162  289.61 0854.80
2009/04/23 12:25:24.9    -143   -257     46    295    299 209.0   9.0  34162  289.61 0854.80
2009/04/23 12:25:25.0    -164   -330    165    369    404 206.5  25.8  34162  289.62 0854.80
2009/04/23 12:25:25.1    -114   -422    265    438    511 195.2  34.0  34172  289.79 0854.80
2009/04/23 12:25:25.2    -210   -293    199    361    412 215.6  31.3  34162  289.62 0854.80
2009/04/23 12:25:25.3    -392   -299    135    494    513 232.7  15.3  34178  289.88 0854.80
2009/04/23 12:25:25.4    -258   -232    -50    348    352 228.0  -8.2  34182  289.96 0854.80
2009/04/23 12:25:25.5    -439   -369      3    574    575 230.0   0.4  34190  290.08 0854.80
2009/04/23 12:25:25.6    -383   -327   -147    504    525 229.5 -21.1  34162  289.61 0854.80
2009/04/23 12:25:25.7    -328   -497     66    596    600 213.5   6.4  34162  289.59 0854.80
2009/04/23 12:25:25.8    -407   -478    -41    629    631 220.4  -3.7  34154  289.48 0854.80
2009/04/23 12:25:25.9    -405   -417   -177    582    608 224.1 -21.8  34162  289.61 0854.80
2009/04/23 12:25:26.1    -431   -474   -202    641    673 222.3 -17.5  34168  289.70 0854.81
2009/04/23 12:25:26.1    -444   -484   -147    657    674 222.5 -12.6  34182  289.93 0854.81
2009/04/23 12:25:26.2    -348   -589    134    685    699 210.6  11.1  34158  289.53 0854.81
2009/04/23 12:25:26.3    -484   -362    -40    605    607 233.2  -3.8  34164  289.64 0854.81
2009/04/23 12:25:26.4    -299   -248   -142    389    414 230.4 -25.4  34168  289.72 0854.81
2009/04/23 12:25:26.5    -506   -474   -186    694    719 226.9 -15.1  34162  289.62 0854.81
2009/04/23 12:25:26.6    -423   -527     -5    676    677 218.8  -0.5  34170  289.75 0854.81
2009/04/23 12:25:26.7    -407   -468     -6    621    622 221.0  -0.6  34164  289.65 0854.81
2009/04/23 12:25:26.8    -472   -391     58    613    616 230.4   5.5  34180  289.91 0854.81
2009/04/23 12:25:26.9    -501   -472    -61    689    692 226.7  -5.1  34174  289.82 0854.81
2009/04/23 12:25:27.0    -413   -482    -38    635    637 220.6  -3.5  34172  289.79 0854.81
2009/04/23 12:25:27.1    -314   -407   -154    515    537 217.6 -21.7  34168  289.70 0854.81
2009/04/23 12:25:27.2    -359   -361   -132    510    527 224.8 -14.5  34166  289.67 0854.81
2009/04/23 12:25:27.3    -443   -278   -213    523    564 237.9 -27.9  34174  289.82 0854.81
2009/04/23 12:25:27.4    -425   -256   -181    497    528 239.0 -25.4  34172  289.79 0854.81
2009/04/23 12:25:27.5    -435     -6   -248    436    501 269.1 -36.7  34168  289.71 0854.81
2009/04/23 12:25:27.6    -413    -55   -276    417    500 262.4 -40.9  34170  289.74 0854.81
2009/04/23 12:25:27.7    -280   -252   -119    377    396 228.0 -17.6  34172  289.79 0854.81
2009/04/23 12:25:27.9    -197   -215    -93    292    306 222.5 -22.9  34172  289.78 0854.81
2009/04/23 12:25:27.9    -156   -307   -125    345    366 207.0 -25.1  34164  289.64 0854.81
2009/04/23 12:25:28.0     -70   -295    -90    304    318 193.4 -16.5  34166  289.66 0854.81
2009/04/23 12:25:28.1     -37   -299   -155    302    339 187.1 -33.7  34158  289.53 0854.81
2009/04/23 12:25:28.3     -69   -290    -58    299    305 193.4 -11.1  34162  289.59 0854.81
2009/04/23 12:25:28.4     -29   -211   -149    214    260 188.0 -42.8  34162  289.61 0854.81
2009/04/23 12:25:28.5       0   -240    -88    241    256 180.2 -25.3  34162  289.61 0854.81
2009/04/23 12:25:28.6    -127   -180    -95    221    240 215.4 -29.3  34162  289.59 0854.81
2009/04/23 12:25:28.7    -146   -214    -24    260    262 214.3  -5.4  34150  289.39 0854.81
2009/04/23 12:25:28.8    -313   -198    -83    371    381 237.6 -12.6  34152  289.43 0854.81
2009/04/23 12:25:28.9    -432    -52   -141    436    459 263.0 -17.9  34150  289.41 0854.81
2009/04/23 12:25:29.0    -385    -32   -114    387    404 265.2 -16.5  34152  289.43 0854.81
2009/04/23 12:25:29.1    -179    -90     72    201    213 243.1  20.2  34156  289.52 0854.82
2009/04/23 12:25:29.2     -78   -195    -71    211    222 201.8 -23.3  34160  289.58 0854.82
2009/04/23 12:25:29.3     111   -131    -27    172    175 139.7  -9.0  34162  289.62 0854.82
2009/04/23 12:25:29.4     116   -215     60    245    253 151.7  13.9  34160  289.58 0854.82
2009/04/23 12:25:29.5    -157   -273    -40    315    318 209.9  -7.4  34158  289.53 0854.82
2009/04/23 12:25:29.6    -102   -296    -14    314    315 199.1  -2.6  34160  289.58 0854.82
2009/04/23 12:25:29.7      18   -233    -62    234    243 175.5 -15.0  34160  289.58 0854.82
2009/04/23 12:25:29.8      57   -239    -89    246    261 166.6 -24.8  34152  289.44 0854.82
2009/04/23 12:25:29.9     116   -223   -159    252    297 152.4 -39.9  34144  289.29 0854.82
2009/04/23 12:25:30.0      90   -334    -96    347    361 164.9 -15.5  34146  289.33 0854.82
2009/04/23 12:25:30.1      41   -300    -47    303    307 172.2  -8.8  34148  289.36 0854.82
2009/04/23 12:25:30.2      31   -327     55    329    334 174.6   9.5  34146  289.35 0854.82
2009/04/23 12:25:30.3     -55   -381    101    386    399 188.2  14.7  34152  289.45 0854.82
2009/04/23 12:25:30.4    -103   -362     95    377    389 195.9  14.2  34152  289.43 0854.82
2009/04/23 12:25:30.5    -109   -324     62    343    349 198.7  10.4  34158  289.54 0854.82
2009/04/23 12:25:30.6    -210   -341      4    401    402 211.6   0.7  34154  289.47 0854.82
2009/04/23 12:25:30.7    -239   -176    -28    298    300 233.6  -5.4  34150  289.39 0854.82
2009/04/23 12:25:30.8     -83   -201      3    218    219 202.5   0.8  34150  289.41 0854.82
2009/04/23 12:25:30.9    -127   -330    177    354    395 201.2  28.6  34152  289.43 0854.82
2009/04/23 12:25:31.0    -213   -131      3    251    252 238.5   0.7  34154  289.46 0854.82
2009/04/23 12:25:31.1    -191   -182      3    265    266 226.4   0.8  34158  289.53 0854.82
2009/04/23 12:25:31.2    -153   -278     97    318    333 208.8  17.0  34154  289.46 0854.82
2009/04/23 12:25:31.3    -153   -240     97    285    302 212.6  18.9  34158  289.53 0854.82
2009/04/23 12:25:31.4    -214   -212      3    302    303 225.2   0.7  34154  289.46 0854.82
2009/04/23 12:25:31.5    -210   -284     78    354    363 216.5  12.5  34148  289.38 0854.82
2009/04/23 12:25:31.6    -135   -251    103    286    305 208.3  19.9  34150  289.41 0854.82
2009/04/23 12:25:31.7    -167   -223     76    279    290 216.9  15.3  34154  289.46 0854.82
2009/04/23 12:25:31.8    -176   -156     29    236    238 228.4   7.1  34154  289.47 0854.82
2009/04/23 12:25:31.9    -208    -43      3    213    214 258.1   0.8  34144  289.31 0854.82
2009/04/23 12:25:32.0     -36    -57    -76     68    101 212.5 -57.7  34150  289.40 0854.82
2009/04/23 12:25:32.1    -149    -48    -78    157    175 251.8 -32.6  34148  289.38 0854.82
2009/04/23 12:25:32.2    -144   -245    -41    285    289 210.5  -8.3  34150  289.41 0854.82
2009/04/23 12:25:32.3    -303   -235   -160    384    416 232.1 -28.3  34154  289.48 0854.82
2009/04/23 12:25:32.4    -138   -269   -133    303    330 207.2 -29.5  34154  289.47 0854.82
2009/04/23 12:25:32.5    -115   -378    -92    396    407 196.9 -13.1  34150  289.41 0854.82
2009/04/23 12:25:32.6     -54   -364    -89    369    380 188.5 -13.6  34150  289.40 0854.82
2009/04/23 12:25:32.7    -172   -285   -113    334    353 211.1 -18.8  34150  289.40 0854.82
2009/04/23 12:25:32.8     -95   -201   -143    223    264 205.5 -40.0  34146  289.32 0854.82
2009/04/23 12:25:32.9     -89   -302    -78    316    326 196.5 -13.9  34148  289.36 0854.82
2009/04/23 12:25:33.0    -148   -290   -112    326    345 207.2 -19.1  34142  289.26 0854.82
2009/04/23 12:25:33.1    -216   -263    -60    341    347 219.5 -10.1  34150  289.40 0854.81
2009/04/23 12:25:33.2    -235     14   -303    236    384 273.5 -62.7  34146  289.33 0854.81
2009/04/23 12:25:33.3    -239     78   -346    252    428 288.2 -64.9  34142  289.26 0854.81
2009/04/23 12:25:33.4    -382    -75   -356    390    528 258.8 -51.7  34148  289.37 0854.81
2009/04/23 12:25:33.5    -370   -262   -189    454    491 234.6 -28.3  34146  289.34 0854.81
2009/04/23 12:25:33.6    -235   -277   -207    364    418 220.4 -36.7  34142  289.28 0854.81
2009/04/23 12:25:33.7    -267   -222   -112    348    365 230.4 -23.0  34146  289.32 0854.81
2009/04/23 12:25:33.8    -121   -178   -199    216    293 214.3 -52.3  34144  289.29 0854.81
2009/04/23 12:25:33.9     -11     41   -148     43    154 344.9 -87.7  34146  289.33 0854.81
2009/04/23 12:25:34.0    -175   -127    -92    217    235 234.0 -28.7  34144  289.31 0854.81
2009/04/23 12:25:34.1    -387   -301   -149    491    514 232.2 -16.9  34142  289.25 0854.81
2009/04/23 12:25:34.2    -301    -28   -213    303    370 264.5 -43.0  34146  289.32 0854.81
2009/04/23 12:25:34.3     -68   -170   -146    184    234 201.9 -47.1  34142  289.26 0854.81
2009/04/23 12:25:34.4    -190   -178   -149    261    300 226.9 -36.8  34148  289.36 0854.81
2009/04/23 12:25:34.5    -276   -287   -138    399    422 223.8 -24.0  34146  289.33 0854.81
2009/04/23 12:25:34.6    -180   -339    -77    385    393 208.0 -11.3  34146  289.33 0854.81
2009/04/23 12:25:34.7    -206   -177     47    272    277 229.3   9.9  34152  289.42 0854.81
2009/04/23 12:25:34.8    -189   -123    -19    226    227 236.9  -4.9  34148  289.36 0854.81
2009/04/23 12:25:34.9    -267    -50     96    272    288 259.4  20.0  34156  289.49 0854.81
2009/04/23 12:25:35.0    -222   -148     13    268    269 236.3   2.9  34154  289.47 0854.81
2009/04/23 12:25:35.1    -388   -231    -64    452    457 239.2  -8.1  34150  289.39 0854.82
2009/04/23 12:25:35.2    -412   -152   -134    440    461 249.7 -17.0  34148  289.38 0854.82
2009/04/23 12:25:35.3    -295   -334    144    446    469 221.5  17.9  34146  289.34 0854.82
2009/04/23 12:25:35.4    -375   -470    110    602    612 218.6  10.4  34156  289.52 0854.82
2009/04/23 12:25:35.5    -356   -430    -21    559    560 219.6  -2.2  34152  289.43 0854.82
2009/04/23 12:25:35.6    -214   -418    -18    470    471 207.2  -2.2  34152  289.44 0854.82
2009/04/23 12:25:35.7    -211   -447   -119    495    510 205.3 -13.6  34148  289.37 0854.82
2009/04/23 12:25:35.8    -177   -312   -112    360    377 209.6 -22.4  34152  289.42 0854.82
2009/04/23 12:25:35.9    -164   -477    -51    505    508 199.0  -5.8  34152  289.44 0854.82
2009/04/23 12:25:36.0     -95   -461    -36    471    473 191.7  -4.5  34150  289.40 0854.82
2009/04/23 12:25:36.1     -28   -374    -34    375    377 184.4  -5.2  34142  289.28 0854.82
2009/04/23 12:25:36.2     -59   -342    -22    348    349 189.8  -3.7  34146  289.35 0854.82
2009/04/23 12:25:36.3     -24   -126   -144    129    193 191.1 -57.9  34142  289.28 0854.82
2009/04/23 12:25:36.4     145   -298    -22    332    333 154.0  -3.8  34146  289.33 0854.82
2009/04/23 12:25:36.5     288   -141    -30    321    323 116.2  -5.4  34140  289.22 0854.82
2009/04/23 12:25:36.6     180    -98   -129    206    243 118.6 -39.6  34150  289.40 0854.82
2009/04/23 12:25:36.7      60    107   -128    123    177  29.4 -55.8  34148  289.38 0854.82
2009/04/23 12:25:36.8      70    212   -106    224    247  18.5 -31.6  34144  289.31 0854.82
2009/04/23 12:25:36.9     136    279    -61    311    318  26.1 -11.2  34150  289.39 0854.82
2009/04/23 12:25:37.0      99    375    -69    388    395  14.8 -10.1  34146  289.35 0854.82
2009/04/23 12:25:37.1     153    458   -153    484    508  18.5 -17.6  34152  289.45 0854.83
2009/04/23 12:25:37.2      84    421   -118    430    445  11.4 -20.0  34154  289.46 0854.83
2009/04/23 12:25:37.3    -137    370     55    395    399 339.6   8.0  34146  289.32 0854.83
2009/04/23 12:25:37.4    -114    402     27    418    419 344.1   3.8  34148  289.38 0854.83
2009/04/23 12:25:37.5      76    405     42    413    416  10.7   5.8  34148  289.36 0854.83
2009/04/23 12:25:37.6      70    348    102    355    370  11.5  16.0  34152  289.43 0854.83
2009/04/23 12:25:37.7     137    314     21    343    344  23.6   3.5  34152  289.43 0854.83
2009/04/23 12:25:37.8     193    374     -6    421    422  27.3  -0.9  34152  289.43 0854.83
2009/04/23 12:25:37.9      86    300    106    313    331  16.0  18.8  34150  289.41 0854.83
2009/04/23 12:25:38.0      75    188    134    203    243  21.8  36.5  34150  289.40 0854.83
2009/04/23 12:25:38.1      39    145     70    151    166  15.1  26.6  34150  289.40 0854.83
2009/04/23 12:25:38.2      45    134     96    142    171  18.7  37.3  34154  289.48 0854.83
2009/04/23 12:25:38.3      98     99    154    140    208  44.9  53.0  34150  289.41 0854.83
2009/04/23 12:25:38.4     214     92    181    234    295  66.7  41.7  34152  289.44 0854.83
2009/04/23 12:25:38.5     303    137    109    333    351  65.6  18.1  34148  289.38 0854.83
2009/04/23 12:25:38.6     338    105    102    355    370  72.7  16.0  34148  289.38 0854.83
2009/04/23 12:25:38.7     199    197    -10    281    282  45.3  -2.2  34152  289.42 0854.83
2009/04/23 12:25:38.8     126    272     58    300    306  24.9  11.1  34154  289.46 0854.83
2009/04/23 12:25:38.9     125    347     44    370    373  19.9   6.9  34162  289.62 0854.83
2009/04/23 12:25:39.0     156    364     42    397    400  23.2   6.1  34158  289.55 0854.83
2009/04/23 12:25:39.1     197    282     27    345    347  35.0   4.5  34156  289.50 0854.83
2009/04/23 12:25:39.2     187    205    -77    278    289  42.3 -15.5  34154  289.46 0854.83
2009/04/23 12:25:39.3     189    251      6    315    316  37.0   1.1  34164  289.64 0854.83
2009/04/23 12:25:39.4     198    204    -15    285    286  44.1  -3.1  34162  289.59 0854.83
2009/04/23 12:25:39.5     165    226    -25    281    283  36.1  -5.1  34166  289.68 0854.83
2009/04/23 12:25:39.6     170    199    -41    262    266  40.5  -9.0  34168  289.70 0854.83
2009/04/23 12:25:39.7      88    130     -6    158    159  34.2  -2.2  34170  289.74 0854.83
2009/04/23 12:25:39.8     -10    159    -30    160    163 356.4 -10.9  34190  290.08 0854.83
2009/04/23 12:25:39.9      62    228     74    237    249  15.4  17.3  34214  290.49 0854.83
2009/04/23 12:25:40.0      86    237     35    253    256  20.0   8.0  34228  290.73 0854.83
2009/04/23 12:25:40.1      78    241     44    254    258  17.9  10.0  34198  290.22 0854.83
2009/04/23 12:25:40.2      34    167     63    171    182  11.6  21.0  34176  289.84 0854.83
2009/04/23 12:25:40.3     -17    125     73    127    146 352.0  32.9  34198  290.23 0854.83
2009/04/23 12:25:40.4     -50    151    -35    160    164 341.7 -12.6  34200  290.26 0854.83
2009/04/23 12:25:40.5     -24    180     21    182    184 352.4   6.7  34202  290.30 0854.83
2009/04/23 12:25:40.6      24    161     56    163    173   8.5  19.2  34196  290.18 0854.83
2009/04/23 12:25:40.7       3    214     42    215    220   0.9  11.1  34236  290.86 0854.83
2009/04/23 12:25:40.8      -9    208     84    209    225 357.3  23.1  34254  291.16 0854.83
2009/04/23 12:25:40.9      57    193      7    202    203  16.5   2.1  34248  291.08 0854.83
2009/04/23 12:25:41.0      55    156    -20    166    168  19.6  -6.9  34238  290.91 0854.83
2009/04/23 12:25:41.1     123     54    -19    135    137  66.4  -8.2  34232  290.81 0854.83
2009/04/23 12:25:41.2     138    104     66    174    186  52.9  22.0  34238  290.91 0854.83
2009/04/23 12:25:41.3      97    141    120    172    209  34.7  38.4  34242  290.98 0854.83
2009/04/23 12:25:41.4      82    172     37    191    195  25.5  11.1  34216  290.52 0854.83
2009/04/23 12:25:41.5     -49      2    -14     50     51 272.6 -20.7  34206  290.36 0854.83
2009/04/23 12:25:41.6     -66    -43     12     79     81 236.7   9.0  34212  290.47 0854.83
2009/04/23 12:25:41.7       0    -60     -3     61     62 180.9  -3.1  34212  290.45 0854.83
2009/04/23 12:25:41.8      89    -68     50    113    123 127.3  25.1  34190  290.09 0854.83
2009/04/23 12:25:41.9      86    -16     63     88    108 100.6  39.7  34176  289.85 0854.83
2009/04/23 12:25:42.0      88    -48     35    101    107 118.4  19.2  34170  289.74 0854.83
2009/04/23 12:25:42.1     125    -64     55    141    151 117.1  23.0  34170  289.74 0854.83
2009/04/23 12:25:42.2     165    -52     71    174    187 107.5  23.1  34178  289.87 0854.83
2009/04/23 12:25:42.3      88    -58    107    106    150 123.7  50.1  34182  289.94 0854.83
2009/04/23 12:25:42.4      17   -121     95    123    155 171.9  41.7  34180  289.91 0854.83
2009/04/23 12:25:42.5     -99    -72      9    123    124 234.1   4.4  34188  290.04 0854.83
2009/04/23 12:25:42.6    -145   -109    -63    182    193 232.9 -19.1  34188  290.06 0854.83
2009/04/23 12:25:42.7     -77   -162     11    180    181 205.5   3.8  34192  290.13 0854.83
2009/04/23 12:25:42.8     -69   -208   -105    220    243 198.5 -31.7  34198  290.20 0854.83
2009/04/23 12:25:42.9     -12   -158   -102    159    188 184.4 -40.0  34192  290.13 0854.83
2009/04/23 12:25:43.0    -121    -85   -139    149    203 234.9 -52.4  34200  290.25 0854.83
2009/04/23 12:25:43.1    -379    -97   -141    392    416 255.6 -25.0  34198  290.22 0854.83
2009/04/23 12:25:43.2    -285    -57    136    291    321 258.5  26.6  34224  290.66 0854.83
2009/04/23 12:25:43.3    -265    -89     65    280    288 251.4  13.2  34222  290.61 0854.83
2009/04/23 12:25:43.4    -351     36     10    353    354 276.0   1.7  34220  290.59 0854.83
2009/04/23 12:25:43.5    -309   -154     32    346    348 243.4   5.4  34210  290.42 0854.83
2009/04/23 12:25:43.6    -233    -67    -29    243    245 254.0  -6.9  34192  290.10 0854.83
2009/04/23 12:25:43.7    -114    -90    138    146    200 231.8  48.2  34184  289.97 0854.83
2009/04/23 12:25:43.8    -187   -117    148    221    265 238.0  36.7  34186  290.00 0854.83
2009/04/23 12:25:43.9    -145    -42     76    152    169 253.6  28.5  34194  290.14 0854.83
2009/04/23 12:25:44.0     -60    -13     21     62     66 257.6  19.4  34192  290.11 0854.83
2009/04/23 12:25:44.1     -77     -5     20     78     81 265.6  14.7  34196  290.19 0854.83
2009/04/23 12:25:44.2     -60    -12     49     62     79 258.6  42.7  34200  290.26 0854.83
2009/04/23 12:25:44.3    -128   -108     73    168    183 229.8  24.6  34224  290.65 0854.83
2009/04/23 12:25:44.4     -96    -96     48    137    146 225.0  19.4  34222  290.62 0854.83
2009/04/23 12:25:44.5     -19    -12     29     23     37 235.8  56.4  34218  290.55 0854.83
2009/04/23 12:25:44.6    -166    -99    131    194    234 239.1  37.0  34178  289.89 0854.83
2009/04/23 12:25:44.7    -164     32    156    168    229 281.0  47.9  34174  289.82 0854.83
2009/04/23 12:25:44.8    -162     43    144    168    221 285.1  45.1  34188  290.04 0854.83
2009/04/23 12:25:44.9    -208    130     82    246    260 302.0  18.6  34178  289.86 0854.83
2009/04/23 12:25:45.0    -191    127     92    230    247 303.7  23.0  34176  289.83 0854.83
2009/04/23 12:25:45.1    -194     33    135    197    238 279.7  37.8  34178  289.87 0854.83
2009/04/23 12:25:45.2    -209    152     57    259    266 306.0  12.4  34174  289.80 0854.83
2009/04/23 12:25:45.3    -208    152    -67    258    267 306.2 -14.7  34180  289.90 0854.83
2009/04/23 12:25:45.4    -144    186    -48    236    241 322.2 -11.6  34178  289.88 0854.83
2009/04/23 12:25:45.5     -96    142    -71    172    186 325.9 -28.0  34174  289.82 0854.83
2009/04/23 12:25:45.6    -104     97      1    143    144 313.1   0.7  34166  289.69 0854.83
2009/04/23 12:25:45.7     -62    272     89    280    294 347.1  17.7  34186  290.00 0854.83
2009/04/23 12:25:45.8     -57    247    152    254    296 346.9  33.5  34190  290.09 0854.83
2009/04/23 12:25:45.9    -128    260    163    291    333 333.7  31.6  34204  290.31 0854.83
2009/04/23 12:25:46.0    -106    216    159    241    288 333.7  36.5  34200  290.26 0854.83
2009/04/23 12:25:46.1    -138    250    107    286    305 331.1  21.3  34196  290.17 0854.83
2009/04/23 12:25:46.2    -114    207     16    237    238 331.0   3.9  34190  290.09 0854.83
2009/04/23 12:25:46.3    -159     75     27    177    180 295.4   8.8  34188  290.06 0854.83
2009/04/23 12:25:46.4     -94    121     60    154    165 322.2  22.3  34190  290.09 0854.83
2009/04/23 12:25:46.5     -75      9    -32     76     82 277.0 -28.5  34186  290.02 0854.83
2009/04/23 12:25:46.6     -43   -107   -124    116    169 201.9 -56.6  34194  290.16 0854.83
2009/04/23 12:25:46.7    -130    -49   -111    140    178 249.2 -46.8  34192  290.13 0854.83
2009/04/23 12:25:46.8    -113    -15   -124    115    169 262.1 -56.6  34190  290.08 0854.83
2009/04/23 12:25:46.9    -146     -4    -78    147    166 268.3 -34.7  34190  290.08 0854.83
2009/04/23 12:25:47.0     -96     19    -77     98    124 281.5 -46.1  34198  290.23 0854.83
2009/04/23 12:25:47.1     -25     45    -70     52     87 331.0 -63.8  34192  290.11 0854.82
2009/04/23 12:25:47.2    -135     -8    -42    136    142 266.5 -22.3  34198  290.23 0854.82
2009/04/23 12:25:47.3    -114    -70    -86    134    159 238.5 -40.1  34194  290.16 0854.82
2009/04/23 12:25:47.4     -82   -161    -28    181    184 207.0  -8.8  34190  290.08 0854.82
2009/04/23 12:25:47.5     -98   -197    -65    221    231 206.5 -16.4  34196  290.18 0854.82
2009/04/23 12:25:47.6     -83   -258      3    272    273 197.9   0.7  34194  290.15 0854.82
2009/04/23 12:25:47.7    -151   -224    -50    271    276 214.1 -10.5  34190  290.07 0854.82
2009/04/23 12:25:47.8     -99   -268     -5    286    287 200.3  -1.2  34184  289.98 0854.82
2009/04/23 12:25:47.9      17   -231    -35    232    235 175.6  -8.6  34184  289.97 0854.82
2009/04/23 12:25:48.0      15   -228    -24    229    231 176.2  -6.2  34158  289.55 0854.82
2009/04/23 12:25:48.1     -31   -290     11    292    293 186.3   2.3  34164  289.63 0854.82
2009/04/23 12:25:48.2     -66   -214     61    225    234 197.2  15.2  34172  289.79 0854.82
2009/04/23 12:25:48.3     -84   -295     14    307    308 196.0   2.8  34158  289.53 0854.82
2009/04/23 12:25:48.4     -29   -255     39    257    261 186.7   8.8  34156  289.51 0854.82
2009/04/23 12:25:48.5     -53   -261     94    267    284 191.6  19.4  34154  289.47 0854.82
2009/04/23 12:25:48.6    -237    -99     97    257    274 247.3  21.7  34158  289.53 0854.82
2009/04/23 12:25:48.7    -264   -106     21    285    286 248.0   4.2  34160  289.58 0854.82
2009/04/23 12:25:48.8    -260    -97     -6    278    279 249.4  -1.3  34160  289.56 0854.82
2009/04/23 12:25:48.9    -216    -19     14    217    218 264.8   3.8  34160  289.57 0854.82
2009/04/23 12:25:49.0    -178      4    -53    179    187 271.5 -16.6  34154  289.46 0854.82
2009/04/23 12:25:49.1    -131    -41    -54    138    148 252.7 -27.4  34152  289.45 0854.82
2009/04/23 12:25:49.2     -57     41     66     71     96 306.0  48.5  34152  289.45 0854.82
2009/04/23 12:25:49.3     -29     21    110     36    115 306.0  80.7  34164  289.65 0854.82
2009/04/23 12:25:49.4     -22     26     88     35     94 320.4  78.2  34170  289.75 0854.82
2009/04/23 12:25:49.5      -6    -16     66     18     68 201.8  83.9  34164  289.65 0854.82
2009/04/23 12:25:49.6      31    -33     40     46     60 136.8  45.8  34158  289.53 0854.82
2009/04/23 12:25:49.7      20   -103     90    106    139 168.9  44.3  34156  289.50 0854.82
2009/04/23 12:25:49.8      53    -97     93    111    144 151.0  43.8  34156  289.50 0854.82
2009/04/23 12:25:49.9      -3    -14    142     15    142 195.1  90.0  34162  289.60 0854.82
2009/04/23 12:25:50.0      77   -104     90    130    158 143.5  38.0  34156  289.50 0854.82
2009/04/23 12:25:50.1      55    -81     34     99    105 145.7  19.2  34150  289.41 0854.83
2009/04/23 12:25:50.2       2   -154     13    155    156 179.0   4.9  34154  289.46 0854.83
2009/04/23 12:25:50.3      81   -119    -52    145    154 145.8 -24.4  34154  289.48 0854.83
2009/04/23 12:25:50.4     141   -140    -14    200    201 134.8  -4.1  34148  289.38 0854.83
2009/04/23 12:25:50.5      65    -28    -44     71     83 113.5 -38.8  34152  289.45 0854.83
2009/04/23 12:25:50.6      37   -120   -100    126    160 162.6 -47.1  34154  289.48 0854.83
2009/04/23 12:25:50.7      92   -180   -146    203    250 152.8 -43.7  34154  289.46 0854.83
2009/04/23 12:25:50.8     103   -162   -109    193    221 147.5 -36.3  34152  289.43 0854.83
2009/04/23 12:25:50.9      63   -128    -78    143    162 153.7 -35.4  34152  289.43 0854.83
2009/04/23 12:25:51.0      61   -153    -56    165    174 158.2 -23.3  34152  289.43 0854.83
2009/04/23 12:25:51.1     -11   -147    -29    148    151 184.5 -11.3  34150  289.40 0854.83
2009/04/23 12:25:51.2     -58    -91    -22    109    112 212.6 -11.3  34154  289.48 0854.83
2009/04/23 12:25:51.3     -53   -100    -37    114    119 208.1 -23.3  34154  289.48 0854.83
2009/04/23 12:25:51.4     -50    -82    -92     97    133 211.6 -53.4  34152  289.45 0854.83
2009/04/23 12:25:51.5      -5    -65   -101     66    120 184.5 -68.5  34152  289.45 0854.83
2009/04/23 12:25:51.6      -7     49   -113     50    123 351.1 -79.4  34154  289.48 0854.83
2009/04/23 12:25:51.7    -118     98   -132    154    202 309.6 -49.8  34154  289.48 0854.83
2009/04/23 12:25:51.8    -142     77    -57    162    171 298.6 -24.4  34154  289.46 0854.83
2009/04/23 12:25:51.9    -131     35    -27    136    139 285.1 -11.5  34154  289.46 0854.83
2009/04/23 12:25:52.0     -71     36   -118     80    142 297.1 -67.1  34158  289.53 0854.83
2009/04/23 12:25:52.1     -76     24   -121     80    145 288.2 -68.5  34156  289.50 0854.83
2009/04/23 12:25:52.2     -73     19    -75     76    106 285.1 -54.9  34156  289.50 0854.83
2009/04/23 12:25:52.3     -53     -9    -89     54    104 260.3 -70.1  34158  289.55 0854.83
2009/04/23 12:25:52.4     -14   -135    -84    136    159 186.3 -39.2  34154  289.48 0854.83
2009/04/23 12:25:52.5      58   -132    -52    145    154 156.4 -24.4  34154  289.48 0854.83
2009/04/23 12:25:52.6      88   -112    -51    143    152 141.7 -19.7  34156  289.50 0854.83
2009/04/23 12:25:52.7      90   -124    -23    154    156 143.9  -8.8  34154  289.48 0854.83
2009/04/23 12:25:52.8      79   -116      9    141    142 145.7   3.8  34156  289.50 0854.83
2009/04/23 12:25:52.9     109    -84      9    138    139 127.8   3.8  34156  289.52 0854.83
2009/04/23 12:25:53.0     126    -58     11    139    140 114.8   4.9  34158  289.53 0854.83
2009/04/23 12:25:53.1     122    -23     24    125    128 101.0  11.1  34156  289.52 0854.83
2009/04/23 12:25:53.2     143      0     48    144    152  90.0  18.6  34158  289.55 0854.83
2009/04/23 12:25:53.3     126    -62    146    141    202 116.2  50.9  34158  289.53 0854.83
2009/04/23 12:25:53.4     113   -114    115    161    197 135.1  39.3  34158  289.53 0854.83
2009/04/23 12:25:53.5     200   -113    146    230    272 119.5  35.5  34156  289.49 0854.83
2009/04/23 12:25:53.6      96   -131    160    163    228 143.9  49.8  34156  289.50 0854.83
2009/04/23 12:25:53.7     195   -135    145    238    278 124.6  34.2  34158  289.53 0854.83
2009/04/23 12:25:53.8     176   -135     82    222    236 127.5  21.3  34154  289.48 0854.83
2009/04/23 12:25:53.9     205   -139     67    249    259 124.2  15.2  34154  289.46 0854.83
2009/04/23 12:25:54.0     236   -145     56    278    284 121.6  11.6  34150  289.41 0854.83
2009/04/23 12:25:54.1     214   -145     63    259    267 124.1  13.7  34152  289.42 0854.83
2009/04/23 12:25:54.2     124   -148     98    194    217 140.1  29.1  34154  289.48 0854.83
2009/04/23 12:25:54.3     152   -138    122    206    239 132.2  33.5  34154  289.48 0854.83
2009/04/23 12:25:54.4     145   -117     91    187    207 128.9  27.8  34154  289.46 0854.83
2009/04/23 12:25:54.6     136   -121     48    183    190 131.6  14.7  34154  289.46 0854.83
2009/04/23 12:25:54.7     102   -105     57    147    157 135.9  22.3  34154  289.46 0854.83
2009/04/23 12:25:54.7     138   -161    106    213    237 139.5  28.2  34156  289.50 0854.83
2009/04/23 12:25:54.9     136   -212     90    253    268 147.3  20.0  34154  289.46 0854.83
2009/04/23 12:25:55.0     104   -181     88    209    226 150.1  24.1  34152  289.43 0854.83
2009/04/23 12:25:55.0     100   -181    117    207    237 151.0  32.1  34154  289.48 0854.83
2009/04/23 12:25:55.2      36   -172    125    176    215 168.0  39.3  34156  289.52 0854.83
2009/04/23 12:25:55.3      29    -47     86     56    102 148.4  64.1  34160  289.57 0854.83
2009/04/23 12:25:55.4      55    -87     87    104    135 147.5  43.8  34158  289.55 0854.83
2009/04/23 12:25:55.5       9    -66     99     67    119 172.0  62.6  34158  289.53 0854.83
2009/04/23 12:25:55.6      57    -58     96     82    126 135.9  54.8  34158  289.55 0854.83
2009/04/23 12:25:55.7       8     -8     57     12     58 135.0  89.0  34158  289.55 0854.83
2009/04/23 12:25:55.8       0    -33     69     34     76 180.9  72.8  34164  289.65 0854.83
2009/04/23 12:25:55.9      26     -7     41     27     49 105.1  63.6  34162  289.62 0854.83
2009/04/23 12:25:56.0      50    -28     53     58     78 119.8  47.9  34160  289.57 0854.83
2009/04/23 12:25:56.1      43    -33     55     55     77 127.8  50.1  34162  289.60 0854.83
2009/04/23 12:25:56.2      11    -43     58     45     73 165.7  57.5  34162  289.62 0854.83
2009/04/23 12:25:56.3     -12    -61     58     63     85 191.6  47.9  34156  289.52 0854.83
2009/04/23 12:25:56.4      -8    -40     86     41     95 191.6  72.9  34158  289.55 0854.83
2009/04/23 12:25:56.5      37    -17     67     41     78 115.3  65.7  34162  289.62 0854.83
2009/04/23 12:25:56.6      92    -66    111    114    159 125.5  49.4  34160  289.58 0854.83
2009/04/23 12:25:56.7      79    -35    107     87    137 114.4  56.4  34160  289.57 0854.83
2009/04/23 12:25:56.8     -12     -4     38     13     40 251.8  81.0  34160  289.57 0854.83
2009/04/23 12:25:56.9     -15      1     26     16     30 274.3  64.7  34162  289.60 0854.83
2009/04/23 12:25:57.0     -27     -9    -13     29     31 251.4 -31.5  34160  289.58 0854.83
2009/04/23 12:25:57.1       0     -3    -15      4     15 189.7 -89.3  34160  289.58 0854.83
2009/04/23 12:25:57.2      81    -37     69     90    113 114.4  41.7  34158  289.53 0854.83
2009/04/23 12:25:57.3     184     22     92    186    207  83.0  28.2  34152  289.45 0854.83
2009/04/23 12:25:57.4     178     49     90    185    205  74.5  27.4  34164  289.63 0854.83
2009/04/23 12:25:57.5     137     49    122    146    190  70.1  43.8  34158  289.55 0854.83
2009/04/23 12:25:57.6     134    114    121    176    213  49.6  37.6  34156  289.50 0854.83
2009/04/23 12:25:57.7     108     57    -28    123    127  62.0 -12.9  34158  289.55 0854.83
2009/04/23 12:25:57.8     138     46    -82    146    167  71.4 -36.3  34158  289.55 0854.83
2009/04/23 12:25:57.9     199     -3    -36    200    204  90.9 -10.3  34164  289.63 0854.83
2009/04/23 12:25:58.0     211     62      8    220    221  73.6   2.1  34146  289.35 0854.83
2009/04/23 12:25:58.1     108    -99     51    147    156 132.7  19.4  34162  289.60 0854.83
2009/04/23 12:25:58.2      86   -146     25    170    172 149.3   8.5  34160  289.58 0854.84
2009/04/23 12:25:58.3     140   -111     -7    179    180 128.4  -2.2  34158  289.55 0854.84
2009/04/23 12:25:58.4     111   -134     21    175    177 140.3   6.9  34160  289.57 0854.84
2009/04/23 12:25:58.5      99   -146    -20    177    179 145.7  -6.5  34158  289.53 0854.84
2009/04/23 12:25:58.6     152   -114      5    190    191 126.9   1.8  34158  289.53 0854.84
2009/04/23 12:25:58.7     150   -114     19    189    190 127.3   5.9  34158  289.53 0854.84
2009/04/23 12:25:58.8     184   -111     73    215    228 121.1  18.9  34156  289.50 0854.84
2009/04/23 12:25:58.9     197   -125     91    234    251 122.5  22.1  34158  289.54 0854.84
2009/04/23 12:25:59.0     178    -87     69    199    211 116.0  19.2  34154  289.48 0854.84
2009/04/23 12:25:59.1     153    -63     84    166    186 112.6  28.7  34154  289.46 0854.84
2009/04/23 12:25:59.2     162    -39     68    167    180 103.5  23.1  34154  289.48 0854.84
2009/04/23 12:25:59.3     150    -93    115    177    211 121.8  35.7  34156  289.52 0854.84
2009/04/23 12:25:59.4     111   -106    156    154    219 133.6  50.1  34158  289.53 0854.84
2009/04/23 12:25:59.5     -18    -30    105     36    111 210.7  81.2  34162  289.62 0854.84
2009/04/23 12:25:59.6      14   -129    164    130    209 173.7  57.5  34158  289.55 0854.84
2009/04/23 12:25:59.7       2   -154    213    155    263 179.0  60.5  34158  289.54 0854.84
2009/04/23 12:25:59.8     -56   -135    196    147    245 202.7  59.4  34160  289.58 0854.84
2009/04/23 12:25:59.9    -105   -231    185    254    314 204.5  39.8  34164  289.63 0854.84
2009/04/23 12:26:00.0    -119   -270    185    296    349 203.7  35.2  34168  289.71 0854.84
2009/04/23 12:26:00.1    -116   -239    206    266    336 205.9  41.7  34168  289.71 0854.84
2009/04/23 12:26:00.2     -99   -182    198    208    287 208.7  48.7  34172  289.76 0854.85
2009/04/23 12:26:00.3     -54   -208    209    215    299 194.7  49.4  34162  289.59 0854.85
2009/04/23 12:26:00.4     -88   -196    143    216    259 204.3  36.5  34162  289.59 0854.85
2009/04/23 12:26:00.5      -6   -148    165    149    222 182.6  53.0  34160  289.58 0854.85
2009/04/23 12:26:00.6      62    -87    138    107    174 144.4  58.5  34158  289.53 0854.85
2009/04/23 12:26:00.7      24    -21    117     32    121 131.3  84.9  34162  289.62 0854.85
2009/04/23 12:26:00.8      71     55    126     90    154  52.2  60.6  34162  289.62 0854.85
2009/04/23 12:26:00.9      62    -69    115     93    147 138.1  56.4  34154  289.48 0854.85
2009/04/23 12:26:01.0      79    -73    159    108    192 132.7  63.2  34162  289.60 0854.85
2009/04/23 12:26:01.1     123    -44    155    131    202 110.0  55.4  34160  289.58 0854.85
2009/04/23 12:26:01.2     138   -109    182    177    253 128.4  50.9  34156  289.52 0854.85
2009/04/23 12:26:01.3     154   -210    174    261    313 143.7  36.9  34154  289.47 0854.85
2009/04/23 12:26:01.4     148   -157    166    217    273 136.7  41.2  34154  289.46 0854.85
2009/04/23 12:26:01.5     181   -133    164    225    278 126.4  39.7  34154  289.47 0854.85
2009/04/23 12:26:01.6     169   -144    153    223    270 130.4  37.6  34152  289.42 0854.85
2009/04/23 12:26:01.7     114   -117    137    164    213 135.7  43.8  34152  289.45 0854.85
2009/04/23 12:26:01.8     148   -107    107    183    211 126.0  33.4  34152  289.43 0854.85
2009/04/23 12:26:01.9     115   -148    124    188    225 142.2  36.3  34154  289.48 0854.85
2009/04/23 12:26:02.0     225      0    124    226    257  90.1  31.3  34148  289.37 0854.85
2009/04/23 12:26:02.1     214    -75    197    227    300 109.3  45.8  34154  289.46 0854.85
2009/04/23 12:26:02.2     131     36    157    136    207  74.5  54.6  34146  289.35 0854.84
2009/04/23 12:26:02.3      80      4     51     81     95  86.5  35.5  34154  289.46 0854.84
2009/04/23 12:26:02.4      85    -13    -42     86     95  98.8 -32.2  34154  289.46 0854.84
2009/04/23 12:26:02.5      52   -101    -34    114    120 152.4 -16.6  34150  289.40 0854.84
2009/04/23 12:26:02.6      19   -177     -7    179    180 173.8  -2.2  34148  289.36 0854.84
2009/04/23 12:26:02.7     -25   -122     24    125    128 191.6  11.0  34150  289.41 0854.84
2009/04/23 12:26:02.8      41    -74     95     85    127 150.6  53.7  34156  289.50 0854.84
2009/04/23 12:26:02.9      10    -13    106     17    107 143.9  90.0  34160  289.58 0854.84
2009/04/23 12:26:03.0      -3    -47     49     48     68 184.5  49.1  34160  289.58 0854.84
2009/04/23 12:26:03.1     -11    -39     45     41     60 196.0  52.2  34162  289.60 0854.84
2009/04/23 12:26:03.2      -8    -48     23     49     54 189.8  27.1  34162  289.62 0854.84
2009/04/23 12:26:03.3       0    -84     34     85     91 180.4  22.5  34158  289.55 0854.84
2009/04/23 12:26:03.4     -31    -56     -4     65     66 208.9  -4.1  34160  289.58 0854.84
2009/04/23 12:26:03.5      15    -89    -41     91     99 170.2 -30.6  34164  289.65 0854.84
2009/04/23 12:26:03.6      -8   -106     34    107    113 184.4  17.9  34164  289.65 0854.84
2009/04/23 12:26:03.7      47   -233     20    238    239 168.5   4.9  34154  289.47 0854.84
2009/04/23 12:26:03.8       3   -241     56    242    249 179.1  13.2  34156  289.49 0854.84
2009/04/23 12:26:03.9      16   -268     21    269    270 176.5   4.6  34156  289.49 0854.84
2009/04/23 12:26:04.0      -7   -253     27    254    256 181.8   6.1  34158  289.53 0854.84
2009/04/23 12:26:04.1     -28   -307     35    309    312 185.3   6.6  34156  289.51 0854.84
2009/04/23 12:26:04.2     -77   -254     47    266    271 197.0  10.1  34166  289.66 0854.81
2009/04/23 12:26:04.3     -27   -220     64    222    232 187.1  16.0  34158  289.55 0854.81
2009/04/23 12:26:04.4     -73   -236     52    248    254 197.2  12.0  34158  289.53 0854.81
2009/04/23 12:26:04.5     -73   -201      3    214    215 200.0   1.0  34158  289.55 0854.81
2009/04/23 12:26:04.6     -71   -334    106    342    359 192.1  17.2  34156  289.50 0854.81
2009/04/23 12:26:04.7    -111   -318    -60    337    343 199.3 -10.2  34164  289.64 0854.81
2009/04/23 12:26:04.8     -78   -292    -90    303    317 195.1 -16.6  34156  289.51 0854.81
2009/04/23 12:26:04.9       5   -313    -87    314    325 179.0 -20.1  34156  289.51 0854.81
2009/04/23 12:26:05.0      53   -395    -26    399    400 172.3  -3.7  34152  289.42 0854.81
2009/04/23 12:26:05.1     168   -350    126    389    410 154.4  18.0  34156  289.51 0854.81
2009/04/23 12:26:05.2     117   -241    105    268    287 154.1  22.5  34156  289.51 0854.81
2009/04/23 12:26:05.3       4   -313    112    314    333 179.1  20.6  34158  289.54 0854.81
2009/04/23 12:26:05.4     117   -349   -116    369    386 161.4 -22.5  34158  289.55 0854.81
2009/04/23 12:26:05.5     178   -363   -131    405    425 153.8 -23.2  34162  289.60 0854.81
2009/04/23 12:26:05.6     181   -301    -19    352    353 148.9  -3.1  34156  289.50 0854.81
2009/04/23 12:26:05.7     173   -146     58    227    235 130.2  14.5  34156  289.50 0854.81
2009/04/23 12:26:05.8     231   -164     15    284    285 125.5   3.1  34154  289.47 0854.81
2009/04/23 12:26:05.9     223   -156    -44    273    277 125.0  -9.3  34150  289.41 0854.81
2009/04/23 12:26:06.0     171   -164     57    238    245 133.8  13.7  34152  289.42 0854.81
2009/04/23 12:26:06.1     166   -134    -55    214    222 129.1 -14.5  34152  289.43 0854.81
2009/04/23 12:26:06.2     138    -49    -39    147    153 109.5 -15.0  34152  289.45 0854.82
2009/04/23 12:26:06.3     150   -105    -66    184    195 124.9 -24.8  34154  289.48 0854.82
2009/04/23 12:26:06.4     163    -87    -21    186    188 118.2  -6.7  34154  289.46 0854.82
2009/04/23 12:26:06.5     112      0     44    113    121  90.0  22.5  34154  289.46 0854.82
2009/04/23 12:26:06.6     223    106     38    248    251  64.5   8.8  34158  289.53 0854.82
2009/04/23 12:26:06.7     279     71    126    289    315  75.6  25.0  34158  289.54 0854.82
2009/04/23 12:26:06.8     203    104    130    229    263  62.7  32.1  34158  289.54 0854.82
2009/04/23 12:26:06.9     230     63    161    239    288  74.5  37.4  34160  289.58 0854.82
2009/04/23 12:26:07.0      86     54    224    102    246  57.5  74.0  34152  289.43 0854.82
2009/04/23 12:26:07.1     149     55    202    159    257  69.6  57.9  34152  289.45 0854.82
2009/04/23 12:26:07.2     234     43    192    238    305  79.4  43.5  34162  289.61 0854.82
2009/04/23 12:26:07.3     221    109    199    247    317  63.8  43.0  34158  289.54 0854.82
2009/04/23 12:26:07.4     176     96    235    201    309  61.2  55.4  34160  289.56 0854.82
2009/04/23 12:26:07.5     152     82    216    173    276  61.6  57.3  34158  289.53 0854.82
2009/04/23 12:26:07.6     197    117    258    230    345  59.3  53.7  34162  289.59 0854.82
2009/04/23 12:26:07.7     222    124    282    255    380  60.7  53.3  34164  289.64 0854.82
2009/04/23 12:26:07.8     296    135    326    326    461  65.5  50.1  34168  289.70 0854.82
2009/04/23 12:26:07.9     203    139    347    247    425  55.6  61.2  34174  289.82 0854.82
2009/04/23 12:26:08.0     241    133    340    276    437  61.1  56.9  34176  289.84 0854.82
2009/04/23 12:26:08.1     178    118    310    214    376  56.5  62.2  34194  290.16 0854.82
2009/04/23 12:26:08.2      -8     93    232     94    250 354.7  76.8  34184  289.99 0854.79
2009/04/23 12:26:08.3     -33    109    204    115    234 343.1  68.3  34186  290.02 0854.79
2009/04/23 12:26:08.4      97    -64    216    117    245 123.3  69.6  34186  290.01 0854.79
2009/04/23 12:26:08.5     122     32    235    127    267  75.0  69.3  34170  289.75 0854.79
2009/04/23 12:26:08.6      28   -230    159    232    281 172.9  37.6  34178  289.88 0854.79
2009/04/23 12:26:08.7      47    -51    169     70    182 136.8  76.8  34170  289.75 0854.79
2009/04/23 12:26:08.8     110    -19    164    112    198 100.1  62.6  34156  289.52 0854.79
2009/04/23 12:26:08.9     102   -110    179    151    234 137.2  55.6  34158  289.55 0854.79
2009/04/23 12:26:09.0      17    -36    140     40    145 154.5  83.9  34162  289.62 0854.79
2009/04/23 12:26:09.1      48      3    163     49    170  85.6  82.5  34158  289.55 0854.79
2009/04/23 12:26:09.2      26   -170    115    173    207 171.1  36.7  34154  289.48 0854.79
2009/04/23 12:26:09.3     -32   -323     74    325    334 185.7  12.9  34156  289.52 0854.79
2009/04/23 12:26:09.4     -36   -289    120    292    315 187.2  23.7  34158  289.54 0854.79
2009/04/23 12:26:09.5      -7   -156     58    157    167 182.6  21.0  34154  289.48 0854.79
2009/04/23 12:26:09.6      66      5    142     67    157  85.6  73.2  34160  289.58 0854.79
2009/04/23 12:26:09.7      88   -191    140    211    253 155.1  36.5  34156  289.49 0854.79
2009/04/23 12:26:09.8      15   -199    131    200    239 175.6  36.5  34146  289.33 0854.79
2009/04/23 12:26:09.9      68   -272    116    281    304 165.8  23.6  34156  289.51 0854.79
2009/04/23 12:26:10.0     149   -249    -10    291    292 149.0  -2.1  34158  289.54 0854.79
2009/04/23 12:26:10.1     171   -164     37    238    241 133.8   8.9  34158  289.54 0854.79
2009/04/23 12:26:10.2     163   -192     61    253    261 139.7  13.7  34160  289.56 0854.76
2009/04/23 12:26:10.3     180   -184     44    258    262 135.7   9.9  34164  289.64 0854.76
2009/04/23 12:26:10.4     153   -197    -55    250    257 142.2 -12.4  34166  289.66 0854.76
2009/04/23 12:26:10.5     164   -197    -42    257    261 140.3  -9.3  34162  289.61 0854.76
2009/04/23 12:26:10.6      76   -231    112    244    268 161.7  26.6  34158  289.53 0854.76
2009/04/23 12:26:10.7     -62   -187     69    198    210 198.5  19.2  34156  289.52 0854.76
2009/04/23 12:26:10.8     -15   -101    -84    103    132 188.9 -48.1  34162  289.62 0854.76
2009/04/23 12:26:10.9       0    -22    -93     23     95 180.9 -90.0  34158  289.55 0854.76
2009/04/23 12:26:11.0     -14    -39    -53     42     67 200.9 -61.9  34164  289.63 0854.76
2009/04/23 12:26:11.1     -68    -94     18    117    119 216.1   8.9  34160  289.57 0854.76
2009/04/23 12:26:11.2    -166    -80     92    185    206 244.2  28.2  34160  289.57 0854.74
2009/04/23 12:26:11.3    -177    -42     73    183    197 256.5  23.0  34160  289.58 0854.74
2009/04/23 12:26:11.4    -165    -25     59    167    178 261.2  19.6  34158  289.53 0854.74
2009/04/23 12:26:11.5    -109    -42     73    117    137 248.7  35.5  34158  289.53 0854.74
2009/04/23 12:26:11.6    -102     27     34    106    112 285.1  17.9  34160  289.57 0854.74
2009/04/23 12:26:11.7     -47     22     37     53     64 295.4  38.6  34160  289.58 0854.74
2009/04/23 12:26:11.8      37    -62     82     73    109 149.3  53.7  34166  289.69 0854.74
2009/04/23 12:26:11.9      28    -92     34     97    103 163.1  19.4  34164  289.65 0854.74
2009/04/23 12:26:12.0      42   -105    -22    114    117 158.2 -11.3  34168  289.72 0854.74
2009/04/23 12:26:12.1      25    -85    -49     89    101 163.5 -35.8  34166  289.67 0854.74
2009/04/23 12:26:12.2      42    -96    -41    105    112 156.4 -26.9  34162  289.60 0854.74
2009/04/23 12:26:12.3      56    -70    -19     91     93 141.3 -11.9  34160  289.58 0854.74
2009/04/23 12:26:12.4     -22    -98    -12    101    102 192.9  -7.2  34162  289.60 0854.74
2009/04/23 12:26:12.5     -70   -109      6    130    131 212.6   2.9  34162  289.60 0854.74
2009/04/23 12:26:12.6     -45   -156     -7    163    164 196.0  -2.8  34162  289.60 0854.74
2009/04/23 12:26:12.7     -34   -184    -33    188    191 190.5 -10.1  34158  289.53 0854.74
2009/04/23 12:26:12.8      43   -141    -19    148    150 163.1  -7.3  34154  289.48 0854.74
2009/04/23 12:26:12.9       4   -149     56    150    160 178.2  21.3  34154  289.46 0854.74
2009/04/23 12:26:13.0     -14    -42    113     45    121 199.2  77.1  34164  289.63 0854.74
2009/04/23 12:26:13.1    -125    -74     98    146    175 239.3  36.7  34160  289.58 0854.74
2009/04/23 12:26:13.2    -137    -59     35    150    155 246.5  13.1  34160  289.57 0854.71
2009/04/23 12:26:13.3     -69    -76    110    103    150 222.3  52.2  34162  289.62 0854.71
2009/04/23 12:26:13.4    -174    -96     98    199    221 241.1  28.0  34170  289.75 0854.71
2009/04/23 12:26:13.5    -249   -100     55    269    275 248.0  11.6  34172  289.78 0854.71
2009/04/23 12:26:13.6    -176   -131     46    220    225 233.4  12.0  34172  289.79 0854.71
2009/04/23 12:26:13.7    -112   -154     74    191    204 216.1  22.0  34168  289.70 0854.71
2009/04/23 12:26:13.8     -68   -107     23    127    130 212.5  10.6  34170  289.75 0854.71
2009/04/23 12:26:13.9     -95    -35     56    102    116 249.6  31.4  34168  289.72 0854.71
2009/04/23 12:26:14.0    -106      3    -29    107    111 271.7 -15.4  34168  289.72 0854.71
2009/04/23 12:26:14.1    -241    -52    -54    247    253 257.6 -12.4  34162  289.59 0854.71
2009/04/23 12:26:14.2    -293    -96    -36    309    312 251.8  -6.7  34164  289.63 0854.71
2009/04/23 12:26:14.3    -301   -145    -93    335    348 244.2 -15.5  34160  289.57 0854.71
2009/04/23 12:26:14.4    -211    -81     66    227    237 248.9  16.3  34162  289.59 0854.71
2009/04/23 12:26:14.5    -191   -130     46    232    237 235.8  11.4  34166  289.66 0854.71
2009/04/23 12:26:14.6    -155   -117    -62    195    204 232.9 -22.8  34156  289.52 0854.71
2009/04/23 12:26:14.7    -127   -124    -82    178    195 225.6 -30.8  34158  289.53 0854.71
2009/04/23 12:26:14.8    -136    -56   -117    148    188 247.4 -46.8  34158  289.55 0854.71
2009/04/23 12:26:14.9     -46   -228     13    233    234 191.6   3.3  34158  289.53 0854.71
2009/04/23 12:26:15.0     -51   -195    -60    202    211 194.9 -16.6  34158  289.55 0854.71
2009/04/23 12:26:15.1     -92   -221     21    240    241 202.7   5.2  34158  289.54 0854.71
2009/04/23 12:26:15.2    -133   -241     33    276    279 209.0   6.9  34158  289.53 0854.70
2009/04/23 12:26:15.3    -141   -159    -72    213    225 221.5 -18.7  34158  289.53 0854.70
2009/04/23 12:26:15.4    -108   -116    -47    159    165 222.8 -21.5  34160  289.57 0854.70
2009/04/23 12:26:15.5     -71   -113    -59    134    146 212.5 -29.5  34156  289.50 0854.70
2009/04/23 12:26:15.6     -78   -132    -32    154    158 210.8 -11.9  34156  289.50 0854.70
2009/04/23 12:26:15.7     -80   -147    -31    168    171 208.7 -10.5  34154  289.46 0854.70
2009/04/23 12:26:15.8     -75   -187    -68    202    214 201.8 -18.7  34156  289.52 0854.70
2009/04/23 12:26:15.9    -124   -234    -84    265    277 208.0 -22.5  34154  289.46 0854.70
2009/04/23 12:26:16.0    -203   -230    -95    308    323 221.4 -17.2  34154  289.46 0854.70
2009/04/23 12:26:16.1    -200   -182    -86    271    285 227.8 -17.6  34156  289.49 0854.70
2009/04/23 12:26:16.2    -191   -245   -126    311    335 217.9 -27.6  34158  289.53 0854.70
2009/04/23 12:26:16.3    -153   -313   -106    349    365 206.1 -17.0  34162  289.59 0854.70
2009/04/23 12:26:16.4    -110   -242   -136    266    298 204.5 -33.7  34148  289.37 0854.70
2009/04/23 12:26:16.5     -93   -220   -177    239    297 202.9 -44.5  34150  289.39 0854.70
2009/04/23 12:26:16.6    -112   -195   -161    225    276 209.9 -43.7  34146  289.34 0854.70
2009/04/23 12:26:16.7    -160   -160   -123    227    258 225.1 -35.4  34158  289.54 0854.70
2009/04/23 12:26:16.8    -107   -177   -100    207    229 211.2 -31.7  34152  289.43 0854.70
2009/04/23 12:26:16.9     -44   -133   -135    141    195 198.5 -53.4  34152  289.45 0854.70
2009/04/23 12:26:17.0     -42   -102    -91    111    143 202.3 -48.1  34156  289.52 0854.70
2009/04/23 12:26:17.1      38   -130   -103    136    170 163.5 -45.6  34154  289.46 0854.70
2009/04/23 12:26:17.2      36   -139   -115    144    184 165.3 -47.1  34154  289.46 0854.72
2009/04/23 12:26:17.3      48   -213   -106    219    243 167.3 -32.2  34152  289.42 0854.72
2009/04/23 12:26:17.4     -16   -208    -84    209    225 184.5 -27.5  34156  289.50 0854.72
2009/04/23 12:26:17.5     -20   -266    -86    267    281 184.5 -17.9  34154  289.47 0854.72
2009/04/23 12:26:17.6      85   -243    -82    258    270 160.6 -23.0  34150  289.41 0854.72
2009/04/23 12:26:17.7      78   -232    -82    245    258 161.3 -23.6  34148  289.36 0854.72
2009/04/23 12:26:17.8      94   -235    -79    254    266 158.2 -22.5  34150  289.39 0854.72
2009/04/23 12:26:17.9      93   -255   -115    272    295 160.0 -28.6  34156  289.49 0854.72
2009/04/23 12:26:18.0      99   -227    -88    248    263 156.4 -24.4  34156  289.51 0854.72
2009/04/23 12:26:18.1     111   -141    -56    180    188 141.7 -22.5  34154  289.48 0854.72
2009/04/23 12:26:18.2      22    -41    -77     47     90 151.9 -69.5  34158  289.53 0854.72
2009/04/23 12:26:18.4      21    -62    -93     66    114 160.8 -65.9  34156  289.52 0854.72
2009/04/23 12:26:18.4      30    -84    -85     90    123 160.4 -52.9  34160  289.57 0854.72
2009/04/23 12:26:18.5      51    -98    -80    111    136 152.4 -43.9  34156  289.52 0854.72
2009/04/23 12:26:18.6      22    -35    -53     42     67 148.4 -61.9  34158  289.55 0854.72
2009/04/23 12:26:18.7      31   -105    -75    110    133 163.5 -41.8  34156  289.52 0854.72
2009/04/23 12:26:18.8      15    -96    -75     98    123 170.7 -46.0  34156  289.50 0854.72
2009/04/23 12:26:18.9       2    -69    -47     70     84 178.2 -40.9  34156  289.52 0854.72
2009/04/23 12:26:19.0      36   -111    -54    117    128 161.7 -31.0  34158  289.53 0854.72
2009/04/23 12:26:19.1     104    -80    -12    132    133 127.8  -5.2  34156  289.50 0854.72
2009/04/23 12:26:19.2      86    -77     12    116    117 131.8   5.9  34154  289.48 0854.75
2009/04/23 12:26:19.3      87   -121     41    150    156 144.4  15.3  34154  289.46 0854.75
2009/04/23 12:26:19.4      46   -168     11    175    176 164.6   3.6  34152  289.45 0854.75
2009/04/23 12:26:19.5      75   -194     17    209    210 158.8   4.9  34150  289.41 0854.75
2009/04/23 12:26:19.6     117   -186     62    220    229 147.7  15.8  34150  289.41 0854.75
2009/04/23 12:26:19.7     120   -120     90    170    192 135.0  30.3  34152  289.43 0854.75
2009/04/23 12:26:19.8     100    -41     98    109    146 112.6  46.9  34156  289.50 0854.75
2009/04/23 12:26:19.9      72    -82     90    110    142 139.0  43.7  34154  289.48 0854.75
2009/04/23 12:26:20.0      58   -121     84    135    159 154.1  34.8  34152  289.43 0854.75
2009/04/23 12:26:20.1      42   -117     69    125    142 159.9  31.4  34152  289.43 0854.75
2009/04/23 12:26:20.2      37   -139     85    145    168 164.8  33.1  34152  289.45 0854.75
2009/04/23 12:26:20.3       0   -129     43    130    138 180.4  18.4  34152  289.43 0854.75
2009/04/23 12:26:20.4     -18   -131     26    133    136 188.1  11.1  34156  289.50 0854.75
2009/04/23 12:26:20.5       4   -136     22    137    139 178.2   9.5  34152  289.45 0854.75
2009/04/23 12:26:20.6     -25   -105     45    109    117 193.8  23.6  34154  289.46 0854.75
2009/04/23 12:26:20.7     -37   -129     80    135    156 196.0  33.1  34150  289.41 0854.75
2009/04/23 12:26:20.9     -14   -191     94    192    213 184.5  28.0  34152  289.43 0854.75
2009/04/23 12:26:21.0      20   -151     98    153    181 172.4  35.6  34150  289.41 0854.75
2009/04/23 12:26:21.0      37   -129     83    135    158 164.0  34.4  34150  289.41 0854.75
2009/04/23 12:26:21.1      27   -151     94    154    180 169.8  34.4  34152  289.45 0854.75
2009/04/23 12:26:21.3      17   -158     93    159    184 173.7  33.1  34150  289.41 0854.78
2009/04/23 12:26:21.4      33   -141     67    145    159 166.6  26.6  34150  289.40 0854.78
2009/04/23 12:26:21.5       1   -101     65    102    120 179.0  35.5  34150  289.40 0854.78
2009/04/23 12:26:21.6      62   -146     83    159    179 156.8  29.8  34152  289.43 0854.78
2009/04/23 12:26:21.7       9   -163     58    164    173 176.6  20.0  34150  289.40 0854.78
2009/04/23 12:26:21.8      37   -137     62    142    154 164.9  25.1  34152  289.43 0854.78
2009/04/23 12:26:21.9      34   -206     74    209    221 170.4  20.0  34154  289.46 0854.78
2009/04/23 12:26:22.0      19   -234     27    235    237 175.1   6.7  34152  289.42 0854.78
2009/04/23 12:26:22.1     -22   -171     61    173    184 187.6  19.4  34152  289.45 0854.78
2009/04/23 12:26:22.2      15   -196     10    197    198 175.6   3.1  34152  289.43 0854.78
2009/04/23 12:26:22.3     -29   -182     69    185    197 189.1  21.3  34152  289.45 0854.78
2009/04/23 12:26:22.4     -56   -124    157    137    208 204.5  54.3  34148  289.38 0854.78
2009/04/23 12:26:22.5    -111    -74    117    134    177 236.3  45.8  34154  289.48 0854.78
2009/04/23 12:26:22.6    -104    -94    103    141    174 227.8  39.9  34156  289.50 0854.78
2009/04/23 12:26:22.7    -133   -108     78    172    188 230.9  26.4  34152  289.45 0854.78
2009/04/23 12:26:22.8     -60    -62     61     87    106 223.7  38.6  34152  289.43 0854.78
2009/04/23 12:26:22.9     -33    -79     35     86     92 202.7  23.0  34152  289.45 0854.78
2009/04/23 12:26:23.0     -47    -55     35     73     80 220.5  27.8  34152  289.43 0854.78
2009/04/23 12:26:23.1     -21    -11     47     24     52 241.1  71.9  34154  289.48 0854.78
2009/04/23 12:26:23.2     -37    -12     53     39     65 251.8  60.5  34156  289.50 0854.78
2009/04/23 12:26:23.3     -15     58     72     61     94 344.8  55.4  34158  289.55 0854.76
2009/04/23 12:26:23.4      12     21     80     25     83  29.0  81.8  34160  289.58 0854.76
2009/04/23 12:26:23.5      35     39     56     53     77  41.4  51.2  34158  289.53 0854.76
2009/04/23 12:26:23.6      27     90     60     95    112  16.9  35.5  34156  289.52 0854.76
2009/04/23 12:26:23.7      19     94     60     96    113  11.6  35.5  34154  289.48 0854.76
2009/04/23 12:26:23.8      11    101     60    102    118   6.7  33.5  34158  289.53 0854.76
2009/04/23 12:26:23.9      -2    122     38    123    129 358.6  17.3  34154  289.46 0854.76
2009/04/23 12:26:24.0       0     96     39     97    104 359.5  23.0  34154  289.48 0854.76
2009/04/23 12:26:24.1     -12     60     42     62     74 348.4  36.5  34154  289.48 0854.76
2009/04/23 12:26:24.2     -19     64     42     67     79 343.1  35.0  34154  289.48 0854.76
2009/04/23 12:26:24.3      22     33     56     40     68  34.3  60.6  34158  289.53 0854.76
2009/04/23 12:26:24.4       7     40     69     41     80  10.7  66.8  34158  289.53 0854.76
2009/04/23 12:26:24.5     -27     60     57     66     87 335.5  45.8  34156  289.52 0854.76
2009/04/23 12:26:24.6     -89     15     30     91     96 279.7  18.4  34158  289.53 0854.76
2009/04/23 12:26:24.7     -91     -7    -11     92     93 265.6  -7.2  34162  289.60 0854.76
2009/04/23 12:26:24.8     -76    -36    -29     85     89 244.6 -23.3  34164  289.65 0854.76
2009/04/23 12:26:24.9     -57    -57    -21     82     85 225.0 -14.5  34164  289.63 0854.76
2009/04/23 12:26:25.0     -78    -51    -44     94    103 237.1 -31.5  34160  289.57 0854.76
2009/04/23 12:26:25.1     -80    -40    -14     90     92 242.9  -8.8  34156  289.52 0854.76
2009/04/23 12:26:25.2     -71    -46     15     85     87 236.7  10.1  34162  289.62 0854.76
2009/04/23 12:26:25.3     -89    -61     16    109    111 235.4   8.5  34160  289.57 0854.75
2009/04/23 12:26:25.4     -38    -75     20     85     88 206.7  13.7  34158  289.55 0854.75
2009/04/23 12:26:25.5       5    -66      3     67     68 175.5   2.9  34160  289.57 0854.75
2009/04/23 12:26:25.6      13    -75      5     77     78 170.2   3.8  34158  289.55 0854.75
2009/04/23 12:26:25.7     -18    -55     11     58     60 198.3  11.1  34156  289.52 0854.75
2009/04/23 12:26:25.8     -84    -36      5     92     93 246.9   3.3  34160  289.57 0854.75
2009/04/23 12:26:25.9    -140    -32     17    144    146 256.8   6.9  34160  289.58 0854.75
2009/04/23 12:26:26.0    -116    -87     41    145    151 233.1  15.8  34162  289.62 0854.75
2009/04/23 12:26:26.1    -121    -53     -5    133    134 246.5  -2.2  34162  289.62 0854.75
2009/04/23 12:26:26.2    -127    -25      6    130    131 258.5   2.9  34160  289.58 0854.75
2009/04/23 12:26:26.3    -114    -54      6    127    128 244.8   2.8  34158  289.55 0854.75
2009/04/23 12:26:26.4     -73    -73     26    104    108 224.7  14.3  34160  289.57 0854.75
2009/04/23 12:26:26.5    -104    -88     49    137    145 230.0  20.0  34162  289.62 0854.75
2009/04/23 12:26:26.6    -112    -97     66    149    162 229.1  25.1  34164  289.63 0854.75
2009/04/23 12:26:26.7    -118    -98     37    154    159 230.4  13.5  34162  289.60 0854.75
2009/04/23 12:26:26.8    -117   -132     63    177    187 221.4  20.2  34160  289.58 0854.75
2009/04/23 12:26:26.9     -96   -141     63    171    182 214.3  21.0  34158  289.55 0854.75
2009/04/23 12:26:27.0     -98   -137     74    169    184 215.6  25.1  34160  289.58 0854.75
2009/04/23 12:26:27.1    -133   -125     67    183    194 226.9  20.4  34160  289.57 0854.75
2009/04/23 12:26:27.2    -134   -125     35    184    188 226.9  11.0  34156  289.52 0854.75
2009/04/23 12:26:27.3    -130   -123      8    180    181 226.7   2.8  34158  289.55 0854.75
2009/04/23 12:26:27.4    -131   -156      9    204    205 220.1   2.8  34158  289.55 0854.75
2009/04/23 12:26:27.5    -131   -139      9    192    193 223.3   2.8  34160  289.57 0854.75
2009/04/23 12:26:27.6    -136   -136     37    193    197 224.9  11.1  34160  289.58 0854.75
2009/04/23 12:26:27.7    -112   -129     51    171    179 221.0  16.6  34160  289.58 0854.75
2009/04/23 12:26:27.8    -125   -204      8    240    241 211.6   2.1  34156  289.49 0854.75
2009/04/23 12:26:27.9    -143   -166      9    220    221 220.8   2.5  34156  289.50 0854.75
2009/04/23 12:26:28.0    -129   -165     25    210    212 217.9   6.9  34156  289.50 0854.75
2009/04/23 12:26:28.1    -125   -175     42    216    221 215.6  11.0  34160  289.57 0854.75
2009/04/23 12:26:28.2    -169   -180     18    247    248 223.2   4.2  34158  289.53 0854.75
2009/04/23 12:26:28.3    -201   -139     21    245    246 235.4   5.0  34168  289.70 0854.75
2009/04/23 12:26:28.4    -231   -147     28    274    276 237.5   5.9  34164  289.64 0854.75
2009/04/23 12:26:28.5    -210   -168     13    270    271 231.4   2.9  34164  289.64 0854.75
2009/04/23 12:26:28.6    -234   -182    -32    297    299 232.0  -6.2  34160  289.58 0854.75
2009/04/23 12:26:28.7    -157   -156    -34    222    225 225.2  -8.8  34166  289.67 0854.75
2009/04/23 12:26:28.8    -200   -224    -25    301    303 221.7  -4.9  34164  289.64 0854.75
2009/04/23 12:26:28.9    -198   -198     11    281    282 225.0   2.3  34166  289.66 0854.75
2009/04/23 12:26:29.0     -83   -132     -1    157    158 212.1  -0.5  34170  289.75 0854.75
2009/04/23 12:26:29.1     -73    -65    -43     98    107 228.2 -29.0  34164  289.65 0854.75
2009/04/23 12:26:29.2     -72   -148     12    165    166 206.1   4.4  34168  289.70 0854.75
2009/04/23 12:26:29.3     -87   -120    -18    149    151 216.1  -7.2  34166  289.69 0854.77
2009/04/23 12:26:29.4    -118    -93    -29    151    154 231.8 -10.9  34168  289.70 0854.77
2009/04/23 12:26:29.5     -67   -186     69    198    210 199.8  19.2  34158  289.53 0854.77
2009/04/23 12:26:29.6    -106   -206     49    232    238 207.2  12.0  34158  289.54 0854.77
2009/04/23 12:26:29.7    -121   -183     73    220    232 213.6  18.4  34160  289.58 0854.77
2009/04/23 12:26:29.8    -138   -144     39    200    204 223.7  11.1  34172  289.77 0854.77
2009/04/23 12:26:29.9    -126   -224     13    258    259 209.4   2.9  34158  289.54 0854.77
2009/04/23 12:26:30.0    -168   -176     47    244    249 223.7  11.1  34158  289.53 0854.77
2009/04/23 12:26:30.1    -186   -193     27    269    271 223.9   5.9  34172  289.78 0854.77
2009/04/23 12:26:30.2    -172   -162     37    237    240 226.9   9.0  34164  289.63 0854.77
2009/04/23 12:26:30.3    -154   -137     20    207    209 228.2   5.7  34162  289.62 0854.77
2009/04/23 12:26:30.4    -154   -189     38    244    248 219.2   9.0  34156  289.49 0854.77
2009/04/23 12:26:30.5    -119   -228     -5    258    259 207.6  -1.3  34158  289.54 0854.77
2009/04/23 12:26:30.6     -12   -226     13    227    228 183.1   3.3  34156  289.50 0854.77
2009/04/23 12:26:30.7       0   -208     10    209    210 180.2   2.9  34156  289.50 0854.77
2009/04/23 12:26:30.8       7   -244     25    245    247 178.2   5.9  34156  289.51 0854.77
2009/04/23 12:26:30.9     -15   -245      3    246    247 183.5   0.8  34158  289.53 0854.77
2009/04/23 12:26:31.0     -88   -228    -35    245    248 201.2  -8.3  34158  289.54 0854.77
2009/04/23 12:26:31.1     -72   -216     11    228    229 198.5   2.8  34154  289.48 0854.77
2009/04/23 12:26:31.2     -60   -196     48    206    212 197.0  13.1  34156  289.52 0854.77
2009/04/23 12:26:31.3     -92   -194     -4    216    217 205.5  -1.1  34156  289.52 0854.76
2009/04/23 12:26:31.4     -95   -235     45    254    259 202.1  10.1  34158  289.54 0854.76
2009/04/23 12:26:31.5    -121   -235     14    265    266 207.2   3.1  34156  289.51 0854.76
2009/04/23 12:26:31.6    -132   -208    -58    247    254 212.5 -13.4  34158  289.53 0854.76
2009/04/23 12:26:31.7    -170   -113    -66    205    216 236.5 -17.9  34160  289.58 0854.76
2009/04/23 12:26:31.8     -39   -195    -18    199    200 191.5  -5.2  34154  289.48 0854.76
2009/04/23 12:26:31.9       7   -162      3    163    164 177.5   1.2  34152  289.45 0854.76
2009/04/23 12:26:32.0       8   -111     30    112    117 175.5  15.2  34156  289.50 0854.76
2009/04/23 12:26:32.1       1   -113     29    114    118 179.1  14.3  34154  289.48 0854.76
2009/04/23 12:26:32.2       3   -181     -3    182    183 178.9  -1.1  34156  289.50 0854.76
2009/04/23 12:26:32.3      32   -190     45    193    199 170.4  13.1  34152  289.45 0854.74
2009/04/23 12:26:32.4     -41   -199     55    204    212 191.8  15.3  34154  289.48 0854.74
2009/04/23 12:26:32.5     -14   -213     80    214    228 184.0  21.3  34154  289.48 0854.74
2009/04/23 12:26:32.6    -103   -218     16    242    243 205.4   3.8  34154  289.47 0854.74
2009/04/23 12:26:32.7     -20   -173     65    175    186 186.9  21.5  34154  289.48 0854.74
2009/04/23 12:26:32.8      50   -171    103    179    206 163.7  32.7  34154  289.48 0854.74
2009/04/23 12:26:32.9      97   -209    107    231    254 155.1  26.6  34154  289.46 0854.74
2009/04/23 12:26:33.0      71   -240      4    251    252 163.5   1.0  34154  289.46 0854.74
2009/04/23 12:26:33.1      -5   -213     13    214    215 181.6   3.6  34156  289.50 0854.74
2009/04/23 12:26:33.2      43   -217     20    222    223 168.7   5.2  34156  289.50 0854.74
2009/04/23 12:26:33.3      32   -242      3    245    246 172.4   0.8  34158  289.53 0854.74
2009/04/23 12:26:33.4      38   -225    -12    229    230 170.4  -3.1  34156  289.50 0854.74
2009/04/23 12:26:33.5      34   -217    -24    220    222 170.9  -6.2  34160  289.57 0854.74
2009/04/23 12:26:33.6      65   -208     -8    219    220 162.6  -2.1  34154  289.48 0854.74
2009/04/23 12:26:33.7     106   -222    -31    247    250 154.4  -7.3  34154  289.47 0854.74
2009/04/23 12:26:33.8      91   -186    -27    208    210 153.9  -7.5  34154  289.48 0854.74
2009/04/23 12:26:33.9      99   -190     -7    215    216 152.4  -2.1  34154  289.48 0854.74
2009/04/23 12:26:34.0     177   -234     75    294    304 142.8  14.3  34156  289.49 0854.74
2009/04/23 12:26:34.1     167   -222     72    279    289 143.0  14.5  34152  289.44 0854.74
2009/04/23 12:26:34.2     117   -230     42    259    263 153.0   9.3  34154  289.46 0854.74
2009/04/23 12:26:34.3     107   -279     68    299    307 159.0  12.9  34160  289.58 0854.72
2009/04/23 12:26:34.4     104   -256     52    277    282 157.9  10.8  34160  289.56 0854.72
2009/04/23 12:26:34.5     161   -194     63    253    261 140.3  14.2  34162  289.61 0854.72
2009/04/23 12:26:34.6     171   -239      4    294    295 144.4   0.8  34158  289.53 0854.72
2009/04/23 12:26:34.7     153   -251    -37    295    298 148.6  -7.2  34158  289.53 0854.72
2009/04/23 12:26:34.8     123   -321    -10    344    345 159.0  -1.7  34158  289.54 0854.72
2009/04/23 12:26:34.9     114   -250      4    275    276 155.5   1.0  34158  289.53 0854.72
2009/04/23 12:26:35.0     122   -201     38    236    240 148.8   9.3  34158  289.54 0854.72
2009/04/23 12:26:35.1      98   -226     49    247    252 156.4  11.4  34158  289.54 0854.72
2009/04/23 12:26:35.2     138   -169      9    219    220 140.8   2.5  34156  289.52 0854.72
2009/04/23 12:26:35.3     126   -153    -25    199    201 140.6  -7.3  34158  289.55 0854.72
2009/04/23 12:26:35.4      43   -213    -23    218    220 168.4  -6.2  34158  289.55 0854.72
2009/04/23 12:26:35.5     134   -196      7    238    239 145.7   1.8  34158  289.53 0854.72
2009/04/23 12:26:35.6     148   -217      3    263    264 145.7   0.8  34158  289.54 0854.72
2009/04/23 12:26:35.7      36   -216     96    220    240 170.4  25.1  34158  289.53 0854.72
2009/04/23 12:26:35.8     -12   -184     82    185    202 184.0  25.2  34156  289.50 0854.72
2009/04/23 12:26:35.9     -23   -152     23    154    156 188.9   8.8  34158  289.55 0854.72
2009/04/23 12:26:36.0     -47   -139      7    147    148 198.7   2.9  34160  289.57 0854.72
2009/04/23 12:26:36.1     -30   -150     43    154    161 191.6  15.8  34158  289.55 0854.72
2009/04/23 12:26:36.2     -55   -138     38    149    154 201.8  14.3  34156  289.52 0854.72
2009/04/23 12:26:36.3     -90   -146     24    172    174 211.9   8.0  34160  289.57 0854.73
2009/04/23 12:26:36.4     -58   -143     11    155    156 202.3   4.2  34158  289.53 0854.73
2009/04/23 12:26:36.5     -85   -169     16    190    191 206.7   4.9  34156  289.52 0854.73
2009/04/23 12:26:36.6    -106   -192     34    220    223 209.0   9.0  34158  289.53 0854.73
2009/04/23 12:26:36.7    -108   -221     18    247    248 206.1   4.2  34160  289.56 0854.73
2009/04/23 12:26:36.8    -137   -290     27    321    323 205.4   4.9  34160  289.56 0854.73
2009/04/23 12:26:36.9    -175   -226     -6    287    288 217.8  -1.3  34162  289.59 0854.73
2009/04/23 12:26:37.0    -119   -213    -22    245    247 209.2  -5.2  34160  289.58 0854.73
2009/04/23 12:26:37.1     -52   -199    -26    206    208 194.7  -7.3  34158  289.53 0854.73
2009/04/23 12:26:37.2     -59   -197     17    206    207 196.9   5.0  34156  289.52 0854.73
2009/04/23 12:26:37.3     -99   -248     17    268    269 201.9   3.6  34156  289.49 0854.73
2009/04/23 12:26:37.4     -20   -273     11    274    275 184.4   2.5  34152  289.44 0854.73
2009/04/23 12:26:37.5      72   -243     -9    254    255 163.5  -2.2  34154  289.46 0854.73
2009/04/23 12:26:37.6      90   -241    -61    258    266 159.5 -13.4  34154  289.46 0854.73
2009/04/23 12:26:37.7      34   -198    -18    201    202 170.2  -5.2  34152  289.43 0854.73
2009/04/23 12:26:37.8     -17   -207    -54    208    216 184.9 -14.7  34156  289.52 0854.73
2009/04/23 12:26:37.9     -59   -136    -41    149    155 203.6 -15.5  34154  289.48 0854.73
2009/04/23 12:26:38.0       2   -110    -30    111    116 178.6 -15.4  34154  289.48 0854.73
2009/04/23 12:26:38.1     -20   -106    -28    108    112 190.7 -14.5  34154  289.46 0854.73
2009/04/23 12:26:38.2      15   -110    -32    112    117 172.0 -16.0  34152  289.45 0854.73
2009/04/23 12:26:38.3     -45    -88    -37    100    106 207.2 -24.8  34158  289.53 0854.75
2009/04/23 12:26:38.4      -6    -76    -20     77     80 184.5 -15.0  34154  289.48 0854.75
2009/04/23 12:26:38.5     -69      0    -19     70     73 270.0 -15.5  34158  289.55 0854.75
2009/04/23 12:26:38.6     -60      3    -58     61     84 273.5 -53.4  34160  289.57 0854.75
2009/04/23 12:26:38.7     -93     23    -56     96    111 284.2 -37.3  34158  289.53 0854.75
2009/04/23 12:26:38.8     -76     10    -43     77     88 277.9 -35.8  34158  289.55 0854.75
2009/04/23 12:26:38.9     -64    -89    -41    110    117 215.6 -25.4  34156  289.52 0854.75
2009/04/23 12:26:39.0    -123    -78     -3    146    147 237.6  -1.3  34160  289.58 0854.75
2009/04/23 12:26:39.1    -110    -80    -53    137    146 234.0 -26.4  34160  289.57 0854.75
2009/04/23 12:26:39.2     -63   -123    -47    139    146 207.2 -23.3  34158  289.55 0854.75
2009/04/23 12:26:39.3     -25   -102    -45    106    115 193.8 -28.5  34158  289.53 0854.75
2009/04/23 12:26:39.4     -48   -105    -16    116    118 204.5  -8.2  34158  289.55 0854.75
2009/04/23 12:26:39.5     -75   -137     -4    157    158 208.9  -1.6  34156  289.50 0854.75
2009/04/23 12:26:39.6     -41   -194    -68    199    211 192.0 -19.1  34156  289.50 0854.75
2009/04/23 12:26:39.7     -48   -180    -94    187    209 195.1 -33.1  34156  289.52 0854.75
2009/04/23 12:26:39.8       3   -194    -91    195    215 179.1 -31.5  34154  289.48 0854.75
2009/04/23 12:26:39.9      45   -220    -77    225    237 168.2 -24.0  34154  289.46 0854.75
2009/04/23 12:26:40.0       0   -223    -99    224    244 179.8 -29.7  34156  289.49 0854.75
2009/04/23 12:26:40.1      40   -227    -26    231    233 170.0  -6.5  34154  289.48 0854.75
2009/04/23 12:26:40.2      53   -198     -9    206    207 164.8  -2.6  34154  289.46 0854.75
2009/04/23 12:26:40.3      58   -174     43    184    190 161.3  13.2  34156  289.50 0854.72
2009/04/23 12:26:40.4      34   -143     70    148    163 166.6  27.2  34154  289.46 0854.72
2009/04/23 12:26:40.5      19   -116     87    118    146 170.7  39.7  34154  289.48 0854.72
2009/04/23 12:26:40.6      16    -49     95     52    108 161.7  69.3  34158  289.53 0854.72
2009/04/23 12:26:40.7     -42    -45     40     62     73 223.3  35.6  34154  289.46 0854.72
2009/04/23 12:26:40.8     -51    -42     23     67     72 230.5  19.4  34156  289.50 0854.72
2009/04/23 12:26:40.9     -48      0     23     49     54 270.0  27.1  34158  289.55 0854.72
2009/04/23 12:26:41.0     -67     62    -10     92     93 312.7  -6.2  34156  289.52 0854.72
2009/04/23 12:26:41.1     -61    112    -16    128    130 331.5  -7.3  34158  289.53 0854.72
2009/04/23 12:26:41.2     -74    109    -50    133    142 325.7 -25.4  34150  289.41 0854.72
2009/04/23 12:26:41.3     -34     11     95     36    101 288.6  78.6  34158  289.55 0854.72
2009/04/23 12:26:41.4    -107    -57     71    122    141 242.0  32.9  34158  289.55 0854.72
2009/04/23 12:26:41.5    -122    -49     54    132    142 248.2  23.1  34158  289.55 0854.72
2009/04/23 12:26:41.6     -82    -64     64    105    122 231.8  34.0  34156  289.52 0854.72
2009/04/23 12:26:41.7    -120    -99     58    156    166 230.4  21.5  34156  289.52 0854.72
2009/04/23 12:26:41.8    -125    -97     80    159    177 232.2  28.7  34156  289.50 0854.72
2009/04/23 12:26:41.9    -173    -78     66    191    203 245.6  19.2  34154  289.48 0854.72
2009/04/23 12:26:42.0    -203    -88     43    222    227 246.4  11.1  34154  289.48 0854.72
2009/04/23 12:26:42.1    -153    -38     67    158    171 255.8  24.3  34156  289.52 0854.72
2009/04/23 12:26:42.2    -149    -17     46    150    158 263.4  17.3  34158  289.53 0854.72
2009/04/23 12:26:42.3    -168     17      5    169    170 276.1   1.8  34156  289.50 0854.72
2009/04/23 12:26:42.4    -144   -100     72    176    190 235.1  23.4  34152  289.45 0854.72
2009/04/23 12:26:42.5    -132    -96     83    164    183 234.0  29.1  34154  289.48 0854.72
2009/04/23 12:26:42.6    -136   -101     78    170    187 233.4  26.6  34156  289.50 0854.72
2009/04/23 12:26:42.7    -162    -87     51    185    193 241.6  15.6  34154  289.48 0854.72
2009/04/23 12:26:42.8    -167    -65     51    180    188 248.7  16.0  34156  289.50 0854.72
2009/04/23 12:26:42.9    -122    -41     65    129    144 251.4  29.2  34158  289.53 0854.72
2009/04/23 12:26:43.0    -116    -26     72    119    139 257.2  34.0  34158  289.55 0854.72
2009/04/23 12:26:43.1    -136    -44     32    144    148 251.8  12.6  34154  289.46 0854.72
2009/04/23 12:26:43.2    -172    -37     16    177    178 257.6   5.2  34156  289.52 0854.72
2009/04/23 12:26:43.3    -218     26    -33    220    223 277.0  -8.6  34156  289.52 0854.72
2009/04/23 12:26:43.4    -211     16    -75    212    226 274.6 -19.6  34158  289.55 0854.72
2009/04/23 12:26:43.5    -220     66    -68    230    239 286.8 -21.5  34158  289.54 0854.72
2009/04/23 12:26:43.6     -72    -38    -62     82    102 242.0 -45.6  34158  289.53 0854.72
2009/04/23 12:26:43.7    -187    -62    -65    198    208 251.6 -23.6  34160  289.58 0854.72
2009/04/23 12:26:43.8    -371     -7   -168    372    408 268.8 -30.6  34158  289.54 0854.72
2009/04/23 12:26:43.9    -202    -57     31    211    214 254.1   8.5  34158  289.53 0854.72
2009/04/23 12:26:44.0    -222   -104    -17    246    247 244.8  -4.1  34158  289.54 0854.72
2009/04/23 12:26:44.1    -135   -244    -81    280    291 209.0 -21.0  34158  289.54 0854.72
2009/04/23 12:26:44.2    -137   -224    -21    263    264 211.4  -4.6  34138  289.19 0854.72
2009/04/23 12:26:44.3    -104   -168     38    198    202 211.9  11.1  34158  289.53 0854.75
2009/04/23 12:26:44.4    -113   -210     20    239    240 208.3   5.0  34156  289.51 0854.75
2009/04/23 12:26:44.5     -97   -191     50    215    221 207.1  13.2  34156  289.50 0854.75
2009/04/23 12:26:44.6     -79   -173     63    191    202 204.5  18.4  34160  289.57 0854.75
2009/04/23 12:26:44.7     -92   -195     46    216    221 205.4  12.2  34154  289.48 0854.75
2009/04/23 12:26:44.8    -134   -210     54    250    256 212.5  12.4  34158  289.53 0854.75
2009/04/23 12:26:44.9    -133   -163     76    211    225 219.2  19.9  34156  289.52 0854.75
2009/04/23 12:26:45.0    -117   -170     56    207    215 214.7  15.3  34152  289.45 0854.75
2009/04/23 12:26:45.1     -78   -132     51    154    163 210.7  18.4  34156  289.50 0854.75
2009/04/23 12:26:45.2    -114   -117     66    164    176 224.3  23.1  34164  289.63 0854.75
2009/04/23 12:26:45.3    -126    -36     71    132    149 254.1  30.8  34158  289.53 0854.75
2009/04/23 12:26:45.4    -120    -17    115    122    167 261.6  48.2  34164  289.63 0854.75
2009/04/23 12:26:45.5    -136     20     47    138    146 278.4  18.9  34160  289.58 0854.75
2009/04/23 12:26:45.6     -94   -146    -40    174    179 212.7 -13.2  34160  289.57 0854.75
2009/04/23 12:26:45.7    -124   -114    -11    169    170 227.6  -3.9  34158  289.53 0854.75
2009/04/23 12:26:45.8    -117   -114      7    164    165 225.8   2.5  34158  289.55 0854.75
2009/04/23 12:26:45.9    -110   -149      9    186    187 216.5   2.9  34162  289.62 0854.75
2009/04/23 12:26:46.0    -133   -179     -8    224    225 216.7  -2.2  34156  289.52 0854.75
2009/04/23 12:26:46.1    -128   -177     -6    219    220 215.8  -1.6  34160  289.58 0854.75
2009/04/23 12:26:46.2    -128   -128      8    182    183 225.0   2.8  34158  289.55 0854.75
2009/04/23 12:26:46.3    -201    -65     -4    212    213 252.1  -1.3  34156  289.52 0854.75
2009/04/23 12:26:46.4    -237    -57     -9    244    245 256.3  -2.3  34160  289.58 0854.75
2009/04/23 12:26:46.5    -208    -99    -50    231    237 244.6 -12.4  34158  289.54 0854.75
2009/04/23 12:26:46.6    -219    -72    -50    231    237 251.8 -12.4  34158  289.54 0854.75
2009/04/23 12:26:46.7    -194    -70    -53    207    214 250.0 -14.5  34162  289.60 0854.75
2009/04/23 12:26:46.8    -176   -108    -65    207    218 238.5 -17.6  34158  289.55 0854.75
2009/04/23 12:26:46.9    -165   -108    -65    198    209 236.7 -18.3  34158  289.55 0854.75
2009/04/23 12:26:47.1    -179   -114    -73    213    225 237.6 -23.3  34158  289.53 0854.75
2009/04/23 12:26:47.2    -167   -124    -65    209    218 233.4 -22.3  34158  289.53 0854.75
2009/04/23 12:26:47.3    -199   -153    -75    252    263 232.5 -16.6  34160  289.56 0854.75
2009/04/23 12:26:47.4    -222   -142    -53    264    270 237.4 -11.5  34162  289.61 0854.75
2009/04/23 12:26:47.5    -223   -115    -67    252    261 242.7 -15.0  34160  289.58 0854.75
2009/04/23 12:26:47.6    -156   -153    -79    219    232 225.6 -24.8  34156  289.52 0854.75
2009/04/23 12:26:47.7    -171    -83    -58    191    199 244.0 -21.7  34160  289.57 0854.75
2009/04/23 12:26:47.8    -168    -33    -54    172    181 258.8 -17.6  34162  289.62 0854.75
2009/04/23 12:26:47.9    -202    -91    -44    222    227 245.8 -11.3  34168  289.70 0854.75
2009/04/23 12:26:48.0    -232    -93    -13    251    252 248.0  -3.2  34172  289.76 0854.75
2009/04/23 12:26:48.1    -241    -78    -76    254    266 252.1 -16.8  34164  289.64 0854.75
2009/04/23 12:26:48.2    -204    -84    -73    221    232 247.6 -23.8  34166  289.69 0854.75
2009/04/23 12:26:48.3    -200   -127    -95    238    256 237.5 -27.4  34168  289.71 0854.75
2009/04/23 12:26:48.4    -178   -178    -42    253    257 225.0  -9.6  34160  289.56 0854.74
2009/04/23 12:26:48.5    -212   -124     -9    246    247 239.6  -2.2  34158  289.54 0854.74
2009/04/23 12:26:48.6    -230   -216    -41    316    319 226.8  -7.5  34162  289.59 0854.74
2009/04/23 12:26:48.7    -227   -165    -46    281    285 234.0  -9.4  34166  289.66 0854.74
2009/04/23 12:26:48.8    -205   -152    -10    256    257 233.4  -2.2  34164  289.63 0854.74
2009/04/23 12:26:48.9    -189   -189     23    268    270 224.9   5.0  34166  289.66 0854.74
2009/04/23 12:26:49.0    -239   -142    -65    279    287 239.3 -13.3  34174  289.81 0854.74
2009/04/23 12:26:49.1    -203   -109    -67    231    240 241.6 -21.2  34170  289.73 0854.74
2009/04/23 12:26:49.2    -181   -123    -60    219    228 235.8 -15.5  34168  289.72 0854.74
2009/04/23 12:26:49.3    -112   -236    -79    262    274 205.4 -16.8  34168  289.71 0854.74
2009/04/23 12:26:49.4     -86   -240    -55    256    262 199.8 -12.2  34166  289.68 0854.74
2009/04/23 12:26:49.5     -39   -240    -23    244    246 189.3  -5.6  34164  289.64 0854.74
2009/04/23 12:26:49.6     -88   -203    -23    222    224 203.6  -6.0  34168  289.70 0854.74
2009/04/23 12:26:49.7     -71   -187     26    201    203 200.9   7.5  34164  289.65 0854.74
2009/04/23 12:26:49.8    -117   -179     58    215    223 213.2  15.2  34170  289.75 0854.74
2009/04/23 12:26:49.9    -136    -32    100    140    172 256.7  38.8  34204  290.31 0854.74
2009/04/23 12:26:50.0    -161    -65     57    174    184 247.8  18.1  34192  290.13 0854.74
2009/04/23 12:26:50.1    -126    -37     22    132    134 253.6   9.5  34194  290.16 0854.74
2009/04/23 12:26:50.2    -133    -61      0    147    148 245.2  -0.3  34198  290.21 0854.74
2009/04/23 12:26:50.3    -133    -90      0    161    162 235.9   0.2  34186  290.02 0854.74
2009/04/23 12:26:50.4    -101   -146     89    178    199 214.7  28.7  34184  289.99 0854.72
2009/04/23 12:26:50.5     -79   -166     28    185    188 205.5   8.8  34168  289.72 0854.72
2009/04/23 12:26:50.6     -98   -144     28    175    178 214.1   9.3  34168  289.70 0854.72
2009/04/23 12:26:50.7     -89   -157     28    181    184 209.6   8.8  34172  289.79 0854.72
2009/04/23 12:26:50.8     -83   -157     29    178    181 208.1   9.3  34170  289.75 0854.72
2009/04/23 12:26:50.9     -76   -144     32    163    167 207.9  11.1  34170  289.75 0854.72
2009/04/23 12:26:51.0     -58   -149     58    161    171 201.4  20.2  34172  289.77 0854.72
2009/04/23 12:26:51.1     -34   -143     76    148    166 193.4  29.1  34172  289.77 0854.72
2009/04/23 12:26:51.2     -24   -125     87    128    154 191.1  37.4  34174  289.80 0854.72
2009/04/23 12:26:51.3     -44   -109     79    118    142 202.3  37.0  34170  289.74 0854.72
2009/04/23 12:26:51.4     -50    -69     60     86    104 216.1  38.6  34172  289.77 0854.72
2009/04/23 12:26:51.5     -46    -89     -3    101    102 207.2  -2.2  34170  289.75 0854.72
2009/04/23 12:26:51.6     -41   -124    -25    131    134 198.7 -10.9  34168  289.72 0854.72
2009/04/23 12:26:51.7     -15   -107      0    109    110 188.1  -0.3  34168  289.72 0854.72
2009/04/23 12:26:51.8     -11   -127     15    128    129 185.3   6.9  34168  289.72 0854.72
2009/04/23 12:26:51.9     -61   -104     37    121    127 210.7  17.3  34166  289.69 0854.72
2009/04/23 12:26:52.0     -48    -81     11     95     96 210.7   6.9  34166  289.67 0854.72
2009/04/23 12:26:52.1     -44    -94     43    104    112 205.3  23.1  34164  289.65 0854.72
2009/04/23 12:26:52.2     -41   -103     16    112    114 201.8   8.5  34166  289.69 0854.72
2009/04/23 12:26:52.3     -32   -114     14    119    120 196.0   6.9  34166  289.67 0854.72
2009/04/23 12:26:52.4     -15   -111     55    113    125 188.1  27.8  34170  289.74 0854.71
2009/04/23 12:26:52.5       1    -92     32     93     99 179.1  19.4  34170  289.74 0854.71
2009/04/23 12:26:52.6      19    -83     47     86     98 166.6  30.8  34164  289.63 0854.71
2009/04/23 12:26:52.7      25    -81     68     85    108 162.6  43.7  34164  289.63 0854.71
2009/04/23 12:26:52.8      22    -95     63     98    116 166.6  35.6  34162  289.62 0854.71
2009/04/23 12:26:52.9      60    -82     69    102    123 143.9  37.4  34170  289.74 0854.71
2009/04/23 12:26:53.0      42    -85     82     95    125 153.7  45.8  34182  289.94 0854.71
2009/04/23 12:26:53.1      51   -120     75    131    150 156.8  32.4  34164  289.65 0854.71
2009/04/23 12:26:53.2      53    -83     51     99    111 147.5  29.3  34170  289.75 0854.71
2009/04/23 12:26:53.3      30    -65     30     72     78 154.6  23.1  34164  289.65 0854.71
2009/04/23 12:26:53.4      17    -64     32     67     74 164.8  27.1  34166  289.67 0854.72
2009/04/23 12:26:53.5      18    -95     33     97    103 169.3  18.9  34174  289.80 0854.72
2009/04/23 12:26:53.6      -2   -130     58    131    143 181.0  25.1  34188  290.04 0854.72
2009/04/23 12:26:53.7      -8   -148    100    149    179 183.1  37.0  34192  290.11 0854.72
2009/04/23 12:26:53.8       9   -129    105    130    167 176.0  43.5  34182  289.94 0854.72
2009/04/23 12:26:53.9       8   -104    102    105    146 175.5  49.4  34184  289.97 0854.72
2009/04/23 12:26:54.0      24   -137     17    140    142 169.8   7.1  34164  289.63 0854.72
2009/04/23 12:26:54.1      25   -132     22    135    137 169.3   9.5  34160  289.58 0854.72
2009/04/23 12:26:54.2      56   -140    -29    152    155 158.1 -11.1  34162  289.60 0854.72
2009/04/23 12:26:54.3      88   -151    -50    175    182 149.7 -20.4  34164  289.65 0854.72
2009/04/23 12:26:54.4      56   -104    -32    119    124 151.5 -15.4  34162  289.60 0854.72
2009/04/23 12:26:54.5      20   -118    -11    120    121 170.2  -5.6  34162  289.62 0854.72
2009/04/23 12:26:54.6       6   -130    -11    131    132 177.3  -5.2  34164  289.63 0854.72
2009/04/23 12:26:54.7       0   -133     -5    134    135 180.4  -2.2  34162  289.62 0854.72
2009/04/23 12:26:54.8       1   -109     43    110    118 179.1  22.5  34162  289.60 0854.72
2009/04/23 12:26:54.9     -22   -110     29    113    117 191.6  14.7  34162  289.60 0854.72
2009/04/23 12:26:55.0       0   -125     47    126    134 180.4  20.9  34162  289.60 0854.72
2009/04/23 12:26:55.1       8   -131     34    132    137 176.4  14.7  34162  289.60 0854.72
2009/04/23 12:26:55.2      65   -138     54    153    162 154.7  20.0  34158  289.55 0854.72
2009/04/23 12:26:55.3      24   -134    105    137    172 169.8  41.4  34160  289.58 0854.72
2009/04/23 12:26:55.4     -36    -65     85     75    113 209.0  53.7  34168  289.72 0854.74
2009/04/23 12:26:55.5     -15    -91     71     93    117 189.8  41.7  34184  289.99 0854.74
2009/04/23 12:26:55.6      18    -82     93     85    125 167.5  52.2  34178  289.89 0854.74
2009/04/23 12:26:55.7       5    -82     53     83     98 176.4  35.6  34184  289.97 0854.74
2009/04/23 12:26:55.8      45    -54     59     71     92 140.4  43.8  34188  290.06 0854.74
2009/04/23 12:26:55.9      15    -16     63     23     67 136.8  80.2  34192  290.13 0854.74
2009/04/23 12:26:56.0       0     -9     65     10     65 182.7  90.0  34192  290.11 0854.74
2009/04/23 12:26:56.1       0    -58     90     59    107 180.9  64.6  34180  289.92 0854.74
2009/04/23 12:26:56.2      13    -21     54     26     59 147.5  72.8  34184  289.99 0854.74
2009/04/23 12:26:56.3      33    -40     57     52     77 140.4  52.2  34188  290.04 0854.74
2009/04/23 12:26:56.4      71    -14     79     73    107 101.4  52.2  34176  289.84 0854.74
2009/04/23 12:26:56.5     105    -43     88    114    144 112.2  41.7  34174  289.82 0854.74
2009/04/23 12:26:56.6     108    -52    111    120    163 115.8  47.9  34210  290.41 0854.74
2009/04/23 12:26:56.7     112    -37    109    119    161 108.6  47.5  34282  291.64 0854.74
2009/04/23 12:26:56.8      95    -24    102     99    142 104.6  50.7  34294  291.84 0854.74
2009/04/23 12:26:56.9     130    -39    119    136    180 106.9  45.8  34308  292.10 0854.74
2009/04/23 12:26:57.0     125    -42    119    132    177 108.6  46.9  34308  292.10 0854.74
2009/04/23 12:26:57.1     104    -83     82    134    157 128.6  34.4  34214  290.50 0854.74
2009/04/23 12:26:57.2     131   -101     41    166    171 127.7  13.9  34162  289.60 0854.74
2009/04/23 12:26:57.3     153    -66     40    167    172 113.3  13.7  34162  289.62 0854.74
2009/04/23 12:26:57.4     105    -49    125    117    171 115.2  52.0  34164  289.65 0854.77
2009/04/23 12:26:57.5      87    -48    106    100    145 118.9  52.1  34182  289.96 0854.77
2009/04/23 12:26:57.6      64     -8     91     65    111  97.9  60.6  34230  290.77 0854.77
2009/04/23 12:26:57.7      96     38    108    104    149  68.2  50.7  34278  291.57 0854.77
2009/04/23 12:26:57.8     106    -43     88    115    144 112.2  41.2  34272  291.47 0854.77
2009/04/23 12:26:57.9      88      0     64     89    109  90.0  39.5  34276  291.55 0854.77
2009/04/23 12:26:58.0      93     15     72     95    119  80.8  41.2  34268  291.40 0854.77
2009/04/23 12:26:58.1      42     22     69     48     84  62.0  62.1  34260  291.26 0854.77
2009/04/23 12:26:58.2     -41    -16     21     45     49 248.3  27.2  34262  291.32 0854.77
2009/04/23 12:26:58.3     -41    -67     37     79     87 211.6  26.6  34262  291.30 0854.77
2009/04/23 12:26:58.4     -10    -78     32     79     85 188.0  23.0  34236  290.87 0854.77
2009/04/23 12:26:58.5       8   -110     62    111    127 175.5  31.4  34180  289.92 0854.77
2009/04/23 12:26:58.6      31   -112     78    117    140 164.4  37.0  34180  289.91 0854.77
2009/04/23 12:26:58.7      77    -45     90     90    127 120.2  50.1  34210  290.41 0854.77
2009/04/23 12:26:58.8      10     28     65     30     71  20.0  73.1  34228  290.72 0854.77
2009/04/23 12:26:58.9     -13    -12     69     18     71 226.7  84.9  34214  290.48 0854.77
2009/04/23 12:26:59.0       9    -64     64     65     91 171.9  50.0  34178  289.89 0854.77
2009/04/23 12:26:59.1      14    -97     55     99    113 171.5  31.4  34164  289.63 0854.77
2009/04/23 12:26:59.2      43    -68     70     81    107 147.5  45.4  34168  289.70 0854.77
2009/04/23 12:26:59.3      39    -63     65     75     99 148.4  45.4  34174  289.82 0854.77
2009/04/23 12:26:59.4      16    -86     64     88    108 169.3  39.7  34164  289.63 0854.77
2009/04/23 12:26:59.5      13    -78     54     80     96 170.2  37.0  34162  289.62 0854.77
2009/04/23 12:26:59.6      14    -77     62     79    100 169.3  42.2  34164  289.63 0854.77
2009/04/23 12:26:59.7       7    -67     65     68     94 173.8  49.4  34164  289.63 0854.77
2009/04/23 12:26:59.8       6    -17     60     19     62 161.3  81.8  34166  289.69 0854.77
2009/04/23 12:26:59.9      16     16     54     24     59  45.0  75.0  34176  289.84 0854.77
2009/04/23 12:27:00.0      22     16     56     28     62  54.0  71.9  34184  289.99 0854.77
2009/04/23 12:27:00.1      10      5     59     12     60  64.7  89.1  34190  290.09 0854.77
2009/04/23 12:27:00.2       0    -10     35     11     36 175.5  80.7  34188  290.04 0854.77
2009/04/23 12:27:00.3     -13    -39     33     42     53 199.2  43.7  34182  289.96 0854.77
2009/04/23 12:27:00.4      10    -58     44     59     73 170.2  40.7  34178  289.87 0854.77
2009/04/23 12:27:00.5       2    -54     38     55     66 177.3  37.6  34170  289.75 0854.77
2009/04/23 12:27:00.6       7    -43     53     44     68 170.2  56.3  34168  289.72 0854.77
2009/04/23 12:27:00.7       5    -44     52     45     68 172.9  55.4  34170  289.74 0854.77
2009/04/23 12:27:00.8     -23    -50     28     56     62 204.5  28.2  34164  289.63 0854.77
2009/04/23 12:27:00.9      10    -21     39     24     45 152.8  64.7  34164  289.65 0854.77
2009/04/23 12:27:01.0      12    -30     26     33     42 158.2  42.7  34170  289.75 0854.77
2009/04/23 12:27:01.1       8    -57     33     58     66 171.1  32.4  34164  289.65 0854.77
2009/04/23 12:27:01.2      -5    -74     40     75     85 184.5  30.3  34166  289.67 0854.77
2009/04/23 12:27:01.3      -1    -98     58     99    114 180.9  33.5  34158  289.55 0854.77
2009/04/23 12:27:01.4     -19   -105     82    107    134 190.7  41.6  34160  289.58 0854.77
2009/04/23 12:27:01.5     -34   -116     79    121    144 196.5  35.6  34160  289.58 0854.77
2009/04/23 12:27:01.6     -15    -92     80     94    123 189.3  45.4  34162  289.60 0854.77
2009/04/23 12:27:01.7      -6   -108     95    109    144 183.6  45.8  34162  289.60 0854.77
2009/04/23 12:27:01.8     -26   -106     83    110    137 193.8  41.2  34162  289.60 0854.77
2009/04/23 12:27:01.9     -31   -108     85    113    141 196.0  40.7  34160  289.57 0854.77
2009/04/23 12:27:02.0     -10   -134     92    135    163 184.5  37.3  34158  289.53 0854.77
2009/04/23 12:27:02.1       0   -131     63    132    146 180.4  27.2  34158  289.55 0854.77
2009/04/23 12:27:02.2      -8   -113     52    114    125 184.4  26.2  34158  289.55 0854.77
2009/04/23 12:27:02.3      18   -105     62    107    123 170.2  33.4  34160  289.57 0854.77
2009/04/23 12:27:02.4       7    -95     76     96    122 175.5  42.7  34166  289.67 0854.77
2009/04/23 12:27:02.5       6    -70     55     71     89 174.7  42.2  34166  289.69 0854.77
2009/04/23 12:27:02.6      35    -43     53     56     77 140.4  49.0  34174  289.82 0854.77
2009/04/23 12:27:02.7      49    -19     54     53     75 111.7  49.1  34178  289.87 0854.77
2009/04/23 12:27:02.8      25    -76     57     81     99 161.7  39.1  34174  289.82 0854.77
2009/04/23 12:27:02.9       1    -81     77     82    112 178.6  48.0  34204  290.33 0854.77
2009/04/23 12:27:03.0      -1    -98     51     99    111 180.9  29.3  34218  290.57 0854.77
2009/04/23 12:27:03.1      34    -77     54     85    100 155.9  35.5  34176  289.85 0854.77
2009/04/23 12:27:03.2      63    -76     67     99    119 140.4  37.6  34182  289.96 0854.77
2009/04/23 12:27:03.3      40   -109     71    117    136 159.5  34.4  34190  290.09 0854.77
2009/04/23 12:27:03.4       6   -128     67    129    145 177.3  29.8  34232  290.79 0854.76
2009/04/23 12:27:03.5      21   -141     73    143    160 171.5  29.3  34212  290.45 0854.76
2009/04/23 12:27:03.6      41   -123     73    130    149 161.3  31.4  34218  290.55 0854.76
2009/04/23 12:27:03.7      21    -98     62    101    118 167.5  34.4  34222  290.64 0854.76
2009/04/23 12:27:03.8       9   -131     60    132    145 176.0  26.2  34182  289.96 0854.76
2009/04/23 12:27:03.9      20    -97     48    100    110 168.0  27.3  34184  289.97 0854.76
2009/04/23 12:27:04.0      19    -69     56     72     91 164.0  42.2  34224  290.67 0854.76
2009/04/23 12:27:04.1      -5    -86     29     87     92 183.6  18.9  34222  290.62 0854.76
2009/04/23 12:27:04.2      -1    -70     31     71     77 181.0  25.1  34200  290.25 0854.76
2009/04/23 12:27:04.3      -6    -87     -1     88     89 184.5  -1.3  34220  290.58 0854.76
2009/04/23 12:27:04.4     -34    -87     15     94     96 201.8   9.5  34228  290.74 0854.76
2009/04/23 12:27:04.5     -12    -36    -33     39     51 198.7 -49.2  34224  290.65 0854.76
2009/04/23 12:27:04.6     -18      3    -15     19     24 281.5 -48.1  34228  290.74 0854.76
2009/04/23 12:27:04.7      -2      6    -31      7     31 341.7 -90.0  34230  290.75 0854.76
2009/04/23 12:27:04.8      15     44    -24     47     52  19.2 -32.6  34224  290.67 0854.76
2009/04/23 12:27:04.9      10     30    -44     32     54  18.3 -64.9  34234  290.84 0854.76
2009/04/23 12:27:05.0      16     52    -45     55     71  17.8 -48.1  34232  290.79 0854.76
2009/04/23 12:27:05.1      29     32    -39     44     58  42.3 -51.3  34242  290.98 0854.76
2009/04/23 12:27:05.2      14     19    -16     24     28  36.1 -40.0  34236  290.87 0854.76
2009/04/23 12:27:05.3     -16     10     24     19     30 302.5  56.4  34240  290.94 0854.76
2009/04/23 12:27:05.4      -4    -40     28     41     49 186.2  37.6  34240  290.94 0854.76
2009/04/23 12:27:05.5     -11    -34     28     36     45 198.3  41.7  34240  290.94 0854.76
2009/04/23 12:27:05.6      -7    -32     25     33     41 193.4  41.7  34246  291.04 0854.76
2009/04/23 12:27:05.7       0    -14     20     15     25 182.7  60.5  34250  291.09 0854.76
2009/04/23 12:27:05.8     -12    -14     20     19     27 221.4  48.2  34254  291.16 0854.76
2009/04/23 12:27:05.9     -12    -14     13     19     23 221.4  39.7  34258  291.25 0854.76
2009/04/23 12:27:06.0      -3    -14     22     15     26 195.1  64.6  34258  291.25 0854.76
2009/04/23 12:27:06.1       6    -10     20     13     23 147.5  64.7  34264  291.33 0854.76
2009/04/23 12:27:06.2      19     -3     27     20     33 101.5  58.5  34258  291.25 0854.76
2009/04/23 12:27:06.3      -3    -11     22     12     25 198.5  66.8  34246  291.03 0854.76
2009/04/23 12:27:06.4       1    -18     23     19     29 175.6  56.4  34240  290.92 0854.76
2009/04/23 12:27:06.5       8    -14     35     17     38 151.0  72.9  34240  290.94 0854.76
2009/04/23 12:27:06.6     -10    -28     29     30     41 200.0  50.0  34240  290.92 0854.76
2009/04/23 12:27:06.7     -48      8      7     49     50 279.7   9.0  34268  291.40 0854.76
2009/04/23 12:27:06.8     -47     -3     19     48     51 265.6  22.0  34268  291.42 0854.76
2009/04/23 12:27:06.9     -53      4     15     54     57 274.4  16.3  34280  291.60 0854.76
2009/04/23 12:27:07.0     -63      8     16     64     67 277.9  14.3  34286  291.71 0854.76
2009/04/23 12:27:07.1     -48     -3     20     49     52 265.7  23.0  34286  291.71 0854.76
2009/04/23 12:27:07.2     -43      0     25     44     50 270.0  32.4  34282  291.64 0854.76
2009/04/23 12:27:07.3     -12     12      6     17     19 315.0  18.9  34278  291.59 0854.76
2009/04/23 12:27:07.4      -2     27     -9     28     29 355.5 -23.8  34276  291.55 0854.76
2009/04/23 12:27:07.5      18     15     -9     24     25  48.7 -23.3  34278  291.57 0854.76
2009/04/23 12:27:07.6      30     23    -11     38     40  52.2 -16.6  34272  291.47 0854.76
2009/04/23 12:27:07.7      49      0      1     50     51  90.8   1.8  34262  291.32 0854.76
2009/04/23 12:27:07.8      41      0     -8     42     43  90.8 -11.3  34252  291.15 0854.76
2009/04/23 12:27:07.9      10    -31     21     33     39 161.7  35.5  34220  290.60 0854.76
2009/04/23 12:27:08.0       0    -41     30     42     51 180.9  39.7  34202  290.28 0854.76
2009/04/23 12:27:08.1       4    -57     40     58     70 175.5  38.6  34200  290.26 0854.76
2009/04/23 12:27:08.2      19    -34     60     40     72 151.0  63.6  34212  290.47 0854.76
2009/04/23 12:27:08.3      20      0     34     21     39  89.2  65.7  34228  290.74 0854.76
2009/04/23 12:27:08.4       0     23     49     24     54 359.1  72.9  34230  290.75 0854.76
2009/04/23 12:27:08.5     -26     56     35     62     71 334.6  31.4  34260  291.26 0854.76
2009/04/23 12:27:08.6     -20     21     28     30     41 316.8  49.0  34244  290.99 0854.76
2009/04/23 12:27:08.7      26      0     22     27     34  90.0  43.8  34230  290.75 0854.76
2009/04/23 12:27:08.8      21    -32     42     39     57 145.7  51.2  34200  290.26 0854.76
2009/04/23 12:27:08.9       5    -35     61     36     70 172.0  66.8  34192  290.11 0854.76
2009/04/23 12:27:09.0      10    -37     57     39     69 164.9  62.6  34212  290.45 0854.76
2009/04/23 12:27:09.1     -14    -44     45     47     65 198.3  49.0  34232  290.81 0854.76
2009/04/23 12:27:09.2     -21    -47     37     52     63 204.5  39.5  34242  290.96 0854.76
2009/04/23 12:27:09.3      -4    -54     49     55     73 184.4  47.9  34224  290.65 0854.76
2009/04/23 12:27:09.4       0    -62     47     63     78 180.0  41.2  34240  290.94 0854.77
2009/04/23 12:27:09.5       7    -54      6     55     56 172.0   6.9  34240  290.92 0854.77
2009/04/23 12:27:09.6     -10    -54    -16     55     57 190.7 -21.7  34224  290.67 0854.77
2009/04/23 12:27:09.7      -6    -53    -25     54     59 187.1 -30.6  34216  290.53 0854.77
2009/04/23 12:27:09.8       2    -43    -32     44     54 176.4 -44.1  34222  290.64 0854.77
2009/04/23 12:27:09.9     -12    -27    -27     30     40 205.4 -51.3  34232  290.79 0854.77
2009/04/23 12:27:10.0     -25    -17     -4     31     32 235.8  -7.2  34230  290.77 0854.77
2009/04/23 12:27:10.1     -26    -21      8     34     35 230.5  13.2  34230  290.75 0854.77
2009/04/23 12:27:10.2     -33     -5     14     34     36 260.3  23.0  34236  290.86 0854.77
2009/04/23 12:27:10.3     -37     -1     10     38     40 267.4  15.3  34234  290.82 0854.77
2009/04/23 12:27:10.4     -35     -7     12     36     39 258.5  19.4  34234  290.84 0854.77
2009/04/23 12:27:10.5     -26     -8      5     28     29 251.4  11.1  34234  290.84 0854.77
2009/04/23 12:27:10.6     -24     -8      4     26     27 251.4   9.0  34230  290.77 0854.77
2009/04/23 12:27:10.7     -29     -9     -1     31     32 251.8  -3.1  34230  290.77 0854.77
2009/04/23 12:27:10.8     -15     -4    -16     16     22 254.9 -54.5  34222  290.62 0854.77
2009/04/23 12:27:11.0     -31      6    -24     32     40 281.5 -45.1  34218  290.57 0854.77
2009/04/23 12:27:11.0     -31     14    -17     35     38 295.2 -31.6  34220  290.58 0854.77
2009/04/23 12:27:11.1     -45     18    -21     49     53 291.7 -28.5  34236  290.86 0854.77
2009/04/23 12:27:11.2     -25     -1    -45     26     51 265.6 -72.1  34254  291.18 0854.77
2009/04/23 12:27:11.3     -32    -15    -51     36     62 244.7 -65.0  34282  291.66 0854.77
2009/04/23 12:27:11.4     -37    -17    -62     41     74 244.6 -69.0  34294  291.86 0854.79
2009/04/23 12:27:11.5     -53    -18    -58     57     81 250.9 -54.5  34300  291.96 0854.79
2009/04/23 12:27:11.6     -61    -22    -59     65     87 250.0 -51.9  34284  291.67 0854.79
2009/04/23 12:27:11.7     -60    -28    -56     67     87 244.8 -48.7  34262  291.32 0854.79
2009/04/23 12:27:11.8     -50    -36    -47     63     78 234.0 -45.6  34266  291.38 0854.79
2009/04/23 12:27:12.0     -45    -39    -51     60     78 228.7 -49.8  34270  291.43 0854.79
2009/04/23 12:27:12.1     -38    -30    -43     49     65 231.4 -51.3  34272  291.47 0854.79
2009/04/23 12:27:12.1     -32    -50    -28     60     66 212.5 -31.5  34284  291.67 0854.79
2009/04/23 12:27:12.2     -27    -39    -26     48     54 214.3 -35.8  34288  291.74 0854.79
2009/04/23 12:27:12.3      -7    -32    -29     33     43 193.4 -51.3  34286  291.71 0854.79
2009/04/23 12:27:12.4      -7    -36     -9     37     39 191.6 -14.5  34280  291.60 0854.79
2009/04/23 12:27:12.5      16    -48     -4     51     52 161.7  -5.2  34284  291.67 0854.79
2009/04/23 12:27:12.6      23    -43     -1     49     50 151.9  -2.2  34290  291.77 0854.79
2009/04/23 12:27:12.7      32    -59    -21     68     71 151.0 -22.8  34290  291.77 0854.79
2009/04/23 12:27:12.8      40    -54    -25     68     72 143.9 -24.4  34286  291.71 0854.79
2009/04/23 12:27:12.9      30    -48    -14     57     59 147.4 -14.5  34270  291.43 0854.79
2009/04/23 12:27:13.0      44    -53    -12     70     72 140.3 -10.3  34270  291.45 0854.79
2009/04/23 12:27:13.1      47    -72      0     87     88 146.6  -0.3  34226  290.69 0854.79
2009/04/23 12:27:13.2      52    -63     -3     83     84 140.4  -2.2  34208  290.40 0854.79
2009/04/23 12:27:13.4      67    -52    -22     85     88 127.8 -14.5  34212  290.45 0854.81
2009/04/23 12:27:13.4      60    -42     26     74     79 125.1  19.4  34192  290.11 0854.81
2009/04/23 12:27:13.5      31    -31     44     45     62 134.9  50.0  34192  290.13 0854.81
2009/04/23 12:27:13.6      -1    -22     54     23     58 182.7  77.1  34194  290.16 0854.81
2009/04/23 12:27:13.7       1     17     54     18     56   4.5  81.0  34200  290.25 0854.81
2009/04/23 12:27:13.8       7      8     48     11     49  39.6  88.0  34200  290.26 0854.81
2009/04/23 12:27:13.9     -12     14     27     19     33 318.6  60.5  34200  290.26 0854.81
2009/04/23 12:27:14.0      -8     -6     52     11     53 230.5  89.0  34196  290.18 0854.81
2009/04/23 12:27:14.1      41    -28     51     50     71 124.2  50.1  34200  290.25 0854.81
2009/04/23 12:27:14.2      87    -46     38     99    106 118.0  22.0  34200  290.25 0854.81
2009/04/23 12:27:14.3      59    -48     31     77     83 129.5  23.0  34200  290.26 0854.81
2009/04/23 12:27:14.5      41    -31     39     52     65 126.9  39.7  34200  290.25 0854.79
2009/04/23 12:27:14.6      45     -3     49     46     67  94.4  52.1  34196  290.19 0854.79
2009/04/23 12:27:14.7      15      1     50     16     52  85.6  80.7  34204  290.31 0854.79
2009/04/23 12:27:14.8      -5      4     35      7     35 313.3  89.0  34204  290.31 0854.79
2009/04/23 12:27:14.9     -15      2     17     16     23 277.9  50.1  34204  290.33 0854.79
2009/04/23 12:27:15.0     -15     -4     24     16     28 254.9  64.6  34202  290.30 0854.79
2009/04/23 12:27:15.1     -21    -13     26     26     36 237.6  50.1  34196  290.19 0854.79
2009/04/23 12:27:15.2     -17    -11     17     21     27 237.5  43.7  34198  290.21 0854.79
2009/04/23 12:27:15.3      -1    -11     17     12     20 188.0  60.5  34198  290.21 0854.79
2009/04/23 12:27:15.4       7     -7     15     11     18 135.0  60.5  34198  290.21 0854.79
2009/04/23 12:27:15.5       0      0     13      0     13   0.0 -90.0  34198  290.21 0854.79
2009/04/23 12:27:15.6       8     -8      8     12     14 136.8  39.7  34200  290.25 0854.79
2009/04/23 12:27:15.7       4     -5      6      7      9 136.6  52.0  34198  290.23 0854.79
2009/04/23 12:27:15.8      -2     -2      3      3      4 225.0  50.1  34198  290.21 0854.79
2009/04/23 12:27:15.9       0     -3     11      4     11 184.5  81.0  34196  290.19 0854.79
2009/04/23 12:27:16.0     -12      0      6     13     14 270.0  23.0  34200  290.25 0854.79
2009/04/23 12:27:16.1     -15      1      9     16     18 274.3  31.4  34198  290.21 0854.79
2009/04/23 12:27:16.2     -13      3      3     14     15 285.1  15.3  34198  290.21 0854.79
2009/04/23 12:27:16.3     -11      7      6     14     15 302.4  23.0  34200  290.25 0854.79
2009/04/23 12:27:16.4     -12     10      0     16     17 309.5   2.9  34196  290.19 0854.79
2009/04/23 12:27:16.5      -3      3      1      5      6 320.4  19.2  34202  290.28 0854.78
2009/04/23 12:27:16.6      -8     -2      1      9     10 254.9  11.1  34200  290.25 0854.78
2009/04/23 12:27:16.7     -13     -2     -1     14     15 258.5  -7.3  34196  290.18 0854.78
2009/04/23 12:27:16.8     -25      1    -12     26     28 272.6 -29.5  34196  290.19 0854.78
2009/04/23 12:27:16.9     -14      3     -9     15     17 285.1 -39.9  34194  290.16 0854.78
2009/04/23 12:27:17.0       0     -7      6      8     10 182.7  43.7  34196  290.19 0854.78
2009/04/23 12:27:17.1      -1      6      6      7      9 350.3  52.0  34196  290.18 0854.78
2009/04/23 12:27:17.2       4      0     10      5     11  90.0  72.9  34196  290.18 0854.78
2009/04/23 12:27:17.3       0     11     10     12     15 355.5  47.9  34202  290.30 0854.78
2009/04/23 12:27:17.4       5      6     10      8     12  39.6  52.2  34200  290.25 0854.78
2009/04/23 12:27:17.5      18     -1      6     19     21  94.4  19.2  34204  290.33 0854.78
2009/04/23 12:27:17.6      10     -3      1     11     12 108.4   6.9  34202  290.30 0854.78
2009/04/23 12:27:17.7       9     -9      3     14     15 135.0  15.3  34204  290.31 0854.78
2009/04/23 12:27:17.8       7     -7     -4     11     11 135.0 -23.6  34204  290.31 0854.78
2009/04/23 12:27:17.9       9     -3     -8     10     12 111.7 -52.3  34208  290.38 0854.78
2009/04/23 12:27:18.0      12      0    -13     13     18  90.0 -54.5  34210  290.43 0854.78
2009/04/23 12:27:18.1       9     15     -3     18     19  32.5 -11.3  34212  290.47 0854.78
2009/04/23 12:27:18.2      15     21     15     26     30  36.1  33.5  34212  290.45 0854.78
2009/04/23 12:27:18.3       8     26     18     28     33  18.7  35.6  34216  290.52 0854.78
2009/04/23 12:27:18.4     -14     17     39     23     45 320.4  65.7  34220  290.58 0854.78
2009/04/23 12:27:18.5     -30      0     37     31     48 270.8  54.3  34228  290.74 0854.77
2009/04/23 12:27:18.6      -9     -5     31     11     32 237.6  81.2  34230  290.75 0854.77
2009/04/23 12:27:18.7     -31    -26     23     41     47 230.4  32.4  34230  290.77 0854.77
2009/04/23 12:27:18.8     -46    -29     24     55     60 237.6  25.1  34228  290.74 0854.77
2009/04/23 12:27:18.9     -14    -22      0     27     28 212.6  -1.3  34228  290.74 0854.77
2009/04/23 12:27:19.0      -7    -32    -15     33     36 193.4 -31.5  34234  290.82 0854.77
2009/04/23 12:27:19.1       2     20    -30     21     36   6.2 -67.0  34232  290.79 0854.77
2009/04/23 12:27:19.2      19     31    -22     37     43  32.5 -37.9  34232  290.81 0854.77
2009/04/23 12:27:19.3      19     21    -29     29     41  41.4 -54.5  34234  290.84 0854.77
2009/04/23 12:27:19.4      25     30    -18     40     43  39.6 -29.5  34234  290.84 0854.77
2009/04/23 12:27:19.5      17     26    -12     32     34  32.6 -23.3  34236  290.87 0854.77
2009/04/23 12:27:19.6      25      8     -7     27     29  71.4 -15.5  34234  290.84 0854.77
2009/04/23 12:27:19.7      40     13     -7     43     44  71.4 -10.3  34234  290.82 0854.77
2009/04/23 12:27:19.8      43      3    -13     44     46  84.8 -16.6  34232  290.79 0854.77
2009/04/23 12:27:19.9      60      6     -3     61     62  83.9  -3.2  34234  290.82 0854.77
2009/04/23 12:27:20.0      74     15      3     76     77  78.6   2.8  34242  290.96 0854.77
2009/04/23 12:27:20.1      73     17    -21     76     79  76.7 -15.5  34246  291.03 0854.77
2009/04/23 12:27:20.2     109     16     13    111    112  81.6   6.9  34252  291.13 0854.77
2009/04/23 12:27:20.3     149     30     52    152    161  78.6  19.2  34270  291.45 0854.77
2009/04/23 12:27:20.4     112      0     53    113    124  90.0  27.1  34266  291.37 0854.77
2009/04/23 12:27:20.5      69     -7     -2     70     71  96.1  -2.2  34262  291.30 0854.73
2009/04/23 12:27:20.6      39     19     73     44     85  63.8  65.7  34262  291.32 0854.73
2009/04/23 12:27:20.7      -2     92     75     93    119 358.2  43.3  34272  291.49 0854.73
2009/04/23 12:27:20.8     -30     93     93     98    135 341.7  49.0  34286  291.71 0854.73
2009/04/23 12:27:20.9     -32     84    101     91    135 339.1  53.3  34286  291.71 0854.73
2009/04/23 12:27:21.0     -33     89     98     96    137 339.5  50.1  34278  291.59 0854.73
2009/04/23 12:27:21.1      10     77     85     78    115   8.0  52.2  34274  291.50 0854.73
2009/04/23 12:27:21.2     -20     43     68     48     83 334.6  61.1  34280  291.62 0854.73
2009/04/23 12:27:21.3     -87     47     47    100    110 298.4  27.1  34286  291.71 0854.73
2009/04/23 12:27:21.4    -115     53     23    127    130 294.8  10.6  34288  291.76 0854.73
2009/04/23 12:27:21.5    -125     23     16    128    130 280.6   7.1  34286  291.72 0854.73
2009/04/23 12:27:21.6    -133    -44     18    141    143 251.8   7.5  34280  291.62 0854.73
2009/04/23 12:27:21.7    -109    -25     13    112    113 256.7   6.9  34282  291.66 0854.73
2009/04/23 12:27:21.8     -90    -43      1    100    101 244.2   0.8  34284  291.67 0854.73
2009/04/23 12:27:21.9     -70    -65     21     96     99 227.3  12.6  34270  291.43 0854.73
2009/04/23 12:27:22.0     -85   -111     85    140    163 217.4  34.2  34248  291.08 0854.73
2009/04/23 12:27:22.1    -148   -118     71    190    202 231.4  21.0  34242  290.96 0854.73
2009/04/23 12:27:22.2    -113   -101     58    152    162 228.2  21.7  34238  290.91 0854.73
2009/04/23 12:27:22.3     -66   -117     27    135    138 209.4  11.6  34238  290.91 0854.73
2009/04/23 12:27:22.4     -70   -118     37    138    144 210.7  15.3  34236  290.87 0854.73
2009/04/23 12:27:22.5     -67   -175      0    188    189 201.2   0.0  34224  290.65 0854.73
2009/04/23 12:27:22.6     -59   -171    -30    182    185 199.2  -9.6  34216  290.53 0854.73
2009/04/23 12:27:22.7     -54   -129    -21    140    142 202.7  -8.8  34214  290.48 0854.73
2009/04/23 12:27:22.8     -85   -136    -24    161    163 212.1  -8.8  34234  290.84 0854.73
2009/04/23 12:27:22.9     -23   -110      5    113    114 192.0   2.8  34222  290.64 0854.73
2009/04/23 12:27:23.0      -1   -110     -4    111    112 180.9  -2.2  34220  290.58 0854.73
2009/04/23 12:27:23.1      43    -45     41     63     75 136.8  35.6  34206  290.36 0854.73
2009/04/23 12:27:23.2      17      4     68     18     70  74.9  84.9  34218  290.55 0854.73
2009/04/23 12:27:23.3     -31     32     77     45     89 315.8  66.8  34238  290.91 0854.73
2009/04/23 12:27:23.4     -49     40     69     64     94 309.6  51.6  34236  290.86 0854.73
2009/04/23 12:27:23.5     -65     41     52     77     92 302.4  37.0  34234  290.84 0854.73
2009/04/23 12:27:23.6     -37     72     38     81     89 332.8  27.1  34234  290.84 0854.73
2009/04/23 12:27:23.7     -60     88     20    107    109 325.7  11.0  34232  290.81 0854.73
2009/04/23 12:27:23.8     -40    103     26    111    115 338.6  13.2  34238  290.91 0854.73
2009/04/23 12:27:23.9     -63     98     10    117    118 327.4   5.0  34242  290.96 0854.73
2009/04/23 12:27:24.0     -56     88     -4    105    106 327.5  -2.2  34248  291.06 0854.73
2009/04/23 12:27:24.1     -31     57     27     66     71 331.1  23.0  34246  291.04 0854.73
2009/04/23 12:27:24.2      -6     48     23     49     54 352.9  27.1  34246  291.04 0854.73
2009/04/23 12:27:24.3      15     88     -2     90     91   9.8  -1.3  34250  291.09 0854.73
2009/04/23 12:27:24.4      28    159     -3    162    163  10.2  -1.1  34246  291.04 0854.73
2009/04/23 12:27:24.5      57    209     46    217    222  15.4  12.0  34274  291.50 0854.72
2009/04/23 12:27:24.6      40    184     49    189    196  12.3  14.7  34282  291.64 0854.72
2009/04/23 12:27:24.7      42    187      0    192    193  12.7  -0.3  34270  291.43 0854.72
2009/04/23 12:27:24.8      -7    201    -13    202    203 358.0  -3.9  34282  291.66 0854.72
2009/04/23 12:27:24.9      -8    204    -16    205    206 357.5  -4.6  34298  291.91 0854.72
2009/04/23 12:27:25.0      -2    191      9    192    193 359.3   2.9  34260  291.26 0854.72
2009/04/23 12:27:25.1     -31    138     21    142    144 347.1   8.5  34240  290.94 0854.72
2009/04/23 12:27:25.2      -7     93     18     94     96 355.5  11.1  34240  290.94 0854.72
2009/04/23 12:27:25.3     -15     58    -12     61     63 344.9 -11.3  34242  290.98 0854.72
2009/04/23 12:27:25.4     -20     72    -13     75     77 344.0 -10.3  34240  290.94 0854.72
2009/04/23 12:27:25.5     -23     72    -40     76     85 341.7 -34.7  34256  291.20 0854.72
2009/04/23 12:27:25.6     -32     46    -32     57     65 324.8 -35.8  34236  290.86 0854.72
2009/04/23 12:27:25.7     -40     14    -54     43     69 290.0 -60.8  34230  290.75 0854.72
2009/04/23 12:27:25.8     -33      2    -40     34     52 274.4 -59.8  34232  290.81 0854.72
2009/04/23 12:27:25.9     -21     -7    -35     23     41 250.0 -68.0  34234  290.84 0854.72
2009/04/23 12:27:26.0     -10     10    -38     15     40 315.0 -82.6  34238  290.89 0854.72
2009/04/23 12:27:26.1       0      7    -26      8     27 357.3 -85.1  34242  290.96 0854.72
2009/04/23 12:27:26.2      -9      3    -17     10     19 291.7 -69.1  34236  290.86 0854.72
2009/04/23 12:27:26.3      -7      2     -4      8      9 288.6 -31.6  34232  290.79 0854.72
2009/04/23 12:27:26.4     -19     -6    -18     20     26 251.8 -54.4  34230  290.75 0854.72
2009/04/23 12:27:26.5     -47     18    -32     51     60 290.8 -39.9  34228  290.72 0854.72
2009/04/23 12:27:26.6     -35    -27    -59     45     74 232.2 -62.9  34228  290.72 0854.72
2009/04/23 12:27:26.7     -84    -37     -9     93     94 246.0  -5.6  34226  290.69 0854.72
2009/04/23 12:27:26.8     -86     -7    -30     87     92 264.8 -23.3  34222  290.62 0854.72
2009/04/23 12:27:26.9    -102      6    -49    103    114 273.5 -31.7  34224  290.65 0854.72
2009/04/23 12:27:27.0     -96      1    -69     97    119 270.8 -43.5  34224  290.67 0854.72
2009/04/23 12:27:27.1    -105    -21    -61    108    124 258.6 -36.3  34224  290.67 0854.72
2009/04/23 12:27:27.2     -70    -33    -47     78     91 244.6 -38.4  34224  290.67 0854.72
2009/04/23 12:27:27.3     -22    -22    -22     32     38 225.0 -42.0  34226  290.70 0854.72
2009/04/23 12:27:27.4      -6    -11      7     13     14 209.0  35.5  34228  290.72 0854.72
2009/04/23 12:27:27.5     -15    -12     -2     20     21 232.2  -7.3  34228  290.72 0854.72
2009/04/23 12:27:27.6     -55     -2    -15     56     59 267.4 -15.5  34226  290.69 0854.72
2009/04/23 12:27:27.7     -88    -33      0     95     96 249.2  -0.3  34220  290.60 0854.72
2009/04/23 12:27:27.8    -119    -61      6    134    135 242.9   2.8  34220  290.60 0854.72
2009/04/23 12:27:27.9    -125    -57      0    138    139 245.6  -0.3  34220  290.58 0854.72
2009/04/23 12:27:28.0    -123    -82    -28    149    152 236.3 -10.9  34228  290.74 0854.72
2009/04/23 12:27:28.1     -70    -94     -9    118    119 216.5  -4.6  34224  290.65 0854.72
2009/04/23 12:27:28.2     -35    -84     24     92     96 202.7  14.7  34224  290.67 0854.72
2009/04/23 12:27:28.3     -44    -83     38     95    102 208.1  23.0  34222  290.62 0854.72
2009/04/23 12:27:28.4     -49    -90     45    103    112 208.9  25.1  34222  290.62 0854.72
2009/04/23 12:27:28.5     -51   -108     41    120    127 205.3  18.9  34214  290.50 0854.73
2009/04/23 12:27:28.6     -57   -100     41    116    124 209.9  19.4  34208  290.40 0854.73
2009/04/23 12:27:28.7     -86   -138      7    163    164 211.9   2.8  34212  290.45 0854.73
2009/04/23 12:27:28.8     -53    -97     10    111    112 209.0   5.4  34212  290.45 0854.73
2009/04/23 12:27:28.9     -56   -103     10    118    119 208.5   4.9  34210  290.43 0854.73
2009/04/23 12:27:29.0     -49    -83     22     97    100 210.7  13.2  34208  290.40 0854.73
2009/04/23 12:27:29.1     -44   -102     39    112    119 203.2  19.4  34198  290.23 0854.73
2009/04/23 12:27:29.2     -59   -124     27    138    141 205.3  11.1  34196  290.19 0854.73
2009/04/23 12:27:29.3     -80   -126     24    150    153 212.6   9.3  34204  290.31 0854.73
2009/04/23 12:27:29.4     -81   -124     30    149    153 213.4  11.6  34200  290.25 0854.73
2009/04/23 12:27:29.5    -110   -116     39    161    166 223.4  13.9  34200  290.26 0854.73
2009/04/23 12:27:29.6    -121   -114     33    167    171 226.9  11.4  34200  290.26 0854.73
2009/04/23 12:27:29.7    -135    -96     21    167    169 234.5   7.5  34208  290.40 0854.73
2009/04/23 12:27:29.8    -129    -79     14    152    153 238.5   5.4  34210  290.41 0854.73
2009/04/23 12:27:29.9    -130    -81     -3    154    155 238.0  -1.2  34202  290.30 0854.73
2009/04/23 12:27:30.0    -138    -86     -8    163    164 238.0  -3.1  34200  290.26 0854.73
2009/04/23 12:27:30.1    -128    -85      0    154    155 236.3  -0.3  34198  290.21 0854.73
2009/04/23 12:27:30.2    -119    -61      1    134    135 242.9   0.8  34198  290.23 0854.73
2009/04/23 12:27:30.3    -111    -43     -2    120    121 248.7  -1.3  34200  290.25 0854.73
2009/04/23 12:27:30.4    -135    -48    -22    144    146 250.5  -8.8  34196  290.19 0854.73
2009/04/23 12:27:30.5    -153    -41    -11    159    160 255.0  -4.1  34200  290.25 0854.73
2009/04/23 12:27:30.6    -148    -29    -21    151    153 258.6  -8.2  34206  290.36 0854.73
2009/04/23 12:27:30.7    -125    -26    -21    128    130 258.1  -9.3  34206  290.35 0854.73
2009/04/23 12:27:30.8    -122    -28     34    126    131 256.8  15.3  34210  290.41 0854.73
2009/04/23 12:27:30.9    -104    -34     10    110    111 251.8   5.4  34204  290.31 0854.73
2009/04/23 12:27:31.0    -124    -30     22    128    131 256.3  10.1  34214  290.50 0854.73
2009/04/23 12:27:31.1    -153    -26     -1    156    157 260.3  -0.5  34232  290.79 0854.73
2009/04/23 12:27:31.2    -150    -30     20    154    156 258.5   7.5  34240  290.92 0854.73
2009/04/23 12:27:31.3    -153    -43     12    160    161 254.1   4.4  34230  290.77 0854.73
2009/04/23 12:27:31.4    -159    -27     13    162    163 260.3   4.9  34234  290.84 0854.73
2009/04/23 12:27:31.5    -140    -46      7    148    149 251.6   2.9  34226  290.70 0854.73
2009/04/23 12:27:31.6    -111    -37     49    118    127 251.6  23.6  34222  290.64 0854.73
2009/04/23 12:27:31.7     -84      7     61     85    104 275.2  39.5  34224  290.67 0854.73
2009/04/23 12:27:31.8     -68     -3     50     69     85 267.4  39.1  34224  290.65 0854.73
2009/04/23 12:27:31.9     -64    -10     48     65     80 260.3  40.1  34218  290.57 0854.73
2009/04/23 12:27:32.0     -88     17     74     90    116 281.5  43.7  34224  290.67 0854.73
2009/04/23 12:27:32.1     -97     80     95    126    157 309.5  40.9  34220  290.60 0854.73
2009/04/23 12:27:32.2    -109     56     42    123    131 297.1  18.9  34228  290.72 0854.73
2009/04/23 12:27:32.3    -115     29     52    119    129 284.2  25.1  34230  290.77 0854.73
2009/04/23 12:27:32.4    -120    -16     47    122    130 262.1  22.0  34230  290.77 0854.73
2009/04/23 12:27:32.5    -133     -2     -5    134    135 268.7  -2.2  34232  290.81 0854.71
2009/04/23 12:27:32.6    -105     34      3    111    112 288.2   1.8  34228  290.72 0854.71
2009/04/23 12:27:32.7     -99     26     -4    103    104 285.0  -2.2  34234  290.82 0854.71
2009/04/23 12:27:32.8    -137     10    -17    138    140 274.3  -7.3  34238  290.89 0854.71
2009/04/23 12:27:32.9    -131      3    -17    132    134 271.7  -7.3  34244  291.01 0854.71
2009/04/23 12:27:33.0    -145     47     -8    153    154 288.2  -3.1  34248  291.08 0854.71
2009/04/23 12:27:33.1    -124    114     -9    169    170 312.4  -3.1  34238  290.89 0854.71
2009/04/23 12:27:33.2     -93    147     70    175    188 327.7  23.0  34224  290.65 0854.71
2009/04/23 12:27:33.3     -98    149     90    179    200 326.8  28.7  34226  290.70 0854.71
2009/04/23 12:27:33.4     -71    188    115    202    232 339.3  32.1  34220  290.58 0854.71
2009/04/23 12:27:33.5     -42    208    113    213    241 348.5  30.2  34224  290.65 0854.71
2009/04/23 12:27:33.6       9    207     96    208    229   2.5  27.0  34230  290.77 0854.71
2009/04/23 12:27:33.7     -47    201     34    207    210 346.7   9.3  34258  291.25 0854.71
2009/04/23 12:27:33.8     -35    172      8    176    177 348.4   2.8  34264  291.35 0854.71
2009/04/23 12:27:33.9     -23    162     -6    164    165 351.9  -2.2  34262  291.30 0854.71
2009/04/23 12:27:34.0     -49    145    -10    154    155 341.3  -3.7  34262  291.30 0854.71
2009/04/23 12:27:34.1     -71    152      0    169    170 334.8   0.2  34266  291.38 0854.71
2009/04/23 12:27:34.2     -94    182    -15    205    206 332.6  -4.4  34262  291.30 0854.71
2009/04/23 12:27:34.3     -56    165     24    175    177 341.3   7.8  34244  291.01 0854.71
2009/04/23 12:27:34.4     -62    151      8    164    165 337.5   2.9  34248  291.08 0854.71
2009/04/23 12:27:34.5     -73    115     37    137    143 327.5  15.2  34240  290.92 0854.72
2009/04/23 12:27:34.6     -22    116     40    119    126 349.3  18.9  34238  290.89 0854.72
2009/04/23 12:27:34.7     -47    121     49    130    138 338.6  21.5  34232  290.81 0854.72
2009/04/23 12:27:34.8     -45    101     52    111    122 335.9  26.6  34234  290.84 0854.72
2009/04/23 12:27:34.9     -22     68     82     72    109 341.7  53.7  34236  290.86 0854.72
2009/04/23 12:27:35.0      -9     65     58     66     87 352.0  46.4  34232  290.81 0854.72
2009/04/23 12:27:35.1      83     53     11     99    100  57.6   6.9  34228  290.72 0854.72
2009/04/23 12:27:35.2      31     71     71     78    105  23.6  47.5  34224  290.65 0854.72
2009/04/23 12:27:35.3      19     95     93     97    134  11.5  49.4  34214  290.50 0854.72
2009/04/23 12:27:35.4     -18     97     49     99    110 349.3  27.8  34222  290.64 0854.72
2009/04/23 12:27:35.5      -1     80     38     81     89 359.1  27.1  34218  290.57 0854.71
2009/04/23 12:27:35.6      30     64     39     71     81  25.3  31.4  34214  290.48 0854.71
2009/04/23 12:27:35.7      51     47     42     70     81  46.8  34.0  34214  290.50 0854.71
2009/04/23 12:27:35.8      41     26     45     49     66  57.6  47.9  34216  290.53 0854.71
2009/04/23 12:27:35.9      24      0     52     25     57  90.8  72.9  34218  290.55 0854.71
2009/04/23 12:27:36.0      59     -5     44     60     74  95.2  39.7  34216  290.52 0854.71
2009/04/23 12:27:36.1      38    -24     42     45     61 122.4  47.9  34216  290.52 0854.71
2009/04/23 12:27:36.2      -2      3     51      4     51 327.5  90.0  34222  290.62 0854.71
2009/04/23 12:27:36.3     -28    -47     88     55    103 210.7  64.7  34218  290.55 0854.71
2009/04/23 12:27:36.4      23    -79     70     83    108 163.5  44.3  34214  290.50 0854.71
2009/04/23 12:27:36.5      16    -49     77     52     92 161.5  63.2  34218  290.55 0854.71
2009/04/23 12:27:36.6      34    -83     82     90    121 157.3  47.5  34218  290.57 0854.71
2009/04/23 12:27:36.7      16    -83     83     85    118 168.9  49.9  34214  290.50 0854.71
2009/04/23 12:27:36.8      31    -99     70    104    125 162.6  37.4  34212  290.45 0854.71
2009/04/23 12:27:36.9       0   -104     75    105    129 180.4  39.5  34210  290.41 0854.71
2009/04/23 12:27:37.0      26    -87     74     92    118 163.1  43.7  34206  290.35 0854.71
2009/04/23 12:27:37.1      32    -92     60     98    114 160.4  35.5  34210  290.43 0854.71
2009/04/23 12:27:37.2      36    -63     49     73     87 150.1  37.0  34214  290.48 0854.71
2009/04/23 12:27:37.3      52    -50     51     73     89 134.0  38.6  34216  290.52 0854.71
2009/04/23 12:27:37.4      45    -55     44     72     84 140.4  35.0  34210  290.43 0854.71
2009/04/23 12:27:37.5      30    -63     46     70     83 154.6  36.0  34208  290.38 0854.73
2009/04/23 12:27:37.6      24    -51     65     57     86 154.5  53.7  34210  290.41 0854.73
2009/04/23 12:27:37.7      -9    -70     86     71    111 188.0  56.4  34220  290.58 0854.73
2009/04/23 12:27:37.8       4    -22     65     23     68 168.4  81.2  34224  290.67 0854.73
2009/04/23 12:27:37.9       0    -10     44     11     45 182.7  86.9  34228  290.74 0854.73
2009/04/23 12:27:38.0       0    -10     57     11     58 182.7  89.1  34236  290.86 0854.73
2009/04/23 12:27:38.1      26    -55     59     61     84 154.7  50.0  34234  290.82 0854.73
2009/04/23 12:27:38.2      17   -128     85    130    155 172.4  35.6  34234  290.82 0854.73
2009/04/23 12:27:38.3      16   -119     85    121    147 172.0  38.6  34230  290.75 0854.73
2009/04/23 12:27:38.4      72    -80     75    108    131 138.1  38.0  34222  290.62 0854.73
2009/04/23 12:27:38.5     117   -103     50    157    165 131.3  17.9  34212  290.47 0854.73
2009/04/23 12:27:38.6     144   -105     53    179    187 126.0  16.6  34200  290.25 0854.73
2009/04/23 12:27:38.7     148    -87     53    172    181 120.4  17.3  34204  290.31 0854.73
2009/04/23 12:27:38.8     127    -75     28    148    151 120.7  11.0  34214  290.48 0854.73
2009/04/23 12:27:38.9     135    -44     63    143    156 108.2  25.2  34222  290.64 0854.73
2009/04/23 12:27:39.0      90    -57     61    107    123 122.4  32.9  34216  290.52 0854.73
2009/04/23 12:27:39.1      64    -27     67     70     96 113.5  49.4  34216  290.52 0854.73
2009/04/23 12:27:39.2     129      5     76    130    150  87.5  33.4  34232  290.79 0854.73
2009/04/23 12:27:39.3     100     -9     82    101    130  95.7  43.7  34222  290.62 0854.73
2009/04/23 12:27:39.4      76    -62     87     99    131 129.1  45.8  34208  290.40 0854.73
2009/04/23 12:27:39.5     103    -57     93    118    150 118.9  42.7  34210  290.41 0854.74
2009/04/23 12:27:39.6      62      0     64     63     89  90.9  49.7  34222  290.62 0854.74
2009/04/23 12:27:39.7       0    -52     68     53     86 180.9  58.5  34212  290.45 0854.74
2009/04/23 12:27:39.8      59    -48     72     77    105 129.5  48.0  34224  290.65 0854.74
2009/04/23 12:27:39.9      34    -12     65     37     74 110.0  67.7  34232  290.79 0854.74
2009/04/23 12:27:40.0       0    -49     61     50     78 180.9  56.4  34224  290.67 0854.74
2009/04/23 12:27:40.1      40    -85     76     95    121 154.7  42.7  34230  290.77 0854.74
2009/04/23 12:27:40.2      20    -21     63     30     69 136.8  72.9  34236  290.86 0854.74
2009/04/23 12:27:40.3     -10    -45     68     47     82 192.5  62.1  34224  290.67 0854.74
2009/04/23 12:27:40.4     -32    -88     56     94    109 200.5  34.0  34224  290.67 0854.74
2009/04/23 12:27:40.5     -32    -94     62    100    117 199.2  35.0  34220  290.58 0854.74
2009/04/23 12:27:40.6     -18   -112     63    114    130 189.3  31.4  34206  290.36 0854.74
2009/04/23 12:27:40.7     -22   -109     55    112    124 191.5  28.2  34204  290.31 0854.74
2009/04/23 12:27:40.8       0   -115     42    116    123 179.5  20.9  34204  290.33 0854.74
2009/04/23 12:27:40.9      12   -104     74    105    128 173.3  38.6  34208  290.40 0854.74
2009/04/23 12:27:41.0       3   -104     63    105    122 178.2  33.5  34204  290.33 0854.74
2009/04/23 12:27:41.1      14    -89     55     91    106 170.7  34.4  34204  290.31 0854.74
2009/04/23 12:27:41.2      34    -59     70     69     98 150.1  50.1  34206  290.36 0854.74
2009/04/23 12:27:41.3       5    -76     61     77     98 175.6  43.3  34204  290.33 0854.74
2009/04/23 12:27:41.5       3    -50     68     51     85 176.4  59.4  34204  290.31 0854.74
2009/04/23 12:27:41.5       0     -2     63      3     63 189.7  90.0  34206  290.36 0854.75
2009/04/23 12:27:41.6       1    -11     57     12     58 172.0  89.0  34204  290.33 0854.75
2009/04/23 12:27:41.7      -7    -84    103     85    133 185.3  56.4  34202  290.28 0854.75
2009/04/23 12:27:41.8     -33    -84     74     91    117 201.8  43.7  34202  290.30 0854.75
2009/04/23 12:27:41.9     -20    -83     68     86    109 193.8  43.3  34204  290.31 0854.75
2009/04/23 12:27:42.0     -23    -88     78     92    120 195.1  44.8  34208  290.40 0854.75
2009/04/23 12:27:42.1       0    -46     94     47    105 180.9  71.9  34208  290.40 0854.75
2009/04/23 12:27:42.2     -17     53     37     56     67 341.3  35.6  34210  290.41 0854.75
2009/04/23 12:27:42.3     -15     77     59     79     98 348.4  40.1  34206  290.35 0854.75
2009/04/23 12:27:42.5    -102     75     34    127    132 306.4  15.3  34206  290.36 0854.75
2009/04/23 12:27:42.6     -98     56     13    114    115 299.8   6.9  34206  290.36 0854.75
2009/04/23 12:27:42.7     -73     52     21     90     93 305.5  13.2  34210  290.41 0854.75
2009/04/23 12:27:42.8     -53     33     28     63     68 302.4  25.1  34208  290.38 0854.75
2009/04/23 12:27:42.9     -66     10     23     67     72 278.8  19.4  34202  290.30 0854.75
2009/04/23 12:27:43.0     -54     18     34     58     67 288.6  33.5  34208  290.38 0854.75
2009/04/23 12:27:43.1     -66     21     32     70     76 288.2  27.1  34210  290.43 0854.75
2009/04/23 12:27:43.2    -103      7     -9    104    105 274.3  -5.2  34206  290.36 0854.75
2009/04/23 12:27:43.3    -116     14    -78    117    140 277.0 -41.4  34196  290.19 0854.75
2009/04/23 12:27:43.4     -98     39    -33    106    111 291.7 -22.3  34202  290.30 0854.75
2009/04/23 12:27:43.5    -112     11     13    113    114 275.7   6.9  34204  290.33 0854.75
2009/04/23 12:27:43.6     -90    -19      9     93     94 257.6   5.9  34206  290.35 0854.74
2009/04/23 12:27:43.7     -67    -55     10     87     88 230.5   6.9  34206  290.36 0854.74
2009/04/23 12:27:43.8     -67    -63     20     93     96 226.9  12.2  34206  290.35 0854.74
2009/04/23 12:27:43.9     -64    -48     27     81     86 233.1  18.4  34208  290.38 0854.74
2009/04/23 12:27:44.0     -41    -53     23     68     72 217.8  18.9  34212  290.45 0854.74
2009/04/23 12:27:44.1     -35    -53     10     64     65 213.4   9.0  34214  290.50 0854.74
2009/04/23 12:27:44.2     -15    -48     -2     51     52 197.8  -2.2  34210  290.43 0854.74
2009/04/23 12:27:44.3      -9    -59    -13     60     62 188.9 -12.4  34210  290.43 0854.74
2009/04/23 12:27:44.4     -28    -55    -20     62     65 207.2 -23.8  34216  290.52 0854.74
2009/04/23 12:27:44.5     -16    -34    -16     38     41 205.4 -28.5  34212  290.45 0854.74
2009/04/23 12:27:44.6     -13    -38      5     41     42 199.2   8.0  34212  290.45 0854.74
2009/04/23 12:27:44.7     -15    -56     17     59     62 195.2  16.3  34214  290.48 0854.74
2009/04/23 12:27:44.8     -37    -63     38     74     83 210.7  29.3  34218  290.57 0854.74
2009/04/23 12:27:44.9     -65    -55     59     86    104 229.6  37.6  34220  290.58 0854.74
2009/04/23 12:27:45.0     -80    -42     56     91    106 242.0  35.0  34216  290.53 0854.74
2009/04/23 12:27:45.1     -98    -12     49     99    110 262.5  27.8  34216  290.53 0854.74
2009/04/23 12:27:45.2    -103      0     44    104    112 270.0  24.1  34214  290.50 0854.74
2009/04/23 12:27:45.3    -115     -8     36    116    122 265.6  17.4  34214  290.50 0854.74
2009/04/23 12:27:45.4    -119    -28     67    123    140 256.7  31.3  34214  290.48 0854.74
2009/04/23 12:27:45.5    -129    -35     65    134    148 254.5  27.3  34212  290.47 0854.74
2009/04/23 12:27:45.6    -121    -28     43    125    133 256.7  19.2  34212  290.47 0854.74
2009/04/23 12:27:45.7     -96      7     40     97    104 274.3  23.0  34208  290.40 0854.74
2009/04/23 12:27:45.8    -146     32     12    150    151 282.4   4.9  34216  290.52 0854.74
2009/04/23 12:27:45.9    -111    -25     11    114    115 257.2   5.9  34220  290.58 0854.74
2009/04/23 12:27:46.0     -68    -68     50     97    109 225.0  29.3  34224  290.67 0854.74
2009/04/23 12:27:46.1    -114    -57     52    128    138 243.4  23.1  34232  290.79 0854.74
2009/04/23 12:27:46.2     -84    -73     49    112    122 228.7  25.1  34230  290.77 0854.74
2009/04/23 12:27:46.3    -129    -67     22    146    148 242.5   8.9  34228  290.72 0854.74
2009/04/23 12:27:46.4     -79    -79     79    112    137 225.0  39.1  34234  290.84 0854.74
2009/04/23 12:27:46.5    -110    -47     34    120    125 246.5  15.8  34230  290.77 0854.74
2009/04/23 12:27:46.6     -90    -57     48    107    117 237.5  25.7  34234  290.82 0854.74
2009/04/23 12:27:46.7     -92    -42      5    102    103 245.2   2.8  34218  290.57 0854.74
2009/04/23 12:27:46.8    -123    -10     -8    124    125 265.2  -3.7  34236  290.86 0854.74
2009/04/23 12:27:46.9    -124    -54      1    136    137 246.5   0.8  34228  290.72 0854.74
2009/04/23 12:27:47.0     -98    -58      3    115    116 239.3   1.8  34220  290.58 0854.74
2009/04/23 12:27:47.1     -82    -83     42    117    124 224.7  20.0  34234  290.82 0854.74
2009/04/23 12:27:47.2    -112    -86    -33    142    146 232.3 -13.4  34216  290.53 0854.74
2009/04/23 12:27:47.3    -118   -107     48    160    168 227.8  16.6  34224  290.65 0854.74
2009/04/23 12:27:47.4    -153   -163    112    224    250 223.2  28.2  34226  290.70 0854.74
2009/04/23 12:27:47.5    -133   -123     48    182    189 227.3  15.0  34232  290.81 0854.74
2009/04/23 12:27:47.6    -240   -132     23    275    277 241.1   5.0  34220  290.59 0854.75
2009/04/23 12:27:47.7    -233   -202     83    309    321 229.1  15.1  34222  290.61 0854.75
2009/04/23 12:27:47.8    -254   -229     22    343    344 228.0   3.7  34226  290.69 0854.75
2009/04/23 12:27:47.9    -165   -227      3    281    282 216.0   0.7  34212  290.46 0854.75
2009/04/23 12:27:48.0     -76   -248     76    260    271 197.2  16.4  34214  290.49 0854.75
2009/04/23 12:27:48.1     -61   -240     55    248    255 194.3  12.6  34212  290.44 0854.75
2009/04/23 12:27:48.2     -52   -218     41    225    229 193.6  10.3  34208  290.38 0854.75
2009/04/23 12:27:48.3     -51   -208     44    215    220 193.8  11.6  34210  290.43 0854.75
2009/04/23 12:27:48.4     -27   -181     37    184    188 188.5  11.4  34220  290.58 0854.75
2009/04/23 12:27:48.5     -54   -252      9    258    259 192.3   2.1  34224  290.66 0854.75
2009/04/23 12:27:48.6    -102   -216     17    240    241 205.3   4.2  34244  291.00 0854.75
2009/04/23 12:27:48.7    -128   -216     30    252    254 210.7   6.9  34242  290.97 0854.75
2009/04/23 12:27:48.8    -133   -229     27    265    267 210.1   6.0  34254  291.17 0854.75
2009/04/23 12:27:48.9    -127   -232     39    265    268 208.7   8.5  34240  290.92 0854.75
2009/04/23 12:27:49.0     -94   -249     -5    267    268 200.7  -1.2  34240  290.92 0854.75
2009/04/23 12:27:49.1     -77   -247     46    259    264 197.4  10.1  34214  290.49 0854.75
2009/04/23 12:27:49.2     -71   -247     13    258    259 196.0   2.9  34188  290.03 0854.75
2009/04/23 12:27:49.3     -66   -241      7    251    252 195.4   1.8  34190  290.09 0854.75
2009/04/23 12:27:49.4     -76   -266     33    277    280 196.0   6.9  34188  290.05 0854.75
2009/04/23 12:27:49.5     -85   -273     33    287    289 197.4   6.7  34190  290.09 0854.75
2009/04/23 12:27:49.6    -128   -269     31    299    301 205.5   6.1  34190  290.09 0854.76
2009/04/23 12:27:49.7     -85   -282     15    295    296 196.9   2.9  34196  290.19 0854.76
2009/04/23 12:27:49.8    -112   -269    -19    292    293 202.7  -3.9  34188  290.03 0854.76
2009/04/23 12:27:49.9     -84   -269     10    282    283 197.4   2.1  34212  290.44 0854.76
2009/04/23 12:27:50.0     -93   -255    -15    272    273 200.1  -3.2  34196  290.17 0854.76
2009/04/23 12:27:50.1     -58   -218      3    226    227 195.1   0.8  34202  290.28 0854.76
2009/04/23 12:27:50.2     -76   -230     -6    243    244 198.3  -1.6  34204  290.31 0854.76
2009/04/23 12:27:50.3    -137   -284     64    316    323 205.9  11.6  34198  290.22 0854.76
2009/04/23 12:27:50.4    -120   -255     60    282    289 205.2  12.0  34206  290.34 0854.76
2009/04/23 12:27:50.5    -152   -217    -10    266    267 215.0  -2.2  34238  290.88 0854.76
2009/04/23 12:27:50.6    -119   -223      3    253    254 208.1   0.8  34202  290.27 0854.76
2009/04/23 12:27:50.7     -61   -235     45    243    248 194.7  10.6  34182  289.95 0854.76
2009/04/23 12:27:50.8     -92   -249     11    266    267 200.3   2.5  34182  289.95 0854.76
2009/04/23 12:27:50.9     -81   -196     25    213    215 202.5   6.7  34184  289.97 0854.76
2009/04/23 12:27:51.0     -62   -209     -1    219    220 196.7  -0.5  34182  289.96 0854.76
2009/04/23 12:27:51.1     -73   -202     18    215    216 200.0   4.9  34182  289.94 0854.76
2009/04/23 12:27:51.2     -68   -194     -8    206    207 199.4  -2.2  34182  289.94 0854.76
2009/04/23 12:27:51.3     -60   -219     35    228    231 195.4   8.9  34186  290.02 0854.76
2009/04/23 12:27:51.4     -51   -234     65    240    249 192.4  15.2  34190  290.07 0854.76
2009/04/23 12:27:51.5     -47   -241     42    246    250 191.1   9.9  34190  290.09 0854.76
2009/04/23 12:27:51.6     -48   -220     66    226    236 192.3  16.4  34190  290.08 0854.76
2009/04/23 12:27:51.7     -60   -215     43    224    229 195.8  11.0  34190  290.09 0854.76
2009/04/23 12:27:51.8     -86   -199     38    217    221 203.4  10.1  34190  290.08 0854.76
2009/04/23 12:27:51.9     -92   -209     92    229    246 203.7  23.0  34192  290.12 0854.76
2009/04/23 12:27:52.0    -130   -172     18    216    217 217.2   5.0  34190  290.08 0854.76
2009/04/23 12:27:52.1    -120   -120    113    171    204 225.0  36.5  34190  290.09 0854.76
2009/04/23 12:27:52.2    -192   -114     74    224    237 239.4  18.4  34194  290.14 0854.76
2009/04/23 12:27:52.3    -189    -76     61    204    214 248.0  16.8  34202  290.30 0854.76
2009/04/23 12:27:52.4    -136    -99     90    169    191 234.0  30.3  34208  290.38 0854.76
2009/04/23 12:27:52.5     -51   -107    133    119    178 205.9  53.3  34200  290.25 0854.76
2009/04/23 12:27:52.6     -48   -132    149    141    205 200.1  52.0  34204  290.31 0854.76
2009/04/23 12:27:52.7       5   -108    163    109    196 177.3  62.7  34208  290.38 0854.76
2009/04/23 12:27:52.8      76    -73    136    106    172 134.0  57.9  34204  290.31 0854.76
2009/04/23 12:27:52.9      46   -126    123    135    182 159.9  47.5  34198  290.21 0854.76
2009/04/23 12:27:53.0       7    -80    116     81    141 174.7  61.5  34200  290.26 0854.76
2009/04/23 12:27:53.1      12    -47    107     49    117 164.9  74.0  34202  290.30 0854.76
2009/04/23 12:27:53.2      97    -71    135    121    181 126.4  53.3  34192  290.11 0854.76
2009/04/23 12:27:53.3     139    -88    164    165    232 122.5  50.0  34188  290.04 0854.76
2009/04/23 12:27:53.4      15    -69    128     71    146 167.5  68.8  34190  290.08 0854.76
2009/04/23 12:27:53.5     -13   -126    163    127    206 186.2  58.2  34178  289.89 0854.76
2009/04/23 12:27:53.6     -65   -175    141    187    234 200.5  40.7  34176  289.84 0854.77
2009/04/23 12:27:53.7     -46   -164    160    171    234 195.8  48.0  34174  289.82 0854.77
2009/04/23 12:27:53.8       0   -137     90    138    164 180.4  36.0  34174  289.82 0854.77
2009/04/23 12:27:53.9      15    -68    153     70    168 167.5  74.0  34180  289.92 0854.77
2009/04/23 12:27:54.0      -5    -12     79     14     80 201.8  90.0  34178  289.87 0854.77
2009/04/23 12:27:54.1      14     22     87     27     91  32.6  81.8  34182  289.96 0854.77
2009/04/23 12:27:54.2     119     12    154    120    195  83.9  57.9  34182  289.94 0854.77
2009/04/23 12:27:54.3      73    -48    125     88    152 123.3  61.5  34180  289.91 0854.77
2009/04/23 12:27:54.4     100    -75    111    125    167 126.9  46.4  34178  289.89 0854.77
2009/04/23 12:27:54.5      97   -167     59    194    203 149.9  17.1  34176  289.84 0854.77
2009/04/23 12:27:54.6      21   -147     45    149    156 171.5  16.8  34176  289.85 0854.77
2009/04/23 12:27:54.7     -15   -115     32    117    122 187.6  15.3  34174  289.80 0854.77
2009/04/23 12:27:54.8     -62   -133      3    147    148 204.9   1.2  34172  289.77 0854.77
2009/04/23 12:27:54.9     -69   -138     54    155    165 206.5  19.2  34170  289.74 0854.77
2009/04/23 12:27:55.0    -100   -125     27    161    164 218.5   9.5  34170  289.75 0854.77
2009/04/23 12:27:55.1    -100   -137     18    170    171 216.3   6.1  34170  289.75 0854.77
2009/04/23 12:27:55.2     -59   -132     53    145    154 204.1  20.4  34170  289.74 0854.77
2009/04/23 12:27:55.3     -11   -151     -8    152    153 184.5  -3.1  34168  289.70 0854.77
2009/04/23 12:27:55.4      11   -143     12    144    145 175.6   5.0  34170  289.74 0854.77
2009/04/23 12:27:55.5       8   -172      8    173    174 177.3   2.9  34170  289.75 0854.77
2009/04/23 12:27:55.6      22   -156    -47    158    166 171.8 -16.8  34170  289.75 0854.78
2009/04/23 12:27:55.7      23   -114    -23    117    120 168.4 -11.3  34170  289.75 0854.78
2009/04/23 12:27:55.8      27   -140    -41    143    149 168.9 -16.0  34170  289.75 0854.78
2009/04/23 12:27:55.9       3   -148    -30    149    152 178.6 -11.5  34172  289.77 0854.78
2009/04/23 12:27:56.0      -4   -169     63    170    181 181.4  21.3  34174  289.82 0854.78
2009/04/23 12:27:56.1      48   -188     30    195    198 165.5   8.8  34176  289.84 0854.78
2009/04/23 12:27:56.2      68   -144     96    160    186 154.5  34.0  34172  289.79 0854.78
2009/04/23 12:27:56.3      58    -96    113    113    159 148.8  50.1  34174  289.80 0854.78
2009/04/23 12:27:56.4      62    -34     93     71    117 118.9  58.5  34176  289.85 0854.78
2009/04/23 12:27:56.5      89    -23     84     92    124 104.6  47.5  34178  289.87 0854.78
2009/04/23 12:27:56.6      44    -20     79     49     92 115.3  64.7  34178  289.87 0854.79
2009/04/23 12:27:56.7     -14    -22     60     27     65 212.5  74.0  34182  289.96 0854.79
2009/04/23 12:27:56.8      -1    -74     70     75    102 180.9  48.0  34182  289.94 0854.79
2009/04/23 12:27:56.9      86    -64    109    108    153 126.9  50.1  34178  289.87 0854.79
2009/04/23 12:27:57.0      91    -59    124    109    165 123.3  54.3  34178  289.87 0854.79
2009/04/23 12:27:57.1      40   -159    149    165    222 165.7  47.1  34176  289.85 0854.79
2009/04/23 12:27:57.2      62   -133    156    147    214 155.1  51.6  34178  289.87 0854.79
2009/04/23 12:27:57.3      66   -217     91    227    244 163.1  23.0  34174  289.81 0854.79
2009/04/23 12:27:57.4     137   -158     57    210    218 139.0  15.2  34174  289.82 0854.79
2009/04/23 12:27:57.5      98   -138     56    170    180 144.4  18.4  34174  289.82 0854.79
2009/04/23 12:27:57.6      76   -174     80    190    206 156.4  24.3  34174  289.82 0854.79
2009/04/23 12:27:57.7     143   -154     41    211    215 137.0  11.0  34174  289.82 0854.79
2009/04/23 12:27:57.8     228   -117    -28    257    259 117.3  -6.2  34174  289.81 0854.79
2009/04/23 12:27:57.9     200   -183    -14    272    273 132.4  -3.1  34176  289.85 0854.79
2009/04/23 12:27:58.0     319   -172     32    363    365 118.3   5.1  34172  289.76 0854.79
2009/04/23 12:27:58.1     258   -175     83    313    324 124.2  14.9  34170  289.75 0854.79
2009/04/23 12:27:58.2     196   -172    112    262    284 131.3  24.9  34170  289.73 0854.79
2009/04/23 12:27:58.3      95   -288    130    304    330 161.7  24.6  34170  289.75 0854.79
2009/04/23 12:27:58.4      84   -330    131    341    365 165.7  22.0  34172  289.76 0854.79
2009/04/23 12:27:58.5     162   -222    188    276    333 143.9  37.6  34166  289.68 0854.79
2009/04/23 12:27:58.6     196   -196    131    278    307 135.0  27.1  34172  289.76 0854.79
2009/04/23 12:27:58.7     298   -175    147    346    375 120.4  24.3  34172  289.77 0854.79
2009/04/23 12:27:58.8     171   -248     -5    302    303 145.3  -1.1  34172  289.76 0854.79
2009/04/23 12:27:58.9     234   -205     -6    312    313 131.3  -1.2  34174  289.80 0854.79
2009/04/23 12:27:59.0     176   -242    -43    300    304 143.9  -8.3  34174  289.81 0854.79
2009/04/23 12:27:59.1     131   -239    -62    273    281 151.1 -12.9  34176  289.85 0854.79
2009/04/23 12:27:59.2     185   -223    -30    290    292 140.3  -6.1  34174  289.80 0854.79
2009/04/23 12:27:59.3     194   -205    -56    283    289 136.6 -11.3  34174  289.80 0854.79
2009/04/23 12:27:59.4     151   -153    -65    216    226 135.5 -17.0  34172  289.79 0854.79
2009/04/23 12:27:59.5      51   -151     73    160    175 161.3  26.2  34168  289.72 0854.79
2009/04/23 12:27:59.6     154   -222    123    271    297 145.3  26.2  34170  289.73 0854.79
2009/04/23 12:27:59.7     128   -239     96    272    289 151.9  19.6  34172  289.76 0854.79
2009/04/23 12:27:59.8      98   -307    154    323    357 162.2  27.3  34168  289.71 0854.79
2009/04/23 12:27:59.9      58   -289    110    295    314 168.5  21.4  34168  289.71 0854.79
2009/04/23 12:28:00.0      16   -258     78    259    271 176.4  16.8  34172  289.78 0854.79
2009/04/23 12:28:00.1       9   -183     30    184    187 177.1   9.5  34164  289.65 0854.79
2009/04/23 12:28:00.2      54   -133    -89    144    169 157.7 -39.2  34174  289.80 0854.79
2009/04/23 12:28:00.3      65   -158    -68    171    184 157.5 -27.2  34174  289.80 0854.79
2009/04/23 12:28:00.4      80   -146    -55    167    175 151.3 -23.8  34172  289.77 0854.79
2009/04/23 12:28:00.5      27   -132    -17    135    137 168.4  -7.3  34172  289.79 0854.79
2009/04/23 12:28:00.6      -7   -170    -55    171    180 182.5 -17.9  34170  289.75 0854.79
2009/04/23 12:28:00.7     -35   -179    -13    183    184 191.3  -4.1  34174  289.80 0854.79
2009/04/23 12:28:00.8     -19   -144      5    146    147 187.6   2.3  34174  289.82 0854.79
2009/04/23 12:28:00.9     -60   -125    -33    139    143 205.9 -13.4  34174  289.82 0854.79
2009/04/23 12:28:01.0     -51   -153    -59    162    172 198.7 -24.8  34170  289.75 0854.79
2009/04/23 12:28:01.1     -17   -165    -26    166    169 186.2  -9.0  34172  289.77 0854.79
2009/04/23 12:28:01.2     -31   -161    -45    165    172 191.1 -15.5  34174  289.82 0854.79
2009/04/23 12:28:01.3     -31   -151    -73    155    171 191.6 -31.5  34172  289.79 0854.79
2009/04/23 12:28:01.4      35   -168    -57    172    182 168.2 -18.3  34174  289.80 0854.79
2009/04/23 12:28:01.5      46   -166    -31    173    176 164.4 -10.3  34172  289.79 0854.79
2009/04/23 12:28:01.6      45   -216    103    221    243 168.0  27.1  34168  289.70 0854.79
2009/04/23 12:28:01.7      30   -258    112    260    283 173.3  25.1  34172  289.78 0854.79
2009/04/23 12:28:01.8      82   -209      3    225    226 158.6   0.8  34172  289.79 0854.79
2009/04/23 12:28:01.9     -42   -153    -80    159    177 195.6 -33.1  34168  289.70 0854.79
2009/04/23 12:28:02.0    -113   -172    -98    207    229 213.4 -31.6  34172  289.77 0854.79
2009/04/23 12:28:02.1     -82   -182    -85    200    217 204.3 -28.7  34170  289.74 0854.79
2009/04/23 12:28:02.2     -59   -179    -56    189    197 198.3 -21.2  34170  289.75 0854.79
2009/04/23 12:28:02.3     -33   -197     -6    200    201 189.6  -1.8  34170  289.74 0854.79
2009/04/23 12:28:02.4     -58   -205     27    214    216 195.8   7.2  34170  289.74 0854.79
2009/04/23 12:28:02.5    -125   -150     -7    196    197 219.7  -2.2  34170  289.74 0854.79
2009/04/23 12:28:02.6    -111   -206    -64    235    244 208.3 -15.4  34174  289.80 0854.79
2009/04/23 12:28:02.7    -101   -175    -80    203    218 210.1 -27.2  34172  289.77 0854.79
2009/04/23 12:28:02.8     -51   -190    -65    197    208 195.1 -18.3  34172  289.77 0854.79
2009/04/23 12:28:02.9     -46   -243    -46    248    253 190.9 -10.5  34166  289.68 0854.79
2009/04/23 12:28:03.0     -57   -251    -33    258    261 192.9  -7.3  34170  289.73 0854.79
2009/04/23 12:28:03.1     -73   -292    -38    302    305 194.2  -7.3  34172  289.78 0854.79
2009/04/23 12:28:03.2     -16   -276   -105    277    296 183.5 -26.4  34170  289.73 0854.79
2009/04/23 12:28:03.3     -24   -190   -107    192    219 187.3 -35.8  34172  289.77 0854.79
2009/04/23 12:28:03.4     -48   -188    -81    195    211 194.5 -28.2  34170  289.74 0854.79
2009/04/23 12:28:03.5    -131   -174    -46    219    224 217.0 -11.9  34174  289.82 0854.79
2009/04/23 12:28:03.6     -51   -166    -63    174    185 197.2 -24.6  34174  289.82 0854.79
2009/04/23 12:28:03.7     -28   -170    -56    173    181 189.6 -23.3  34174  289.80 0854.79
2009/04/23 12:28:03.8       4   -245    -76    246    257 179.0 -22.1  34168  289.71 0854.79
2009/04/23 12:28:03.9      74   -169     -8    185    186 156.4  -2.6  34164  289.63 0854.79
2009/04/23 12:28:04.0     113   -204     28    234    236 151.0   6.9  34168  289.70 0854.79
2009/04/23 12:28:04.1      73   -203      1    216    217 160.2   0.5  34168  289.72 0854.79
2009/04/23 12:28:04.2      58   -209    -28    217    219 164.4  -7.5  34166  289.69 0854.79
2009/04/23 12:28:04.3      23   -202    -69    204    216 173.5 -18.7  34170  289.74 0854.79
2009/04/23 12:28:04.4      23   -202    -47    204    210 173.5 -13.2  34168  289.70 0854.79
2009/04/23 12:28:04.5      72   -200    -69    213    223 160.0 -23.6  34166  289.67 0854.79
2009/04/23 12:28:04.6      94   -186     90    209    227 153.0  24.9  34166  289.69 0854.78
2009/04/23 12:28:04.7     192   -183     54    266    272 133.6  11.6  34168  289.71 0854.78
2009/04/23 12:28:04.8     226   -299     82    375    384 142.9  12.4  34168  289.72 0854.78
2009/04/23 12:28:04.9     262   -292     71    393    400 138.1  10.3  34164  289.65 0854.78
2009/04/23 12:28:05.0     313   -246    151    399    426 128.1  21.8  34170  289.75 0854.78
2009/04/23 12:28:05.1     183   -260    147    319    351 144.8  26.4  34162  289.62 0854.78
2009/04/23 12:28:05.2      89   -301    152    314    348 163.5  27.7  34164  289.64 0854.78
2009/04/23 12:28:05.3     -82   -306     51    317    322 195.1   9.2  34162  289.59 0854.78
2009/04/23 12:28:05.4     -24   -307    -65    309    316 184.5 -11.9  34168  289.71 0854.78
2009/04/23 12:28:05.5     -16   -344    -49    345    349 182.8  -8.2  34166  289.67 0854.78
2009/04/23 12:28:05.6       4   -345    -45    346    349 179.3  -7.5  34168  289.72 0854.78
2009/04/23 12:28:05.7      72   -314    -46    323    327 167.0  -8.2  34170  289.73 0854.78
2009/04/23 12:28:05.8      99   -328     -4    343    344 163.1  -0.7  34168  289.72 0854.78
2009/04/23 12:28:05.9     128   -316      8    342    343 157.9   1.5  34172  289.76 0854.78
2009/04/23 12:28:06.0      78   -288    -21    299    300 164.8  -4.1  34168  289.71 0854.78
2009/04/23 12:28:06.1      78   -288    -32    299    301 164.8  -6.2  34168  289.70 0854.78
2009/04/23 12:28:06.2     128   -219    -29    254    256 149.7  -6.7  34168  289.70 0854.78
2009/04/23 12:28:06.3      71   -188    -65    201    212 159.3 -17.9  34168  289.72 0854.78
2009/04/23 12:28:06.4       3   -218    -57    219    227 179.0 -14.7  34170  289.74 0854.78
2009/04/23 12:28:06.5      52   -215    -75    222    235 166.4 -18.7  34170  289.75 0854.78
2009/04/23 12:28:06.6      84   -295    -34    307    309 164.0  -6.5  34168  289.71 0854.79
2009/04/23 12:28:06.7      17   -220   -103    221    243 175.5 -31.5  34166  289.66 0854.79
2009/04/23 12:28:06.8      60   -223    -72    232    244 164.8 -17.3  34174  289.80 0854.79
2009/04/23 12:28:06.9     126   -193    -12    231    232 146.8  -3.1  34168  289.72 0854.79
2009/04/23 12:28:07.0      94   -195    -53    217    224 154.1 -13.9  34170  289.75 0854.79
2009/04/23 12:28:07.1      62   -230    -73    239    249 164.9 -22.1  34170  289.75 0854.79
2009/04/23 12:28:07.2      19   -232    -74    233    245 175.3 -17.6  34172  289.76 0854.79
2009/04/23 12:28:07.3      25   -273    -72    275    285 174.6 -14.7  34174  289.80 0854.79
2009/04/23 12:28:07.4       8   -272    -79    273    284 178.2 -21.0  34174  289.80 0854.79
2009/04/23 12:28:07.5      43   -329    -74    332    341 172.4 -12.7  34172  289.79 0854.79
2009/04/23 12:28:07.6      19   -309    -79    310    320 176.4 -14.3  34174  289.80 0854.79
2009/04/23 12:28:07.7     -45   -279    -57    283    289 189.3 -11.5  34174  289.80 0854.79
2009/04/23 12:28:07.8     -63   -303   -105    310    328 191.8 -18.7  34174  289.80 0854.79
2009/04/23 12:28:07.9     -31   -333    -64    335    342 185.3 -10.9  34174  289.81 0854.79
2009/04/23 12:28:08.0     -26   -337    -91    339    352 184.5 -15.1  34180  289.91 0854.79
2009/04/23 12:28:08.1     -46   -347    -17    351    352 187.6  -2.8  34178  289.86 0854.79
2009/04/23 12:28:08.2     -44   -380   -107    383    398 186.7 -15.7  34172  289.77 0854.79
2009/04/23 12:28:08.3     -46   -337   -169    341    380 187.8 -32.6  34172  289.77 0854.79
2009/04/23 12:28:08.4     -93   -357   -124    370    390 194.7 -23.6  34174  289.82 0854.79
2009/04/23 12:28:08.5    -133   -363    -85    387    397 200.2 -12.4  34174  289.82 0854.79
2009/04/23 12:28:08.6    -127   -337    -39    361    364 200.7  -6.3  34174  289.82 0854.80
2009/04/23 12:28:08.7     -62   -285    -81    292    303 192.4 -20.0  34176  289.85 0854.80
2009/04/23 12:28:08.8    -135   -310   -129    339    362 203.6 -26.2  34178  289.87 0854.80
2009/04/23 12:28:08.9    -113   -358   -124    376    396 197.6 -18.3  34184  289.98 0854.80
2009/04/23 12:28:09.0     -84   -310   -136    322    349 195.2 -28.7  34188  290.03 0854.80
2009/04/23 12:28:09.1     -71   -349    -94    357    370 191.6 -14.8  34182  289.94 0854.80
2009/04/23 12:28:09.2    -155   -325    -88    361    372 205.5 -13.8  34174  289.82 0854.80
2009/04/23 12:28:09.3    -138   -280    -91    313    325 206.3 -21.0  34174  289.81 0854.80
2009/04/23 12:28:09.4    -122   -302    -94    327    340 202.1 -20.9  34178  289.87 0854.80
2009/04/23 12:28:09.5    -135   -341   -108    368    383 201.7 -21.2  34178  289.86 0854.80
2009/04/23 12:28:09.6    -158   -305   -117    344    363 207.4 -23.6  34178  289.86 0854.80
2009/04/23 12:28:09.7    -148   -350   -128    381    401 203.0 -23.5  34174  289.81 0854.80
2009/04/23 12:28:09.8    -146   -411    -63    437    442 199.6  -8.2  34174  289.80 0854.80
2009/04/23 12:28:09.9    -206   -410    -43    459    462 206.7  -5.5  34170  289.75 0854.80
2009/04/23 12:28:10.1    -181   -412    -57    451    455 203.7  -7.2  34172  289.78 0854.80
2009/04/23 12:28:10.2    -139   -416   -103    439    451 198.5 -13.3  34174  289.80 0854.80
2009/04/23 12:28:10.3    -147   -307     52    341    345 205.7   8.7  34172  289.77 0854.80
2009/04/23 12:28:10.4    -155   -300     53    338    343 207.4   9.0  34172  289.79 0854.80
2009/04/23 12:28:10.5     -79   -417     40    425    428 190.7   5.5  34174  289.82 0854.80
2009/04/23 12:28:10.6     -50   -440     87    443    452 186.6  11.1  34174  289.80 0854.80
2009/04/23 12:28:10.7      17   -402     62    403    408 177.5   8.8  34170  289.75 0854.80
2009/04/23 12:28:10.8      38   -362     42    365    368 173.9   6.6  34172  289.77 0854.80
2009/04/23 12:28:10.9     104   -452    140    464    485 167.0  16.8  34166  289.69 0854.80
2009/04/23 12:28:11.0      70   -504     15    509    510 172.1   1.7  34172  289.78 0854.80
2009/04/23 12:28:11.1      90   -522    -47    530    533 170.2  -5.1  34172  289.77 0854.80
2009/04/23 12:28:11.2     142   -542     -2    561    562 165.3  -0.3  34172  289.77 0854.80
2009/04/23 12:28:11.3      91   -517     -8    526    527 170.0  -0.9  34170  289.75 0854.80
2009/04/23 12:28:11.4      48   -501    -20    504    505 174.4  -2.3  34172  289.79 0854.80
2009/04/23 12:28:11.5     115   -460     15    475    476 165.9   1.9  34168  289.71 0854.80
2009/04/23 12:28:11.6      86   -454    -25    463    464 169.3  -3.1  34170  289.75 0854.80
2009/04/23 12:28:11.7      45   -458    -10    461    462 174.3  -1.3  34172  289.78 0854.80
2009/04/23 12:28:11.8      36   -494    -30    496    497 175.8  -3.5  34172  289.76 0854.80
2009/04/23 12:28:11.9      62   -459    -24    464    465 172.3  -3.0  34176  289.83 0854.80
2009/04/23 12:28:12.0      77   -472     -3    479    480 170.7  -0.4  34182  289.95 0854.80
2009/04/23 12:28:12.1     107   -499     -2    511    512 167.9  -0.3  34182  289.93 0854.80
2009/04/23 12:28:12.2     106   -570     28    580    581 169.4   2.8  34182  289.93 0854.80
2009/04/23 12:28:12.3      70   -556    -59    561    565 172.8  -6.1  34178  289.87 0854.80
2009/04/23 12:28:12.4      72   -553    -34    558    560 172.5  -3.5  34182  289.96 0854.80
2009/04/23 12:28:12.5      34   -561    -81    563    569 176.5  -8.3  34178  289.89 0854.80
2009/04/23 12:28:12.6      74   -498    -79    504    511 171.5  -8.9  34182  289.95 0854.80
2009/04/23 12:28:12.7      93   -515    -67    524    529 169.7  -7.3  34176  289.84 0854.81
2009/04/23 12:28:12.8      80   -553    -37    559    561 171.7  -3.8  34176  289.84 0854.81
2009/04/23 12:28:12.9     142   -570    -22    588    589 166.0  -2.2  34174  289.81 0854.81
2009/04/23 12:28:13.0      34   -663    -32    664    665 177.0  -2.8  34170  289.73 0854.81
2009/04/23 12:28:13.1    -116   -706     89    716    722 189.4   7.1  34178  289.86 0854.81
2009/04/23 12:28:13.2    -227   -667      1    705    706 198.8   0.1  34182  289.94 0854.81
2009/04/23 12:28:13.3    -309   -641     11    712    713 205.8   0.9  34176  289.84 0854.81
2009/04/23 12:28:13.4    -371   -521    -75    640    645 215.5  -6.7  34172  289.79 0854.81
2009/04/23 12:28:13.5    -285   -411   -164    501    527 214.8 -23.3  34172  289.79 0854.81
2009/04/23 12:28:13.6    -256   -406   -150    481    503 212.2 -22.3  34172  289.79 0854.81
2009/04/23 12:28:13.7    -190   -370   -181    417    454 207.2 -29.5  34172  289.77 0854.81
2009/04/23 12:28:13.8    -110   -296   -165    317    357 200.5 -34.0  34174  289.81 0854.81
2009/04/23 12:28:13.9    -205   -275   -119    344    365 216.7 -19.1  34170  289.74 0854.81
2009/04/23 12:28:14.0    -227   -139    -84    267    280 238.5 -17.5  34176  289.85 0854.81
2009/04/23 12:28:14.1    -144   -203    -73    250    260 215.4 -21.0  34178  289.86 0854.81
2009/04/23 12:28:14.2     -40   -196    -34    201    205 191.6  -9.8  34180  289.91 0854.81
2009/04/23 12:28:14.3     -75    -81     29    111    115 222.8  14.7  34176  289.85 0854.81
2009/04/23 12:28:14.4      34   -190     80    194    209 169.8  23.8  34178  289.87 0854.81
2009/04/23 12:28:14.5     -27   -198     58    200    209 187.8  16.3  34180  289.92 0854.81
2009/04/23 12:28:14.6    -107   -171    -22    202    204 212.1  -6.2  34176  289.84 0854.81
2009/04/23 12:28:14.7     -41   -143     47    149    157 196.0  17.7  34178  289.87 0854.82
2009/04/23 12:28:14.8       9   -199     40    200    205 177.3  11.4  34176  289.85 0854.82
2009/04/23 12:28:14.9      74   -312     24    321    322 166.6   4.4  34172  289.78 0854.82
2009/04/23 12:28:15.0       0   -324    -31    325    327 180.0  -5.5  34178  289.88 0854.82
2009/04/23 12:28:15.1      25   -338    -49    339    343 175.8  -8.2  34178  289.87 0854.82
2009/04/23 12:28:15.2     -18   -319    -36    320    323 183.4  -6.5  34176  289.85 0854.82
2009/04/23 12:28:15.3     -14   -188     -4    189    190 184.5  -1.3  34178  289.87 0854.82
2009/04/23 12:28:15.4     -33   -197    -10    200    201 189.8  -3.1  34178  289.87 0854.82
2009/04/23 12:28:15.5     -57   -179    -72    188    201 197.8 -26.4  34178  289.89 0854.82
2009/04/23 12:28:15.6     -19   -181     -7    183    184 186.2  -2.2  34176  289.85 0854.82
2009/04/23 12:28:15.7       2   -122    -24    123    126 179.0 -11.3  34178  289.87 0854.82
2009/04/23 12:28:15.8       4    -61      7     62     63 175.5   7.1  34176  289.85 0854.82
2009/04/23 12:28:15.9      61    -53      1     82     83 130.9   1.2  34180  289.91 0854.82
2009/04/23 12:28:16.0      95     44     52    105    117  64.8  27.8  34180  289.91 0854.82
2009/04/23 12:28:16.1      61     12     33     63     71  78.5  30.3  34178  289.89 0854.82
2009/04/23 12:28:16.2      49    -19     40     53     66 111.7  40.7  34178  289.89 0854.82
2009/04/23 12:28:16.3      16    -21     71     27     75 142.2  79.2  34180  289.92 0854.82
2009/04/23 12:28:16.4     -12    -33     82     36     89 200.0  74.5  34182  289.96 0854.82
2009/04/23 12:28:16.5     -41    -67     49     79     92 211.6  35.5  34184  289.99 0854.82
2009/04/23 12:28:16.6     -46    -34     17     58     61 234.0  16.3  34184  289.99 0854.82
2009/04/23 12:28:16.7     -38     16     40     42     58 292.6  51.1  34180  289.92 0854.81
2009/04/23 12:28:16.8     -62     31     63     70     94 297.1  46.9  34180  289.91 0854.81
2009/04/23 12:28:16.9     -70      5     67     71     97 274.4  49.0  34180  289.92 0854.81
2009/04/23 12:28:17.0     -41    -38     60     57     82 226.9  51.2  34184  289.97 0854.81
2009/04/23 12:28:17.1     -71   -105     80    128    150 214.2  35.5  34180  289.91 0854.81
2009/04/23 12:28:17.2    -123   -123     18    174    176 225.0   6.1  34178  289.89 0854.81
2009/04/23 12:28:17.3    -110    -87      6    141    142 231.4   2.8  34178  289.89 0854.81
2009/04/23 12:28:17.4    -111    -96    -52    148    158 229.1 -19.6  34178  289.87 0854.81
2009/04/23 12:28:17.5    -109   -116      4    160    161 223.2   1.6  34176  289.84 0854.81
2009/04/23 12:28:17.6     -87   -166     31    188    191 207.9   9.5  34176  289.84 0854.81
2009/04/23 12:28:17.7     -26   -269     78    271    283 185.6  16.0  34178  289.86 0854.81
2009/04/23 12:28:17.8    -107   -335     22    352    353 197.8   3.6  34174  289.81 0854.81
2009/04/23 12:28:17.9    -161   -288    -42    331    334 209.2  -7.3  34174  289.81 0854.81
2009/04/23 12:28:18.0    -174   -272    -27    323    325 212.6  -4.8  34176  289.85 0854.81
2009/04/23 12:28:18.1    -172   -270     14    321    322 212.6   2.5  34176  289.85 0854.81
2009/04/23 12:28:18.2    -153   -319     54    354    359 205.7   8.7  34178  289.87 0854.81
2009/04/23 12:28:18.3    -192   -515     46    550    553 200.5   4.9  34176  289.85 0854.81
2009/04/23 12:28:18.4    -235   -478    114    533    546 206.2  12.2  34168  289.72 0854.81
2009/04/23 12:28:18.5    -179   -393    152    432    459 204.5  19.4  34176  289.83 0854.81
2009/04/23 12:28:18.6    -117   -268    116    293    315 203.6  22.7  34180  289.90 0854.81
2009/04/23 12:28:18.7    -152   -273     99    313    329 209.2  17.5  34178  289.86 0854.81
2009/04/23 12:28:18.8    -134   -261     69    294    302 207.2  13.2  34178  289.86 0854.81
2009/04/23 12:28:18.9    -114   -277     61    300    307 202.5  11.5  34176  289.83 0854.81
2009/04/23 12:28:19.0    -160   -347     50    383    387 204.8   7.5  34164  289.64 0854.81
2009/04/23 12:28:19.1    -191   -348     -4    398    399 208.8  -0.7  34174  289.81 0854.81
2009/04/23 12:28:19.2    -100   -373    -64    387    393 195.0  -9.5  34176  289.84 0854.81
2009/04/23 12:28:19.3    -148   -231     -5    275    276 212.6  -1.1  34184  289.98 0854.81
2009/04/23 12:28:19.4    -152   -227     85    274    287 213.8  17.3  34182  289.93 0854.81
2009/04/23 12:28:19.5    -195   -255      8    322    323 217.4   1.5  34182  289.95 0854.81
2009/04/23 12:28:19.6    -341   -351    -66    490    495 224.1  -7.7  34178  289.89 0854.81
2009/04/23 12:28:19.7    -258   -404    -18    480    481 212.6  -2.2  34176  289.83 0854.81
2009/04/23 12:28:19.8    -223   -421    -60    477    481 208.0  -7.2  34176  289.83 0854.81
2009/04/23 12:28:19.9    -188   -398     24    441    442 205.3   3.1  34182  289.95 0854.81
2009/04/23 12:28:20.0    -184   -387    -32    429    431 205.5  -4.4  34180  289.92 0854.81
2009/04/23 12:28:20.1     -94   -383     -7    395    396 193.9  -1.1  34174  289.81 0854.81
2009/04/23 12:28:20.2    -102   -320    -20    336    337 197.7  -3.5  34176  289.84 0854.81
2009/04/23 12:28:20.3      39   -281    109    284    304 172.0  22.0  34176  289.83 0854.81
2009/04/23 12:28:20.4      26   -246     59    248    256 173.8  13.5  34176  289.85 0854.81
2009/04/23 12:28:20.5      -8   -273     34    274    277 181.8   7.2  34176  289.83 0854.81
2009/04/23 12:28:20.6     -47   -378      7    382    383 187.2   1.1  34176  289.84 0854.81
2009/04/23 12:28:20.7     -24   -379     76    380    388 183.6  11.3  34174  289.81 0854.81
2009/04/23 12:28:20.8      67   -350    138    357    382 169.2  22.3  34178  289.86 0854.81
2009/04/23 12:28:20.9      20   -260     56    261    268 175.5  12.1  34174  289.81 0854.81
2009/04/23 12:28:21.0      12   -159    115    160    197 175.6  39.3  34176  289.84 0854.81
2009/04/23 12:28:21.1     -15   -256    182    257    314 183.5  38.7  34178  289.86 0854.81
2009/04/23 12:28:21.2     -51   -305     48    310    314 189.6   8.8  34168  289.71 0854.81
2009/04/23 12:28:21.3       7   -276    162    277    320 178.4  33.0  34170  289.75 0854.81
2009/04/23 12:28:21.4      78   -455    283    462    541 170.2  34.4  34174  289.81 0854.81
2009/04/23 12:28:21.5      24   -368    297    369    473 176.2  43.0  34178  289.87 0854.81
2009/04/23 12:28:21.6      78   -256    268    268    379 163.1  50.1  34178  289.86 0854.81
2009/04/23 12:28:21.7     293   -276    249    403    473 133.3  34.6  34178  289.87 0854.81
2009/04/23 12:28:21.8     320   -263     84    415    424 129.4  11.5  34174  289.80 0854.81
2009/04/23 12:28:21.9     237   -256     39    350    353 137.2   6.4  34176  289.84 0854.81
2009/04/23 12:28:22.0     179   -252     49    310    314 144.6   9.0  34176  289.85 0854.81
2009/04/23 12:28:22.1     166   -206    108    265    286 141.2  23.4  34170  289.75 0854.81
2009/04/23 12:28:22.2     218   -192     58    291    297 131.4  11.4  34180  289.90 0854.81
2009/04/23 12:28:22.3     227   -176     78    288    299 127.8  15.2  34176  289.85 0854.81
2009/04/23 12:28:22.4     179   -239     36    299    302 143.1   6.9  34178  289.86 0854.81
2009/04/23 12:28:22.5     255   -159      4    301    302 122.0   0.8  34178  289.88 0854.81
2009/04/23 12:28:22.6     194   -142     51    241    247 126.2  12.0  34178  289.86 0854.81
2009/04/23 12:28:22.7     182   -179     26    256    258 134.4   6.0  34172  289.78 0854.81
2009/04/23 12:28:22.8     207   -141    125    251    280 124.2  28.5  34176  289.85 0854.81
2009/04/23 12:28:22.9     177    -70    160    191    249 111.7  44.1  34176  289.84 0854.81
2009/04/23 12:28:23.0      90   -120    148    151    211 143.0  49.8  34178  289.87 0854.81
2009/04/23 12:28:23.1      84   -108    133    137    190 142.1  49.2  34176  289.84 0854.81
2009/04/23 12:28:23.2      21   -128    133    130    185 170.7  50.7  34178  289.87 0854.81
2009/04/23 12:28:23.3     118      4    162    119    201  87.9  60.3  34180  289.91 0854.81
2009/04/23 12:28:23.4     161    -35    183    165    246 102.4  53.3  34182  289.96 0854.81
2009/04/23 12:28:23.5     197   -155    171    251    303 128.2  37.6  34182  289.93 0854.81
2009/04/23 12:28:23.6     150   -198    167    249    299 142.8  37.0  34180  289.90 0854.81
2009/04/23 12:28:23.7     130   -179    183    222    287 144.0  43.7  34180  289.92 0854.82
2009/04/23 12:28:23.8     124   -252    202    282    346 153.7  39.2  34176  289.85 0854.82
2009/04/23 12:28:23.9     130   -233    161    267    311 150.8  34.0  34176  289.85 0854.82
2009/04/23 12:28:24.0     107   -197    145    225    267 151.5  35.6  34180  289.92 0854.82
2009/04/23 12:28:24.1      41   -189    162    194    252 167.5  43.8  34180  289.92 0854.82
2009/04/23 12:28:24.2      51   -253    182    259    316 168.5  38.6  34180  289.90 0854.82
2009/04/23 12:28:24.3     103   -162     76    193    207 147.4  22.8  34176  289.85 0854.82
2009/04/23 12:28:24.4      96   -185    146    209    254 152.4  38.6  34180  289.90 0854.82
2009/04/23 12:28:24.5      70   -203    147    215    260 160.8  37.6  34176  289.85 0854.82
2009/04/23 12:28:24.6      56   -237    165    244    294 166.6  37.4  34180  289.90 0854.82
2009/04/23 12:28:24.7     -12   -218    130    219    254 183.4  33.5  34180  289.90 0854.82
2009/04/23 12:28:24.8      15   -227    137    228    265 176.2  34.0  34178  289.88 0854.82
2009/04/23 12:28:24.9     -32   -273    192    275    335 186.9  38.4  34174  289.81 0854.82
2009/04/23 12:28:25.0      -8   -177    162    178    240 182.7  47.0  34178  289.89 0854.82
2009/04/23 12:28:25.1     -23   -191    187    193    268 186.9  49.2  34180  289.92 0854.82
2009/04/23 12:28:25.2     -98   -249    137    268    300 201.6  29.2  34180  289.90 0854.82
2009/04/23 12:28:25.3    -102   -244     80    265    277 202.8  16.8  34180  289.90 0854.82
2009/04/23 12:28:25.4      12   -251    165    252    301 177.1  36.0  34180  289.92 0854.82
2009/04/23 12:28:25.5     -14   -327    269    328    424 182.5  43.7  34178  289.87 0854.82
2009/04/23 12:28:25.6      23   -267    234    269    356 174.9  45.6  34178  289.89 0854.82
2009/04/23 12:28:25.7     -46   -269    209    274    344 189.8  41.3  34180  289.90 0854.81
2009/04/23 12:28:25.8     -75   -328    206    337    394 193.0  34.3  34182  289.93 0854.81
2009/04/23 12:28:25.9    -104   -347    194    363    411 196.7  30.3  34180  289.91 0854.81
2009/04/23 12:28:26.0     -53   -357    224    361    424 188.5  34.9  34182  289.94 0854.81
2009/04/23 12:28:26.1      19   -270    189    271    330 175.8  38.3  34182  289.93 0854.81
2009/04/23 12:28:26.2     192   -439    258    480    544 156.4  30.7  34178  289.89 0854.81
2009/04/23 12:28:26.3     185   -391    227    433    488 154.7  30.0  34178  289.88 0854.81
2009/04/23 12:28:26.4     220   -416    223    471    521 152.1  27.2  34178  289.88 0854.81
2009/04/23 12:28:26.5     179   -396    158    435    462 155.7  20.9  34176  289.83 0854.81
2009/04/23 12:28:26.6     229   -295    156    374    405 142.2  24.1  34178  289.86 0854.81
2009/04/23 12:28:26.7      82   -227     84    242    257 160.0  19.2  34180  289.92 0854.81
2009/04/23 12:28:26.8      77   -239     58    252    259 162.2  13.1  34180  289.90 0854.81
2009/04/23 12:28:26.9      25   -275     -1    277    278 174.7  -0.3  34180  289.92 0854.81
2009/04/23 12:28:27.0      79   -294     31    305    307 164.9   5.9  34180  289.92 0854.81
2009/04/23 12:28:27.1      47   -246     30    251    253 169.1   6.9  34184  289.97 0854.81
2009/04/23 12:28:27.2     -55   -275     -1    281    282 191.5  -0.3  34182  289.95 0854.81
2009/04/23 12:28:27.3      17   -270    -82    271    284 176.2 -17.0  34182  289.95 0854.81
2009/04/23 12:28:27.4     -58   -216    -36    224    228 195.1  -9.3  34180  289.92 0854.81
2009/04/23 12:28:27.5    -118   -186    -64    221    230 212.5 -21.0  34190  290.08 0854.81
2009/04/23 12:28:27.6    -135   -229    -42    266    270 210.5  -9.0  34186  290.00 0854.81
2009/04/23 12:28:27.7     -76   -229    -82    242    255 198.3 -23.6  34182  289.95 0854.81
2009/04/23 12:28:27.8    -108   -124    -98    165    191 221.2 -38.1  34188  290.04 0854.81
2009/04/23 12:28:27.9     -66     36    -59     76     96 298.9 -46.6  34184  289.99 0854.81
2009/04/23 12:28:28.0     -57     36      9     68     69 302.4   8.0  34180  289.92 0854.81
2009/04/23 12:28:28.1    -139    -14     43    140    147 263.9  17.3  34186  290.01 0854.81
2009/04/23 12:28:28.2    -187    -31     51    190    197 260.5  15.3  34186  290.02 0854.81
2009/04/23 12:28:28.3    -115    -78      5    140    141 235.8   2.3  34184  289.99 0854.81
2009/04/23 12:28:28.4    -148      3    -21    149    151 271.3  -8.2  34186  290.02 0854.81
2009/04/23 12:28:28.5     -86    -38    -30     95     99 246.0 -22.8  34186  290.02 0854.81
2009/04/23 12:28:28.6     -55    -87    -27    104    108 212.5 -15.0  34186  290.02 0854.81
2009/04/23 12:28:28.7     -63    -84      8    106    107 217.0   4.4  34182  289.94 0854.81
2009/04/23 12:28:28.8     -30   -149    -14    153    154 191.6  -5.6  34184  289.97 0854.81
2009/04/23 12:28:28.9      13   -187     67    188    199 176.0  20.4  34182  289.94 0854.81
2009/04/23 12:28:29.0     -48   -205     54    211    218 193.4  14.5  34184  289.99 0854.81
2009/04/23 12:28:29.1     -67   -162     18    176    177 202.7   5.9  34188  290.04 0854.81
2009/04/23 12:28:29.2     -24   -143     37    146    151 189.7  14.3  34188  290.04 0854.81
2009/04/23 12:28:29.3     -87   -183    -37    203    207 205.5 -10.5  34188  290.06 0854.81
2009/04/23 12:28:29.4    -111   -200    -31    229    232 209.0  -7.7  34182  289.96 0854.81
2009/04/23 12:28:29.5    -184   -349     74    395    403 207.9  10.7  34182  289.93 0854.81
2009/04/23 12:28:29.6    -189   -430      9    470    471 203.7   1.1  34178  289.88 0854.81
2009/04/23 12:28:29.7    -268   -393     -2    476    477 214.3  -0.3  34178  289.88 0854.81
2009/04/23 12:28:29.8    -112   -354    187    372    416 197.5  28.7  34182  289.96 0854.81
2009/04/23 12:28:29.9     -39   -341    215    344    405 186.6  35.1  34182  289.94 0854.81
2009/04/23 12:28:30.0      19   -284     62    285    292 176.0  12.4  34180  289.92 0854.81
2009/04/23 12:28:30.1      89   -369     30    380    382 166.4   4.6  34178  289.87 0854.81
2009/04/23 12:28:30.2      55   -484    253    488    549 173.5  29.5  34172  289.77 0854.81
2009/04/23 12:28:30.3      95   -341    287    355    456 164.3  43.1  34186  290.02 0854.81
2009/04/23 12:28:30.4      42   -233    228    237    328 169.8  49.0  34182  289.95 0854.81
2009/04/23 12:28:30.5     -35   -285    336    288    442 187.1  55.3  34182  289.94 0854.81
2009/04/23 12:28:30.6     -47   -371    151    375    404 187.3  23.1  34178  289.89 0854.81
2009/04/23 12:28:30.7    -112   -355    124    373    394 197.6  18.5  34184  289.98 0854.81
2009/04/23 12:28:30.8      41   -370     16    373    374 173.7   2.5  34182  289.94 0854.81
2009/04/23 12:28:30.9      61   -268     33    275    278 167.1   6.9  34180  289.90 0854.81
2009/04/23 12:28:31.0     -12   -216    -35    217    220 183.4  -9.3  34182  289.96 0854.81
2009/04/23 12:28:31.1     -31   -222    -61    225    234 188.1 -15.2  34180  289.92 0854.81
2009/04/23 12:28:31.2     -81   -128     11    152    153 212.5   4.4  34180  289.91 0854.81
2009/04/23 12:28:31.3     -39    -33    -24     52     57 229.6 -31.5  34182  289.96 0854.81
2009/04/23 12:28:31.4       2      3     22      4     22  32.5  90.0  34184  289.97 0854.81
2009/04/23 12:28:31.5      10     20     51     23     55  27.2  74.0  34182  289.96 0854.81
2009/04/23 12:28:31.6       3     14     38     15     40  15.1  78.2  34186  290.02 0854.81
2009/04/23 12:28:31.7       9    -15     10     18     20 147.4  31.4  34184  289.97 0854.80
2009/04/23 12:28:31.8      10    -74      3     75     76 172.0   2.8  34186  290.01 0854.80
2009/04/23 12:28:31.9      -8   -109    -45    110    118 184.4 -27.5  34184  289.97 0854.80
2009/04/23 12:28:32.0     -14   -158    -26    159    162 185.1  -9.3  34184  289.97 0854.80
2009/04/23 12:28:32.1     -35   -115    -19    121    123 196.9  -9.3  34182  289.94 0854.80
2009/04/23 12:28:32.2     -21    -46      9     51     52 204.5  10.1  34184  289.99 0854.80
2009/04/23 12:28:32.3      -7      3     26      8     27 295.3  80.7  34184  289.99 0854.80
2009/04/23 12:28:32.4     -13      0     19     14     23 270.8  58.5  34186  290.01 0854.80
2009/04/23 12:28:32.5     -12     14     20     19     27 318.6  48.2  34186  290.01 0854.80
2009/04/23 12:28:32.6      10    -30     45     32     55 161.7  61.5  34186  290.01 0854.80
2009/04/23 12:28:32.7      67      0     73     68     99  90.8  52.1  34186  290.01 0854.80
2009/04/23 12:28:32.8     129    -23    131    132    185 100.1  50.5  34186  290.01 0854.80
2009/04/23 12:28:32.9     122   -111     80    166    184 132.2  27.4  34180  289.92 0854.80
2009/04/23 12:28:33.0     150    -45     80    157    176 106.8  29.1  34174  289.82 0854.80
2009/04/23 12:28:33.1     172     30     12    175    176  79.9   4.2  34180  289.91 0854.80
2009/04/23 12:28:33.2     103      7    -34    104    110  85.6 -18.1  34180  289.92 0854.80
2009/04/23 12:28:33.3      19      0    -98     20    100  90.0 -90.0  34182  289.96 0854.80
2009/04/23 12:28:33.4      25    -25   -149     36    153 135.0 -90.0  34184  289.99 0854.80
2009/04/23 12:28:33.5      15    -29   -127     33    131 152.8 -89.8  34180  289.91 0854.80
2009/04/23 12:28:33.6      39   -121   -126    128    179 162.2 -54.4  34172  289.79 0854.80
2009/04/23 12:28:33.7      89   -148    -92    173    195 148.8 -34.5  34172  289.79 0854.79
2009/04/23 12:28:33.8      64   -189    -60    200    208 161.3 -21.7  34172  289.79 0854.79
2009/04/23 12:28:33.9      64   -163    -70    176    189 158.6 -27.4  34178  289.87 0854.79
2009/04/23 12:28:34.0     114   -137   -126    179    218 140.4 -43.2  34178  289.87 0854.79
2009/04/23 12:28:34.1     186   -155     15    243    244 129.8   3.6  34180  289.90 0854.79
2009/04/23 12:28:34.2     143   -109     86    181    200 127.3  27.2  34174  289.82 0854.79
2009/04/23 12:28:34.3      71    -90    116    115    163 141.7  49.9  34178  289.87 0854.79
2009/04/23 12:28:34.4     -10    -21     77     24     80 207.2  82.3  34184  289.99 0854.79
2009/04/23 12:28:34.5       0     -5     88      6     88 182.7  90.0  34186  290.02 0854.79
2009/04/23 12:28:34.6     -68     69     81     97    126 315.5  44.3  34184  289.97 0854.79
2009/04/23 12:28:34.7     -98     60     82    115    141 301.5  39.5  34180  289.92 0854.79
2009/04/23 12:28:34.8    -115      8    -11    116    117 274.4  -5.6  34174  289.80 0854.79
2009/04/23 12:28:34.9     -64    119     -6    136    137 331.9  -2.6  34176  289.85 0854.79
2009/04/23 12:28:35.0     -41     92     71    101    123 335.9  38.6  34178  289.87 0854.79
2009/04/23 12:28:35.1      19     31    110     37    116  32.5  81.0  34186  290.01 0854.79
2009/04/23 12:28:35.2      86    -78    111    117    161 132.2  48.7  34182  289.94 0854.79
2009/04/23 12:28:35.3     161   -101    103    191    217 122.2  31.0  34178  289.87 0854.79
2009/04/23 12:28:35.4     153   -128    130    200    238 129.8  36.3  34178  289.87 0854.79
2009/04/23 12:28:35.5      65   -129    123    145    190 153.3  44.5  34180  289.92 0854.79
2009/04/23 12:28:35.6      54   -232    117    239    266 166.7  27.8  34176  289.85 0854.79
2009/04/23 12:28:35.7      31   -223    127    226    259 171.9  31.6  34176  289.83 0854.80
2009/04/23 12:28:35.8       3   -186    120    187    222 178.9  35.6  34178  289.87 0854.80
2009/04/23 12:28:35.9      -6   -165    104    166    195 182.2  35.2  34176  289.84 0854.80
2009/04/23 12:28:36.0      15   -139     82    140    162 173.8  33.5  34174  289.82 0854.80
2009/04/23 12:28:36.1      -8   -183     55    184    193 182.7  16.6  34172  289.77 0854.80
2009/04/23 12:28:36.3     -31   -133     58    137    148 193.3  24.1  34176  289.84 0854.80
2009/04/23 12:28:36.3     -85   -103     74    134    153 219.6  31.4  34176  289.85 0854.80
2009/04/23 12:28:36.4    -108   -101     59    148    159 226.9  22.8  34178  289.87 0854.80
2009/04/23 12:28:36.5    -182   -150     84    237    251 230.5  20.0  34174  289.81 0854.80
2009/04/23 12:28:36.7    -154   -143     63    211    221 227.1  16.8  34172  289.77 0854.80
2009/04/23 12:28:36.8    -147   -123     67    192    204 230.0  19.4  34176  289.84 0854.80
2009/04/23 12:28:36.9    -125   -150     46    196    202 219.6  13.2  34178  289.87 0854.80
2009/04/23 12:28:37.0    -117   -138     49    182    189 220.3  15.3  34174  289.82 0854.80
2009/04/23 12:28:37.1    -205    -52    103    212    235 255.6  27.8  34174  289.80 0854.80
2009/04/23 12:28:37.2    -221    -70     65    232    242 252.3  15.8  34174  289.80 0854.80
2009/04/23 12:28:37.3    -142     -7     94    143    171 267.0  36.3  34180  289.91 0854.80
2009/04/23 12:28:37.4    -200     15     73    201    213 274.4  20.7  34174  289.82 0854.80
2009/04/23 12:28:37.5    -230    -26      7    232    233 263.4   1.8  34174  289.82 0854.80
2009/04/23 12:28:37.6    -255     -3     16    256    257 269.2   3.6  34174  289.80 0854.80
2009/04/23 12:28:37.7    -297    -82    -65    309    316 254.5 -12.0  34176  289.83 0854.80
2009/04/23 12:28:37.8    -247   -116    -98    273    291 244.8 -19.7  34178  289.86 0854.79
2009/04/23 12:28:37.9    -147   -207    -24    254    256 215.4  -5.6  34176  289.85 0854.79
2009/04/23 12:28:38.0    -153   -243    -63    288    295 212.1 -12.4  34178  289.86 0854.79
2009/04/23 12:28:38.1    -231    -56    -73    238    248 256.3 -22.1  34176  289.85 0854.79
2009/04/23 12:28:38.2    -230   -105    -76    254    265 245.4 -21.7  34176  289.85 0854.79
2009/04/23 12:28:38.3    -243   -179    -98    302    317 233.6 -23.2  34178  289.86 0854.79
2009/04/23 12:28:38.4    -296   -172    -63    343    349 239.8 -10.5  34174  289.82 0854.79
2009/04/23 12:28:38.5    -227   -287    -32    367    369 218.4  -5.1  34174  289.82 0854.79
2009/04/23 12:28:38.6    -175   -274    -23    326    327 212.5  -4.1  34178  289.86 0854.79
2009/04/23 12:28:38.7     -58   -242     -7    249    250 193.6  -1.8  34176  289.85 0854.79
2009/04/23 12:28:38.8      38   -312    -12    315    316 172.9  -2.2  34170  289.75 0854.78
2009/04/23 12:28:38.9     -17   -395     47    396    399 182.5   6.8  34168  289.71 0854.78
2009/04/23 12:28:39.0     -17   -454     23    455    456 182.2   2.9  34174  289.82 0854.78
2009/04/23 12:28:39.1      -4   -499    -11    500    501 180.5  -1.3  34172  289.78 0854.78
2009/04/23 12:28:39.2     107   -394    -89    409    419 164.7 -12.3  34166  289.68 0854.78
2009/04/23 12:28:39.3       4   -375    -96    376    389 179.3 -14.3  34170  289.74 0854.78
2009/04/23 12:28:39.4      76   -333     11    342    343 167.0   1.9  34168  289.72 0854.78
2009/04/23 12:28:39.5     121   -409    139    427    450 163.5  18.0  34166  289.66 0854.78
2009/04/23 12:28:39.6     137   -523    126    541    556 165.3  13.1  34160  289.57 0854.78
2009/04/23 12:28:39.7     134   -481    131    500    517 164.4  14.7  34170  289.73 0854.78
2009/04/23 12:28:39.8       8   -440    154    441    468 178.9  19.3  34172  289.78 0854.78
2009/04/23 12:28:39.9      16   -462    217    463    511 178.0  27.1  34172  289.79 0854.78
2009/04/23 12:28:40.0      13   -487    166    488    516 178.4  18.8  34166  289.66 0854.78
2009/04/23 12:28:40.1     -16   -484    157    485    510 181.9  18.0  34168  289.71 0854.78
2009/04/23 12:28:40.2     -30   -484    197    485    523 183.6  23.4  34170  289.73 0854.78
2009/04/23 12:28:40.3       0   -480    161    481    508 180.0  18.6  34164  289.64 0854.78
2009/04/23 12:28:40.4      61   -430    274    435    514 171.9  35.2  34170  289.74 0854.78
2009/04/23 12:28:40.5       7   -441    226    442    496 179.0  29.2  34166  289.69 0854.78
2009/04/23 12:28:40.6      96   -318     31    333    335 163.1   5.3  34164  289.65 0854.78
2009/04/23 12:28:40.7      85   -265    -35    279    282 162.2  -7.3  34168  289.71 0854.78
2009/04/23 12:28:40.8    -103   -510     52    521    524 191.5   5.8  34168  289.72 0854.78
2009/04/23 12:28:40.9    -101   -512     81    522    529 191.2   8.9  34166  289.68 0854.78
2009/04/23 12:28:41.0    -175   -469     42    501    503 200.5   4.9  34166  289.66 0854.78
2009/04/23 12:28:41.1    -175   -503    -16    533    534 199.2  -1.8  34172  289.77 0854.78
2009/04/23 12:28:41.2     -82   -527    -36    534    536 188.9  -3.9  34164  289.63 0854.78
2009/04/23 12:28:41.3     -52   -380      0    384    385 187.8   0.1  34158  289.54 0854.78
2009/04/23 12:28:41.4      17   -281     69    282    291 176.4  13.9  34158  289.54 0854.78
2009/04/23 12:28:41.5      19   -504     25    505    506 177.8   2.9  34156  289.52 0854.78
2009/04/23 12:28:41.6     -75   -537    -13    543    544 188.0  -1.4  34162  289.60 0854.78
2009/04/23 12:28:41.7     -92   -483    -83    492    499 190.9  -9.6  34162  289.59 0854.78
2009/04/23 12:28:41.8     -21   -539   -103    540    550 182.2 -10.9  34164  289.65 0854.78
2009/04/23 12:28:41.9      49   -580   -152    583    603 175.1 -14.7  34162  289.59 0854.78
2009/04/23 12:28:42.0     117   -618   -129    630    644 169.3 -11.6  34162  289.62 0854.78
2009/04/23 12:28:42.1      81   -666    -78    671    676 173.0  -6.7  34160  289.58 0854.78
2009/04/23 12:28:42.2     -48   -573   -102    576    586 184.9 -10.1  34164  289.64 0854.78
2009/04/23 12:28:42.3     -42   -594    -47    596    598 184.1  -4.6  34166  289.66 0854.78
2009/04/23 12:28:42.4     -34   -496   -147    498    520 184.0 -16.5  34162  289.59 0854.78
2009/04/23 12:28:42.5     -46   -569   -165    572    595 184.7 -20.9  34162  289.61 0854.78
2009/04/23 12:28:42.6     -53   -580    -56    583    586 185.3  -5.6  34156  289.51 0854.78
2009/04/23 12:28:42.7     146   -600   -173    618    642 166.3 -15.7  34152  289.43 0854.78
2009/04/23 12:28:42.8     145   -557    -83    576    583 165.4  -8.3  34156  289.49 0854.79
2009/04/23 12:28:42.9     -13   -671    -31    672    673 181.1  -2.7  34160  289.56 0854.79
2009/04/23 12:28:43.0      76   -608     19    613    614 172.8   1.8  34156  289.49 0854.79
2009/04/23 12:28:43.1     -16   -537    -69    538    543 181.8  -7.3  34160  289.58 0854.79
2009/04/23 12:28:43.2     -58   -655    -36    658    660 185.1  -3.2  34162  289.60 0854.79
2009/04/23 12:28:43.3     -55   -704    -39    707    709 184.5  -3.2  34162  289.62 0854.79
2009/04/23 12:28:43.4      19   -622   -126    623    636 178.2 -11.5  34158  289.53 0854.79
2009/04/23 12:28:43.5     264   -602    -95    658    665 156.3  -8.2  34158  289.53 0854.79
2009/04/23 12:28:43.6     284   -643   -119    704    715 156.2  -9.6  34154  289.47 0854.79
2009/04/23 12:28:43.7     212   -545    -86    585    592 158.7  -8.4  34156  289.51 0854.79
2009/04/23 12:28:43.8     181   -565    -53    594    597 162.2  -5.2  34154  289.47 0854.79
2009/04/23 12:28:43.9     184   -591    -17    619    620 162.7  -1.6  34148  289.37 0854.79
2009/04/23 12:28:44.0     258   -504    -22    567    568 152.9  -2.2  34148  289.38 0854.79
2009/04/23 12:28:44.1     200   -559     85    594    601 160.3   8.2  34150  289.39 0854.79
2009/04/23 12:28:44.2     233   -525    152    575    595 156.0  14.9  34150  289.39 0854.79
2009/04/23 12:28:44.3     178   -644    193    669    697 164.5  16.1  34148  289.36 0854.79
2009/04/23 12:28:44.4     147   -679    210    696    727 167.7  16.8  34146  289.35 0854.79
2009/04/23 12:28:44.5      26   -643    366    644    740 177.7  32.2  34144  289.30 0854.79
2009/04/23 12:28:44.6      76   -603    425    608    741 172.8  38.4  34142  289.27 0854.79
2009/04/23 12:28:44.7     -23   -473    387    474    611 182.8  43.5  34140  289.24 0854.79
2009/04/23 12:28:44.8    -130   -658     77    671    676 191.2   6.6  34144  289.31 0854.79
2009/04/23 12:28:44.9    -291   -645   -238    708    748 204.3 -18.6  34150  289.40 0854.79
2009/04/23 12:28:45.0    -247   -588   -179    638    662 202.8 -20.3  34140  289.23 0854.79
2009/04/23 12:28:45.1    -371   -583   -206    692    722 212.5 -21.5  34146  289.35 0854.79
2009/04/23 12:28:45.2    -417   -565   -276    703    755 216.4 -26.9  34148  289.36 0854.79
2009/04/23 12:28:45.3    -332   -676   -202    754    781 206.2 -15.0  34150  289.41 0854.79
2009/04/23 12:28:45.4    -406   -608   -219    732    765 213.7 -16.7  34150  289.40 0854.79
2009/04/23 12:28:45.5    -407   -555   -187    689    715 216.2 -15.2  34146  289.33 0854.79
2009/04/23 12:28:45.6    -525   -451   -211    693    725 229.4 -17.0  34150  289.39 0854.79
2009/04/23 12:28:45.7    -406   -465   -172    618    641 221.1 -20.3  34148  289.38 0854.79
2009/04/23 12:28:45.8    -261   -409   -251    486    546 212.6 -33.7  34154  289.48 0854.79
2009/04/23 12:28:45.9    -233   -318   -227    395    455 216.2 -36.8  34152  289.44 0854.79
2009/04/23 12:28:46.0    -199   -272   -272    338    433 216.2 -47.4  34146  289.33 0854.79
2009/04/23 12:28:46.1    -231   -243   -256    336    422 223.5 -45.6  34152  289.42 0854.79
2009/04/23 12:28:46.2    -119   -253   -263    280    384 205.3 -52.4  34146  289.33 0854.79
2009/04/23 12:28:46.3    -164   -195   -228    255    342 220.1 -50.8  34148  289.36 0854.79
2009/04/23 12:28:46.4    -224   -223   -229    317    391 225.1 -43.9  34148  289.37 0854.79
2009/04/23 12:28:46.5    -217   -295   -131    367    389 216.4 -24.8  34146  289.35 0854.79
2009/04/23 12:28:46.6    -273   -146   -253    310    400 241.8 -48.0  34150  289.40 0854.79
2009/04/23 12:28:46.7    -335    -45   -260    339    427 262.3 -45.8  34152  289.42 0854.79
2009/04/23 12:28:46.8    -325   -149   -197    358    408 245.4 -35.8  34148  289.38 0854.79
2009/04/23 12:28:46.9    -271    -91   -176    287    336 251.4 -38.8  34150  289.41 0854.79
2009/04/23 12:28:47.0    -326   -131   -209    352    409 248.0 -37.9  34148  289.38 0854.79
2009/04/23 12:28:47.1    -400   -156   -215    430    480 248.6 -32.9  34156  289.50 0854.79
2009/04/23 12:28:47.2    -228   -108   -209    253    328 244.7 -48.1  34148  289.36 0854.79
2009/04/23 12:28:47.3       6   -390   -130    391    412 179.0 -23.7  34150  289.39 0854.79
2009/04/23 12:28:47.4     -55   -454    -78    458    465 187.0  -9.7  34150  289.39 0854.79
2009/04/23 12:28:47.5    -102   -335   -120    351    372 196.9 -18.9  34148  289.38 0854.79
2009/04/23 12:28:47.6    -169   -203    -48    265    270 219.7 -10.4  34142  289.27 0854.79
2009/04/23 12:28:47.7    -247   -235   -191    342    391 226.4 -35.9  34152  289.43 0854.79
2009/04/23 12:28:47.8    -418   -564   -238    703    743 216.5 -18.7  34144  289.30 0854.79
2009/04/23 12:28:47.9    -143   -563    -61    582    586 194.3  -6.1  34138  289.19 0854.79
2009/04/23 12:28:48.0     -87   -547    -21    555    556 189.1  -2.2  34146  289.35 0854.79
2009/04/23 12:28:48.1      38   -601    141    603    620 176.4  13.2  34146  289.34 0854.79
2009/04/23 12:28:48.2      61   -513    189    517    550 173.2  21.0  34146  289.35 0854.79
2009/04/23 12:28:48.3      57   -488    277    492    564 173.3  31.9  34146  289.33 0854.79
2009/04/23 12:28:48.4     -76   -450    230    457    511 189.6  28.7  34150  289.40 0854.79
2009/04/23 12:28:48.5      64   -658    198    662    692 174.4  16.7  34144  289.31 0854.79
2009/04/23 12:28:48.6      88   -566    268    574    633 171.1  26.9  34146  289.32 0854.79
2009/04/23 12:28:48.7     283   -450    192    532    565 147.9  20.8  34146  289.33 0854.79
2009/04/23 12:28:48.8     101   -480     50    491    494 168.1   5.9  34150  289.39 0854.79
2009/04/23 12:28:48.9     270   -551    -23    614    615 153.9  -2.2  34144  289.31 0854.79
2009/04/23 12:28:49.0     334   -562    114    655    665 149.3   9.9  34148  289.36 0854.79
2009/04/23 12:28:49.1     203   -572    182    608    635 160.4  16.7  34150  289.40 0854.79
2009/04/23 12:28:49.2     220   -540     99    584    593 157.8   9.7  34150  289.39 0854.79
2009/04/23 12:28:49.3      98   -495    122    505    520 168.8  13.7  34152  289.44 0854.79
2009/04/23 12:28:49.4     174   -282     95    332    346 148.3  16.0  34144  289.30 0854.79
2009/04/23 12:28:49.5     233   -396    -42    460    463 149.5  -5.3  34144  289.29 0854.79
2009/04/23 12:28:49.6     129   -640    -30    653    654 168.6  -2.7  34146  289.35 0854.79
2009/04/23 12:28:49.7     203   -483     74    525    531 157.2   8.1  34146  289.33 0854.79
2009/04/23 12:28:49.8     269   -580    207    640    673 155.1  17.9  34148  289.38 0854.79
2009/04/23 12:28:49.9     254   -582    132    636    650 156.4  11.8  34142  289.28 0854.79
2009/04/23 12:28:50.0     295   -557    169    631    654 152.1  15.0  34140  289.23 0854.79
2009/04/23 12:28:50.1     288   -459    157    542    565 147.9  16.1  34138  289.21 0854.79
2009/04/23 12:28:50.2     325   -557    130    646    659 149.7  11.4  34138  289.21 0854.79
2009/04/23 12:28:50.3     410   -500     49    647    649 140.7   4.4  34142  289.26 0854.79
2009/04/23 12:28:50.4     442   -371    147    578    597 130.0  14.3  34144  289.30 0854.79
2009/04/23 12:28:50.5     373   -378    172    532    560 135.4  17.9  34142  289.28 0854.79
2009/04/23 12:28:50.6     293   -251    125    386    406 130.6  18.0  34146  289.33 0854.79
2009/04/23 12:28:50.7     399   -195    242    445    506 116.1  30.9  34148  289.37 0854.79
2009/04/23 12:28:50.8     271    -69    213    280    351 104.4  41.2  34148  289.38 0854.80
2009/04/23 12:28:50.9     250   -102    241    271    362 112.2  46.3  34152  289.43 0854.80
2009/04/23 12:28:51.0     203   -179    235    272    359 131.4  45.4  34152  289.45 0854.80
2009/04/23 12:28:51.1     195   -208    152    286    323 136.8  30.2  34152  289.44 0854.80
2009/04/23 12:28:51.2     136   -187    182    232    294 143.9  42.2  34150  289.39 0854.80
2009/04/23 12:28:51.3     -32   -225    219    228    316 188.1  48.8  34148  289.37 0854.80
2009/04/23 12:28:51.4     -99   -278    207    296    361 199.6  38.4  34152  289.42 0854.80
2009/04/23 12:28:51.5     -20   -171    148    173    227 186.9  44.8  34148  289.38 0854.80
2009/04/23 12:28:51.6      18     88     90     90    127  12.0  50.1  34156  289.52 0854.80
2009/04/23 12:28:51.7     -85      0    123     86    150 270.0  61.5  34158  289.53 0854.80
2009/04/23 12:28:51.8    -170     55     96    179    203 288.2  30.6  34152  289.45 0854.80
2009/04/23 12:28:51.9     -60    204     57    213    221 343.5  15.0  34150  289.40 0854.80
2009/04/23 12:28:52.0     -65    157     66    170    182 337.5  22.3  34156  289.50 0854.80
2009/04/23 12:28:52.1     -59     67     78     90    119 318.6  45.8  34158  289.53 0854.80
2009/04/23 12:28:52.2     -37    -40     52     55     75 223.2  48.0  34156  289.50 0854.80
2009/04/23 12:28:52.3     -31     66     72     74    103 334.5  50.0  34158  289.55 0854.80
2009/04/23 12:28:52.4    -116    -20    148    118    189 259.9  57.1  34154  289.46 0854.80
2009/04/23 12:28:52.5     -86    -74    159    114    195 229.1  60.8  34152  289.45 0854.80
2009/04/23 12:28:52.6    -117   -124    119    171    208 223.4  38.0  34154  289.48 0854.80
2009/04/23 12:28:52.7     -48   -213    164    219    273 192.9  40.7  34154  289.46 0854.80
2009/04/23 12:28:52.8       6   -100    143    101    175 176.4  61.5  34154  289.48 0854.80
2009/04/23 12:28:52.9      44   -193    138    198    241 167.1  38.4  34154  289.48 0854.80
2009/04/23 12:28:53.0     -32   -237    173    240    295 187.8  39.5  34156  289.49 0854.80
2009/04/23 12:28:53.1     -20   -249    180    250    308 184.7  39.5  34154  289.46 0854.80
2009/04/23 12:28:53.2     -41   -361    136    364    388 186.5  21.4  34156  289.50 0854.80
2009/04/23 12:28:53.3     -77   -355    166    364    400 192.3  26.2  34154  289.47 0854.80
2009/04/23 12:28:53.4    -136   -424    160    446    473 197.8  20.6  34142  289.28 0854.80
2009/04/23 12:28:53.5    -279   -491   -108    565    576 209.6 -10.8  34160  289.56 0854.80
2009/04/23 12:28:53.6    -158   -400   -136    431    452 201.6 -17.5  34152  289.44 0854.80
2009/04/23 12:28:53.7    -149   -391    -75    419    426 201.0 -10.3  34156  289.51 0854.80
2009/04/23 12:28:53.8    -142   -316     -7    347    348 204.3  -1.2  34158  289.54 0854.80
2009/04/23 12:28:53.9    -149   -249     35    291    294 211.0   6.9  34158  289.53 0854.80
2009/04/23 12:28:54.0    -160   -245     35    294    297 213.2   6.9  34158  289.53 0854.80
2009/04/23 12:28:54.1    -295   -207    -78    361    370 234.9 -12.3  34160  289.57 0854.80
2009/04/23 12:28:54.2    -331   -283    156    436    463 229.5  20.6  34134  289.12 0854.80
2009/04/23 12:28:54.3     -96   -395    207    407    456 193.7  29.2  34154  289.46 0854.80
2009/04/23 12:28:54.4    -208   -386    112    439    454 208.3  14.3  34162  289.60 0854.80
2009/04/23 12:28:54.5    -165   -220    117    276    299 216.9  24.2  34152  289.44 0854.80
2009/04/23 12:28:54.6     -63   -188    168    199    260 198.7  44.5  34162  289.59 0854.80
2009/04/23 12:28:54.7     -52   -203    165    210    267 194.5  42.2  34158  289.54 0854.80
2009/04/23 12:28:54.8     -42   -156    204    162    260 195.1  57.5  34164  289.64 0854.80
2009/04/23 12:28:54.9     -69   -143    231    160    281 205.9  62.4  34164  289.64 0854.80
2009/04/23 12:28:55.0      25    -87    237     91    253 163.5  78.2  34164  289.63 0854.80
2009/04/23 12:28:55.1     -44   -286    143    290    323 188.9  28.1  34158  289.53 0854.80
2009/04/23 12:28:55.2    -104   -311    127    329    352 198.5  22.3  34156  289.52 0854.80
2009/04/23 12:28:55.3    -129   -274    110    304    323 205.3  20.8  34156  289.51 0854.80
2009/04/23 12:28:55.4     -23   -275    250    277    373 184.9  46.8  34162  289.60 0854.80
2009/04/23 12:28:55.5      17   -275    214    276    349 176.4  41.9  34160  289.58 0854.80
2009/04/23 12:28:55.6     225    -88    141    242    280 111.5  32.9  34162  289.59 0854.80
2009/04/23 12:28:55.7     -45    107     81    117    142 337.3  38.0  34164  289.65 0854.80
2009/04/23 12:28:55.8     100     40    123    108    163  68.2  54.0  34162  289.62 0854.80
2009/04/23 12:28:55.9      67     59    178     90    199  48.2  71.1  34164  289.63 0854.80
2009/04/23 12:28:56.0     -18    -61     91     64    111 196.9  61.5  34168  289.72 0854.80
2009/04/23 12:28:56.1      17    -55    180     58    189 162.2  81.2  34172  289.77 0854.80
2009/04/23 12:28:56.2     -95     32     98    101    140 288.6  49.0  34168  289.70 0854.80
2009/04/23 12:28:56.3     -95     85     82    128    152 311.8  35.6  34166  289.69 0854.80
2009/04/23 12:28:56.4    -171     94    111    196    225 298.9  31.6  34168  289.70 0854.80
2009/04/23 12:28:56.5    -247     71     26    258    260 286.0   5.9  34164  289.63 0854.80
2009/04/23 12:28:56.6    -289     70     52    298    303 283.7  10.0  34164  289.64 0854.80
2009/04/23 12:28:56.7    -202     16     -5    203    204 274.8  -1.6  34164  289.65 0854.80
2009/04/23 12:28:56.8    -225     17     19    226    227 274.4   4.9  34166  289.67 0854.81
2009/04/23 12:28:56.9    -190    -23     64    192    203 263.0  18.4  34164  289.63 0854.81
2009/04/23 12:28:57.0    -115     35     31    121    126 287.3  14.7  34162  289.62 0854.81
2009/04/23 12:28:57.1       5    -63     60     64     87 174.7  49.0  34162  289.62 0854.81
2009/04/23 12:28:57.2      33    -97     -2    103    104 161.3  -1.3  34164  289.65 0854.81
2009/04/23 12:28:57.3      56   -104     23    119    122 151.5  11.1  34162  289.60 0854.81
2009/04/23 12:28:57.4      92   -141     32    169    173 146.6  10.8  34164  289.63 0854.81
2009/04/23 12:28:57.5      63   -108    101    126    161 149.7  43.0  34164  289.65 0854.81
2009/04/23 12:28:57.6       6    -62    107     63    124 173.8  66.8  34166  289.69 0854.81
2009/04/23 12:28:57.8      -6    -70     68     71     98 185.3  49.4  34164  289.63 0854.81
2009/04/23 12:28:57.8     -87    -13     -6     89     90 261.2  -4.1  34160  289.58 0854.81
2009/04/23 12:28:57.9     -60    -57     27     83     88 226.4  18.4  34166  289.67 0854.81
2009/04/23 12:28:58.0    -118    -19     18    120    122 260.8   8.5  34162  289.62 0854.81
2009/04/23 12:28:58.1    -116      0     -2    117    118 270.0  -1.3  34168  289.70 0854.81
2009/04/23 12:28:58.2     -80    -18     42     83     93 257.2  28.2  34168  289.70 0854.81
2009/04/23 12:28:58.3     -52      0     77     53     93 270.0  62.6  34168  289.70 0854.81
2009/04/23 12:28:58.4      42     55    130     70    147  37.8  68.9  34164  289.65 0854.81
2009/04/23 12:28:58.5      89     92    132    129    184  44.1  50.4  34164  289.65 0854.81
2009/04/23 12:28:58.6       5      0    122      6    122  94.4  90.0  34170  289.75 0854.81
2009/04/23 12:28:58.7     -89     53     78    104    130 301.1  41.2  34168  289.72 0854.81
2009/04/23 12:28:58.8     -25     33    145     42    150 322.2  83.9  34164  289.65 0854.81
2009/04/23 12:28:58.9     -52    -57    198     78    212 222.3  77.6  34170  289.74 0854.81
2009/04/23 12:28:59.0     -29   -140    202    144    248 192.0  61.1  34162  289.62 0854.81
2009/04/23 12:28:59.1     -55   -139    226    150    271 201.8  63.6  34162  289.61 0854.81
2009/04/23 12:28:59.2      48      3    218     49    223  85.6  88.0  34170  289.74 0854.81
2009/04/23 12:28:59.3      11   -149    204    150    253 175.5  60.3  34164  289.63 0854.81
2009/04/23 12:28:59.4      -7   -156    165    157    227 182.6  51.6  34164  289.63 0854.81
2009/04/23 12:28:59.5       8   -300    165    301    343 178.4  31.3  34166  289.67 0854.81
2009/04/23 12:28:59.6      32   -225    166    228    282 171.9  39.7  34164  289.63 0854.81
2009/04/23 12:28:59.7      48   -254    131    259    290 169.1  29.1  34164  289.63 0854.81
2009/04/23 12:28:59.8      25   -276     50    278    283 174.7  10.3  34162  289.59 0854.81
2009/04/23 12:28:59.9     -64   -156     83    169    188 202.5  28.0  34162  289.62 0854.81
2009/04/23 12:29:00.0    -155   -150     91    216    234 226.0  24.2  34164  289.63 0854.81
2009/04/23 12:29:00.1    -121   -205     92    239    256 210.7  22.1  34158  289.54 0854.81
2009/04/23 12:29:00.2     -89   -157    119    181    216 209.6  36.5  34162  289.60 0854.81
2009/04/23 12:29:00.3     -57   -209    182    217    283 195.4  43.8  34164  289.64 0854.81
2009/04/23 12:29:00.4    -105   -165    186    196    270 212.5  48.5  34164  289.64 0854.81
2009/04/23 12:29:00.5     -62   -193    193    203    280 198.0  48.5  34164  289.63 0854.81
2009/04/23 12:29:00.6    -111   -157    195    193    274 215.4  50.2  34164  289.63 0854.81
2009/04/23 12:29:00.7    -138   -226    168    265    313 211.4  35.3  34166  289.68 0854.81
2009/04/23 12:29:00.8    -110   -218    132    245    278 206.7  30.6  34162  289.61 0854.81
2009/04/23 12:29:00.9    -102   -195    181    221    285 207.6  43.7  34168  289.70 0854.81
2009/04/23 12:29:01.0     -78   -159    117    178    213 206.1  36.0  34168  289.70 0854.81
2009/04/23 12:29:01.1      26     51     61     58     84  27.2  51.2  34168  289.72 0854.81
2009/04/23 12:29:01.2     -46     83    105     95    141 331.0  52.7  34170  289.74 0854.81
2009/04/23 12:29:01.3     -99     97     55    139    149 314.4  23.0  34168  289.72 0854.81
2009/04/23 12:29:01.4    -109     83     70    138    154 307.3  29.2  34172  289.79 0854.81
2009/04/23 12:29:01.5     -55     71     93     90    129 322.2  50.7  34180  289.92 0854.81
2009/04/23 12:29:01.6     -20    143    106    145    179 352.0  39.7  34220  290.60 0854.81
2009/04/23 12:29:01.7     -55    156     76    166    182 340.6  26.4  34230  290.77 0854.81
2009/04/23 12:29:01.8     -63     92     49    112    122 325.3  25.1  34214  290.50 0854.81
2009/04/23 12:29:01.9     -92     91     66    130    145 314.8  29.2  34234  290.82 0854.81
2009/04/23 12:29:02.0     -49    120    108    130    169 337.7  43.8  34228  290.74 0854.81
2009/04/23 12:29:02.1      -9    119     59    120    133 355.5  27.8  34272  291.47 0854.81
2009/04/23 12:29:02.2     -67     57     37     88     95 310.4  24.1  34250  291.09 0854.81
2009/04/23 12:29:02.3    -142     96     86    172    192 304.0  28.2  34238  290.91 0854.81
2009/04/23 12:29:02.4    -193    195     66    275    283 315.2  13.7  34280  291.60 0854.81
2009/04/23 12:29:02.5    -165    219     75    275    286 323.0  15.3  34276  291.55 0854.81
2009/04/23 12:29:02.7    -216    157     92    268    284 306.0  18.9  34282  291.65 0854.81
2009/04/23 12:29:02.8    -210    180    113    277    299 310.5  23.1  34280  291.60 0854.81
2009/04/23 12:29:02.8    -154    240     69    286    295 327.4  13.7  34278  291.56 0854.81
2009/04/23 12:29:03.0    -125    239    116    270    293 332.4  25.1  34272  291.48 0854.81
2009/04/23 12:29:03.1     -68    205    100    217    238 341.5  26.4  34290  291.79 0854.81
2009/04/23 12:29:03.2     -63    165     97    177    201 339.1  31.4  34278  291.59 0854.81
2009/04/23 12:29:03.3     -25    111     39    114    121 347.1  18.9  34268  291.42 0854.81
2009/04/23 12:29:03.4      76     60     26     97    101  51.8  15.2  34280  291.60 0854.81
2009/04/23 12:29:03.5     142     82     45    164    171  60.0  15.3  34290  291.79 0854.81
2009/04/23 12:29:03.6     195     78     44    211    216  68.0  12.0  34276  291.55 0854.81
2009/04/23 12:29:03.7     161     88     90    184    204  61.4  28.0  34300  291.96 0854.81
2009/04/23 12:29:03.8     175     83     94    194    215  64.5  27.4  34320  292.29 0854.81
2009/04/23 12:29:03.9     195     69    141    207    250  70.5  37.4  34320  292.30 0854.80
2009/04/23 12:29:04.0     402    178    213    440    488  66.1  27.7  34278  291.58 0854.80
2009/04/23 12:29:04.1     353    283    234    453    509  51.3  29.3  34288  291.73 0854.80
2009/04/23 12:29:04.2     275    188    298    334    447  55.7  46.3  34290  291.77 0854.80
2009/04/23 12:29:04.3     285    172    277    333    433  58.9  44.0  34256  291.19 0854.80
2009/04/23 12:29:04.4     238    164    262    290    390  55.4  46.9  34232  290.81 0854.80
2009/04/23 12:29:04.5     371     87    122    382    402  76.7  17.8  34254  291.17 0854.80
2009/04/23 12:29:04.6     413    204     55    461    465  63.7   6.9  34240  290.94 0854.80
2009/04/23 12:29:04.7     350    149     -7    381    382  67.0  -1.2  34270  291.44 0854.80
2009/04/23 12:29:04.8     372     87      0    383    384  76.8   0.1  34278  291.59 0854.80
2009/04/23 12:29:04.9     409     50     48    413    416  83.0   6.7  34290  291.77 0854.80
2009/04/23 12:29:05.0     476    154     78    501    508  72.1   8.9  34238  290.91 0854.80
2009/04/23 12:29:05.1     456    255    136    523    541  60.8  14.6  34220  290.58 0854.80
2009/04/23 12:29:05.2     463    228     44    517    520  63.8   4.9  34238  290.90 0854.80
2009/04/23 12:29:05.3     372    166    -15    408    409  65.9  -2.1  34244  290.99 0854.80
2009/04/23 12:29:05.4     451     -9      7    452    453  91.2   0.9  34218  290.55 0854.80
2009/04/23 12:29:05.5     483   -284     74    561    566 120.5   7.6  34250  291.09 0854.80
2009/04/23 12:29:05.6     557   -302    113    634    645 118.5  10.1  34202  290.30 0854.80
2009/04/23 12:29:05.7     472   -285    139    552    570 121.2  14.2  34194  290.16 0854.80
2009/04/23 12:29:05.8     428   -264    207    503    543 121.7  23.6  34230  290.77 0854.80
2009/04/23 12:29:05.9     284   -379    167    474    502 143.2  20.1  34222  290.64 0854.81
2009/04/23 12:29:06.0     244   -349    189    427    466 145.0  25.6  34232  290.78 0854.81
2009/04/23 12:29:06.1     127   -247    163    278    322 152.8  33.1  34220  290.59 0854.81
2009/04/23 12:29:06.2     239   -133     93    274    290 119.1  18.9  34222  290.61 0854.81
2009/04/23 12:29:06.3     116   -228    104    256    276 153.0  23.1  34190  290.09 0854.81
2009/04/23 12:29:06.4     133   -320    137    347    373 157.4  22.9  34208  290.40 0854.81
2009/04/23 12:29:06.5      91   -378     84    389    399 166.4  12.3  34214  290.50 0854.81
2009/04/23 12:29:06.6      87   -335    120    347    368 165.4  19.1  34182  289.96 0854.81
2009/04/23 12:29:06.7      94   -383    121    395    414 166.2  17.0  34186  290.00 0854.81
2009/04/23 12:29:06.8     108   -310     35    329    331 160.8   6.1  34174  289.81 0854.81
2009/04/23 12:29:06.9     120   -211    -18    243    244 150.4  -4.4  34184  289.98 0854.81
2009/04/23 12:29:07.0     122   -194     76    230    243 147.9  18.4  34190  290.07 0854.81
2009/04/23 12:29:07.1      63   -264    156    272    313 166.6  32.4  34176  289.83 0854.81
2009/04/23 12:29:07.2      34   -240    180    243    302 171.9  39.9  34174  289.81 0854.81
2009/04/23 12:29:07.3      72   -310     71    319    327 166.9  12.6  34166  289.68 0854.81
2009/04/23 12:29:07.4     100   -158     95    188    210 147.7  28.7  34172  289.77 0854.81
2009/04/23 12:29:07.5     145   -132     82    197    213 132.2  23.6  34174  289.82 0854.81
2009/04/23 12:29:07.6     227   -154     85    275    288 124.2  17.3  34178  289.86 0854.81
2009/04/23 12:29:07.7     162   -137    150    213    260 130.2  38.6  34174  289.80 0854.81
2009/04/23 12:29:07.8     249   -126    116    280    303 116.9  23.8  34172  289.78 0854.81
2009/04/23 12:29:07.9     238    -78     95    251    268 108.2  21.7  34178  289.88 0854.82
2009/04/23 12:29:08.0     239   -123     95    270    287 117.3  19.4  34176  289.85 0854.82
2009/04/23 12:29:08.1     231   -113    100    258    276 116.2  22.3  34184  289.98 0854.82
2009/04/23 12:29:08.2     176    -45    170    182    249 104.6  48.0  34178  289.89 0854.82
2009/04/23 12:29:08.3     166     -8    160    167    231  92.8  48.7  34190  290.08 0854.82
2009/04/23 12:29:08.4      36    -46    137     59    149 142.2  75.0  34182  289.94 0854.82
2009/04/23 12:29:08.5      -8    -36     90     38     97 193.4  76.1  34178  289.89 0854.82
2009/04/23 12:29:08.6       6    -74     56     75     93 174.7  40.7  34176  289.85 0854.82
2009/04/23 12:29:08.7     -15    -80      1     82     83 190.7   1.2  34180  289.91 0854.82
2009/04/23 12:29:08.8     -11    -27    -41     30     50 201.8 -64.9  34178  289.87 0854.82
2009/04/23 12:29:08.9      62     20     -8     66     67  71.6  -7.2  34180  289.92 0854.82
2009/04/23 12:29:09.0      -5    -13     37     15     39 201.8  76.1  34180  289.92 0854.82
2009/04/23 12:29:09.1       2     -7     49      8     49 161.5  90.0  34178  289.87 0854.82
2009/04/23 12:29:09.2     -17    -64     95     67    116 195.1  61.5  34180  289.91 0854.82
2009/04/23 12:29:09.3     -47    -41     82     63    103 228.7  58.5  34176  289.84 0854.82
2009/04/23 12:29:09.4       1    -35    114     36    119 177.3  81.8  34176  289.85 0854.82
2009/04/23 12:29:09.5       0     33     72     34     79   0.9  72.9  34180  289.92 0854.82
2009/04/23 12:29:09.6      -5     -6     83      8     83 219.6  90.0  34180  289.92 0854.82
2009/04/23 12:29:09.7      32     -9     73     34     80 106.8  73.5  34176  289.84 0854.82
2009/04/23 12:29:09.8     -38    -83     98     92    134 204.5  51.6  34166  289.69 0854.82
2009/04/23 12:29:09.9     -83   -141    134    164    211 210.5  43.7  34170  289.75 0854.82
2009/04/23 12:29:10.0    -134   -175     89    221    238 217.4  23.0  34172  289.78 0854.82
2009/04/23 12:29:10.1    -130   -253     97    285    302 207.2  18.9  34180  289.92 0854.82
2009/04/23 12:29:10.2    -255   -121     28    283    285 244.7   5.7  34194  290.14 0854.82
2009/04/23 12:29:10.3    -307   -111     66    327    334 250.0  11.4  34222  290.62 0854.82
2009/04/23 12:29:10.4    -319   -100     31    335    337 252.6   5.4  34228  290.72 0854.82
2009/04/23 12:29:10.5    -310   -188     87    363    374 238.7  13.6  34192  290.10 0854.82
2009/04/23 12:29:10.6    -117   -203    167    235    288 209.9  38.8  34190  290.09 0854.82
2009/04/23 12:29:10.7    -242   -321    142    403    427 217.0  20.0  34180  289.90 0854.82
2009/04/23 12:29:10.8    -296   -355     99    463    474 219.8  12.1  34172  289.76 0854.82
2009/04/23 12:29:10.9    -415   -262    -36    492    494 237.7  -4.2  34164  289.64 0854.82
2009/04/23 12:29:11.0    -383    -37     45    385    388 264.4   6.7  34222  290.62 0854.82
2009/04/23 12:29:11.1    -459    -20    -61    460    465 267.4  -7.6  34172  289.77 0854.82
2009/04/23 12:29:11.2    -382   -218     60    441    446 240.3   7.8  34174  289.82 0854.82
2009/04/23 12:29:11.3    -427   -194    -30    470    471 245.6  -3.7  34150  289.39 0854.82
2009/04/23 12:29:11.4    -379   -138    -38    404    406 250.0  -5.5  34142  289.27 0854.82
2009/04/23 12:29:11.5    -415   -249    -61    485    489 239.0  -7.2  34150  289.39 0854.82
2009/04/23 12:29:11.6    -398   -237   -130    464    482 239.3 -15.7  34152  289.42 0854.82
2009/04/23 12:29:11.7    -455   -268   -167    529    555 239.5 -17.6  34148  289.38 0854.82
2009/04/23 12:29:11.8    -544   -273   -179    609    634 243.3 -21.2  34152  289.42 0854.82
2009/04/23 12:29:11.9    -499   -177   -210    530    570 250.4 -27.4  34148  289.38 0854.83
2009/04/23 12:29:12.0    -449   -121   -134    466    484 254.9 -20.9  34146  289.34 0854.83
2009/04/23 12:29:12.1    -479    -19   -156    480    504 267.6 -23.3  34158  289.54 0854.83
2009/04/23 12:29:12.2    -424    -24   -152    425    452 266.8 -19.7  34168  289.70 0854.83
2009/04/23 12:29:12.3    -362   -183    -22    406    407 243.2  -3.1  34168  289.72 0854.83
2009/04/23 12:29:12.4    -280     29    -78    282    293 276.1 -15.5  34170  289.73 0854.83
2009/04/23 12:29:12.5    -314    -38   -103    317    334 263.0 -18.1  34168  289.71 0854.83
2009/04/23 12:29:12.6    -285    -21   -140    286    318 265.6 -32.5  34172  289.76 0854.83
2009/04/23 12:29:12.7    -257     35    -69    260    270 277.9 -15.0  34176  289.85 0854.83
2009/04/23 12:29:12.8    -268     45    -10    272    273 279.6  -2.2  34180  289.90 0854.83
2009/04/23 12:29:12.9    -274     82     24    287    289 286.8   4.9  34180  289.90 0854.83
2009/04/23 12:29:13.0     -77     -1    -27     78     82 269.1 -23.8  34174  289.82 0854.83
2009/04/23 12:29:13.1     -52    -16    -85     55    101 252.3 -68.5  34172  289.77 0854.83
2009/04/23 12:29:13.2     -12    -16    -95     21     97 217.8 -90.0  34164  289.63 0854.83
2009/04/23 12:29:13.3     -78     15    -74     80    108 281.5 -52.3  34162  289.62 0854.83
2009/04/23 12:29:13.4    -192     -3    -99    193    216 269.0 -33.7  34164  289.63 0854.83
2009/04/23 12:29:13.5    -407    -20    -39    408    411 267.1  -5.6  34160  289.56 0854.83
2009/04/23 12:29:13.6    -513   -112   -148    526    546 257.6 -20.4  34156  289.51 0854.83
2009/04/23 12:29:13.7    -447   -150   -168    472    502 251.4 -19.6  34160  289.56 0854.83
2009/04/23 12:29:13.8    -631    -91   -179    638    663 261.8 -15.7  34162  289.60 0854.83
2009/04/23 12:29:13.9    -478    -38   -167    480    508 265.4 -24.4  34156  289.50 0854.83
2009/04/23 12:29:14.0    -238   -239   -153    338    371 224.8 -30.4  34172  289.76 0854.83
2009/04/23 12:29:14.1    -238   -338   -130    414    433 215.2 -22.4  34170  289.75 0854.83
2009/04/23 12:29:14.2    -266   -266   -181    377    418 225.0 -31.7  34172  289.77 0854.83
2009/04/23 12:29:14.3    -140   -243      4    281    282 209.9   1.0  34164  289.63 0854.83
2009/04/23 12:29:14.4    -349   -188     27    397    398 241.7   4.0  34168  289.71 0854.83
2009/04/23 12:29:14.5    -251    -46     62    256    264 259.6  13.7  34166  289.68 0854.83
2009/04/23 12:29:14.6      76    -84     11    114    115 138.1   5.9  34162  289.62 0854.83
2009/04/23 12:29:14.7      23   -298    181    299    349 175.5  34.3  34164  289.64 0854.83
2009/04/23 12:29:14.8    -136    -73    127    155    200 241.6  43.7  34166  289.69 0854.83
2009/04/23 12:29:14.9    -121     -6     80    122    145 267.0  36.0  34166  289.67 0854.83
2009/04/23 12:29:15.0    -142    -67     78    158    176 244.7  28.0  34166  289.69 0854.83
2009/04/23 12:29:15.1     111   -232    -46    258    263 154.5 -10.1  34164  289.63 0854.83
2009/04/23 12:29:15.2      10   -350     33    351    353 178.3   5.4  34166  289.69 0854.83
2009/04/23 12:29:15.3     -74   -631     18    636    637 186.7   1.7  34166  289.69 0854.83
2009/04/23 12:29:15.4     -72   -658     56    662    665 186.3   4.9  34168  289.71 0854.83
2009/04/23 12:29:15.5     -70   -613     30    618    619 186.6   2.8  34162  289.59 0854.83
2009/04/23 12:29:15.6     -42   -549     41    551    553 184.5   4.3  34166  289.67 0854.83
2009/04/23 12:29:15.7    -145   -569     22    588    589 194.3   2.2  34164  289.63 0854.83
2009/04/23 12:29:15.8    -262   -433    -27    507    508 211.2  -3.1  34156  289.52 0854.83
2009/04/23 12:29:15.9      13   -512    148    513    534 178.5  16.1  34162  289.60 0854.84
2009/04/23 12:29:16.0      29   -389     47    391    394 175.7   6.9  34166  289.67 0854.84
2009/04/23 12:29:16.1       7   -474    -18    475    476 179.1  -2.2  34162  289.61 0854.84
2009/04/23 12:29:16.2     -77   -469    -10    476    477 189.3  -1.3  34162  289.62 0854.84
2009/04/23 12:29:16.3    -154   -365   -145    397    422 202.9 -25.4  34158  289.53 0854.84
2009/04/23 12:29:16.4    -179   -327   -184    373    415 208.7 -32.6  34158  289.53 0854.84
2009/04/23 12:29:16.5    -179   -134   -173    224    283 233.1 -46.0  34152  289.42 0854.84
2009/04/23 12:29:16.6    -273   -229   -108    357    374 230.0 -16.9  34158  289.54 0854.84
2009/04/23 12:29:16.7    -118   -376    -83    395    404 197.5 -11.9  34160  289.57 0854.84
2009/04/23 12:29:16.8    -202   -388    -24    438    439 207.5  -3.2  34154  289.48 0854.84
2009/04/23 12:29:16.9    -220   -284    -14    360    361 217.8  -2.2  34156  289.52 0854.84
2009/04/23 12:29:17.0    -203   -216     28    297    299 223.2   5.4  34158  289.53 0854.84
2009/04/23 12:29:17.1    -186   -241     13    305    306 217.6   2.5  34156  289.51 0854.84
2009/04/23 12:29:17.2    -223   -183    -26    289    291 230.7  -5.2  34162  289.61 0854.84
2009/04/23 12:29:17.3    -181   -154    -52    238    244 229.6 -12.4  34164  289.63 0854.84
2009/04/23 12:29:17.4     -22   -228   -125    230    261 185.6 -35.7  34170  289.73 0854.84
2009/04/23 12:29:17.5     124   -209   -144    244    283 149.2 -37.9  34164  289.64 0854.84
2009/04/23 12:29:17.6      74   -109   -136    132    189 145.7 -55.1  34164  289.65 0854.84
2009/04/23 12:29:17.7     -74   -201   -173    215    275 200.3 -47.4  34168  289.71 0854.84
2009/04/23 12:29:17.8    -228    -72    -78    240    252 252.3 -23.6  34166  289.66 0854.84
2009/04/23 12:29:17.9    -104     46    -20    114    116 294.0 -10.3  34170  289.75 0854.84
2009/04/23 12:29:18.0    -107     20     63    109    125 281.0  33.4  34170  289.74 0854.84
2009/04/23 12:29:18.1    -206     -8    -53    207    214 267.6 -14.5  34158  289.55 0854.84
2009/04/23 12:29:18.2    -350    -66     43    357    360 259.3   6.9  34172  289.76 0854.84
2009/04/23 12:29:18.3    -326   -139     71    355    363 246.8  11.4  34162  289.60 0854.84
2009/04/23 12:29:18.4    -423   -108     76    437    444 255.6   9.9  34162  289.60 0854.84
2009/04/23 12:29:18.5    -336   -163    -82    374    383 244.1 -12.4  34162  289.59 0854.84
2009/04/23 12:29:18.6    -247    -42    120    251    278 260.3  27.3  34168  289.70 0854.84
2009/04/23 12:29:18.7    -351   -100     42    365    368 254.1   6.6  34150  289.40 0854.84
2009/04/23 12:29:18.8    -354   -139     93    381    393 248.6  13.8  34164  289.64 0854.84
2009/04/23 12:29:18.9    -446    -93     -2    456    457 258.2  -0.3  34158  289.55 0854.84
2009/04/23 12:29:19.0    -296   -189   -203    352    406 237.4 -37.0  34160  289.57 0854.84
2009/04/23 12:29:19.1    -355   -155    -21    388    389 246.4  -3.2  34158  289.55 0854.84
2009/04/23 12:29:19.2    -357   -193     -9    406    407 241.6  -1.4  34162  289.61 0854.84
2009/04/23 12:29:19.3    -147   -121    -24    191    193 230.4  -7.3  34162  289.62 0854.84
2009/04/23 12:29:19.4     -13   -181    -35    182    186 184.2 -10.9  34162  289.62 0854.84
2009/04/23 12:29:19.5    -166   -183    -42    248    252 222.3  -9.8  34162  289.59 0854.84
2009/04/23 12:29:19.6    -168   -208    -82    268    281 219.0 -17.0  34162  289.59 0854.84
2009/04/23 12:29:19.7    -201   -102    -41    226    230 243.0 -10.5  34158  289.53 0854.84
2009/04/23 12:29:19.8    -173    -28     -6    176    177 260.8  -2.2  34164  289.63 0854.84
2009/04/23 12:29:19.9     -88   -151    -96    176    200 210.3 -35.4  34164  289.65 0854.85
2009/04/23 12:29:20.0    -336   -157   -105    372    386 244.9 -20.3  34162  289.60 0854.85
2009/04/23 12:29:20.1    -309   -187   -121    362    381 238.8 -23.6  34164  289.64 0854.85
2009/04/23 12:29:20.2    -214   -256   -127    334    357 219.9 -26.1  34168  289.71 0854.85
2009/04/23 12:29:20.3    -190   -305    -91    360    372 211.9 -14.3  34166  289.69 0854.85
2009/04/23 12:29:20.4    -255   -334     15    421    422 217.3   2.1  34164  289.65 0854.85
2009/04/23 12:29:20.5    -217   -339   -145    403    429 212.6 -19.8  34170  289.75 0854.85
2009/04/23 12:29:20.6    -201   -407      6    454    455 206.3   0.8  34172  289.77 0854.85
2009/04/23 12:29:20.7    -272   -498   -173    568    594 208.6 -17.0  34166  289.68 0854.85
2009/04/23 12:29:20.8    -389   -314     28    501    502 231.1   3.3  34172  289.76 0854.85
2009/04/23 12:29:20.9    -389   -340    -65    517    522 228.9  -7.2  34176  289.84 0854.85
2009/04/23 12:29:21.0    -542   -282     19    612    613 242.5   1.8  34178  289.86 0854.85
2009/04/23 12:29:21.1    -460   -131    -79    479    486 254.1  -9.4  34166  289.69 0854.85
2009/04/23 12:29:21.2    -535    -90    -21    543    544 260.4  -2.2  34166  289.67 0854.85
2009/04/23 12:29:21.3    -250   -361    102    440    452 214.7  13.1  34162  289.61 0854.85
2009/04/23 12:29:21.4    -129   -386     96    408    420 198.5  13.2  34160  289.58 0854.85
2009/04/23 12:29:21.5     -95   -285    103    301    319 198.5  18.9  34160  289.58 0854.85
2009/04/23 12:29:21.6    -107   -302    154    321    356 199.6  27.3  34158  289.54 0854.85
2009/04/23 12:29:21.7     -60   -201     96    210    230 196.7  26.6  34152  289.45 0854.85
2009/04/23 12:29:21.8    -144   -186    148    236    278 217.8  35.2  34164  289.63 0854.85
2009/04/23 12:29:21.9     -11    -68    173     70    186 189.8  77.0  34166  289.67 0854.85
2009/04/23 12:29:22.0     -33     60     63     69     93 331.0  47.9  34162  289.62 0854.85
2009/04/23 12:29:22.1    -159   -124    -22    203    205 232.0  -6.2  34156  289.52 0854.85
2009/04/23 12:29:22.2    -259     -6     25    260    262 268.5   5.7  34156  289.49 0854.85
2009/04/23 12:29:22.3    -154     32    179    158    238 281.9  54.0  34156  289.50 0854.85
2009/04/23 12:29:22.4     -47     14     27     50     56 286.8  30.3  34158  289.53 0854.85
2009/04/23 12:29:22.5     -29   -177    183    180    256 189.3  50.7  34152  289.44 0854.85
2009/04/23 12:29:22.6    -101   -161    203    191    278 212.1  52.1  34146  289.34 0854.85
2009/04/23 12:29:22.7    -108   -170    112    202    230 212.6  31.4  34150  289.41 0854.85
2009/04/23 12:29:22.8     -38   -120     57    127    139 197.8  26.2  34152  289.43 0854.85
2009/04/23 12:29:22.9      -5    -90    151     91    176 183.6  66.2  34154  289.46 0854.85
2009/04/23 12:29:23.0      15    -81    104     83    133 169.3  56.9  34154  289.48 0854.85
2009/04/23 12:29:23.1       2   -126     71    127    145 179.0  31.4  34152  289.45 0854.85
2009/04/23 12:29:23.2     -64    -95     45    115    123 214.3  22.5  34152  289.45 0854.85
2009/04/23 12:29:23.3      63    -95     79    115    139 146.2  37.6  34150  289.40 0854.85
2009/04/23 12:29:23.4      34   -184     36    188    192 169.3  11.0  34148  289.38 0854.85
2009/04/23 12:29:23.5     129   -209    148    246    287 148.4  34.0  34154  289.46 0854.85
2009/04/23 12:29:23.6      24   -238     47    240    245 174.0  11.1  34152  289.44 0854.85
2009/04/23 12:29:23.7      37   -298     95    301    316 172.9  17.5  34152  289.44 0854.85
2009/04/23 12:29:23.8      58   -454      8    458    459 172.7   1.1  34150  289.39 0854.85
2009/04/23 12:29:23.9     -71   -351    127    359    380 191.6  20.2  34152  289.42 0854.85
2009/04/23 12:29:24.0     -52   -340     77    345    354 188.8  12.6  34150  289.40 0854.85
2009/04/23 12:29:24.1    -113   -329    136    348    373 199.0  22.7  34146  289.35 0854.85
2009/04/23 12:29:24.2     -82   -274     61    287    294 196.7  12.2  34150  289.41 0854.85
2009/04/23 12:29:24.3     -33   -216    -44    219    224 188.7 -11.5  34150  289.41 0854.85
2009/04/23 12:29:24.4      94      7    -35     95    101  85.6 -25.4  34152  289.45 0854.85
2009/04/23 12:29:24.5      84      8    -59     85    103  84.3 -42.4  34154  289.46 0854.85
2009/04/23 12:29:24.6      52    -65     10     84     85 141.3   6.9  34150  289.40 0854.85
2009/04/23 12:29:24.7      22   -291     83    292    304 175.6  16.0  34152  289.42 0854.85
2009/04/23 12:29:24.8     185   -300     92    353    365 148.3  14.6  34138  289.21 0854.85
2009/04/23 12:29:24.9     386   -286     20    481    482 126.6   2.4  34142  289.28 0854.84
2009/04/23 12:29:25.0     287   -249   -135    381    404 130.9 -24.7  34142  289.28 0854.84
2009/04/23 12:29:25.1     121   -147    -67    191    203 140.4 -19.4  34146  289.33 0854.84
2009/04/23 12:29:25.2     137   -331    110    359    376 157.5  17.1  34152  289.45 0854.84
2009/04/23 12:29:25.3     206   -170     90    268    283 129.6  18.6  34152  289.42 0854.84
2009/04/23 12:29:25.4     166   -175     -4    242    243 136.6  -1.1  34150  289.41 0854.84
2009/04/23 12:29:25.5     214   -145     73    259    270 124.2  15.8  34148  289.36 0854.84
2009/04/23 12:29:25.6     287   -122     81    312    323 113.1  14.6  34146  289.32 0854.84
2009/04/23 12:29:25.7     140    -99    -61    172    182 125.5 -24.4  34146  289.35 0854.84
2009/04/23 12:29:25.8     109   -149    -64    185    196 143.9 -19.1  34150  289.40 0854.84
2009/04/23 12:29:26.0      79   -116    -18    141    143 145.7  -7.3  34148  289.38 0854.84
2009/04/23 12:29:26.1     120   -162     62    202    212 143.5  17.1  34144  289.30 0854.84
2009/04/23 12:29:26.1     136    -45     -3    144    145 108.4  -1.3  34142  289.28 0854.84
2009/04/23 12:29:26.2     121    -19     58    123    135  99.2  27.1  34138  289.21 0854.84
2009/04/23 12:29:26.3     132   -222     95    259    275 149.3  21.0  34146  289.32 0854.84
2009/04/23 12:29:26.4      19   -168    160    170    233 173.3  48.2  34142  289.26 0854.84
2009/04/23 12:29:26.5      29   -165     10    168    169 169.8   3.6  34142  289.26 0854.84
2009/04/23 12:29:26.6      61   -159    -77    171    187 159.1 -30.6  34144  289.30 0854.84
2009/04/23 12:29:26.7     109   -155     -7    190    191 144.8  -2.2  34142  289.28 0854.84
2009/04/23 12:29:26.8     215      1     80    216    230  89.6  21.0  34140  289.23 0854.84
2009/04/23 12:29:26.9     245    -78    162    258    304 107.7  35.5  34140  289.22 0854.85
2009/04/23 12:29:27.0      36   -289    128    292    318 172.8  25.2  34122  288.93 0854.85
2009/04/23 12:29:27.2       7   -458    125    459    476 179.0  15.3  34136  289.17 0854.85
2009/04/23 12:29:27.3    -198   -457    317    499    591 203.4  35.5  34132  289.09 0854.85
2009/04/23 12:29:27.3    -329   -308     71    451    457 226.9   9.0  34122  288.92 0854.85
2009/04/23 12:29:27.4    -139   -294    119    326    347 205.3  20.7  34132  289.11 0854.85
2009/04/23 12:29:27.5      14   -379    150    380    408 177.8  22.7  34130  289.08 0854.85
2009/04/23 12:29:27.6      34   -188    172    192    257 169.8  46.9  34136  289.15 0854.85
2009/04/23 12:29:27.7     198    -73    102    212    235 110.4  27.4  34138  289.19 0854.85
2009/04/23 12:29:27.8     153     26    139    156    208  80.3  46.4  34134  289.14 0854.85
2009/04/23 12:29:27.9     100     17    187    102    213  79.9  68.9  34140  289.24 0854.85
2009/04/23 12:29:28.0     -12    -57    160     59    170 192.5  79.5  34146  289.33 0854.85
2009/04/23 12:29:28.1     -45     18    213     49    218 291.7  87.3  34142  289.26 0854.85
2009/04/23 12:29:28.2     101   -213    243    236    338 154.6  50.9  34134  289.12 0854.85
2009/04/23 12:29:28.4     -36     19    130     41    136 298.0  81.8  34134  289.14 0854.85
2009/04/23 12:29:28.5     111   -202    168    231    285 151.1  39.7  34132  289.10 0854.85
2009/04/23 12:29:28.5     142   -258    244    295    382 151.1  43.7  34134  289.13 0854.85
2009/04/23 12:29:28.6      -5    -50    204     51    210 186.2  86.4  34142  289.26 0854.85
2009/04/23 12:29:28.7      29   -106    215    111    241 164.4  70.6  34136  289.18 0854.85
2009/04/23 12:29:28.8     157   -166    266    229    350 136.7  55.0  34136  289.15 0854.85
2009/04/23 12:29:28.9     218   -177    247    281    374 129.1  45.8  34136  289.15 0854.85
2009/04/23 12:29:29.0       4     -5    222      7    222 140.4  90.0  34140  289.23 0854.85
2009/04/23 12:29:29.1     -47    -38    204     61    212 231.4  82.8  34140  289.24 0854.85
2009/04/23 12:29:29.3      58     73    257     94    273  38.7  79.2  34140  289.24 0854.85
2009/04/23 12:29:29.4    -213     -3    189    214    285 269.0  45.9  34144  289.29 0854.85
2009/04/23 12:29:29.5    -133    -29    157    137    208 257.6  54.3  34148  289.38 0854.85
2009/04/23 12:29:29.6    -272   -191    102    333    349 235.0  17.0  34136  289.15 0854.85
2009/04/23 12:29:29.7    -369    115    202    387    436 287.3  29.6  34134  289.12 0854.85
2009/04/23 12:29:29.8    -548     37     77    550    556 273.9   8.0  34144  289.31 0854.85
2009/04/23 12:29:29.9    -485    118    136    500    519 283.7  15.3  34146  289.35 0854.85
2009/04/23 12:29:30.0    -380    225    226    442    496 300.7  29.2  34134  289.13 0854.85
2009/04/23 12:29:30.1    -171   -144    318    224    388 229.8  61.5  34142  289.25 0854.85
2009/04/23 12:29:30.2     -91   -114    269    147    306 218.7  68.9  34138  289.20 0854.85
2009/04/23 12:29:30.3     -41     56    194     70    206 323.9  79.2  34144  289.30 0854.85
2009/04/23 12:29:30.4     -28    -67    142     73    159 202.7  70.8  34138  289.21 0854.85
2009/04/23 12:29:30.5      74    -71     74    103    126 134.0  39.5  34130  289.08 0854.85
2009/04/23 12:29:30.6     108    -26    139    112    178 103.7  57.1  34142  289.28 0854.85
2009/04/23 12:29:30.7     -29   -110    100    114    151 195.2  45.8  34144  289.30 0854.85
2009/04/23 12:29:30.8     -15   -202    183    203    273 184.5  46.9  34144  289.29 0854.85
2009/04/23 12:29:30.9     165   -126    243    208    319 127.5  55.3  34146  289.34 0854.85
2009/04/23 12:29:31.0      44   -138    212    145    256 162.2  62.6  34142  289.28 0854.84
2009/04/23 12:29:31.1     -22   -287    210    288    356 184.4  39.7  34138  289.21 0854.84
2009/04/23 12:29:31.2      16   -367    321    368    488 177.4  45.5  34136  289.17 0854.84
2009/04/23 12:29:31.3    -100   -336    159    351    385 196.6  26.2  34130  289.08 0854.84
2009/04/23 12:29:31.4      49    -38    156     63    168 127.8  77.1  34142  289.26 0854.84
2009/04/23 12:29:31.5     146   -155    149    214    260 136.8  38.4  34142  289.27 0854.84
2009/04/23 12:29:31.6      65   -174    173    186    254 159.5  47.9  34138  289.20 0854.84
2009/04/23 12:29:31.7     126   -230    198    263    329 151.3  40.8  34138  289.20 0854.84
2009/04/23 12:29:31.8       0   -252    273    253    372 180.0  52.3  34144  289.30 0854.84
2009/04/23 12:29:31.9     -20   -267    243    268    361 184.5  46.9  34142  289.26 0854.84
2009/04/23 12:29:32.0    -186   -309    136    361    385 211.0  21.5  34142  289.25 0854.84
2009/04/23 12:29:32.1    -186   -211     66    282    290 221.4  13.2  34140  289.22 0854.84
2009/04/23 12:29:32.2    -150   -155    108    216    241 224.1  28.5  34140  289.24 0854.84
2009/04/23 12:29:32.3     -39   -173    159    178    238 192.7  46.6  34140  289.24 0854.84
2009/04/23 12:29:32.4    -104   -179    128    208    244 210.1  34.5  34142  289.25 0854.84
2009/04/23 12:29:32.5    -171   -202    109    265    286 220.3  23.6  34144  289.31 0854.84
2009/04/23 12:29:32.6    -118   -196     71    229    240 211.0  17.3  34142  289.25 0854.84
2009/04/23 12:29:32.7    -106   -167    101    199    223 212.5  29.2  34142  289.28 0854.84
2009/04/23 12:29:32.8     -67   -258    146    267    304 194.7  31.3  34144  289.29 0854.84
2009/04/23 12:29:32.9     -54   -228    275    235    361 193.4  55.3  34138  289.20 0854.84
2009/04/23 12:29:33.0     -75   -193    241    208    318 201.2  54.9  34144  289.29 0854.83
2009/04/23 12:29:33.1     -45   -125    161    134    209 200.0  56.3  34142  289.26 0854.83
2009/04/23 12:29:33.2     -91   -194     83    215    230 205.2  22.3  34144  289.30 0854.83
2009/04/23 12:29:33.3     -92   -196    106    217    241 205.3  28.0  34146  289.32 0854.83
2009/04/23 12:29:33.4    -201   -221    140    299    330 222.3  27.0  34148  289.36 0854.83
2009/04/23 12:29:33.5    -225   -143     96    267    283 237.6  20.4  34152  289.44 0854.83
2009/04/23 12:29:33.6     -85   -115     89    144    169 216.5  34.8  34148  289.36 0854.83
2009/04/23 12:29:33.7    -100    -33     93    106    141 251.8  45.8  34152  289.43 0854.83
2009/04/23 12:29:33.8    -109    -49     60    120    134 245.6  28.7  34154  289.46 0854.83
2009/04/23 12:29:33.9    -105    -84     35    135    140 231.4  14.7  34150  289.41 0854.83
2009/04/23 12:29:34.0     -74    -76     -4    107    108 224.1  -2.2  34154  289.46 0854.83
2009/04/23 12:29:34.1     -90    -13     31     91     97 261.6  18.9  34158  289.55 0854.83
2009/04/23 12:29:34.2    -179     20     25    181    183 276.4   8.0  34162  289.62 0854.83
2009/04/23 12:29:34.3    -114     94     52    148    157 309.5  19.4  34174  289.82 0854.83
2009/04/23 12:29:34.4     -68    118     60    137    149 330.1  25.2  34174  289.82 0854.83
2009/04/23 12:29:34.5      55    157     72    167    181  19.4  24.6  34172  289.77 0854.83
2009/04/23 12:29:34.6      29    -48    144     57    154 148.4  77.6  34160  289.57 0854.83
2009/04/23 12:29:34.7     -16    -41    117     45    125 201.8  78.2  34158  289.53 0854.83
2009/04/23 12:29:34.8      -7    -99    156    100    185 184.5  64.6  34166  289.67 0854.83
2009/04/23 12:29:34.9      24   -161    181    163    243 171.3  53.3  34160  289.58 0854.83
2009/04/23 12:29:35.0      15    -93    147     95    175 170.7  64.6  34166  289.67 0854.83
2009/04/23 12:29:35.1      13   -200    105    201    226 176.2  29.8  34164  289.65 0854.83
2009/04/23 12:29:35.2     -85   -220     46    236    241 201.2  11.1  34154  289.47 0854.83
2009/04/23 12:29:35.3     -12   -339     11    340    341 182.1   1.9  34152  289.42 0854.83
2009/04/23 12:29:35.4     -67   -328    -43    335    338 191.6  -7.3  34152  289.43 0854.83
2009/04/23 12:29:35.5     -13   -342    -61    343    349 182.2 -10.2  34152  289.45 0854.83
2009/04/23 12:29:35.6     -74   -332     43    341    344 192.6   7.2  34146  289.33 0854.83
2009/04/23 12:29:35.7    -142   -376     -1    402    403 200.7  -0.3  34150  289.39 0854.83
2009/04/23 12:29:35.8    -197   -330    -34    385    387 210.8  -5.1  34152  289.43 0854.83
2009/04/23 12:29:35.9    -114   -361     19    379    380 197.5   2.9  34148  289.38 0854.83
2009/04/23 12:29:36.0    -155   -346     31    380    382 204.2   4.7  34148  289.38 0854.83
2009/04/23 12:29:36.1     -55   -326    129    331    355 189.7  22.5  34148  289.37 0854.83
2009/04/23 12:29:36.2     -16   -414     81    415    423 182.3  11.1  34152  289.43 0854.83
2009/04/23 12:29:36.3    -156   -432   -163    460    488 199.9 -24.7  34136  289.17 0854.83
2009/04/23 12:29:36.4     -59   -414   -153    419    446 188.2 -25.3  34144  289.29 0854.83
2009/04/23 12:29:36.5      84   -506    -82    513    520 170.6  -9.1  34144  289.30 0854.83
2009/04/23 12:29:36.6     205   -390    -10    441    442 152.3  -1.4  34144  289.29 0854.83
2009/04/23 12:29:36.7     110   -455    -84    469    477 166.4 -10.2  34144  289.30 0854.83
2009/04/23 12:29:36.8     340   -332     97    476    487 134.3  11.6  34142  289.27 0854.83
2009/04/23 12:29:36.9     285   -134    174    315    359 115.2  31.4  34148  289.37 0854.83
2009/04/23 12:29:37.0     155    -69    208    170    268 114.0  56.4  34152  289.42 0854.84
2009/04/23 12:29:37.1     -52    -36    137     64    151 234.9  73.1  34154  289.48 0854.84
2009/04/23 12:29:37.2    -220    -64    119    230    258 253.6  29.3  34150  289.39 0854.84
2009/04/23 12:29:37.3    -159   -258    159    304    343 211.6  29.8  34146  289.32 0854.84
2009/04/23 12:29:37.4    -206   -219    146    301    334 223.3  27.7  34148  289.37 0854.84
2009/04/23 12:29:37.5     -61   -243     79    251    264 194.2  17.4  34148  289.37 0854.84
2009/04/23 12:29:37.6     -96   -285    110    301    320 198.7  20.8  34144  289.31 0854.84
2009/04/23 12:29:37.7     -58   -198    103    207    231 196.3  28.2  34148  289.36 0854.84
2009/04/23 12:29:37.8    -136   -127     96    187    210 226.9  29.2  34142  289.26 0854.84
2009/04/23 12:29:37.9     -76    -43    -66     88    110 240.2 -45.1  34148  289.36 0854.84
2009/04/23 12:29:38.0      44    -70    -73     83    110 147.9 -50.2  34148  289.36 0854.84
2009/04/23 12:29:38.1      60   -289    -20    296    297 168.2  -3.9  34146  289.34 0854.84
2009/04/23 12:29:38.2     -65   -337    -22    344    345 191.0  -3.7  34144  289.30 0854.84
2009/04/23 12:29:38.3     -46   -441    -81    444    452 186.0 -10.4  34150  289.41 0854.84
2009/04/23 12:29:38.4     -64   -329    -86    336    347 191.1 -14.4  34142  289.26 0854.84
2009/04/23 12:29:38.5    -277    -47   -149    281    318 260.3 -34.6  34150  289.41 0854.84
2009/04/23 12:29:38.6    -199   -172    -98    264    281 229.1 -25.4  34148  289.37 0854.84
2009/04/23 12:29:38.7    -240   -180     41    301    304 233.1   7.8  34142  289.27 0854.84
2009/04/23 12:29:38.8    -328   -187    164    378    412 240.2  25.0  34148  289.37 0854.84
2009/04/23 12:29:38.9    -314   -161     51    353    357 242.8   8.3  34156  289.50 0854.84
2009/04/23 12:29:39.0     -80   -359      7    368    369 192.7   1.2  34148  289.37 0854.85
2009/04/23 12:29:39.1    -157   -347    -20    382    383 204.4  -3.1  34148  289.38 0854.85
2009/04/23 12:29:39.2     -76   -423     43    430    433 190.3   5.8  34150  289.39 0854.85
2009/04/23 12:29:39.3     -31   -398     -8    400    401 184.5  -1.3  34144  289.30 0854.85
2009/04/23 12:29:39.4    -233   -451    -40    508    510 207.4  -4.6  34144  289.30 0854.85
2009/04/23 12:29:39.5    -153   -309    -46    346    350 206.4  -7.6  34146  289.33 0854.85
2009/04/23 12:29:39.6    -273   -573     63    635    639 205.5   5.7  34152  289.45 0854.85
2009/04/23 12:29:39.7    -231   -603     21    646    647 201.0   1.9  34144  289.31 0854.85
2009/04/23 12:29:39.8    -257   -521     14    582    583 206.3   1.4  34148  289.36 0854.85
2009/04/23 12:29:39.9    -227   -379    -67    442    448 210.9  -8.7  34144  289.29 0854.85
2009/04/23 12:29:40.0    -151   -270     17    310    311 209.2   3.2  34146  289.32 0854.85
2009/04/23 12:29:40.1    -187   -278    -56    336    341 213.9  -9.5  34146  289.32 0854.85
2009/04/23 12:29:40.2    -226    -49    -80    232    245 257.6 -24.0  34148  289.37 0854.85
2009/04/23 12:29:40.3    -131   -110    -61    172    183 229.8 -19.7  34152  289.45 0854.85
2009/04/23 12:29:40.4    -112    -74   -105    135    171 236.7 -46.6  34150  289.40 0854.85
2009/04/23 12:29:40.5       7   -140   -158    141    211 176.9 -58.1  34150  289.40 0854.85
2009/04/23 12:29:40.6      50   -184    -93    191    212 164.6 -32.2  34150  289.41 0854.85
2009/04/23 12:29:40.7      70   -247    -82    257    269 164.0 -22.9  34144  289.31 0854.85
2009/04/23 12:29:40.8      98   -235     21    255    256 157.3   4.9  34146  289.32 0854.85
2009/04/23 12:29:40.9     126   -306    -10    332    333 157.5  -1.8  34148  289.38 0854.85
2009/04/23 12:29:41.0      93   -204     77    225    238 155.5  18.9  34148  289.37 0854.86
2009/04/23 12:29:41.1      24   -252    105    254    274 174.4  23.8  34146  289.34 0854.86
2009/04/23 12:29:41.2      43   -305    139    309    338 172.0  25.9  34148  289.38 0854.86
2009/04/23 12:29:41.3      87   -399    153    409    436 167.6  21.5  34146  289.33 0854.86
2009/04/23 12:29:41.4      63   -406     89    412    422 171.1  12.3  34148  289.38 0854.86
2009/04/23 12:29:41.5      91   -531    133    539    556 170.2  13.9  34150  289.41 0854.86
2009/04/23 12:29:41.6     -37   -481    160    483    509 184.5  18.4  34148  289.37 0854.86
2009/04/23 12:29:41.7    -111   -424    -45    439    442 194.7  -5.9  34152  289.44 0854.86
2009/04/23 12:29:41.8     102   -279    108    298    316 160.0  20.8  34150  289.39 0854.86
2009/04/23 12:29:41.9      83   -324     -4    335    336 165.6  -0.7  34154  289.47 0854.86
2009/04/23 12:29:42.0      59   -279     35    286    289 168.0   7.1  34154  289.46 0854.85
2009/04/23 12:29:42.1     -28   -300     53    302    307 185.4  10.0  34152  289.44 0854.85
2009/04/23 12:29:42.2      40   -291     75    294    304 172.0  14.3  34148  289.37 0854.85
2009/04/23 12:29:42.3     -19   -386     91    387    398 182.9  13.3  34150  289.40 0854.85
2009/04/23 12:29:42.4     -77   -404     33    412    414 190.8   4.7  34148  289.36 0854.85
2009/04/23 12:29:42.5    -117   -403     61    420    425 196.3   8.3  34142  289.26 0854.85
2009/04/23 12:29:42.6    -162   -263     48    310    314 211.6   8.9  34150  289.39 0854.85
2009/04/23 12:29:42.7     -91    -91    -79    130    152 225.0 -38.8  34150  289.40 0854.85
2009/04/23 12:29:42.8      47   -151   -173    159    234 162.6 -57.1  34152  289.43 0854.85
2009/04/23 12:29:42.9     -57   -211    -65    219    228 195.2 -21.7  34156  289.52 0854.85
2009/04/23 12:29:43.0      48   -355    -83    359    369 172.3 -13.1  34152  289.45 0854.85
2009/04/23 12:29:43.1     129   -296    -12    324    325 156.4  -2.2  34148  289.36 0854.85
2009/04/23 12:29:43.2      72   -267    -71    277    287 164.8 -14.4  34150  289.41 0854.85
2009/04/23 12:29:43.3       0   -291    -75    292    302 180.0 -14.4  34150  289.39 0854.85
2009/04/23 12:29:43.4      21   -215    -63    217    225 174.2 -21.0  34152  289.43 0854.85
2009/04/23 12:29:43.5     132   -248    -20    282    283 151.9  -4.1  34154  289.47 0854.85
2009/04/23 12:29:43.6      92   -164    -66    189    201 150.6 -19.4  34152  289.45 0854.85
2009/04/23 12:29:43.7      93   -128    -51    159    166 144.0 -23.3  34150  289.40 0854.85
2009/04/23 12:29:43.8      -2   -197     15    198    199 180.7   4.6  34150  289.40 0854.85
2009/04/23 12:29:43.9       3   -306     14    307    308 179.3   2.8  34152  289.44 0854.85
2009/04/23 12:29:44.0     -57   -318     50    324    328 190.3   8.8  34152  289.44 0854.83
2009/04/23 12:29:44.1     -49   -181     94    188    210 195.4  28.5  34154  289.46 0854.83
2009/04/23 12:29:44.2     -96   -133    115    165    201 215.8  38.4  34152  289.45 0854.83
2009/04/23 12:29:44.3     -24   -134    -18    137    139 190.2  -7.7  34152  289.45 0854.83
2009/04/23 12:29:44.4     -43   -177      7    183    184 193.8   2.3  34154  289.48 0854.83
2009/04/23 12:29:44.5     -78   -292    -84    303    315 195.1 -15.5  34152  289.44 0854.83
2009/04/23 12:29:44.6     -22   -356   -219    357    418 183.6 -38.9  34152  289.45 0854.83
2009/04/23 12:29:44.7     -70   -350    -96    357    370 191.4 -15.2  34152  289.45 0854.83
2009/04/23 12:29:44.8       2   -391    -89    392    403 179.7 -12.9  34152  289.42 0854.83
2009/04/23 12:29:44.9    -225   -506    -58    554    558 204.0  -6.0  34142  289.28 0854.83
2009/04/23 12:29:45.0    -172   -367    -79    406    414 205.2 -11.1  34154  289.48 0854.83
2009/04/23 12:29:45.1    -235   -241    -13    337    338 224.2  -2.3  34152  289.45 0854.83
2009/04/23 12:29:45.2     -44   -287    -16    291    292 188.9  -3.2  34150  289.41 0854.83
2009/04/23 12:29:45.3     -35   -178    -89    182    202 191.3 -32.2  34150  289.40 0854.83
2009/04/23 12:29:45.4       3      2    -74      4     74  57.6 -90.0  34150  289.40 0854.83
2009/04/23 12:29:45.5     -58     67    -35     89     95 319.0 -26.9  34156  289.52 0854.83
2009/04/23 12:29:45.6      18      3    -55     19     58  78.5 -85.6  34158  289.55 0854.83
2009/04/23 12:29:45.7     -34     49    -72     60     93 324.8 -60.2  34160  289.57 0854.83
2009/04/23 12:29:45.8      50    -41   -112     66    130 129.5 -71.2  34158  289.53 0854.83
2009/04/23 12:29:45.9      45   -243    -72    248    258 169.5 -21.0  34156  289.51 0854.83
2009/04/23 12:29:46.0       5   -288    -77    289    300 179.0 -15.0  34156  289.49 0854.84
2009/04/23 12:29:46.1      41   -333   -106    336    353 172.9 -17.5  34152  289.45 0854.84
2009/04/23 12:29:46.2       5   -327   -124    328    350 179.1 -26.0  34146  289.32 0854.84
2009/04/23 12:29:46.3      64   -291   -107    299    317 167.5 -25.0  34148  289.36 0854.84
2009/04/23 12:29:46.4     -52   -234   -123    240    269 192.7 -33.6  34148  289.36 0854.84
2009/04/23 12:29:46.5       1   -336   -166    337    375 179.7 -32.5  34146  289.35 0854.84
2009/04/23 12:29:46.6      78   -352   -117    361    379 167.5 -23.3  34144  289.30 0854.84
2009/04/23 12:29:46.7    -110   -323   -141    342    369 198.8 -28.1  34132  289.10 0854.84
2009/04/23 12:29:46.8    -111    -72   -173    133    218 237.1 -62.9  34140  289.24 0854.84
2009/04/23 12:29:46.9      12     51   -157     53    165  13.4 -85.6  34142  289.28 0854.84
2009/04/23 12:29:47.0     -23     78   -206     82    221 343.5 -81.5  34146  289.33 0854.84
2009/04/23 12:29:47.1     147   -117   -131    189    229 128.6 -42.4  34144  289.31 0854.84
2009/04/23 12:29:47.2     199   -252   -189    322    373 141.7 -37.4  34136  289.15 0854.84
2009/04/23 12:29:47.3     271   -306   -148    410    435 138.5 -25.2  34136  289.17 0854.84
2009/04/23 12:29:47.4     291   -207     28    358    360 125.4   4.6  34136  289.18 0854.84
2009/04/23 12:29:47.5     225   -155    -93    274    289 124.6 -23.3  34140  289.24 0854.84
2009/04/23 12:29:47.6     128   -195   -155    234    280 146.8 -40.9  34138  289.20 0854.84
2009/04/23 12:29:47.7      88   -243    -24    259    261 159.9  -5.4  34134  289.12 0854.84
2009/04/23 12:29:47.8      64   -203    -27    213    215 162.4  -7.3  34138  289.19 0854.84
2009/04/23 12:29:47.9      84   -132    -53    157    165 147.4 -23.3  34140  289.23 0854.84
2009/04/23 12:29:48.0      46    -73      1     87     88 147.4   1.2  34142  289.28 0854.85
2009/04/23 12:29:48.1      62     -3     31     63     70  93.5  27.3  34140  289.23 0854.85
2009/04/23 12:29:48.2      64      9      9     65     66  81.2   8.0  34142  289.26 0854.85
2009/04/23 12:29:48.3     148    -89    -14    174    175 121.1  -4.9  34140  289.23 0854.85
2009/04/23 12:29:48.4     162   -152     43    223    228 133.3  11.1  34138  289.19 0854.85
2009/04/23 12:29:48.5       0   -139    142    140    199 180.4  50.1  34140  289.24 0854.85
2009/04/23 12:29:48.6      34   -136    111    141    179 165.7  42.4  34142  289.26 0854.85
2009/04/23 12:29:48.7     154    -82     90    175    196 118.2  29.3  34138  289.19 0854.85
2009/04/23 12:29:48.8     165   -227    134    281    311 144.0  27.2  34140  289.24 0854.85
2009/04/23 12:29:48.9     167   -370    143    407    432 155.7  19.4  34138  289.19 0854.85
2009/04/23 12:29:49.0     158   -350    120    385    404 155.7  17.3  34138  289.21 0854.85
2009/04/23 12:29:49.1     172   -253    227    306    381 145.8  40.0  34138  289.21 0854.85
2009/04/23 12:29:49.2      23   -322    266    323    418 175.8  43.7  34142  289.25 0854.85
2009/04/23 12:29:49.3      35   -482    180    484    516 175.8  21.3  34140  289.23 0854.85
2009/04/23 12:29:49.4      36   -505    177    507    538 175.9  19.3  34142  289.28 0854.85
2009/04/23 12:29:49.5      49   -363    206    367    420 172.3  31.6  34136  289.17 0854.85
2009/04/23 12:29:49.6     -66   -470    138    475    495 188.0  16.3  34140  289.22 0854.85
2009/04/23 12:29:49.7      41   -517    252    519    576 175.4  27.7  34140  289.24 0854.85
2009/04/23 12:29:49.8      74   -531    229    537    583 172.0  24.5  34138  289.21 0854.85
2009/04/23 12:29:49.9      51   -423    168    427    458 173.0  22.7  34132  289.09 0854.85
2009/04/23 12:29:50.0      95   -398    166    410    442 166.5  23.2  34140  289.24 0854.85
2009/04/23 12:29:50.1     162   -347    178    384    423 155.0  26.9  34140  289.22 0854.85
2009/04/23 12:29:50.2     158   -313    229    351    419 153.2  36.2  34142  289.25 0854.85
2009/04/23 12:29:50.3     105   -265    202    286    350 158.4  38.7  34142  289.26 0854.85
2009/04/23 12:29:50.4      87   -288    206    302    365 163.1  37.6  34138  289.21 0854.85
2009/04/23 12:29:50.5      52   -280    264    285    388 169.4  47.9  34140  289.23 0854.85
2009/04/23 12:29:50.6      23   -112    213    115    242 168.0  69.3  34130  289.06 0854.85
2009/04/23 12:29:50.7      69    -11    230     71    240  99.7  82.3  34144  289.30 0854.85
2009/04/23 12:29:50.8     201    -57    250    210    326 105.9  55.8  34146  289.34 0854.85
2009/04/23 12:29:50.9     155    -66    202    169    263 113.3  56.3  34144  289.29 0854.85
2009/04/23 12:29:51.1      66   -182    199    194    277 160.0  50.7  34146  289.32 0854.85
2009/04/23 12:29:51.1       0   -145    180    146    231 180.0  56.4  34146  289.33 0854.85
2009/04/23 12:29:51.2     -28   -271    203    273    340 186.0  40.2  34146  289.32 0854.85
2009/04/23 12:29:51.3     -91   -239    167    256    305 200.9  36.0  34142  289.25 0854.85
2009/04/23 12:29:51.4      -3   -231    213    232    314 180.9  47.3  34146  289.34 0854.85
2009/04/23 12:29:51.5     -18   -238    200    239    311 184.4  43.8  34144  289.31 0854.85
2009/04/23 12:29:51.6      12   -158    123    159    201 175.5  41.7  34144  289.31 0854.85
2009/04/23 12:29:51.7      61    -68    117     92    148 137.7  57.9  34150  289.41 0854.85
2009/04/23 12:29:51.8      54    -51    145     75    163 133.1  70.4  34150  289.40 0854.85
2009/04/23 12:29:51.9      55    -53     59     77     97 134.1  41.7  34144  289.31 0854.85
2009/04/23 12:29:52.0      20    -32    112     39    118 147.5  80.2  34150  289.41 0854.84
2009/04/23 12:29:52.1     -45    -18    106     49    116 248.3  73.1  34146  289.35 0854.84
2009/04/23 12:29:52.2     -23     21     51     32     60 313.1  64.7  34150  289.40 0854.84
2009/04/23 12:29:52.3    -168      5     44    169    175 271.7  14.7  34144  289.30 0854.84
2009/04/23 12:29:52.4    -435     63    -98    440    451 278.3 -12.6  34152  289.44 0854.84
2009/04/23 12:29:52.5    -439     49   -149    442    466 276.5 -23.3  34160  289.56 0854.84
2009/04/23 12:29:52.6    -157     67   -108    171    202 293.1 -39.9  34154  289.48 0854.84
2009/04/23 12:29:52.7     -69    -61    -85     93    125 228.2 -52.3  34152  289.43 0854.84
2009/04/23 12:29:52.8     -36   -194    -57    198    206 190.7 -20.7  34146  289.33 0854.84
2009/04/23 12:29:52.9     -25   -191    -44    193    199 187.6 -12.9  34142  289.26 0854.84
2009/04/23 12:29:53.0    -124   -373   -110    394    410 198.4 -15.7  34152  289.43 0854.84
2009/04/23 12:29:53.1    -167   -359    -62    397    402 205.0  -9.0  34144  289.30 0854.84
2009/04/23 12:29:53.2    -252    -73   -132    263    294 253.8 -32.9  34152  289.44 0854.84
2009/04/23 12:29:53.3     -41   -261   -164    265    311 189.1 -39.6  34148  289.37 0854.84
2009/04/23 12:29:53.4     -52   -176   -128    184    224 196.5 -42.4  34148  289.38 0854.84
2009/04/23 12:29:53.5     -10   -156    -47    157    163 184.0 -21.7  34150  289.41 0854.84
2009/04/23 12:29:53.6     110    -91    -83    143    165 129.6 -37.3  34150  289.41 0854.84
2009/04/23 12:29:53.7     112    -18   -106    114    155  99.2 -52.3  34150  289.41 0854.84
2009/04/23 12:29:53.8     146    -63    -92    160    184 113.5 -37.1  34150  289.41 0854.84
2009/04/23 12:29:53.9     147   -104    -74    181    195 125.3 -27.8  34142  289.26 0854.84
2009/04/23 12:29:54.0     191    -74   -178    206    272 111.3 -49.8  34148  289.36 0854.82
2009/04/23 12:29:54.1      99    -19   -206    101    229 101.4 -76.8  34132  289.11 0854.82
2009/04/23 12:29:54.2     109    116   -196    160    253  43.2 -60.8  34150  289.40 0854.82
2009/04/23 12:29:54.3     147     89   -138    173    221  58.7 -47.1  34150  289.40 0854.82
2009/04/23 12:29:54.4     171     35   -206    175    270  78.3 -60.0  34146  289.32 0854.82
2009/04/23 12:29:54.5     168     81   -206    187    278  64.0 -57.6  34150  289.39 0854.82
2009/04/23 12:29:54.6     165    184   -214    248    327  41.9 -49.6  34146  289.34 0854.82
2009/04/23 12:29:54.7      58     56   -247     81    259  45.9 -85.4  34150  289.41 0854.82
2009/04/23 12:29:54.8    -131    -11   -317    132    343 264.8 -80.7  34148  289.37 0854.82
2009/04/23 12:29:54.9    -110    -24   -224    113    250 257.2 -76.1  34150  289.40 0854.82
2009/04/23 12:29:55.0    -147     -2   -201    148    249 269.1 -64.4  34148  289.38 0854.82
2009/04/23 12:29:55.1    -203    -85   -128    221    255 247.2 -36.8  34148  289.36 0854.82
2009/04/23 12:29:55.2    -188     26   -274    190    333 278.0 -66.2  34152  289.42 0854.82
2009/04/23 12:29:55.3    -236    -25   -261    238    353 263.9 -57.4  34154  289.47 0854.82
2009/04/23 12:29:55.4    -163     54   -255    172    307 288.4 -67.2  34148  289.36 0854.82
2009/04/23 12:29:55.6    -373    138   -375    398    546 290.4 -52.4  34152  289.42 0854.82
2009/04/23 12:29:55.7    -268     26   -136    270    302 275.7 -33.1  34150  289.39 0854.82
2009/04/23 12:29:55.8    -139      9    -44    140    147 273.9 -17.5  34144  289.30 0854.82
2009/04/23 12:29:55.9     -70    -23     68     74    100 251.4  47.9  34150  289.40 0854.82
2009/04/23 12:29:56.0     -55     39     61     68     91 305.9  46.4  34148  289.38 0854.82
2009/04/23 12:29:56.1      99     47      8    110    111  64.6   4.4  34148  289.38 0854.80
2009/04/23 12:29:56.2     191    -39      9    196    197 101.7   2.9  34146  289.35 0854.80
2009/04/23 12:29:56.3      81    -97    -68    127    144 139.9 -35.2  34150  289.41 0854.80
2009/04/23 12:29:56.4      89    -23   -110     92    143 104.6 -60.2  34154  289.46 0854.80
2009/04/23 12:29:56.5     138    -80    -93    160    185 120.2 -37.3  34152  289.43 0854.80
2009/04/23 12:29:56.6     191    -43   -108    196    223 102.8 -35.8  34150  289.41 0854.80
2009/04/23 12:29:56.7     231    -98    -82    252    266 113.1 -18.1  34150  289.39 0854.80
2009/04/23 12:29:56.8     238   -223     13    327    328 133.1   2.4  34150  289.39 0854.80
2009/04/23 12:29:56.9     167   -309     26    352    353 151.6   4.2  34150  289.40 0854.80
2009/04/23 12:29:57.0     140   -213     45    256    261 146.6  10.1  34150  289.41 0854.80
2009/04/23 12:29:57.1      44   -281     45    285    289 171.1   9.0  34138  289.20 0854.80
2009/04/23 12:29:57.2     147   -382   -151    410    436 159.0 -25.4  34140  289.22 0854.80
2009/04/23 12:29:57.3     156   -282   -173    323    366 151.1 -35.0  34144  289.30 0854.80
2009/04/23 12:29:57.4      -4   -443   -113    444    459 180.6 -14.3  34140  289.24 0854.80
2009/04/23 12:29:57.5    -273   -266   -121    382    401 225.7 -17.6  34146  289.35 0854.80
2009/04/23 12:29:57.6    -116   -291     11    314    315 201.8   2.1  34146  289.32 0854.80
2009/04/23 12:29:57.7       4   -279    130    280    308 179.1  27.1  34144  289.29 0854.80
2009/04/23 12:29:57.8      81   -479     77    486    493 170.3   9.0  34146  289.35 0854.80
2009/04/23 12:29:57.9     -53   -514    104    517    528 185.9  11.4  34146  289.33 0854.80
2009/04/23 12:29:58.0     -68   -484    204    489    529 188.0  24.1  34150  289.39 0854.80
2009/04/23 12:29:58.1      56   -609    120    612    624 174.7  11.1  34142  289.28 0854.77
2009/04/23 12:29:58.2       0   -537    152    538    560 180.0  15.8  34146  289.33 0854.77
2009/04/23 12:29:58.3    -228   -454     69    509    514 206.7   7.8  34142  289.28 0854.77
2009/04/23 12:29:58.4    -178   -465     74    498    504 201.0   8.5  34142  289.27 0854.77
2009/04/23 12:29:58.5     -52   -514    183    517    549 185.8  19.5  34144  289.31 0854.77
2009/04/23 12:29:58.6    -148   -437     89    462    471 198.7  11.0  34142  289.27 0854.77
2009/04/23 12:29:58.7     -20   -453    215    454    502 182.6  27.1  34142  289.28 0854.77
2009/04/23 12:29:58.8    -112   -471    173    485    514 193.4  20.4  34140  289.23 0854.77
2009/04/23 12:29:58.9    -145   -389    146    416    440 200.4  20.0  34144  289.29 0854.77
2009/04/23 12:29:59.0    -190   -443     98    483    494 203.2  11.6  34142  289.28 0854.77
2009/04/23 12:29:59.1     -98   -572    179    581    609 189.8  17.2  34142  289.25 0854.77
2009/04/23 12:29:59.2    -257   -586    210    641    675 203.7  18.2  34130  289.07 0854.77
2009/04/23 12:29:59.3    -371   -428     53    567    570 220.9   5.4  34148  289.36 0854.77
2009/04/23 12:29:59.4    -208   -519    104    560    570 201.8  10.6  34136  289.16 0854.77
2009/04/23 12:29:59.5    -341   -486   -200    594    626 215.1 -23.7  34132  289.11 0854.77
2009/04/23 12:29:59.6    -351   -544   -159    648    668 212.9 -13.8  34132  289.09 0854.77
2009/04/23 12:29:59.7    -407   -455     84    611    617 221.8   7.9  34146  289.35 0854.77
2009/04/23 12:29:59.8    -403   -456    111    609    620 221.5  10.3  34144  289.31 0854.77
2009/04/23 12:29:59.9    -214   -493     67    538    543 203.5   7.1  34136  289.18 0854.77
2009/04/23 12:30:00.0    -236   -478    -35    534    536 206.3  -3.8  34134  289.14 0854.77
2009/04/23 12:30:00.1    -324   -477    -94    577    585 214.2  -9.3  34138  289.19 0854.77
2009/04/23 12:30:00.2    -231   -376   -155    442    468 211.6 -24.4  34144  289.31 0854.77
2009/04/23 12:30:00.3    -301   -401   -192    502    537 216.9 -26.4  34132  289.11 0854.77
2009/04/23 12:30:00.4    -402   -301   -219    503    548 233.1 -29.5  34132  289.09 0854.77
2009/04/23 12:30:00.5    -220   -234   -107    322    339 223.2 -23.7  34136  289.15 0854.77
2009/04/23 12:30:00.6     -95   -330    -43    344    347 196.0  -7.2  34132  289.11 0854.77
2009/04/23 12:30:00.7    -118   -165    -31    203    206 215.6  -8.8  34130  289.06 0854.77
2009/04/23 12:30:00.8    -156   -310    -37    348    350 206.8  -6.1  34136  289.16 0854.77
2009/04/23 12:30:00.9    -212   -412    -18    464    465 207.2  -2.3  34140  289.22 0854.77
2009/04/23 12:30:01.0    -203   -495    -44    536    538 202.3  -4.7  34140  289.24 0854.77
2009/04/23 12:30:01.1    -209   -438    -79    486    493 205.5  -9.3  34136  289.18 0854.77
2009/04/23 12:30:01.2    -212   -445    -37    493    495 205.5  -4.4  34140  289.23 0854.77
2009/04/23 12:30:01.3    -242   -462     49    522    525 207.6   5.4  34136  289.18 0854.77
2009/04/23 12:30:01.4    -273   -393     62    479    484 214.8   7.5  34130  289.06 0854.77
2009/04/23 12:30:01.5    -207   -435    143    482    503 205.5  16.6  34138  289.20 0854.77
2009/04/23 12:30:01.6    -278   -307     90    415    425 222.1  12.3  34136  289.16 0854.77
2009/04/23 12:30:01.7    -233   -365     75    434    441 212.6   9.9  34136  289.16 0854.77
2009/04/23 12:30:01.8    -125   -496     46    512    515 194.2   5.2  34136  289.17 0854.77
2009/04/23 12:30:01.9     -91   -397     53    408    412 192.9   7.4  34134  289.14 0854.77
2009/04/23 12:30:02.0     -82   -405     47    414    417 191.5   6.6  34136  289.17 0854.77
2009/04/23 12:30:02.1     -75   -416     90    423    433 190.3  12.1  34134  289.14 0854.72
2009/04/23 12:30:02.2      59   -413    159    418    447 171.8  21.8  34136  289.16 0854.72
2009/04/23 12:30:02.3    -129   -547    232    562    608 193.3  23.7  34136  289.17 0854.72
2009/04/23 12:30:02.4      10   -606    123    607    620 179.0  11.5  34138  289.20 0854.72
2009/04/23 12:30:02.5     114   -588     52    599    602 169.0   5.0  34136  289.17 0854.72
2009/04/23 12:30:02.6     172   -522     16    550    551 161.7   1.7  34136  289.18 0854.72
2009/04/23 12:30:02.7     210   -495    -82    538    545 156.9  -8.7  34140  289.24 0854.72
2009/04/23 12:30:02.8     208   -476     32    520    522 156.4   3.6  34130  289.07 0854.72
2009/04/23 12:30:02.9     240   -321     30    402    404 143.2   4.4  34142  289.26 0854.72
2009/04/23 12:30:03.0     258   -262      5    369    370 135.5   0.9  34142  289.25 0854.72
2009/04/23 12:30:03.1     266   -254     41    369    372 133.7   6.5  34140  289.23 0854.69
2009/04/23 12:30:03.2     224   -280    111    359    376 141.4  17.3  34138  289.20 0854.69
2009/04/23 12:30:03.3     165   -226    124    280    306 143.9  25.3  34138  289.19 0854.69
2009/04/23 12:30:03.4     202   -297    163    360    395 145.7  26.0  34142  289.26 0854.69
2009/04/23 12:30:03.5     127   -317    172    342    382 158.2  28.7  34142  289.25 0854.69
2009/04/23 12:30:03.6      75   -267    239    278    366 164.2  45.1  34140  289.23 0854.69
2009/04/23 12:30:03.7      15   -263    187    264    323 176.6  38.8  34140  289.22 0854.69
2009/04/23 12:30:03.8      78   -242    204    255    326 162.1  42.7  34142  289.27 0854.69
2009/04/23 12:30:03.9      35   -294    178    297    346 173.1  33.8  34142  289.26 0854.69
2009/04/23 12:30:04.0      -1   -288    173    289    336 180.2  33.7  34138  289.19 0854.69
2009/04/23 12:30:04.1      -9   -187    231    188    297 182.9  56.6  34140  289.22 0854.69
2009/04/23 12:30:04.2     -32   -210    214    213    301 188.7  50.1  34140  289.24 0854.69
2009/04/23 12:30:04.3     -17   -177    212    178    276 185.8  55.6  34144  289.31 0854.69
2009/04/23 12:30:04.4     -87   -208    208    226    307 202.7  47.9  34140  289.22 0854.69
2009/04/23 12:30:04.5     -27   -158    173    161    236 189.7  52.2  34138  289.19 0854.69
2009/04/23 12:30:04.6     -26   -229    129    231    264 186.7  31.4  34140  289.22 0854.69
2009/04/23 12:30:04.7     -27   -210    102    212    235 187.6  27.4  34140  289.23 0854.69
2009/04/23 12:30:04.8     -56   -179     83    188    205 197.4  25.3  34142  289.26 0854.69
2009/04/23 12:30:04.9     -83   -229     73    244    255 200.0  16.8  34140  289.22 0854.69
2009/04/23 12:30:05.0    -139   -218    -28    259    261 212.5  -6.2  34140  289.24 0854.69
2009/04/23 12:30:05.1      -5    -70     73     71    101 184.5  50.7  34138  289.21 0854.71
2009/04/23 12:30:05.2     131    -78     94    153    179 120.7  34.4  34142  289.26 0854.71
2009/04/23 12:30:05.3     141   -143     77    202    216 135.5  22.0  34140  289.24 0854.71
2009/04/23 12:30:05.4      48   -180    102    187    213 164.8  31.3  34138  289.21 0854.71
2009/04/23 12:30:05.5     -22   -137     93    139    167 189.3  37.0  34138  289.19 0854.71
2009/04/23 12:30:05.6    -255     19     91    256    271 274.3  20.0  34142  289.27 0854.71
2009/04/23 12:30:05.7    -369    -88     63    380    386 256.5   9.5  34148  289.38 0854.71
2009/04/23 12:30:05.8    -401     -2   -121    402    420 269.7 -16.8  34148  289.36 0854.71
2009/04/23 12:30:05.9    -476     14    -85    477    485 271.7 -10.1  34144  289.30 0854.71
2009/04/23 12:30:06.0    -377   -152     12    407    408 248.0   1.8  34142  289.27 0854.71
2009/04/23 12:30:06.1    -349    -25    -91    350    362 265.9 -14.7  34152  289.42 0854.71
2009/04/23 12:30:06.2    -423    -46     48    426    429 263.7   6.5  34142  289.26 0854.71
2009/04/23 12:30:06.3    -344    -85    102    355    370 256.1  16.0  34146  289.33 0854.71
2009/04/23 12:30:06.4    -283   -102    -19    302    303 250.1  -3.7  34152  289.42 0854.71
2009/04/23 12:30:06.5    -347    -59   -112    353    370 260.2 -22.6  34134  289.13 0854.71
2009/04/23 12:30:06.6    -409     54   -131    413    433 277.6 -22.8  34148  289.36 0854.71
2009/04/23 12:30:06.7    -423      1   -240    424    487 270.3 -36.4  34140  289.23 0854.71
2009/04/23 12:30:06.8    -409    -31   -228    411    470 265.7 -35.8  34144  289.29 0854.71
2009/04/23 12:30:06.9    -328     29   -157    330    365 275.2 -31.6  34148  289.38 0854.71
2009/04/23 12:30:07.0    -266    -24   -173    268    318 264.7 -40.3  34150  289.41 0854.71
2009/04/23 12:30:07.1    -333   -188   -135    383    406 240.5 -24.5  34150  289.40 0854.70
2009/04/23 12:30:07.2     -99   -188   -222    213    307 207.9 -55.6  34142  289.27 0854.70
2009/04/23 12:30:07.3    -135   -185   -189    230    297 216.1 -48.1  34144  289.31 0854.70
2009/04/23 12:30:07.4     -36   -275   -137    278    309 187.6 -32.4  34140  289.24 0854.70
2009/04/23 12:30:07.5     -58   -280   -132    287    315 191.8 -30.7  34144  289.29 0854.70
2009/04/23 12:30:07.6    -113   -150    -97    188    211 217.0 -33.7  34146  289.33 0854.70
2009/04/23 12:30:07.7    -155     -2    -74    156    172 269.2 -31.6  34148  289.38 0854.70
2009/04/23 12:30:07.8    -108     52   -113    121    165 295.8 -52.6  34148  289.36 0854.70
2009/04/23 12:30:07.9    -162     59    -49    173    181 290.2 -16.0  34146  289.35 0854.70
2009/04/23 12:30:08.0    -152     63    -94    165    189 292.6 -36.5  34150  289.40 0854.70
2009/04/23 12:30:08.1     -81     -4     -3     82     83 267.0  -2.6  34150  289.40 0854.70
2009/04/23 12:30:08.2    -112    -76      9    136    137 235.8   3.8  34150  289.41 0854.70
2009/04/23 12:30:08.3    -125    -64    -28    141    144 242.9 -11.5  34150  289.40 0854.70
2009/04/23 12:30:08.4    -116    -81    -45    142    148 234.9 -22.8  34146  289.35 0854.70
2009/04/23 12:30:08.5    -102     14   -111    104    152 278.0 -56.5  34146  289.35 0854.70
2009/04/23 12:30:08.6     -77      0    -55     78     95 270.0 -42.4  34148  289.38 0854.70
2009/04/23 12:30:08.7       7    -35    -48     36     60 168.4 -63.8  34148  289.38 0854.70
2009/04/23 12:30:08.8      93    -61      5    112    113 123.3   2.9  34142  289.26 0854.70
2009/04/23 12:30:08.9      64    -56     49     86     98 131.3  31.9  34146  289.35 0854.70
2009/04/23 12:30:09.0      11   -154     85    155    176 175.6  31.3  34142  289.28 0854.70
2009/04/23 12:30:09.1      11   -168     59    169    180 176.0  19.4  34136  289.18 0854.69
2009/04/23 12:30:09.2      53   -224    131    231    265 166.6  32.1  34144  289.29 0854.69
2009/04/23 12:30:09.3     -22   -272     97    273    289 184.7  20.2  34144  289.29 0854.69
2009/04/23 12:30:09.4     -65   -279     35    287    290 193.3   7.1  34144  289.29 0854.69
2009/04/23 12:30:09.5     -90   -268     -6    283    284 198.7  -1.3  34142  289.27 0854.69
2009/04/23 12:30:09.6    -152   -268     62    309    316 209.6  11.3  34144  289.31 0854.69
2009/04/23 12:30:09.7    -184   -222     45    289    293 219.6   9.0  34144  289.31 0854.69
2009/04/23 12:30:09.8    -205   -206     18    291    292 224.9   3.6  34146  289.32 0854.69
2009/04/23 12:30:09.9    -172   -189     30    256    258 222.4   6.9  34144  289.29 0854.69
2009/04/23 12:30:10.0    -150   -229    108    274    294 213.2  23.0  34142  289.25 0854.69
2009/04/23 12:30:10.1    -104   -238     65    260    269 203.6  14.2  34146  289.32 0854.69
2009/04/23 12:30:10.2     -98   -200    116    223    251 206.1  29.3  34144  289.31 0854.69
2009/04/23 12:30:10.3     -69   -192     72    205    218 200.0  19.4  34142  289.28 0854.69
2009/04/23 12:30:10.4     -52   -191     71    199    211 195.4  20.2  34142  289.28 0854.69
2009/04/23 12:30:10.5     -83   -230     47    245    250 200.0  11.0  34140  289.24 0854.69
2009/04/23 12:30:10.6     -79   -152    104    172    200 207.6  34.0  34144  289.30 0854.69
2009/04/23 12:30:10.7     -44   -177     94    183    205 194.0  29.2  34144  289.30 0854.69
2009/04/23 12:30:10.8    -101   -172    120    200    233 210.5  34.0  34144  289.30 0854.69
2009/04/23 12:30:10.9     -90   -209    138    228    266 203.4  34.4  34144  289.31 0854.69
2009/04/23 12:30:11.0     -61    -84    154    104    185 216.1  62.8  34146  289.35 0854.69
2009/04/23 12:30:11.1     -27    -92    164     96    190 196.5  67.0  34152  289.43 0854.69
2009/04/23 12:30:11.2     -30   -347    126    349    371 185.0  20.7  34142  289.28 0854.69
2009/04/23 12:30:11.3     -48   -372    150    376    404 187.4  23.0  34142  289.28 0854.69
2009/04/23 12:30:11.4       7   -312    113    313    332 178.6  20.7  34142  289.27 0854.69
2009/04/23 12:30:11.5      55   -337    169    342    381 170.7  28.1  34144  289.30 0854.69
2009/04/23 12:30:11.6     117   -289    147    312    344 157.9  27.1  34142  289.26 0854.69
2009/04/23 12:30:11.7      86   -289    143    302    334 163.3  27.1  34144  289.29 0854.69
2009/04/23 12:30:11.8      41   -369    190    372    417 173.5  29.2  34144  289.29 0854.69
2009/04/23 12:30:11.9      81   -426    223    434    487 169.2  29.3  34146  289.32 0854.69
2009/04/23 12:30:12.0      33   -442    193    444    484 175.6  25.1  34146  289.35 0854.69
2009/04/23 12:30:12.1      43   -346    183    349    394 172.8  30.1  34146  289.35 0854.69
2009/04/23 12:30:12.2      17   -397    185    398    438 177.5  26.6  34146  289.34 0854.69
2009/04/23 12:30:12.3      35   -368    219    370    429 174.4  33.4  34146  289.33 0854.69
2009/04/23 12:30:12.4      -5   -392    226    393    453 180.8  32.4  34148  289.38 0854.69
2009/04/23 12:30:12.5     -54   -451    164    455    483 186.9  20.6  34150  289.39 0854.69
2009/04/23 12:30:12.6     -49   -398     79    402    410 187.1  11.1  34146  289.33 0854.69
2009/04/23 12:30:12.7    -110   -264     40    287    290 202.7   8.0  34146  289.32 0854.69
2009/04/23 12:30:12.8    -123   -290    100    315    331 203.0  17.7  34140  289.22 0854.69
2009/04/23 12:30:12.9     -76   -379     39    387    390 191.4   5.8  34142  289.26 0854.69
2009/04/23 12:30:13.0     -25   -391    -64    392    398 183.8  -9.4  34136  289.16 0854.69
2009/04/23 12:30:13.1     -92   -338   -101    351    365 195.3 -21.0  34144  289.30 0854.70
2009/04/23 12:30:13.2    -128   -416    -51    436    439 197.2  -6.7  34144  289.29 0854.70
2009/04/23 12:30:13.3     -35   -413     81    415    424 184.9  11.1  34144  289.31 0854.70
2009/04/23 12:30:13.4    -106   -455     93    468    478 193.2  11.3  34144  289.30 0854.70
2009/04/23 12:30:13.5      79   -438     62    446    451 169.7   8.0  34142  289.26 0854.70
2009/04/23 12:30:13.6      -1   -373     35    374    376 180.3   5.4  34142  289.25 0854.70
2009/04/23 12:30:13.7     -86   -425    -30    434    436 191.6  -4.0  34144  289.29 0854.70
2009/04/23 12:30:13.8    -309   -436   -148    535    556 215.4 -15.5  34140  289.23 0854.70
2009/04/23 12:30:13.9    -480   -414   -216    635    671 229.2 -18.8  34140  289.22 0854.70
2009/04/23 12:30:14.0    -418   -562      2    701    702 216.6   0.2  34146  289.32 0854.70
2009/04/23 12:30:14.1    -502   -529   -123    730    741 223.5  -9.6  34138  289.19 0854.70
2009/04/23 12:30:14.2    -475   -501   -181    691    715 223.5 -14.7  34136  289.15 0854.70
2009/04/23 12:30:14.3    -507   -521   -235    727    765 224.2 -17.9  34136  289.16 0854.70
2009/04/23 12:30:14.4    -332   -455   -147    564    583 216.1 -14.7  34134  289.14 0854.70
2009/04/23 12:30:14.5    -461   -464   -154    655    673 224.8 -13.3  34132  289.09 0854.70
2009/04/23 12:30:14.6    -361   -444   -182    573    601 219.1 -22.8  34130  289.08 0854.70
2009/04/23 12:30:14.7    -327   -530   -210    623    657 211.7 -23.6  34142  289.25 0854.70
2009/04/23 12:30:14.8    -336   -605   -234    693    732 209.0 -18.7  34132  289.11 0854.70
2009/04/23 12:30:14.9    -341   -486   -197    594    625 215.1 -23.5  34130  289.08 0854.70
2009/04/23 12:30:15.0    -205   -501   -185    542    572 202.3 -23.9  34138  289.21 0854.70
2009/04/23 12:30:15.1    -336   -506   -239    608    653 213.6 -27.1  34132  289.09 0854.75
2009/04/23 12:30:15.2    -343   -488   -188    597    626 215.1 -17.5  34138  289.20 0854.75
2009/04/23 12:30:15.3    -204   -498   -199    539    574 202.3 -25.5  34134  289.13 0854.75
2009/04/23 12:30:15.4    -410   -639   -232    760    794 212.7 -21.9  34126  288.98 0854.75
2009/04/23 12:30:15.5    -454   -517   -182    689    713 221.3 -14.8  34132  289.10 0854.75
2009/04/23 12:30:15.6    -584   -450   -234    738    775 232.4 -17.6  34134  289.12 0854.75
2009/04/23 12:30:15.7    -521   -352   -205    629    661 235.9 -23.3  34136  289.15 0854.75
2009/04/23 12:30:15.8    -457   -346   -183    574    603 232.9 -17.7  34138  289.19 0854.75
2009/04/23 12:30:15.9    -470   -303   -162    560    584 237.2 -16.2  34134  289.14 0854.75
2009/04/23 12:30:16.0    -466   -285   -159    547    569 238.5 -21.0  34134  289.14 0854.75
2009/04/23 12:30:16.1    -404   -293   -201    500    538 234.1 -27.5  34124  288.97 0854.75
2009/04/23 12:30:16.2    -385   -236   -189    452    489 238.5 -28.5  34126  288.98 0854.75
2009/04/23 12:30:16.3    -360   -252   -192    440    480 234.9 -29.5  34128  289.03 0854.75
2009/04/23 12:30:16.4    -355   -232   -191    425    465 236.8 -30.3  34128  289.02 0854.75
2009/04/23 12:30:16.5    -332   -224   -198    401    447 236.0 -32.6  34130  289.07 0854.75
2009/04/23 12:30:16.6    -277   -289   -174    401    437 223.8 -29.4  34134  289.12 0854.75
2009/04/23 12:30:16.7    -320   -376   -171    495    524 220.4 -19.1  34136  289.17 0854.75
2009/04/23 12:30:16.8    -359   -370   -177    516    546 224.1 -19.0  34134  289.13 0854.75
2009/04/23 12:30:16.9    -437   -330   -178    548    576 232.9 -23.2  34134  289.14 0854.75
2009/04/23 12:30:17.0    -393   -297   -151    493    515 232.9 -21.9  34140  289.22 0854.75
2009/04/23 12:30:17.1    -399   -259   -174    476    506 237.0 -25.4  34136  289.17 0854.77
2009/04/23 12:30:17.2    -408   -307   -152    511    533 233.0 -21.4  34138  289.21 0854.77
2009/04/23 12:30:17.3    -441   -310   -171    540    566 234.9 -22.6  34134  289.14 0854.77
2009/04/23 12:30:17.4    -444   -334   -182    556    585 233.0 -23.3  34136  289.17 0854.77
2009/04/23 12:30:17.5    -454   -289   -237    539    588 237.5 -29.6  34138  289.20 0854.77
2009/04/23 12:30:17.6    -418   -282   -293    505    583 236.0 -37.2  34136  289.18 0854.77
2009/04/23 12:30:17.7    -437   -190   -300    477    563 246.5 -39.6  34136  289.16 0854.77
2009/04/23 12:30:17.8    -269   -314   -152    414    441 220.6 -25.4  34130  289.07 0854.77
2009/04/23 12:30:17.9    -286   -251   -167    381    415 228.7 -29.6  34132  289.11 0854.77
2009/04/23 12:30:18.0    -247   -465   -212    527    568 208.0 -27.5  34134  289.13 0854.77
2009/04/23 12:30:18.1    -280   -277   -271    395    479 225.3 -42.1  34138  289.19 0854.77
2009/04/23 12:30:18.2    -273   -285   -254    395    469 223.8 -40.3  34138  289.19 0854.77
2009/04/23 12:30:18.3    -166   -292   -237    337    411 209.7 -43.0  34134  289.13 0854.77
2009/04/23 12:30:18.4    -269   -131   -178    300    348 244.0 -38.1  34136  289.15 0854.77
2009/04/23 12:30:18.5    -263   -123   -117    291    313 244.8 -27.6  34130  289.07 0854.77
2009/04/23 12:30:18.6    -105     15   -189    107    217 278.4 -72.7  34136  289.16 0854.77
2009/04/23 12:30:18.7     -28    -96   -124    101    159 196.5 -61.3  34140  289.23 0854.77
2009/04/23 12:30:18.8     110   -316   -110    335    353 160.7 -18.2  34138  289.20 0854.77
2009/04/23 12:30:18.9     178   -294   -123    344    365 148.8 -24.8  34140  289.23 0854.77
2009/04/23 12:30:19.0     137   -295   -121    326    347 155.1 -25.7  34136  289.16 0854.77
2009/04/23 12:30:19.1      80   -329   -124    339    360 166.2 -25.3  34136  289.18 0854.78
2009/04/23 12:30:19.2     115   -321   -134    342    367 160.3 -26.9  34130  289.08 0854.78
2009/04/23 12:30:19.3     -95    -60   -185    113    216 237.6 -70.1  34140  289.23 0854.78
2009/04/23 12:30:19.4     -55      0   -149     56    159 270.0 -83.0  34140  289.23 0854.78
2009/04/23 12:30:19.5    -113   -330   -126    350    373 199.0 -19.8  34130  289.06 0854.78
2009/04/23 12:30:19.6    -329   -129    -86    354    365 248.6 -13.7  34146  289.33 0854.78
2009/04/23 12:30:19.7    -413   -268   -202    493    532 237.0 -27.9  34142  289.26 0854.78
2009/04/23 12:30:19.8    -472   -335   -286    580    646 234.6 -32.5  34144  289.31 0854.78
2009/04/23 12:30:19.9    -259   -291   -177    390    428 221.7 -30.6  34128  289.04 0854.78
2009/04/23 12:30:20.0    -415   -263   -161    492    518 237.6 -18.2  34136  289.17 0854.78
2009/04/23 12:30:20.1    -445   -302    -85    538    545 235.8  -9.0  34138  289.19 0854.78
2009/04/23 12:30:20.2    -473   -258    -24    539    540 241.4  -2.6  34134  289.13 0854.78
2009/04/23 12:30:20.3    -371   -143    -80    398    406 248.9 -11.5  34134  289.12 0854.78
2009/04/23 12:30:20.4    -476    -39   -109    478    491 265.3 -12.9  34136  289.15 0854.78
2009/04/23 12:30:20.5    -515   -158   -181    539    568 252.9 -23.6  34134  289.13 0854.78
2009/04/23 12:30:20.6    -504   -288   -121    581    594 240.3 -11.8  34132  289.10 0854.78
2009/04/23 12:30:20.7    -611   -324     18    692    693 242.0   1.5  34136  289.17 0854.78
2009/04/23 12:30:20.8    -716   -376   -232    809    841 242.3 -20.7  34136  289.16 0854.78
2009/04/23 12:30:20.9    -723   -316   -328    790    855 246.4 -28.3  34134  289.13 0854.78
2009/04/23 12:30:21.0    -691   -303   -326    755    822 246.3 -29.3  34132  289.10 0854.78
2009/04/23 12:30:21.1    -727   -260   -335    773    842 250.3 -29.4  34136  289.18 0854.78
2009/04/23 12:30:21.2    -578   -293   -345    649    735 243.1 -34.7  34136  289.17 0854.78
2009/04/23 12:30:21.3    -549   -224   -362    593    694 247.8 -38.7  34132  289.10 0854.78
2009/04/23 12:30:21.4    -357   -240   -223    431    485 236.0 -33.9  34134  289.12 0854.78
2009/04/23 12:30:21.5    -554   -156   -137    576    593 254.2 -13.4  34134  289.14 0854.78
2009/04/23 12:30:21.6    -779   -171   -279    798    846 257.6 -19.3  34140  289.23 0854.78
2009/04/23 12:30:21.7    -602   -203   -230    636    676 251.3 -25.2  34142  289.27 0854.78
2009/04/23 12:30:21.8    -258   -293    122    391    410 221.3  17.4  34140  289.24 0854.78
2009/04/23 12:30:21.9    -539    -64   -121    543    557 263.2 -12.6  34134  289.14 0854.78
2009/04/23 12:30:22.0    -426   -225     92    483    492 242.1  10.8  34134  289.13 0854.78
2009/04/23 12:30:22.1    -259   -258     -7    366    367 225.1  -1.1  34142  289.28 0854.78
2009/04/23 12:30:22.2    -255   -305     54    398    402 219.9   7.8  34142  289.25 0854.78
2009/04/23 12:30:22.4    -162   -249    -27    298    300 213.0  -5.2  34132  289.10 0854.78
2009/04/23 12:30:22.5      -7   -430    -65    431    436 181.0  -8.6  34138  289.19 0854.78
2009/04/23 12:30:22.6     147   -562   -138    581    598 165.3 -13.4  34142  289.25 0854.78
2009/04/23 12:30:22.7     315   -509   -140    599    616 148.3 -13.2  34140  289.24 0854.78
2009/04/23 12:30:22.8     255   -449    -46    517    520 150.4  -5.1  34136  289.15 0854.78
2009/04/23 12:30:22.9     127   -371   -117    393    411 161.1 -16.6  34142  289.26 0854.78
2009/04/23 12:30:23.0     211   -352    -95    411    422 149.0 -13.1  34140  289.24 0854.78
2009/04/23 12:30:23.1     236   -236    -47    334    338 135.0  -8.0  34138  289.21 0854.78
2009/04/23 12:30:23.2     189   -302    -19    357    358 148.0  -3.2  34146  289.32 0854.79
2009/04/23 12:30:23.3     185   -210    -40    281    284 138.6  -8.3  34140  289.24 0854.79
2009/04/23 12:30:23.4     121    -94    -40    154    160 127.8 -14.7  34142  289.28 0854.79
2009/04/23 12:30:23.5      80    -42    -63     91    110 118.0 -42.4  34142  289.26 0854.79
2009/04/23 12:30:23.6      21      5      2     22     23  74.9   6.9  34142  289.28 0854.79
2009/04/23 12:30:23.7      -2     20      0     21     22 352.0  -2.2  34146  289.33 0854.79
2009/04/23 12:30:23.8     -18      5    -18     19     26 288.2 -54.4  34144  289.30 0854.79
2009/04/23 12:30:23.9     -26      7    -14     27     30 285.1 -33.7  34144  289.30 0854.79
2009/04/23 12:30:24.0     -50    -15     10     53     55 253.2  11.0  34148  289.36 0854.79
2009/04/23 12:30:24.1     -56    -19     49     60     77 251.4  43.7  34144  289.30 0854.79
2009/04/23 12:30:24.2     -94    -78     48    123    132 230.5  22.0  34142  289.26 0854.79
2009/04/23 12:30:24.3    -116    -62     -2    132    133 241.6  -1.3  34144  289.30 0854.79
2009/04/23 12:30:24.4    -115    -97     29    151    154 230.0  11.1  34138  289.21 0854.79
2009/04/23 12:30:24.5    -267     86     61    281    288 287.9  12.4  34142  289.27 0854.79
2009/04/23 12:30:24.6    -291    108    108    311    330 290.4  19.2  34144  289.29 0854.79
2009/04/23 12:30:24.7    -301     91     43    315    318 286.9   7.9  34140  289.24 0854.79
2009/04/23 12:30:24.8    -309     80    -18    320    321 284.6  -3.3  34142  289.25 0854.79
2009/04/23 12:30:24.9    -170   -149    -26    227    229 228.7  -6.7  34140  289.24 0854.79
2009/04/23 12:30:25.0    -270   -199     61    336    342 233.6  10.3  34144  289.30 0854.79
2009/04/23 12:30:25.1    -477    -88     82    486    493 259.5   9.6  34142  289.27 0854.79
2009/04/23 12:30:25.2    -511    -82     61    518    522 260.8   6.8  34140  289.24 0854.79
2009/04/23 12:30:25.3    -360   -164    162    396    427 245.5  23.5  34136  289.17 0854.79
2009/04/23 12:30:25.4    -395    -91    -48    406    409 257.0  -6.8  34138  289.21 0854.79
2009/04/23 12:30:25.5    -601   -136    -82    617    623 257.2  -7.6  34142  289.25 0854.79
2009/04/23 12:30:25.6    -576   -195     -6    609    610 251.3  -0.6  34134  289.12 0854.79
2009/04/23 12:30:25.7    -385   -189     87    430    439 243.8  11.4  34144  289.31 0854.79
2009/04/23 12:30:25.8    -292   -117     32    315    317 248.2   6.0  34138  289.20 0854.79
2009/04/23 12:30:25.9    -148   -275    118    313    334 208.3  21.6  34144  289.29 0854.79
2009/04/23 12:30:26.0     -69   -207    163    219    273 198.5  40.4  34142  289.25 0854.79
2009/04/23 12:30:26.1     -29   -197    168    200    261 188.5  44.3  34142  289.25 0854.79
2009/04/23 12:30:26.2     -12   -109    214    110    240 186.7  70.8  34144  289.30 0854.83
2009/04/23 12:30:26.3     -88    -20    189     91    209 256.7  72.8  34144  289.30 0854.83
2009/04/23 12:30:26.4    -146   -259    155    298    335 209.4  29.6  34144  289.31 0854.83
2009/04/23 12:30:26.5     -74   -234    164    246    295 197.6  37.0  34146  289.32 0854.83
2009/04/23 12:30:26.6     -26   -332    161    334    370 184.5  27.3  34146  289.33 0854.83
2009/04/23 12:30:26.7     -85   -365    230    375    439 193.2  34.4  34144  289.29 0854.83
2009/04/23 12:30:26.8      -1   -323    240    324    403 180.2  40.4  34136  289.18 0854.83
2009/04/23 12:30:26.9      24   -357    231    358    426 176.1  35.6  34140  289.22 0854.83
2009/04/23 12:30:27.0       8   -286    230    287    367 178.4  42.9  34142  289.28 0854.83
2009/04/23 12:30:27.1     -59   -299    257    305    398 191.3  44.5  34148  289.38 0854.83
2009/04/23 12:30:27.2    -191   -312    129    366    389 211.5  19.4  34146  289.35 0854.83
2009/04/23 12:30:27.3    -215   -246    113    327    346 221.1  19.1  34146  289.32 0854.83
2009/04/23 12:30:27.4    -130   -238    118    272    296 208.7  25.1  34144  289.29 0854.83
2009/04/23 12:30:27.5    -145   -214     77    259    271 214.3  16.6  34142  289.27 0854.83
2009/04/23 12:30:27.6    -147   -259    151    299    334 209.6  28.7  34142  289.27 0854.83
2009/04/23 12:30:27.7     -60   -248    163    256    303 193.6  35.5  34138  289.20 0854.83
2009/04/23 12:30:27.8    -101   -166    161    195    252 211.4  43.7  34146  289.32 0854.83
2009/04/23 12:30:27.9     -86   -216    230    233    327 201.8  49.8  34136  289.17 0854.83
2009/04/23 12:30:28.0     -88   -219    198    237    308 201.8  43.8  34146  289.34 0854.83
2009/04/23 12:30:28.1    -214   -214    101    303    320 225.0  18.6  34148  289.37 0854.83
2009/04/23 12:30:28.2    -339   -182      0    385    386 241.8   0.1  34150  289.40 0854.83
2009/04/23 12:30:28.3    -310   -182     -1    360    361 239.6  -0.3  34152  289.42 0854.83
2009/04/23 12:30:28.4    -216   -234     -1    319    320 222.8  -0.2  34154  289.46 0854.83
2009/04/23 12:30:28.5    -226   -180      4    290    291 231.4   0.8  34158  289.53 0854.83
2009/04/23 12:30:28.6    -220   -203     58    300    306 227.3  11.1  34156  289.49 0854.83
2009/04/23 12:30:28.7    -178   -178     14    252    253 225.0   3.3  34158  289.54 0854.83
2009/04/23 12:30:28.8     -78   -242    -35    255    258 198.0  -8.0  34152  289.42 0854.83
2009/04/23 12:30:28.9    -180   -156     55    239    246 229.1  13.1  34154  289.46 0854.83
2009/04/23 12:30:29.0    -227   -176     55    288    294 232.2  10.8  34160  289.56 0854.83
2009/04/23 12:30:29.1    -239   -179     82    299    311 233.2  15.3  34162  289.59 0854.83
2009/04/23 12:30:29.2    -339   -172    -10    381    382 243.1  -1.6  34156  289.50 0854.83
2009/04/23 12:30:29.3    -396   -179      0    435    436 245.6   0.1  34158  289.53 0854.83
2009/04/23 12:30:29.4    -445   -250     53    511    514 240.7   6.0  34162  289.61 0854.83
2009/04/23 12:30:29.5    -337   -212     93    399    410 237.9  13.1  34164  289.63 0854.83
2009/04/23 12:30:29.6    -329   -199     30    385    387 238.8   4.5  34174  289.81 0854.83
2009/04/23 12:30:29.7    -340   -281     -6    442    443 230.4  -0.9  34158  289.53 0854.83
2009/04/23 12:30:29.8    -294   -360     -7    465    466 219.2  -0.9  34150  289.40 0854.83
2009/04/23 12:30:29.9    -306   -378     19    487    488 219.0   2.3  34160  289.56 0854.83
2009/04/23 12:30:30.0    -205   -367     57    421    425 209.2   7.8  34160  289.56 0854.83
2009/04/23 12:30:30.1    -175   -324     65    369    375 208.4  10.0  34160  289.57 0854.83
2009/04/23 12:30:30.2    -143   -353      0    382    383 202.1   0.0  34160  289.57 0854.83
2009/04/23 12:30:30.3    -112   -381      1    398    399 196.4   0.2  34168  289.71 0854.83
2009/04/23 12:30:30.4     -41   -363     -4    366    367 186.6  -0.7  34164  289.65 0854.83
2009/04/23 12:30:30.5      -6   -340     -6    341    342 181.1  -1.2  34192  290.11 0854.83
2009/04/23 12:30:30.6     -16   -373     18    374    375 182.5   2.8  34208  290.40 0854.83
2009/04/23 12:30:30.7     -59   -267    -13    274    275 192.5  -2.8  34230  290.75 0854.83
2009/04/23 12:30:30.8    -216   -361    -16    421    422 210.9  -2.2  34226  290.68 0854.83
2009/04/23 12:30:30.9     -47   -407     51    410    414 186.7   7.2  34178  289.87 0854.83
2009/04/23 12:30:31.0      -8   -344    127    345    367 181.5  21.0  34152  289.45 0854.83
2009/04/23 12:30:31.1     -95   -350    149    363    392 195.3  23.7  34154  289.47 0854.83
2009/04/23 12:30:31.2    -102   -376    193    390    435 195.2  28.2  34146  289.33 0854.83
2009/04/23 12:30:31.3    -139   -371    185    397    437 200.6  26.9  34148  289.38 0854.83
2009/04/23 12:30:31.4    -159   -391    174    423    457 202.2  23.5  34152  289.44 0854.83
2009/04/23 12:30:31.5    -188   -408    103    450    462 204.8  12.9  34154  289.48 0854.83
2009/04/23 12:30:31.6    -189   -428     92    469    479 203.9  11.1  34154  289.47 0854.83
2009/04/23 12:30:31.7    -102   -429    205    441    486 193.4  26.7  34150  289.39 0854.83
2009/04/23 12:30:31.8    -199   -441    260    484    549 204.3  30.5  34154  289.48 0854.83
2009/04/23 12:30:31.9    -126   -472    107    489    501 195.1  12.4  34152  289.45 0854.83
2009/04/23 12:30:32.0    -144   -437    145    461    484 198.3  17.5  34152  289.44 0854.83
2009/04/23 12:30:32.1     -89   -467    135    476    495 190.9  15.9  34162  289.59 0854.83
2009/04/23 12:30:32.2    -132   -423     -2    444    445 197.4  -0.3  34168  289.72 0854.81
2009/04/23 12:30:32.3    -143   -224    161    266    310 212.6  34.4  34162  289.59 0854.81
2009/04/23 12:30:32.4    -108   -237    204    261    331 204.5  42.0  34150  289.41 0854.81
2009/04/23 12:30:32.5    -113   -205    151    235    279 208.9  35.6  34152  289.42 0854.81
2009/04/23 12:30:32.6    -123   -222    155    255    298 209.0  34.2  34152  289.42 0854.81
2009/04/23 12:30:32.7     -56   -189    197    198    279 196.7  50.0  34148  289.36 0854.81
2009/04/23 12:30:32.8       0   -134    206    135    246 180.0  63.9  34150  289.41 0854.81
2009/04/23 12:30:32.9     -63    -68    153     93    179 222.8  66.0  34152  289.45 0854.81
2009/04/23 12:30:33.0     -45    145     98    153    181 342.6  35.6  34154  289.48 0854.81
2009/04/23 12:30:33.1    -110    122     81    165    183 318.1  28.0  34148  289.38 0854.81
2009/04/23 12:30:33.2    -206    -75    110    220    245 250.0  28.2  34158  289.54 0854.81
2009/04/23 12:30:33.3    -264    -86    -45    278    282 251.8  -9.3  34156  289.51 0854.81
2009/04/23 12:30:33.4    -296   -134     14    326    327 245.6   2.5  34144  289.31 0854.81
2009/04/23 12:30:33.5    -126   -110     90    168    190 228.9  30.6  34152  289.43 0854.81
2009/04/23 12:30:33.6    -176    -58    119    186    220 251.6  35.6  34146  289.35 0854.81
2009/04/23 12:30:33.7    -242    -13    112    243    267 266.7  26.4  34156  289.49 0854.81
2009/04/23 12:30:33.8    -326    -22     17    327    328 266.1   3.1  34172  289.76 0854.81
2009/04/23 12:30:33.9    -373    -74     -4    381    382 258.8  -0.7  34158  289.55 0854.81
2009/04/23 12:30:34.0    -147   -124    111    193    222 229.8  32.7  34146  289.33 0854.81
2009/04/23 12:30:34.1    -150   -221    107    268    288 214.1  23.0  34144  289.31 0854.81
2009/04/23 12:30:34.2    -117   -219    119    249    275 208.1  27.3  34146  289.34 0854.78
2009/04/23 12:30:34.3    -137   -166     83    216    231 219.6  22.0  34146  289.33 0854.78
2009/04/23 12:30:34.4    -225   -132     40    261    265 239.6   8.9  34148  289.36 0854.78
2009/04/23 12:30:34.5    -248   -126      3    279    280 243.1   0.8  34146  289.34 0854.78
2009/04/23 12:30:34.6    -353    -92   -142    365    391 255.3 -26.8  34158  289.54 0854.78
2009/04/23 12:30:34.7    -308    -69   -106    316    334 257.2 -18.6  34162  289.61 0854.78
2009/04/23 12:30:34.8    -214    -93    -21    234    235 246.5  -5.2  34158  289.54 0854.78
2009/04/23 12:30:34.9    -205   -220    117    301    322 223.0  22.4  34160  289.56 0854.78
2009/04/23 12:30:35.0    -266    -58    -66    273    281 257.7 -13.7  34168  289.70 0854.78
2009/04/23 12:30:35.1    -147    -44    -50    154    163 253.2 -18.1  34162  289.62 0854.78
2009/04/23 12:30:35.2    -112    -74    -22    135    137 236.7  -9.3  34164  289.65 0854.78
2009/04/23 12:30:35.3     -82   -111    -27    139    142 216.5 -11.3  34166  289.69 0854.78
2009/04/23 12:30:35.4     -58    -91   -122    109    163 212.6 -57.9  34166  289.69 0854.78
2009/04/23 12:30:35.5    -219    -26   -189    221    290 263.2 -49.3  34158  289.54 0854.78
2009/04/23 12:30:35.6    -194   -193   -123    274    300 225.1 -30.1  34158  289.53 0854.78
2009/04/23 12:30:35.7    -131   -180    -73    223    234 216.1 -23.3  34160  289.57 0854.78
2009/04/23 12:30:35.8     -17   -208    -86    209    226 184.7 -27.8  34156  289.50 0854.78
2009/04/23 12:30:35.9     -87   -219    -42    236    240 201.9 -10.3  34158  289.53 0854.78
2009/04/23 12:30:36.0    -114   -204    -85    234    248 209.2 -25.1  34154  289.47 0854.78
2009/04/23 12:30:36.1     -53   -243   -100    249    268 192.5 -27.4  34158  289.54 0854.78
2009/04/23 12:30:36.2       0   -198    -74    199    212 180.0 -25.4  34156  289.50 0854.74
2009/04/23 12:30:36.3     -21   -193   -164    195    254 186.2 -48.7  34158  289.53 0854.74
2009/04/23 12:30:36.4      58   -175   -146    185    235 161.7 -46.8  34158  289.55 0854.74
2009/04/23 12:30:36.5      49   -144   -141    153    208 161.3 -52.1  34160  289.57 0854.74
2009/04/23 12:30:36.6      82   -161   -121    181    217 152.8 -41.4  34156  289.50 0854.74
2009/04/23 12:30:36.7      71    -70    -95    101    138 134.6 -52.4  34158  289.55 0854.74
2009/04/23 12:30:36.8      66    -71    -65     98    117 137.2 -41.4  34158  289.53 0854.74
2009/04/23 12:30:36.9     141    -14    -18    142    144  95.7  -7.3  34158  289.53 0854.74
2009/04/23 12:30:37.0     211    -12     58    212    220  93.5  15.3  34148  289.36 0854.74
2009/04/23 12:30:37.1     182    -43    109    188    217 103.3  32.7  34154  289.46 0854.74
2009/04/23 12:30:37.2     196    -73     70    210    222 110.6  18.4  34152  289.43 0854.74
2009/04/23 12:30:37.3     154   -129     -7    202    203 130.0  -2.2  34152  289.45 0854.74
2009/04/23 12:30:37.4     152    -85     11    175    176 119.1   3.8  34152  289.45 0854.74
2009/04/23 12:30:37.5      29   -137     58    141    152 168.0  23.1  34156  289.50 0854.74
2009/04/23 12:30:37.6     -29   -143     44    147    154 191.6  16.6  34154  289.48 0854.74
2009/04/23 12:30:37.7      12   -107     14    108    109 173.3   7.5  34156  289.50 0854.74
2009/04/23 12:30:37.8      59   -125     16    139    141 154.7   6.9  34150  289.40 0854.74
2009/04/23 12:30:37.9      57   -144     66    156    169 158.2  24.6  34144  289.31 0854.74
2009/04/23 12:30:38.0     102   -145     32    178    181 144.8  10.3  34146  289.35 0854.74
2009/04/23 12:30:38.1      76   -135     18    156    158 150.6   6.7  34148  289.36 0854.74
2009/04/23 12:30:38.2      29   -128     88    132    158 167.1  37.0  34148  289.36 0854.70
2009/04/23 12:30:38.3      22   -190     77    192    206 173.3  23.0  34146  289.35 0854.70
2009/04/23 12:30:38.4     -14   -173    114    174    208 184.9  36.3  34148  289.36 0854.70
2009/04/23 12:30:38.5      -4   -139    117    140    182 181.8  44.1  34146  289.35 0854.70
2009/04/23 12:30:38.6      15   -199    134    200    240 175.6  37.0  34150  289.40 0854.70
2009/04/23 12:30:38.7      81   -244    127    258    287 161.7  28.2  34144  289.29 0854.70
2009/04/23 12:30:38.8      52   -236    181    242    302 167.5  40.4  34152  289.42 0854.70
2009/04/23 12:30:38.9     107   -144    170    180    247 143.5  48.5  34154  289.46 0854.70
2009/04/23 12:30:39.0       1   -145    138    146    200 179.5  48.2  34154  289.48 0854.70
2009/04/23 12:30:39.1     -78    -98     89    126    154 218.3  38.6  34148  289.38 0854.70
2009/04/23 12:30:39.2      31      1     72     32     78  87.4  75.0  34150  289.41 0854.70
2009/04/23 12:30:39.3      55    -58    125     81    148 136.3  64.6  34150  289.41 0854.70
2009/04/23 12:30:39.4      21   -144    109    146    182 171.5  40.4  34148  289.38 0854.70
2009/04/23 12:30:39.5       7   -162    157    163    226 177.5  49.0  34146  289.35 0854.70
2009/04/23 12:30:39.6     -31   -148     97    152    180 192.0  35.5  34148  289.38 0854.70
2009/04/23 12:30:39.7     -92   -135    126    164    206 214.5  41.7  34150  289.41 0854.70
2009/04/23 12:30:39.8    -110   -103     33    151    155 226.9  12.4  34148  289.38 0854.70
2009/04/23 12:30:39.9     -68   -163     20    177    179 202.7   6.7  34150  289.40 0854.70
2009/04/23 12:30:40.0     -25   -173     34    175    179 188.2  11.0  34148  289.36 0854.70
2009/04/23 12:30:40.1       8   -174      8    175    176 177.3   2.9  34148  289.36 0854.70
2009/04/23 12:30:40.2      47    -93     16    105    107 153.3   9.0  34150  289.40 0854.68
2009/04/23 12:30:40.3      43    -43    -19     61     65 134.9 -17.6  34152  289.45 0854.68
2009/04/23 12:30:40.4      21     31     48     38     61  34.3  56.4  34152  289.45 0854.68
2009/04/23 12:30:40.5     -65      0     25     66     70 269.2  22.0  34154  289.46 0854.68
2009/04/23 12:30:40.6     -91     -4     68     92    114 267.0  39.7  34154  289.46 0854.68
2009/04/23 12:30:40.7    -130     -8     25    131    134 266.1  11.0  34152  289.43 0854.68
2009/04/23 12:30:40.8     -66      0      8     67     68 270.0   6.9  34154  289.46 0854.68
2009/04/23 12:30:40.9     -38     18     15     43     46 295.3  19.2  34154  289.48 0854.68
2009/04/23 12:30:41.0     -65     21     18     69     72 288.2  15.2  34152  289.45 0854.68
2009/04/23 12:30:41.1     -93     38     -2    101    102 292.6  -1.3  34150  289.41 0854.68
2009/04/23 12:30:41.2    -138     12     61    139    151 275.2  25.2  34154  289.46 0854.68
2009/04/23 12:30:41.3    -173     35     65    177    188 281.5  21.0  34152  289.45 0854.68
2009/04/23 12:30:41.4    -154     41     27    160    163 285.1   9.9  34152  289.43 0854.68
2009/04/23 12:30:41.5    -141     -9     68    142    157 266.1  27.4  34154  289.46 0854.68
2009/04/23 12:30:41.6    -127     -7    101    128    163 266.5  42.4  34154  289.46 0854.68
2009/04/23 12:30:41.7     -97    -16    117     99    153 260.3  55.8  34158  289.55 0854.68
2009/04/23 12:30:41.8     -91    -83     94    124    155 227.8  41.2  34156  289.50 0854.68
2009/04/23 12:30:41.9     -45    -95     71    106    127 205.5  37.0  34154  289.48 0854.68
2009/04/23 12:30:42.0     -43    -67     65     80    103 212.6  43.7  34154  289.48 0854.68
2009/04/23 12:30:42.1     -86    -46     83     98    128 242.0  44.3  34154  289.48 0854.68
2009/04/23 12:30:42.2    -126     50     65    136    150 291.8  27.2  34160  289.57 0854.64
2009/04/23 12:30:42.3    -132     20    -29    134    138 278.8 -12.4  34160  289.57 0854.64
2009/04/23 12:30:42.4    -103     97     -5    142    143 313.1  -2.2  34156  289.52 0854.64
2009/04/23 12:30:42.5     -88     63     58    109    123 305.5  30.3  34156  289.52 0854.64
2009/04/23 12:30:42.6     -72     45     57     86    103 302.0  36.5  34156  289.50 0854.64
2009/04/23 12:30:42.7     -50     39     58     64     86 307.8  47.5  34156  289.52 0854.64
2009/04/23 12:30:42.8     -76     76     61    108    124 314.9  31.9  34154  289.46 0854.64
2009/04/23 12:30:42.9     -77     10     54     78     94 277.9  37.6  34158  289.55 0854.64
2009/04/23 12:30:43.0     -76     15     34     78     85 281.5  25.1  34158  289.55 0854.64
2009/04/23 12:30:43.1     -65     -6     25     66     70 263.9  22.0  34158  289.53 0854.64
2009/04/23 12:30:43.2     -74      5     20     75     78 274.4  15.3  34152  289.43 0854.64
2009/04/23 12:30:43.3     -47     44     19     65     68 313.1  16.3  34152  289.43 0854.64
2009/04/23 12:30:43.4     -90     37     26     98    102 292.6  15.3  34154  289.48 0854.64
2009/04/23 12:30:43.5    -125     97     56    159    169 308.0  19.6  34156  289.50 0854.64
2009/04/23 12:30:43.6     -90    109     74    142    160 320.3  29.8  34160  289.58 0854.64
2009/04/23 12:30:43.7    -111     99     50    150    159 311.8  18.4  34156  289.52 0854.64
2009/04/23 12:30:43.8    -121     21     81    123    147 280.1  36.0  34158  289.55 0854.64
2009/04/23 12:30:43.9    -112     17     31    114    119 278.8  15.2  34154  289.48 0854.64
2009/04/23 12:30:44.0     -51      3     21     52     56 274.4  22.0  34156  289.50 0854.64
2009/04/23 12:30:44.1     -10    -14     19     18     26 216.1  50.1  34158  289.55 0854.64
2009/04/23 12:30:44.2       2    -29     53     30     60 175.5  68.8  34162  289.62 0854.60
2009/04/23 12:30:44.3     -81    -11     63     82    103 261.6  41.7  34162  289.62 0854.60
2009/04/23 12:30:44.4    -116     -6     64    117    133 267.0  31.4  34160  289.58 0854.60
2009/04/23 12:30:44.5    -111     28     56    115    127 284.2  27.3  34156  289.52 0854.60
2009/04/23 12:30:44.6    -111      3     81    112    138 271.7  39.5  34162  289.62 0854.60
2009/04/23 12:30:44.7    -102     19     51    104    115 281.0  27.3  34160  289.58 0854.60
2009/04/23 12:30:44.8     -92      7     57     93    109 274.4  35.0  34170  289.75 0854.60
2009/04/23 12:30:44.9    -110     37     37    117    123 288.6  17.9  34156  289.50 0854.60
2009/04/23 12:30:45.0    -136    -10     64    137    151 265.7  27.1  34164  289.65 0854.60
2009/04/23 12:30:45.1     -74    -15     56     76     94 258.5  40.1  34166  289.69 0854.60
2009/04/23 12:30:45.2     -64      1     41     65     76 271.7  35.5  34166  289.67 0854.60
2009/04/23 12:30:45.3     -80     -6     32     81     87 265.6  22.0  34172  289.79 0854.60
2009/04/23 12:30:45.4     -54    -18     -7     57     58 251.4  -7.3  34172  289.77 0854.60
2009/04/23 12:30:45.5     -17     18     -8     26     28 316.6 -17.6  34170  289.75 0854.60
2009/04/23 12:30:45.6       3     49      2     50     51   4.5   2.8  34172  289.77 0854.60
2009/04/23 12:30:45.7      38    -17     50     42     65 114.4  56.3  34172  289.77 0854.60
2009/04/23 12:30:45.8     161    -14    134    162    210  95.2  43.8  34160  289.57 0854.60
2009/04/23 12:30:45.9     309    -33    215    311    378  96.2  38.0  34150  289.40 0854.60
2009/04/23 12:30:46.0     184    -83    177    203    269 114.4  45.6  34164  289.63 0854.60
2009/04/23 12:30:46.1      74   -132    198    152    249 150.6  58.5  34164  289.65 0854.60
2009/04/23 12:30:46.2      53   -159    113    168    202 161.3  37.0  34166  289.69 0854.60
2009/04/23 12:30:46.3      45   -172    -71    178    191 165.1 -27.4  34162  289.60 0854.60
2009/04/23 12:30:46.4      58   -169    -27    179    182 160.8  -8.6  34162  289.62 0854.60
2009/04/23 12:30:46.5     -33   -177     55    181    190 190.7  17.1  34164  289.63 0854.60
2009/04/23 12:30:46.6    -123   -241     53    271    277 207.2  11.1  34162  289.59 0854.60
2009/04/23 12:30:46.7      12   -216    179    217    281 176.6  43.8  34160  289.58 0854.60
2009/04/23 12:30:46.8     105   -196    156    223    272 151.9  38.4  34164  289.64 0854.60
2009/04/23 12:30:46.9      46   -138    112    146    184 161.5  41.4  34162  289.60 0854.60
2009/04/23 12:30:47.0       1   -103     97    104    142 179.0  47.9  34162  289.60 0854.60
2009/04/23 12:30:47.1     -33   -140    120    144    187 193.4  43.8  34164  289.63 0854.60
2009/04/23 12:30:47.3      22   -112    103    115    154 168.5  46.4  34162  289.62 0854.63
2009/04/23 12:30:47.3      10    -82    107     83    135 172.4  58.4  34162  289.62 0854.63
2009/04/23 12:30:47.4     -71    -86    149    112    186 219.6  59.2  34164  289.63 0854.63
2009/04/23 12:30:47.5    -161    -96    119    188    222 239.1  35.5  34160  289.58 0854.63
2009/04/23 12:30:47.6    -241     -7     -9    242    243 268.1  -2.2  34160  289.58 0854.63
2009/04/23 12:30:47.7    -265    -62    -39    273    276 256.7  -8.3  34162  289.61 0854.63
2009/04/23 12:30:47.8    -281   -122   -118    307    328 246.5 -26.4  34138  289.19 0854.63
2009/04/23 12:30:47.9    -160   -120   -141    201    245 233.1 -43.0  34138  289.19 0854.63
2009/04/23 12:30:48.0     -63   -123     40    139    145 207.2  16.3  34142  289.28 0854.63
2009/04/23 12:30:48.1    -141   -187    202    235    309 217.0  44.9  34154  289.47 0854.63
2009/04/23 12:30:48.2    -161   -220    150    273    311 216.3  31.3  34158  289.53 0854.63
2009/04/23 12:30:48.3    -187   -213     83    284    296 221.2  16.3  34154  289.46 0854.63
2009/04/23 12:30:48.4    -240   -224    114    329    349 227.0  19.2  34156  289.50 0854.63
2009/04/23 12:30:48.5    -191   -242    122    309    332 218.3  22.7  34158  289.54 0854.63
2009/04/23 12:30:48.6    -171   -227    111    285    305 217.0  22.8  34162  289.59 0854.63
2009/04/23 12:30:48.7     -73   -158    -31    175    178 204.7 -10.3  34162  289.60 0854.63
2009/04/23 12:30:48.8    -110   -298     78    318    328 200.3  13.9  34168  289.70 0854.63
2009/04/23 12:30:48.9    -172   -430     84    464    472 201.8  10.3  34170  289.73 0854.63
2009/04/23 12:30:49.0    -187   -385     62    429    434 205.9   8.3  34170  289.73 0854.63
2009/04/23 12:30:49.1    -155   -286    114    326    346 208.5  19.4  34162  289.60 0854.63
2009/04/23 12:30:49.2    -126   -276    214    304    371 204.5  38.8  34158  289.55 0854.69
2009/04/23 12:30:49.3     -41   -216     99    220    241 190.9  25.9  34168  289.70 0854.69
2009/04/23 12:30:49.4    -178   -129     50    221    227 234.0  12.9  34170  289.74 0854.69
2009/04/23 12:30:49.5    -273     25    -77    275    285 275.3 -20.2  34162  289.59 0854.69
2009/04/23 12:30:49.6    -342    -76    -53    351    356 257.4  -8.7  34168  289.71 0854.69
2009/04/23 12:30:49.7    -388    -16    -97    389    401 267.5 -14.1  34166  289.67 0854.69
2009/04/23 12:30:49.9    -583     17    -54    584    587 271.7  -5.3  34152  289.44 0854.69
2009/04/23 12:30:49.9    -379   -106    -97    394    406 254.3 -13.9  34152  289.45 0854.69
2009/04/23 12:30:50.0    -374   -148   -143    403    428 248.4 -19.6  34142  289.26 0854.69
2009/04/23 12:30:50.1    -325   -235   -120    402    420 234.1 -16.7  34154  289.46 0854.69
2009/04/23 12:30:50.3    -298   -383   -156    486    510 217.9 -22.8  34162  289.61 0854.69
2009/04/23 12:30:50.4    -203   -326    118    385    403 211.9  17.1  34158  289.54 0854.69
2009/04/23 12:30:50.5    -186   -278    130    335    359 213.8  22.3  34168  289.72 0854.69
2009/04/23 12:30:50.6    -125   -132     58    183    193 223.4  17.7  34168  289.70 0854.69
2009/04/23 12:30:50.7    -144   -268     88    305    318 208.3  16.1  34166  289.66 0854.69
2009/04/23 12:30:50.8    -260   -233      4    350    351 228.1   0.7  34166  289.67 0854.69
2009/04/23 12:30:50.9    -235   -123    -10    266    267 242.2  -2.2  34178  289.86 0854.69
2009/04/23 12:30:51.0    -178   -269    -19    323    324 213.6  -3.5  34164  289.64 0854.69
2009/04/23 12:30:51.1    -169    -52     70    177    190 252.7  22.8  34166  289.67 0854.69
2009/04/23 12:30:51.2    -198    -40    -11    202    203 258.5  -3.1  34164  289.63 0854.69
2009/04/23 12:30:51.3    -141    -89     -6    167    168 237.6  -2.2  34166  289.67 0854.73
2009/04/23 12:30:51.4    -110    -78    -27    136    139 234.5 -11.3  34166  289.69 0854.73
2009/04/23 12:30:51.5    -127   -106     57    166    176 230.0  19.2  34158  289.53 0854.73
2009/04/23 12:30:51.6    -139    -81    -74    161    177 239.8 -30.8  34144  289.31 0854.73
2009/04/23 12:30:51.7    -117    -77    -50    141    150 236.7 -19.7  34160  289.58 0854.73
2009/04/23 12:30:51.8    -107    -94     66    143    157 228.7  26.4  34162  289.62 0854.73
2009/04/23 12:30:51.9    -126   -171     13    213    214 216.3   3.6  34164  289.65 0854.73
2009/04/23 12:30:52.0    -171   -167     12    240    241 225.6   2.9  34164  289.64 0854.73
2009/04/23 12:30:52.1    -250   -123   -138    279    311 243.8 -32.6  34164  289.64 0854.73
2009/04/23 12:30:52.2    -258   -102    -87    278    292 248.3 -17.5  34170  289.75 0854.73
2009/04/23 12:30:52.3    -218    -84    -71    234    245 248.7 -17.0  34182  289.95 0854.73
2009/04/23 12:30:52.4    -188    -29     14    191    192 261.0   4.4  34172  289.79 0854.73
2009/04/23 12:30:52.5    -212   -119    -28    244    246 240.7  -6.7  34168  289.70 0854.73
2009/04/23 12:30:52.6    -178    -59    -12    188    189 251.6  -3.9  34170  289.74 0854.73
2009/04/23 12:30:52.7    -217    -94   -123    237    267 246.5 -33.9  34178  289.88 0854.73
2009/04/23 12:30:52.8    -254   -100   -124    274    300 248.5 -30.6  34180  289.90 0854.73
2009/04/23 12:30:52.9    -198    -88   -167    217    273 246.0 -46.0  34168  289.70 0854.73
2009/04/23 12:30:53.0    -193    -77    -74    208    222 248.2 -19.7  34162  289.62 0854.73
2009/04/23 12:30:53.1    -265   -118    -82    291    302 246.0 -20.4  34176  289.83 0854.73
2009/04/23 12:30:53.2    -179   -158   -156    239    285 228.6 -40.4  34162  289.59 0854.73
2009/04/23 12:30:53.3    -330    -86   -121    341    362 255.4 -19.6  34158  289.55 0854.74
2009/04/23 12:30:53.4    -383   -135   -153    407    434 250.5 -26.0  34158  289.53 0854.74
2009/04/23 12:30:53.5    -254   -169    -82    306    317 236.3 -15.0  34168  289.70 0854.74
2009/04/23 12:30:53.6    -317   -149   -125    351    373 244.8 -19.7  34162  289.60 0854.74
2009/04/23 12:30:53.7    -296   -234    -86    378    388 231.6 -12.9  34170  289.74 0854.74
2009/04/23 12:30:53.8    -191   -454   -216    493    538 202.8 -29.6  34162  289.62 0854.74
2009/04/23 12:30:53.9       0   -407   -202    408    455 180.0 -32.6  34156  289.51 0854.74
2009/04/23 12:30:54.0     -74   -384   -140    392    417 191.0 -19.7  34168  289.70 0854.74
2009/04/23 12:30:54.1     -50   -371   -122    375    395 187.7 -18.1  34164  289.64 0854.74
2009/04/23 12:30:54.2     -78   -360     72    369    377 192.3  11.1  34162  289.62 0854.74
2009/04/23 12:30:54.3     -35   -339     48    341    345 185.9   8.1  34162  289.62 0854.74
2009/04/23 12:30:54.4     -48   -342     85    346    357 188.0  13.9  34166  289.67 0854.74
2009/04/23 12:30:54.5    -122   -281    104    307    325 203.6  18.8  34158  289.53 0854.74
2009/04/23 12:30:54.6    -105   -276     46    296    300 201.0   9.0  34160  289.58 0854.74
2009/04/23 12:30:54.7     -26   -341    -12    342    343 184.4  -2.1  34160  289.57 0854.74
2009/04/23 12:30:54.8      63   -250    116    259    283 165.7  25.9  34156  289.49 0854.74
2009/04/23 12:30:54.9     -60   -295    107    302    321 191.6  19.6  34156  289.49 0854.74
2009/04/23 12:30:55.0    -131   -298     79    326    336 203.7  13.7  34158  289.55 0854.74
2009/04/23 12:30:55.1     -47   -380      5    383    384 187.1   0.9  34152  289.45 0854.74
2009/04/23 12:30:55.2     -68   -415    -50    421    424 189.4  -6.8  34148  289.38 0854.74
2009/04/23 12:30:55.3     -66   -376    -14    382    383 190.0  -2.2  34148  289.38 0854.73
2009/04/23 12:30:55.4     -33   -374    -17    376    377 185.2  -2.7  34150  289.40 0854.73
2009/04/23 12:30:55.5     -32   -414      8    416    417 184.5   1.1  34148  289.36 0854.73
2009/04/23 12:30:55.6     -40   -430    -16    433    434 185.3  -2.2  34146  289.34 0854.73
2009/04/23 12:30:55.7     -50   -462    -18    465    466 186.2  -2.2  34146  289.32 0854.73
2009/04/23 12:30:55.8     -35   -454    -58    456    460 184.5  -7.3  34146  289.33 0854.73
2009/04/23 12:30:55.9      13   -445    -90    446    455 178.2 -11.5  34148  289.36 0854.73
2009/04/23 12:30:56.0     -13   -487     -1    488    489 181.6  -0.2  34150  289.39 0854.73
2009/04/23 12:30:56.1      14   -475     -2    476    477 178.2  -0.3  34146  289.35 0854.73
2009/04/23 12:30:56.2    -152   -425    -17    452    453 199.7  -2.2  34142  289.26 0854.73
2009/04/23 12:30:56.3    -126   -311      6    336    337 202.1   1.1  34138  289.20 0854.73
2009/04/23 12:30:56.4      -4   -346     38    347    350 180.8   6.4  34142  289.25 0854.73
2009/04/23 12:30:56.5    -130   -375   -174    398    434 199.2 -29.5  34140  289.22 0854.73
2009/04/23 12:30:56.6    -153   -276   -174    316    360 209.0 -35.8  34136  289.15 0854.73
2009/04/23 12:30:56.7     -90   -329   -123    342    364 195.3 -19.8  34138  289.20 0854.73
2009/04/23 12:30:56.8    -136   -313   -107    342    358 203.5 -22.3  34138  289.20 0854.73
2009/04/23 12:30:56.9    -192   -332   -132    384    406 210.0 -24.0  34134  289.13 0854.73
2009/04/23 12:30:57.0     -96   -292    -92    308    321 198.3 -21.6  34134  289.14 0854.73
2009/04/23 12:30:57.1    -135   -322    -19    350    351 202.7  -3.1  34136  289.16 0854.73
2009/04/23 12:30:57.2     -45   -375     42    378    381 186.9   6.5  34146  289.33 0854.73
2009/04/23 12:30:57.3     -75   -363     -7    371    372 191.7  -1.2  34146  289.35 0854.73
2009/04/23 12:30:57.4      46   -364     41    367    370 172.7   6.5  34148  289.37 0854.73
2009/04/23 12:30:57.5      65   -350     57    356    361 169.4   9.2  34146  289.32 0854.73
2009/04/23 12:30:57.6      59   -342     48    348    352 170.1   8.0  34146  289.32 0854.73
2009/04/23 12:30:57.7      49   -299     37    304    307 170.7   7.1  34140  289.24 0854.73
2009/04/23 12:30:57.8      76   -261    -32    272    274 163.7  -6.9  34144  289.31 0854.73
2009/04/23 12:30:57.9     119   -169    -42    208    213 144.8 -11.6  34144  289.30 0854.73
2009/04/23 12:30:58.0     139   -234     88    273    287 149.3  17.9  34148  289.36 0854.73
2009/04/23 12:30:58.1      86   -247     77    262    274 160.8  16.4  34146  289.34 0854.73
2009/04/23 12:30:58.2      28   -175    139    178    225 170.9  42.0  34148  289.38 0854.73
2009/04/23 12:30:58.3      80   -233     87    247    261 160.9  20.0  34148  289.37 0854.73
2009/04/23 12:30:58.4      34   -199    135    202    242 170.2  36.7  34148  289.38 0854.73
2009/04/23 12:30:58.5    -103   -236    109    258    280 203.6  24.2  34148  289.36 0854.73
2009/04/23 12:30:58.6    -111   -199     74    229    241 209.2  17.9  34148  289.37 0854.73
2009/04/23 12:30:58.7    -110   -165    106    199    225 213.6  30.3  34146  289.33 0854.73
2009/04/23 12:30:58.8    -106   -156    108    190    218 214.3  32.1  34150  289.40 0854.73
2009/04/23 12:30:58.9     -90   -143     96    170    195 212.3  32.1  34148  289.36 0854.73
2009/04/23 12:30:59.0     -22    -98    147    101    178 192.9  62.1  34150  289.40 0854.73
2009/04/23 12:30:59.1      17    -80    115     82    141 168.0  60.6  34154  289.46 0854.73
2009/04/23 12:30:59.2       3    -91    113     92    145 177.8  56.4  34152  289.45 0854.73
2009/04/23 12:30:59.3      89     12    149     90    174  82.1  66.0  34154  289.46 0854.73
2009/04/23 12:30:59.4      49     10    116     51    126  78.5  75.0  34154  289.48 0854.73
2009/04/23 12:30:59.5      89    -56    119    106    159 122.5  53.5  34150  289.41 0854.73
2009/04/23 12:30:59.6       2     61     90     62    109   2.7  62.1  34146  289.35 0854.73
2009/04/23 12:30:59.7     -19    109     86    111    140 349.8  41.7  34152  289.45 0854.73
2009/04/23 12:30:59.8      20     51     40     56     68  21.8  39.5  34158  289.53 0854.73
2009/04/23 12:30:59.9     -16    -34     10     38     40 205.5  15.3  34152  289.45 0854.73
2009/04/23 12:31:00.0     106      3     82    107    134  87.9  41.6  34150  289.41 0854.73
2009/04/23 12:31:00.1      49    147     64    156    168  18.7  23.6  34150  289.41 0854.73
2009/04/23 12:31:00.2     -16     92     62     94    112 349.8  36.0  34150  289.41 0854.73
2009/04/23 12:31:00.3     -82     99     25    129    132 320.4  11.1  34152  289.45 0854.73
2009/04/23 12:31:00.4     -77     34    -13     85     87 294.0  -8.8  34152  289.45 0854.73
2009/04/23 12:31:00.5     -56     30    -22     64     68 298.8 -19.6  34152  289.45 0854.73
2009/04/23 12:31:00.6     -26     28     16     39     42 316.6  23.0  34156  289.50 0854.73
2009/04/23 12:31:00.7     -72    -50      4     88     89 234.9   2.9  34152  289.43 0854.73
2009/04/23 12:31:00.8     -48    -23     21     54     57 244.8  21.0  34148  289.38 0854.73
2009/04/23 12:31:00.9    -171      0    -72    172    186 270.0 -28.5  34152  289.43 0854.73
2009/04/23 12:31:01.0    -103     15    -29    105    109 278.4 -15.5  34152  289.45 0854.73
2009/04/23 12:31:01.1     -89     61     38    109    116 304.6  19.2  34154  289.48 0854.73
2009/04/23 12:31:01.2     -54     39     53     67     85 306.0  42.7  34152  289.45 0854.73
2009/04/23 12:31:01.3    -112     15     22    114    117 278.0  11.1  34150  289.40 0854.75
2009/04/23 12:31:01.4    -153     11     57    154    164 274.4  21.0  34152  289.43 0854.75
2009/04/23 12:31:01.5    -143     23     42    145    152 279.2  16.3  34154  289.46 0854.75
2009/04/23 12:31:01.6     -99     63     35    118    124 302.4  16.8  34148  289.36 0854.75
2009/04/23 12:31:01.7    -128     17     53    130    140 277.9  23.1  34152  289.43 0854.75
2009/04/23 12:31:01.8    -130    -91    -15    160    161 234.9  -5.6  34150  289.40 0854.75
2009/04/23 12:31:01.9    -143    -39    -24    149    152 254.5  -9.3  34152  289.45 0854.75
2009/04/23 12:31:02.0    -159    -13    -98    160    187 265.2 -39.2  34150  289.41 0854.75
2009/04/23 12:31:02.1    -182    -38    -19    186    188 258.1  -6.0  34146  289.33 0854.75
2009/04/23 12:31:02.2    -160    -58    -46    171    178 250.0 -15.2  34152  289.43 0854.75
2009/04/23 12:31:02.3    -141   -133    -82    194    210 226.7 -28.7  34150  289.41 0854.75
2009/04/23 12:31:02.4    -149   -173     -8    229    230 220.8  -2.2  34146  289.35 0854.75
2009/04/23 12:31:02.5    -132   -180    -15    224    225 216.1  -3.9  34152  289.43 0854.75
2009/04/23 12:31:02.6    -103   -225    -17    248    249 204.7  -4.1  34146  289.34 0854.75
2009/04/23 12:31:02.7    -154   -100    -87    184    203 236.9 -31.6  34152  289.43 0854.75
2009/04/23 12:31:02.8    -173   -101    -46    201    207 239.6 -12.9  34152  289.45 0854.75
2009/04/23 12:31:02.9     -96   -189     38    213    217 207.0  10.3  34152  289.43 0854.75
2009/04/23 12:31:03.0    -105   -196    -79    223    236 208.1 -24.6  34146  289.35 0854.75
2009/04/23 12:31:03.1    -112   -224     -1    251    252 206.5  -0.3  34152  289.44 0854.75
2009/04/23 12:31:03.2     -89   -207     66    226    236 203.2  16.3  34150  289.40 0854.75
2009/04/23 12:31:03.3    -165   -226     38    281    284 216.1   7.8  34148  289.36 0854.75
2009/04/23 12:31:03.4    -170   -206    -44    268    272 219.6  -9.3  34156  289.49 0854.75
2009/04/23 12:31:03.5    -251   -172    -55    305    310 235.6 -10.3  34164  289.63 0854.75
2009/04/23 12:31:03.6    -167   -171    -36    240    243 224.3  -8.6  34160  289.58 0854.75
2009/04/23 12:31:03.7    -210   -136     -1    251    252 237.1  -0.3  34162  289.59 0854.75
2009/04/23 12:31:03.8    -201   -147    -50    250    256 233.8 -11.5  34162  289.61 0854.75
2009/04/23 12:31:03.9    -256   -120    -46    283    287 244.8  -9.3  34162  289.59 0854.75
2009/04/23 12:31:04.0    -239   -145    -40    280    283 238.7  -8.2  34154  289.47 0854.75
2009/04/23 12:31:04.1    -222   -200    -37    299    302 228.0  -7.2  34160  289.56 0854.75
2009/04/23 12:31:04.2    -291   -163   -100    334    349 240.7 -16.8  34126  288.98 0854.75
2009/04/23 12:31:04.3    -295   -118   -113    318    337 248.2 -24.6  34136  289.16 0854.75
2009/04/23 12:31:04.4    -266    -37   -122    269    295 262.0 -30.6  34128  289.02 0854.75
2009/04/23 12:31:04.5    -388    -19    -42    389    392 267.1  -6.3  34154  289.47 0854.75
2009/04/23 12:31:04.6    -351    -60    -86    357    368 260.2 -13.6  34154  289.47 0854.75
2009/04/23 12:31:04.7    -333   -207    101    393    406 238.1  14.5  34158  289.54 0854.75
2009/04/23 12:31:04.8    -174   -224     66    284    292 217.9  13.1  34152  289.42 0854.75
2009/04/23 12:31:04.9     -90   -260     61    276    283 199.2  12.6  34150  289.39 0854.75
2009/04/23 12:31:05.0     -75   -259    -30    270    272 196.3  -6.5  34148  289.36 0854.75
2009/04/23 12:31:05.1      -9   -254     -9    255    256 182.2  -2.2  34146  289.32 0854.75
2009/04/23 12:31:05.2     -72   -280     19    290    291 194.5   3.8  34150  289.39 0854.75
2009/04/23 12:31:05.3    -130   -228     -1    263    264 209.6  -0.3  34146  289.34 0854.75
2009/04/23 12:31:05.4    -128   -210    -16    247    248 211.4  -3.9  34150  289.39 0854.75
2009/04/23 12:31:05.5    -115   -204     25    235    237 209.4   6.1  34150  289.41 0854.75
2009/04/23 12:31:05.6    -136   -187     11    232    233 216.0   2.9  34148  289.36 0854.75
2009/04/23 12:31:05.7    -106   -223      3    248    249 205.5   0.8  34150  289.41 0854.75
2009/04/23 12:31:05.8    -103   -216    -37    240    243 205.5  -8.8  34148  289.36 0854.75
2009/04/23 12:31:05.9     -88   -243    -52    259    265 200.0 -11.5  34150  289.39 0854.75
2009/04/23 12:31:06.0     -43   -252    -10    256    257 189.7  -2.2  34148  289.36 0854.75
2009/04/23 12:31:06.1     -79   -219     24    234    236 200.0   5.9  34146  289.32 0854.75
2009/04/23 12:31:06.2     -90   -202     -1    222    223 204.1  -0.3  34148  289.36 0854.75
2009/04/23 12:31:06.3     -72   -203     -4    216    217 199.6  -1.3  34148  289.38 0854.75
2009/04/23 12:31:06.4     -62   -202      4    212    213 197.2   1.2  34146  289.35 0854.75
2009/04/23 12:31:06.5    -211   -169    -35    271    274 231.4  -7.5  34148  289.36 0854.75
2009/04/23 12:31:06.6    -237    -94    -80    256    269 248.3 -17.5  34140  289.24 0854.75
2009/04/23 12:31:06.7    -221   -228    -22    318    319 224.1  -4.1  34146  289.32 0854.75
2009/04/23 12:31:06.8    -281   -216    -65    355    361 232.5 -10.5  34142  289.25 0854.75
2009/04/23 12:31:06.9    -281   -164    -98    326    341 239.6 -16.8  34130  289.08 0854.75
2009/04/23 12:31:07.0    -275   -122    -77    301    311 246.0 -14.5  34134  289.14 0854.75
2009/04/23 12:31:07.1    -232   -186    -69    298    307 231.3 -13.2  34142  289.27 0854.75
2009/04/23 12:31:07.2    -273   -218    -48    350    354 231.4  -7.9  34144  289.30 0854.75
2009/04/23 12:31:07.3    -246   -137    -15    282    283 240.9  -3.1  34144  289.31 0854.77
2009/04/23 12:31:07.4    -233   -123    -35    264    267 242.2  -7.7  34144  289.31 0854.77
2009/04/23 12:31:07.5    -264   -167    -85    313    325 237.8 -15.2  34134  289.14 0854.77
2009/04/23 12:31:07.6    -302   -104    -76    320    329 251.0 -13.4  34132  289.09 0854.77
2009/04/23 12:31:07.7    -330   -109   -123    348    369 251.6 -24.6  34130  289.08 0854.77
2009/04/23 12:31:07.8    -427   -100   -157    439    466 256.8 -24.8  34142  289.26 0854.77
2009/04/23 12:31:07.9    -363    -66    -96    369    382 259.7 -14.6  34152  289.43 0854.77
2009/04/23 12:31:08.0    -349    -76    -62    358    364 257.6  -9.9  34156  289.50 0854.77
2009/04/23 12:31:08.1    -361    -92     15    373    374 255.7   2.3  34144  289.30 0854.77
2009/04/23 12:31:08.2    -422    -73    -57    429    433 260.1  -7.7  34142  289.26 0854.77
2009/04/23 12:31:08.3    -381    -36   -126    383    403 264.6 -23.5  34138  289.20 0854.75
2009/04/23 12:31:08.4    -352    -43   -116    355    373 262.9 -23.3  34136  289.16 0854.75
2009/04/23 12:31:08.5    -311    -93    -94    325    338 253.2 -20.9  34138  289.21 0854.75
2009/04/23 12:31:08.6    -337    -17   -118    338    358 267.1 -24.5  34142  289.28 0854.75
2009/04/23 12:31:08.7    -414    -16   -197    415    459 267.7 -31.6  34130  289.07 0854.75
2009/04/23 12:31:08.8    -444    -34   -205    446    490 265.6 -30.9  34134  289.13 0854.75
2009/04/23 12:31:08.9    -437    -67   -137    443    464 261.2 -17.2  34144  289.31 0854.75
2009/04/23 12:31:09.0    -402    -74   -194    409    452 259.5 -31.6  34144  289.31 0854.75
2009/04/23 12:31:09.1    -418     -5   -121    419    436 269.2 -20.9  34144  289.31 0854.75
2009/04/23 12:31:09.2    -269    -11    -24    270    272 267.5  -5.1  34146  289.32 0854.75
2009/04/23 12:31:09.3    -160     12     26    161    164 274.4   9.3  34144  289.31 0854.75
2009/04/23 12:31:09.4    -130     61     12    144    145 295.4   4.9  34144  289.30 0854.75
2009/04/23 12:31:09.5     -65    104    -38    123    129 327.9 -17.5  34146  289.35 0854.75
2009/04/23 12:31:09.6     -60     96    -37    114    119 327.9 -23.3  34148  289.38 0854.75
2009/04/23 12:31:09.7     -13     66    -34     68     76 348.4 -32.6  34150  289.40 0854.75
2009/04/23 12:31:09.8      35     35    -27     50     56  45.0 -34.7  34150  289.40 0854.75
2009/04/23 12:31:09.9      87    -39    -48     96    107 114.0 -32.2  34148  289.36 0854.75
2009/04/23 12:31:10.0     132    -89    -34    160    164 124.1 -12.2  34146  289.35 0854.75
2009/04/23 12:31:10.1     176   -112    -49    209    215 122.5 -13.4  34142  289.28 0854.75
2009/04/23 12:31:10.2     192   -130    -21    232    234 124.1  -5.4  34144  289.31 0854.75
2009/04/23 12:31:10.3     197   -167      9    259    260 130.4   2.1  34142  289.25 0854.74
2009/04/23 12:31:10.4     168   -160     50    233    239 133.6  12.1  34144  289.29 0854.74
2009/04/23 12:31:10.5     199    -72     -8    212    213 109.9  -2.2  34142  289.26 0854.74
2009/04/23 12:31:10.6     178   -166    -40    244    248 133.1  -9.4  34142  289.27 0854.74
2009/04/23 12:31:10.7     179   -139   -110    227    252 127.8 -31.8  34142  289.27 0854.74
2009/04/23 12:31:10.8     238   -130   -105    272    291 118.8 -26.4  34140  289.24 0854.74
2009/04/23 12:31:10.9     261   -108    -87    283    296 112.6 -22.1  34138  289.20 0854.74
2009/04/23 12:31:11.0     154   -180   -105    238    260 139.5 -29.6  34146  289.32 0854.74
2009/04/23 12:31:11.1     158   -223   -169    274    321 144.6 -39.2  34148  289.37 0854.74
2009/04/23 12:31:11.2     178   -243   -135    302    330 143.7 -30.1  34144  289.29 0854.74
2009/04/23 12:31:11.3     193   -106   -117    221    250 118.9 -34.6  34136  289.17 0854.74
2009/04/23 12:31:11.4     185     -6    -90    186    206  91.9 -31.7  34136  289.16 0854.74
2009/04/23 12:31:11.5     264      7    -68    265    274  88.3 -14.5  34130  289.07 0854.74
2009/04/23 12:31:11.6     397    -19    -38    398    400  92.8  -5.5  34132  289.10 0854.74
2009/04/23 12:31:11.7     406     -7   -124    407    426  91.0 -17.0  34134  289.12 0854.74
2009/04/23 12:31:11.8     317     19     55    318    323  86.5   9.9  34134  289.12 0854.74
2009/04/23 12:31:11.9     312    126    166    337    375  68.0  28.1  34134  289.13 0854.74
2009/04/23 12:31:12.0     247    136    194    283    343  61.2  37.8  34134  289.12 0854.74
2009/04/23 12:31:12.1     231    127    128    264    293  61.2  27.4  34132  289.09 0854.74
2009/04/23 12:31:12.2     263    166    115    312    332  57.8  21.1  34134  289.12 0854.74
2009/04/23 12:31:12.3     238    174     94    295    310  53.8  17.7  34138  289.19 0854.75
2009/04/23 12:31:12.4     232    128    172    266    316  61.1  36.0  34134  289.12 0854.75
2009/04/23 12:31:12.5     197     94    185    219    286  64.5  44.5  34132  289.09 0854.75
2009/04/23 12:31:12.6     186    153    152    241    284  50.5  35.5  34132  289.10 0854.75
2009/04/23 12:31:12.7     228    155    115    276    299  55.8  23.8  34136  289.17 0854.75
2009/04/23 12:31:12.8     189    149    120    241    269  51.8  28.2  34138  289.20 0854.75
2009/04/23 12:31:12.9     236    138     97    274    291  59.6  19.6  34136  289.15 0854.75
2009/04/23 12:31:13.0     196    162    113    255    278  50.4  25.3  34144  289.31 0854.75
2009/04/23 12:31:13.1     194    107     80    222    235  61.1  20.7  34140  289.23 0854.75
2009/04/23 12:31:13.2     198    126    111    235    259  57.5  27.1  34136  289.15 0854.75
2009/04/23 12:31:13.3     193    112    120    224    254  60.0  30.3  34144  289.31 0854.75
2009/04/23 12:31:13.4     173    147     84    228    242  49.6  21.0  34134  289.12 0854.75
2009/04/23 12:31:13.5     148    148     66    210    221  45.0  17.4  34138  289.19 0854.75
2009/04/23 12:31:13.6     166    119     70    205    217  54.3  18.9  34134  289.14 0854.75
2009/04/23 12:31:13.7     134    152     76    204    217  41.4  21.3  34148  289.36 0854.75
2009/04/23 12:31:13.8     109    111     34    156    160  44.5  12.6  34152  289.43 0854.75
2009/04/23 12:31:13.9     152     69     73    167    182  65.6  25.1  34144  289.30 0854.75
2009/04/23 12:31:14.0     128     93     97    159    186  54.0  34.8  34146  289.35 0854.75
2009/04/23 12:31:14.1     114    162     70    199    211  35.2  19.4  34142  289.28 0854.75
2009/04/23 12:31:14.2     132     89     31    160    164  55.8  11.1  34154  289.48 0854.75
2009/04/23 12:31:14.3     130    104     29    167    170  51.4  10.1  34144  289.30 0854.78
2009/04/23 12:31:14.4     112     97     49    149    158  49.1  18.4  34146  289.33 0854.78
2009/04/23 12:31:14.5     139     94     30    169    172  55.8  10.1  34144  289.31 0854.78
2009/04/23 12:31:14.6     148     80     27    169    172  61.4   9.3  34138  289.19 0854.78
2009/04/23 12:31:14.7     112     66     43    131    139  59.3  18.4  34140  289.23 0854.78
2009/04/23 12:31:14.8      82     92     51    124    134  41.4  23.1  34142  289.26 0854.78
2009/04/23 12:31:15.0      83    155     36    176    180  28.3  11.6  34142  289.26 0854.78
2009/04/23 12:31:15.0      70    160     23    175    177  23.8   7.5  34168  289.70 0854.78
2009/04/23 12:31:15.1      95    144     20    173    175  33.4   6.9  34238  290.89 0854.78
2009/04/23 12:31:15.2     125    123     -1    176    177  45.6  -0.5  34160  289.57 0854.78
2009/04/23 12:31:15.3     103    113     20    154    156  42.3   7.5  34168  289.70 0854.78
2009/04/23 12:31:15.4      75    114     46    137    145  33.4  18.9  34212  290.45 0854.78
2009/04/23 12:31:15.5     131    139     24    192    194  43.4   7.2  34248  291.06 0854.78
2009/04/23 12:31:15.6     138    146     -9    202    203  43.3  -2.6  34278  291.57 0854.78
2009/04/23 12:31:15.7      69    110     48    131    139  32.1  20.9  34280  291.62 0854.78
2009/04/23 12:31:15.8      43    111     83    120    145  21.4  37.6  34298  291.93 0854.78
2009/04/23 12:31:15.9      37     83     65     92    112  24.1  39.1  34282  291.64 0854.78
2009/04/23 12:31:16.0      23     40     81     47     93  29.9  66.8  34246  291.03 0854.78
2009/04/23 12:31:16.1      -9     35     89     37     96 344.9  76.6  34246  291.04 0854.78
2009/04/23 12:31:16.2      89     31     70     95    118  70.9  40.1  34202  290.30 0854.78
2009/04/23 12:31:16.3      98     26     75    102    126  74.9  39.7  34184  289.99 0854.78
2009/04/23 12:31:16.4      73     37     79     82    113  62.9  49.4  34204  290.31 0854.78
2009/04/23 12:31:16.5      43     26     82     51     96  58.5  64.7  34208  290.40 0854.78
2009/04/23 12:31:16.6      90      9    101     91    135  84.3  53.3  34230  290.75 0854.78
2009/04/23 12:31:16.7      71     -3     35     72     80  92.6  27.8  34200  290.26 0854.78
2009/04/23 12:31:16.8      56    -13     41     58     71 103.3  39.5  34180  289.91 0854.78
2009/04/23 12:31:16.9      49    -15     54     52     74 107.7  49.1  34182  289.94 0854.78
2009/04/23 12:31:17.0      46     14     11     49     51  73.2  13.2  34230  290.77 0854.78
2009/04/23 12:31:17.1      47    -10    -17     49     53 102.4 -19.7  34248  291.08 0854.78
2009/04/23 12:31:17.2       3    -39    -36     40     53 175.5 -52.3  34264  291.35 0854.78
2009/04/23 12:31:17.3     -11    -35    -21     37     42 198.7 -36.8  34260  291.28 0854.78
2009/04/23 12:31:17.4      -5     16      0     17     18 341.5  -2.2  34244  291.01 0854.78
2009/04/23 12:31:17.5     -63      0     -8     64     65 270.0  -7.2  34238  290.91 0854.78
2009/04/23 12:31:17.6     -61    -43     23     75     79 234.9  17.3  34234  290.84 0854.78
2009/04/23 12:31:17.7     -57    -58     24     82     86 224.5  16.3  34230  290.77 0854.78
2009/04/23 12:31:17.8     -67    -71    -35     98    105 223.2 -19.7  34222  290.64 0854.78
2009/04/23 12:31:17.9     -65    -76    -39    101    108 220.5 -26.9  34222  290.64 0854.78
2009/04/23 12:31:18.1     -43    -77    -34     89     95 209.0 -25.4  34228  290.74 0854.78
2009/04/23 12:31:18.2     -34    -83    -49     90    102 202.7 -35.7  34228  290.74 0854.78
2009/04/23 12:31:18.3     -59    -56    -51     82     96 226.4 -39.9  34240  290.94 0854.78
2009/04/23 12:31:18.4     -61    -84    -53    105    117 216.1 -33.1  34248  291.08 0854.78
2009/04/23 12:31:18.5     -70    -30    -32     77     83 246.5 -28.0  34246  291.04 0854.78
2009/04/23 12:31:18.6     -37      4    -24     38     44 276.1 -39.9  34260  291.26 0854.78
2009/04/23 12:31:18.7     -51    -63    -22     82     85 218.7 -15.0  34256  291.21 0854.78
2009/04/23 12:31:18.8     -97    -93    -24    135    138 226.0 -10.3  34248  291.06 0854.78
2009/04/23 12:31:18.9    -109    -60    -38    125    130 241.2 -21.8  34264  291.33 0854.78
2009/04/23 12:31:19.0    -136    -32    -68    140    155 256.7 -31.7  34262  291.32 0854.78
2009/04/23 12:31:19.1    -139    -23    -84    142    164 260.3 -38.1  34230  290.75 0854.78
2009/04/23 12:31:19.2    -123    -41    -74    130    149 251.4 -36.3  34222  290.64 0854.78
2009/04/23 12:31:19.3    -121    -43    -41    129    136 250.1 -17.6  34236  290.86 0854.78
2009/04/23 12:31:19.4     -84    -17    -92     86    125 258.5 -56.5  34224  290.65 0854.78
2009/04/23 12:31:19.5     -51    -15    -63     54     82 253.2 -59.2  34198  290.21 0854.78
2009/04/23 12:31:19.6     -64    -16    -49     66     82 255.8 -45.1  34196  290.19 0854.78
2009/04/23 12:31:19.7     -84    -28    -25     89     93 251.6 -16.0  34174  289.82 0854.78
2009/04/23 12:31:19.8     -94    -88    -41    129    136 226.8 -17.6  34170  289.74 0854.78
2009/04/23 12:31:19.9     -76   -161     20    179    181 205.3   6.5  34194  290.14 0854.78
2009/04/23 12:31:20.0      -6   -139     53    140    149 182.7  21.0  34190  290.09 0854.78
2009/04/23 12:31:20.1      31   -174     -6    177    178 169.8  -2.2  34156  289.50 0854.78
2009/04/23 12:31:20.2      58   -178     -7    188    189 162.0  -2.2  34146  289.35 0854.78
2009/04/23 12:31:20.3       0   -193     20    194    196 180.2   5.9  34162  289.60 0854.78
2009/04/23 12:31:20.4     -59   -197     -9    206    207 196.7  -2.6  34160  289.57 0854.77
2009/04/23 12:31:20.5     -61   -201    -11    211    212 197.0  -3.1  34186  290.01 0854.77
2009/04/23 12:31:20.6     -84   -194    -36    212    216 203.6  -9.6  34186  290.01 0854.77
2009/04/23 12:31:20.7     -52   -206    -26    213    215 194.3  -7.2  34168  289.70 0854.77
2009/04/23 12:31:20.8     -35   -198      4    202    203 190.2   1.2  34170  289.74 0854.77
2009/04/23 12:31:20.9     -59   -231      9    239    240 194.5   2.3  34162  289.61 0854.77
2009/04/23 12:31:21.0     -69   -236     27    246    248 196.3   6.5  34162  289.61 0854.77
2009/04/23 12:31:21.1     -37   -191     67    195    207 191.1  18.9  34168  289.72 0854.77
2009/04/23 12:31:21.2      -3   -189     57    190    199 181.0  16.8  34158  289.53 0854.77
2009/04/23 12:31:21.3     -49   -207     55    213    221 193.4  14.5  34164  289.63 0854.77
2009/04/23 12:31:21.4     -66   -190     10    202    203 199.2   2.9  34160  289.58 0854.77
2009/04/23 12:31:21.5     -57   -181     29    190    193 197.6   8.9  34164  289.65 0854.77
2009/04/23 12:31:21.6     -26   -199     89    201    219 187.6  25.3  34168  289.70 0854.77
2009/04/23 12:31:21.7      32   -163     86    167    187 168.7  29.3  34170  289.74 0854.77
2009/04/23 12:31:21.8      95   -199     60    221    230 154.5  15.2  34156  289.50 0854.77
2009/04/23 12:31:21.9     188   -213    -11    285    286 138.5  -2.2  34160  289.56 0854.77
2009/04/23 12:31:22.0      61   -259     37    267    270 166.6   8.0  34162  289.61 0854.77
2009/04/23 12:31:22.1      11   -207     60    208    217 176.9  16.3  34158  289.53 0854.77
2009/04/23 12:31:22.2     -86   -182     73    202    214 205.4  20.7  34162  289.60 0854.77
2009/04/23 12:31:22.3     -31   -184    118    187    221 189.8  35.5  34162  289.62 0854.77
2009/04/23 12:31:22.4      46   -207    146    213    258 167.5  37.6  34156  289.51 0854.76
2009/04/23 12:31:22.5       8    -36    137     38    142 166.6  84.8  34154  289.46 0854.76
2009/04/23 12:31:22.6      59   -153     84    165    185 158.8  29.1  34146  289.33 0854.76
2009/04/23 12:31:22.7     -14   -181     22    182    184 184.5   6.9  34146  289.35 0854.76
2009/04/23 12:31:22.8       8   -229    -37    230    234 177.8  -9.3  34144  289.30 0854.76
2009/04/23 12:31:22.9     -59   -289    -11    296    297 191.6  -2.2  34152  289.42 0854.76
2009/04/23 12:31:23.0     -21   -285    -26    286    288 184.4  -5.2  34146  289.34 0854.76
2009/04/23 12:31:23.1      53   -287      9    292    293 169.4   1.8  34144  289.31 0854.76
2009/04/23 12:31:23.2      81   -273     29    285    287 163.5   5.9  34140  289.22 0854.76
2009/04/23 12:31:23.3      57   -311   -100    317    333 169.5 -17.6  34146  289.34 0854.76
2009/04/23 12:31:23.4      42   -300    -78    304    315 171.9 -14.5  34148  289.36 0854.76
2009/04/23 12:31:23.5      93   -312   -103    326    343 163.3 -17.6  34140  289.23 0854.76
2009/04/23 12:31:23.6     130   -263      4    294    295 153.7   0.8  34142  289.27 0854.76
2009/04/23 12:31:23.7      85   -272    -60    286    293 162.6 -11.9  34146  289.34 0854.76
2009/04/23 12:31:23.8      69   -285    -81    294    305 166.4 -15.4  34144  289.31 0854.76
2009/04/23 12:31:23.9      -2   -233    -61    234    242 180.5 -14.7  34148  289.36 0854.76
2009/04/23 12:31:24.0     -16   -183    -92    184    205 185.1 -32.9  34148  289.38 0854.76
2009/04/23 12:31:24.1     -23   -153    -87    155    177 188.9 -36.0  34148  289.36 0854.76
2009/04/23 12:31:24.2     -20   -151   -104    153    185 187.6 -41.7  34148  289.36 0854.76
2009/04/23 12:31:24.3     -79   -163    -43    182    188 205.9 -13.4  34152  289.43 0854.76
2009/04/23 12:31:24.4      12   -199    -66    200    210 176.4 -23.8  34148  289.36 0854.74
2009/04/23 12:31:24.5     -21   -243    -76    245    257 185.1 -17.3  34142  289.27 0854.74
2009/04/23 12:31:24.6      24   -245     22    247    249 174.4   5.2  34136  289.17 0854.74
2009/04/23 12:31:24.7      93   -145     62    173    183 147.4  20.2  34140  289.24 0854.74
2009/04/23 12:31:24.8      43   -195     25    200    202 167.3   7.2  34146  289.33 0854.74
2009/04/23 12:31:24.9      22   -291     57    292    298 175.5  11.1  34142  289.27 0854.74
2009/04/23 12:31:25.0     -27   -230     63    232    241 186.7  15.3  34146  289.34 0854.74
2009/04/23 12:31:25.1     -24   -276    123    278    303 185.1  25.3  34146  289.32 0854.74
2009/04/23 12:31:25.2       1   -224    178    225    286 179.5  42.4  34144  289.31 0854.74
2009/04/23 12:31:25.3    -114   -286    108    309    328 201.8  19.4  34146  289.34 0854.74
2009/04/23 12:31:25.4     -61   -359    132    365    389 189.7  19.9  34146  289.32 0854.74
2009/04/23 12:31:25.5     -20   -334     72    335    343 183.5  12.2  34144  289.30 0854.74
2009/04/23 12:31:25.6     -10   -310     40    311    314 182.0   7.5  34144  289.29 0854.74
2009/04/23 12:31:25.7     -24   -318     24    320    321 184.5   4.3  34146  289.32 0854.74
2009/04/23 12:31:25.8     -41   -290     57    293    299 188.1  11.0  34144  289.29 0854.74
2009/04/23 12:31:25.9     -99   -310    -12    326    327 197.8  -2.2  34146  289.32 0854.74
2009/04/23 12:31:26.0     -50   -311    -60    316    322 189.1 -10.8  34150  289.39 0854.74
2009/04/23 12:31:26.1     -42   -325    -41    328    331 187.4  -7.2  34150  289.40 0854.74
2009/04/23 12:31:26.2     -61   -331    -64    337    344 190.6 -10.9  34152  289.42 0854.74
2009/04/23 12:31:26.3      -5   -290    -46    291    295 181.1  -9.0  34150  289.41 0854.74
2009/04/23 12:31:26.4      35   -320   -119    323    344 173.7 -25.5  34146  289.33 0854.74
2009/04/23 12:31:26.5      66   -301   -140    309    339 167.5 -30.4  34146  289.32 0854.74
2009/04/23 12:31:26.6      71   -288   -107    297    315 166.0 -25.1  34146  289.32 0854.74
2009/04/23 12:31:26.7      89   -252   -118    268    292 160.6 -29.6  34146  289.34 0854.74
2009/04/23 12:31:26.8      84   -219    -81    235    249 158.8 -19.1  34146  289.34 0854.74
2009/04/23 12:31:26.9      33   -218    -74    221    234 171.3 -18.6  34144  289.30 0854.74
2009/04/23 12:31:27.0     100   -190    -11    215    216 152.1  -3.1  34142  289.28 0854.74
2009/04/23 12:31:27.1     103   -190    -25    217    219 151.5  -6.7  34146  289.33 0854.74
2009/04/23 12:31:27.2      43   -180     -5    186    187 166.4  -1.8  34142  289.26 0854.74
2009/04/23 12:31:27.3      18   -177   -124    178    216 174.0 -42.8  34144  289.31 0854.74
2009/04/23 12:31:27.4       0   -233   -150    234    277 180.0 -40.0  34146  289.32 0854.74
2009/04/23 12:31:27.5      13   -282   -203    283    348 177.3 -43.7  34144  289.29 0854.74
2009/04/23 12:31:27.6      -7   -251   -178    252    308 181.8 -43.2  34148  289.37 0854.74
2009/04/23 12:31:27.7      21   -276   -173    277    326 175.5 -39.5  34150  289.39 0854.74
2009/04/23 12:31:27.8      32   -276   -149    278    315 173.3 -35.0  34148  289.36 0854.74
2009/04/23 12:31:27.9      55   -269   -123    275    301 168.4 -30.1  34146  289.34 0854.74
2009/04/23 12:31:28.0      14   -310    -95    311    326 177.4 -17.0  34150  289.39 0854.74
2009/04/23 12:31:28.1      45   -313    -83    317    328 171.8 -14.8  34144  289.29 0854.74
2009/04/23 12:31:28.2      34   -308    -62    310    317 173.5 -11.3  34144  289.31 0854.74
2009/04/23 12:31:28.3       3   -318    -74    319    328 179.3 -13.2  34148  289.36 0854.74
2009/04/23 12:31:28.4       5   -313    -84    314    326 179.0 -15.1  34146  289.32 0854.77
2009/04/23 12:31:28.5      23   -289    -98    291    308 175.3 -18.7  34150  289.41 0854.77
2009/04/23 12:31:28.6      32   -299    -92    301    314 173.8 -21.9  34152  289.44 0854.77
2009/04/23 12:31:28.7      35   -252   -115    255    279 172.0 -30.3  34152  289.42 0854.77
2009/04/23 12:31:28.8      28   -202   -126    205    240 172.0 -38.8  34148  289.36 0854.77
2009/04/23 12:31:28.9      11   -138   -163    139    214 175.1 -59.8  34146  289.33 0854.77
2009/04/23 12:31:29.0      75   -188   -152    203    253 158.2 -45.0  34150  289.41 0854.77
2009/04/23 12:31:29.1      97   -292   -104    308    325 161.5 -23.7  34146  289.34 0854.77
2009/04/23 12:31:29.2      98   -329      4    344    345 163.4   0.7  34148  289.38 0854.77
2009/04/23 12:31:29.3      38   -366     11    369    370 174.0   1.7  34146  289.35 0854.77
2009/04/23 12:31:29.4      69   -295    -16    304    305 166.7  -3.1  34144  289.31 0854.78
2009/04/23 12:31:29.5      44   -279    -15    283    284 170.9  -3.2  34146  289.34 0854.78
2009/04/23 12:31:29.6      36   -266      1    269    270 172.2   0.2  34146  289.34 0854.78
2009/04/23 12:31:29.7      -8   -280      8    281    282 181.8   1.7  34146  289.34 0854.78
2009/04/23 12:31:29.8       3   -254     -1    255    256 179.1  -0.3  34150  289.39 0854.78
2009/04/23 12:31:29.9     -22   -236      0    238    239 185.3   0.2  34148  289.37 0854.78
2009/04/23 12:31:30.0     -12   -232     24    233    235 183.1   5.9  34144  289.31 0854.78
2009/04/23 12:31:30.1      45   -211      7    216    217 167.7   2.1  34148  289.36 0854.78
2009/04/23 12:31:30.2     -60   -205     46    214    219 196.3  12.2  34144  289.30 0854.78
2009/04/23 12:31:30.3     -47   -200     59    206    215 193.4  16.0  34146  289.33 0854.78
2009/04/23 12:31:30.4     -39   -193     46    198    204 191.6  13.2  34146  289.35 0854.78
2009/04/23 12:31:30.5     -21   -175     77    177    193 186.9  24.9  34148  289.36 0854.78
2009/04/23 12:31:30.6     -49   -206     82    212    227 193.4  22.5  34144  289.31 0854.78
2009/04/23 12:31:30.7    -149   -176     54    231    238 220.3  13.2  34144  289.31 0854.78
2009/04/23 12:31:30.8    -159   -156     78    223    237 225.6  19.4  34148  289.36 0854.78
2009/04/23 12:31:30.9     -33   -209    -36    212    216 189.1  -9.6  34148  289.36 0854.78
2009/04/23 12:31:31.0     -26   -243    -91    245    261 186.2 -25.7  34148  289.36 0854.78
2009/04/23 12:31:31.1     -50   -330    -67    334    341 188.7 -11.5  34146  289.33 0854.78
2009/04/23 12:31:31.2     -95   -354    -41    367    370 195.1  -6.5  34146  289.32 0854.78
2009/04/23 12:31:31.3     -41   -264    -90    268    283 188.9 -18.7  34146  289.34 0854.78
2009/04/23 12:31:31.4     -99   -228    -54    249    255 203.6 -12.4  34144  289.29 0854.76
2009/04/23 12:31:31.5     -94   -230    -79    249    262 202.3 -17.6  34146  289.34 0854.76
2009/04/23 12:31:31.6     -25   -282    -35    284    287 185.1  -7.2  34146  289.34 0854.76
2009/04/23 12:31:31.7     -74   -313    -21    322    323 193.4  -3.9  34148  289.36 0854.76
2009/04/23 12:31:31.8     -13   -286     24    287    289 182.7   4.9  34148  289.37 0854.76
2009/04/23 12:31:31.9      77   -273     89    284    298 164.2  17.4  34144  289.29 0854.76
2009/04/23 12:31:32.0     110   -180    143    212    255 148.6  37.3  34148  289.37 0854.76
2009/04/23 12:31:32.1      14   -188    131    189    229 175.5  38.0  34150  289.40 0854.76
2009/04/23 12:31:32.2     -88   -203     73    222    234 203.6  18.4  34146  289.35 0854.76
2009/04/23 12:31:32.3    -141   -238     56    277    283 210.7  11.4  34148  289.37 0854.76
2009/04/23 12:31:32.4     -58   -234    154    242    286 194.0  35.5  34144  289.31 0854.76
2009/04/23 12:31:32.5     -28   -307     90    309    322 185.3  16.3  34150  289.39 0854.76
2009/04/23 12:31:32.6       5   -313    107    314    332 179.0  18.8  34150  289.39 0854.76
2009/04/23 12:31:32.7     100   -304     60    321    327 161.7  10.6  34140  289.24 0854.76
2009/04/23 12:31:32.8      14   -299    116    300    321 177.3  22.2  34150  289.41 0854.76
2009/04/23 12:31:32.9     -17   -365     66    366    373 182.7  10.3  34142  289.28 0854.76
2009/04/23 12:31:33.0     -23   -364     50    365    369 183.7   7.9  34146  289.33 0854.76
2009/04/23 12:31:33.1     -22   -325     18    326    327 184.0   3.3  34144  289.29 0854.76
2009/04/23 12:31:33.2     -61   -255    109    263    284 193.6  24.1  34148  289.37 0854.76
2009/04/23 12:31:33.3     -59   -220    115    228    255 195.2  28.7  34152  289.42 0854.76
2009/04/23 12:31:33.4     -68   -169    103    183    209 201.8  31.9  34146  289.35 0854.77
2009/04/23 12:31:33.5     -70   -130    156    148    215 208.5  52.1  34146  289.35 0854.77
2009/04/23 12:31:33.6     -54    -66    130     86    155 219.6  64.1  34146  289.35 0854.77
2009/04/23 12:31:33.7     -48     43     77     65    100 312.2  55.8  34152  289.43 0854.77
2009/04/23 12:31:33.8      -8     62     66     63     91 352.0  51.2  34150  289.41 0854.77
2009/04/23 12:31:33.9      11     49     62     51     80  12.5  56.4  34156  289.50 0854.77
2009/04/23 12:31:34.0     -11     34     56     36     66 341.3  64.6  34154  289.48 0854.77
2009/04/23 12:31:34.1     -26    -17     43     32     53 235.8  59.4  34152  289.43 0854.77
2009/04/23 12:31:34.2     -48    -76     12     91     92 212.5   8.0  34146  289.33 0854.77
2009/04/23 12:31:34.3     -37   -122     52    128    138 196.9  23.1  34150  289.40 0854.77
2009/04/23 12:31:34.4      -2    -95     66     96    116 181.8  37.6  34150  289.40 0854.77
2009/04/23 12:31:34.5      12    -63     74     65     98 168.5  53.7  34148  289.38 0854.77
2009/04/23 12:31:34.6      12    -36     87     39     95 161.3  74.0  34150  289.41 0854.77
2009/04/23 12:31:34.7     -30    -87     75     93    119 199.2  43.3  34148  289.36 0854.77
2009/04/23 12:31:34.8     -26    -73     67     78    102 200.0  45.4  34150  289.41 0854.77
2009/04/23 12:31:34.9     -53    -63     56     83    100 220.5  37.0  34150  289.41 0854.77
2009/04/23 12:31:35.0     -70    -62     47     94    105 228.7  28.2  34148  289.36 0854.77
2009/04/23 12:31:35.1     -25    -61     57     67     87 202.7  44.8  34146  289.33 0854.77
2009/04/23 12:31:35.2      -7    -94     71     95    118 184.5  40.7  34144  289.30 0854.77
2009/04/23 12:31:35.3      -7    -41      2     42     43 190.7   2.9  34144  289.30 0854.77
2009/04/23 12:31:35.4      -1     76     41     77     87 359.0  30.3  34142  289.28 0854.76
2009/04/23 12:31:35.5     -72     50    123     88    151 305.1  60.6  34150  289.40 0854.76
2009/04/23 12:31:35.6     -39    -17    124     43    131 245.6  81.2  34150  289.40 0854.76
2009/04/23 12:31:35.7     -36    -52     82     64    104 214.3  57.9  34148  289.38 0854.76
2009/04/23 12:31:35.8     126    -73    133    146    197 120.2  47.1  34144  289.31 0854.76
2009/04/23 12:31:35.9      70    -33    194     78    209 115.4  77.1  34150  289.41 0854.76
2009/04/23 12:31:36.0     148     29    313    151    347  78.6  72.7  34156  289.51 0854.76
2009/04/23 12:31:36.1     206     16    262    207    333  85.4  57.8  34158  289.54 0854.76
2009/04/23 12:31:36.2     -57     35    180     68    192 301.5  78.6  34166  289.67 0854.76
2009/04/23 12:31:36.3      33     43    196     55    203  37.0  84.1  34164  289.63 0854.76
2009/04/23 12:31:36.4     149     50    243    158    289  71.4  64.1  34156  289.51 0854.76
2009/04/23 12:31:36.5     161    -41    235    167    288 104.4  61.3  34150  289.39 0854.76
2009/04/23 12:31:36.6     165    -61    180    177    252 110.4  50.2  34148  289.36 0854.76
2009/04/23 12:31:36.7      97      7    145     98    175  85.6  63.2  34154  289.48 0854.76
2009/04/23 12:31:36.8      32    -20    157     39    161 122.5  86.2  34158  289.55 0854.76
2009/04/23 12:31:36.9      63   -190    179    201    269 161.5  46.4  34148  289.37 0854.76
2009/04/23 12:31:37.0     200   -214    190    294    350 137.0  35.6  34146  289.35 0854.76
2009/04/23 12:31:37.1     167   -263    156    312    348 147.5  28.5  34140  289.23 0854.76
2009/04/23 12:31:37.2     257   -132    229    290    369 117.3  42.3  34148  289.38 0854.76
2009/04/23 12:31:37.3     167    -78    173    185    253 115.1  48.0  34148  289.37 0854.76
2009/04/23 12:31:37.4     118    -39    172    125    212 108.4  60.6  34152  289.45 0854.68
2009/04/23 12:31:37.5      -7     35    120     36    125 348.4  82.7  34152  289.45 0854.68
2009/04/23 12:31:37.6       1     49    134     50    143   1.8  79.1  34156  289.52 0854.68
2009/04/23 12:31:37.7     -16    -28    113     33    117 210.7  82.8  34160  289.58 0854.68
2009/04/23 12:31:37.8      34    -54    116     65    132 147.5  68.8  34160  289.58 0854.68
2009/04/23 12:31:37.9     -33     26    125     43    132 308.6  81.2  34152  289.43 0854.68
2009/04/23 12:31:38.0     -15   -131    213    132    250 186.7  65.4  34154  289.46 0854.68
2009/04/23 12:31:38.1     -41   -107    228    115    255 201.4  71.4  34154  289.46 0854.68
2009/04/23 12:31:38.2     -41   -114    201    122    235 200.0  66.0  34150  289.40 0854.68
2009/04/23 12:31:38.3      59    -16    122     62    136 105.1  71.0  34158  289.53 0854.68
2009/04/23 12:31:38.4       5     21    146     22    147  15.1  90.0  34156  289.50 0854.68
2009/04/23 12:31:38.5     -15    -32    107     36    112 205.5  81.0  34162  289.60 0854.68
2009/04/23 12:31:38.6      22      0    104     23    106  90.8  88.5  34164  289.63 0854.68
2009/04/23 12:31:38.7      14     -6    113     16    114 115.3  90.0  34162  289.60 0854.68
2009/04/23 12:31:38.8       3     14     99     15    100  11.6  90.0  34162  289.62 0854.68
2009/04/23 12:31:38.9     -32    -67    139     75    157 205.3  69.3  34156  289.52 0854.68
2009/04/23 12:31:39.0      58     73    171     94    195  38.7  68.8  34156  289.52 0854.68
2009/04/23 12:31:39.1     -34    -11    107     36    112 251.4  81.0  34160  289.57 0854.68
2009/04/23 12:31:39.2       5    -81    115     82    141 176.0  60.6  34158  289.55 0854.68
2009/04/23 12:31:39.3     -25     53    155     59    165 334.7  78.4  34150  289.41 0854.68
2009/04/23 12:31:39.4      -1    -37    131     38    136 182.6  83.3  34158  289.53 0854.71
2009/04/23 12:31:39.5     -73    -46    100     87    132 237.5  54.3  34156  289.50 0854.71
2009/04/23 12:31:39.6     -65    -41     97     78    124 237.5  57.5  34154  289.48 0854.71
2009/04/23 12:31:39.7     -38    -38     99     55    113 225.0  68.8  34154  289.46 0854.71
2009/04/23 12:31:39.8     -58    -77     77     97    123 217.0  42.2  34154  289.46 0854.71
2009/04/23 12:31:39.9     -50   -148    101    157    186 198.7  35.6  34150  289.41 0854.71
2009/04/23 12:31:40.0      12   -159     94    160    185 175.6  33.5  34152  289.45 0854.71
2009/04/23 12:31:40.1       2   -142     72    143    160 179.0  28.7  34154  289.46 0854.71
2009/04/23 12:31:40.2     -41   -150     68    156    170 195.6  25.1  34150  289.41 0854.71
2009/04/23 12:31:40.3     -19   -135     69    137    153 188.0  28.7  34148  289.38 0854.71
2009/04/23 12:31:40.4      10   -104     86    105    135 174.2  43.7  34150  289.41 0854.71
2009/04/23 12:31:40.5      34   -145     60    150    161 166.6  23.0  34150  289.40 0854.71
2009/04/23 12:31:40.6      21   -152     63    154    166 171.9  23.6  34146  289.35 0854.71
2009/04/23 12:31:40.7      39   -238    125    242    272 170.7  29.3  34144  289.31 0854.71
2009/04/23 12:31:40.8      52   -258    114    264    287 168.4  25.1  34146  289.32 0854.71
2009/04/23 12:31:40.9      15   -230    113    231    257 176.2  28.2  34148  289.37 0854.71
2009/04/23 12:31:41.0      20   -167     83    169    188 172.9  28.0  34148  289.36 0854.71
2009/04/23 12:31:41.1     -61   -187     88    197    215 198.3  25.7  34148  289.38 0854.71
2009/04/23 12:31:41.2      -2   -146     98    147    176 180.9  36.7  34148  289.38 0854.71
2009/04/23 12:31:41.3     -27   -133    103    136    170 191.5  41.2  34150  289.40 0854.71
2009/04/23 12:31:41.4      -6   -155     88    156    179 182.2  31.9  34150  289.40 0854.73
2009/04/23 12:31:41.5      22   -159     27    161    164 172.0   9.5  34148  289.38 0854.73
2009/04/23 12:31:41.6     -25   -123     -3    126    127 191.6  -1.8  34148  289.38 0854.73
2009/04/23 12:31:41.7     -15    -74     -4     76     77 191.6  -3.1  34154  289.48 0854.73
2009/04/23 12:31:41.8       3    -68     23     69     73 177.3  18.9  34150  289.40 0854.73
2009/04/23 12:31:41.9     -14    -64     45     66     79 192.5  37.6  34146  289.35 0854.73
2009/04/23 12:31:42.0     -78    -61     48    100    110 231.8  27.3  34148  289.38 0854.73
2009/04/23 12:31:42.1     -77    -59     42     98    106 232.7  24.1  34148  289.36 0854.73
2009/04/23 12:31:42.2    -107    -53     28    120    124 243.4  13.2  34148  289.38 0854.73
2009/04/23 12:31:42.3    -125   -107     45    165    172 229.3  15.2  34148  289.38 0854.73
2009/04/23 12:31:42.4     -60   -102    111    119    162 210.7  48.2  34150  289.41 0854.73
2009/04/23 12:31:42.5    -149   -138    159    204    258 227.3  41.7  34148  289.36 0854.73
2009/04/23 12:31:42.6    -132   -137    151    191    243 224.1  42.4  34148  289.38 0854.73
2009/04/23 12:31:42.7    -137   -114     91    179    200 230.2  29.2  34148  289.36 0854.73
2009/04/23 12:31:42.8     -81    -95    133    125    182 220.5  52.0  34148  289.36 0854.73
2009/04/23 12:31:42.9    -121   -106    174    162    237 228.7  52.2  34154  289.48 0854.73
2009/04/23 12:31:43.0    -154    -80    140    174    223 242.5  43.3  34152  289.45 0854.73
2009/04/23 12:31:43.1     -66    -43    116     80    140 236.7  62.1  34154  289.48 0854.73
2009/04/23 12:31:43.2    -126    -68     64    144    157 241.6  25.3  34152  289.45 0854.73
2009/04/23 12:31:43.3    -114   -107     -1    157    158 226.8  -0.7  34150  289.40 0854.73
2009/04/23 12:31:43.4    -121    -70     -7    141    142 239.8  -3.1  34150  289.40 0854.74
2009/04/23 12:31:43.5     -43    -83     68     94    116 207.6  39.7  34150  289.41 0854.74
2009/04/23 12:31:43.7     -67    -98     50    119    129 214.3  24.1  34148  289.36 0854.74
2009/04/23 12:31:43.7     -99    -92     58    136    147 226.9  24.6  34146  289.35 0854.74
2009/04/23 12:31:43.8    -102    -86     58    134    146 230.0  25.1  34150  289.41 0854.74
2009/04/23 12:31:43.9    -134    -54     33    145    149 247.8  13.1  34162  289.60 0854.74
2009/04/23 12:31:44.0    -145    -39    -19    151    153 255.0  -7.2  34180  289.92 0854.74
2009/04/23 12:31:44.1    -131    -39      4    137    138 253.2   1.8  34190  290.09 0854.74
2009/04/23 12:31:44.2    -131    -34      0    136    137 255.4  -0.3  34184  289.97 0854.74
2009/04/23 12:31:44.3    -172    -69     18    186    187 248.0   5.7  34174  289.82 0854.74
2009/04/23 12:31:44.4    -176    -42     37    181    185 256.5  11.6  34162  289.62 0854.74
2009/04/23 12:31:44.6    -202    -81     42    218    223 248.2  11.0  34162  289.62 0854.74
2009/04/23 12:31:44.6    -179    -88     10    200    201 243.8   2.9  34156  289.50 0854.74
2009/04/23 12:31:44.7    -167    -79    -52    185    193 244.6 -15.8  34168  289.70 0854.74
2009/04/23 12:31:44.9    -138   -108      0    176    177 232.0  -0.3  34164  289.65 0854.74
2009/04/23 12:31:45.0     -94   -113     42    148    155 219.6  16.0  34156  289.50 0854.74
2009/04/23 12:31:45.1     -65   -166     86    179    198 201.6  27.4  34154  289.46 0854.74
2009/04/23 12:31:45.2     -31   -186     74    189    202 189.6  22.3  34152  289.43 0854.74
2009/04/23 12:31:45.3     -65   -177     66    189    201 200.3  19.2  34150  289.40 0854.74
2009/04/23 12:31:45.4     -72   -171     76    186    200 202.9  23.4  34152  289.43 0854.74
2009/04/23 12:31:45.5     -58   -194     59    203    212 196.7  16.3  34148  289.36 0854.75
2009/04/23 12:31:45.6    -113   -172     88    207    224 213.4  24.6  34148  289.38 0854.75
2009/04/23 12:31:45.7     -59   -135     80    148    168 203.6  30.8  34152  289.45 0854.75
2009/04/23 12:31:45.8     -35   -113     61    119    133 197.4  29.3  34154  289.48 0854.75
2009/04/23 12:31:45.9     -12   -121     74    122    142 185.8  34.4  34150  289.41 0854.75
2009/04/23 12:31:46.0     -16   -150     54    151    160 186.3  20.2  34154  289.48 0854.75
2009/04/23 12:31:46.1     -12   -158     93    159    184 184.4  33.1  34150  289.41 0854.75
2009/04/23 12:31:46.2      -1   -118     54    119    130 180.9  26.2  34160  289.58 0854.75
2009/04/23 12:31:46.3     -10   -136     90    137    163 184.5  36.3  34158  289.53 0854.75
2009/04/23 12:31:46.4     -39   -206    115    210    239 190.9  31.0  34158  289.53 0854.75
2009/04/23 12:31:46.5     -67   -180    116    193    225 200.5  34.0  34168  289.72 0854.75
2009/04/23 12:31:46.6     -70   -211     97    223    243 198.5  25.1  34166  289.68 0854.75
2009/04/23 12:31:46.7     -51   -212     84    219    234 193.6  22.0  34168  289.72 0854.75
2009/04/23 12:31:46.8     -76   -197     87    212    229 201.2  23.1  34172  289.77 0854.75
2009/04/23 12:31:46.9     -85   -184    123    203    237 204.9  34.2  34164  289.63 0854.75
2009/04/23 12:31:47.0    -105   -157    132    190    231 213.8  38.0  34168  289.72 0854.75
2009/04/23 12:31:47.1    -155   -134     72    206    219 229.1  19.4  34176  289.85 0854.75
2009/04/23 12:31:47.2     -87   -120    102    149    180 216.1  37.8  34158  289.53 0854.75
2009/04/23 12:31:47.3     -48   -102    143    113    182 205.4  57.5  34158  289.55 0854.75
2009/04/23 12:31:47.4     -14    -72    117     74    138 191.6  64.7  34154  289.48 0854.75
2009/04/23 12:31:47.5       9   -106    105    107    149 175.1  50.0  34156  289.52 0854.75
2009/04/23 12:31:47.6      -8   -131    129    132    184 183.6  49.8  34154  289.48 0854.75
2009/04/23 12:31:47.7      28   -106     95    110    145 164.9  45.4  34152  289.45 0854.75
2009/04/23 12:31:47.8      23    -97     63    100    118 166.6  35.5  34152  289.45 0854.75
2009/04/23 12:31:47.9       5   -106     60    107    122 177.3  31.4  34154  289.48 0854.75
2009/04/23 12:31:48.0      -7    -82    101     83    130 184.9  56.4  34154  289.48 0854.75
2009/04/23 12:31:48.1     -78   -107    115    133    175 216.0  45.4  34154  289.48 0854.75
2009/04/23 12:31:48.2     -53    -84    103    100    143 212.6  50.7  34158  289.53 0854.75
2009/04/23 12:31:48.3     -27    -96     93    100    136 196.0  47.9  34152  289.45 0854.75
2009/04/23 12:31:48.4      13   -187    124    188    225 176.0  36.3  34148  289.36 0854.75
2009/04/23 12:31:48.5      35   -213    154    216    265 170.7  39.3  34152  289.44 0854.75
2009/04/23 12:31:48.6      36   -211    119    215    245 170.3  31.4  34152  289.42 0854.75
2009/04/23 12:31:48.7     -25   -184    125    186    224 187.8  37.0  34148  289.38 0854.75
2009/04/23 12:31:48.8     -41   -196    138    201    243 192.0  37.6  34152  289.43 0854.75
2009/04/23 12:31:48.9     -35   -229     98    232    251 188.7  24.2  34152  289.42 0854.75
2009/04/23 12:31:49.0      33   -249    111    252    275 172.4  25.2  34150  289.41 0854.75
2009/04/23 12:31:49.1      14   -263    147    264    302 176.9  31.4  34150  289.39 0854.75
2009/04/23 12:31:49.2     -23   -215    193    217    290 186.3  46.2  34150  289.41 0854.75
2009/04/23 12:31:49.3     -14   -190    167    191    253 184.2  45.8  34152  289.42 0854.75
2009/04/23 12:31:49.4      34   -190    156    194    248 169.8  43.0  34154  289.46 0854.75
2009/04/23 12:31:49.5      15    -44     99     47    109 161.3  72.9  34150  289.40 0854.77
2009/04/23 12:31:49.6       2   -133    159    134    207 179.1  55.8  34154  289.46 0854.77
2009/04/23 12:31:49.7      38    -72    160     82    179 151.9  70.8  34156  289.50 0854.77
2009/04/23 12:31:49.8       0    -98    149     99    178 180.4  63.4  34156  289.52 0854.77
2009/04/23 12:31:49.9     -36     22     72     43     83 301.5  66.2  34162  289.62 0854.77
2009/04/23 12:31:50.0     -31    -32    110     45    118 224.2  77.0  34158  289.53 0854.77
2009/04/23 12:31:50.1     -27    -26     82     38     90 226.7  73.1  34160  289.58 0854.77
2009/04/23 12:31:50.2     -32    -86     98     92    134 200.5  51.6  34154  289.48 0854.77
2009/04/23 12:31:50.3     -51    -98    113    111    158 207.6  50.4  34152  289.45 0854.77
2009/04/23 12:31:50.4     -45    -91    107    102    147 206.3  51.6  34152  289.43 0854.77
2009/04/23 12:31:50.5     -89   -142    108    168    199 212.1  35.7  34152  289.45 0854.78
2009/04/23 12:31:50.6    -142   -143      5    202    203 224.9   1.6  34152  289.43 0854.78
2009/04/23 12:31:50.7    -136   -130    -40    189    194 226.2 -12.2  34154  289.48 0854.78
2009/04/23 12:31:50.8    -111   -104     17    153    154 226.9   6.5  34156  289.52 0854.78
2009/04/23 12:31:50.9     -26   -132     26    135    138 191.5  11.1  34154  289.48 0854.78
2009/04/23 12:31:51.0      -9   -114     21    115    117 184.9  10.6  34154  289.48 0854.78
2009/04/23 12:31:51.1     -59    -72     25     94     98 219.6  15.2  34156  289.50 0854.78
2009/04/23 12:31:51.2     -28    -31     -3     43     44 222.3  -4.1  34150  289.41 0854.78
2009/04/23 12:31:51.3     -16      6      8     18     19 291.7  23.0  34154  289.46 0854.78
2009/04/23 12:31:51.4     -24     40     24     47     52 328.4  28.2  34154  289.46 0854.78
2009/04/23 12:31:51.5     -12     14     47     19     50 318.6  77.1  34158  289.53 0854.78
2009/04/23 12:31:51.6       2    -25     56     26     61 175.5  73.1  34160  289.58 0854.78
2009/04/23 12:31:51.7     -43   -110     66    119    136 201.4  31.4  34152  289.45 0854.78
2009/04/23 12:31:51.8       2   -106     58    107    121 178.6  30.8  34154  289.46 0854.78
2009/04/23 12:31:51.9     -17   -114     44    116    124 188.5  21.0  34150  289.41 0854.78
2009/04/23 12:31:52.0       9    -83     25     84     88 173.3  16.8  34154  289.48 0854.78
2009/04/23 12:31:52.1      52    -59     37     80     88 138.6  26.2  34154  289.48 0854.78
2009/04/23 12:31:52.2      50    -53     29     74     79 136.8  22.0  34154  289.46 0854.78
2009/04/23 12:31:52.3      42    -24     60     49     77 119.8  56.4  34154  289.46 0854.78
2009/04/23 12:31:52.4      16    -13     50     21     54 129.5  77.1  34158  289.55 0854.78
2009/04/23 12:31:52.5      33    -15     38     37     53 115.3  49.1  34158  289.53 0854.77
2009/04/23 12:31:52.6      30      0     37     31     48  90.8  54.3  34158  289.53 0854.77
2009/04/23 12:31:52.7      14      3     29     15     32  74.9  70.8  34158  289.53 0854.77
2009/04/23 12:31:52.8      12      0     20     13     23  90.0  64.7  34158  289.53 0854.77
2009/04/23 12:31:52.9      19      3     27     20     33  78.5  58.5  34158  289.55 0854.77
2009/04/23 12:31:53.0      14     -3     29     15     32 105.1  70.8  34164  289.63 0854.77
2009/04/23 12:31:53.1     -10    -31     32     33     45 198.3  50.0  34168  289.70 0854.77
2009/04/23 12:31:53.2      -8     -6     65     11     65 230.5  90.0  34166  289.69 0854.77
2009/04/23 12:31:53.3     -10    -11     76     16     77 223.4  89.0  34168  289.72 0854.77
2009/04/23 12:31:53.4     -28      3     77     29     82 277.9  78.6  34174  289.82 0854.77
2009/04/23 12:31:53.5     -12      1     54     13     55 277.9  88.0  34170  289.75 0854.77
2009/04/23 12:31:53.6      -6    -18     74     20     76 200.0  84.8  34166  289.69 0854.77
2009/04/23 12:31:53.7      -7      4     52      9     52 302.4  90.0  34166  289.69 0854.77
2009/04/23 12:31:53.8      -1    -37     61     38     71 182.6  64.7  34166  289.69 0854.77
2009/04/23 12:31:53.9     -57    -46     77     74    106 231.4  51.2  34162  289.60 0854.77
2009/04/23 12:31:54.0     -89    -67     46    112    121 232.7  23.6  34158  289.53 0854.77
2009/04/23 12:31:54.1    -131    -71     64    150    163 241.6  24.3  34160  289.58 0854.77
2009/04/23 12:31:54.2    -117   -128     75    174    189 222.3  24.9  34154  289.46 0854.77
2009/04/23 12:31:54.3    -113   -137    109    178    208 219.6  34.4  34152  289.45 0854.77
2009/04/23 12:31:54.4    -144   -153    110    211    237 223.2  29.8  34154  289.46 0854.77
2009/04/23 12:31:54.5     -60   -189     97    199    221 197.6  27.8  34150  289.40 0854.78
2009/04/23 12:31:54.6     -92   -186     65    208    219 206.5  17.4  34152  289.45 0854.78
2009/04/23 12:31:54.7    -100   -218     59    241    249 204.7  13.9  34150  289.41 0854.78
2009/04/23 12:31:54.8    -100   -147     74    178    192 214.3  23.6  34148  289.36 0854.78
2009/04/23 12:31:54.9     -64   -136    107    151    185 205.3  38.8  34148  289.38 0854.78
2009/04/23 12:31:55.0     -54   -108     90    122    151 206.7  39.7  34146  289.35 0854.78
2009/04/23 12:31:55.1     -83   -126    119    152    193 213.4  42.2  34146  289.35 0854.78
2009/04/23 12:31:55.2       2   -152    155    153    217 179.1  50.2  34146  289.33 0854.78
2009/04/23 12:31:55.3      11   -235    145    236    276 177.1  34.4  34148  289.37 0854.78
2009/04/23 12:31:55.4       4   -202    107    203    229 178.6  30.1  34146  289.35 0854.78
2009/04/23 12:31:55.5      16   -164     81    165    183 174.2  28.0  34150  289.41 0854.78
2009/04/23 12:31:55.6      54   -137    127    148    195 158.2  44.8  34148  289.38 0854.78
2009/04/23 12:31:55.7      71    -62     75     95    121 130.9  42.2  34148  289.38 0854.78
2009/04/23 12:31:55.8     -27    -30     20     41     45 222.3  28.2  34150  289.40 0854.78
2009/04/23 12:31:55.9     -39     62     -4     74     75 327.4  -3.1  34152  289.43 0854.78
2009/04/23 12:31:56.0    -110    140    -57    179    187 321.7 -23.0  34142  289.28 0854.78
2009/04/23 12:31:56.1    -245     45     -5    250    251 280.6  -1.3  34142  289.25 0854.78
2009/04/23 12:31:56.2    -267    -20   -116    268    292 265.7 -29.3  34136  289.17 0854.78
2009/04/23 12:31:56.3    -309    -31   -202    311    370 264.1 -40.3  34130  289.08 0854.78
2009/04/23 12:31:56.4    -260   -191    -12    323    324 233.6  -2.2  34144  289.29 0854.78
2009/04/23 12:31:56.5    -115   -223    -83    252    266 207.4 -18.3  34142  289.27 0854.77
2009/04/23 12:31:56.6     -68   -169     53    183    191 201.8  16.3  34142  289.26 0854.77
2009/04/23 12:31:56.7     -59     -7     22     60     63 263.0  20.0  34140  289.23 0854.77
2009/04/23 12:31:56.8    -164    -39    -34    169    173 256.5 -11.5  34144  289.30 0854.77
2009/04/23 12:31:56.9    -215    -40     39    219    223 259.4  10.3  34146  289.33 0854.77
2009/04/23 12:31:57.0    -279     89     54    293    299 287.7  10.6  34148  289.37 0854.77
2009/04/23 12:31:57.1    -232     84     53    247    253 290.0  12.1  34148  289.36 0854.77
2009/04/23 12:31:57.2    -177     36      9    181    182 281.7   3.1  34146  289.33 0854.77
2009/04/23 12:31:57.3     -96    -91     45    133    141 226.4  18.9  34148  289.36 0854.77
2009/04/23 12:31:57.4     -27   -164      6    167    168 189.3   2.1  34144  289.31 0854.77
2009/04/23 12:31:57.5     -24   -233    -29    235    237 186.0  -7.2  34142  289.27 0854.77
2009/04/23 12:31:57.6       2   -243    -31    244    246 179.5  -7.3  34138  289.19 0854.77
2009/04/23 12:31:57.7     -53   -226     58    233    241 193.3  14.2  34138  289.20 0854.77
2009/04/23 12:31:57.8      -5   -221     22    222    224 181.4   5.7  34138  289.19 0854.77
2009/04/23 12:31:57.9      -4   -182     55    183    192 181.4  16.8  34136  289.16 0854.77
2009/04/23 12:31:58.0     -15   -195     78    196    210 184.5  23.0  34136  289.18 0854.77
2009/04/23 12:31:58.1     -25   -201     63    203    213 187.1  17.3  34136  289.16 0854.77
2009/04/23 12:31:58.2     -31   -235     92    238    255 187.6  22.3  34136  289.17 0854.77
2009/04/23 12:31:58.3     -23   -183    126    185    223 187.3  37.4  34134  289.14 0854.77
2009/04/23 12:31:58.4     -24   -149    132    152    201 189.3  45.8  34138  289.19 0854.77
2009/04/23 12:31:58.5     -94   -199    156    221    270 205.4  38.6  34136  289.17 0854.78
2009/04/23 12:31:58.6    -120   -180    169    217    275 213.8  41.7  34136  289.17 0854.78
2009/04/23 12:31:58.7    -145   -126    106    193    220 229.1  31.3  34138  289.19 0854.78
2009/04/23 12:31:58.8    -145   -125     86    192    210 229.1  25.9  34140  289.23 0854.78
2009/04/23 12:31:58.9    -235   -207    183    314    363 228.7  32.9  34148  289.38 0854.78
2009/04/23 12:31:59.0    -207   -109     45    235    240 242.2  10.8  34156  289.49 0854.78
2009/04/23 12:31:59.1    -231   -143      5    272    273 238.2   1.2  34146  289.34 0854.78
2009/04/23 12:31:59.2      80    -25    166     84    186 107.7  71.4  34140  289.23 0854.78
2009/04/23 12:31:59.3     -18   -107     75    109    132 189.8  37.6  34144  289.30 0854.78
2009/04/23 12:31:59.4     -85   -148    109    171    202 209.9  35.6  34144  289.30 0854.78
2009/04/23 12:31:59.5     -24   -206    138    208    249 186.7  36.5  34144  289.29 0854.78
2009/04/23 12:31:59.6     -32   -176    131    179    221 190.5  39.7  34144  289.30 0854.78
2009/04/23 12:31:59.7    -102   -227    159    250    296 204.3  35.5  34144  289.31 0854.78
2009/04/23 12:31:59.8     -95   -237    190    256    318 201.9  40.4  34136  289.15 0854.78
2009/04/23 12:31:59.9    -206   -238    111    315    335 220.9  19.4  34142  289.25 0854.78
2009/04/23 12:32:00.0    -180   -224     14    288    289 218.7   2.9  34156  289.51 0854.78
2009/04/23 12:32:00.1    -150   -214    175    262    315 215.1  36.9  34154  289.46 0854.78
2009/04/23 12:32:00.2    -290     13     24    291    293 272.6   4.9  34162  289.59 0854.78
2009/04/23 12:32:00.3    -303   -133     50    332    336 246.3   8.7  34158  289.54 0854.78
2009/04/23 12:32:00.4    -343   -132     69    368    375 248.9  10.7  34164  289.64 0854.78
2009/04/23 12:32:00.5    -279   -173     29    329    331 238.2   5.2  34158  289.55 0854.79
2009/04/23 12:32:00.6    -130   -164     -4    210    211 218.3  -1.3  34154  289.46 0854.79
2009/04/23 12:32:00.7     -70   -212    117    224    252 198.5  29.8  34148  289.37 0854.79
2009/04/23 12:32:00.8     -99   -273    124    291    316 200.1  24.5  34146  289.34 0854.79
2009/04/23 12:32:00.9    -135   -245    137    280    311 208.9  27.8  34146  289.34 0854.79
2009/04/23 12:32:01.0    -142   -138     69    199    211 225.8  19.2  34148  289.36 0854.79
2009/04/23 12:32:01.1    -108   -139     79    177    193 217.8  25.9  34148  289.38 0854.79
2009/04/23 12:32:01.2     -86    -71     60    112    127 230.5  30.8  34150  289.40 0854.79
2009/04/23 12:32:01.3     -48   -133     48    142    151 200.1  18.9  34142  289.28 0854.79
2009/04/23 12:32:01.4     -43   -252    118    256    281 189.8  26.4  34144  289.29 0854.79
2009/04/23 12:32:01.5     -18   -240    118    241    268 184.5  27.8  34144  289.31 0854.79
2009/04/23 12:32:01.6     -64   -211    115    221    249 196.9  29.5  34146  289.32 0854.79
2009/04/23 12:32:01.7     -30   -139    146    143    204 192.5  50.2  34146  289.33 0854.79
2009/04/23 12:32:01.8      36   -259     91    262    278 172.0  19.2  34146  289.34 0854.79
2009/04/23 12:32:01.9      19   -234     80    235    249 175.1  18.9  34146  289.32 0854.79
2009/04/23 12:32:02.0     -64   -231     99    240    259 195.6  23.6  34146  289.32 0854.79
2009/04/23 12:32:02.1     -60   -256     61    264    272 193.3  13.1  34146  289.34 0854.79
2009/04/23 12:32:02.2     -31   -305    139    307    337 185.8  26.0  34144  289.29 0854.79
2009/04/23 12:32:02.3      -1   -332     87    333    345 180.2  14.7  34144  289.30 0854.79
2009/04/23 12:32:02.4     -66   -297     77    305    315 192.5  14.3  34144  289.29 0854.79
2009/04/23 12:32:02.5     -81   -300     71    311    320 195.2  12.9  34144  289.31 0854.78
2009/04/23 12:32:02.6    -101   -247     44    268    272 202.3   9.3  34144  289.31 0854.78
2009/04/23 12:32:02.7     -33   -269     30    272    274 187.1   6.5  34144  289.31 0854.78
2009/04/23 12:32:02.8    -132   -259    109    291    310 207.0  21.3  34144  289.31 0854.78
2009/04/23 12:32:02.9    -142   -231     21    272    273 211.6   4.6  34142  289.27 0854.78
2009/04/23 12:32:03.0    -138   -243     36    280    283 209.6   7.5  34144  289.29 0854.78
2009/04/23 12:32:03.1     -86   -301     11    314    315 196.0   2.1  34144  289.31 0854.78
2009/04/23 12:32:03.2     -97   -348     60    362    367 195.7   9.4  34146  289.32 0854.78
2009/04/23 12:32:03.3     -40   -327     43    330    333 187.0   7.6  34138  289.20 0854.78
2009/04/23 12:32:03.4     -77   -134     84    155    176 209.9  30.8  34142  289.28 0854.78
2009/04/23 12:32:03.5     -37   -118     14    124    125 197.4   6.9  34144  289.30 0854.78
2009/04/23 12:32:03.6     -65    -81      5    104    105 218.7   2.8  34140  289.24 0854.78
2009/04/23 12:32:03.7     -54   -129     87    140    164 202.7  35.0  34140  289.24 0854.78
2009/04/23 12:32:03.8     -73   -157    106    174    203 204.9  34.4  34142  289.26 0854.78
2009/04/23 12:32:03.9     -60   -128     57    142    153 205.3  23.0  34146  289.35 0854.78
2009/04/23 12:32:04.0     -81   -127     66    151    164 212.5  25.1  34148  289.36 0854.78
2009/04/23 12:32:04.1     -68   -205     27    217    219 198.5   7.2  34138  289.21 0854.78
2009/04/23 12:32:04.2     -76   -190     13    205    206 201.9   3.6  34144  289.30 0854.78
2009/04/23 12:32:04.3     -43   -213     24    218    220 191.6   6.5  34142  289.28 0854.78
2009/04/23 12:32:04.4      12   -190      5    191    192 176.4   1.8  34142  289.28 0854.78
2009/04/23 12:32:04.5      20   -163     32    165    169 172.9  11.0  34144  289.30 0854.77
2009/04/23 12:32:04.6     -20   -115     54    117    128 190.2  26.6  34146  289.33 0854.77
2009/04/23 12:32:04.7      34    -40     67     53     85 139.5  57.5  34146  289.35 0854.77
2009/04/23 12:32:04.8      55      7     73     56     92  82.1  58.5  34150  289.41 0854.77
2009/04/23 12:32:04.9      68      9     21     69     73  82.1  17.3  34146  289.33 0854.77
2009/04/23 12:32:05.0      57     12     56     59     81  77.6  48.5  34146  289.35 0854.77
2009/04/23 12:32:05.1      76     13     74     78    107  80.3  48.5  34144  289.30 0854.77
2009/04/23 12:32:05.2      84     35     62     92    110  67.4  37.0  34146  289.33 0854.77
2009/04/23 12:32:05.3      67     36     57     77     95  62.0  40.1  34146  289.33 0854.77
2009/04/23 12:32:05.4      21      7     49     23     54  71.8  73.1  34150  289.40 0854.77
2009/04/23 12:32:05.5      -7    -32     18     33     37 193.4  31.4  34154  289.48 0854.77
2009/04/23 12:32:05.6     -39    -66     -1     77     78 210.7  -1.2  34152  289.43 0854.77
2009/04/23 12:32:05.7     -21    -53     -4     58     59 201.8  -4.1  34152  289.43 0854.77
2009/04/23 12:32:05.8    -103    -72     -4    126    127 234.9  -2.2  34152  289.45 0854.77
2009/04/23 12:32:05.9    -127    -83    -50    152    160 236.7 -23.6  34146  289.35 0854.77
2009/04/23 12:32:06.0    -131    -26    -51    134    143 258.6 -25.9  34146  289.35 0854.77
2009/04/23 12:32:06.1     -77    -42    -16     89     91 241.1 -10.3  34146  289.35 0854.77
2009/04/23 12:32:06.2     -96   -100     51    139    148 223.7  21.0  34148  289.36 0854.77
2009/04/23 12:32:06.3    -157   -166     37    229    233 223.3   9.3  34146  289.33 0854.77
2009/04/23 12:32:06.4    -167   -147     22    223    225 228.7   5.7  34146  289.33 0854.77
2009/04/23 12:32:06.5    -208   -163     19    265    266 232.0   4.2  34148  289.36 0854.76
2009/04/23 12:32:06.6    -176   -221    -35    283    286 218.5  -7.2  34144  289.31 0854.76
2009/04/23 12:32:06.7    -184   -177     65    256    265 226.0  14.3  34148  289.36 0854.76
2009/04/23 12:32:06.8    -255   -185    -12    316    317 234.1  -2.2  34148  289.36 0854.76
2009/04/23 12:32:06.9    -257   -117    -40    283    286 245.4  -8.2  34142  289.25 0854.76
2009/04/23 12:32:07.0    -244    -72    -91    255    270 253.4 -24.4  34140  289.24 0854.76
2009/04/23 12:32:07.1    -238    -19    -82    239    252 265.2 -23.6  34140  289.24 0854.76
2009/04/23 12:32:07.2    -223    -13    -66    224    233 266.5 -21.7  34136  289.16 0854.76
2009/04/23 12:32:07.3    -195    -26    -42    197    202 262.3 -12.2  34142  289.26 0854.76
2009/04/23 12:32:07.4    -235    -21    -35    236    239 264.8  -8.6  34142  289.25 0854.76
2009/04/23 12:32:07.5    -257     -5    -20    258    259 268.7  -4.6  34142  289.27 0854.76
2009/04/23 12:32:07.6    -228      8    -58    229    237 272.1 -14.4  34144  289.29 0854.76
2009/04/23 12:32:07.7    -248    -10    -95    249    266 267.6 -26.4  34140  289.24 0854.76
2009/04/23 12:32:07.8    -258    -43    -83    262    275 260.4 -17.6  34140  289.24 0854.76
2009/04/23 12:32:07.9    -281    -58   -100    288    304 258.3 -24.3  34140  289.24 0854.76
2009/04/23 12:32:08.0    -256    -52    -93    262    279 258.5 -19.6  34140  289.24 0854.76
2009/04/23 12:32:08.1    -242    -41    -70    246    255 260.3 -20.7  34142  289.27 0854.76
2009/04/23 12:32:08.2    -222    -24    -66    224    233 263.6 -21.7  34142  289.28 0854.76
2009/04/23 12:32:08.3    -195    -27    -78    197    211 262.1 -27.2  34142  289.28 0854.76
2009/04/23 12:32:08.5    -208    -43    -77    213    226 258.3 -25.3  34140  289.24 0854.76
2009/04/23 12:32:08.5    -190    -19    -97    191    214 264.1 -33.6  34146  289.33 0854.74
2009/04/23 12:32:08.6    -152     63    -87    165    186 292.6 -34.5  34146  289.35 0854.74
2009/04/23 12:32:08.7    -126     47    -48    135    144 290.4 -19.6  34150  289.41 0854.74
2009/04/23 12:32:08.8    -148     46    -47    156    164 287.5 -17.0  34152  289.43 0854.74
2009/04/23 12:32:08.9    -161     39    -47    166    173 283.7 -15.8  34152  289.43 0854.74
2009/04/23 12:32:09.0    -175     11    -59    176    185 273.7 -23.6  34154  289.46 0854.74
2009/04/23 12:32:09.1    -154    -14    -53    155    163 264.8 -23.8  34152  289.45 0854.74
2009/04/23 12:32:09.2    -142    -14    -55    143    153 264.3 -26.4  34152  289.45 0854.74
2009/04/23 12:32:09.3    -151     13    -19    152    154 275.2  -7.3  34152  289.45 0854.74
2009/04/23 12:32:09.4    -115     26     -7    118    119 282.8  -3.7  34152  289.43 0854.74
2009/04/23 12:32:09.5     -72      1     -9     73     74 270.8  -7.3  34154  289.48 0854.74
2009/04/23 12:32:09.6    -114      7     13    115    116 273.9   6.5  34152  289.45 0854.74
2009/04/23 12:32:09.7     -79   -106     11    133    134 216.5   4.9  34152  289.45 0854.74
2009/04/23 12:32:09.8      25   -174     -6    176    177 171.5  -2.2  34154  289.48 0854.74
2009/04/23 12:32:09.9     128    -81     52    152    161 122.4  18.9  34150  289.40 0854.74
2009/04/23 12:32:10.0      94      0     70     95    118  90.4  40.1  34154  289.46 0854.74
2009/04/23 12:32:10.1      98      0     81     99    127  90.0  43.7  34152  289.45 0854.74
2009/04/23 12:32:10.2     139    -24     79    142    162 100.1  31.4  34152  289.45 0854.74
2009/04/23 12:32:10.3     171    -17     70    172    185  95.7  23.1  34150  289.41 0854.74
2009/04/23 12:32:10.4     163    -14    102    164    193  95.2  35.5  34144  289.30 0854.74
2009/04/23 12:32:10.5     214      0    104    215    238  90.0  27.8  34146  289.35 0854.72
2009/04/23 12:32:10.6     175    -48    123    182    219 105.3  37.4  34144  289.31 0854.72
2009/04/23 12:32:10.8      81    -53     81     97    126 123.3  44.3  34144  289.31 0854.72
2009/04/23 12:32:10.8      38    -48     61     62     86 141.3  50.5  34150  289.40 0854.72
2009/04/23 12:32:10.9      35   -113    102    119    156 162.6  45.1  34144  289.31 0854.72
2009/04/23 12:32:11.0     -58    -90     97    108    145 213.0  46.9  34146  289.35 0854.72
2009/04/23 12:32:11.1    -128   -122      5    177    178 226.4   1.8  34140  289.24 0854.72
2009/04/23 12:32:11.3    -217    -77    -46    231    236 250.5 -11.5  34140  289.22 0854.72
2009/04/23 12:32:11.4    -155   -101      9    186    187 236.9   2.8  34140  289.23 0854.72
2009/04/23 12:32:11.5    -163   -217     37    272    275 216.9   7.8  34142  289.27 0854.72
2009/04/23 12:32:11.6    -189   -166    -70    252    262 228.7 -15.5  34142  289.27 0854.73
2009/04/23 12:32:11.7    -143   -174   -154    226    273 219.4 -42.0  34146  289.32 0854.73
2009/04/23 12:32:11.8     -57    -72   -123     92    153 218.3 -64.4  34146  289.33 0854.73
2009/04/23 12:32:11.9    -288   -220    -64    363    369 232.5 -10.1  34134  289.13 0854.73
2009/04/23 12:32:12.0    -335   -192     18    387    388 240.1   2.8  34146  289.32 0854.73
2009/04/23 12:32:12.1    -335   -129    -32    360    362 248.9  -5.2  34152  289.42 0854.73
2009/04/23 12:32:12.2    -340    -54    -44    345    348 260.9  -7.3  34146  289.35 0854.73
2009/04/23 12:32:12.3    -299    -50    -25    304    306 260.4  -4.9  34150  289.39 0854.73
2009/04/23 12:32:12.4    -207    -53    -58    214    222 255.4 -15.4  34150  289.41 0854.73
2009/04/23 12:32:12.5     -79    -14    -10     81     82 259.4  -7.7  34142  289.28 0854.73
2009/04/23 12:32:12.6    -176     58     13    186    187 288.4   4.2  34144  289.31 0854.73
2009/04/23 12:32:12.7    -360    166   -110    397    412 294.7 -15.5  34146  289.34 0854.73
2009/04/23 12:32:12.8    -196    -41   -132    201    240 258.1 -40.9  34148  289.38 0854.73
2009/04/23 12:32:12.9    -288     17    -85    289    302 273.5 -16.4  34154  289.47 0854.73
2009/04/23 12:32:13.0    -105     22     74    108    130 281.9  37.6  34152  289.43 0854.73
2009/04/23 12:32:13.1    -129     51    -45    139    147 291.7 -18.1  34150  289.41 0854.73
2009/04/23 12:32:13.2     -77    -66   -122    102    159 229.6 -60.2  34148  289.36 0854.73
2009/04/23 12:32:13.3    -263    -50    -99    268    285 259.2 -25.4  34150  289.39 0854.73
2009/04/23 12:32:13.4    -369    -89   -172    380    417 256.3 -30.6  34146  289.33 0854.73
2009/04/23 12:32:13.5    -310    -56   -213    316    381 259.6 -41.6  34142  289.25 0854.73
2009/04/23 12:32:13.6    -427    -26   -206    428    474 266.5 -32.1  34142  289.27 0854.73
2009/04/23 12:32:13.7    -358    -55   -164    363    398 261.2 -30.4  34146  289.32 0854.73
2009/04/23 12:32:13.8    -350    -15   -148    351    380 267.5 -28.6  34142  289.28 0854.73
2009/04/23 12:32:13.9    -364      4   -139    365    390 270.7 -26.2  34148  289.37 0854.73
2009/04/23 12:32:14.0    -392     -2   -162    393    425 269.6 -28.1  34150  289.39 0854.73
2009/04/23 12:32:14.1    -376    115   -155    394    423 287.1 -27.1  34146  289.34 0854.73
2009/04/23 12:32:14.2    -273    129   -171    303    347 295.3 -36.3  34146  289.35 0854.73
2009/04/23 12:32:14.3    -249     64   -171    258    309 284.4 -40.9  34150  289.41 0854.73
2009/04/23 12:32:14.4    -145    -49   -105    154    186 251.4 -42.2  34148  289.36 0854.73
2009/04/23 12:32:14.5    -184    -99   -119    210    241 241.6 -36.7  34148  289.36 0854.73
2009/04/23 12:32:14.6    -194    -66    -84    206    222 251.2 -27.5  34150  289.40 0854.73
2009/04/23 12:32:14.7    -155   -164    -22    226    228 223.3  -5.6  34150  289.41 0854.73
2009/04/23 12:32:14.8    -155   -165    -12    227    228 223.2  -3.1  34150  289.41 0854.73
2009/04/23 12:32:14.9    -166   -183    -42    248    252 222.3  -9.8  34152  289.42 0854.73
2009/04/23 12:32:15.0    -160    -62   -133    172    217 248.7 -46.0  34150  289.40 0854.73
2009/04/23 12:32:15.1     -92   -160    -95    185    207 209.9 -33.7  34148  289.38 0854.73
2009/04/23 12:32:15.2     -59    -72    -39     94    101 219.6 -27.5  34154  289.46 0854.73
2009/04/23 12:32:15.3     -28    -83    -20     88     91 199.2 -12.9  34152  289.43 0854.73
2009/04/23 12:32:15.4    -129    -93     58    160    170 234.0  20.4  34152  289.45 0854.73
2009/04/23 12:32:15.5    -212    -86     27    230    232 247.8   6.7  34152  289.43 0854.73
2009/04/23 12:32:15.6    -303    -89     68    316    324 253.6  12.2  34146  289.34 0854.74
2009/04/23 12:32:15.7    -351    -75    -14    360    361 257.8  -2.2  34152  289.45 0854.74
2009/04/23 12:32:15.8    -326    -88     14    338    339 254.8   2.5  34150  289.40 0854.74
2009/04/23 12:32:15.9    -339    -49    -58    343    348 261.6  -9.7  34142  289.28 0854.74
2009/04/23 12:32:16.0    -325    -43    -76    328    337 262.4 -13.1  34146  289.32 0854.74
2009/04/23 12:32:16.1    -325      7    -97    326    341 271.3 -16.6  34144  289.30 0854.74
2009/04/23 12:32:16.2    -313    -58    -90    319    332 259.4 -15.9  34144  289.31 0854.74
2009/04/23 12:32:16.3    -370    -50    -67    374    381 262.2 -10.3  34142  289.28 0854.74
2009/04/23 12:32:16.4    -395    -43   -119    398    416 263.8 -16.6  34142  289.27 0854.74
2009/04/23 12:32:16.5    -343   -112   -101    361    374 251.9 -20.3  34146  289.33 0854.74
2009/04/23 12:32:16.6    -370    -74   -122    378    397 258.6 -23.0  34144  289.30 0854.74
2009/04/23 12:32:16.7    -388    -91   -139    399    422 256.7 -24.3  34148  289.36 0854.74
2009/04/23 12:32:16.8    -371    -75   -123    379    398 258.6 -23.2  34148  289.37 0854.74
2009/04/23 12:32:16.9    -379   -111   -172    396    431 253.6 -29.5  34148  289.36 0854.74
2009/04/23 12:32:17.0    -396   -120   -167    415    447 253.1 -27.5  34148  289.36 0854.74
2009/04/23 12:32:17.1    -308    -33   -176    310    356 263.8 -36.5  34144  289.30 0854.74
2009/04/23 12:32:17.2    -356     21    -99    357    371 273.5 -15.5  34152  289.43 0854.74
2009/04/23 12:32:17.3    -309     62   -107    316    333 281.5 -23.6  34148  289.36 0854.74
2009/04/23 12:32:17.4    -373   -156   -185    405    445 247.3 -30.6  34146  289.33 0854.74
2009/04/23 12:32:17.5    -211   -250   -132    328    353 220.1 -27.5  34152  289.42 0854.74
2009/04/23 12:32:17.6    -208   -208   -158    295    334 224.9 -34.9  34152  289.44 0854.74
2009/04/23 12:32:17.7    -207   -172   -140    270    304 230.4 -33.7  34152  289.44 0854.74
2009/04/23 12:32:17.8    -361    -50     15    365    366 262.0   2.4  34152  289.45 0854.74
2009/04/23 12:32:17.9    -191   -252   -196    317    372 217.2 -39.2  34160  289.57 0854.74
2009/04/23 12:32:18.0    -243   -270   -108    364    380 221.9 -16.5  34150  289.40 0854.74
2009/04/23 12:32:18.1     -90   -207   -114    227    254 203.6 -32.9  34152  289.42 0854.74
2009/04/23 12:32:18.2    -233   -288   -124    371    392 219.0 -18.6  34156  289.50 0854.74
2009/04/23 12:32:18.3    -246   -169    -83    299    310 235.4 -20.0  34150  289.39 0854.74
2009/04/23 12:32:18.4    -241    -78     51    254    260 252.1  11.4  34156  289.49 0854.74
2009/04/23 12:32:18.5    -127    -34    -35    132    137 254.9 -15.0  34152  289.43 0854.74
2009/04/23 12:32:18.6    -154   -177   -104    235    256 221.0 -29.6  34154  289.47 0854.74
2009/04/23 12:32:18.7    -237   -211    -98    318    332 228.2 -22.2  34148  289.36 0854.74
2009/04/23 12:32:18.8    -173   -176    -91    247    263 224.5 -25.4  34148  289.36 0854.74
2009/04/23 12:32:18.9    -191   -231    -99    300    316 219.6 -18.3  34154  289.46 0854.74
2009/04/23 12:32:19.0    -164   -189     49    251    256 221.0  11.1  34158  289.53 0854.74
2009/04/23 12:32:19.1    -202   -166     -8    262    263 230.7  -1.8  34154  289.47 0854.74
2009/04/23 12:32:19.2    -263   -250     -7    364    365 226.4  -1.2  34154  289.47 0854.74
2009/04/23 12:32:19.3    -210   -246      5    324    325 220.5   0.9  34152  289.42 0854.74
2009/04/23 12:32:19.4     -99   -197     55    221    228 206.7  14.2  34152  289.43 0854.74
2009/04/23 12:32:19.5    -126   -133     68    184    196 223.4  21.3  34156  289.50 0854.74
2009/04/23 12:32:19.6     -95   -133    -51    164    171 215.6 -22.3  34150  289.41 0854.74
2009/04/23 12:32:19.7     -89     75    -84    117    144 310.0 -43.9  34152  289.45 0854.74
2009/04/23 12:32:19.8    -164    -96     69    191    203 239.6  20.7  34154  289.48 0854.74
2009/04/23 12:32:19.9    -227   -108     51    252    258 244.6  11.6  34156  289.51 0854.74
2009/04/23 12:32:20.0    -129   -138     -2    190    191 223.0  -0.7  34156  289.50 0854.74
2009/04/23 12:32:20.1     -80   -175     30    193    196 204.7   9.0  34158  289.55 0854.74
2009/04/23 12:32:20.2    -175   -231    -45    291    295 217.2  -8.8  34154  289.47 0854.74
2009/04/23 12:32:20.3    -166   -238    -68    291    299 215.0 -13.3  34160  289.56 0854.74
2009/04/23 12:32:20.4    -194   -164    -23    255    257 229.8  -5.2  34158  289.53 0854.74
2009/04/23 12:32:20.5    -140   -194     53    240    246 215.8  12.6  34154  289.46 0854.74
2009/04/23 12:32:20.6    -124   -194     13    231    232 212.6   3.3  34158  289.53 0854.74
2009/04/23 12:32:20.7    -160   -227    -61    278    285 215.2 -12.4  34160  289.56 0854.74
2009/04/23 12:32:20.8     -56   -161    -35    171    175 199.4 -11.6  34156  289.52 0854.74
2009/04/23 12:32:20.9      57    -96     39    112    119 149.3  19.4  34158  289.53 0854.74
2009/04/23 12:32:21.0     131   -108     58    170    180 129.5  18.9  34154  289.48 0854.74
2009/04/23 12:32:21.1      46   -100    -77    111    135 155.1 -42.0  34156  289.52 0854.74
2009/04/23 12:32:21.2     -21   -227   -160    229    279 185.3 -42.9  34166  289.68 0854.74
2009/04/23 12:32:21.3     -82   -156    -45    177    183 207.6 -14.3  34154  289.46 0854.74
2009/04/23 12:32:21.4     -47    -90      0    102    103 207.6  -0.3  34158  289.53 0854.74
2009/04/23 12:32:21.5     -26    -99     36    103    110 195.1  19.4  34160  289.58 0854.74
2009/04/23 12:32:21.6     -82    -22     47     86     98 254.5  30.8  34156  289.52 0854.76
2009/04/23 12:32:21.7      23    -88     21     91     94 165.3  13.2  34156  289.50 0854.76
2009/04/23 12:32:21.8      54    -85     60    102    118 147.4  33.5  34156  289.52 0854.76
2009/04/23 12:32:21.9      37    -72     14     81     83 152.8  10.1  34158  289.53 0854.76
2009/04/23 12:32:22.0      36    -32     -5     49     50 132.2  -6.2  34160  289.58 0854.76
2009/04/23 12:32:22.1      11    -34     32     36     48 161.3  47.9  34158  289.55 0854.76
2009/04/23 12:32:22.2     -78    -15     20     80     83 258.5  14.3  34162  289.60 0854.76
2009/04/23 12:32:22.3      12     -1     51     13     52  97.9  85.9  34162  289.60 0854.76
2009/04/23 12:32:22.4      87   -105    134    137    191 140.4  49.4  34158  289.55 0854.76
2009/04/23 12:32:22.5      36   -135     73    140    157 164.9  29.5  34160  289.57 0854.76
2009/04/23 12:32:22.6      -5   -181    -80    182    198 181.6 -29.6  34158  289.53 0854.76
2009/04/23 12:32:22.7     -11   -147    -41    148    154 184.4 -15.5  34156  289.52 0854.76
2009/04/23 12:32:22.8       2   -151      1    152    153 179.1   0.7  34156  289.52 0854.76
2009/04/23 12:32:22.9      81    -66     70    105    126 129.5  36.5  34158  289.53 0854.76
2009/04/23 12:32:23.0      56     -1    113     57    126  91.7  71.0  34156  289.50 0854.76
2009/04/23 12:32:23.1     -60     47     77     77    108 307.8  50.1  34162  289.60 0854.76
2009/04/23 12:32:23.2     -99     55     29    114    118 299.3  14.7  34158  289.53 0854.76
2009/04/23 12:32:23.3    -132     51     -5    142    143 291.3  -2.2  34156  289.52 0854.76
2009/04/23 12:32:23.4    -162     77      6    180    181 295.5   2.1  34158  289.53 0854.76
2009/04/23 12:32:23.5    -153     30      1    157    158 281.4   0.5  34156  289.52 0854.76
2009/04/23 12:32:23.6     -84     21    -64     87    108 284.6 -44.5  34160  289.57 0854.77
2009/04/23 12:32:23.7    -126    -34    -12    131    132 254.9  -5.6  34156  289.50 0854.77
2009/04/23 12:32:23.8    -131     30    -85    135    159 283.3 -39.6  34156  289.52 0854.77
2009/04/23 12:32:23.9    -172    -14    -52    173    180 265.2 -21.7  34158  289.53 0854.77
2009/04/23 12:32:24.0    -188     12    -33    189    193 273.7 -10.1  34154  289.48 0854.77
2009/04/23 12:32:24.1    -141      0     47    142    150 270.0  18.4  34160  289.57 0854.77
2009/04/23 12:32:24.2     -80    -85     52    117    128 223.2  25.2  34160  289.57 0854.77
2009/04/23 12:32:24.3     -44    -92    130    103    165 205.9  57.7  34166  289.69 0854.77
2009/04/23 12:32:24.4     -44   -100     -6    110    111 204.1  -3.1  34164  289.65 0854.77
2009/04/23 12:32:24.5     -15    -78    104     80    131 191.5  58.5  34158  289.53 0854.77
2009/04/23 12:32:24.6       0    -85    107     86    137 180.0  56.4  34154  289.46 0854.77
2009/04/23 12:32:24.7      25      1    107     26    110  87.4  86.9  34158  289.55 0854.77
2009/04/23 12:32:24.8       1    -12     63     13     64 172.0  89.0  34158  289.55 0854.77
2009/04/23 12:32:24.9      39     22     67     45     80  60.2  62.6  34158  289.55 0854.77
2009/04/23 12:32:25.0      34     48     40     59     71  35.2  36.5  34156  289.52 0854.77
2009/04/23 12:32:25.1      17      0     44     18     47  90.0  77.1  34158  289.55 0854.77
2009/04/23 12:32:25.2      -1    -18     45     19     48 184.5  77.1  34156  289.52 0854.77
2009/04/23 12:32:25.3      -7     35     -1     36     37 348.4  -2.2  34156  289.52 0854.77
2009/04/23 12:32:25.4     -23     58    -22     63     67 338.1 -19.7  34158  289.53 0854.77
2009/04/23 12:32:25.5     -58     48    -16     76     78 309.5 -11.9  34158  289.55 0854.77
2009/04/23 12:32:25.6     -31     54    -30     63     69 330.1 -31.6  34158  289.55 0854.74
2009/04/23 12:32:25.7     -31     28    -46     43     62 312.2 -56.5  34164  289.63 0854.74
2009/04/23 12:32:25.8     -29     59    -29     66     72 333.7 -29.5  34164  289.63 0854.74
2009/04/23 12:32:25.9     -11     85    -25     86     89 352.4 -21.2  34164  289.63 0854.74
2009/04/23 12:32:26.0      23     60     25     65     69  20.9  22.0  34160  289.58 0854.74
2009/04/23 12:32:26.1      44     69     25     83     87  32.6  17.3  34158  289.53 0854.74
2009/04/23 12:32:26.2      20     67     33     71     78  16.9  26.6  34160  289.58 0854.74
2009/04/23 12:32:26.3      -8     67     32     68     75 352.9  27.2  34160  289.58 0854.74
2009/04/23 12:32:26.4     -21     47     27     52     58 335.5  29.3  34160  289.57 0854.74
2009/04/23 12:32:26.5     -18     54      6     57     58 341.5   6.9  34162  289.62 0854.74
2009/04/23 12:32:26.6      -5     68    -16     69     71 355.6 -13.4  34158  289.55 0854.74
2009/04/23 12:32:26.7      10     78    -22     79     82   8.0 -20.2  34196  290.19 0854.74
2009/04/23 12:32:26.8       8     67     -2     68     69   7.1  -2.2  34218  290.57 0854.74
2009/04/23 12:32:26.9      37     35     10     52     54  46.9  11.1  34198  290.23 0854.74
2009/04/23 12:32:27.0      32     20     32     39     50  57.5  43.7  34166  289.69 0854.74
2009/04/23 12:32:27.1      13     47     67     49     83  16.0  60.0  34166  289.67 0854.74
2009/04/23 12:32:27.2      91     69     67    115    133  52.7  33.5  34178  289.87 0854.74
2009/04/23 12:32:27.3     110     53     80    123    146  64.2  35.6  34162  289.62 0854.74
2009/04/23 12:32:27.4      73     37     86     82    118  62.9  51.2  34162  289.60 0854.74
2009/04/23 12:32:27.5      66     31     81     74    109  64.8  52.2  34162  289.62 0854.74
2009/04/23 12:32:27.6      58     39     92     71    116  55.8  58.5  34164  289.63 0854.72
2009/04/23 12:32:27.7      23     40     83     47     95  29.9  67.7  34168  289.72 0854.72
2009/04/23 12:32:27.8      59     36     81     70    107  58.5  54.8  34166  289.67 0854.72
2009/04/23 12:32:27.9      23     68     71     73    101  19.2  49.4  34168  289.72 0854.72
2009/04/23 12:32:28.0     -32     -9     64     34     72 253.2  69.8  34172  289.79 0854.72
2009/04/23 12:32:28.1      37    -17     62     41     74 115.3  64.6  34178  289.87 0854.72
2009/04/23 12:32:28.2      62    -24     49     67     83 111.7  40.1  34182  289.94 0854.72
2009/04/23 12:32:28.3      63    -54     41     84     93 130.4  27.3  34176  289.85 0854.72
2009/04/23 12:32:28.4      63    -68     18     93     95 137.2  11.1  34176  289.85 0854.72
2009/04/23 12:32:28.5      64    -64      5     91     92 135.3   3.3  34166  289.67 0854.72
2009/04/23 12:32:28.6      80    -52     33     96    102 123.3  19.4  34170  289.75 0854.72
2009/04/23 12:32:28.7      95    -70     53    119    130 126.4  25.7  34168  289.72 0854.72
2009/04/23 12:32:28.8      71   -113     40    134    140 147.9  16.8  34174  289.80 0854.72
2009/04/23 12:32:28.9      60   -131     22    145    147 155.5   9.0  34168  289.72 0854.72
2009/04/23 12:32:29.0       0   -100     41    101    109 180.0  23.0  34172  289.77 0854.72
2009/04/23 12:32:29.1       1    -84     33     85     91 179.1  22.0  34170  289.74 0854.72
2009/04/23 12:32:29.2     -26    -87     46     92    102 196.9  28.2  34166  289.69 0854.72
2009/04/23 12:32:29.3     -22    -90     52     93    106 194.3  31.4  34162  289.60 0854.72
2009/04/23 12:32:29.4     -14    -70     47     72     85 191.5  36.0  34160  289.58 0854.72
2009/04/23 12:32:29.5     -14    -49     17     51     54 196.0  18.4  34160  289.58 0854.72
2009/04/23 12:32:29.6      -3    -45      6     46     47 184.5   8.0  34162  289.62 0854.72
2009/04/23 12:32:29.7       7    -38     23     39     45 168.4  34.4  34162  289.62 0854.72
2009/04/23 12:32:29.8       7    -23     36     25     43 161.5  61.5  34162  289.62 0854.72
2009/04/23 12:32:29.9     -10     45     33     47     57 347.5  38.6  34166  289.67 0854.72
2009/04/23 12:32:30.0     -68     68     34     97    103 315.0  19.4  34164  289.65 0854.72
2009/04/23 12:32:30.1     -84     53     12    100    101 302.5   7.1  34162  289.60 0854.72
2009/04/23 12:32:30.2    -180     56    -43    189    194 287.5 -12.9  34150  289.40 0854.72
2009/04/23 12:32:30.3    -258     51    -98    264    281 281.2 -25.4  34154  289.47 0854.72
2009/04/23 12:32:30.4    -147    117    -55    189    197 308.6 -16.4  34152  289.43 0854.72
2009/04/23 12:32:30.5    -114    167    -23    203    205 325.5  -6.7  34164  289.63 0854.72
2009/04/23 12:32:30.6    -109     69     64    130    144 302.5  28.2  34166  289.69 0854.72
2009/04/23 12:32:30.7    -200     47    -89    206    224 283.3 -29.3  34158  289.55 0854.72
2009/04/23 12:32:30.8    -172    162      7    237    238 313.1   1.8  34162  289.59 0854.72
2009/04/23 12:32:30.9    -176    176     24    250    252 315.0   5.7  34170  289.73 0854.72
2009/04/23 12:32:31.0    -186    228    -59    295    301 320.8 -11.5  34164  289.63 0854.72
2009/04/23 12:32:31.1    -331    261   -151    422    448 308.2 -24.7  34132  289.11 0854.72
2009/04/23 12:32:31.2    -216    213   -106    304    323 314.7 -19.3  34156  289.51 0854.72
2009/04/23 12:32:31.3     -95    201    112    223    249 334.5  28.5  34170  289.73 0854.72
2009/04/23 12:32:31.4     -83    113    162    141    214 323.5  54.6  34170  289.75 0854.72
2009/04/23 12:32:31.5     -50    188     43    195    200 345.1  12.6  34170  289.75 0854.72
2009/04/23 12:32:31.6     -18    233     11    234    235 355.5   2.9  34170  289.75 0854.71
2009/04/23 12:32:31.7     -59    234     54    242    249 345.7  12.6  34174  289.81 0854.71
2009/04/23 12:32:31.8     -32    279    123    281    306 353.3  25.2  34170  289.73 0854.71
2009/04/23 12:32:31.9      24    145    180    148    233   9.7  56.4  34178  289.87 0854.71
2009/04/23 12:32:32.0      -3     23    142     24    144 352.0  90.0  34176  289.85 0854.71
2009/04/23 12:32:32.1      14    -46    147     49    154 162.2  81.0  34170  289.75 0854.71
2009/04/23 12:32:32.2     -41    -65    126     78    148 212.5  64.7  34174  289.80 0854.71
2009/04/23 12:32:32.3     -24    -72     98     77    124 198.7  58.4  34176  289.85 0854.71
2009/04/23 12:32:32.4     -83   -102     76    132    152 219.2  32.9  34174  289.80 0854.71
2009/04/23 12:32:32.5    -196   -108     11    224    225 241.2   2.9  34178  289.89 0854.71
2009/04/23 12:32:32.6    -211    -58      3    220    221 254.5   0.8  34180  289.91 0854.71
2009/04/23 12:32:32.7    -244   -155     45    290    294 237.6   8.9  34180  289.92 0854.71
2009/04/23 12:32:32.8    -213   -139     50    255    260 236.9  11.1  34180  289.92 0854.71
2009/04/23 12:32:32.9    -197   -143    -72    244    255 234.0 -16.4  34168  289.70 0854.71
2009/04/23 12:32:33.0    -209   -153    -23    260    262 233.8  -5.2  34170  289.75 0854.71
2009/04/23 12:32:33.1    -217   -231     37    318    321 223.2   6.7  34170  289.73 0854.71
2009/04/23 12:32:33.2    -175   -273     73    325    334 212.6  12.8  34162  289.62 0854.71
2009/04/23 12:32:33.3    -163   -275    172    320    363 210.7  30.6  34166  289.69 0854.71
2009/04/23 12:32:33.4     -88   -263    261    278    381 198.5  48.0  34166  289.69 0854.71
2009/04/23 12:32:33.5    -121   -279    212    305    371 203.4  38.3  34166  289.69 0854.71
2009/04/23 12:32:33.6    -120   -252    136    280    311 205.5  27.4  34170  289.75 0854.71
2009/04/23 12:32:33.7    -146   -176    123    229    259 219.7  30.6  34168  289.70 0854.71
2009/04/23 12:32:33.8     -55   -121     59    134    146 204.5  25.1  34166  289.69 0854.71
2009/04/23 12:32:33.9      26     73    158     78    176  20.0  72.1  34172  289.79 0854.71
2009/04/23 12:32:34.0      32     21     72     39     81  55.8  69.3  34170  289.74 0854.71
2009/04/23 12:32:34.1     -12     37     32     39     50 341.7  43.7  34168  289.72 0854.71
2009/04/23 12:32:34.2     -53     77      4     94     95 325.3   2.9  34166  289.69 0854.71
2009/04/23 12:32:34.3     -38     18      5     43     44 295.3   6.9  34168  289.70 0854.71
2009/04/23 12:32:34.4    -239    -37     34    242    245 261.2   8.0  34158  289.54 0854.71
2009/04/23 12:32:34.5    -299    -99     28    316    318 251.6   5.1  34158  289.53 0854.71
2009/04/23 12:32:34.6    -250   -174      5    305    306 235.1   1.0  34162  289.61 0854.72
2009/04/23 12:32:34.7    -179   -172      9    249    250 226.2   2.1  34166  289.66 0854.72
2009/04/23 12:32:34.8    -155   -155    -82    220    234 225.0 -25.7  34168  289.72 0854.72
2009/04/23 12:32:34.9    -188   -171   -120    255    281 227.7 -31.5  34180  289.92 0854.72
2009/04/23 12:32:35.0    -271   -286   -138    395    419 223.5 -19.3  34140  289.22 0854.72
2009/04/23 12:32:35.1    -209   -301   -119    367    386 214.7 -18.1  34136  289.15 0854.72
2009/04/23 12:32:35.2    -201   -391    -88    440    449 207.2 -11.3  34142  289.26 0854.72
2009/04/23 12:32:35.3    -217   -370    -46    430    433 210.4  -6.2  34162  289.61 0854.72
2009/04/23 12:32:35.4    -186   -311    -63    363    369 210.9  -9.9  34178  289.86 0854.72
2009/04/23 12:32:35.5    -184   -288     32    343    345 212.6   5.5  34170  289.74 0854.72
2009/04/23 12:32:35.6    -265   -173    -12    317    318 236.9  -2.2  34166  289.68 0854.72
2009/04/23 12:32:35.7    -288   -115      9    311    312 248.2   1.7  34172  289.76 0854.72
2009/04/23 12:32:35.8    -269   -193     72    332    340 234.3  12.3  34178  289.87 0854.72
2009/04/23 12:32:35.9    -307   -145    -13    340    341 244.6  -2.2  34166  289.67 0854.72
2009/04/23 12:32:36.0    -266    -72     13    276    277 254.9   2.8  34164  289.64 0854.72
2009/04/23 12:32:36.1    -313    -23     85    314    326 265.6  15.3  34162  289.59 0854.72
2009/04/23 12:32:36.2    -287     21     63    288    295 274.3  12.4  34168  289.70 0854.72
2009/04/23 12:32:36.3    -385    123    -29    405    406 287.8  -4.1  34168  289.72 0854.72
2009/04/23 12:32:36.4    -385    147     -8    413    414 290.9  -1.2  34148  289.38 0854.72
2009/04/23 12:32:36.5    -214     56     76    222    235 284.8  18.9  34156  289.50 0854.72
2009/04/23 12:32:36.6    -259   -165     48    308    312 237.5   8.9  34170  289.73 0854.74
2009/04/23 12:32:36.7    -369    -29    -62    371    377 265.4  -9.6  34152  289.42 0854.74
2009/04/23 12:32:36.9    -303   -121      6    327    328 248.2   1.1  34168  289.71 0854.74
2009/04/23 12:32:36.9    -323   -118     41    345    348 249.9   6.8  34168  289.72 0854.74
2009/04/23 12:32:37.1    -296   -140     33    328    330 244.7   5.8  34164  289.64 0854.74
2009/04/23 12:32:37.2    -281    -88    -33    295    297 252.5  -6.5  34170  289.75 0854.74
2009/04/23 12:32:37.3    -264    -69      5    273    274 255.2   1.2  34178  289.86 0854.74
2009/04/23 12:32:37.4    -224    -48    -26    230    232 257.8  -6.5  34170  289.75 0854.74
2009/04/23 12:32:37.5    -190   -135    -26    234    236 234.5  -6.5  34180  289.92 0854.74
2009/04/23 12:32:37.6    -202   -180     -5    271    272 228.2  -1.3  34168  289.70 0854.74
2009/04/23 12:32:37.7    -151   -183     37    238    241 219.7   8.9  34166  289.68 0854.74
2009/04/23 12:32:37.8    -183   -203      2    274    275 221.9   0.5  34162  289.61 0854.74
2009/04/23 12:32:37.9    -228   -149     79    273    285 236.7  16.3  34164  289.64 0854.74
2009/04/23 12:32:38.0    -221   -100     25    243    245 245.6   5.9  34164  289.64 0854.74
2009/04/23 12:32:38.1    -179   -147    117    232    259 230.5  28.7  34140  289.24 0854.74
2009/04/23 12:32:38.2    -131   -144    119    196    229 222.3  34.2  34144  289.31 0854.74
2009/04/23 12:32:38.3    -108   -195     58    224    232 209.0  14.5  34148  289.36 0854.74
2009/04/23 12:32:38.4     -69   -172     77    186    201 201.8  23.6  34146  289.35 0854.74
2009/04/23 12:32:38.5      -2   -128    126    129    180 181.0  49.4  34152  289.45 0854.74
2009/04/23 12:32:38.6     -49   -162    126    170    211 196.9  40.1  34150  289.41 0854.74
2009/04/23 12:32:38.7     -95   -178     99    202    224 208.1  27.4  34144  289.30 0854.75
2009/04/23 12:32:38.8    -153   -159     88    221    237 223.9  23.0  34142  289.25 0854.75
2009/04/23 12:32:38.9    -197   -145     76    245    257 233.6  17.3  34146  289.32 0854.75
2009/04/23 12:32:39.0    -234    -47     49    239    245 258.5  11.6  34144  289.31 0854.75
2009/04/23 12:32:39.1    -246    -87     41    262    266 250.5   8.9  34148  289.37 0854.75
2009/04/23 12:32:39.2    -261   -113     14    285    286 246.5   2.9  34150  289.41 0854.75
2009/04/23 12:32:39.3    -261    -52    -54    267    273 258.6 -11.5  34164  289.64 0854.75
2009/04/23 12:32:39.4    -303    -48    -92    307    320 261.0 -21.6  34164  289.63 0854.75
2009/04/23 12:32:39.5    -275    -98    -83    293    305 250.3 -15.8  34166  289.66 0854.75
2009/04/23 12:32:39.6    -342    -35   -108    344    360 264.0 -22.5  34162  289.60 0854.75
2009/04/23 12:32:39.7    -217   -146   -102    262    281 235.9 -26.7  34154  289.46 0854.75
2009/04/23 12:32:39.8    -185   -191    -10    266    267 224.1  -2.2  34154  289.46 0854.75
2009/04/23 12:32:39.9    -221   -163    -91    275    290 233.6 -18.3  34158  289.54 0854.75
2009/04/23 12:32:40.0    -264   -174   -112    317    337 236.7 -19.5  34162  289.60 0854.75
2009/04/23 12:32:40.1    -219   -141    -73    261    271 237.1 -20.4  34170  289.73 0854.75
2009/04/23 12:32:40.2    -217    -87    -69    234    245 248.0 -16.5  34164  289.64 0854.75
2009/04/23 12:32:40.3    -139   -120    -62    184    194 229.1 -23.3  34164  289.65 0854.75
2009/04/23 12:32:40.4    -122   -101    -69    159    173 230.5 -29.3  34160  289.57 0854.75
2009/04/23 12:32:40.5    -219     16    -25    220    222 274.4  -6.5  34176  289.84 0854.75
2009/04/23 12:32:40.6    -254   -122    -92    283    297 244.2 -23.3  34174  289.80 0854.75
2009/04/23 12:32:40.7    -262      0    -23    263    265 270.0  -5.2  34186  290.02 0854.75
2009/04/23 12:32:40.8    -277     25    -27    279    281 275.3  -5.6  34206  290.34 0854.75
2009/04/23 12:32:40.9    -245     77    -46    257    262 287.5 -10.3  34194  290.15 0854.75
2009/04/23 12:32:41.0    -251     13     30    252    254 273.0   6.9  34180  289.90 0854.75
2009/04/23 12:32:41.1    -272    -69      4    281    282 255.6   0.8  34164  289.63 0854.75
2009/04/23 12:32:41.2    -216   -101      3    239    240 244.8   0.8  34166  289.66 0854.75
2009/04/23 12:32:41.3    -137   -162      3    213    214 220.1   0.8  34166  289.69 0854.75
2009/04/23 12:32:41.4    -146   -238     46    280    284 211.6   9.3  34168  289.71 0854.75
2009/04/23 12:32:41.5    -138   -221    -42    261    265 212.1  -9.3  34160  289.58 0854.75
2009/04/23 12:32:41.6     -82   -205     31    221    224 201.8   8.0  34158  289.55 0854.75
2009/04/23 12:32:41.7     -35   -171     64    175    186 191.6  21.0  34166  289.67 0854.75
2009/04/23 12:32:41.8      -2   -188     56    189    198 180.7  16.6  34156  289.50 0854.75
2009/04/23 12:32:41.9      26   -188    -12    190    191 171.9  -3.9  34158  289.55 0854.75
2009/04/23 12:32:42.0       8   -158      2    159    160 176.9   1.0  34156  289.52 0854.75
2009/04/23 12:32:42.1      32   -151     14    155    156 168.0   5.4  34146  289.33 0854.75
2009/04/23 12:32:42.2      71   -166    -32    181    184 156.6 -10.1  34140  289.23 0854.75
2009/04/23 12:32:42.3      97   -174     -6    200    201 150.8  -1.8  34140  289.24 0854.75
2009/04/23 12:32:42.4      39   -164     -2    169    170 166.4  -0.7  34140  289.24 0854.75
2009/04/23 12:32:42.5      71   -214     41    226    230 161.5  10.3  34142  289.28 0854.75
2009/04/23 12:32:42.6      91   -222     88    240    255 157.7  21.0  34142  289.27 0854.75
2009/04/23 12:32:42.7     -40   -207     -4    212    213 191.1  -1.2  34142  289.28 0854.76
2009/04/23 12:32:42.8      77   -285    -11    296    297 164.9  -2.2  34144  289.31 0854.76
2009/04/23 12:32:42.9      63   -340    -41    346    349 169.5  -6.9  34138  289.21 0854.76
2009/04/23 12:32:43.0     -18   -330    117    331    352 183.2  19.6  34142  289.25 0854.76
2009/04/23 12:32:43.1       0   -349     95    350    363 180.0  15.2  34138  289.21 0854.76
2009/04/23 12:32:43.2      17   -339    149    340    371 177.1  25.1  34138  289.21 0854.76
2009/04/23 12:32:43.3      97   -413    173    425    458 166.7  23.1  34142  289.26 0854.76
2009/04/23 12:32:43.4      65   -401    167    407    439 170.8  23.7  34140  289.24 0854.76
2009/04/23 12:32:43.5      82   -339    148    349    379 166.3  24.3  34146  289.32 0854.76
2009/04/23 12:32:43.6     179   -203    115    271    294 138.6  24.3  34140  289.22 0854.76
2009/04/23 12:32:43.7     187   -235     90    301    315 141.5  16.6  34140  289.24 0854.76
2009/04/23 12:32:43.8      91   -301     80    315    326 163.1  14.3  34140  289.24 0854.76
2009/04/23 12:32:43.9      52   -254     94    260    277 168.4  19.9  34146  289.34 0854.76
2009/04/23 12:32:44.0      10   -226     85    227    242 177.4  21.5  34150  289.39 0854.76
2009/04/23 12:32:44.1    -112   -258     20    282    283 203.6   4.2  34142  289.27 0854.76
2009/04/23 12:32:44.2      49   -284    138    289    320 170.2  27.3  34142  289.27 0854.76
2009/04/23 12:32:44.3     -94   -366    162    378    411 194.4  24.6  34144  289.30 0854.76
2009/04/23 12:32:44.4     -51   -363    178    367    407 188.0  27.8  34142  289.28 0854.76
2009/04/23 12:32:44.5      40   -390    173    393    429 174.0  25.2  34142  289.26 0854.76
2009/04/23 12:32:44.6      31   -351    124    353    374 174.8  20.2  34146  289.35 0854.76
2009/04/23 12:32:44.7      78   -352     82    361    371 167.4  12.8  34146  289.33 0854.75
2009/04/23 12:32:44.8     126   -375    -13    396    397 161.4  -1.9  34142  289.25 0854.75
2009/04/23 12:32:44.9     122   -389     10    408    409 162.5   1.5  34144  289.29 0854.75
2009/04/23 12:32:45.0      67   -390     92    396    407 170.2  13.1  34146  289.33 0854.75
2009/04/23 12:32:45.1     148   -309    -10    343    344 154.3  -1.7  34142  289.26 0854.75
2009/04/23 12:32:45.2     164   -387     27    421    422 157.0   3.8  34148  289.36 0854.75
2009/04/23 12:32:45.3     168   -350     44    389    392 154.3   6.6  34142  289.25 0854.75
2009/04/23 12:32:45.4     284   -284      2    402    403 135.0   0.4  34140  289.24 0854.75
2009/04/23 12:32:45.5     282   -273      0    393    394 134.1   0.0  34140  289.23 0854.75
2009/04/23 12:32:45.6     181   -353     31    397    399 152.8   4.5  34142  289.25 0854.75
2009/04/23 12:32:45.7     192   -314     83    369    379 148.6  12.8  34138  289.21 0854.75
2009/04/23 12:32:45.8      59   -367     12    372    373 170.8   1.9  34138  289.21 0854.75
2009/04/23 12:32:45.9      50   -422     50    425    429 173.2   6.8  34138  289.19 0854.75
2009/04/23 12:32:46.0     101   -403     77    416    424 165.9  10.6  34138  289.21 0854.75
2009/04/23 12:32:46.1     106   -408     98    422    434 165.3  13.1  34140  289.22 0854.75
2009/04/23 12:32:46.2      99   -443    112    454    468 167.4  13.9  34140  289.24 0854.75
2009/04/23 12:32:46.3     137   -477     16    497    498 164.0   1.9  34138  289.20 0854.75
2009/04/23 12:32:46.4     163   -462     11    491    492 160.5   1.4  34140  289.22 0854.75
2009/04/23 12:32:46.5     133   -381     -5    404    405 160.7  -0.7  34140  289.22 0854.75
2009/04/23 12:32:46.6      83   -390     45    399    402 167.9   6.5  34138  289.21 0854.75
2009/04/23 12:32:46.7     114   -396     54    413    417 164.0   7.5  34138  289.21 0854.75
2009/04/23 12:32:46.8     119   -358     83    378    388 161.6  12.4  34138  289.20 0854.75
2009/04/23 12:32:46.9     109   -364    129    380    402 163.3  18.8  34140  289.23 0854.75
2009/04/23 12:32:47.0     117   -352    124    372    393 161.5  18.5  34142  289.26 0854.75
2009/04/23 12:32:47.1     158   -318    104    356    371 153.6  16.3  34140  289.23 0854.75
2009/04/23 12:32:47.2     133   -272    114    303    323 153.9  21.6  34140  289.24 0854.75
2009/04/23 12:32:47.3     119   -307    131    330    355 158.8  22.8  34138  289.21 0854.75
2009/04/23 12:32:47.4     100   -293    113    310    329 161.1  20.7  34140  289.22 0854.75
2009/04/23 12:32:47.5      84   -263    117    277    300 162.2  24.2  34142  289.27 0854.75
2009/04/23 12:32:47.6      48   -209    145    215    259 166.9  37.4  34142  289.27 0854.75
2009/04/23 12:32:47.7      51   -183    151    191    243 164.4  42.4  34142  289.26 0854.75
2009/04/23 12:32:47.8     -83   -211    125    228    260 201.6  31.3  34146  289.32 0854.75
2009/04/23 12:32:47.9     -36   -194     29    198    201 190.5   8.5  34140  289.24 0854.75
2009/04/23 12:32:48.0     136   -136    105    193    219 135.1  31.3  34144  289.30 0854.75
2009/04/23 12:32:48.1     103   -246     37    267    270 157.2   8.0  34144  289.31 0854.75
2009/04/23 12:32:48.2     117   -242     37    270    273 154.1   7.8  34144  289.31 0854.75
2009/04/23 12:32:48.3     152   -211     42    261    265 144.2   9.3  34154  289.47 0854.75
2009/04/23 12:32:48.4      86   -148     75    172    187 149.9  25.1  34142  289.26 0854.75
2009/04/23 12:32:48.5      96   -281     25    298    300 161.1   4.9  34144  289.31 0854.75
2009/04/23 12:32:48.6      63   -287     43    294    298 167.6   8.5  34146  289.32 0854.75
2009/04/23 12:32:48.7     111   -233     66    259    268 154.4  14.3  34142  289.25 0854.76
2009/04/23 12:32:48.8     142   -196     27    243    245 144.0   6.5  34142  289.25 0854.76
2009/04/23 12:32:48.9      70   -294    127    303    328 166.6  24.1  34148  289.36 0854.76
2009/04/23 12:32:49.0      26   -253    186    255    315 174.0  39.8  34140  289.22 0854.76
2009/04/23 12:32:49.1     107   -246    156    269    310 156.4  32.9  34130  289.07 0854.76
2009/04/23 12:32:49.2      47   -230    195    235    305 168.4  43.8  34146  289.34 0854.76
2009/04/23 12:32:49.3      44   -260    183    264    321 170.2  38.0  34144  289.29 0854.76
2009/04/23 12:32:49.4      23   -281    200    283    346 175.1  38.7  34140  289.22 0854.76
2009/04/23 12:32:49.5      23   -307    110    308    327 175.6  20.3  34144  289.29 0854.76
2009/04/23 12:32:49.6     118   -228    158    257    301 152.6  34.5  34140  289.22 0854.76
2009/04/23 12:32:49.7     -62   -304    163    311    351 191.6  29.8  34140  289.23 0854.76
2009/04/23 12:32:49.8     -27   -305    170    307    350 185.1  31.4  34142  289.28 0854.76
2009/04/23 12:32:49.9     -73   -287     86    297    310 194.3  16.3  34142  289.27 0854.76
2009/04/23 12:32:50.0      15   -202     47    203    209 175.6  13.2  34138  289.21 0854.76
2009/04/23 12:32:50.1     116   -171    106    207    232 145.7  29.3  34142  289.26 0854.76
2009/04/23 12:32:50.2     114   -337    165    356    392 161.3  26.5  34138  289.21 0854.76
2009/04/23 12:32:50.3     101   -262    247    282    374 158.8  45.8  34146  289.32 0854.76
2009/04/23 12:32:50.4     126   -210    207    246    321 149.0  44.4  34140  289.24 0854.76
2009/04/23 12:32:50.5      96   -244    180    263    318 158.4  37.7  34142  289.27 0854.76
2009/04/23 12:32:50.6     145   -228    197    271    335 147.5  39.7  34142  289.27 0854.76
2009/04/23 12:32:50.7     149   -219    215    266    342 145.7  43.3  34140  289.22 0854.75
2009/04/23 12:32:50.8     254   -145    160    293    333 119.8  31.0  34146  289.32 0854.75
2009/04/23 12:32:50.9     287   -117    123    310    333 112.2  22.9  34144  289.31 0854.75
2009/04/23 12:32:51.0     157   -156    168    222    278 134.9  40.9  34140  289.24 0854.75
2009/04/23 12:32:51.1     185   -205    150    277    315 137.9  30.7  34142  289.27 0854.75
2009/04/23 12:32:51.2     167   -110    132    201    240 123.3  36.5  34140  289.24 0854.75
2009/04/23 12:32:51.3     165   -121    125    205    240 126.4  34.4  34142  289.28 0854.75
2009/04/23 12:32:51.4     162   -102    136    192    235 122.4  38.8  34142  289.28 0854.75
2009/04/23 12:32:51.5     105    -81    139    133    192 127.8  51.2  34146  289.35 0854.75
2009/04/23 12:32:51.6      10   -100    146    101    177 173.8  62.1  34154  289.46 0854.75
2009/04/23 12:32:51.7     -28     14     74     32     80 297.1  75.0  34154  289.46 0854.75
2009/04/23 12:32:51.8      38    -60    110     72    131 147.4  64.1  34146  289.33 0854.75
2009/04/23 12:32:51.9     123      0     92    124    154  90.4  39.7  34142  289.28 0854.75
2009/04/23 12:32:52.0     105    -22     82    108    135 101.9  41.6  34144  289.31 0854.75
2009/04/23 12:32:52.1      67     17     81     70    107  75.8  54.8  34146  289.35 0854.75
2009/04/23 12:32:52.2      58     23     65     63     90  68.3  50.7  34144  289.31 0854.75
2009/04/23 12:32:52.3      31      2     65     32     72  85.6  72.8  34146  289.35 0854.75
2009/04/23 12:32:52.4      28    -32     47     43     63 138.6  52.2  34146  289.35 0854.75
2009/04/23 12:32:52.5       5    -49     47     50     68 173.8  49.0  34144  289.31 0854.75
2009/04/23 12:32:52.6      33   -101     89    107    139 161.7  43.8  34144  289.31 0854.75
2009/04/23 12:32:52.7       5   -122     53    123    133 177.4  25.1  34142  289.28 0854.74
2009/04/23 12:32:52.8      -2   -148     40    149    155 181.0  15.3  34144  289.31 0854.74
2009/04/23 12:32:52.9     -11   -145      3    146    147 184.5   1.2  34146  289.35 0854.74
2009/04/23 12:32:53.0      33   -145     52    149    158 167.1  19.4  34152  289.43 0854.74
2009/04/23 12:32:53.1      96   -137     68    168    181 145.0  23.1  34152  289.45 0854.74
2009/04/23 12:32:53.2      29   -179    107    182    211 170.7  33.4  34150  289.40 0854.74
2009/04/23 12:32:53.3     -13   -176    164    177    241 184.5  47.9  34150  289.41 0854.74
2009/04/23 12:32:53.4      33   -129    124    134    182 165.3  47.9  34152  289.45 0854.74
2009/04/23 12:32:53.5      72    -87    110    113    157 140.4  49.2  34154  289.46 0854.74
2009/04/23 12:32:53.6      31   -103    124    108    164 163.1  54.6  34156  289.50 0854.74
2009/04/23 12:32:53.7      43    -41     96     60    113 133.3  64.7  34152  289.43 0854.74
2009/04/23 12:32:53.8      51     42     74     67     99  50.5  52.7  34152  289.43 0854.74
2009/04/23 12:32:53.9      82     64    107    105    149  51.8  50.1  34150  289.40 0854.74
2009/04/23 12:32:54.0      93     88    109    129    168  46.4  44.3  34148  289.38 0854.74
2009/04/23 12:32:54.1       8    113     99    114    150   4.4  45.4  34150  289.41 0854.74
2009/04/23 12:32:54.2     -44    115     79    124    147 339.1  35.5  34152  289.43 0854.74
2009/04/23 12:32:54.3      35    114     95    120    153  17.4  43.3  34150  289.40 0854.74
2009/04/23 12:32:54.4     -10    136     79    137    158 355.6  32.7  34154  289.46 0854.74
2009/04/23 12:32:54.5      37    125     87    131    157  16.5  36.7  34150  289.41 0854.74
2009/04/23 12:32:54.6      36    136     62    141    154  15.2  25.1  34154  289.46 0854.74
2009/04/23 12:32:54.7      28    139     94    142    170  11.5  36.5  34152  289.45 0854.74
2009/04/23 12:32:54.8      23    113     88    116    145  11.6  41.2  34156  289.50 0854.74
2009/04/23 12:32:54.9      45    120     81    129    152  20.5  35.5  34156  289.52 0854.74
2009/04/23 12:32:55.0     -20    151     93    153    179 352.4  34.2  34166  289.67 0854.74
2009/04/23 12:32:55.1     -63     35     42     73     84 298.9  32.9  34164  289.65 0854.74
2009/04/23 12:32:55.2      18     51     41     55     68  19.2  41.7  34178  289.89 0854.74
2009/04/23 12:32:55.3      92     31     97     98    137  71.4  50.0  34198  290.23 0854.74
2009/04/23 12:32:55.4      60     34    110     70    130  60.2  64.7  34208  290.40 0854.74
2009/04/23 12:32:55.5     124     36     98    130    162  73.6  40.7  34194  290.14 0854.74
2009/04/23 12:32:55.6     109     32     88    114    144  73.2  41.7  34172  289.79 0854.74
2009/04/23 12:32:55.7      66     81     49    105    115  39.2  27.1  34178  289.89 0854.75
2009/04/23 12:32:55.8      58     75     38     95    102  37.8  23.0  34182  289.94 0854.75
2009/04/23 12:32:55.9      96    109     22    146    148  41.4   8.9  34198  290.23 0854.75
2009/04/23 12:32:56.0      98    118    -15    154    155  39.6  -5.6  34218  290.55 0854.75
2009/04/23 12:32:56.1      73    100     60    124    137  36.1  27.3  34246  291.03 0854.75
2009/04/23 12:32:56.2     110     97     75    147    165  48.6  29.3  34242  290.96 0854.75
2009/04/23 12:32:56.3     102     87     70    135    152  49.6  29.3  34220  290.60 0854.75
2009/04/23 12:32:56.4      84     40     70     94    117  64.2  40.1  34202  290.28 0854.75
2009/04/23 12:32:56.5     120     18     75    122    143  81.2  35.0  34194  290.16 0854.75
2009/04/23 12:32:56.6     148     75     51    167    175  63.1  17.1  34302  291.98 0854.75
2009/04/23 12:32:56.7     154    127     35    200    204  50.4   9.9  34272  291.49 0854.75
2009/04/23 12:32:56.8     171     78    162    189    248  65.4  44.8  34252  291.13 0854.75
2009/04/23 12:32:56.9     180    146     82    233    247  50.9  20.0  34256  291.21 0854.75
2009/04/23 12:32:57.0     124     67     33    142    146  61.6  13.1  34232  290.79 0854.75
2009/04/23 12:32:57.1      63     76    -29     99    104  39.6 -16.6  34232  290.79 0854.75
2009/04/23 12:32:57.2      70     86      5    112    113  39.2   2.9  34230  290.75 0854.75
2009/04/23 12:32:57.3     155    154     46    219    224  45.1  12.0  34242  290.98 0854.75
2009/04/23 12:32:57.4     296    107     48    315    319  70.1   8.7  34208  290.39 0854.75
2009/04/23 12:32:57.5     218    198    109    295    314  47.7  21.3  34204  290.31 0854.75
2009/04/23 12:32:57.6     266    214     27    342    344  51.2   4.6  34204  290.33 0854.75
2009/04/23 12:32:57.7     251    149     14    293    294  59.3   2.9  34182  289.95 0854.77
2009/04/23 12:32:57.8     256     99     59    275    282  68.7  12.1  34174  289.80 0854.77
2009/04/23 12:32:57.9     267    107     18    288    289  68.0   3.6  34170  289.75 0854.77
2009/04/23 12:32:58.0     258    127    -27    288    290  63.8  -5.4  34176  289.83 0854.77
2009/04/23 12:32:58.1     237    127     30    269    271  61.8   6.5  34184  289.98 0854.77
2009/04/23 12:32:58.2     213     97     -4    235    236  65.4  -1.2  34178  289.86 0854.77
2009/04/23 12:32:58.3     173    120    -35    211    214  55.1  -9.6  34176  289.84 0854.77
2009/04/23 12:32:58.4     187    114    -15    220    221  58.7  -4.1  34180  289.92 0854.77
2009/04/23 12:32:58.5     130    140    -61    192    202  42.8 -17.6  34180  289.92 0854.77
2009/04/23 12:32:58.6     118    141    -19    184    186  39.9  -6.0  34182  289.94 0854.77
2009/04/23 12:32:58.7     151     53     30    161    164  70.5  10.6  34188  290.06 0854.77
2009/04/23 12:32:58.8     157     41     13    163    164  75.2   4.9  34184  289.99 0854.77
2009/04/23 12:32:58.9     240     51     33    246    249  77.8   7.8  34234  290.82 0854.77
2009/04/23 12:32:59.0     234     83     58    249    256  70.5  13.1  34238  290.88 0854.77
2009/04/23 12:32:59.1     164    115     37    201    205  54.9  10.6  34232  290.81 0854.77
2009/04/23 12:32:59.2     126    143    -45    191    197  41.4 -13.3  34218  290.55 0854.77
2009/04/23 12:32:59.3     109    120    -24    163    165  42.1  -8.6  34226  290.69 0854.77
2009/04/23 12:32:59.4     101     67    -42    122    129  56.3 -23.3  34224  290.65 0854.77
2009/04/23 12:32:59.5     170      0      9    171    172  90.1   3.1  34216  290.53 0854.77
2009/04/23 12:32:59.6     227     -3     44    228    233  90.9  11.1  34212  290.45 0854.77
2009/04/23 12:32:59.7     237    -14     56    238    245  93.5  13.2  34210  290.42 0854.77
2009/04/23 12:32:59.8     222    -17    -31    223    226  94.4  -8.0  34202  290.28 0854.77
2009/04/23 12:32:59.9     197    -64      8    208    209 108.2   2.3  34198  290.23 0854.77
2009/04/23 12:33:00.0     148   -107    -40    183    188 126.0 -12.4  34200  290.25 0854.77
2009/04/23 12:33:00.1     160   -127    -40    205    209 128.4 -11.1  34194  290.16 0854.77
2009/04/23 12:33:00.2     116   -129     -6    174    175 137.9  -2.2  34194  290.16 0854.77
2009/04/23 12:33:00.3      45   -159     59    166    176 164.2  20.0  34202  290.28 0854.77
2009/04/23 12:33:00.4      31   -154     64    158    170 168.4  23.4  34212  290.45 0854.77
2009/04/23 12:33:00.5     109   -124     95    166    191 138.8  32.1  34214  290.50 0854.77
2009/04/23 12:33:00.6     191   -155    119    247    274 129.1  27.4  34202  290.27 0854.77
2009/04/23 12:33:00.7     202   -215    130    296    323 136.8  25.3  34192  290.10 0854.77
2009/04/23 12:33:00.8     200   -185    137    273    305 132.7  28.5  34194  290.14 0854.77
2009/04/23 12:33:00.9     199   -124    181    235    296 122.0  41.6  34200  290.24 0854.77
2009/04/23 12:33:01.0     181    -84    206    200    287 115.1  50.9  34206  290.34 0854.77
2009/04/23 12:33:01.1     119    -66    173    137    220 118.9  57.7  34204  290.33 0854.77
2009/04/23 12:33:01.2     125    -68    155    143    210 118.8  52.5  34196  290.18 0854.77
2009/04/23 12:33:01.3       0    -63    131     64    145 180.9  72.8  34196  290.19 0854.77
2009/04/23 12:33:01.4      47    -12     94     49    106 105.1  70.4  34196  290.19 0854.77
2009/04/23 12:33:01.5      68    -13     98     70    120 101.4  60.6  34194  290.14 0854.77
2009/04/23 12:33:01.6      -9    -18     82     21     84 207.2  85.4  34198  290.23 0854.77
2009/04/23 12:33:01.7       2    -35     65     36     74 175.5  68.8  34202  290.28 0854.77
2009/04/23 12:33:01.8      33     36     97     50    109  42.3  70.8  34200  290.26 0854.77
2009/04/23 12:33:01.9      16    -29     98     34    103 151.0  81.2  34202  290.30 0854.77
2009/04/23 12:33:02.0      67     59    113     90    144  48.2  57.5  34194  290.14 0854.77
2009/04/23 12:33:02.1      46     49    113     68    131  43.2  66.2  34194  290.16 0854.77
2009/04/23 12:33:02.2      31     39     85     50     98  38.7  67.2  34192  290.13 0854.77
2009/04/23 12:33:02.3       2     88     50     89    102   1.4  31.4  34194  290.16 0854.77
2009/04/23 12:33:02.4       4     78     73     79    107   3.6  47.9  34194  290.14 0854.77
2009/04/23 12:33:02.5     -31     31     56     44     71 315.0  56.4  34196  290.19 0854.77
2009/04/23 12:33:02.6      -1    -12     32     13     34 184.5  79.2  34200  290.26 0854.77
2009/04/23 12:33:02.7      69     -7    -50     70     86  96.1 -43.5  34192  290.13 0854.77
2009/04/23 12:33:02.8      60     24    -78     65    101  67.4 -60.7  34192  290.13 0854.77
2009/04/23 12:33:02.9      49     13    -39     51     64  74.9 -45.1  34194  290.14 0854.77
2009/04/23 12:33:03.0      46      0      2     47     48  89.2   2.9  34194  290.14 0854.77
2009/04/23 12:33:03.1      30      4    -24     31     39  82.1 -48.1  34196  290.19 0854.77
2009/04/23 12:33:03.2      73     79    -67    108    127  42.8 -39.9  34200  290.26 0854.77
2009/04/23 12:33:03.3     204     12     97    205    226  86.5  27.1  34188  290.04 0854.77
2009/04/23 12:33:03.4     231     80    171    245    298  70.9  38.5  34180  289.90 0854.77
2009/04/23 12:33:03.5     342    186    177    390    428  61.4  26.2  34186  290.02 0854.77
2009/04/23 12:33:03.6     325    131    239    351    424  68.0  37.6  34188  290.06 0854.77
2009/04/23 12:33:03.8     305     48     62    309    316  81.0  11.4  34192  290.12 0854.76
2009/04/23 12:33:03.9     275      0     25    276    278  90.0   5.2  34190  290.09 0854.76
2009/04/23 12:33:04.0     230     17     68    231    241  85.6  16.4  34194  290.15 0854.76
2009/04/23 12:33:04.1     216     72     76    228    241  71.4  18.5  34190  290.07 0854.76
2009/04/23 12:33:04.2     256     52    123    262    289  78.5  27.1  34190  290.09 0854.76
2009/04/23 12:33:04.3     190     13     31    191    194  85.9   9.5  34190  290.09 0854.76
2009/04/23 12:33:04.4     205     57     75    213    226  74.3  19.4  34190  290.08 0854.76
2009/04/23 12:33:04.5     410    120      9    428    429  73.7   1.2  34188  290.04 0854.76
2009/04/23 12:33:04.6     453    114     -5    468    469  75.8  -0.7  34192  290.13 0854.76
2009/04/23 12:33:04.7     401    182     55    441    445  65.6   7.1  34182  289.94 0854.76
2009/04/23 12:33:04.8     300    173    110    347    365  60.1  17.7  34182  289.96 0854.76
2009/04/23 12:33:04.9     316    215    220    383    441  55.8  32.4  34198  290.21 0854.76
2009/04/23 12:33:05.0     393    158     60    424    429  68.1   8.1  34170  289.75 0854.76
2009/04/23 12:33:05.1     349    198     81    402    411  60.5  11.4  34174  289.82 0854.76
2009/04/23 12:33:05.2     360    184     78    405    413  62.9  11.0  34176  289.83 0854.76
2009/04/23 12:33:05.3     225    260     88    345    357  40.9  14.4  34218  290.57 0854.76
2009/04/23 12:33:05.4     275    299    172    407    441  42.5  24.2  34196  290.17 0854.76
2009/04/23 12:33:05.5     292    221    161    367    400  52.8  25.2  34162  289.62 0854.76
2009/04/23 12:33:05.6     243     88    -18    259    260  70.0  -4.1  34166  289.68 0854.76
2009/04/23 12:33:05.7     241    109    -86    265    279  65.6 -18.1  34178  289.86 0854.76
2009/04/23 12:33:05.8     254    136   -142    289    322  61.8 -32.4  34178  289.86 0854.78
2009/04/23 12:33:05.9     464     21    -43    465    468  87.4  -5.4  34168  289.71 0854.78
2009/04/23 12:33:06.0     489    116    128    503    520  76.6  14.3  34212  290.44 0854.78
2009/04/23 12:33:06.1     432    185    141    471    492  66.8  16.7  34198  290.23 0854.78
2009/04/23 12:33:06.2     441    107    -65    454    459  76.3  -8.2  34192  290.11 0854.78
2009/04/23 12:33:06.3     249    300    161    390    421  39.7  23.7  34218  290.56 0854.78
2009/04/23 12:33:06.4     637    219    224    674    711  71.0  18.4  34182  289.93 0854.78
2009/04/23 12:33:06.5     610    181    246    637    682  73.5  22.3  34176  289.85 0854.78
2009/04/23 12:33:06.6     391     86    280    401    489  77.5  38.4  34192  290.12 0854.78
2009/04/23 12:33:06.7     105    231    208    254    328  24.5  43.6  34210  290.41 0854.78
2009/04/23 12:33:06.8     263    227    180    348    391  49.2  29.4  34188  290.06 0854.78
2009/04/23 12:33:06.9     364     27    163    365    399  85.7  25.7  34182  289.94 0854.78
2009/04/23 12:33:07.0     311      0    153    312    347  90.0  27.9  34182  289.93 0854.78
2009/04/23 12:33:07.1     231     -8    109    232    256  92.1  27.1  34186  290.02 0854.78
2009/04/23 12:33:07.2     191    -34     68    195    207 100.1  19.4  34182  289.94 0854.78
2009/04/23 12:33:07.3     245    -49     -1    250    251 101.4  -0.3  34178  289.88 0854.78
2009/04/23 12:33:07.4     249    137     -1    285    286  61.1  -0.3  34184  289.97 0854.78
2009/04/23 12:33:07.5     313     73    149    322    354  76.8  26.5  34202  290.27 0854.78
2009/04/23 12:33:07.6     308     48    133    312    339  81.0  24.5  34204  290.33 0854.78
2009/04/23 12:33:07.7     258    103     24    279    281  68.2   5.0  34206  290.34 0854.78
2009/04/23 12:33:07.8     175    111     25    208    210  57.5   6.9  34218  290.57 0854.77
2009/04/23 12:33:07.9     132    129    -58    185    193  45.6 -22.8  34218  290.57 0854.77
2009/04/23 12:33:08.0     298    182   -121    350    371  58.5 -19.1  34218  290.55 0854.77
2009/04/23 12:33:08.1     481    234   -183    536    567  64.0 -18.9  34208  290.40 0854.77
2009/04/23 12:33:08.2     453    201    198    496    534  66.1  23.0  34238  290.89 0854.77
2009/04/23 12:33:08.3     359    197    278    410    495  61.2  37.4  34238  290.90 0854.77
2009/04/23 12:33:08.4     597    225     99    639    647  69.3   8.8  34202  290.28 0854.77
2009/04/23 12:33:08.5     473    248    189    535    568  62.3  19.5  34210  290.41 0854.77
2009/04/23 12:33:08.6     651    292     74    714    718  65.8   6.0  34180  289.91 0854.77
2009/04/23 12:33:08.7     578    264     65    636    640  65.4   5.9  34190  290.09 0854.77
2009/04/23 12:33:08.8     514    306     18    599    600  59.3   1.8  34194  290.14 0854.77
2009/04/23 12:33:08.9     183    117    126    218    251  57.4  32.9  34188  290.03 0854.77
2009/04/23 12:33:09.0     137     91    124    165    206  56.5  40.9  34214  290.50 0854.77
2009/04/23 12:33:09.1      79    142    136    163    212  29.0  43.8  34224  290.67 0854.77
2009/04/23 12:33:09.2     200     84     54    218    225  67.2  13.9  34208  290.38 0854.77
2009/04/23 12:33:09.3     296     94    -52    311    316  72.3  -9.5  34208  290.39 0854.77
2009/04/23 12:33:09.4     334    130    -99    359    373  68.6 -15.5  34208  290.40 0854.77
2009/04/23 12:33:09.5     266    125     71    295    304  64.8  13.5  34206  290.36 0854.77
2009/04/23 12:33:09.6     389    211     95    443    454  61.5  12.2  34250  291.09 0854.77
2009/04/23 12:33:09.7     387    264     56    469    473  55.7   6.8  34266  291.37 0854.77
2009/04/23 12:33:09.8     160    260     99    306    322  31.6  17.9  34270  291.43 0854.77
2009/04/23 12:33:09.9     170    235     79    291    302  36.0  15.3  34258  291.24 0854.77
2009/04/23 12:33:10.0     121    171     10    210    211  35.4   2.8  34256  291.21 0854.77
2009/04/23 12:33:10.1     175    218   -107    280    299  38.7 -26.4  34226  290.68 0854.77
2009/04/23 12:33:10.2     135     83    -85    159    180  58.5 -35.0  34224  290.65 0854.77
2009/04/23 12:33:10.3     102     -4   -139    103    173  92.6 -64.4  34234  290.84 0854.77
2009/04/23 12:33:10.4     162     67     -8    176    177  67.4  -2.6  34196  290.18 0854.77
2009/04/23 12:33:10.5      91    -91     68    130    146 135.0  29.3  34206  290.36 0854.77
2009/04/23 12:33:10.6     255   -146    140    294    325 119.8  27.3  34188  290.03 0854.77
2009/04/23 12:33:10.7     239    -62    128    247    278 104.6  29.3  34186  290.00 0854.77
2009/04/23 12:33:10.8     291    -35    157    294    333  97.0  30.5  34184  289.98 0854.77
2009/04/23 12:33:10.9     241    -10    225    242    330  92.6  47.8  34182  289.93 0854.77
2009/04/23 12:33:11.0     303    -91    191    317    370 106.8  34.1  34174  289.82 0854.77
2009/04/23 12:33:11.1     192   -159    214    250    329 129.6  45.0  34182  289.93 0854.77
2009/04/23 12:33:11.2       0   -170    117    171    207 180.0  37.6  34182  289.94 0854.77
2009/04/23 12:33:11.3     199    -30     98    202    224  98.8  27.3  34178  289.89 0854.77
2009/04/23 12:33:11.4     339    -69    201    347    401 101.6  32.7  34178  289.87 0854.77
2009/04/23 12:33:11.5     385    -75    175    393    430 101.1  25.6  34172  289.78 0854.77
2009/04/23 12:33:11.6     205    -67    235    216    319 108.2  52.7  34188  290.03 0854.77
2009/04/23 12:33:11.7     296    -98    197    312    368 108.4  35.5  34176  289.84 0854.77
2009/04/23 12:33:11.8     170    -71    141    185    232 112.6  41.2  34172  289.79 0854.78
2009/04/23 12:33:11.9     127   -156    191    202    278 140.8  48.2  34174  289.81 0854.78
2009/04/23 12:33:12.0     145     -4    183    146    234  91.7  57.1  34188  290.04 0854.78
2009/04/23 12:33:12.1     280    111    268    302    403  68.3  46.2  34196  290.18 0854.78
2009/04/23 12:33:12.2      50     49    168     71    182  45.9  76.1  34196  290.19 0854.78
2009/04/23 12:33:12.3     165    157     93    229    247  46.4  23.4  34204  290.31 0854.78
2009/04/23 12:33:12.4     124     44    123    132    180  70.5  47.9  34198  290.23 0854.78
2009/04/23 12:33:12.5     141     91    143    168    220  57.1  44.8  34200  290.25 0854.78
2009/04/23 12:33:12.6     172     67    102    185    211  68.5  31.3  34192  290.11 0854.78
2009/04/23 12:33:12.7     107     16     37    109    116  81.2  18.9  34180  289.92 0854.78
2009/04/23 12:33:12.8      78    -46     75     91    117 120.7  43.8  34188  290.04 0854.78
2009/04/23 12:33:12.9     140    -37     39    145    151 105.1  15.2  34184  289.99 0854.78
2009/04/23 12:33:13.0     -13     54    114     56    127 345.7  71.9  34188  290.06 0854.78
2009/04/23 12:33:13.1     160    150    128    220    254  46.8  32.7  34218  290.54 0854.78
2009/04/23 12:33:13.2     123    119    143    172    223  46.0  43.8  34210  290.43 0854.78
2009/04/23 12:33:13.3     196    152    148    249    289  52.2  33.5  34212  290.44 0854.78
2009/04/23 12:33:13.4      95    218    131    239    272  23.6  31.3  34220  290.58 0854.78
2009/04/23 12:33:13.5      84    185     76    204    217  24.3  21.3  34210  290.41 0854.78
2009/04/23 12:33:13.6      11    140    -89    141    166   4.9 -39.9  34200  290.26 0854.78
2009/04/23 12:33:13.7     -75    110    -60    134    146 325.7 -30.6  34200  290.25 0854.78
2009/04/23 12:33:13.8     111     67    -21    130    132  58.9  -9.3  34184  289.99 0854.74
2009/04/23 12:33:13.9     119     -8    166    120    204  94.3  60.6  34192  290.13 0854.74
2009/04/23 12:33:14.0     126    -10    150    127    196  94.8  55.6  34170  289.75 0854.74
2009/04/23 12:33:14.1      90     91    100    129    163  44.5  41.7  34180  289.92 0854.74
2009/04/23 12:33:14.2      16    154     88    155    178   6.2  31.9  34184  289.99 0854.74
2009/04/23 12:33:14.3     -10    204      0    205    206 357.1  -0.3  34206  290.35 0854.74
2009/04/23 12:33:14.4     -74    111    -45    134    141 326.2 -23.6  34216  290.53 0854.74
2009/04/23 12:33:14.5     -90     57    -25    107    111 302.4 -13.4  34198  290.21 0854.74
2009/04/23 12:33:14.6       9    124     79    125    147   4.5  35.5  34186  290.02 0854.74
2009/04/23 12:33:14.7     256    186     24    317    318  54.0   4.3  34168  289.71 0854.74
2009/04/23 12:33:14.8     314     85     78    326    336  74.8  13.5  34164  289.65 0854.74
2009/04/23 12:33:14.9     404     76     51    412    416  79.3   7.1  34168  289.72 0854.74
2009/04/23 12:33:15.0     385     53     51    389    393  82.1   7.5  34182  289.96 0854.74
2009/04/23 12:33:15.1     279    126    119    307    329  65.6  22.2  34198  290.20 0854.74
2009/04/23 12:33:15.2     276    183     44    332    335  56.4   7.6  34208  290.38 0854.74
2009/04/23 12:33:15.3     144    273     85    309    321  27.9  15.4  34198  290.22 0854.74
2009/04/23 12:33:15.4     129    235     27    269    271  28.7   5.9  34200  290.24 0854.74
2009/04/23 12:33:15.5     116     48    103    126    162  67.4  43.5  34186  290.02 0854.74
2009/04/23 12:33:15.6     225     73    166    237    289  71.8  38.5  34168  289.71 0854.74
2009/04/23 12:33:15.7     183    -34    209    187    280 100.6  53.5  34170  289.73 0854.74
2009/04/23 12:33:15.8     157     22    223    159    273  82.0  60.8  34176  289.83 0854.74
2009/04/23 12:33:15.9     119    -51    185    130    226 113.5  61.3  34174  289.80 0854.74
2009/04/23 12:33:16.0      73     17    139     76    158  76.7  69.1  34178  289.87 0854.74
2009/04/23 12:33:16.1      26     -4    106     27    109  99.7  85.4  34180  289.92 0854.74
2009/04/23 12:33:16.2     -16     42     73     45     85 339.1  65.1  34176  289.85 0854.74
2009/04/23 12:33:16.3       5     -9    117     11    117 147.5  90.0  34180  289.91 0854.74
2009/04/23 12:33:16.4      52     -3    119     53    130  94.3  74.5  34178  289.87 0854.74
2009/04/23 12:33:16.5     384    195    214    431    481  63.0  28.2  34160  289.56 0854.74
2009/04/23 12:33:16.6     160     71    257    176    311  66.0  62.6  34168  289.70 0854.74
2009/04/23 12:33:16.7     259     56    346    266    436  77.8  58.6  34184  289.98 0854.74
2009/04/23 12:33:16.8      20     -2    174     21    175  97.9  90.0  34184  289.99 0854.77
2009/04/23 12:33:16.9     -86   -108    247    139    283 218.7  68.5  34178  289.88 0854.77
2009/04/23 12:33:17.0      76    -51    251     92    267 124.2  79.2  34176  289.85 0854.77
2009/04/23 12:33:17.1     -59     67    220     90    237 318.6  76.6  34168  289.70 0854.77
2009/04/23 12:33:17.2     -93    -68    186    116    219 233.6  64.9  34180  289.92 0854.77
2009/04/23 12:33:17.3      31    -13    201     34    203 113.5  90.0  34174  289.80 0854.77
2009/04/23 12:33:17.4     279    -20    247    280    373  94.3  45.9  34172  289.79 0854.77
2009/04/23 12:33:17.5     136   -140    254    196    320 135.9  58.6  34172  289.78 0854.77
2009/04/23 12:33:17.6      75   -158    246    175    301 154.6  61.3  34160  289.56 0854.77
2009/04/23 12:33:17.7     248     40    231    252    341  80.8  47.3  34168  289.71 0854.77
2009/04/23 12:33:17.8     210     70    159    222    273  71.6  39.1  34168  289.71 0854.77
2009/04/23 12:33:17.9     299    153    170    337    377  62.8  28.9  34174  289.82 0854.77
2009/04/23 12:33:18.0     186    224    123    292    316  39.7  24.2  34198  290.20 0854.77
2009/04/23 12:33:18.1     153    250    145    294    327  31.4  28.1  34184  289.98 0854.77
2009/04/23 12:33:18.2     165    162     68    232    242  45.6  16.4  34180  289.90 0854.77
2009/04/23 12:33:18.3     239    126     53    271    277  62.2  11.1  34170  289.75 0854.77
2009/04/23 12:33:18.4     177    243     53    302    307  36.1  10.1  34172  289.78 0854.77
2009/04/23 12:33:18.5     238    268    -37    359    361  41.7  -6.0  34214  290.50 0854.77
2009/04/23 12:33:18.6     181    175     61    252    260  46.0  13.7  34178  289.88 0854.77
2009/04/23 12:33:18.7     101     64    120    120    169  57.6  50.1  34178  289.89 0854.77
2009/04/23 12:33:18.8      98     36    109    105    151  69.6  51.2  34188  290.06 0854.79
2009/04/23 12:33:18.9     107    -52    125    120    173 116.2  50.9  34188  290.04 0854.79
2009/04/23 12:33:19.0      89      0    173     90    195  89.6  70.6  34170  289.74 0854.79
2009/04/23 12:33:19.1     244     39    118    248    274  80.8  27.3  34182  289.93 0854.79
2009/04/23 12:33:19.2     213     74     57    226    234  70.7  14.2  34216  290.52 0854.79
2009/04/23 12:33:19.3     236     63     60    245    253  75.0  13.9  34236  290.85 0854.79
2009/04/23 12:33:19.4     307     56     27    313    315  79.5   5.1  34224  290.66 0854.79
2009/04/23 12:33:19.5     180     38    145    185    235  77.8  42.2  34230  290.77 0854.79
2009/04/23 12:33:19.6     103     48     80    114    139  64.8  39.1  34230  290.75 0854.79
2009/04/23 12:33:19.7      76     57    172     96    196  53.1  68.5  34234  290.84 0854.79
2009/04/23 12:33:19.8     114     67    169    133    215  59.4  57.9  34226  290.70 0854.79
2009/04/23 12:33:19.9     202    123    262    237    353  58.7  53.3  34240  290.93 0854.79
2009/04/23 12:33:20.0     314     69    171    322    364  77.6  30.1  34236  290.86 0854.79
2009/04/23 12:33:20.1     329     83    159    340    375  75.7  27.0  34202  290.27 0854.79
2009/04/23 12:33:20.2     338    186    216    386    442  61.1  31.6  34208  290.39 0854.79
2009/04/23 12:33:20.3     395    223    206    454    498  60.5  26.2  34238  290.90 0854.79
2009/04/23 12:33:20.4     407    171    255    442    510  67.2  32.6  34228  290.74 0854.79
2009/04/23 12:33:20.5     406    162    206    438    484  68.2  27.1  34218  290.57 0854.79
2009/04/23 12:33:20.6     427    148    185    453    489  70.8  23.5  34242  290.98 0854.79
2009/04/23 12:33:20.7     480    209    101    524    534  66.5  11.0  34186  290.01 0854.79
2009/04/23 12:33:20.8     466    238     45    524    527  62.9   5.0  34190  290.07 0854.80
2009/04/23 12:33:20.9     318    247    138    403    427  52.2  18.9  34216  290.51 0854.80
2009/04/23 12:33:21.0     168    199     81    261    274  40.1  17.3  34230  290.76 0854.80
2009/04/23 12:33:21.1     155    165     80    227    241  43.2  19.6  34240  290.92 0854.80
2009/04/23 12:33:21.2     134    223    103    261    280  31.0  23.0  34236  290.85 0854.80
2009/04/23 12:33:21.3     189    322    151    374    403  30.4  23.1  34228  290.74 0854.80
2009/04/23 12:33:21.4      92    272    -11    288    289  18.7  -2.2  34234  290.82 0854.80
2009/04/23 12:33:21.5      19    163    -52    165    174   6.7 -17.6  34226  290.69 0854.80
2009/04/23 12:33:21.6    -142    185    -64    234    242 322.4 -20.0  34214  290.48 0854.80
2009/04/23 12:33:21.7    -312    192   -107    367    382 301.7 -21.1  34142  289.25 0854.80
2009/04/23 12:33:21.8    -393    293   -150    491    513 306.8 -21.8  34132  289.10 0854.80
2009/04/23 12:33:21.9    -495    267   -187    563    593 298.4 -23.7  34142  289.25 0854.80
2009/04/23 12:33:22.0    -371    251   -171    449    480 304.1 -26.4  34156  289.50 0854.80
2009/04/23 12:33:22.1    -116    174   -135    210    249 326.2 -40.0  34184  289.97 0854.80
2009/04/23 12:33:22.2      53    295    -70    300    309  10.2 -13.1  34178  289.86 0854.80
2009/04/23 12:33:22.3     -45    249    -54    254    260 349.8 -12.2  34178  289.86 0854.80
2009/04/23 12:33:22.4    -108    258    -24    280    282 337.3  -5.1  34182  289.93 0854.80
2009/04/23 12:33:22.5    -158    211    -73    264    274 323.1 -15.5  34196  290.17 0854.80
2009/04/23 12:33:22.6     -98    234    -70    254    264 337.3 -15.5  34182  289.93 0854.80
2009/04/23 12:33:22.7     -25    241      8    243    244 354.0   2.1  34186  290.02 0854.80
2009/04/23 12:33:22.8    -186    286     35    342    344 326.9   5.9  34192  290.10 0854.79
2009/04/23 12:33:22.9    -281    300     37    412    414 316.9   5.2  34204  290.31 0854.79
2009/04/23 12:33:23.0    -284    302     51    415    419 316.8   7.1  34204  290.31 0854.79
2009/04/23 12:33:23.1    -171    267      5    318    319 327.3   1.0  34190  290.09 0854.79
2009/04/23 12:33:23.2    -244    258    -11    356    357 316.6  -1.8  34200  290.25 0854.79
2009/04/23 12:33:23.3    -157    190     46    247    252 320.3  10.6  34194  290.15 0854.79
2009/04/23 12:33:23.4    -214     65     60    224    232 287.1  15.0  34190  290.09 0854.79
2009/04/23 12:33:23.5    -254    231     76    344    353 312.3  12.5  34204  290.33 0854.79
2009/04/23 12:33:23.6    -260    207     71    333    341 308.6  12.2  34202  290.30 0854.79
2009/04/23 12:33:23.7    -222    261     81    343    353 319.6  13.3  34206  290.35 0854.79
2009/04/23 12:33:23.8    -223    126     27    257    259 299.5   6.1  34200  290.24 0854.79
2009/04/23 12:33:23.9    -217     83     14    233    234 291.1   3.6  34194  290.14 0854.79
2009/04/23 12:33:24.0    -145    145     -8    206    207 315.0  -2.2  34208  290.38 0854.79
2009/04/23 12:33:24.1    -111     36    -52    117    128 288.4 -29.6  34200  290.26 0854.79
2009/04/23 12:33:24.2     -54    -34     25     64     68 237.6  21.0  34190  290.09 0854.79
2009/04/23 12:33:24.3     -49      9    -18     50     53 280.6 -23.3  34194  290.14 0854.79
2009/04/23 12:33:24.4      -1     79    -50     80     94 359.0 -39.9  34194  290.14 0854.79
2009/04/23 12:33:24.5     -14     78    -41     80     89 349.3 -33.1  34188  290.06 0854.79
2009/04/23 12:33:24.6     -25     87     -3     91     92 344.0  -2.2  34180  289.92 0854.79
2009/04/23 12:33:24.7      29     86    -35     91     97  18.7 -25.9  34184  289.97 0854.79
2009/04/23 12:33:24.8     -42    117      7    125    126 340.0   3.3  34184  289.97 0854.77
2009/04/23 12:33:24.9     -63     81     13    103    104 322.2   7.5  34184  289.99 0854.77
2009/04/23 12:33:25.0     -47     39     -3     62     63 309.5  -3.1  34184  289.99 0854.77
2009/04/23 12:33:25.1     -13     25    -54     29     61 332.8 -73.3  34184  289.99 0854.77
2009/04/23 12:33:25.2     -43     13    -57     46     73 287.7 -60.8  34184  289.99 0854.77
2009/04/23 12:33:25.3     -62    -29    -51     69     85 244.7 -44.5  34194  290.16 0854.77
2009/04/23 12:33:25.4     -29     10    -22     31     38 290.0 -42.0  34198  290.21 0854.77
2009/04/23 12:33:25.5     -41     34     -9     54     55 309.6 -10.3  34190  290.08 0854.77
2009/04/23 12:33:25.6     -32     10     -6     34     35 288.6 -11.3  34192  290.11 0854.77
2009/04/23 12:33:25.7     -19    -52     41     56     69 200.0  39.7  34196  290.19 0854.77
2009/04/23 12:33:25.8     -64    -34     56     73     92 242.0  41.7  34206  290.35 0854.77
2009/04/23 12:33:25.9     -74    -67     34    100    106 227.8  18.9  34212  290.45 0854.77
2009/04/23 12:33:26.0    -114    -80     51    140    149 234.9  20.9  34232  290.79 0854.77
2009/04/23 12:33:26.1    -107    -76     64    132    146 234.5  27.3  34230  290.75 0854.77
2009/04/23 12:33:26.2    -100    -53     64    114    130 242.0  31.9  34232  290.79 0854.77
2009/04/23 12:33:26.3     -76    -61     62     98    115 231.4  35.5  34230  290.77 0854.77
2009/04/23 12:33:26.4     -87    -74     46    115    123 229.6  23.0  34236  290.86 0854.77
2009/04/23 12:33:26.5     -89    -73     27    116    120 230.5  13.2  34228  290.72 0854.77
2009/04/23 12:33:26.6     -70    -67     14     98    100 226.4   8.5  34226  290.70 0854.77
2009/04/23 12:33:26.7     -93    -47     -4    105    106 242.9  -2.2  34228  290.74 0854.77
2009/04/23 12:33:26.8    -100    -62     14    118    119 238.0   6.9  34250  291.09 0854.76
2009/04/23 12:33:26.9     -78    -42      5     89     90 241.6   3.3  34240  290.92 0854.76
2009/04/23 12:33:27.0     -99    -47    -30    110    115 244.2 -15.5  34228  290.72 0854.76
2009/04/23 12:33:27.1    -104    -66    -39    124    131 237.6 -17.6  34216  290.53 0854.76
2009/04/23 12:33:27.2     -42    -60     -9     74     75 215.2  -7.3  34216  290.53 0854.76
2009/04/23 12:33:27.3     -14    -36    -36     39     53 201.8 -52.3  34224  290.67 0854.76
2009/04/23 12:33:27.4     -62    -33    -36     71     79 242.0 -33.1  34224  290.67 0854.76
2009/04/23 12:33:27.5     -46    -34    -32     58     66 234.0 -35.8  34216  290.53 0854.76
2009/04/23 12:33:27.6     -53    -54    -20     76     79 224.2 -15.0  34206  290.35 0854.76
2009/04/23 12:33:27.7     -58    -63    -26     86     89 222.8 -22.3  34206  290.36 0854.76
2009/04/23 12:33:27.8     -47    -52    -46     71     84 222.3 -40.0  34210  290.43 0854.76
2009/04/23 12:33:27.9     -39    -51    -38     65     75 217.0 -37.9  34208  290.40 0854.76
2009/04/23 12:33:28.0     -12    -61     -8     63     64 191.5  -7.2  34210  290.43 0854.76
2009/04/23 12:33:28.1       0    -57    -42     58     71 180.9 -44.1  34222  290.62 0854.76
2009/04/23 12:33:28.2      -4    -12    -61     13     62 198.3 -90.0  34218  290.55 0854.76
2009/04/23 12:33:28.3      12    -11    -63     17     65 133.1 -89.3  34200  290.26 0854.76
2009/04/23 12:33:28.4     -12      4    -68     13     69 288.2 -90.0  34190  290.08 0854.76
2009/04/23 12:33:28.5     -17    -17    -56     25     61 225.0 -79.4  34172  289.77 0854.76
2009/04/23 12:33:28.6      26    -11    -22     29     36 113.5 -46.1  34174  289.80 0854.76
2009/04/23 12:33:28.7      38    -25    -19     46     49 124.2 -27.4  34178  289.87 0854.76
2009/04/23 12:33:28.8      38    -72    -58     82    100 151.9 -43.5  34184  289.97 0854.75
2009/04/23 12:33:28.9      26    -59    -97     65    116 156.4 -68.0  34166  289.69 0854.75
2009/04/23 12:33:29.0      37    -76    -59     85    103 153.7 -42.4  34170  289.75 0854.75
2009/04/23 12:33:29.1      19    -89    -65     92    112 167.5 -43.5  34160  289.58 0854.75
2009/04/23 12:33:29.2       6    -97    -72     98    121 176.4 -44.5  34164  289.65 0854.75
2009/04/23 12:33:29.3      14    -86    -41     88     97 170.7 -31.0  34188  290.04 0854.75
2009/04/23 12:33:29.4       8    -81    -66     82    105 174.2 -47.7  34184  289.99 0854.75
2009/04/23 12:33:29.5      -1    -78    -40     79     88 180.9 -32.6  34194  290.16 0854.75
2009/04/23 12:33:29.6      32    -56    -18     65     68 150.1 -15.4  34204  290.33 0854.75
2009/04/23 12:33:29.7      43    -83    -36     94    100 152.4 -26.9  34196  290.19 0854.75
2009/04/23 12:33:29.8      34    -62    -22     71     74 151.1 -23.8  34188  290.04 0854.75
2009/04/23 12:33:29.9      56    -52     -4     77     78 133.2  -3.2  34174  289.80 0854.75
2009/04/23 12:33:30.0      52    -65      0     84     85 141.3   0.2  34174  289.82 0854.75
2009/04/23 12:33:30.2      75    -32     25     82     86 113.5  17.3  34164  289.63 0854.75
2009/04/23 12:33:30.3      99     -7     48    100    110  94.4  27.3  34156  289.50 0854.75
2009/04/23 12:33:30.4      94    -45     66    105    124 115.4  35.5  34156  289.50 0854.75
2009/04/23 12:33:30.5     103    -27     72    107    128 105.1  37.0  34160  289.58 0854.75
2009/04/23 12:33:30.6     116    -23     98    119    154 101.4  43.7  34160  289.57 0854.75
2009/04/23 12:33:30.7      99     -9    110    100    148  95.7  52.2  34164  289.65 0854.75
2009/04/23 12:33:30.8      86    -14     98     88    131  99.7  53.3  34162  289.60 0854.75
2009/04/23 12:33:30.9      45    -46     84     65    106 135.9  58.5  34166  289.67 0854.73
2009/04/23 12:33:31.0      95    -23     78     98    125 103.7  42.7  34162  289.62 0854.73
2009/04/23 12:33:31.1      64    -16     70     67     96 104.2  50.7  34170  289.74 0854.73
2009/04/23 12:33:31.2      41    -31     46     52     69 127.8  46.9  34174  289.82 0854.73
2009/04/23 12:33:31.3      54    -42     73     69    100 127.8  52.1  34178  289.87 0854.73
2009/04/23 12:33:31.4      48    -45     74     66     99 133.1  53.3  34180  289.91 0854.73
2009/04/23 12:33:31.5      22     -7     63     24     67 108.6  79.2  34178  289.89 0854.73
2009/04/23 12:33:31.6     -13    -44     68     47     82 196.9  62.1  34180  289.92 0854.73
2009/04/23 12:33:31.7       4    -57     74     58     94 175.5  57.9  34174  289.80 0854.73
2009/04/23 12:33:31.8      17    -67     98     70    120 165.7  60.6  34156  289.52 0854.73
2009/04/23 12:33:31.9      15    -48     89     51    102 162.2  67.7  34158  289.55 0854.73
2009/04/23 12:33:32.0      19      0     56     20     59  90.0  80.2  34168  289.70 0854.73
2009/04/23 12:33:32.1      13     21     54     26     59  32.5  72.8  34176  289.84 0854.73
2009/04/23 12:33:32.2      -9      4     40     11     41 295.3  84.9  34174  289.80 0854.73
2009/04/23 12:33:32.3       3    -44     76     45     88 175.5  66.8  34166  289.67 0854.73
2009/04/23 12:33:32.4       0    -59     89     60    107 180.9  63.2  34164  289.65 0854.73
2009/04/23 12:33:32.5     -33     -1     55     34     64 267.4  64.7  34168  289.72 0854.73
2009/04/23 12:33:32.6     -40     -3     31     41     51 264.8  41.7  34166  289.67 0854.73
2009/04/23 12:33:32.7      -9     -5     36     11     37 241.1  80.7  34168  289.72 0854.73
2009/04/23 12:33:32.8      -4    -14     35     15     38 198.5  77.1  34162  289.62 0854.73
2009/04/23 12:33:32.9       1     15     22     16     27   4.4  60.5  34168  289.70 0854.73
2009/04/23 12:33:33.0      -6     32     26     33     42 348.4  42.7  34174  289.82 0854.73
2009/04/23 12:33:33.1      37     12     43     39     58  71.8  52.2  34174  289.80 0854.73
2009/04/23 12:33:33.2      71      6     41     72     82  84.8  31.9  34162  289.60 0854.73
2009/04/23 12:33:33.3      73     40     45     84     95  61.1  30.3  34152  289.45 0854.73
2009/04/23 12:33:33.4      79     34     30     87     93  66.5  19.4  34150  289.41 0854.73
2009/04/23 12:33:33.5     106     47     26    117    120  66.0  12.6  34148  289.38 0854.73
2009/04/23 12:33:33.6     123     30     43    127    135  76.3  18.9  34150  289.40 0854.73
2009/04/23 12:33:33.7     121     13     24    122    125  83.8  11.1  34154  289.46 0854.73
2009/04/23 12:33:33.8     113     23     30    116    120  78.6  14.7  34150  289.40 0854.73
2009/04/23 12:33:33.9     108     47     25    118    121  66.5  12.2  34150  289.40 0854.73
2009/04/23 12:33:34.0     140     57     17    152    153  67.8   6.5  34148  289.38 0854.73
2009/04/23 12:33:34.1     120     56      6    133    134  64.8   2.9  34152  289.45 0854.73
2009/04/23 12:33:34.2     131     26      6    134    135  78.6   2.9  34150  289.40 0854.73
2009/04/23 12:33:34.3     111     37     -3    118    119  71.4  -1.8  34152  289.43 0854.73
2009/04/23 12:33:34.4     106     21     -3    109    110  78.5  -1.8  34168  289.70 0854.73
2009/04/23 12:33:34.5     118     26      9    122    123  77.2   4.4  34210  290.41 0854.73
2009/04/23 12:33:34.6     117     25     31    120    125  77.6  14.7  34220  290.60 0854.73
2009/04/23 12:33:34.7      87     34     25     94     98  68.7  15.2  34212  290.47 0854.73
2009/04/23 12:33:34.8      89     49     -4    102    103  61.2  -2.2  34194  290.14 0854.73
2009/04/23 12:33:34.9     108     92      5    142    143  49.6   2.3  34216  290.53 0854.69
2009/04/23 12:33:35.0      84     95      8    127    128  41.4   3.8  34200  290.25 0854.69
2009/04/23 12:33:35.1      47    100    -14    111    112  25.5  -7.3  34206  290.36 0854.69
2009/04/23 12:33:35.2      58     75      4     96     97  37.8   2.9  34262  291.30 0854.69
2009/04/23 12:33:35.3      53     83      6     99    100  32.5   3.8  34256  291.21 0854.69
2009/04/23 12:33:35.4      36     57      3     68     69  32.5   2.9  34224  290.65 0854.69
2009/04/23 12:33:35.5       7     49     16     50     53   8.9  18.4  34228  290.72 0854.69
2009/04/23 12:33:35.6      18     31     32     37     48  30.7  46.9  34220  290.58 0854.69
2009/04/23 12:33:35.7      -6     30     74     31     80 348.4  76.1  34204  290.31 0854.69
2009/04/23 12:33:35.8     -24     35     82     43     92 325.7  70.8  34196  290.18 0854.69
2009/04/23 12:33:35.9      52     50     65     73     97  45.9  46.9  34198  290.23 0854.69
2009/04/23 12:33:36.0      65     79     62    103    120  39.6  33.5  34224  290.65 0854.69
2009/04/23 12:33:36.1     122     59     96    136    166  64.2  38.8  34238  290.91 0854.69
2009/04/23 12:33:36.2     232     12     84    233    247  87.0  20.7  34220  290.59 0854.69
2009/04/23 12:33:36.3     298     55    107    304    323  79.4  19.4  34222  290.61 0854.69
2009/04/23 12:33:36.4     271     96    173    288    335  70.5  33.8  34226  290.70 0854.69
2009/04/23 12:33:36.5     297    115     94    319    333  68.7  16.5  34256  291.21 0854.69
2009/04/23 12:33:36.6     329    120    106    351    367  70.0  16.8  34230  290.76 0854.69
2009/04/23 12:33:36.7     306    134     47    335    339  66.4   8.1  34218  290.55 0854.69
2009/04/23 12:33:36.8     245     38     30    249    251  81.0   6.9  34210  290.41 0854.69
2009/04/23 12:33:36.9     326      0     20    327    328  90.0   3.5  34220  290.59 0854.67
2009/04/23 12:33:37.0     251     95     47    269    274  69.2  10.0  34256  291.19 0854.67
2009/04/23 12:33:37.1     191     78    151    207    256  67.8  39.7  34220  290.58 0854.67
2009/04/23 12:33:37.2     102    -73     95    126    157 125.5  40.9  34226  290.69 0854.67
2009/04/23 12:33:37.3     180    -13     11    181    182  94.3   3.6  34176  289.85 0854.67
2009/04/23 12:33:37.4     175     11     14    176    177  86.3   4.6  34162  289.62 0854.67
2009/04/23 12:33:37.5     212     79     19    227    228  69.4   4.9  34164  289.63 0854.67
2009/04/23 12:33:37.6     233     57     42    241    245  76.1  10.0  34174  289.81 0854.67
2009/04/23 12:33:37.7     215     -7     86    216    232  92.1  23.0  34178  289.87 0854.67
2009/04/23 12:33:37.8     201     54     40    209    213  75.0  11.0  34180  289.92 0854.67
2009/04/23 12:33:37.9     158     -7     56    159    169  92.8  19.4  34158  289.53 0854.64
2009/04/23 12:33:38.0     181     12     58    182    191  86.1  17.7  34152  289.43 0854.64
2009/04/23 12:33:38.1     153      2     13    154    155  89.2   4.9  34160  289.58 0854.64
2009/04/23 12:33:38.2     170    -18     -6    171    172  96.1  -2.2  34160  289.58 0854.64
2009/04/23 12:33:38.3     128    -22     55    131    142 100.1  23.6  34200  290.25 0854.64
2009/04/23 12:33:38.4     133    -31     88    137    162 103.3  35.6  34188  290.06 0854.64
2009/04/23 12:33:38.5     131    -29     72    135    153 102.8  30.8  34186  290.01 0854.64
2009/04/23 12:33:38.6      83     50     26     97    101  58.9  15.3  34182  289.94 0854.64
2009/04/23 12:33:38.7      76    -17     26     78     83 102.8  18.9  34190  290.09 0854.64
2009/04/23 12:33:38.8      86      3     26     87     91  87.4  16.8  34162  289.62 0854.64
2009/04/23 12:33:38.9      74      5     31     75     81  85.6  23.6  34162  289.62 0854.64
2009/04/23 12:33:39.0      78      6     55     79     96  85.6  38.0  34160  289.57 0854.64
2009/04/23 12:33:39.1      58     25     50     64     81  66.5  42.2  34160  289.58 0854.64
2009/04/23 12:33:39.2      41     48     47     64     79  40.5  40.1  34170  289.75 0854.64
2009/04/23 12:33:39.3      42     59     44     73     85  35.2  34.4  34190  290.09 0854.64
2009/04/23 12:33:39.4      -6     85     16     86     88 356.0  11.0  34200  290.25 0854.64
2009/04/23 12:33:39.5     -28     72     33     78     84 338.2  23.6  34202  290.30 0854.64
2009/04/23 12:33:39.6     -47     57      3     75     76 320.3   2.9  34216  290.52 0854.64
2009/04/23 12:33:39.7     -68     52     35     86     92 307.3  23.0  34222  290.64 0854.64
2009/04/23 12:33:39.8    -136      2     42    137    144 270.9  17.3  34226  290.69 0854.64
2009/04/23 12:33:39.9    -136    -32    -12    140    141 256.8  -5.1  34230  290.77 0854.65
2009/04/23 12:33:40.0    -114    -65    -21    132    134 240.2  -9.4  34220  290.58 0854.65
2009/04/23 12:33:40.1     -78    -65     -6    102    103 230.4  -3.7  34214  290.50 0854.65
2009/04/23 12:33:40.2     -35    -41    -34     54     63 220.5 -39.9  34210  290.41 0854.65
2009/04/23 12:33:40.3     -14    -49    -21     52     56 196.0 -26.4  34182  289.96 0854.65
2009/04/23 12:33:40.4       1    -42     -5     43     44 178.2  -7.3  34166  289.67 0854.65
2009/04/23 12:33:40.5      15    -26      7     31     32 149.3  13.2  34168  289.72 0854.65
2009/04/23 12:33:40.6      18     -6     42     19     46 108.6  75.0  34188  290.06 0854.65
2009/04/23 12:33:40.7      22      0     49     23     54  90.0  73.1  34204  290.31 0854.65
2009/04/23 12:33:40.8     -19     20     40     28     48 316.6  61.5  34224  290.65 0854.65
2009/04/23 12:33:40.9     -27     39     19     48     51 325.7  22.0  34218  290.57 0854.65
2009/04/23 12:33:41.0     -18     29     15     35     38 327.5  23.0  34218  290.57 0854.65
2009/04/23 12:33:41.1      -2      0     30      3     30 251.6  90.0  34208  290.40 0854.65
2009/04/23 12:33:41.2     -23    -30     31     39     49 217.8  43.7  34192  290.11 0854.65
2009/04/23 12:33:41.3     -24    -64     32     69     76 200.9  27.1  34172  289.77 0854.65
2009/04/23 12:33:41.4     -43    -64     26     78     83 214.3  18.9  34164  289.65 0854.65
2009/04/23 12:33:41.5     -32    -69     22     77     81 205.3  16.3  34156  289.52 0854.65
2009/04/23 12:33:41.6     -25    -82      5     86     87 196.9   3.8  34160  289.57 0854.65
2009/04/23 12:33:41.7     -18    -61     22     64     68 196.9  19.4  34156  289.52 0854.65
2009/04/23 12:33:41.8      -6    -58     40     59     71 186.2  36.5  34156  289.52 0854.65
2009/04/23 12:33:41.9      -4    -53     49     54     72 184.5  47.9  34156  289.52 0854.67
2009/04/23 12:33:42.0      -5    -64     55     65     85 184.5  44.8  34158  289.55 0854.67
2009/04/23 12:33:42.1     -16    -85     60     87    105 190.7  37.6  34158  289.53 0854.67
2009/04/23 12:33:42.2     -25    -83     70     87    111 196.9  43.7  34154  289.48 0854.67
2009/04/23 12:33:42.3       1   -122     83    123    148 179.5  37.4  34156  289.50 0854.67
2009/04/23 12:33:42.4       0   -173     94    174    197 180.2  30.8  34156  289.50 0854.67
2009/04/23 12:33:42.5      16   -212    129    213    249 175.5  34.2  34156  289.51 0854.67
2009/04/23 12:33:42.6      11   -245    156    246    291 177.4  35.5  34156  289.51 0854.67
2009/04/23 12:33:42.7     -16   -211    146    212    257 184.5  38.0  34156  289.49 0854.67
2009/04/23 12:33:42.8     -16   -162    145    163    218 185.8  46.4  34156  289.50 0854.67
2009/04/23 12:33:42.9     -33   -187     93    191    212 190.2  27.8  34156  289.50 0854.67
2009/04/23 12:33:43.0     -24   -210     71    212    224 186.7  18.6  34154  289.46 0854.67
2009/04/23 12:33:43.1     -40   -179    103    184    210 192.7  31.6  34156  289.52 0854.67
2009/04/23 12:33:43.2     -43   -161     94    167    191 195.1  31.6  34154  289.46 0854.67
2009/04/23 12:33:43.3     -37   -139     51    144    153 195.1  19.6  34158  289.53 0854.67
2009/04/23 12:33:43.4     -48   -146     22    154    156 198.3   8.2  34158  289.53 0854.67
2009/04/23 12:33:43.5     -50   -139      7    148    149 200.0   2.9  34158  289.53 0854.67
2009/04/23 12:33:43.6     -50   -166    -14    174    175 196.9  -4.9  34158  289.53 0854.67
2009/04/23 12:33:43.7     -58   -203      4    212    213 196.0   1.2  34154  289.48 0854.67
2009/04/23 12:33:43.8     -44   -215    -53    220    227 191.6 -13.7  34156  289.52 0854.67
2009/04/23 12:33:43.9     -42   -222    -46    227    232 190.9 -11.6  34156  289.52 0854.68
2009/04/23 12:33:44.0      -8   -182    -50    183    190 182.7 -15.4  34154  289.48 0854.68
2009/04/23 12:33:44.1      -9   -128    -57    129    141 184.4 -29.6  34160  289.57 0854.68
2009/04/23 12:33:44.2      31    -83    -29     89     94 159.1 -18.1  34158  289.55 0854.68
2009/04/23 12:33:44.3       9   -126     -2    127    128 175.6  -1.3  34156  289.52 0854.68
2009/04/23 12:33:44.4      -5    -94      1     95     96 183.1   0.8  34156  289.50 0854.68
2009/04/23 12:33:44.5     -36   -123     54    129    139 196.5  23.6  34158  289.53 0854.68
2009/04/23 12:33:44.6     -32   -143     70    147    162 192.9  27.2  34158  289.53 0854.68
2009/04/23 12:33:44.7      18   -125    -14    127    128 171.5  -6.7  34158  289.55 0854.68
2009/04/23 12:33:44.8      18   -102     -5    104    105 169.8  -3.1  34158  289.53 0854.68
2009/04/23 12:33:44.9      22    -91    -30     94     99 166.2 -18.1  34158  289.53 0854.68
2009/04/23 12:33:45.0      19    -71     -4     74     75 164.9  -3.2  34158  289.53 0854.68
2009/04/23 12:33:45.1       0    -53      2     54     55 180.0   2.9  34156  289.52 0854.68
2009/04/23 12:33:45.2      -4    -53      5     54     55 184.5   5.9  34160  289.57 0854.68
2009/04/23 12:33:45.3      -5    -65     -2     66     67 184.5  -2.2  34160  289.57 0854.68
2009/04/23 12:33:45.4      31   -101     -6    106    107 162.6  -3.7  34160  289.58 0854.68
2009/04/23 12:33:45.5       4   -109     15    110    112 177.8   8.0  34162  289.62 0854.68
2009/04/23 12:33:45.6     -10   -123     24    124    127 184.9  11.1  34162  289.60 0854.68
2009/04/23 12:33:45.7      43   -120     26    128    131 160.0  11.6  34162  289.62 0854.68
2009/04/23 12:33:45.8      35   -107     33    113    118 161.7  16.3  34164  289.65 0854.68
2009/04/23 12:33:45.9      32    -94     58    100    115 161.3  33.5  34162  289.62 0854.69
2009/04/23 12:33:46.0      59    -96     58    113    127 148.4  29.3  34162  289.60 0854.69
2009/04/23 12:33:46.1      59    -92     57    110    123 147.4  29.3  34164  289.65 0854.69
2009/04/23 12:33:46.2      44    -93     49    103    114 154.7  27.3  34176  289.84 0854.69
2009/04/23 12:33:46.3      44    -75     42     88     97 149.7  27.2  34176  289.85 0854.69
2009/04/23 12:33:46.4      36    -80     49     88    100 155.5  31.4  34176  289.84 0854.69
2009/04/23 12:33:46.5      13    -88     37     90     97 171.1  23.0  34170  289.75 0854.69
2009/04/23 12:33:46.6      34   -110     54    116    127 162.6  27.1  34180  289.92 0854.69
2009/04/23 12:33:46.7      31   -143     59    147    158 167.5  23.0  34172  289.77 0854.69
2009/04/23 12:33:46.8     -17   -159    101    160    189 186.3  35.5  34154  289.48 0854.69
2009/04/23 12:33:46.9       9   -205     40    206    210 177.4  11.1  34158  289.53 0854.69
2009/04/23 12:33:47.0      79   -199     40    215    219 158.4  10.6  34160  289.57 0854.69
2009/04/23 12:33:47.1      89   -146     33    172    176 148.6  10.8  34162  289.62 0854.69
2009/04/23 12:33:47.2     135   -204     13    245    246 146.4   3.1  34156  289.49 0854.69
2009/04/23 12:33:47.3     150   -260     36    301    304 150.1   6.9  34152  289.42 0854.69
2009/04/23 12:33:47.4       1   -304     59    305    311 179.8  11.1  34156  289.49 0854.69
2009/04/23 12:33:47.5      95   -256    109    274    294 159.5  23.0  34154  289.47 0854.69
2009/04/23 12:33:47.6      41   -244    117    248    274 170.3  27.1  34156  289.51 0854.69
2009/04/23 12:33:47.7       0   -259    146    260    298 180.0  31.6  34152  289.42 0854.69
2009/04/23 12:33:47.8     -28   -224    141    226    266 187.3  35.2  34152  289.42 0854.69
2009/04/23 12:33:47.9      -8   -171    122    172    210 182.7  39.1  34156  289.50 0854.69
2009/04/23 12:33:48.0      36   -171    101    175    202 168.0  32.9  34154  289.46 0854.69
2009/04/23 12:33:48.1      64   -166     79    179    195 158.8  25.2  34152  289.45 0854.69
2009/04/23 12:33:48.2      41   -200    105    205    230 168.2  29.2  34150  289.41 0854.69
2009/04/23 12:33:48.3      69   -177     70    191    203 158.6  20.9  34152  289.43 0854.69
2009/04/23 12:33:48.4      47   -236     75    241    253 168.5  17.3  34154  289.46 0854.69
2009/04/23 12:33:48.5     -12   -255     77    256    268 182.9  16.8  34158  289.53 0854.69
2009/04/23 12:33:48.6       0   -242     66    243    252 180.1  15.2  34152  289.42 0854.69
2009/04/23 12:33:48.7     -39   -226     17    230    231 189.8   4.2  34156  289.50 0854.69
2009/04/23 12:33:48.8       0   -284     18    285    286 180.0   3.8  34154  289.47 0854.69
2009/04/23 12:33:48.9     -31   -285     29    287    289 186.2   5.9  34156  289.49 0854.69
2009/04/23 12:33:49.0     -93   -239    -24    257    259 201.4  -5.4  34156  289.49 0854.69
2009/04/23 12:33:49.1    -122   -268    -32    295    297 204.5  -6.2  34156  289.49 0854.69
2009/04/23 12:33:49.2    -208   -306    -47    371    375 214.3  -7.3  34148  289.37 0854.69
2009/04/23 12:33:49.3    -175   -302    -34    350    352 210.1  -5.6  34148  289.38 0854.69
2009/04/23 12:33:49.4     -75   -335    -44    344    347 192.6  -7.3  34152  289.43 0854.69
2009/04/23 12:33:49.5    -193   -264     46    328    332 216.2   8.1  34162  289.62 0854.69
2009/04/23 12:33:49.6     -94   -311     15    326    327 196.9   2.8  34158  289.54 0854.69
2009/04/23 12:33:49.7     -64   -263    -18    271    272 193.8  -3.9  34158  289.53 0854.69
2009/04/23 12:33:49.8     -63   -253     32    261    264 194.0   7.1  34154  289.47 0854.69
2009/04/23 12:33:49.9     -69   -274     10    283    284 194.3   2.1  34146  289.32 0854.69
2009/04/23 12:33:50.0    -129   -146     -3    196    197 221.4  -1.2  34158  289.55 0854.69
2009/04/23 12:33:50.1    -147   -103     28    180    183 234.9   8.8  34156  289.50 0854.69
2009/04/23 12:33:50.2     -12    -98    -20     99    102 187.1 -11.5  34150  289.40 0854.69
2009/04/23 12:33:50.3    -118    -48     -4    128    129 247.8  -1.8  34158  289.53 0854.69
2009/04/23 12:33:50.4     -57   -111     18    125    127 207.2   8.5  34158  289.55 0854.69
2009/04/23 12:33:50.5      -2   -151      6    152    153 181.0   2.3  34156  289.50 0854.69
2009/04/23 12:33:50.6      -3   -229     84    230    244 180.9  20.9  34152  289.42 0854.69
2009/04/23 12:33:50.7     -12   -238     86    239    255 182.9  19.9  34152  289.42 0854.69
2009/04/23 12:33:50.8    -119   -186     69    221    232 212.6  17.4  34152  289.43 0854.69
2009/04/23 12:33:50.9     -88   -226     -1    243    244 201.4  -0.3  34154  289.47 0854.69
2009/04/23 12:33:51.0     -94   -225     -9    245    246 202.7  -2.3  34152  289.44 0854.69
2009/04/23 12:33:51.1    -106   -175    -27    205    207 211.2  -7.7  34154  289.48 0854.69
2009/04/23 12:33:51.2    -126   -211    -32    246    249 210.8  -7.5  34158  289.53 0854.69
2009/04/23 12:33:51.3    -130   -249     43    282    286 207.6   8.8  34156  289.49 0854.69
2009/04/23 12:33:51.4     -92   -254     68    271    280 200.0  14.2  34152  289.44 0854.69
2009/04/23 12:33:51.5     -55   -248     21    255    256 192.5   4.9  34154  289.46 0854.69
2009/04/23 12:33:51.6     -16   -265    -54    266    272 183.6 -11.5  34156  289.49 0854.69
2009/04/23 12:33:51.7      32   -274    -70    276    285 173.3 -14.4  34154  289.47 0854.69
2009/04/23 12:33:51.8     -14   -309    -87    310    323 182.6 -15.7  34152  289.44 0854.69
2009/04/23 12:33:51.9      -9   -337    -67    338    345 181.6 -11.3  34152  289.45 0854.67
2009/04/23 12:33:52.0     -38   -323    -43    326    329 186.9  -7.6  34150  289.39 0854.67
2009/04/23 12:33:52.1    -113   -296    -50    317    321 200.9  -9.0  34152  289.42 0854.67
2009/04/23 12:33:52.2     -51   -343    -89    347    359 188.5 -14.5  34152  289.42 0854.67
2009/04/23 12:33:52.3     -85   -320   -101    332    348 195.0 -16.9  34150  289.40 0854.67
2009/04/23 12:33:52.4    -236   -324    -51    402    406 216.1  -7.3  34154  289.48 0854.67
2009/04/23 12:33:52.5    -263   -239    -90    356    368 227.7 -14.3  34152  289.43 0854.67
2009/04/23 12:33:52.6    -269   -182    -66    325    332 235.9 -11.6  34152  289.42 0854.67
2009/04/23 12:33:52.7    -281   -209    -63    351    357 233.4 -10.2  34152  289.42 0854.67
2009/04/23 12:33:52.8    -295   -256    -61    391    396 229.0  -9.0  34150  289.40 0854.67
2009/04/23 12:33:52.9    -233   -237    -13    333    334 224.5  -2.2  34148  289.38 0854.67
2009/04/23 12:33:53.0      -3   -320    -42    321    324 180.7  -7.6  34148  289.36 0854.67
2009/04/23 12:33:53.1      90   -302     74    316    325 163.3  13.3  34148  289.36 0854.67
2009/04/23 12:33:53.2      53   -216     65    223    233 166.2  16.3  34150  289.41 0854.67
2009/04/23 12:33:53.3      21   -150      8    152    153 171.9   3.3  34150  289.40 0854.67
2009/04/23 12:33:53.4     -48   -138    -40    147    153 199.2 -15.5  34152  289.45 0854.67
2009/04/23 12:33:53.5     -52   -157     12    166    167 198.3   4.2  34152  289.43 0854.67
2009/04/23 12:33:53.6     -81   -182      0    200    201 204.1   0.2  34150  289.40 0854.67
2009/04/23 12:33:53.7     -64   -232     16    241    242 195.4   3.9  34148  289.37 0854.67
2009/04/23 12:33:53.8     -88   -230     -9    247    248 200.9  -2.3  34152  289.44 0854.67
2009/04/23 12:33:53.9     -90   -249     -5    265    266 200.0  -1.3  34156  289.49 0854.67
2009/04/23 12:33:54.0     -70   -230    -30    241    243 196.9  -7.2  34154  289.46 0854.67
2009/04/23 12:33:54.1    -114   -250      3    275    276 204.5   0.8  34154  289.46 0854.67
2009/04/23 12:33:54.2    -104   -307     33    325    327 198.7   5.8  34156  289.51 0854.67
2009/04/23 12:33:54.3     -51   -320    -12    325    326 189.1  -2.2  34148  289.36 0854.67
2009/04/23 12:33:54.4    -168   -298     22    343    344 209.4   3.8  34158  289.55 0854.67
2009/04/23 12:33:54.5    -189   -345     40    394    397 208.8   5.9  34156  289.50 0854.67
2009/04/23 12:33:54.6    -114   -351     58    370    375 198.1   9.0  34152  289.43 0854.67
2009/04/23 12:33:54.7     -98   -405     47    417    420 193.7   6.5  34152  289.43 0854.67
2009/04/23 12:33:54.8     -96   -390     25    402    403 193.9   3.6  34150  289.39 0854.67
2009/04/23 12:33:54.9    -117   -446    -25    462    463 194.8  -3.1  34150  289.41 0854.67
2009/04/23 12:33:55.0    -132   -422    -17    443    444 197.4  -2.2  34148  289.38 0854.67
2009/04/23 12:33:55.2    -157   -431     -5    460    461 200.1  -0.7  34152  289.44 0854.67
2009/04/23 12:33:55.2    -146   -392    -23    419    420 200.5  -3.2  34148  289.38 0854.67
2009/04/23 12:33:55.3    -121   -387    -26    406    407 197.4  -3.8  34150  289.39 0854.67
2009/04/23 12:33:55.4    -120   -374      2    393    394 197.8   0.4  34152  289.42 0854.67
2009/04/23 12:33:55.5    -117   -363    -14    382    383 197.9  -2.2  34152  289.45 0854.67
2009/04/23 12:33:55.6    -153   -373    -51    404    408 202.3  -7.2  34154  289.46 0854.67
2009/04/23 12:33:55.7    -112   -361    -64    379    385 197.3  -9.6  34152  289.43 0854.67
2009/04/23 12:33:55.8    -121   -361    -45    381    384 198.6  -6.8  34152  289.43 0854.67
2009/04/23 12:33:55.9    -122   -384    -66    404    410 197.7  -9.4  34154  289.46 0854.66
2009/04/23 12:33:56.0    -164   -337   -121    376    396 206.0 -17.9  34150  289.40 0854.66
2009/04/23 12:33:56.1    -174   -320    -70    365    372 208.6 -10.9  34148  289.38 0854.66
2009/04/23 12:33:56.2    -167   -297   -111    341    359 209.4 -18.0  34150  289.40 0854.66
2009/04/23 12:33:56.4    -190   -297   -114    353    371 212.6 -17.9  34152  289.43 0854.66
2009/04/23 12:33:56.4    -152   -298    -13    335    336 207.0  -2.2  34150  289.40 0854.66
2009/04/23 12:33:56.5     -98   -344    -37    358    360 195.9  -6.0  34148  289.38 0854.66
2009/04/23 12:33:56.6     -13   -349    -20    350    351 182.3  -3.3  34150  289.40 0854.66
2009/04/23 12:33:56.7       3   -304    -16    305    306 179.3  -3.1  34150  289.41 0854.66
2009/04/23 12:33:56.8     -21   -285    -20    286    287 184.2  -4.1  34152  289.42 0854.66
2009/04/23 12:33:56.9       7   -305    -65    306    313 178.6 -12.0  34152  289.44 0854.66
2009/04/23 12:33:57.0       0   -308    -85    309    321 180.0 -15.4  34152  289.42 0854.66
2009/04/23 12:33:57.1      -6   -333    -92    334    347 181.1 -15.4  34148  289.38 0854.66
2009/04/23 12:33:57.2     -64   -326    -93    333    345 191.2 -20.2  34152  289.42 0854.66
2009/04/23 12:33:57.3     -17   -323   -117    324    344 183.2 -25.0  34152  289.42 0854.66
2009/04/23 12:33:57.4      64   -313    -21    320    321 168.4  -3.8  34150  289.39 0854.66
2009/04/23 12:33:57.5     140   -320    -85    350    361 156.3 -13.7  34152  289.42 0854.66
2009/04/23 12:33:57.6     123   -244    -74    274    284 153.3 -15.2  34152  289.42 0854.66
2009/04/23 12:33:57.7      -2   -260    -87    261    275 180.5 -23.6  34146  289.32 0854.66
2009/04/23 12:33:57.8    -157   -358   -113    392    407 203.7 -20.9  34148  289.38 0854.66
2009/04/23 12:33:58.0     -63   -365    -80    371    380 189.8 -12.2  34148  289.37 0854.66
2009/04/23 12:33:58.1     -89   -265     18    280    281 198.7   3.8  34144  289.31 0854.66
2009/04/23 12:33:58.2    -121   -337    -84    359    369 199.8 -13.3  34150  289.40 0854.66
2009/04/23 12:33:58.3     -82   -357    -70    367    374 193.0 -10.9  34152  289.45 0854.66
2009/04/23 12:33:58.4     -90   -347    -41    359    362 194.6  -6.6  34150  289.40 0854.66
2009/04/23 12:33:58.5     -34   -301    -29    303    305 186.5  -5.6  34152  289.44 0854.66
2009/04/23 12:33:58.6    -127   -270     36    299    302 205.3   6.9  34148  289.36 0854.66
2009/04/23 12:33:58.7     -32   -273     33    275    278 186.7   6.9  34152  289.42 0854.66
2009/04/23 12:33:58.8    -119   -333     32    354    356 199.8   5.2  34150  289.40 0854.66
2009/04/23 12:33:58.9    -143   -308     14    340    341 205.0   2.5  34152  289.42 0854.66
2009/04/23 12:33:59.0     -64   -326    -13    333    334 191.1  -2.2  34152  289.42 0854.68
2009/04/23 12:33:59.1     -76   -310     33    320    322 193.8   5.9  34150  289.39 0854.68
2009/04/23 12:33:59.2      -3   -296     53    297    302 180.7  10.1  34150  289.41 0854.68
2009/04/23 12:33:59.3     -27   -296    122    298    322 185.3  23.5  34152  289.44 0854.68
2009/04/23 12:33:59.4     -61   -295     92    302    316 191.8  17.1  34150  289.41 0854.68
2009/04/23 12:33:59.5     -72   -306     92    315    329 193.3  16.3  34152  289.44 0854.68
2009/04/23 12:33:59.6     -15   -312     52    313    318 182.9   9.5  34152  289.44 0854.68
2009/04/23 12:33:59.7       3   -263      8    264    265 179.3   1.8  34152  289.42 0854.68
2009/04/23 12:33:59.8      41   -244     22    248    250 170.4   5.2  34152  289.44 0854.68
2009/04/23 12:33:59.9       3   -157     59    158    168 178.6  21.3  34152  289.45 0854.68
2009/04/23 12:34:00.0       4   -168    164    169    235 178.4  49.2  34156  289.50 0854.68
2009/04/23 12:34:00.1      63   -153    105    166    196 157.5  35.5  34152  289.45 0854.68
2009/04/23 12:34:00.2      43   -143     68    150    164 163.1  26.2  34154  289.46 0854.68
2009/04/23 12:34:00.3      18   -238     80    239    253 175.5  18.5  34154  289.47 0854.68
2009/04/23 12:34:00.4      38   -224    120    228    257 170.2  30.2  34154  289.46 0854.68
2009/04/23 12:34:00.5      53   -262    -19    268    269 168.4  -4.1  34150  289.41 0854.68
2009/04/23 12:34:00.6      99   -271     -1    289    290 159.9  -0.3  34152  289.42 0854.68
2009/04/23 12:34:00.7      85   -293    -49    306    310 163.7  -9.1  34150  289.39 0854.68
2009/04/23 12:34:00.8      65   -271     43    279    283 166.4   8.9  34146  289.34 0854.68
2009/04/23 12:34:00.9      69   -259     42    269    273 165.1   8.9  34148  289.37 0854.68
2009/04/23 12:34:01.0      72   -285     58    295    301 165.7  11.1  34150  289.41 0854.70
2009/04/23 12:34:01.1     138   -234     -1    272    273 149.5  -0.3  34150  289.41 0854.70
2009/04/23 12:34:01.2     127   -217    -31    252    255 149.7  -7.2  34150  289.41 0854.70
2009/04/23 12:34:01.3      32   -254    -18    257    258 172.7  -4.1  34154  289.46 0854.70
2009/04/23 12:34:01.4      56   -237      7    244    245 166.6   1.8  34152  289.44 0854.70
2009/04/23 12:34:01.5      12   -220    -12    221    222 176.9  -3.2  34150  289.41 0854.70
2009/04/23 12:34:01.6      21   -210    -26    212    214 174.2  -7.2  34150  289.40 0854.70
2009/04/23 12:34:01.7     -26   -190    -45    192    198 187.8 -13.2  34150  289.41 0854.70
2009/04/23 12:34:01.8     -47   -182   -100    189    213 194.5 -34.5  34150  289.40 0854.70
2009/04/23 12:34:01.9      -6   -167    -61    168    178 182.2 -25.1  34150  289.40 0854.70
2009/04/23 12:34:02.0     -64   -182    -92    193    213 199.4 -31.7  34152  289.43 0854.70
2009/04/23 12:34:02.1     -94   -174    -78    199    213 208.5 -26.7  34150  289.41 0854.70
2009/04/23 12:34:02.2     -65   -153    -87    167    188 203.2 -34.2  34150  289.41 0854.70
2009/04/23 12:34:02.3     -41   -175    -36    180    184 193.4 -11.5  34152  289.45 0854.70
2009/04/23 12:34:02.4     -22   -180    -64    182    194 187.1 -19.6  34150  289.40 0854.70
2009/04/23 12:34:02.5     -49   -178    -48    185    192 195.4 -14.7  34152  289.43 0854.70
2009/04/23 12:34:02.6     -17   -215    -69    216    226 184.7 -23.0  34154  289.46 0854.70
2009/04/23 12:34:02.7      59   -183    -62    193    203 162.0 -18.1  34154  289.46 0854.70
2009/04/23 12:34:02.8     -72    -87   -125    114    169 219.6 -57.4  34156  289.50 0854.70
2009/04/23 12:34:02.9     -63    -81    -88    103    135 217.8 -49.2  34156  289.50 0854.70
2009/04/23 12:34:03.0      14   -186    -21    187    189 175.6  -6.5  34154  289.48 0854.72
2009/04/23 12:34:03.1      20   -138    -94    140    168 171.5 -41.4  34156  289.50 0854.72
2009/04/23 12:34:03.2      23    -67    -64     71     95 160.8 -51.3  34158  289.55 0854.72
2009/04/23 12:34:03.3      19    -31    -76     37     84 147.5 -76.8  34160  289.57 0854.72
2009/04/23 12:34:03.4      -2    -16   -109     17    110 188.0 -90.0  34160  289.57 0854.72
2009/04/23 12:34:03.5    -112     -8    -74    113    135 265.7 -40.0  34158  289.53 0854.72
2009/04/23 12:34:03.6    -125    -24    -67    128    144 259.0 -34.2  34160  289.57 0854.72
2009/04/23 12:34:03.7    -102    -59    -40    119    125 239.8 -23.6  34158  289.53 0854.72
2009/04/23 12:34:03.8     -10   -100    -79    101    128 186.2 -46.6  34160  289.58 0854.72
2009/04/23 12:34:03.9     -19    -91    -81     94    124 192.0 -50.2  34160  289.57 0854.72
2009/04/23 12:34:04.0     -15    -99    -76    101    126 188.9 -45.1  34160  289.57 0854.72
2009/04/23 12:34:04.1     -41    -46    -71     62     94 221.4 -58.7  34164  289.63 0854.72
2009/04/23 12:34:04.2     -29    -24    -79     38     87 230.5 -77.3  34162  289.60 0854.72
2009/04/23 12:34:04.3      65    -47    -57     81     99 126.0 -43.5  34166  289.67 0854.72
2009/04/23 12:34:04.4      21    -90    -46     93    103 166.6 -32.2  34162  289.60 0854.72
2009/04/23 12:34:04.5      96   -133    -15    165    166 144.2  -5.2  34160  289.57 0854.72
2009/04/23 12:34:04.6      89   -143     17    169    170 148.1   5.9  34156  289.50 0854.72
2009/04/23 12:34:04.7      69   -145      8    161    162 154.5   2.9  34152  289.45 0854.72
2009/04/23 12:34:04.8      55   -133     29    145    149 157.3  11.6  34154  289.48 0854.72
2009/04/23 12:34:04.9      50   -105     38    117    124 154.7  17.9  34156  289.52 0854.72
2009/04/23 12:34:05.0      25    -86      4     90     91 163.5   2.9  34158  289.55 0854.73
2009/04/23 12:34:05.1      51    -46     29     69     74 132.2  24.1  34156  289.52 0854.73
2009/04/23 12:34:05.2      93    -15    -10     95     96  99.2  -6.2  34158  289.53 0854.73
2009/04/23 12:34:05.3      90    -16    -42     92    101 100.1 -31.0  34158  289.53 0854.73
2009/04/23 12:34:05.4      81    -32    -52     88    102 111.7 -37.9  34158  289.53 0854.73
2009/04/23 12:34:05.5      77    -61    -41     99    107 128.2 -27.5  34158  289.55 0854.73
2009/04/23 12:34:05.6      80    -96    -65    126    141 140.3 -33.7  34158  289.53 0854.73
2009/04/23 12:34:05.7      45    -91    -64    102    120 153.7 -39.9  34162  289.62 0854.73
2009/04/23 12:34:05.8      35   -111    -61    117    131 162.6 -33.7  34158  289.55 0854.73
2009/04/23 12:34:05.9      45   -136    -45    144    151 161.5 -17.5  34158  289.55 0854.73
2009/04/23 12:34:06.0      43   -103    -25    112    115 157.3 -12.9  34156  289.50 0854.73
2009/04/23 12:34:06.1      57   -105    -37    120    126 151.5 -17.5  34158  289.53 0854.73
2009/04/23 12:34:06.2      59    -71    -33     93     99 139.9 -19.6  34160  289.57 0854.73
2009/04/23 12:34:06.3      25    -79    -27     83     88 162.2 -18.1  34156  289.52 0854.73
2009/04/23 12:34:06.4      44    -70    -53     83     98 147.9 -40.0  34160  289.57 0854.73
2009/04/23 12:34:06.5      50    -52    -46     73     86 135.9 -39.9  34160  289.57 0854.73
2009/04/23 12:34:06.6      60    -41    -21     73     75 124.2 -21.7  34156  289.52 0854.73
2009/04/23 12:34:06.7      52    -33     44     62     76 122.5  39.5  34158  289.53 0854.73
2009/04/23 12:34:06.8      49    -60     71     78    105 140.3  47.5  34158  289.55 0854.73
2009/04/23 12:34:06.9      43    -56     65     71     96 142.2  47.9  34156  289.50 0854.73
2009/04/23 12:34:07.0      55    -70     31     90     96 141.7  19.4  34156  289.52 0854.73
2009/04/23 12:34:07.1      54    -85     34    102    108 147.4  18.4  34156  289.50 0854.73
2009/04/23 12:34:07.2      57    -90     28    107    111 147.5  14.7  34152  289.45 0854.73
2009/04/23 12:34:07.3      75   -109     73    133    151 145.3  31.3  34154  289.48 0854.73
2009/04/23 12:34:07.4      95   -118     77    152    170 141.3  28.7  34154  289.46 0854.73
2009/04/23 12:34:07.5      98   -118     86    154    176 140.4  31.4  34156  289.50 0854.73
2009/04/23 12:34:07.6      86   -107     82    138    160 141.3  33.5  34152  289.45 0854.73
2009/04/23 12:34:07.7     109   -111     82    156    176 135.5  30.1  34156  289.52 0854.73
2009/04/23 12:34:07.8      90   -116     23    148    150 142.1   8.9  34156  289.52 0854.73
2009/04/23 12:34:07.9     115   -146     64    187    198 141.7  18.9  34156  289.50 0854.73
2009/04/23 12:34:08.0     106   -176     40    206    210 148.8  11.1  34154  289.48 0854.73
2009/04/23 12:34:08.1     102   -184     64    211    221 151.0  17.1  34158  289.55 0854.73
2009/04/23 12:34:08.2      97   -190     71    214    226 153.0  18.6  34156  289.52 0854.73
2009/04/23 12:34:08.3     126   -173     58    215    223 143.9  15.3  34158  289.53 0854.73
2009/04/23 12:34:08.4     119   -165     73    204    216 144.2  20.4  34154  289.46 0854.73
2009/04/23 12:34:08.5     131   -129     54    185    193 134.6  16.3  34152  289.45 0854.73
2009/04/23 12:34:08.6     164    -95     51    190    197 120.2  15.3  34158  289.53 0854.73
2009/04/23 12:34:08.7     153    -93     64    180    191 121.3  20.0  34154  289.48 0854.73
2009/04/23 12:34:08.8     138    -93     72    167    181 124.2  24.6  34154  289.48 0854.73
2009/04/23 12:34:08.9     141    -89     87    167    188 122.4  29.8  34154  289.46 0854.73
2009/04/23 12:34:09.0     114    -72     91    136    163 122.4  36.7  34154  289.48 0854.73
2009/04/23 12:34:09.1      89    -92     64    129    144 135.9  28.2  34156  289.52 0854.73
2009/04/23 12:34:09.2     117    -58    100    131    164 116.6  41.2  34158  289.53 0854.73
2009/04/23 12:34:09.3      90    -37     95     98    136 112.6  49.9  34160  289.57 0854.73
2009/04/23 12:34:09.4      61    -76     93     98    135 141.3  49.0  34160  289.57 0854.73
2009/04/23 12:34:09.5     113    -62     82    130    153 118.9  35.5  34154  289.46 0854.73
2009/04/23 12:34:09.6     121    -39     69    128    145 108.2  31.3  34158  289.53 0854.73
2009/04/23 12:34:09.7      80    -49     99     94    136 121.5  51.2  34156  289.50 0854.73
2009/04/23 12:34:09.8      38   -127    109    133    171 163.0  43.7  34156  289.52 0854.73
2009/04/23 12:34:09.9      37   -139     85    145    168 164.8  33.1  34156  289.52 0854.73
2009/04/23 12:34:10.0      32   -105     85    110    139 163.1  41.7  34156  289.52 0854.73
2009/04/23 12:34:10.1      75    -80     96    111    146 136.8  45.4  34156  289.52 0854.73
2009/04/23 12:34:10.2      95    -32    127    101    162 108.6  57.5  34158  289.53 0854.73
2009/04/23 12:34:10.3      36    -56    103     67    122 147.4  64.6  34162  289.62 0854.73
2009/04/23 12:34:10.4     117    -45    103    126    162 111.3  43.5  34158  289.55 0854.73
2009/04/23 12:34:10.5     133   -139     93    193    214 136.3  27.3  34156  289.52 0854.73
2009/04/23 12:34:10.6     157   -113     84    194    211 126.0  25.1  34156  289.52 0854.73
2009/04/23 12:34:10.7     102    -90     76    137    156 131.3  31.6  34156  289.50 0854.73
2009/04/23 12:34:10.8      41   -103    107    112    154 158.2  49.0  34156  289.50 0854.73
2009/04/23 12:34:10.9      62    -85     93    106    141 144.0  45.8  34158  289.53 0854.73
2009/04/23 12:34:11.0      42    -73     82     85    118 149.7  49.0  34158  289.53 0854.74
2009/04/23 12:34:11.1      21    -69     68     73     99 163.1  48.0  34160  289.58 0854.74
2009/04/23 12:34:11.2      57   -116     89    130    157 153.7  37.8  34158  289.55 0854.74
2009/04/23 12:34:11.3      41   -116     67    124    140 160.4  31.3  34156  289.50 0854.74
2009/04/23 12:34:11.4      51    -97     82    110    137 151.9  40.7  34158  289.55 0854.74
2009/04/23 12:34:11.5      63   -106     82    124    148 149.3  36.5  34156  289.52 0854.74
2009/04/23 12:34:11.6      51    -80     95     95    134 147.4  50.1  34158  289.53 0854.74
2009/04/23 12:34:11.7      51    -93     84    107    136 151.0  42.2  34160  289.57 0854.74
2009/04/23 12:34:11.8     -11   -131    117    132    176 184.9  46.2  34156  289.52 0854.74
2009/04/23 12:34:11.9      19   -141    112    143    181 172.0  42.2  34156  289.52 0854.74
2009/04/23 12:34:12.0      10   -118    125    119    172 175.1  51.2  34158  289.53 0854.74
2009/04/23 12:34:12.1       8   -171     80    172    189 177.3  27.1  34158  289.53 0854.74
2009/04/23 12:34:12.2     -24   -167     75    169    184 188.5  25.7  34156  289.52 0854.74
2009/04/23 12:34:12.3       3   -130     95    131    161 178.6  39.7  34156  289.50 0854.74
2009/04/23 12:34:12.4     -17   -141     84    143    165 187.1  33.1  34156  289.50 0854.74
2009/04/23 12:34:12.5      28   -193    130    196    235 171.5  37.0  34156  289.50 0854.74
2009/04/23 12:34:12.6       8   -187    103    188    214 177.3  31.3  34156  289.50 0854.74
2009/04/23 12:34:12.7       2   -178     89    179    199 179.3  28.5  34156  289.50 0854.74
2009/04/23 12:34:12.8      19   -203     53    204    211 174.4  14.7  34156  289.50 0854.74
2009/04/23 12:34:12.9       2   -182     78    183    198 179.1  24.3  34156  289.52 0854.74
2009/04/23 12:34:13.0       8   -183     83    184    201 177.5  25.7  34156  289.52 0854.74
2009/04/23 12:34:13.1      21   -160     69    162    176 172.4  24.3  34158  289.55 0854.74
2009/04/23 12:34:13.2      28   -197    113    200    229 171.9  31.6  34160  289.57 0854.74
2009/04/23 12:34:13.3      12   -160    120    161    200 175.6  40.4  34164  289.63 0854.74
2009/04/23 12:34:13.4     -41   -177    120    182    218 193.1  36.5  34162  289.62 0854.74
2009/04/23 12:34:13.5     -36   -157      2    162    163 193.1   0.8  34160  289.57 0854.74
2009/04/23 12:34:13.6      68   -194    -56    206    213 160.6 -20.0  34160  289.57 0854.74
2009/04/23 12:34:13.7     -14   -215    -71    216    228 183.8 -18.3  34156  289.50 0854.74
2009/04/23 12:34:13.8     -26   -186    -24    188    190 188.1  -7.3  34156  289.52 0854.74
2009/04/23 12:34:13.9     -40   -191     -7    196    197 191.8  -2.2  34162  289.62 0854.74
2009/04/23 12:34:14.0     -24   -225     24    227    229 186.2   6.1  34164  289.65 0854.74
2009/04/23 12:34:14.1     -16   -210     10    211    212 184.5   2.8  34166  289.67 0854.74
2009/04/23 12:34:14.2      18   -182     -3    183    184 174.2  -1.1  34162  289.62 0854.74
2009/04/23 12:34:14.3     -20   -171     14    173    174 186.7   4.9  34164  289.65 0854.74
2009/04/23 12:34:14.4      16   -218     -6    219    220 175.6  -1.6  34164  289.63 0854.74
2009/04/23 12:34:14.5     -41   -263      3    267    268 188.9   0.8  34166  289.66 0854.74
2009/04/23 12:34:14.6      10   -227     -8    228    229 177.3  -2.2  34170  289.74 0854.74
2009/04/23 12:34:14.7     -70   -211      0    223    224 198.5   0.2  34166  289.69 0854.74
2009/04/23 12:34:14.8     -33   -195     29    198    201 189.8   8.5  34164  289.65 0854.74
2009/04/23 12:34:14.9    -101   -181     76    208    221 209.2  21.0  34162  289.62 0854.74
2009/04/23 12:34:15.0     -87   -199     87    218    234 203.6  22.8  34166  289.69 0854.76
2009/04/23 12:34:15.1     -74   -220    107    233    256 198.7  26.4  34170  289.75 0854.76
2009/04/23 12:34:15.2    -120   -187     79    223    236 212.6  20.2  34166  289.69 0854.76
2009/04/23 12:34:15.3     -92   -227     91    246    262 202.1  21.0  34164  289.63 0854.76
2009/04/23 12:34:15.4     -50   -189     94    196    217 195.1  27.3  34170  289.74 0854.76
2009/04/23 12:34:15.5    -113   -218     89    246    262 207.4  19.9  34164  289.63 0854.76
2009/04/23 12:34:15.6    -115   -214     88    244    259 208.3  20.7  34170  289.73 0854.76
2009/04/23 12:34:15.7    -131   -167     42    213    218 218.3  11.1  34164  289.63 0854.76
2009/04/23 12:34:15.8    -146   -155     25    214    216 223.2   6.9  34162  289.60 0854.76
2009/04/23 12:34:15.9    -148   -135     42    201    206 227.6  12.0  34162  289.62 0854.76
2009/04/23 12:34:16.0    -161   -140     14    214    215 228.9   3.8  34164  289.65 0854.76
2009/04/23 12:34:16.1    -169   -169     20    240    241 224.9   5.0  34162  289.61 0854.76
2009/04/23 12:34:16.2    -164   -205     56    263    270 218.7  12.1  34162  289.61 0854.76
2009/04/23 12:34:16.3    -172   -126    -50    214    220 233.6 -13.2  34160  289.58 0854.76
2009/04/23 12:34:16.4    -127   -126     -7    179    180 225.2  -2.2  34164  289.63 0854.76
2009/04/23 12:34:16.5     -90   -116     28    148    151 217.9  11.0  34162  289.60 0854.76
2009/04/23 12:34:16.6     -98   -104     44    143    150 223.3  17.4  34156  289.50 0854.76
2009/04/23 12:34:16.7     -49   -150      8    159    160 198.3   2.9  34154  289.46 0854.76
2009/04/23 12:34:16.8     -38   -159     14    164    165 193.6   5.2  34156  289.50 0854.76
2009/04/23 12:34:16.9     -77   -153    -44    172    178 206.7 -14.5  34162  289.62 0854.76
2009/04/23 12:34:17.0     -97   -172    -19    198    199 209.4  -5.6  34156  289.50 0854.76
2009/04/23 12:34:17.1     -85   -201    -12    219    220 202.9  -3.3  34164  289.63 0854.76
2009/04/23 12:34:17.2     -19   -172    -67    174    186 186.5 -26.7  34156  289.52 0854.76
2009/04/23 12:34:17.3     -18   -121    -39    123    129 188.5 -23.3  34156  289.50 0854.76
2009/04/23 12:34:17.4      53    -37      0     65     66 125.1  -0.3  34160  289.57 0854.76
2009/04/23 12:34:17.5      48    -12     40     50     64 104.2  43.7  34158  289.53 0854.76
2009/04/23 12:34:17.6       5   -108     80    109    135 177.3  39.7  34158  289.55 0854.76
2009/04/23 12:34:17.7       8   -136     37    137    143 176.4  15.2  34160  289.57 0854.76
2009/04/23 12:34:17.8     -20   -122      9    124    125 189.7   4.4  34158  289.55 0854.76
2009/04/23 12:34:17.9     -42    -90     -3    100    101 205.4  -2.2  34158  289.55 0854.76
2009/04/23 12:34:18.0     -49    -52     10     72     73 223.2   8.0  34160  289.58 0854.76
2009/04/23 12:34:18.1     -12      0     54     13     55 270.0  88.0  34162  289.62 0854.76
2009/04/23 12:34:18.2     -56     19     59     60     84 288.6  50.5  34166  289.67 0854.76
2009/04/23 12:34:18.3     -52     26     43     59     73 297.1  39.7  34164  289.65 0854.76
2009/04/23 12:34:18.4     -42    -46     61     63     87 222.3  50.0  34166  289.69 0854.76
2009/04/23 12:34:18.5     -35    -49     47     61     77 215.2  42.7  34168  289.70 0854.76
2009/04/23 12:34:18.6       1    -60     50     61     78 178.2  43.7  34166  289.69 0854.76
2009/04/23 12:34:18.7     -20    -75     47     78     91 195.1  34.0  34162  289.62 0854.76
2009/04/23 12:34:18.8     -15    -83     24     85     89 190.2  16.3  34164  289.63 0854.76
2009/04/23 12:34:18.9      -9    -83     16     84     86 186.7  11.1  34162  289.60 0854.76
2009/04/23 12:34:19.0      -6    -87     14     88     90 184.5   9.5  34164  289.65 0854.78
2009/04/23 12:34:19.1       7   -101      5    102    103 175.5   2.8  34162  289.62 0854.78
2009/04/23 12:34:19.2      46    -72      1     86     87 147.0   0.8  34162  289.62 0854.78
2009/04/23 12:34:19.3      12   -141      1    142    143 175.1   0.7  34158  289.53 0854.78
2009/04/23 12:34:19.4      52   -188     25    196    198 164.4   7.5  34154  289.46 0854.78
2009/04/23 12:34:19.5      36   -225      9    228    229 170.9   2.5  34152  289.43 0854.78
2009/04/23 12:34:19.6      54   -227    -39    234    238 166.6  -9.6  34152  289.44 0854.78
2009/04/23 12:34:19.7      66   -165     62    178    189 158.2  19.4  34150  289.40 0854.78
2009/04/23 12:34:19.8      38   -132    133    138    191 164.0  49.0  34154  289.48 0854.78
2009/04/23 12:34:19.9     128   -156    150    203    252 140.6  40.1  34158  289.53 0854.78
2009/04/23 12:34:20.0     138   -190     78    235    248 144.0  18.4  34148  289.36 0854.78
2009/04/23 12:34:20.1     207   -118    -11    239    240 119.8  -2.8  34154  289.46 0854.78
2009/04/23 12:34:20.2     199    -94     43    221    226 115.3  11.1  34152  289.43 0854.78
2009/04/23 12:34:20.3     206    -42     83    211    226 101.5  23.0  34150  289.40 0854.78
2009/04/23 12:34:20.4     216      0    160    217    269  90.0  39.9  34154  289.46 0854.78
2009/04/23 12:34:20.5     120     16    140    122    185  82.1  54.6  34156  289.50 0854.78
2009/04/23 12:34:20.6      34     45     94     57    109  37.8  65.7  34158  289.53 0854.78
2009/04/23 12:34:20.7       5     10     53     12     54  25.4  88.0  34156  289.52 0854.78
2009/04/23 12:34:20.8     -37     37     63     53     82 315.0  55.4  34164  289.65 0854.78
2009/04/23 12:34:20.9     -88     -5     51     89    102 266.5  32.4  34150  289.41 0854.78
2009/04/23 12:34:21.0    -108    -13      5    109    110 263.0   2.9  34148  289.36 0854.77
2009/04/23 12:34:21.1    -119     37     86    125    151 287.3  37.6  34154  289.46 0854.77
2009/04/23 12:34:21.2    -112     15     67    114    132 277.9  33.4  34152  289.43 0854.77
2009/04/23 12:34:21.3     -64    -46     21     80     83 234.0  15.3  34152  289.45 0854.77
2009/04/23 12:34:21.4     -23    -50     82     56     99 204.5  62.1  34150  289.40 0854.77
2009/04/23 12:34:21.5     -39   -149     74    155    171 194.7  27.2  34144  289.30 0854.77
2009/04/23 12:34:21.6      17    -91    -28     93     98 168.9 -16.6  34146  289.33 0854.77
2009/04/23 12:34:21.7     -54    -81    -87     98    131 213.8 -50.3  34146  289.35 0854.77
2009/04/23 12:34:21.8    -165   -115    -62    202    211 235.1 -22.1  34144  289.30 0854.77
2009/04/23 12:34:21.9    -259    -82   -110    272    293 252.3 -27.5  34144  289.31 0854.77
2009/04/23 12:34:22.0    -213    -63    -37    223    227 253.4  -9.4  34146  289.35 0854.78
2009/04/23 12:34:22.1    -213   -139    -68    255    264 236.9 -15.0  34148  289.37 0854.78
2009/04/23 12:34:22.2    -189   -173     -3    257    258 227.6  -0.7  34146  289.32 0854.78
2009/04/23 12:34:22.3    -253   -242    -70    351    359 226.2 -11.3  34146  289.32 0854.78
2009/04/23 12:34:22.4    -223   -273   -101    353    367 219.2 -20.9  34146  289.32 0854.78
2009/04/23 12:34:22.5    -270   -283   -100    392    405 223.7 -14.4  34146  289.35 0854.78
2009/04/23 12:34:22.6    -218   -266    -54    345    350 219.4  -8.9  34146  289.32 0854.78
2009/04/23 12:34:22.7    -220   -265    -97    345    359 219.6 -15.8  34146  289.33 0854.78
2009/04/23 12:34:22.8    -170   -226   -112    284    305 217.0 -27.4  34142  289.25 0854.78
2009/04/23 12:34:22.9    -182   -189   -182    263    319 223.9 -42.3  34148  289.37 0854.78
2009/04/23 12:34:23.0    -141   -160   -133    214    251 221.5 -39.6  34148  289.37 0854.78
2009/04/23 12:34:23.1    -122   -190   -138    226    264 212.7 -38.8  34146  289.34 0854.78
2009/04/23 12:34:23.2    -163   -192    -82    253    265 220.3 -23.3  34150  289.39 0854.78
2009/04/23 12:34:23.3    -221    -59    -84    229    243 254.9 -25.3  34156  289.49 0854.78
2009/04/23 12:34:23.4    -284     -1    -11    285    286 269.6  -2.2  34154  289.47 0854.78
2009/04/23 12:34:23.5    -186    -61     16    196    197 251.6   4.9  34158  289.55 0854.78
2009/04/23 12:34:23.6    -171    -85     -7    192    193 243.4  -2.2  34156  289.52 0854.78
2009/04/23 12:34:23.7    -134    -57    -18    146    148 246.9  -7.2  34158  289.53 0854.78
2009/04/23 12:34:23.8    -110    -35    -58    116    129 252.3 -33.1  34156  289.50 0854.78
2009/04/23 12:34:23.9     -95     79    -86    124    150 309.6 -42.4  34156  289.52 0854.78
2009/04/23 12:34:24.0     -82    106    -72    135    153 322.2 -35.2  34158  289.55 0854.78
2009/04/23 12:34:24.1     -74     83   -100    112    150 318.1 -50.8  34162  289.62 0854.78
2009/04/23 12:34:24.2    -143     19    -89    145    170 277.9 -39.2  34164  289.65 0854.78
2009/04/23 12:34:24.3    -212     -8    -54    213    220 267.6 -14.3  34162  289.60 0854.78
2009/04/23 12:34:24.4    -228    -48    -46    234    239 258.1 -11.3  34162  289.61 0854.78
2009/04/23 12:34:24.5    -186     36   -120    190    224 281.2 -39.9  34164  289.65 0854.78
2009/04/23 12:34:24.6    -181    146    -15    233    234 308.9  -3.9  34164  289.63 0854.78
2009/04/23 12:34:24.7    -181    150    -93    236    253 309.6 -26.7  34166  289.66 0854.78
2009/04/23 12:34:24.8    -231     48      8    237    238 281.9   2.1  34168  289.70 0854.78
2009/04/23 12:34:24.9    -270    172    -41    321    324 302.5  -7.3  34170  289.73 0854.78
2009/04/23 12:34:25.0    -331    157    -12    367    368 295.5  -1.9  34162  289.62 0854.78
2009/04/23 12:34:25.1    -249     65    -66    258    267 284.8 -14.5  34166  289.68 0854.78
2009/04/23 12:34:25.2    -148    100   -130    179    221 304.0 -44.1  34162  289.62 0854.78
2009/04/23 12:34:25.3    -132    239    -87    274    287 331.1 -22.8  34158  289.54 0854.78
2009/04/23 12:34:25.4      12    254    -56    255    262   2.9 -12.4  34158  289.54 0854.78
2009/04/23 12:34:25.5     -19    243     18    244    245 355.5   4.4  34162  289.59 0854.78
2009/04/23 12:34:25.6      10    219     42    220    225   2.7  11.0  34156  289.50 0854.78
2009/04/23 12:34:25.8       0    249     74    250    261 359.8  16.6  34158  289.54 0854.78
2009/04/23 12:34:25.9     -50    197     57    204    213 345.7  15.8  34160  289.57 0854.78
2009/04/23 12:34:26.0     -66    199     40    210    214 341.5  11.0  34156  289.52 0854.78
2009/04/23 12:34:26.1    -124    239     30    270    272 332.6   6.5  34164  289.64 0854.78
2009/04/23 12:34:26.2    -170    159     -9    233    234 313.1  -2.2  34164  289.64 0854.78
2009/04/23 12:34:26.3    -157    154    -10    221    222 314.4  -2.6  34162  289.60 0854.78
2009/04/23 12:34:26.4    -190    138     35    235    238 306.0   8.5  34162  289.61 0854.78
2009/04/23 12:34:26.5    -166     96    -68    192    204 300.0 -19.6  34154  289.46 0854.78
2009/04/23 12:34:26.6    -156    163    -29    226    228 316.3  -7.5  34158  289.53 0854.78
2009/04/23 12:34:26.7    -221    164     -1    276    277 306.6  -0.3  34158  289.54 0854.78
2009/04/23 12:34:26.8    -139    156     84    210    226 318.3  23.0  34154  289.48 0854.78
2009/04/23 12:34:26.9    -194     68     73    206    219 289.5  19.6  34150  289.41 0854.78
2009/04/23 12:34:27.0    -194     20     72    196    208 276.1  21.0  34156  289.50 0854.78
2009/04/23 12:34:27.1    -143    -43    102    150    181 253.1  37.6  34156  289.52 0854.78
2009/04/23 12:34:27.2    -146     23    115    148    187 279.2  42.2  34158  289.53 0854.78
2009/04/23 12:34:27.3    -134     72     85    153    175 298.4  31.6  34158  289.53 0854.78
2009/04/23 12:34:27.4    -119     86     66    148    162 305.9  25.7  34158  289.53 0854.78
2009/04/23 12:34:27.5    -171    121     73    210    223 305.3  19.2  34156  289.52 0854.78
2009/04/23 12:34:27.6    -180    171     76    249    261 313.6  17.1  34162  289.59 0854.78
2009/04/23 12:34:27.7    -163    223     11    277    278 323.7   2.3  34230  290.75 0854.78
2009/04/23 12:34:27.8    -162    232     -6    284    285 325.0  -1.3  34242  290.97 0854.78
2009/04/23 12:34:27.9    -198    232      3    306    307 319.5   0.7  34234  290.82 0854.78
2009/04/23 12:34:28.0    -149    149     36    211    215 315.0   9.9  34196  290.18 0854.78
2009/04/23 12:34:28.1    -105    105     33    149    153 315.0  12.6  34180  289.91 0854.80
2009/04/23 12:34:28.2    -115    176     25    211    213 326.8   6.9  34174  289.80 0854.80
2009/04/23 12:34:28.3    -100    194    -20    219    221 332.6  -5.4  34182  289.94 0854.80
2009/04/23 12:34:28.4     -32    266    -14    268    269 353.1  -3.2  34174  289.80 0854.80
2009/04/23 12:34:28.5     -23    239      5    241    242 354.4   1.2  34170  289.73 0854.80
2009/04/23 12:34:28.6      33    257    -66    260    269   7.3 -14.3  34188  290.05 0854.80
2009/04/23 12:34:28.7       0    295    -19    296    297   0.1  -3.7  34192  290.10 0854.80
2009/04/23 12:34:28.8     -73    249      8    260    261 343.5   1.8  34188  290.03 0854.80
2009/04/23 12:34:28.9       0    245     24    246    248 359.8   5.7  34190  290.07 0854.80
2009/04/23 12:34:29.0      -2    174     61    175    186 359.1  19.2  34186  290.01 0854.80
2009/04/23 12:34:29.1      -4    159     66    160    173 358.2  23.6  34184  289.99 0854.80
2009/04/23 12:34:29.2      28    140     22    143    145  11.6   9.0  34190  290.09 0854.80
2009/04/23 12:34:29.3      19    155     -5    157    158   7.1  -2.1  34192  290.11 0854.80
2009/04/23 12:34:29.4     -18    101    -44    103    112 349.8 -28.5  34186  290.02 0854.80
2009/04/23 12:34:29.5     -93     59     64    111    128 302.4  32.9  34188  290.06 0854.80
2009/04/23 12:34:29.6     -56    104     47    119    127 331.5  23.0  34186  290.02 0854.80
2009/04/23 12:34:29.7      -9     67     31     68     74 352.0  27.1  34186  290.01 0854.80
2009/04/23 12:34:29.8      -8     15     72     18     74 331.0  84.9  34184  289.99 0854.80
2009/04/23 12:34:29.9      -9     15     79     18     81 327.4  88.0  34192  290.11 0854.80
2009/04/23 12:34:30.0      63      0     62     64     89  90.8  50.0  34202  290.30 0854.80
2009/04/23 12:34:30.1      11      3     63     12     64  71.6  89.1  34204  290.31 0854.81
2009/04/23 12:34:30.2     -12    -13     64     18     66 223.4  83.9  34190  290.08 0854.81
2009/04/23 12:34:30.3     -17      0     56     18     58 270.0  80.7  34184  289.97 0854.81
2009/04/23 12:34:30.4       0    -27     55     28     61 180.9  71.9  34188  290.06 0854.81
2009/04/23 12:34:30.5      43    -24     53     50     72 119.8  52.1  34198  290.21 0854.81
2009/04/23 12:34:30.6      13     14     11     20     22  43.4  31.4  34194  290.16 0854.81
2009/04/23 12:34:30.7      29    110    -40    114    122  15.1 -19.6  34194  290.16 0854.81
2009/04/23 12:34:30.8      45     54     59     71     92  39.7  43.8  34190  290.08 0854.81
2009/04/23 12:34:30.9      45    -13     89     47    100 106.8  69.8  34188  290.06 0854.81
2009/04/23 12:34:31.0      57      4     56     58     80  85.7  49.4  34180  289.92 0854.81
2009/04/23 12:34:31.1      20    -51     32     56     64 158.2  32.4  34180  289.91 0854.81
2009/04/23 12:34:31.2     -25    -69    -20     74     77 200.0 -15.5  34186  290.02 0854.81
2009/04/23 12:34:31.3      -8    -80      1     81     82 185.8   1.2  34182  289.96 0854.81
2009/04/23 12:34:31.4     -31   -163     -6    167    168 190.9  -2.2  34162  289.62 0854.81
2009/04/23 12:34:31.5     -84   -167    -34    187    191 206.7 -10.5  34170  289.74 0854.81
2009/04/23 12:34:31.6    -113   -143    -39    183    188 218.5 -12.2  34192  290.11 0854.81
2009/04/23 12:34:31.7     -72    -51    -60     89    107 234.9 -41.4  34186  290.02 0854.81
2009/04/23 12:34:31.8    -137     10     -9    138    139 274.4  -3.7  34188  290.04 0854.81
2009/04/23 12:34:31.9    -142     -4     17    143    145 268.3   6.9  34184  289.97 0854.81
2009/04/23 12:34:32.0    -211      4     63    212    222 271.3  16.6  34180  289.91 0854.81
2009/04/23 12:34:32.1    -200    -54     39    208    212 254.9  10.8  34180  289.91 0854.82
2009/04/23 12:34:32.2    -265    -23     72    267    277 265.0  15.2  34174  289.80 0854.82
2009/04/23 12:34:32.3    -362   -192    -29    411    412 242.0  -4.1  34158  289.53 0854.82
2009/04/23 12:34:32.4    -316   -188     -7    368    369 239.3  -1.2  34168  289.71 0854.82
2009/04/23 12:34:32.5    -323   -175    -10    368    369 241.5  -1.7  34162  289.62 0854.82
2009/04/23 12:34:32.6    -387   -120    -47    406    409 252.7  -6.7  34158  289.53 0854.82
2009/04/23 12:34:32.7    -278    -44    -56    282    288 261.0 -11.3  34168  289.71 0854.82
2009/04/23 12:34:32.8    -235    -12    -70    236    247 267.0 -16.6  34168  289.71 0854.82
2009/04/23 12:34:32.9    -217    -29    -56    219    227 262.3 -14.3  34160  289.57 0854.82
2009/04/23 12:34:33.0    -327    -82    -88    338    350 255.8 -14.6  34144  289.30 0854.82
2009/04/23 12:34:33.1    -273   -116   -148    297    331 246.9 -32.9  34142  289.27 0854.82
2009/04/23 12:34:33.2    -284   -130   -192    313    367 245.4 -38.8  34148  289.38 0854.82
2009/04/23 12:34:33.3    -269    -54   -142    275    309 258.5 -33.7  34148  289.37 0854.82
2009/04/23 12:34:33.4    -271    -54   -113    277    299 258.6 -27.5  34144  289.29 0854.82
2009/04/23 12:34:33.5    -278    -43    -86    282    295 261.2 -17.0  34148  289.36 0854.82
2009/04/23 12:34:33.6    -306    -13   -102    307    323 267.5 -23.7  34144  289.29 0854.82
2009/04/23 12:34:33.7    -320    -34   -116    322    342 263.9 -25.0  34142  289.28 0854.82
2009/04/23 12:34:33.8    -294    -55   -107    300    318 259.4 -24.8  34142  289.25 0854.82
2009/04/23 12:34:33.9    -307    -40   -131    310    336 262.5 -28.6  34144  289.29 0854.82
2009/04/23 12:34:34.0    -297    -12   -122    298    322 267.5 -27.9  34140  289.24 0854.82
2009/04/23 12:34:34.1    -299    -31    -85    301    312 263.9 -20.5  34142  289.27 0854.81
2009/04/23 12:34:34.2    -235    -15   -151    236    280 266.3 -40.0  34142  289.27 0854.81
2009/04/23 12:34:34.3    -272      0   -130    273    302 270.0 -31.7  34142  289.27 0854.81
2009/04/23 12:34:34.4    -278     -8   -129    279    307 268.3 -31.5  34142  289.25 0854.81
2009/04/23 12:34:34.5    -283      4   -128    284    311 270.8 -30.6  34142  289.25 0854.81
2009/04/23 12:34:34.6    -286    -13   -117    287    309 267.2 -27.5  34140  289.24 0854.81
2009/04/23 12:34:34.7    -288    -82    -89    300    312 254.0 -21.4  34148  289.37 0854.81
2009/04/23 12:34:34.8    -197   -178    -64    266    274 228.0 -13.7  34170  289.75 0854.81
2009/04/23 12:34:34.9    -129   -141     -5    192    193 222.3  -1.6  34162  289.62 0854.81
2009/04/23 12:34:35.0    -136   -106    -11    173    174 232.2  -3.9  34160  289.58 0854.81
2009/04/23 12:34:35.1     -84   -133     -7    158    159 212.5  -2.6  34162  289.60 0854.81
2009/04/23 12:34:35.2    -116   -129    -71    174    187 222.1 -27.5  34152  289.45 0854.81
2009/04/23 12:34:35.3    -103   -127    -85    164    184 219.2 -33.9  34150  289.40 0854.81
2009/04/23 12:34:35.4     -99   -104    -86    144    167 223.7 -38.4  34154  289.46 0854.81
2009/04/23 12:34:35.5     -93   -122    -55    154    164 217.4 -19.7  34158  289.53 0854.81
2009/04/23 12:34:35.6     -50   -116    -66    127    143 203.2 -33.7  34156  289.50 0854.81
2009/04/23 12:34:35.7     -37   -124   -113    130    172 196.9 -50.0  34146  289.35 0854.81
2009/04/23 12:34:35.8       7   -138    -94    139    167 176.9 -41.7  34150  289.41 0854.81
2009/04/23 12:34:35.9      14   -108    -91    109    141 172.4 -48.2  34152  289.43 0854.81
2009/04/23 12:34:36.0     -13   -100   -115    101    153 187.6 -58.6  34158  289.53 0854.81
2009/04/23 12:34:36.1       7   -114    -94    115    148 176.4 -48.1  34158  289.55 0854.81
2009/04/23 12:34:36.2      84   -127   -119    153    193 146.6 -46.4  34148  289.36 0854.81
2009/04/23 12:34:36.3      65      0    -52     66     84  89.2 -46.6  34150  289.41 0854.81
2009/04/23 12:34:36.4       1    -33   -106     34    111 177.3 -85.1  34164  289.63 0854.81
2009/04/23 12:34:36.5     -26    -17   -137     32    140 235.8 -90.0  34162  289.60 0854.81
2009/04/23 12:34:36.6     -20     24   -140     32    143 320.3 -90.0  34162  289.62 0854.81
2009/04/23 12:34:36.7      80    -57   -144     99    174 125.5 -67.0  34162  289.62 0854.81
2009/04/23 12:34:36.8      35     52    -66     63     91  34.3 -55.6  34160  289.57 0854.81
2009/04/23 12:34:36.9      15     92    -59     94    110   9.8 -39.9  34160  289.57 0854.81
2009/04/23 12:34:37.0     -43     45    -16     63     66 315.9 -14.5  34162  289.60 0854.81
2009/04/23 12:34:37.1     -80     80    -39    114    121 315.0 -19.1  34156  289.52 0854.81
2009/04/23 12:34:37.2     -79     75    -39    110    117 313.6 -19.7  34160  289.57 0854.81
2009/04/23 12:34:37.3     -45    -69    -21     83     86 213.4 -14.5  34164  289.63 0854.81
2009/04/23 12:34:37.4      -7   -134     38    135    141 183.1  15.8  34160  289.58 0854.81
2009/04/23 12:34:37.5     101   -142     -6    175    176 144.4  -2.2  34162  289.62 0854.81
2009/04/23 12:34:37.6     109   -183    -27    214    216 149.3  -7.3  34168  289.70 0854.81
2009/04/23 12:34:37.7      27   -114    -28    118    122 166.6 -13.4  34166  289.67 0854.81
2009/04/23 12:34:37.8      58    -94    -80    111    136 148.4 -43.9  34164  289.63 0854.81
2009/04/23 12:34:37.9      94    -52    -30    108    113 118.8 -15.5  34160  289.57 0854.81
2009/04/23 12:34:38.0      62     -8    -27     63     68  98.0 -28.5  34160  289.58 0854.81
2009/04/23 12:34:38.1      11      0     -6     12     13  90.0 -31.6  34158  289.53 0854.80
2009/04/23 12:34:38.2      -8     31     11     33     35 344.9  18.9  34160  289.57 0854.80
2009/04/23 12:34:38.3     -12     31     27     34     43 338.2  42.7  34162  289.60 0854.80
2009/04/23 12:34:38.4     -41    -23     73     48     87 240.2  64.1  34164  289.63 0854.80
2009/04/23 12:34:38.5     -67    -58     84     89    122 229.1  48.5  34154  289.46 0854.80
2009/04/23 12:34:38.6     -68    -69     65     98    117 224.7  37.0  34154  289.48 0854.80
2009/04/23 12:34:38.7     -50    -88    111    102    150 209.9  52.2  34156  289.52 0854.80
2009/04/23 12:34:38.8     -41    -74     95     85    127 209.4  53.7  34158  289.55 0854.80
2009/04/23 12:34:38.9     -59   -115    133    130    185 207.2  50.7  34158  289.53 0854.80
2009/04/23 12:34:39.0     -46   -121    124    130    179 200.9  48.7  34158  289.53 0854.80
2009/04/23 12:34:39.1     -58   -145    141    157    211 201.8  46.6  34158  289.53 0854.80
2009/04/23 12:34:39.2     -73   -164    113    180    212 204.1  35.5  34160  289.57 0854.80
2009/04/23 12:34:39.3     -77   -189     81    205    220 202.3  23.0  34160  289.57 0854.80
2009/04/23 12:34:39.4     -50   -210    112    216    243 193.4  29.5  34158  289.53 0854.80
2009/04/23 12:34:39.5     -42   -213    109    218    243 191.1  28.5  34158  289.53 0854.80
2009/04/23 12:34:39.6      -6   -131    167    132    212 182.7  57.9  34164  289.65 0854.80
2009/04/23 12:34:39.7     -46   -180    105    186    213 194.5  32.1  34162  289.62 0854.80
2009/04/23 12:34:39.8     -47   -177     69    184    196 195.1  21.5  34162  289.60 0854.80
2009/04/23 12:34:39.9     -68   -223     84    234    248 197.0  20.4  34156  289.51 0854.80
2009/04/23 12:34:40.0     -78   -220     80    234    248 199.6  18.9  34156  289.49 0854.80
2009/04/23 12:34:40.1    -102   -227     85    250    265 204.3  18.9  34156  289.51 0854.78
2009/04/23 12:34:40.2    -105   -240     78    263    275 203.6  16.6  34158  289.54 0854.78
2009/04/23 12:34:40.3     -88   -253     92    268    284 199.2  18.9  34158  289.53 0854.78
2009/04/23 12:34:40.4     -48   -223     95    229    247 192.3  24.1  34158  289.54 0854.78
2009/04/23 12:34:40.5    -114   -250     82    275    288 204.5  16.6  34152  289.42 0854.78
2009/04/23 12:34:40.6    -124   -195     72    232    244 212.5  17.3  34148  289.36 0854.78
2009/04/23 12:34:40.7    -121   -210     51    243    249 209.9  12.0  34152  289.42 0854.78
2009/04/23 12:34:40.8    -123   -189     57    226    234 213.0  14.3  34150  289.40 0854.78
2009/04/23 12:34:40.9    -173   -183     16    253    254 223.4   3.6  34150  289.41 0854.78
2009/04/23 12:34:41.0    -191   -189     11    270    271 225.3   2.3  34152  289.44 0854.78
2009/04/23 12:34:41.1    -208   -142      7    253    254 235.6   1.8  34152  289.44 0854.78
2009/04/23 12:34:41.2    -119   -206    134    239    274 210.1  31.4  34156  289.51 0854.78
2009/04/23 12:34:41.3    -107   -167    140    199    243 212.6  38.5  34158  289.53 0854.78
2009/04/23 12:34:41.4    -112   -113     91    160    184 224.9  32.1  34158  289.55 0854.78
2009/04/23 12:34:41.5     -89   -102     56    136    147 221.0  23.1  34158  289.53 0854.78
2009/04/23 12:34:41.6    -120   -115      3    167    168 226.2   1.2  34154  289.48 0854.78
2009/04/23 12:34:41.7     -99   -158     -2    187    188 212.3  -0.7  34158  289.53 0854.78
2009/04/23 12:34:41.8    -154   -150    -38    216    220 225.8 -10.1  34154  289.46 0854.78
2009/04/23 12:34:41.9    -158   -134     64    208    218 229.6  17.3  34154  289.48 0854.78
2009/04/23 12:34:42.0    -147   -161     72    219    231 222.3  18.4  34152  289.45 0854.78
2009/04/23 12:34:42.1    -151   -170     74    228    240 221.7  18.1  34154  289.47 0854.77
2009/04/23 12:34:42.2    -150   -221     52    268    273 214.3  11.0  34152  289.44 0854.77
2009/04/23 12:34:42.3     -90   -162    104    186    213 209.0  31.9  34154  289.46 0854.77
2009/04/23 12:34:42.4    -122    -77    121    145    188 237.6  43.8  34160  289.58 0854.77
2009/04/23 12:34:42.5    -199    -15    -10    200    201 265.6  -3.1  34152  289.45 0854.77
2009/04/23 12:34:42.6    -196    -81     18    213    214 247.4   4.9  34158  289.53 0854.77
2009/04/23 12:34:42.7     -99    -43    119    108    160 246.5  53.3  34158  289.53 0854.77
2009/04/23 12:34:42.8     -67     47    107     82    134 305.1  58.5  34162  289.62 0854.77
2009/04/23 12:34:42.9    -101      1     58    102    117 270.9  31.9  34160  289.57 0854.77
2009/04/23 12:34:43.0     -12      4      1     13     14 288.4   6.9  34160  289.57 0854.77
2009/04/23 12:34:43.1     -24    -41      1     48     49 210.7   1.8  34160  289.57 0854.77
2009/04/23 12:34:43.2      33    -52     81     62    102 147.4  59.0  34160  289.58 0854.77
2009/04/23 12:34:43.3     -15    -16     77     22     80 223.2  83.9  34162  289.60 0854.77
2009/04/23 12:34:43.4      -3    -10     53     11     54 198.5  89.0  34166  289.67 0854.77
2009/04/23 12:34:43.5      -9     -3     42     10     43 248.3  85.9  34164  289.63 0854.77
2009/04/23 12:34:43.6      32    -25     17     41     44 127.8  23.0  34162  289.62 0854.77
2009/04/23 12:34:43.7      34    -25     19     43     47 126.0  25.1  34160  289.57 0854.77
2009/04/23 12:34:43.8      44    -25     12     51     53 119.8  13.2  34160  289.57 0854.77
2009/04/23 12:34:43.9      43    -46     -3     64     65 136.7  -3.1  34158  289.53 0854.77
2009/04/23 12:34:44.0      43    -35     -1     56     57 129.6  -1.3  34160  289.58 0854.77
2009/04/23 12:34:44.1      45    -70      0     84     85 147.5   0.2  34152  289.45 0854.77
2009/04/23 12:34:44.2      46    -87      0     99    100 151.9   0.2  34154  289.46 0854.77
2009/04/23 12:34:44.3      42    -80    -41     91     99 151.9 -30.6  34152  289.45 0854.77
2009/04/23 12:34:44.4      31    -63    -36     71     79 153.7 -33.1  34152  289.45 0854.77
2009/04/23 12:34:44.5     -14    -72    -30     74     79 191.6 -28.0  34150  289.41 0854.77
2009/04/23 12:34:44.6       0   -101    -60    102    118 179.5 -37.9  34150  289.41 0854.77
2009/04/23 12:34:44.7     -51   -175   -107    183    211 196.3 -37.8  34150  289.41 0854.77
2009/04/23 12:34:44.8     -41   -182   -105    187    214 192.9 -36.0  34148  289.36 0854.77
2009/04/23 12:34:44.9     -24   -163    -44    165    171 188.5 -15.0  34150  289.40 0854.77
2009/04/23 12:34:45.0     -64   -173    -73    185    198 200.5 -27.2  34150  289.41 0854.77
2009/04/23 12:34:45.1     -78   -163    -23    181    183 205.6  -7.5  34148  289.38 0854.76
2009/04/23 12:34:45.2     -88   -172    -48    194    200 207.0 -13.9  34142  289.28 0854.76
2009/04/23 12:34:45.3     -15   -171    -23    172    174 185.1  -7.7  34150  289.40 0854.76
2009/04/23 12:34:45.4     -23   -217    -51    219    226 186.2 -13.3  34150  289.41 0854.76
2009/04/23 12:34:45.5     -54   -249    -94    255    271 192.4 -25.4  34150  289.39 0854.76
2009/04/23 12:34:45.6      -6   -259    -94    260    276 181.4 -25.3  34148  289.37 0854.76
2009/04/23 12:34:45.7    -101   -204   -131    228    262 206.5 -36.8  34150  289.41 0854.76
2009/04/23 12:34:45.8     -52   -220   -112    227    253 193.3 -32.6  34152  289.42 0854.76
2009/04/23 12:34:45.9     -89   -143    -85    169    189 211.9 -32.9  34154  289.46 0854.76
2009/04/23 12:34:46.0     -48   -189    -60    196    204 194.3 -22.3  34154  289.48 0854.76
2009/04/23 12:34:46.1     -66   -219    -63    230    239 196.9 -15.5  34154  289.46 0854.76
2009/04/23 12:34:46.2     -65   -247    -61    256    264 194.9 -13.4  34156  289.51 0854.76
2009/04/23 12:34:46.3     -93   -237    -76    255    266 201.4 -21.7  34154  289.46 0854.76
2009/04/23 12:34:46.4     -88   -229    -78    246    259 201.2 -17.6  34154  289.46 0854.76
2009/04/23 12:34:46.5     -82   -249    -73    263    273 198.3 -15.5  34148  289.37 0854.76
2009/04/23 12:34:46.6    -112   -201    -35    231    234 209.2  -8.8  34156  289.49 0854.76
2009/04/23 12:34:46.7     -44   -260    -81    264    276 189.8 -21.8  34154  289.47 0854.76
2009/04/23 12:34:46.8     -47   -253    -86    258    271 190.6 -23.6  34152  289.44 0854.76
2009/04/23 12:34:46.9     -50   -208   -101    214    236 193.6 -31.5  34152  289.45 0854.76
2009/04/23 12:34:47.0      -6   -218    -56    219    227 181.6 -14.3  34148  289.38 0854.76
2009/04/23 12:34:47.1     -38   -254    -86    257    272 188.7 -18.6  34154  289.46 0854.75
2009/04/23 12:34:47.2      18   -277    -29    278    280 176.2  -6.1  34148  289.37 0854.75
2009/04/23 12:34:47.3     -47   -234    -43    239    243 191.5 -10.3  34154  289.46 0854.75
2009/04/23 12:34:47.4     -48   -221    -29    227    229 192.3  -7.3  34154  289.48 0854.75
2009/04/23 12:34:47.5     -31   -219    -40    222    226 188.2 -10.3  34148  289.38 0854.75
2009/04/23 12:34:47.6      -8   -186    -60    187    196 182.7 -22.8  34150  289.41 0854.75
2009/04/23 12:34:47.7     -21   -174    -63    176    188 186.9 -19.7  34152  289.43 0854.75
2009/04/23 12:34:47.8      -8   -203    -64    204    214 182.5 -17.6  34150  289.40 0854.75
2009/04/23 12:34:47.9       4   -176    -63    177    189 178.6 -19.7  34150  289.40 0854.75
2009/04/23 12:34:48.0     -50   -221    -47    227    233 192.9 -11.9  34152  289.43 0854.75
2009/04/23 12:34:48.1      -9   -210    -49    211    217 182.6 -13.2  34154  289.46 0854.75
2009/04/23 12:34:48.2     -30   -235    -70    237    248 187.3 -16.5  34148  289.37 0854.75
2009/04/23 12:34:48.3     -69   -244    -92    254    270 195.8 -25.1  34146  289.34 0854.75
2009/04/23 12:34:48.4     -48   -236    -76    241    253 191.6 -17.6  34146  289.34 0854.75
2009/04/23 12:34:48.5     -89   -177    -83    199    215 206.7 -28.2  34142  289.28 0854.75
2009/04/23 12:34:48.6    -108   -148    -53    184    191 216.0 -20.7  34146  289.33 0854.75
2009/04/23 12:34:48.7     -75   -118   -109    140    177 212.5 -46.4  34146  289.33 0854.75
2009/04/23 12:34:48.8     -70   -109    -99    130    163 212.6 -45.3  34146  289.35 0854.75
2009/04/23 12:34:48.9      -7   -150    -97    151    179 182.7 -40.1  34148  289.36 0854.75
2009/04/23 12:34:49.0     -52   -181    -57    189    197 196.0 -21.7  34144  289.30 0854.75
2009/04/23 12:34:49.1     -56   -140    -23    151    153 201.8  -8.8  34146  289.35 0854.74
2009/04/23 12:34:49.2     -58   -183      0    193    194 197.6   0.0  34148  289.38 0854.74
2009/04/23 12:34:49.3    -105    -98      7    144    145 226.9   2.9  34148  289.36 0854.74
2009/04/23 12:34:49.4    -106   -137    -22    174    176 217.6  -7.2  34148  289.38 0854.74
2009/04/23 12:34:49.5     -43   -162     -9    168    169 194.9  -3.3  34148  289.38 0854.74
2009/04/23 12:34:49.6      41   -125     25    132    135 161.5  11.0  34146  289.35 0854.74
2009/04/23 12:34:49.7      49   -208      7    214    215 166.6   2.1  34148  289.36 0854.74
2009/04/23 12:34:49.8      66   -167    -58    180    190 158.2 -17.9  34148  289.38 0854.74
2009/04/23 12:34:49.9      26   -152    -60    155    166 170.2 -26.4  34148  289.38 0854.74
2009/04/23 12:34:50.0       0   -212    -28    213    215 180.2  -7.7  34148  289.38 0854.74
2009/04/23 12:34:50.1       3   -212    -25    213    215 179.1  -6.9  34150  289.41 0854.74
2009/04/23 12:34:50.2      16   -276     -8    277    278 176.5  -1.8  34150  289.41 0854.74
2009/04/23 12:34:50.3      -5   -303    -27    304    306 181.0  -5.1  34150  289.41 0854.74
2009/04/23 12:34:50.4      21   -305    -27    306    308 176.0  -5.1  34152  289.42 0854.74
2009/04/23 12:34:50.5      23   -333    -24    334    335 176.0  -4.2  34150  289.40 0854.74
2009/04/23 12:34:50.6      17   -335    -18    336    337 177.1  -3.2  34148  289.38 0854.74
2009/04/23 12:34:50.7      30   -319    -14    321    322 174.6  -2.6  34150  289.39 0854.74
2009/04/23 12:34:50.8      44   -311    -28    315    317 171.9  -5.2  34150  289.39 0854.74
2009/04/23 12:34:50.9      31   -288    -58    290    296 173.7 -11.5  34148  289.37 0854.74
2009/04/23 12:34:51.0       0   -255    -77    256    268 179.9 -16.8  34150  289.39 0854.74
2009/04/23 12:34:51.1      -7   -250    -70    251    260 181.8 -20.0  34150  289.41 0854.74
2009/04/23 12:34:51.2      22   -236    -81    238    252 174.6 -18.9  34150  289.39 0854.74
2009/04/23 12:34:51.3      35   -239    -74    242    254 171.5 -17.0  34154  289.47 0854.74
2009/04/23 12:34:51.4       7   -235    -78    236    249 178.2 -18.3  34150  289.41 0854.74
2009/04/23 12:34:51.6      -4   -231    -69    232    243 181.0 -16.5  34150  289.39 0854.74
2009/04/23 12:34:51.6      18   -242    -57    243    250 175.6 -13.4  34150  289.39 0854.74
2009/04/23 12:34:51.7      15   -226    -55    227    234 176.2 -13.7  34150  289.40 0854.74
2009/04/23 12:34:51.8      15   -199    -59    200    209 175.5 -16.6  34150  289.40 0854.74
2009/04/23 12:34:51.9      45   -187    -47    193    199 166.4 -13.7  34150  289.40 0854.74
2009/04/23 12:34:52.0      36   -176    -49    180    187 168.4 -15.4  34150  289.40 0854.74
2009/04/23 12:34:52.1      39   -194    -39    198    202 168.5 -11.3  34152  289.43 0854.74
2009/04/23 12:34:52.2      40   -147    -54    153    163 164.6 -19.4  34150  289.41 0854.74
2009/04/23 12:34:52.3      84   -157    -41    179    184 151.7 -13.2  34150  289.40 0854.74
2009/04/23 12:34:52.4     102   -160    -18    190    191 147.5  -5.6  34152  289.43 0854.74
2009/04/23 12:34:52.5      74   -179     17    194    195 157.5   5.2  34150  289.41 0854.74
2009/04/23 12:34:52.6      72   -158    -49    174    181 155.5 -15.8  34150  289.41 0854.74
2009/04/23 12:34:52.7      40   -111    -35    119    125 160.0 -16.6  34150  289.40 0854.74
2009/04/23 12:34:52.9       9   -122    -22    123    125 175.5 -10.3  34152  289.43 0854.74
2009/04/23 12:34:53.0      73   -142     10    160    161 152.8   3.6  34152  289.43 0854.74
2009/04/23 12:34:53.1      72   -121     -3    141    142 149.3  -1.3  34152  289.43 0854.74
2009/04/23 12:34:53.2      40   -111    -42    119    127 159.9 -19.7  34152  289.45 0854.73
2009/04/23 12:34:53.3      -3   -150     -8    151    152 181.4  -3.2  34150  289.40 0854.73
2009/04/23 12:34:53.4     -14   -139    -33    140    144 185.8 -13.4  34152  289.43 0854.73
2009/04/23 12:34:53.5       0   -142      2    143    144 180.0   0.8  34152  289.43 0854.73
2009/04/23 12:34:53.6      15   -140     -4    141    142 173.8  -1.8  34154  289.46 0854.73
2009/04/23 12:34:53.7      59   -160     10    171    172 159.7   3.6  34152  289.45 0854.73
2009/04/23 12:34:53.8      70   -177      8    191    192 158.2   2.5  34154  289.46 0854.73
2009/04/23 12:34:53.9      82   -161     35    181    185 152.8  11.1  34154  289.48 0854.73
2009/04/23 12:34:54.0      84   -153     37    175    180 151.0  12.2  34154  289.48 0854.73
2009/04/23 12:34:54.1      52   -161     63    170    181 162.2  21.3  34152  289.45 0854.73
2009/04/23 12:34:54.2      63   -189     69    200    212 161.5  19.2  34156  289.50 0854.73
2009/04/23 12:34:54.3      84   -167     65    187    199 153.3  19.2  34152  289.45 0854.73
2009/04/23 12:34:54.4     104   -156     61    188    198 146.4  18.1  34154  289.46 0854.73
2009/04/23 12:34:54.5      98   -144     73    175    189 145.9  24.1  34152  289.45 0854.73
2009/04/23 12:34:54.6     164   -174    129    240    272 136.8  30.6  34154  289.46 0854.73
2009/04/23 12:34:54.7     122   -194    109    230    254 147.7  27.2  34152  289.44 0854.73
2009/04/23 12:34:54.8     100   -202     21    226    228 153.7   5.4  34152  289.45 0854.73
2009/04/23 12:34:54.9      89   -159     96    183    206 150.6  29.5  34152  289.43 0854.73
2009/04/23 12:34:55.0     112   -192    140    223    263 149.7  35.5  34152  289.42 0854.73
2009/04/23 12:34:55.1     121   -153    127    196    233 141.7  35.6  34152  289.45 0854.73
2009/04/23 12:34:55.2      82   -108    105    136    171 142.6  41.7  34156  289.50 0854.74
2009/04/23 12:34:55.3      95    -96     94    136    165 135.5  38.0  34152  289.43 0854.74
2009/04/23 12:34:55.4     122   -101    121    159    199 129.5  41.4  34154  289.48 0854.74
2009/04/23 12:34:55.5     142   -117    127    185    224 129.5  37.6  34152  289.45 0854.74
2009/04/23 12:34:55.6     187   -126    115    226    253 124.1  29.1  34154  289.47 0854.74
2009/04/23 12:34:55.7     143   -115     87    184    203 128.9  27.2  34154  289.46 0854.74
2009/04/23 12:34:55.8     117   -110    100    161    189 133.1  35.2  34154  289.48 0854.74
2009/04/23 12:34:55.9      74   -104     85    128    153 144.4  36.0  34152  289.45 0854.74
2009/04/23 12:34:56.0      73   -134     84    153    174 151.5  31.4  34154  289.46 0854.74
2009/04/23 12:34:56.1      39   -133     92    139    166 163.5  36.5  34154  289.48 0854.74
2009/04/23 12:34:56.2      17   -121     84    123    148 172.0  37.6  34154  289.46 0854.74
2009/04/23 12:34:56.3      23    -80     82     84    117 164.0  49.9  34154  289.48 0854.74
2009/04/23 12:34:56.4       7    -84     64     85    106 174.7  40.7  34154  289.48 0854.74
2009/04/23 12:34:56.5     -11    -91     42     92    101 187.1  26.6  34154  289.48 0854.74
2009/04/23 12:34:56.6     -13    -93     41     94    102 188.0  24.6  34154  289.46 0854.74
2009/04/23 12:34:56.7     -28    -87     40     92    100 198.3  25.1  34152  289.45 0854.74
2009/04/23 12:34:56.8     -12    -86     66     87    109 188.0  41.2  34154  289.46 0854.74
2009/04/23 12:34:56.9     -32    -96     63    102    119 198.5  34.4  34152  289.45 0854.74
2009/04/23 12:34:57.0     -30    -91     51     97    109 198.5  30.3  34154  289.48 0854.74
2009/04/23 12:34:57.1     -18   -115     66    117    134 189.3  31.9  34156  289.50 0854.74
2009/04/23 12:34:57.2     -24   -115     83    118    144 192.0  38.6  34154  289.48 0854.75
2009/04/23 12:34:57.3     -35   -146     98    151    180 193.4  36.0  34156  289.52 0854.75
2009/04/23 12:34:57.4     -51   -183     80    190    206 195.6  24.3  34156  289.50 0854.75
2009/04/23 12:34:57.5     -72   -194     73    208    221 200.5  19.4  34154  289.46 0854.75
2009/04/23 12:34:57.6     -61   -170     76    181    196 199.8  24.1  34156  289.52 0854.75
2009/04/23 12:34:57.7    -104   -166     45    196    202 212.1  13.1  34154  289.48 0854.75
2009/04/23 12:34:57.8    -126   -163     64    207    217 217.8  17.3  34156  289.50 0854.75
2009/04/23 12:34:57.9    -138   -138     68    196    208 224.9  19.2  34156  289.50 0854.75
2009/04/23 12:34:58.0    -114   -168     88    204    222 214.2  24.9  34158  289.55 0854.75
2009/04/23 12:34:58.1     -79   -165     80    183    199 205.6  25.1  34156  289.52 0854.75
2009/04/23 12:34:58.2     -56   -116     88    130    156 205.9  37.8  34154  289.48 0854.75
2009/04/23 12:34:58.3       6    -78    103     79    129 175.5  58.5  34156  289.52 0854.75
2009/04/23 12:34:58.4       2   -118    126    119    173 179.0  51.6  34156  289.52 0854.75
2009/04/23 12:34:58.5       5   -106    114    107    156 177.3  52.1  34154  289.48 0854.75
2009/04/23 12:34:58.6      22   -110    122    113    166 168.4  52.5  34158  289.53 0854.75
2009/04/23 12:34:58.7      46      3     76     47     89  85.7  65.1  34156  289.52 0854.75
2009/04/23 12:34:58.8      -4    -62    130     63    144 184.4  72.8  34162  289.62 0854.75
2009/04/23 12:34:58.9     -16    -12     78     21     80 234.0  85.4  34162  289.62 0854.75
2009/04/23 12:34:59.0     -25    -40     91     48    102 211.6  70.4  34162  289.62 0854.75
2009/04/23 12:34:59.1      17     -9     66     20     68 118.9  81.8  34168  289.70 0854.75
2009/04/23 12:34:59.2       0    -62     73     63     96 180.0  54.8  34164  289.63 0854.75
2009/04/23 12:34:59.3      18    -62     79     65    102 163.1  56.3  34160  289.57 0854.75
2009/04/23 12:34:59.4       3    -56     57     57     80 176.4  50.1  34162  289.60 0854.75
2009/04/23 12:34:59.5     -25    -56     16     62     65 204.5  14.3  34160  289.58 0854.75
2009/04/23 12:34:59.6     -32    -47     76     58     95 214.3  58.5  34162  289.62 0854.75
2009/04/23 12:34:59.7     -58    -98     79    115    139 210.7  37.6  34158  289.55 0854.75
2009/04/23 12:34:59.8     -41    -93     64    102    120 204.1  35.5  34158  289.55 0854.75
2009/04/23 12:34:59.9     -53    -97     90    111    142 208.9  43.7  34158  289.53 0854.75
2009/04/23 12:35:00.0     -71   -128     87    147    170 209.0  33.5  34158  289.53 0854.75
2009/04/23 12:35:00.1     -66   -129     92    146    172 207.2  35.5  34156  289.52 0854.75
2009/04/23 12:35:00.2     -55   -116     69    129    146 205.4  30.8  34154  289.48 0854.75
2009/04/23 12:35:00.3     -95    -75     52    122    132 231.8  24.6  34158  289.53 0854.75
2009/04/23 12:35:00.4    -104    -43      1    113    114 247.4   0.8  34156  289.50 0854.75
2009/04/23 12:35:00.5    -128    -31     -9    132    133 256.3  -4.1  34158  289.55 0854.75
2009/04/23 12:35:00.6    -117      8     37    118    124 274.3  17.4  34156  289.52 0854.75
2009/04/23 12:35:00.7    -133      3     -9    134    135 271.7  -4.1  34160  289.58 0854.75
2009/04/23 12:35:00.8     -84      0      9     85     86 270.4   6.5  34158  289.53 0854.75
2009/04/23 12:35:00.9     -91      2     47     92    103 271.7  28.7  34160  289.58 0854.75
2009/04/23 12:35:01.0     -80    -11      6     81     82 261.6   4.4  34166  289.67 0854.75
2009/04/23 12:35:01.1     -83     12     25     84     88 278.8  16.8  34164  289.63 0854.75
2009/04/23 12:35:01.2    -100     -5     -5    101    102 267.0  -3.1  34164  289.63 0854.77
2009/04/23 12:35:01.3    -145      3    -44    146    153 271.3 -17.0  34158  289.53 0854.77
2009/04/23 12:35:01.4    -120      0     -2    121    122 270.0  -1.3  34164  289.63 0854.77
2009/04/23 12:35:01.5     -99    -47     14    110    111 244.6   7.5  34164  289.63 0854.77
2009/04/23 12:35:01.6     -99    -51    -65    112    129 242.9 -37.3  34162  289.60 0854.77
2009/04/23 12:35:01.7    -105    -71    -96    128    160 235.8 -45.1  34162  289.62 0854.77
2009/04/23 12:35:01.8     -52   -110    -98    122    156 205.4 -47.4  34156  289.52 0854.77
2009/04/23 12:35:01.9     -62   -155     40    168    173 201.8  13.7  34158  289.55 0854.77
2009/04/23 12:35:02.0    -164   -114     -8    201    202 235.1  -2.3  34162  289.60 0854.77
2009/04/23 12:35:02.1    -140    -33     -5    144    145 256.7  -2.2  34162  289.60 0854.77
2009/04/23 12:35:02.2     -76    -15    -12     78     79 258.6  -8.8  34162  289.62 0854.77
2009/04/23 12:35:02.3     -24     56     17     62     65 336.4  15.3  34162  289.62 0854.77
2009/04/23 12:35:02.4     -86     17     19     88     91 281.5  12.6  34164  289.63 0854.77
2009/04/23 12:35:02.5    -127    -92    -54    157    167 234.1 -18.9  34160  289.58 0854.77
2009/04/23 12:35:02.6    -179   -113   -106    212    237 237.6 -33.1  34152  289.45 0854.77
2009/04/23 12:35:02.7    -193   -108   -148    222    266 240.7 -41.1  34156  289.51 0854.77
2009/04/23 12:35:02.8    -255    -81    -91    268    283 252.3 -23.3  34150  289.41 0854.77
2009/04/23 12:35:02.9    -208    -97   -109    230    254 244.8 -31.6  34154  289.47 0854.77
2009/04/23 12:35:03.0    -227    -20    -33    228    231 264.8  -8.2  34150  289.41 0854.77
2009/04/23 12:35:03.1    -227    -17    -46    228    233 265.6 -11.5  34154  289.46 0854.77
2009/04/23 12:35:03.2    -186    -24    -59    188    198 262.5 -17.6  34158  289.55 0854.78
2009/04/23 12:35:03.3    -232    -88    -84    249    263 249.2 -18.7  34156  289.51 0854.78
2009/04/23 12:35:03.4    -226   -114    -80    254    267 243.1 -17.6  34154  289.46 0854.78
2009/04/23 12:35:03.5    -188   -114    -59    221    229 238.7 -15.0  34152  289.43 0854.78
2009/04/23 12:35:03.6    -197    -94   -106    219    243 244.5 -32.2  34150  289.39 0854.78
2009/04/23 12:35:03.7    -195    -85   -125    213    246 246.4 -37.8  34150  289.41 0854.78
2009/04/23 12:35:03.8    -232    -65   -114    242    267 254.3 -31.5  34144  289.31 0854.78
2009/04/23 12:35:03.9    -269     -8   -112    270    292 268.3 -28.0  34156  289.49 0854.78
2009/04/23 12:35:04.0    -174    -64   -123    186    222 249.8 -40.7  34150  289.41 0854.78
2009/04/23 12:35:04.1    -212     32   -108    215    240 278.8 -32.9  34154  289.46 0854.78
2009/04/23 12:35:04.2    -218     65    -63    228    236 286.6 -20.0  34158  289.54 0854.80
2009/04/23 12:35:04.3    -198     26    -81    200    215 277.7 -27.5  34152  289.45 0854.80
2009/04/23 12:35:04.4    -185    -21    -86    187    205 263.4 -31.0  34154  289.46 0854.80
2009/04/23 12:35:04.5    -220     42    -91    224    241 280.8 -27.5  34158  289.53 0854.80
2009/04/23 12:35:04.6    -214     66    -75    225    238 287.3 -18.6  34158  289.54 0854.80
2009/04/23 12:35:04.7    -215     33    -43    218    223 278.8 -11.3  34158  289.55 0854.80
2009/04/23 12:35:04.8    -242     18     25    243    245 274.3   5.9  34164  289.64 0854.80
2009/04/23 12:35:04.9    -214     -9    -12    215    216 267.5  -3.3  34162  289.60 0854.80
2009/04/23 12:35:05.0    -268    -92   -100    284    301 251.0 -24.4  34156  289.49 0854.80
2009/04/23 12:35:05.1    -227    -27    -68    229    239 263.2 -16.6  34162  289.61 0854.80
2009/04/23 12:35:05.2    -267    -92    -56    283    289 250.9 -11.3  34162  289.61 0854.80
2009/04/23 12:35:05.3    -232    -74    -79    244    257 252.2 -18.1  34158  289.53 0854.80
2009/04/23 12:35:05.4    -226    -75    -93    239    256 251.6 -26.9  34162  289.61 0854.80
2009/04/23 12:35:05.5    -190      6    -34    191    195 271.9 -10.3  34162  289.60 0854.80
2009/04/23 12:35:05.6    -204    -45    -74    210    222 257.4 -24.4  34158  289.55 0854.80
2009/04/23 12:35:05.7    -116    -41      6    124    125 250.5   2.9  34162  289.62 0854.80
2009/04/23 12:35:05.8    -127    -60    -44    141    148 244.8 -17.6  34162  289.60 0854.80
2009/04/23 12:35:05.9    -205   -103    -78    230    242 243.4 -23.6  34160  289.58 0854.80
2009/04/23 12:35:06.0    -259    -68    -36    268    271 255.2  -7.7  34162  289.59 0854.80
2009/04/23 12:35:06.1    -253    -63    -42    261    265 255.9  -9.3  34154  289.46 0854.80
2009/04/23 12:35:06.2    -272    -77    -48    283    288 254.1  -9.8  34154  289.46 0854.81
2009/04/23 12:35:06.3    -265    -50    -60    270    277 259.2 -12.6  34154  289.47 0854.81
2009/04/23 12:35:06.4    -233   -133      8    269    270 240.3   1.7  34160  289.58 0854.81
2009/04/23 12:35:06.5    -275    -54    -59    281    288 258.8 -11.9  34156  289.49 0854.81
2009/04/23 12:35:06.6    -298   -108    -71    318    326 250.1 -12.6  34160  289.58 0854.81
2009/04/23 12:35:06.7    -187   -193    -75    269    279 224.1 -20.4  34162  289.61 0854.81
2009/04/23 12:35:06.8    -103   -174    -17    203    204 210.5  -4.9  34160  289.58 0854.81
2009/04/23 12:35:06.9    -129   -118     -8    175    176 227.6  -2.8  34164  289.63 0854.81
2009/04/23 12:35:07.0    -116    -88     28    146    149 232.7  11.0  34162  289.60 0854.81
2009/04/23 12:35:07.1    -208    -22    -58    210    218 263.9 -15.5  34156  289.52 0854.81
2009/04/23 12:35:07.2    -235    -64    -75    244    255 254.7 -21.8  34156  289.51 0854.81
2009/04/23 12:35:07.3    -228    -45    -74    233    244 258.8 -22.8  34150  289.41 0854.81
2009/04/23 12:35:07.4    -218    -27    -93    220    238 262.8 -28.5  34152  289.42 0854.81
2009/04/23 12:35:07.5    -227    -31   -112    230    255 262.1 -32.2  34154  289.47 0854.81
2009/04/23 12:35:07.6    -216    -22    -98    218    239 264.1 -30.3  34152  289.45 0854.81
2009/04/23 12:35:07.7    -182    -31    -93    185    207 260.1 -32.9  34152  289.45 0854.81
2009/04/23 12:35:07.8    -179    -48   -101    186    211 254.9 -35.2  34150  289.41 0854.81
2009/04/23 12:35:07.9    -218    -18    -86    219    235 265.2 -26.9  34152  289.43 0854.81
2009/04/23 12:35:08.0    -180     13   -108    181    210 274.4 -37.9  34152  289.45 0854.81
2009/04/23 12:35:08.1    -231     32   -143    234    274 277.9 -38.8  34152  289.42 0854.81
2009/04/23 12:35:08.2    -237    -48    -67    242    251 258.5 -20.2  34154  289.47 0854.83
2009/04/23 12:35:08.3    -252    -20    -82    253    265 265.4 -23.3  34156  289.51 0854.83
2009/04/23 12:35:08.4    -293     41   -126    296    321 278.0 -28.9  34156  289.51 0854.83
2009/04/23 12:35:08.5    -247    -54   -121    253    280 257.6 -31.7  34154  289.47 0854.83
2009/04/23 12:35:08.6    -256    -50   -137    262    295 258.8 -33.9  34154  289.46 0854.83
2009/04/23 12:35:08.7    -175      3   -113    176    209 271.3 -40.0  34154  289.46 0854.83
2009/04/23 12:35:08.8    -151     44   -146    158    215 286.4 -52.3  34152  289.43 0854.83
2009/04/23 12:35:08.9    -220    -25   -166    222    277 263.4 -45.0  34158  289.53 0854.83
2009/04/23 12:35:09.0    -176    -80    -70    194    206 245.4 -25.3  34154  289.48 0854.83
2009/04/23 12:35:09.1    -175    -80    -90    193    212 245.4 -31.4  34160  289.58 0854.83
2009/04/23 12:35:09.2    -208   -137    -59    250    257 236.5 -13.4  34158  289.54 0854.83
2009/04/23 12:35:09.3    -241    -54   -154    248    291 257.2 -39.6  34154  289.47 0854.83
2009/04/23 12:35:09.4    -219   -139   -114    260    283 237.5 -29.6  34152  289.44 0854.83
2009/04/23 12:35:09.5    -160   -141   -143    214    257 228.7 -41.1  34154  289.46 0854.83
2009/04/23 12:35:09.6    -143   -239    -90    279    294 211.0 -17.9  34152  289.42 0854.83
2009/04/23 12:35:09.7     -53   -276    -24    282    284 190.9  -4.9  34156  289.49 0854.83
2009/04/23 12:35:09.8     -89   -307   -113    320    340 196.3 -19.5  34154  289.47 0854.83
2009/04/23 12:35:09.9     -45   -279    -85    283    295 189.3 -21.7  34154  289.46 0854.83
2009/04/23 12:35:10.0     -81   -272   -101    284    301 196.7 -24.4  34154  289.47 0854.83
2009/04/23 12:35:10.1     -78   -291    -60    302    309 195.1 -11.3  34154  289.46 0854.83
2009/04/23 12:35:10.2     -92   -259    -60    275    282 199.6 -12.4  34156  289.49 0854.83
2009/04/23 12:35:10.3    -149   -228    -60    273    280 213.2 -12.4  34164  289.63 0854.83
2009/04/23 12:35:10.4     -97   -246    -63    265    273 201.6 -13.4  34158  289.54 0854.83
2009/04/23 12:35:10.5    -188   -227    -59    295    301 219.6 -11.5  34166  289.66 0854.83
2009/04/23 12:35:10.6    -178   -228    -23    290    291 217.9  -4.6  34160  289.56 0854.83
2009/04/23 12:35:10.7    -181   -250    -39    309    312 216.0  -7.3  34162  289.61 0854.83
2009/04/23 12:35:10.8    -171   -290    -43    337    340 210.5  -7.3  34166  289.67 0854.83
2009/04/23 12:35:10.9    -205   -269   -120    339    360 217.2 -19.6  34172  289.77 0854.83
2009/04/23 12:35:11.0    -219   -244    -99    328    342 221.9 -21.7  34172  289.79 0854.83
2009/04/23 12:35:11.1    -249   -238    -99    345    360 226.2 -16.0  34178  289.89 0854.83
2009/04/23 12:35:11.2    -209   -277    -91    348    360 217.0 -14.7  34182  289.94 0854.83
2009/04/23 12:35:11.3    -224   -237    -64    327    334 223.4 -11.2  34176  289.84 0854.83
2009/04/23 12:35:11.4    -210   -278     54    349    354 217.0   8.8  34160  289.57 0854.83
2009/04/23 12:35:11.5    -229   -289    -66    369    375 218.4 -10.3  34186  290.01 0854.83
2009/04/23 12:35:11.6    -173   -308    -45    354    357 209.3  -7.3  34182  289.93 0854.83
2009/04/23 12:35:11.7    -225   -321    -50    393    397 215.1  -7.3  34176  289.84 0854.83
2009/04/23 12:35:11.8    -154   -316    -67    352    359 206.1 -10.9  34174  289.82 0854.83
2009/04/23 12:35:11.9    -140   -323    -58    353    358 203.5  -9.3  34174  289.82 0854.83
2009/04/23 12:35:12.0    -181   -308    -51    358    362 210.5  -8.2  34172  289.79 0854.83
2009/04/23 12:35:12.1    -209   -346    -38    405    407 211.2  -5.5  34176  289.83 0854.83
2009/04/23 12:35:12.2    -165   -367     -8    403    404 204.2  -1.2  34178  289.87 0854.85
2009/04/23 12:35:12.3    -102   -358    -90    373    384 195.9 -13.6  34166  289.67 0854.85
2009/04/23 12:35:12.4    -125   -328    -98    352    366 200.9 -15.7  34170  289.74 0854.85
2009/04/23 12:35:12.5     -78   -274    -86    286    298 196.0 -21.7  34174  289.80 0854.85
2009/04/23 12:35:12.6     -62   -298   -105    305    322 191.8 -23.9  34172  289.78 0854.85
2009/04/23 12:35:12.7     -70   -260    -81    270    283 195.2 -16.8  34170  289.73 0854.85
2009/04/23 12:35:12.8     -23   -259     38    261    264 185.1   8.5  34164  289.64 0854.85
2009/04/23 12:35:12.9     -49   -173    -46    181    187 196.0 -14.3  34164  289.63 0854.85
2009/04/23 12:35:13.0    -166   -288     46    333    337 210.0   7.9  34168  289.72 0854.85
2009/04/23 12:35:13.1    -167      6     71    168    182 272.1  24.1  34166  289.67 0854.85
2009/04/23 12:35:13.2    -173     74    125    189    226 293.1  36.5  34170  289.74 0854.85
2009/04/23 12:35:13.3    -111    -26    150    115    189 256.7  58.7  34172  289.77 0854.85
2009/04/23 12:35:13.4     -69     64    129     95    160 312.7  60.0  34168  289.70 0854.85
2009/04/23 12:35:13.5     -19     76    117     79    141 345.7  62.6  34172  289.77 0854.85
2009/04/23 12:35:13.6     -93    -97    140    135    194 223.7  50.9  34170  289.74 0854.85
2009/04/23 12:35:13.7       0    -91    136     92    164 180.4  62.8  34166  289.69 0854.85
2009/04/23 12:35:13.8     -66   -135    144    151    208 206.3  48.7  34156  289.50 0854.85
2009/04/23 12:35:13.9    -116   -136    153    180    236 220.5  44.8  34158  289.55 0854.85
2009/04/23 12:35:14.0     -97   -117    133    153    202 219.7  45.8  34158  289.53 0854.85
2009/04/23 12:35:14.1    -140   -117    104    183    210 230.0  32.1  34158  289.55 0854.85
2009/04/23 12:35:14.2    -142    -56     56    153    162 248.3  20.7  34162  289.60 0854.85
2009/04/23 12:35:14.3    -114    -98     95    151    178 229.1  35.5  34156  289.52 0854.85
2009/04/23 12:35:14.4    -166    -75     63    183    194 245.8  19.2  34158  289.55 0854.85
2009/04/23 12:35:14.5     -84    -89     75    123    144 223.3  35.0  34156  289.52 0854.85
2009/04/23 12:35:14.6     -91   -104     91    139    166 221.4  36.3  34156  289.52 0854.85
2009/04/23 12:35:14.7     -73   -114     60    136    148 212.5  25.2  34158  289.55 0854.85
2009/04/23 12:35:14.8     -70   -111     67    132    148 212.5  28.7  34160  289.57 0854.85
2009/04/23 12:35:14.9     -50   -127     80    137    158 201.8  32.9  34158  289.55 0854.85
2009/04/23 12:35:15.0     -68   -132     69    149    164 207.2  26.6  34160  289.57 0854.85
2009/04/23 12:35:15.1     -57   -152     56    163    173 200.5  19.2  34158  289.55 0854.85
2009/04/23 12:35:15.2     -75   -150     73    168    183 206.7  24.6  34158  289.55 0854.85
2009/04/23 12:35:15.3     -77   -172     82    189    206 204.1  25.1  34158  289.55 0854.85
2009/04/23 12:35:15.4     -20   -180     49    182    189 186.5  15.2  34158  289.55 0854.85
2009/04/23 12:35:15.5      24   -143    113    146    184 170.2  41.7  34160  289.57 0854.85
2009/04/23 12:35:15.6      -9   -206     89    207    225 182.6  25.1  34160  289.58 0854.85
2009/04/23 12:35:15.7       0   -226     89    227    243 180.2  22.3  34160  289.58 0854.85
2009/04/23 12:35:15.8      -9   -244     32    245    248 182.2   7.5  34158  289.54 0854.85
2009/04/23 12:35:15.9     -46   -227     38    232    236 191.6   9.3  34158  289.53 0854.85
2009/04/23 12:35:16.0     -79   -219      6    233    234 200.0   1.7  34158  289.53 0854.85
2009/04/23 12:35:16.1     -79   -241     33    254    257 198.3   7.5  34158  289.53 0854.85
2009/04/23 12:35:16.2     -69   -161    102    176    203 203.4  33.1  34160  289.57 0854.83
2009/04/23 12:35:16.3     -84   -122     29    149    152 214.7  11.1  34158  289.53 0854.83
2009/04/23 12:35:16.4     -76   -161      0    179    180 205.4   0.0  34154  289.46 0854.83
2009/04/23 12:35:16.5     -83   -207     43    224    229 201.9  11.0  34154  289.48 0854.83
2009/04/23 12:35:16.6     -71   -197     74    210    223 200.0  19.4  34154  289.48 0854.83
2009/04/23 12:35:16.7    -102   -225     52    248    254 204.5  12.0  34158  289.53 0854.83
2009/04/23 12:35:16.8    -111   -222     53    249    255 206.5  12.2  34156  289.49 0854.83
2009/04/23 12:35:16.9    -145   -214     20    259    260 214.2   4.6  34158  289.54 0854.83
2009/04/23 12:35:17.0    -189   -211     -3    284    285 221.9  -0.7  34162  289.61 0854.83
2009/04/23 12:35:17.1    -150   -188     15    241    242 218.5   3.6  34158  289.54 0854.83
2009/04/23 12:35:17.2    -108   -179    -12    210    211 211.2  -3.3  34160  289.57 0854.83
2009/04/23 12:35:17.3    -100   -206     67    230    240 205.9  16.3  34156  289.49 0854.83
2009/04/23 12:35:17.4    -114   -125     55    170    179 222.5  18.1  34154  289.48 0854.83
2009/04/23 12:35:17.5    -111   -123     23    167    169 222.1   8.0  34156  289.52 0854.83
2009/04/23 12:35:17.6    -115   -108    -18    159    161 226.8  -6.5  34158  289.53 0854.83
2009/04/23 12:35:17.7    -111   -151     -7    188    189 216.5  -2.2  34162  289.62 0854.83
2009/04/23 12:35:17.8    -137   -177    -57    225    233 217.8 -14.3  34166  289.67 0854.83
2009/04/23 12:35:17.9    -124   -170    -16    211    212 216.1  -4.4  34166  289.67 0854.83
2009/04/23 12:35:18.0    -147   -180    -80    233    246 219.4 -23.8  34160  289.58 0854.83
2009/04/23 12:35:18.1    -119   -194    -70    228    238 211.6 -22.1  34164  289.64 0854.83
2009/04/23 12:35:18.2     -52   -178    -33    186    189 196.5 -10.1  34162  289.62 0854.82
2009/04/23 12:35:18.3     -49   -172    -64    180    192 196.0 -19.7  34160  289.58 0854.82
2009/04/23 12:35:18.4     -72   -113   -117    135    178 212.5 -49.8  34156  289.52 0854.82
2009/04/23 12:35:18.5     -59    -66    -85     89    123 221.9 -53.4  34162  289.60 0854.82
2009/04/23 12:35:18.6     -63    -20     -3     67     68 252.3  -3.2  34148  289.38 0854.82
2009/04/23 12:35:18.7      30    -26     -1     40     41 131.3  -2.2  34152  289.45 0854.82
2009/04/23 12:35:18.8      32    -55     38     64     74 149.3  35.5  34152  289.43 0854.82
2009/04/23 12:35:18.9     -11    -56    -39     58     69 191.6 -40.9  34148  289.36 0854.82
2009/04/23 12:35:19.0     -27   -128    -54    131    141 192.0 -27.5  34150  289.41 0854.82
2009/04/23 12:35:19.2    -110   -125    -26    167    170 221.4  -9.0  34158  289.53 0854.82
2009/04/23 12:35:19.3    -113   -100     81    152    172 228.6  30.1  34156  289.50 0854.82
2009/04/23 12:35:19.4    -112   -113     82    160    179 224.9  29.3  34154  289.48 0854.82
2009/04/23 12:35:19.5    -103   -133    105    169    198 217.6  35.0  34154  289.48 0854.82
2009/04/23 12:35:19.6     -55   -135     71    146    162 202.3  27.8  34152  289.45 0854.82
2009/04/23 12:35:19.7     -77   -208    100    223    244 200.5  25.9  34156  289.49 0854.82
2009/04/23 12:35:19.8     -35   -211     88    215    232 189.6  23.1  34156  289.50 0854.82
2009/04/23 12:35:19.9     -60   -192     92    202    221 197.4  26.2  34154  289.48 0854.82
2009/04/23 12:35:20.0    -132   -194    123    235    265 214.3  29.8  34156  289.51 0854.82
2009/04/23 12:35:20.1     -63   -254    222    262    343 194.0  44.4  34154  289.47 0854.82
2009/04/23 12:35:20.2    -167   -283    186    329    377 210.7  31.9  34154  289.48 0854.82
2009/04/23 12:35:20.3    -171   -247    106    301    320 214.7  19.4  34158  289.54 0854.80
2009/04/23 12:35:20.4    -188   -248    115    312    332 217.2  21.1  34154  289.47 0854.80
2009/04/23 12:35:20.5    -182   -243     88    304    317 216.9  16.3  34152  289.44 0854.80
2009/04/23 12:35:20.6      12   -220    156    221    270 176.9  38.6  34150  289.41 0854.80
2009/04/23 12:35:20.7     -56   -166    169    176    244 198.7  49.0  34154  289.46 0854.80
2009/04/23 12:35:20.8     -42   -143    160    150    219 196.5  52.1  34156  289.50 0854.80
2009/04/23 12:35:20.9     -62   -176    164    187    248 199.6  45.8  34156  289.50 0854.80
2009/04/23 12:35:21.0     -44   -189    233    195    303 193.1  56.3  34158  289.53 0854.80
2009/04/23 12:35:21.1    -124   -167    142    209    252 216.7  37.3  34158  289.53 0854.80
2009/04/23 12:35:21.2    -186   -102     66    213    224 241.2  17.3  34156  289.50 0854.80
2009/04/23 12:35:21.3    -148   -102    165    180    244 235.4  47.5  34160  289.58 0854.80
2009/04/23 12:35:21.4     -49   -157    135    165    213 197.6  43.7  34160  289.57 0854.80
2009/04/23 12:35:21.5     -31   -200     85    203    220 188.9  24.1  34156  289.52 0854.80
2009/04/23 12:35:21.6      23   -136     37    138    144 170.3  15.2  34158  289.53 0854.80
2009/04/23 12:35:21.7     -20   -112     31    114    119 190.2  15.2  34156  289.50 0854.80
2009/04/23 12:35:21.8     -96    -84     33    128    133 228.7  14.7  34160  289.57 0854.80
2009/04/23 12:35:21.9    -125   -135     67    185    196 222.8  21.0  34160  289.57 0854.80
2009/04/23 12:35:22.0    -184   -110     -7    215    216 239.1  -2.1  34160  289.58 0854.80
2009/04/23 12:35:22.1    -231   -144    -81    273    285 238.0 -16.6  34158  289.53 0854.80
2009/04/23 12:35:22.2    -227   -125    -18    260    261 241.1  -4.1  34156  289.51 0854.80
2009/04/23 12:35:22.3    -244   -137    -20    280    281 240.7  -4.1  34162  289.59 0854.79
2009/04/23 12:35:22.4    -190   -230    -94    299    313 219.6 -22.4  34152  289.44 0854.79
2009/04/23 12:35:22.5    -194   -184     48    268    273 226.4  10.3  34164  289.63 0854.79
2009/04/23 12:35:22.6    -207   -123     97    241    259 239.3  23.1  34158  289.53 0854.79
2009/04/23 12:35:22.7    -175   -170    144    245    284 225.8  33.4  34154  289.46 0854.79
2009/04/23 12:35:22.8    -209   -175     44    273    277 230.0   9.3  34162  289.59 0854.79
2009/04/23 12:35:22.9    -476   -148   -153    499    521 252.7 -22.1  34144  289.30 0854.79
2009/04/23 12:35:23.0    -506    -41   -158    508    533 265.3 -17.3  34154  289.48 0854.79
2009/04/23 12:35:23.1    -506   -106   -120    518    532 258.1 -13.1  34156  289.50 0854.79
2009/04/23 12:35:23.2    -459   -162   -162    488    514 250.5 -23.7  34146  289.32 0854.79
2009/04/23 12:35:23.3    -441    -77   -115    448    463 260.0 -14.4  34154  289.48 0854.79
2009/04/23 12:35:23.4    -580   -187   -131    610    625 252.1 -12.2  34152  289.43 0854.79
2009/04/23 12:35:23.5    -492   -128   -174    509    539 255.4 -18.9  34152  289.45 0854.79
2009/04/23 12:35:23.6    -473   -101   -161    484    510 257.9 -23.7  34150  289.40 0854.79
2009/04/23 12:35:23.7    -442    -11   -222    443    495 268.5 -33.1  34146  289.35 0854.79
2009/04/23 12:35:23.8    -375     -5   -247    376    449 269.1 -40.9  34150  289.39 0854.79
2009/04/23 12:35:23.9    -445      6   -216    446    495 270.8 -32.2  34158  289.54 0854.79
2009/04/23 12:35:24.0    -439     92   -184    449    485 281.9 -28.0  34156  289.52 0854.79
2009/04/23 12:35:24.1    -351     90   -263    363    448 284.5 -43.9  34154  289.48 0854.79
2009/04/23 12:35:24.2    -276    -12    -99    277    295 267.4 -19.7  34156  289.49 0854.79
2009/04/23 12:35:24.3    -114     32    -89    119    148 285.9 -45.1  34156  289.52 0854.78
2009/04/23 12:35:24.4    -117     24    -79    120    143 281.9 -40.4  34160  289.57 0854.78
2009/04/23 12:35:24.5    -227    -41     30    231    233 259.6   7.5  34156  289.49 0854.78
2009/04/23 12:35:24.6    -500    189   -231    535    582 290.8 -29.4  34146  289.35 0854.78
2009/04/23 12:35:24.7    -331    131   -323    357    481 291.7 -51.3  34150  289.41 0854.78
2009/04/23 12:35:24.8    -352    213   -317    412    519 301.2 -45.9  34142  289.28 0854.78
2009/04/23 12:35:24.9    -566    298   -370    640    739 297.8 -37.1  34140  289.22 0854.78
2009/04/23 12:35:25.0    -492    218   -421    539    683 293.9 -46.4  34148  289.38 0854.78
2009/04/23 12:35:25.1    -382    188   -350    426    551 296.2 -48.1  34154  289.47 0854.78
2009/04/23 12:35:25.2    -359    255   -336    441    554 305.4 -45.6  34148  289.38 0854.78
2009/04/23 12:35:25.3    -224    237   -372    327    495 316.6 -58.7  34152  289.43 0854.77
2009/04/23 12:35:25.4    -134     85   -301    159    340 302.4 -74.2  34148  289.37 0854.77
2009/04/23 12:35:25.5     -34    147   -258    152    299 346.7 -71.2  34152  289.44 0854.77
2009/04/23 12:35:25.6    -228    341   -336    411    530 326.3 -47.9  34150  289.39 0854.77
2009/04/23 12:35:25.7    -127    312   -384    337    510 337.8 -58.7  34148  289.36 0854.77
2009/04/23 12:35:25.8    -440    195   -339    482    589 294.0 -43.0  34148  289.38 0854.77
2009/04/23 12:35:25.9    -357    169   -340    396    521 295.4 -49.4  34152  289.42 0854.77
2009/04/23 12:35:26.0    -234    182   -321    297    437 308.0 -56.7  34148  289.37 0854.77
2009/04/23 12:35:26.1    -343    293   -233    452    508 310.5 -33.7  34144  289.30 0854.77
2009/04/23 12:35:26.2    -208    283   -275    352    446 323.6 -46.3  34146  289.33 0854.77
2009/04/23 12:35:26.3    -281    353   -337    452    563 321.5 -45.0  34150  289.41 0854.77
2009/04/23 12:35:26.4    -401    268   -172    483    512 303.7 -24.8  34146  289.35 0854.77
2009/04/23 12:35:26.5      49    315   -314    319    447   8.9 -54.3  34154  289.48 0854.77
2009/04/23 12:35:26.6     116    204   -290    235    373  29.6 -61.3  34152  289.42 0854.77
2009/04/23 12:35:26.7    -182    193   -166    266    313 316.6 -39.4  34148  289.36 0854.77
2009/04/23 12:35:26.8    -240    249    -90    347    359 316.1 -14.6  34140  289.23 0854.77
2009/04/23 12:35:26.9    -315    229   -301    390    492 306.1 -46.0  34150  289.41 0854.77
2009/04/23 12:35:27.0    -488    104   -222    500    547 282.1 -30.0  34152  289.43 0854.77
2009/04/23 12:35:27.1    -404    102   -235    417    478 284.2 -36.4  34150  289.39 0854.77
2009/04/23 12:35:27.2    -248     49   -222    253    336 281.4 -50.2  34148  289.36 0854.77
2009/04/23 12:35:27.3    -356    190   -280    404    491 298.1 -42.5  34150  289.39 0854.76
2009/04/23 12:35:27.4    -398     78   -271    406    488 281.1 -41.3  34148  289.38 0854.76
2009/04/23 12:35:27.5    -359    175   -142    400    424 296.0 -24.7  34150  289.41 0854.76
2009/04/23 12:35:27.6    -218    122   -119    250    276 299.3 -31.6  34148  289.36 0854.76
2009/04/23 12:35:27.7    -138     57   -212    150    259 292.6 -65.7  34150  289.40 0854.76
2009/04/23 12:35:27.8     -37      0   -199     38    202 270.0 -90.0  34146  289.35 0854.76
2009/04/23 12:35:27.9    -309     -4   -288    310    423 269.2 -52.3  34150  289.40 0854.76
2009/04/23 12:35:28.0    -180     52   -245    188    308 286.2 -62.9  34150  289.41 0854.76
2009/04/23 12:35:28.1    -260     44   -296    264    396 279.7 -58.1  34142  289.28 0854.76
2009/04/23 12:35:28.2     -88    106   -207    138    248 320.3 -67.8  34154  289.46 0854.76
2009/04/23 12:35:28.3      72    140   -291    158    331  27.2 -73.6  34156  289.51 0854.76
2009/04/23 12:35:28.4      40    210   -446    214    494  10.9 -77.1  34160  289.56 0854.76
2009/04/23 12:35:28.5      60   -318   -329    324    461 169.3 -54.6  34146  289.33 0854.76
2009/04/23 12:35:28.6     137   -582   -173    598    623 166.7 -16.2  34150  289.40 0854.76
2009/04/23 12:35:28.7     122   -303     21    327    328 158.1   3.8  34142  289.27 0854.76
2009/04/23 12:35:28.8     302   -229    258    380    459 127.2  37.4  34146  289.33 0854.76
2009/04/23 12:35:28.9     225   -249    246    336    416 137.9  39.8  34154  289.47 0854.76
2009/04/23 12:35:29.0     183   -229    175    294    342 141.3  33.6  34142  289.25 0854.76
2009/04/23 12:35:29.1      15   -171    160    172    234 174.7  47.9  34154  289.46 0854.76
2009/04/23 12:35:29.2    -125   -210    300    245    387 210.8  56.5  34136  289.18 0854.76
2009/04/23 12:35:29.3     -16   -234    430    235    490 184.0  69.1  34152  289.44 0854.76
2009/04/23 12:35:29.4    -222   -208    314    305    437 226.8  50.9  34146  289.33 0854.76
2009/04/23 12:35:29.5    -261   -506    315    570    651 207.3  31.4  34152  289.45 0854.76
2009/04/23 12:35:29.6    -267   -398    209    480    523 213.9  25.1  34152  289.44 0854.76
2009/04/23 12:35:29.7    -451   -421     95    618    626 227.0   8.8  34140  289.23 0854.76
2009/04/23 12:35:29.8    -325   -269     96    423    434 230.4  12.9  34150  289.41 0854.76
2009/04/23 12:35:29.9    -207   -304     55    369    374 214.3   8.5  34154  289.48 0854.76
2009/04/23 12:35:30.0    -310   -232     46    388    391 233.1   6.9  34152  289.42 0854.76
2009/04/23 12:35:30.1    -322   -107    -57    340    345 251.6  -9.6  34158  289.55 0854.76
2009/04/23 12:35:30.2    -181   -281    -98    335    350 212.7 -16.4  34160  289.57 0854.76
2009/04/23 12:35:30.3    -264   -193    105    328    345 233.8  17.8  34156  289.50 0854.76
2009/04/23 12:35:30.4     -98   -133     54    166    175 216.5  18.1  34160  289.57 0854.76
2009/04/23 12:35:30.5    -318   -122    -98    341    354 249.0 -20.9  34158  289.54 0854.76
2009/04/23 12:35:30.6    -518     44   -239    521    573 274.9 -30.7  34160  289.57 0854.76
2009/04/23 12:35:30.7    -772    -42   -213    774    802 266.9 -20.0  34154  289.47 0854.76
2009/04/23 12:35:30.8    -751     48   -224    753    785 273.7 -21.4  34156  289.52 0854.76
2009/04/23 12:35:30.9    -613    222   -136    653    668 289.9 -11.8  34152  289.44 0854.76
2009/04/23 12:35:31.0    -460     71   -146    466    488 278.8 -22.5  34164  289.64 0854.76
2009/04/23 12:35:31.1    -416    -37    -83    418    427 264.8 -11.2  34156  289.51 0854.76
2009/04/23 12:35:31.2    -417    -99     32    429    431 256.6   4.4  34162  289.60 0854.76
2009/04/23 12:35:31.3    -119   -177    -35    214    217 214.1  -9.4  34152  289.45 0854.76
2009/04/23 12:35:31.4     -99   -149     80    179    196 213.6  25.3  34156  289.52 0854.76
2009/04/23 12:35:31.5    -323    -84     -2    334    335 255.4  -0.5  34162  289.62 0854.76
2009/04/23 12:35:31.6    -197    -93    -28    218    220 244.7  -7.3  34160  289.58 0854.76
2009/04/23 12:35:31.7    -253   -100     38    273    276 248.5   8.0  34164  289.64 0854.76
2009/04/23 12:35:31.8    -354   -277   -129    450    468 232.0 -20.7  34166  289.68 0854.76
2009/04/23 12:35:31.9    -180   -309   -111    358    374 210.3 -22.2  34162  289.59 0854.76
2009/04/23 12:35:32.0       0   -204    100    205    228 180.0  27.4  34156  289.50 0854.76
2009/04/23 12:35:32.1     -14   -190    106    191    218 184.2  31.4  34156  289.52 0854.76
2009/04/23 12:35:32.2     119   -242    106    270    290 153.7  22.8  34160  289.56 0854.76
2009/04/23 12:35:32.3      49   -176    -82    183    200 164.2 -30.1  34160  289.57 0854.76
2009/04/23 12:35:32.4     -44   -393     14    396    397 186.5   2.1  34156  289.52 0854.76
2009/04/23 12:35:32.5    -206   -577    -54    613    616 199.7  -5.1  34156  289.52 0854.76
2009/04/23 12:35:32.6     -66   -466     78    471    478 188.1   9.4  34140  289.23 0854.76
2009/04/23 12:35:32.7     -61   -262    152    270    309 193.3  31.9  34154  289.47 0854.76
2009/04/23 12:35:32.8    -159   -237    147    286    321 213.8  29.4  34160  289.56 0854.76
2009/04/23 12:35:32.9    -197   -195     54    278    284 225.3  11.0  34158  289.54 0854.76
2009/04/23 12:35:33.0    -229   -145     86    272    286 237.6  17.7  34158  289.53 0854.76
2009/04/23 12:35:33.1    -199   -116    -27    231    233 239.6  -6.9  34154  289.48 0854.76
2009/04/23 12:35:33.2    -267   -161     80    312    323 238.9  14.4  34156  289.49 0854.76
2009/04/23 12:35:33.3    -335   -101     -9    350    351 253.2  -1.6  34156  289.50 0854.77
2009/04/23 12:35:33.4    -344   -135   -110    370    386 248.5 -21.6  34148  289.37 0854.77
2009/04/23 12:35:33.5    -259   -112    -11    283    284 246.5  -2.3  34156  289.49 0854.77
2009/04/23 12:35:33.6    -164   -139    145    216    260 229.6  37.0  34158  289.53 0854.77
2009/04/23 12:35:33.7     -69   -149     90    165    187 204.7  31.0  34156  289.50 0854.77
2009/04/23 12:35:33.8     -18   -135     90    137    163 187.6  36.3  34154  289.46 0854.77
2009/04/23 12:35:33.9     -86   -134    131    160    206 212.6  43.7  34158  289.55 0854.77
2009/04/23 12:35:34.0    -258    -72     99    268    285 254.3  21.0  34160  289.58 0854.77
2009/04/23 12:35:34.1     -98   -106     17    145    147 222.8   6.9  34162  289.60 0854.77
2009/04/23 12:35:34.2     -23   -112     58    115    128 191.6  28.7  34162  289.62 0854.77
2009/04/23 12:35:34.3      23   -246     59    248    256 174.6  13.5  34158  289.53 0854.77
2009/04/23 12:35:34.4      65   -291     20    299    300 167.3   3.9  34156  289.49 0854.77
2009/04/23 12:35:34.5      41   -306    -28    309    311 172.2  -5.2  34156  289.49 0854.77
2009/04/23 12:35:34.6      50   -401      5    405    406 172.8   0.7  34156  289.49 0854.77
2009/04/23 12:35:34.7      63   -312     31    319    321 168.5   5.7  34152  289.44 0854.77
2009/04/23 12:35:34.8      32   -376     89    378    389 175.1  13.2  34152  289.45 0854.77
2009/04/23 12:35:34.9      -7   -378    148    379    406 181.1  22.4  34152  289.43 0854.77
2009/04/23 12:35:35.0     -18   -370    179    371    411 182.8  27.7  34152  289.43 0854.77
2009/04/23 12:35:35.1      13   -394    211    395    447 178.0  30.3  34154  289.46 0854.77
2009/04/23 12:35:35.2      18   -396    229    397    458 177.4  32.7  34156  289.49 0854.77
2009/04/23 12:35:35.3      14   -315    163    316    355 177.4  29.4  34154  289.47 0854.77
2009/04/23 12:35:35.4      30   -271    119    273    297 173.5  25.1  34154  289.46 0854.77
2009/04/23 12:35:35.5     194   -327    134    381    405 149.3  19.4  34156  289.52 0854.77
2009/04/23 12:35:35.6     215   -288     91    360    372 143.3  14.2  34156  289.52 0854.77
2009/04/23 12:35:35.7     109   -352    213    369    426 162.8  32.6  34150  289.41 0854.77
2009/04/23 12:35:35.8      53   -428    126    432    451 172.9  16.3  34156  289.51 0854.77
2009/04/23 12:35:35.9       2   -431    198    432    475 179.7  26.3  34154  289.46 0854.77
2009/04/23 12:35:36.0       7   -316    222    317    387 178.6  38.5  34154  289.48 0854.77
2009/04/23 12:35:36.1      30   -368    243    370    442 175.2  36.4  34158  289.53 0854.77
2009/04/23 12:35:36.2      46   -466    257    469    534 174.3  31.3  34152  289.44 0854.77
2009/04/23 12:35:36.3     110   -437    281    451    531 165.8  35.0  34150  289.40 0854.77
2009/04/23 12:35:36.4      75   -535    263    541    601 172.0  27.8  34156  289.49 0854.77
2009/04/23 12:35:36.5     -99   -525    308    535    617 190.7  32.4  34152  289.42 0854.77
2009/04/23 12:35:36.6       8   -463    413    464    621 179.0  46.3  34154  289.46 0854.77
2009/04/23 12:35:36.7     244   -631    255    677    723 158.8  21.8  34152  289.45 0854.77
2009/04/23 12:35:36.8     168   -602    317    626    701 164.4  29.1  34154  289.46 0854.77
2009/04/23 12:35:36.9     200   -575    301    609    679 160.8  28.2  34146  289.34 0854.77
2009/04/23 12:35:37.0      19   -497    202    498    537 177.8  23.2  34142  289.28 0854.77
2009/04/23 12:35:37.1     119   -608    215    620    657 168.9  19.2  34148  289.38 0854.77
2009/04/23 12:35:37.2      91   -584    104    592    602 171.1  10.0  34148  289.37 0854.77
2009/04/23 12:35:37.3     165   -503    123    530    545 161.8  13.1  34158  289.55 0854.77
2009/04/23 12:35:37.4      39   -593   -110    595    606 176.2 -10.5  34154  289.47 0854.77
2009/04/23 12:35:37.5       0   -647    -74    648    653 180.0  -6.6  34154  289.48 0854.77
2009/04/23 12:35:37.6     -83   -535    -63    542    546 188.8  -6.7  34154  289.48 0854.77
2009/04/23 12:35:37.7    -115   -538    -88    551    559 192.1  -9.1  34156  289.51 0854.77
2009/04/23 12:35:37.8    -161   -541    -43    565    567 196.6  -4.4  34154  289.46 0854.77
2009/04/23 12:35:37.9    -188   -496    -29    531    532 200.8  -3.2  34152  289.45 0854.77
2009/04/23 12:35:38.0     -64   -455    -79    460    467 188.0  -9.8  34152  289.45 0854.77
2009/04/23 12:35:38.1    -105   -444    -32    457    459 193.4  -4.1  34154  289.46 0854.77
2009/04/23 12:35:38.2     -96   -463     27    474    475 191.8   3.3  34156  289.50 0854.77
2009/04/23 12:35:38.3    -130   -390     37    412    414 198.4   5.2  34156  289.51 0854.77
2009/04/23 12:35:38.4    -134   -341     25    367    368 201.6   4.0  34156  289.50 0854.77
2009/04/23 12:35:38.5    -128   -352   -119    375    394 200.1 -17.7  34144  289.30 0854.77
2009/04/23 12:35:38.6     -81   -241     -3    255    256 198.7  -0.7  34152  289.42 0854.77
2009/04/23 12:35:38.7    -121   -237     94    267    283 207.2  20.0  34156  289.49 0854.77
2009/04/23 12:35:38.8     -25   -164    223    167    278 188.9  59.4  34156  289.51 0854.77
2009/04/23 12:35:38.9     233   -123    268    264    376 118.0  50.2  34154  289.47 0854.77
2009/04/23 12:35:39.0     255   -196    190    322    373 127.5  33.4  34154  289.47 0854.77
2009/04/23 12:35:39.1     269   -148    -59    308    314 118.9 -11.0  34156  289.49 0854.77
2009/04/23 12:35:39.2     160   -181    -11    242    243 138.5  -2.6  34156  289.49 0854.77
2009/04/23 12:35:39.3     159   -283    -55    325    330 150.6  -9.6  34156  289.51 0854.75
2009/04/23 12:35:39.4     148   -294     13    330    331 153.3   2.3  34156  289.50 0854.75
2009/04/23 12:35:39.5     189   -361    -83    408    417 152.3 -11.5  34154  289.46 0854.75
2009/04/23 12:35:39.6     241   -321     16    402    403 143.0   2.4  34150  289.39 0854.75
2009/04/23 12:35:39.7     197   -245    -37    315    318 141.2  -6.8  34150  289.41 0854.75
2009/04/23 12:35:39.8     246   -202     35    319    321 129.5   6.4  34148  289.36 0854.75
2009/04/23 12:35:39.9     324   -186    101    374    388 119.9  15.2  34150  289.40 0854.75
2009/04/23 12:35:40.0     208   -195    122    286    310 133.1  24.6  34144  289.29 0854.75
2009/04/23 12:35:40.1     247   -182    170    307    350 126.4  31.4  34152  289.43 0854.75
2009/04/23 12:35:40.2     239   -121     63    268    276 116.9  13.2  34148  289.37 0854.75
2009/04/23 12:35:40.3     188   -154    -53    244    250 129.3 -12.4  34156  289.51 0854.75
2009/04/23 12:35:40.4     219   -232      5    320    321 136.7   0.9  34154  289.47 0854.75
2009/04/23 12:35:40.5     246   -198    -22    317    318 128.9  -4.0  34150  289.39 0854.75
2009/04/23 12:35:40.6     195   -212    145    289    323 137.5  28.6  34146  289.34 0854.75
2009/04/23 12:35:40.7     256   -186    134    317    344 126.0  24.3  34152  289.43 0854.75
2009/04/23 12:35:40.8     241   -199    129    313    338 129.5  23.6  34152  289.42 0854.75
2009/04/23 12:35:40.9     245   -130     72    278    288 118.0  14.5  34148  289.37 0854.75
2009/04/23 12:35:41.0     265   -120    -16    292    293 114.4  -3.1  34150  289.39 0854.75
2009/04/23 12:35:41.1     315   -123     25    339    340 111.4   4.2  34150  289.40 0854.75
2009/04/23 12:35:41.2     295   -112     18    316    317 110.9   3.3  34150  289.39 0854.75
2009/04/23 12:35:41.3     211   -134     44    251    255 122.4  10.1  34154  289.46 0854.74
2009/04/23 12:35:41.4     160   -172    -17    236    237 137.0  -4.1  34152  289.42 0854.74
2009/04/23 12:35:41.5     148   -173    -35    228    231 139.5  -8.8  34154  289.46 0854.74
2009/04/23 12:35:41.6     187   -165    -24    250    252 131.4  -5.6  34152  289.42 0854.74
2009/04/23 12:35:41.7     191   -113    -12    223    224 120.6  -3.2  34152  289.43 0854.74
2009/04/23 12:35:41.8     262   -132    117    294    316 116.9  22.9  34154  289.46 0854.74
2009/04/23 12:35:41.9     122   -194    195    230    301 147.7  44.8  34152  289.44 0854.74
2009/04/23 12:35:42.0      91   -222    211    240    319 157.7  45.8  34154  289.46 0854.74
2009/04/23 12:35:42.1     173   -202     54    267    273 139.5  11.6  34146  289.34 0854.74
2009/04/23 12:35:42.2     175   -382    164    421    451 155.4  22.5  34148  289.36 0854.74
2009/04/23 12:35:42.3     332   -352    222    484    532 136.7  26.4  34150  289.39 0854.74
2009/04/23 12:35:42.4     357   -357    -58    506    510 135.0  -6.6  34152  289.45 0854.74
2009/04/23 12:35:42.5     317   -322    -25    452    453 135.5  -3.2  34144  289.29 0854.74
2009/04/23 12:35:42.6     235   -368     61    437    442 147.4   8.0  34144  289.31 0854.74
2009/04/23 12:35:42.7     172   -303    118    349    369 150.4  18.8  34148  289.37 0854.74
2009/04/23 12:35:42.8     117   -244     23    271    273 154.4   4.9  34152  289.44 0854.74
2009/04/23 12:35:42.9      96   -223    -25    244    246 156.6  -6.0  34152  289.44 0854.74
2009/04/23 12:35:43.0     176   -242   -106    300    319 143.9 -19.5  34154  289.46 0854.74
2009/04/23 12:35:43.1     155   -412      5    441    442 159.3   0.7  34152  289.44 0854.74
2009/04/23 12:35:43.2     106   -498    184    510    543 168.0  19.9  34140  289.24 0854.74
2009/04/23 12:35:43.3     208   -435    227    483    533 154.4  27.1  34150  289.40 0854.74
2009/04/23 12:35:43.4     215   -416    153    469    494 152.7  18.1  34150  289.39 0854.74
2009/04/23 12:35:43.5      77   -379     69    388    395 168.4  10.1  34152  289.42 0854.74
2009/04/23 12:35:43.6     154   -379     -9    410    411 157.9  -1.3  34154  289.46 0854.74
2009/04/23 12:35:43.7     140   -313   -110    343    360 155.9 -22.9  34148  289.38 0854.74
2009/04/23 12:35:43.8     178   -243   -101    302    318 143.7 -23.6  34148  289.37 0854.74
2009/04/23 12:35:43.9      83   -241    -81    256    269 160.9 -17.6  34152  289.42 0854.74
2009/04/23 12:35:44.0     108   -269   -120    291    314 158.1 -28.1  34152  289.42 0854.74
2009/04/23 12:35:44.1       8   -264    -68    265    274 178.2 -14.4  34144  289.31 0854.74
2009/04/23 12:35:44.2      19   -261   -115    262    286 175.8 -29.6  34152  289.44 0854.74
2009/04/23 12:35:44.3     134   -331    -84    358    368 157.9 -13.3  34148  289.38 0854.74
2009/04/23 12:35:44.4     130   -285    -37    314    317 155.5  -6.9  34152  289.44 0854.74
2009/04/23 12:35:44.5     128   -382    -14    404    405 161.4  -2.1  34152  289.44 0854.74
2009/04/23 12:35:44.6     146   -396     22    423    424 159.7   3.0  34150  289.41 0854.74
2009/04/23 12:35:44.7     137   -391      8    415    416 160.6   1.2  34152  289.43 0854.74
2009/04/23 12:35:44.8     129   -362     31    385    387 160.3   4.7  34152  289.42 0854.74
2009/04/23 12:35:45.0     130   -404    -75    425    432 162.1 -10.1  34152  289.44 0854.74
2009/04/23 12:35:45.1     116   -364   -102    383    397 162.3 -15.0  34154  289.47 0854.74
2009/04/23 12:35:45.1      88   -267    -90    282    296 161.7 -22.9  34152  289.42 0854.74
2009/04/23 12:35:45.2      53   -131    -99    142    173 157.7 -42.4  34152  289.43 0854.74
2009/04/23 12:35:45.3      91   -181    -62    203    212 153.3 -21.8  34152  289.45 0854.73
2009/04/23 12:35:45.4     262    -94     18    279    280 109.9   3.8  34152  289.44 0854.73
2009/04/23 12:35:45.6     126    -69   -158    144    213 118.9 -57.1  34152  289.45 0854.73
2009/04/23 12:35:45.7     244   -198    -89    315    327 129.1 -20.5  34152  289.44 0854.73
2009/04/23 12:35:45.8     162   -344     -7    381    382 154.7  -1.2  34152  289.42 0854.73
2009/04/23 12:35:45.9      94   -348    -89    361    372 164.8 -13.9  34156  289.50 0854.73
2009/04/23 12:35:46.0     109   -361    -68    378    385 163.2 -10.2  34152  289.43 0854.73
2009/04/23 12:35:46.1     120   -315    -53    338    343 159.1  -9.0  34148  289.38 0854.73
2009/04/23 12:35:46.2     198   -326    -39    382    384 148.7  -5.9  34150  289.40 0854.73
2009/04/23 12:35:46.3     251   -358    -17    438    439 144.9  -2.2  34150  289.39 0854.73
2009/04/23 12:35:46.4     169   -388    -37    424    426 156.4  -5.1  34150  289.39 0854.73
2009/04/23 12:35:46.5     163   -329     -1    368    369 153.6  -0.2  34152  289.42 0854.73
2009/04/23 12:35:46.6      98   -323    -19    338    339 163.1  -3.3  34152  289.43 0854.73
2009/04/23 12:35:46.7     145   -367    -35    395    397 158.3  -5.1  34152  289.42 0854.73
2009/04/23 12:35:46.8     169   -312    -40    355    358 151.5  -6.5  34152  289.43 0854.73
2009/04/23 12:35:46.9     112   -260     34    284    287 156.6   6.9  34154  289.46 0854.73
2009/04/23 12:35:47.0      81   -286     81    298    309 164.2  15.3  34152  289.42 0854.73
2009/04/23 12:35:47.1      59   -288     -6    295    296 168.4  -1.3  34154  289.47 0854.73
2009/04/23 12:35:47.2      12   -337    -13    338    339 177.9  -2.3  34156  289.50 0854.73
2009/04/23 12:35:47.3      57   -326     10    332    333 170.0   1.8  34148  289.37 0854.73
2009/04/23 12:35:47.4      66   -249    -70    258    268 165.1 -15.2  34156  289.49 0854.73
2009/04/23 12:35:47.5     132   -291    -95    320    334 155.5 -16.6  34152  289.42 0854.73
2009/04/23 12:35:47.6     151   -256    -49    298    303 149.5  -9.3  34150  289.39 0854.73
2009/04/23 12:35:47.7     224   -222    -40    316    319 134.8  -7.2  34152  289.42 0854.73
2009/04/23 12:35:47.8      31   -153    105    157    188 168.5  36.7  34152  289.45 0854.73
2009/04/23 12:35:47.9     -26   -145    106    148    182 190.2  39.3  34156  289.50 0854.73
2009/04/23 12:35:48.0     -37   -155     57    160    169 193.4  20.0  34152  289.45 0854.73
2009/04/23 12:35:48.1     -25   -187     83    189    206 187.8  25.2  34154  289.46 0854.73
2009/04/23 12:35:48.2     -11   -143     49    144    153 184.5  18.9  34152  289.43 0854.73
2009/04/23 12:35:48.3      94   -148      1    176    177 147.7   0.5  34154  289.46 0854.73
2009/04/23 12:35:48.4      74    -96     61    122    136 142.2  28.2  34154  289.46 0854.74
2009/04/23 12:35:48.5       8    -82     -3     83     84 173.8  -2.2  34156  289.50 0854.74
2009/04/23 12:35:48.6     -13    -81    -32     83     88 189.3 -25.9  34156  289.52 0854.74
2009/04/23 12:35:48.7     -57    -11    -19     59     61 258.5 -23.8  34154  289.48 0854.74
2009/04/23 12:35:48.8     -13     21     -1     26     27 327.5  -2.2  34156  289.50 0854.74
2009/04/23 12:35:48.9      26    -26     29     37     47 135.0  42.7  34152  289.45 0854.74
2009/04/23 12:35:49.0     -28    -93     11     98     99 196.9   6.5  34156  289.50 0854.74
2009/04/23 12:35:49.1       0    -80      3     81     82 180.0   2.3  34154  289.46 0854.74
2009/04/23 12:35:49.2      41   -104      9    113    114 158.2   4.9  34156  289.50 0854.74
2009/04/23 12:35:49.3      46   -115     26    125    128 158.1  12.2  34156  289.50 0854.74
2009/04/23 12:35:49.4     110   -103     39    151    157 133.1  14.7  34154  289.48 0854.74
2009/04/23 12:35:49.5     166   -153      9    226    227 132.7   2.5  34152  289.45 0854.74
2009/04/23 12:35:49.6      90   -215     59    234    242 157.3  14.3  34152  289.42 0854.74
2009/04/23 12:35:49.7     105   -141    -25    176    178 143.3  -8.2  34152  289.45 0854.74
2009/04/23 12:35:49.8     102   -135    -16    170    171 142.8  -5.6  34152  289.45 0854.74
2009/04/23 12:35:49.9     169   -217     17    276    277 142.2   3.6  34152  289.44 0854.74
2009/04/23 12:35:50.0     137   -194     45    238    243 144.6  10.8  34154  289.46 0854.74
2009/04/23 12:35:50.1     193   -193     93    273    289 135.0  18.9  34152  289.42 0854.74
2009/04/23 12:35:50.2     213   -187     39    284    287 131.3   8.0  34154  289.46 0854.74
2009/04/23 12:35:50.3     135   -217     13    256    257 148.1   2.9  34154  289.46 0854.74
2009/04/23 12:35:50.4     176   -242     54    300    305 143.9  10.3  34152  289.44 0854.73
2009/04/23 12:35:50.5     183   -221     45    288    292 140.4   9.0  34154  289.46 0854.73
2009/04/23 12:35:50.6     151   -168     53    227    234 138.1  13.2  34156  289.52 0854.73
2009/04/23 12:35:50.7     125   -162     82    205    220 142.4  23.0  34156  289.50 0854.73
2009/04/23 12:35:50.8     161   -136     97    211    232 130.2  26.6  34152  289.45 0854.73
2009/04/23 12:35:50.9     135   -104     83    171    190 127.5  27.4  34152  289.45 0854.73
2009/04/23 12:35:51.0     183   -101    125    210    244 118.9  33.5  34154  289.47 0854.73
2009/04/23 12:35:51.1     131   -151    189    201    275 139.0  48.0  34154  289.47 0854.73
2009/04/23 12:35:51.2      60    -96    159    114    195 147.9  60.8  34158  289.55 0854.73
2009/04/23 12:35:51.3     146   -121    108    190    218 129.6  32.1  34152  289.45 0854.73
2009/04/23 12:35:51.4     211   -134    123    251    279 122.4  28.2  34156  289.49 0854.73
2009/04/23 12:35:51.5     148   -110    111    185    215 126.6  33.5  34156  289.50 0854.73
2009/04/23 12:35:51.6      27   -134    122    137    183 168.4  46.6  34152  289.45 0854.73
2009/04/23 12:35:51.7      25   -146    133    149    199 170.3  46.4  34154  289.48 0854.73
2009/04/23 12:35:51.8      19    -96    190     99    214 168.4  70.6  34160  289.58 0854.73
2009/04/23 12:35:51.9     -77    -93    135    121    181 219.6  53.3  34156  289.52 0854.73
2009/04/23 12:35:52.0     -38   -173    179    178    252 192.5  50.1  34152  289.45 0854.73
2009/04/23 12:35:52.1     -81   -204    235    220    321 201.8  52.1  34154  289.47 0854.73
2009/04/23 12:35:52.2      15    -92    198     94    219 170.2  72.9  34156  289.52 0854.73
2009/04/23 12:35:52.3      28    -45    147     54    156 148.4  79.2  34160  289.57 0854.73
2009/04/23 12:35:52.4       0     11    123     12    123 357.3  90.0  34162  289.60 0854.74
2009/04/23 12:35:52.5       8    -86    122     87    149 174.7  60.6  34158  289.53 0854.74
2009/04/23 12:35:52.6      11    -43     85     45     96 165.7  69.8  34158  289.53 0854.74
2009/04/23 12:35:52.7      81    -28     99     86    131 109.5  54.3  34156  289.50 0854.74
2009/04/23 12:35:52.8      58    -91     76    109    132 147.5  38.0  34156  289.52 0854.74
2009/04/23 12:35:52.9      24     -1     81     25     84  94.4  81.8  34158  289.53 0854.74
2009/04/23 12:35:53.0       1     13     53     14     54   8.0  84.9  34160  289.57 0854.74
2009/04/23 12:35:53.1     -27    -67     75     73    104 201.8  50.1  34158  289.55 0854.74
2009/04/23 12:35:53.2     -66    -81     59    105    120 219.2  31.9  34152  289.45 0854.74
2009/04/23 12:35:53.3     -37    -88     14     96     98 203.2   8.5  34152  289.45 0854.74
2009/04/23 12:35:53.4     -26    -69     -9     74     75 200.9  -7.2  34156  289.52 0854.74
2009/04/23 12:35:53.5     -14    -39     -6     42     43 200.0  -9.3  34156  289.52 0854.74
2009/04/23 12:35:53.6     -42    -26    -17     50     52 238.5 -23.6  34158  289.55 0854.74
2009/04/23 12:35:53.7     -54    -34    -26     65     70 237.5 -27.4  34156  289.50 0854.74
2009/04/23 12:35:53.8     -58     15    -24     61     65 285.0 -27.4  34158  289.53 0854.74
2009/04/23 12:35:53.9    -108     69     15    129    130 302.4   6.9  34154  289.48 0854.74
2009/04/23 12:35:54.0    -149     55      5    160    161 290.4   2.1  34156  289.52 0854.74
2009/04/23 12:35:54.1    -180     13      8    181    182 274.4   2.8  34162  289.60 0854.74
2009/04/23 12:35:54.2    -129     63     -7    144    145 296.2  -3.1  34162  289.60 0854.74
2009/04/23 12:35:54.3    -147     69    -50    163    170 295.3 -22.3  34162  289.62 0854.74
2009/04/23 12:35:54.4    -144     48    -43    153    158 288.6 -20.4  34162  289.62 0854.72
2009/04/23 12:35:54.5    -164     33    -52    168    176 281.5 -17.3  34162  289.62 0854.72
2009/04/23 12:35:54.6    -149    147     78    210    224 314.7  21.0  34154  289.46 0854.72
2009/04/23 12:35:54.7    -131    134     71    188    200 315.7  21.5  34158  289.53 0854.72
2009/04/23 12:35:54.8    -104     97     96    143    172 313.2  36.7  34154  289.48 0854.72
2009/04/23 12:35:54.9     -75    213     29    226    228 340.6   7.5  34154  289.48 0854.72
2009/04/23 12:35:55.0    -106    223     88    248    263 334.5  20.0  34154  289.46 0854.72
2009/04/23 12:35:55.1    -187    207    130    280    308 317.9  27.1  34164  289.63 0854.72
2009/04/23 12:35:55.2     -89    223    165    241    292 338.2  37.6  34164  289.63 0854.72
2009/04/23 12:35:55.3     -47    146    104    154    185 342.2  37.3  34164  289.65 0854.72
2009/04/23 12:35:55.4     -39     99    137    107    173 338.2  57.9  34156  289.52 0854.72
2009/04/23 12:35:55.5     -77    106    163    132    209 323.9  56.6  34158  289.55 0854.72
2009/04/23 12:35:55.6      11    103    130    104    166   6.2  56.9  34170  289.74 0854.72
2009/04/23 12:35:55.7     -66     82     79    106    132 321.3  40.7  34168  289.72 0854.72
2009/04/23 12:35:55.8      -9    126     98    127    160 355.5  41.7  34162  289.62 0854.72
2009/04/23 12:35:55.9       0    113     82    114    140 359.5  39.5  34180  289.92 0854.72
2009/04/23 12:35:56.0     -14     58    101     60    117 345.7  66.2  34178  289.89 0854.72
2009/04/23 12:35:56.1      45     29    120     54    131  57.5  74.0  34168  289.70 0854.72
2009/04/23 12:35:56.2      29      0     94     30     98  90.0  81.2  34170  289.74 0854.72
2009/04/23 12:35:56.3      43    -33     53     55     76 127.8  50.0  34172  289.77 0854.72
2009/04/23 12:35:56.4      45      3     54     46     70  85.6  56.3  34168  289.72 0854.72
2009/04/23 12:35:56.5     -40     55     86     69    110 324.0  56.4  34172  289.79 0854.72
2009/04/23 12:35:56.6    -116     26     72    119    139 282.8  34.0  34184  289.97 0854.72
2009/04/23 12:35:56.7     -80     50     90     95    130 302.0  48.5  34184  289.99 0854.72
2009/04/23 12:35:56.8     -88     88     56    125    136 314.9  25.7  34182  289.96 0854.72
2009/04/23 12:35:56.9    -168     84     54    188    196 296.6  16.3  34182  289.94 0854.72
2009/04/23 12:35:57.0    -211    104     27    236    238 296.2   6.7  34188  290.03 0854.72
2009/04/23 12:35:57.1    -206    175     18    271    272 310.4   3.9  34196  290.17 0854.72
2009/04/23 12:35:57.2    -223    126     33    257    260 299.5   7.5  34184  289.97 0854.72
2009/04/23 12:35:57.3    -161    127     -8    206    207 308.2  -2.3  34190  290.08 0854.72
2009/04/23 12:35:57.4     -98     41    -13    107    108 292.6  -7.2  34184  289.97 0854.72
2009/04/23 12:35:57.5     -75    -36      1     84     85 244.6   0.8  34178  289.89 0854.72
2009/04/23 12:35:57.6    -106   -101    -40    147    153 226.4 -15.4  34176  289.85 0854.72
2009/04/23 12:35:57.7    -202   -137   -148    245    286 235.8 -38.4  34166  289.68 0854.72
2009/04/23 12:35:57.8    -138   -220   -241    260    354 212.1 -52.2  34158  289.53 0854.72
2009/04/23 12:35:57.9    -188   -268   -224    328    397 215.1 -42.0  34162  289.59 0854.72
2009/04/23 12:35:58.0      79   -389     -8    397    398 168.5  -1.3  34182  289.93 0854.72
2009/04/23 12:35:58.1      -8   -343      4    344    345 181.4   0.7  34174  289.82 0854.72
2009/04/23 12:35:58.2     154   -220     96    269    285 144.9  20.4  34198  290.20 0854.72
2009/04/23 12:35:58.3     200   -276     35    341    343 144.1   6.0  34170  289.74 0854.72
2009/04/23 12:35:58.4     238   -184     47    301    305 127.8   9.0  34164  289.63 0854.71
2009/04/23 12:35:58.5     188   -133    182    231    294 125.3  42.2  34168  289.70 0854.71
2009/04/23 12:35:58.6      63    -63    198     90    217 135.0  74.0  34180  289.92 0854.71
2009/04/23 12:35:58.7      28   -101    197    105    223 164.4  69.6  34170  289.75 0854.71
2009/04/23 12:35:58.8       9   -108    204    109    231 175.1  69.8  34168  289.72 0854.71
2009/04/23 12:35:58.9     -16   -160    155    161    223 185.8  49.2  34172  289.77 0854.71
2009/04/23 12:35:59.0      30   -174    153    177    233 170.2  45.4  34168  289.70 0854.71
2009/04/23 12:35:59.1     167   -166    125    236    267 134.8  30.2  34172  289.76 0854.71
2009/04/23 12:35:59.2     118   -165    134    204    244 144.4  36.5  34168  289.70 0854.71
2009/04/23 12:35:59.3      69   -265    131    274    303 165.3  27.3  34160  289.56 0854.71
2009/04/23 12:35:59.4      37   -208    102    212    235 169.8  27.4  34162  289.60 0854.71
2009/04/23 12:35:59.5      65   -199     98    210    231 161.7  27.1  34160  289.57 0854.71
2009/04/23 12:35:59.6      90   -228     53    246    252 158.4  12.2  34158  289.54 0854.71
2009/04/23 12:35:59.7     -53   -244     58    250    257 192.4  13.1  34160  289.58 0854.71
2009/04/23 12:35:59.8     -55   -297     71    303    312 190.5  13.2  34162  289.59 0854.71
2009/04/23 12:35:59.9    -106   -264    128    285    312 201.9  25.8  34156  289.49 0854.71
2009/04/23 12:36:00.0       2   -186    108    187    215 179.1  32.4  34160  289.58 0854.71
2009/04/23 12:36:00.1      25   -192    148    194    244 172.4  41.4  34162  289.62 0854.71
2009/04/23 12:36:00.2      10   -215    212    216    302 177.1  49.9  34160  289.58 0854.71
2009/04/23 12:36:00.3     -85   -279    163    292    334 197.0  31.5  34160  289.56 0854.71
2009/04/23 12:36:00.4    -149   -297    118    333    353 206.7  20.4  34162  289.59 0854.70
2009/04/23 12:36:00.5     -83   -226     53    242    248 200.3  12.4  34160  289.58 0854.70
2009/04/23 12:36:00.6      31   -185     20    188    190 170.2   6.1  34162  289.60 0854.70
2009/04/23 12:36:00.7      47   -130    -27    139    142 160.0 -11.3  34162  289.62 0854.70
2009/04/23 12:36:00.8      81   -127    -41    151    157 147.4 -15.2  34162  289.60 0854.70
2009/04/23 12:36:00.9     103   -124    -47    162    168 140.4 -21.0  34160  289.58 0854.70
2009/04/23 12:36:01.0      79   -162    -58    181    190 154.1 -23.3  34162  289.62 0854.70
2009/04/23 12:36:01.1      85   -158     15    180    181 151.7   4.9  34164  289.65 0854.70
2009/04/23 12:36:01.2     143   -252     57    290    296 150.4  11.1  34164  289.64 0854.70
2009/04/23 12:36:01.3     184   -256     41    316    319 144.2   7.5  34162  289.61 0854.70
2009/04/23 12:36:01.4     135   -264     25    297    299 152.8   5.0  34162  289.61 0854.70
2009/04/23 12:36:01.5     175   -370     65    410    416 154.7   9.0  34158  289.53 0854.70
2009/04/23 12:36:01.6     249   -352     67    432    438 144.8   8.9  34156  289.51 0854.70
2009/04/23 12:36:01.7     144   -305    189    338    387 154.6  31.5  34156  289.52 0854.70
2009/04/23 12:36:01.8     182   -282    153    336    369 147.2  26.2  34156  289.52 0854.70
2009/04/23 12:36:01.9     273   -174    123    324    346 122.5  21.8  34162  289.59 0854.70
2009/04/23 12:36:02.0      96   -185    175    209    272 152.4  43.8  34160  289.58 0854.70
2009/04/23 12:36:02.1     178   -138    181    226    289 127.8  42.8  34162  289.59 0854.70
2009/04/23 12:36:02.2     148   -128    169    196    258 130.9  45.1  34164  289.63 0854.70
2009/04/23 12:36:02.3     159   -115    188    197    272 126.0  48.7  34164  289.64 0854.70
2009/04/23 12:36:02.4     109   -231    215    256    334 154.7  44.3  34158  289.53 0854.70
2009/04/23 12:36:02.5     142   -259    134    296    324 151.3  26.2  34158  289.54 0854.70
2009/04/23 12:36:02.6     139   -225    190    265    326 148.3  39.1  34160  289.56 0854.70
2009/04/23 12:36:02.7      89   -116    191    147    241 142.6  58.5  34154  289.46 0854.70
2009/04/23 12:36:02.8      12   -138    181    139    228 174.7  58.5  34160  289.57 0854.70
2009/04/23 12:36:02.9       0    -90    148     91    173 180.5  65.1  34162  289.60 0854.70
2009/04/23 12:36:03.0      18     59    121     62    135  17.8  71.0  34164  289.65 0854.70
2009/04/23 12:36:03.1      54    -49    120     73    140 132.2  66.2  34166  289.69 0854.70
2009/04/23 12:36:03.2     -27     17     92     33     97 302.5  80.7  34170  289.74 0854.70
2009/04/23 12:36:03.3      31     10     66     33     73  71.4  72.8  34164  289.65 0854.70
2009/04/23 12:36:03.4      42     35     69     55     88  50.4  56.4  34162  289.62 0854.70
2009/04/23 12:36:03.5      67     13     56     69     88  78.5  43.7  34162  289.62 0854.70
2009/04/23 12:36:03.6      45     50     43     68     80  42.3  35.5  34162  289.60 0854.70
2009/04/23 12:36:03.7      37     90     21     98    101  22.7  12.2  34162  289.62 0854.70
2009/04/23 12:36:03.8      27    101     57    105    119  15.1  31.3  34160  289.58 0854.70
2009/04/23 12:36:03.9      46    106     58    116    129  23.6  28.7  34162  289.62 0854.70
2009/04/23 12:36:04.0      56    105    107    120    160  28.1  46.4  34162  289.62 0854.70
2009/04/23 12:36:04.1      18     68     85     71    110  15.1  56.3  34168  289.70 0854.70
2009/04/23 12:36:04.2       5     60     96     61    113   5.3  64.7  34166  289.67 0854.70
2009/04/23 12:36:04.3      44     82    107     94    142  28.5  54.2  34162  289.62 0854.70
2009/04/23 12:36:04.4      87    128    130    155    202  34.2  44.3  34168  289.72 0854.69
2009/04/23 12:36:04.5      81    169     78    188    203  25.6  23.6  34162  289.62 0854.69
2009/04/23 12:36:04.6      31    152     75    156    173  11.6  27.3  34172  289.77 0854.69
2009/04/23 12:36:04.7     -28    188     29    191    194 351.3   8.8  34166  289.69 0854.69
2009/04/23 12:36:04.8       2    168    -55    169    178   1.0 -18.1  34168  289.70 0854.69
2009/04/23 12:36:04.9      63    172     14    184    185  20.3   4.6  34170  289.75 0854.69
2009/04/23 12:36:05.0      57    182     12    191    192  17.6   3.8  34170  289.74 0854.69
2009/04/23 12:36:05.1     -36    291    -16    294    295 352.9  -3.2  34160  289.58 0854.69
2009/04/23 12:36:05.2     153    321    -45    356    359  25.6  -7.2  34162  289.62 0854.69
2009/04/23 12:36:05.3     159    204     47    259    264  37.9  10.3  34164  289.64 0854.69
2009/04/23 12:36:05.4     181     81    174    199    264  65.8  45.6  34178  289.88 0854.69
2009/04/23 12:36:05.5     121     57    194    134    235  64.8  62.1  34182  289.94 0854.69
2009/04/23 12:36:05.6      -5     57    171     58    180 354.7  81.2  34186  290.01 0854.69
2009/04/23 12:36:05.7     -33     -6    137     34    141 258.6  86.4  34188  290.04 0854.69
2009/04/23 12:36:05.8     109     56    182    123    219  62.9  62.7  34186  290.02 0854.69
2009/04/23 12:36:05.9     -59   -148    127    160    204 201.8  42.4  34176  289.85 0854.69
2009/04/23 12:36:06.0    -196    -27    193    198    276 262.1  49.2  34176  289.85 0854.69
2009/04/23 12:36:06.1     -98   -181    131    207    244 208.5  35.5  34162  289.61 0854.69
2009/04/23 12:36:06.2    -105   -240    123    263    290 203.7  27.1  34162  289.61 0854.69
2009/04/23 12:36:06.3    -139   -225    147    265    303 211.6  31.4  34160  289.56 0854.69
2009/04/23 12:36:06.4    -205   -169     67    266    275 230.5  14.2  34160  289.56 0854.70
2009/04/23 12:36:06.5    -209   -202     14    291    292 226.0   2.8  34162  289.59 0854.70
2009/04/23 12:36:06.6    -204   -169     39    266    269 230.4   8.5  34168  289.70 0854.70
2009/04/23 12:36:06.8    -245   -177     91    303    317 234.1  16.8  34172  289.78 0854.70
2009/04/23 12:36:06.9     -93    -93    123    132    180 225.2  47.9  34168  289.72 0854.70
2009/04/23 12:36:06.9    -238    -73     69    250    260 252.9  15.6  34180  289.92 0854.70
2009/04/23 12:36:07.0    -325   -153     86    360    371 244.7  13.5  34180  289.91 0854.70
2009/04/23 12:36:07.1    -294   -258    135    392    415 228.7  19.1  34164  289.63 0854.70
2009/04/23 12:36:07.2    -237   -315    123    395    414 217.0  17.3  34164  289.63 0854.70
2009/04/23 12:36:07.3    -221   -219     67    312    320 225.3  12.1  34162  289.59 0854.70
2009/04/23 12:36:07.4    -128   -104    184    165    247 230.9  53.5  34162  289.62 0854.71
2009/04/23 12:36:07.5      15   -197    111    198    226 175.5  31.4  34170  289.75 0854.71
2009/04/23 12:36:07.6    -101   -301    112    318    337 198.7  20.1  34166  289.69 0854.71
2009/04/23 12:36:07.7      26   -293    126    295    320 174.9  24.5  34166  289.66 0854.71
2009/04/23 12:36:07.8    -115   -321     40    342    345 199.7   6.7  34164  289.65 0854.71
2009/04/23 12:36:07.9    -120   -328     61    350    356 200.2   9.9  34168  289.71 0854.71
2009/04/23 12:36:08.0    -102   -308     59    325    331 198.3  10.4  34164  289.64 0854.71
2009/04/23 12:36:08.1    -100   -298    133    315    341 198.7  24.3  34166  289.67 0854.71
2009/04/23 12:36:08.2     -61   -314    165    321    360 191.1  29.3  34170  289.74 0854.71
2009/04/23 12:36:08.3     -25   -269    120    271    296 185.4  25.2  34166  289.66 0854.71
2009/04/23 12:36:08.4      21   -156    140    158    211 172.0  46.2  34166  289.69 0854.71
2009/04/23 12:36:08.5      33   -189    138    192    236 170.0  39.3  34166  289.67 0854.71
2009/04/23 12:36:08.6     -17   -231    115    232    258 184.4  28.2  34166  289.66 0854.71
2009/04/23 12:36:08.7      57   -155    132    166    212 159.7  43.0  34164  289.65 0854.71
2009/04/23 12:36:08.8     -66   -183    182    195    266 200.0  47.9  34166  289.66 0854.71
2009/04/23 12:36:08.9    -188   -207    101    280    297 222.3  20.9  34168  289.70 0854.71
2009/04/23 12:36:09.0    -172   -198    101    263    281 221.0  22.0  34168  289.70 0854.71
2009/04/23 12:36:09.1    -104   -161    110    192    221 213.0  32.7  34166  289.67 0854.71
2009/04/23 12:36:09.2     -45   -232     96    237    255 191.1  23.1  34168  289.70 0854.71
2009/04/23 12:36:09.3    -110   -290     -1    311    312 200.9  -0.4  34168  289.70 0854.71
2009/04/23 12:36:09.4     -65   -325     46    332    336 191.3   7.9  34168  289.71 0854.71
2009/04/23 12:36:09.5    -144   -354    -40    383    386 202.2  -6.0  34160  289.57 0854.71
2009/04/23 12:36:09.6     -70   -357     34    364    366 191.2   5.4  34162  289.62 0854.71
2009/04/23 12:36:09.7     -98   -291    -16    308    309 198.7  -3.1  34168  289.70 0854.71
2009/04/23 12:36:09.8    -132    -27   -155    135    205 258.1 -59.0  34164  289.63 0854.71
2009/04/23 12:36:09.9    -282   -136    -82    314    325 244.2 -14.8  34156  289.51 0854.71
2009/04/23 12:36:10.0    -440     13   -173    441    473 271.7 -26.9  34162  289.60 0854.71
2009/04/23 12:36:10.1    -366     20   -114    367    385 273.2 -17.3  34162  289.62 0854.71
2009/04/23 12:36:10.2    -339     52    -99    343    358 278.8 -16.2  34164  289.65 0854.71
2009/04/23 12:36:10.3    -275     41      3    279    280 278.6   0.7  34164  289.64 0854.71
2009/04/23 12:36:10.4    -261    -94    -92    278    293 250.1 -18.3  34160  289.56 0854.71
2009/04/23 12:36:10.5    -173     -7    -84    174    193 267.6 -31.8  34164  289.65 0854.71
2009/04/23 12:36:10.6    -154     34    -49    158    166 282.6 -17.3  34164  289.63 0854.71
2009/04/23 12:36:10.7     -51    -72   -108     89    139 215.6 -60.8  34166  289.67 0854.71
2009/04/23 12:36:10.8     -21   -174    -69    176    189 187.1 -26.9  34162  289.62 0854.71
2009/04/23 12:36:10.9    -115   -162     66    199    210 215.4  18.4  34164  289.63 0854.71
2009/04/23 12:36:11.1    -123   -102     77    161    178 230.4  27.3  34166  289.69 0854.71
2009/04/23 12:36:11.1     -70   -180      7    194    195 201.2   2.1  34164  289.65 0854.71
2009/04/23 12:36:11.3    -160   -161    -41    228    232 224.8 -10.3  34162  289.62 0854.71
2009/04/23 12:36:11.3    -244   -124    -70    274    283 243.0 -14.5  34166  289.68 0854.71
2009/04/23 12:36:11.5    -218    -97    -61    239    247 245.8 -14.5  34172  289.78 0854.71
2009/04/23 12:36:11.6    -171    -90    -13    194    195 242.2  -3.9  34170  289.75 0854.71
2009/04/23 12:36:11.7    -141    -97    -15    172    173 235.6  -5.2  34174  289.80 0854.71
2009/04/23 12:36:11.8    -255    -87     45    270    274 251.2   9.5  34174  289.81 0854.71
2009/04/23 12:36:11.9    -262    -90     46    278    282 250.9   9.5  34176  289.83 0854.71
2009/04/23 12:36:12.0    -226   -137     46    265    270 238.7   9.9  34178  289.86 0854.71
2009/04/23 12:36:12.1    -289   -149    117    326    346 242.7  20.4  34180  289.91 0854.71
2009/04/23 12:36:12.2    -316   -124     53    340    345 248.6   9.0  34174  289.82 0854.71
2009/04/23 12:36:12.3    -229   -209     71    311    320 227.7  12.9  34170  289.75 0854.71
2009/04/23 12:36:12.4    -138   -303    -16    334    335 204.5  -2.8  34168  289.72 0854.71
2009/04/23 12:36:12.5    -129   -269    -29    299    301 205.6  -5.6  34170  289.75 0854.71
2009/04/23 12:36:12.6    -139   -419      9    442    443 198.4   1.2  34170  289.73 0854.71
2009/04/23 12:36:12.7    -222   -360    -72    424    431 211.7  -9.7  34166  289.68 0854.71
2009/04/23 12:36:12.8    -184   -316    -66    366    372 210.2 -10.2  34170  289.74 0854.71
2009/04/23 12:36:12.9    -172   -364    -35    403    405 205.3  -5.1  34170  289.73 0854.71
2009/04/23 12:36:13.0    -161   -341    -47    378    382 205.3  -7.2  34170  289.74 0854.71
2009/04/23 12:36:13.1    -144   -503    -55    524    528 196.0  -6.1  34166  289.67 0854.71
2009/04/23 12:36:13.2     -86   -425     63    434    439 191.6   8.3  34164  289.65 0854.71
2009/04/23 12:36:13.3    -191   -387     52    432    436 206.3   6.9  34160  289.58 0854.71
2009/04/23 12:36:13.4    -117   -361    110    380    396 198.0  16.1  34168  289.72 0854.71
2009/04/23 12:36:13.5     -31   -408     98    410    422 184.4  13.5  34162  289.60 0854.73
2009/04/23 12:36:13.6    -109   -337     -8    355    356 197.9  -1.4  34160  289.57 0854.73
2009/04/23 12:36:13.7    -187   -194     38    270    273 223.9   8.0  34166  289.66 0854.73
2009/04/23 12:36:13.8    -158   -179    -17    240    241 221.4  -4.1  34162  289.61 0854.73
2009/04/23 12:36:13.9    -136   -288     46    319    323 205.3   8.3  34168  289.70 0854.73
2009/04/23 12:36:14.0     -72   -242    101    253    272 196.7  23.0  34168  289.70 0854.73
2009/04/23 12:36:14.1    -105   -302     42    320    323 199.2   7.6  34168  289.70 0854.73
2009/04/23 12:36:14.2     -23   -278     93    280    296 184.9  18.5  34168  289.70 0854.73
2009/04/23 12:36:14.3     -13   -430    130    431    451 181.8  16.8  34162  289.61 0854.73
2009/04/23 12:36:14.4    -104   -490    171    502    531 192.1  18.8  34168  289.72 0854.73
2009/04/23 12:36:14.5    -108   -452    167    465    494 193.5  20.6  34166  289.67 0854.73
2009/04/23 12:36:14.6     -70   -475    143    481    502 188.4  16.6  34162  289.59 0854.73
2009/04/23 12:36:14.7    -135   -494     79    513    520 195.3   8.8  34166  289.67 0854.73
2009/04/23 12:36:14.8    -139   -457     42    478    480 196.9   5.1  34168  289.71 0854.73
2009/04/23 12:36:14.9    -187   -527    -21    560    561 199.5  -2.2  34166  289.67 0854.73
2009/04/23 12:36:15.0    -175   -523     16    552    553 198.6   1.7  34166  289.68 0854.73
2009/04/23 12:36:15.1     -16   -461     48    462    465 182.0   6.0  34164  289.65 0854.73
2009/04/23 12:36:15.2      14   -483     37    484    486 178.3   4.4  34162  289.62 0854.73
2009/04/23 12:36:15.3      -9   -481     12    482    483 181.2   1.5  34166  289.67 0854.73
2009/04/23 12:36:15.4      36   -436     -2    438    439 175.2  -0.4  34166  289.66 0854.73
2009/04/23 12:36:15.5     -18   -461    -17    462    463 182.3  -2.1  34164  289.65 0854.73
2009/04/23 12:36:15.6     -75   -442     87    449    458 189.7  11.0  34164  289.65 0854.73
2009/04/23 12:36:15.7     -31   -419     74    421    428 184.2  10.0  34166  289.66 0854.73
2009/04/23 12:36:15.8     -17   -390    184    391    432 182.6  27.1  34166  289.66 0854.73
2009/04/23 12:36:15.9    -129   -397    190    418    459 198.0  26.2  34158  289.53 0854.73
2009/04/23 12:36:16.0      44   -233    240    238    338 169.3  50.1  34164  289.63 0854.73
2009/04/23 12:36:16.1     163    -52    261    172    312 107.9  63.6  34170  289.75 0854.73
2009/04/23 12:36:16.2      40    -77    179     88    199 152.4  72.1  34164  289.65 0854.73
2009/04/23 12:36:16.3      -8     44    179     45    184 349.3  85.9  34168  289.72 0854.73
2009/04/23 12:36:16.4     -87     22    205     90    223 284.2  75.0  34168  289.70 0854.73
2009/04/23 12:36:16.5    -164     67    156    178    236 292.4  45.8  34170  289.74 0854.73
2009/04/23 12:36:16.6    -189    182     64    263    271 314.0  13.7  34162  289.59 0854.73
2009/04/23 12:36:16.7     -55    180    130    189    229 343.1  37.6  34166  289.69 0854.73
2009/04/23 12:36:16.8      56    233    239    240    338  13.6  50.1  34166  289.66 0854.73
2009/04/23 12:36:16.9      -1     76    148     77    166 359.1  70.8  34158  289.53 0854.73
2009/04/23 12:36:17.0       5    -93    122     94    154 176.4  58.5  34166  289.69 0854.73
2009/04/23 12:36:17.1    -130    -14     69    131    148 263.8  30.3  34166  289.69 0854.73
2009/04/23 12:36:17.2     -82   -189    123    207    240 203.6  33.5  34170  289.74 0854.73
2009/04/23 12:36:17.3    -153   -294    116    332    352 207.5  19.3  34166  289.69 0854.73
2009/04/23 12:36:17.4    -159   -365     71    399    406 203.6  10.1  34170  289.75 0854.73
2009/04/23 12:36:17.5    -216   -404     77    459    466 208.1   9.6  34162  289.61 0854.73
2009/04/23 12:36:17.6    -195   -332    118    386    404 210.5  17.1  34166  289.69 0854.73
2009/04/23 12:36:17.7    -206   -205    114    291    312 225.2  22.4  34166  289.66 0854.73
2009/04/23 12:36:17.8    -204   -188    159    278    320 227.3  32.4  34164  289.64 0854.73
2009/04/23 12:36:17.9    -146   -263    204    301    363 209.0  37.4  34164  289.64 0854.73
2009/04/23 12:36:18.0      27   -369    260    370    452 175.7  38.6  34164  289.65 0854.73
2009/04/23 12:36:18.1      99   -227    272    248    368 156.4  53.0  34162  289.59 0854.73
2009/04/23 12:36:18.2      61   -181    210    192    284 161.3  53.0  34160  289.58 0854.73
2009/04/23 12:36:18.3      76    -60    193     97    216 128.2  71.4  34166  289.67 0854.73
2009/04/23 12:36:18.4     154   -128    268    201    335 129.6  59.4  34170  289.75 0854.73
2009/04/23 12:36:18.5      79    -79    195    112    224 135.0  67.7  34170  289.75 0854.73
2009/04/23 12:36:18.6     132   -210    208    249    324 147.9  44.1  34168  289.71 0854.73
2009/04/23 12:36:18.7      34   -248    227    251    338 172.2  47.0  34166  289.68 0854.73
2009/04/23 12:36:18.8      39   -249    135    253    286 171.1  30.3  34166  289.66 0854.73
2009/04/23 12:36:18.9    -152   -274    201    314    372 209.0  35.6  34162  289.62 0854.73
2009/04/23 12:36:19.0     -80   -297    133    308    335 195.2  24.8  34164  289.63 0854.73
2009/04/23 12:36:19.1     -24   -223    187    225    292 186.2  43.8  34168  289.70 0854.73
2009/04/23 12:36:19.2     -87   -273    140    287    319 197.8  27.9  34166  289.66 0854.73
2009/04/23 12:36:19.3     -89   -292    147    306    339 196.9  27.3  34166  289.69 0854.73
2009/04/23 12:36:19.4     -66   -367     89    373    384 190.2  13.5  34166  289.69 0854.73
2009/04/23 12:36:19.5      52   -369    127    373    395 171.9  18.8  34164  289.65 0854.73
2009/04/23 12:36:19.6      53   -261     52    267    273 168.4  11.1  34166  289.68 0854.73
2009/04/23 12:36:19.7     118   -233     96    262    279 153.0  21.0  34166  289.66 0854.73
2009/04/23 12:36:19.8     -42   -386    181    389    429 186.2  26.9  34164  289.65 0854.73
2009/04/23 12:36:19.9    -123   -369    264    390    470 198.5  37.4  34164  289.63 0854.73
2009/04/23 12:36:20.0    -145   -307    134    340    365 205.3  22.8  34166  289.67 0854.73
2009/04/23 12:36:20.1     -39   -288     95    291    307 187.8  18.1  34162  289.61 0854.73
2009/04/23 12:36:20.2     -38   -268    124    271    298 188.1  26.2  34160  289.56 0854.73
2009/04/23 12:36:20.3     -96   -290    222    306    378 198.5  39.7  34164  289.65 0854.73
2009/04/23 12:36:20.4       4   -386    215    387    442 179.4  31.4  34164  289.65 0854.73
2009/04/23 12:36:20.5     -35   -408    380    410    559 185.0  47.6  34162  289.61 0854.73
2009/04/23 12:36:20.6     -35   -426    357    428    557 184.7  44.0  34166  289.67 0854.73
2009/04/23 12:36:20.7       6   -398    298    399    498 179.0  40.4  34166  289.66 0854.73
2009/04/23 12:36:20.8     -46   -435    336    438    552 186.1  41.3  34166  289.66 0854.73
2009/04/23 12:36:20.9     -25   -333    266    334    426 184.4  42.7  34162  289.60 0854.73
2009/04/23 12:36:21.0      32   -157    175    161    237 168.4  52.5  34166  289.67 0854.73
2009/04/23 12:36:21.1    -143   -203    229    249    338 215.2  47.6  34164  289.64 0854.73
2009/04/23 12:36:21.2    -136   -303    313    333    457 204.2  48.0  34168  289.72 0854.73
2009/04/23 12:36:21.3    -131   -390    310    412    515 198.6  40.7  34170  289.73 0854.73
2009/04/23 12:36:21.4     -59   -383    289    388    483 188.9  40.4  34164  289.65 0854.73
2009/04/23 12:36:21.5      48   -447    275    450    527 173.8  34.3  34162  289.61 0854.71
2009/04/23 12:36:21.6     -11   -453     88    454    463 181.5  11.0  34162  289.60 0854.71
2009/04/23 12:36:21.7      48   -373    262    377    459 172.7  38.0  34162  289.61 0854.71
2009/04/23 12:36:21.8       9   -556    173    557    584 179.0  17.3  34160  289.56 0854.71
2009/04/23 12:36:21.9      -4   -388    273    389    475 180.7  38.5  34164  289.65 0854.71
2009/04/23 12:36:22.0     -12   -588    160    589    611 181.3  15.2  34166  289.68 0854.71
2009/04/23 12:36:22.1      57   -658    120    661    672 175.0  10.3  34162  289.61 0854.71
2009/04/23 12:36:22.2      17   -533    173    534    562 178.1  18.0  34164  289.63 0854.71
2009/04/23 12:36:22.3      62   -493    218    497    542 172.8  25.2  34164  289.63 0854.71
2009/04/23 12:36:22.4      93   -470    244    480    538 168.8  29.2  34160  289.57 0854.71
2009/04/23 12:36:22.5     300   -131    255    328    415 113.6  41.7  34162  289.60 0854.71
2009/04/23 12:36:22.6     219   -154    248    268    365 125.1  47.7  34168  289.72 0854.71
2009/04/23 12:36:22.7     142   -142    131    201    239 135.0  36.5  34162  289.60 0854.71
2009/04/23 12:36:22.8      33   -211     46    214    219 171.1  12.2  34162  289.60 0854.71
2009/04/23 12:36:22.9     -17   -228      4    229    230 184.5   1.0  34162  289.62 0854.71
2009/04/23 12:36:23.0     -81   -191    149    208    255 203.2  39.5  34164  289.64 0854.71
2009/04/23 12:36:23.1     -76    -48    168     91    191 237.6  69.3  34166  289.69 0854.71
2009/04/23 12:36:23.2    -145    -19     71    147    163 262.5  27.8  34164  289.65 0854.71
2009/04/23 12:36:23.3    -159    -23      9    161    162 261.6   3.3  34166  289.67 0854.71
2009/04/23 12:36:23.4    -122    -13    -42    123    131 263.8 -19.1  34164  289.65 0854.71
2009/04/23 12:36:23.5    -155   -122    -26    198    200 231.8  -7.5  34166  289.67 0854.71
2009/04/23 12:36:23.6    -181    -51    -10    189    190 254.1  -3.1  34164  289.65 0854.71
2009/04/23 12:36:23.7    -121   -105     -6    161    162 229.1  -2.2  34164  289.65 0854.71
2009/04/23 12:36:23.8    -240   -218    -66    325    332 227.7 -11.5  34166  289.69 0854.71
2009/04/23 12:36:23.9    -245   -221     75    331    340 227.9  12.8  34164  289.65 0854.71
2009/04/23 12:36:24.0    -329   -188     23    380    381 240.3   3.5  34172  289.77 0854.71
2009/04/23 12:36:24.1    -486   -114   -131    500    517 256.7 -14.7  34166  289.69 0854.71
2009/04/23 12:36:24.2    -517    -33    -70    519    524 266.3  -7.7  34168  289.72 0854.71
2009/04/23 12:36:24.3    -365   -105    -14    380    381 253.9  -2.2  34172  289.77 0854.71
2009/04/23 12:36:24.4    -410   -122     -5    428    429 253.4  -0.7  34174  289.82 0854.71
2009/04/23 12:36:24.5    -346   -241     -3    422    423 235.2  -0.5  34170  289.73 0854.71
2009/04/23 12:36:24.6    -163   -263    145    310    342 211.9  27.1  34172  289.77 0854.71
2009/04/23 12:36:24.7    -354   -323     89    480    489 227.7  10.6  34166  289.67 0854.71
2009/04/23 12:36:24.8    -470   -299     -6    558    559 237.5  -0.7  34168  289.72 0854.71
2009/04/23 12:36:24.9    -217   -258    -80    338    348 220.1 -13.4  34168  289.72 0854.71
2009/04/23 12:36:25.0    -161   -385    -10    418    419 202.7  -1.4  34164  289.65 0854.71
2009/04/23 12:36:25.1    -113   -418     48    434    437 195.2   6.4  34164  289.65 0854.71
2009/04/23 12:36:25.2    -239   -422     46    486    489 209.5   5.4  34166  289.66 0854.71
2009/04/23 12:36:25.3    -187   -346     -1    394    395 208.4  -0.3  34168  289.71 0854.71
2009/04/23 12:36:25.4    -221   -350     51    414    418 212.3   7.1  34166  289.66 0854.71
2009/04/23 12:36:25.5    -137   -396     26    420    421 199.1   3.6  34166  289.66 0854.71
2009/04/23 12:36:25.6      53   -513    176    516    546 174.0  18.9  34170  289.74 0854.71
2009/04/23 12:36:25.7     138   -697    254    711    755 168.8  20.6  34162  289.60 0854.71
2009/04/23 12:36:25.8     186   -699    367    724    811 165.1  28.9  34156  289.52 0854.71
2009/04/23 12:36:25.9      45   -600    157    602    623 175.6  14.7  34168  289.70 0854.71
2009/04/23 12:36:26.0     131   -485     56    503    507 164.9   6.4  34166  289.69 0854.71
2009/04/23 12:36:26.1     165   -413     69    446    452 158.2   8.8  34158  289.55 0854.71
2009/04/23 12:36:26.2     -16   -298      0    299    300 183.1   0.0  34162  289.59 0854.71
2009/04/23 12:36:26.3     152   -457    -17    482    483 161.6  -2.1  34166  289.66 0854.71
2009/04/23 12:36:26.4     100   -370    -69    384    391 164.9 -10.2  34166  289.67 0854.71
2009/04/23 12:36:26.5      17   -379    -24    380    381 177.4  -3.7  34162  289.59 0854.71
2009/04/23 12:36:26.6     -72   -399   -105    406    420 190.3 -14.6  34164  289.63 0854.71
2009/04/23 12:36:26.7    -257   -564    -44    620    622 204.5  -4.1  34166  289.69 0854.71
2009/04/23 12:36:26.8    -287   -532    -33    605    606 208.4  -3.1  34166  289.66 0854.71
2009/04/23 12:36:26.9     -91   -452    125    462    479 191.5  15.2  34162  289.62 0854.71
2009/04/23 12:36:27.0    -229   -396    -17    458    459 210.0  -2.2  34154  289.46 0854.71
2009/04/23 12:36:27.1    -316   -460    -54    559    562 214.5  -5.6  34160  289.58 0854.71
2009/04/23 12:36:27.2    -281   -385     38    477    479 216.1   4.6  34160  289.57 0854.71
2009/04/23 12:36:27.3    -298   -223    -33    373    375 233.2  -5.1  34158  289.55 0854.71
2009/04/23 12:36:27.4    -263   -409     -1    487    488 212.7  -0.2  34156  289.52 0854.71
2009/04/23 12:36:27.5    -287   -484    -55    563    566 210.7  -5.6  34152  289.45 0854.67
2009/04/23 12:36:27.6    -449   -636   -128    779    790 215.2  -9.3  34156  289.52 0854.67
2009/04/23 12:36:27.7    -352   -597    -87    694    700 210.5  -7.2  34156  289.52 0854.67
2009/04/23 12:36:27.8     -89   -465     -9    474    475 190.9  -1.1  34160  289.57 0854.67
2009/04/23 12:36:27.9    -111   -401     27    417    418 195.5   3.8  34162  289.61 0854.67
2009/04/23 12:36:28.0      -6   -326     20    327    328 181.2   3.6  34160  289.56 0854.67
2009/04/23 12:36:28.1      -3   -235     90    236    252 180.9  22.0  34158  289.54 0854.67
2009/04/23 12:36:28.2      78   -126     88    149    173 148.4  33.7  34160  289.58 0854.67
2009/04/23 12:36:28.3     101      0    -91    102    136  90.0 -50.8  34162  289.60 0854.67
2009/04/23 12:36:28.4     112     12   -123    113    167  83.4 -57.1  34164  289.65 0854.67
2009/04/23 12:36:28.5    -141     46   -124    149    193 288.2 -48.2  34158  289.53 0854.67
2009/04/23 12:36:28.6     -69      1   -217     70    228 270.9 -85.6  34162  289.62 0854.67
2009/04/23 12:36:28.7    -266    -24   -257    268    371 264.7 -53.1  34172  289.76 0854.67
2009/04/23 12:36:28.8    -266    -37   -259    269    373 262.1 -53.2  34164  289.64 0854.67
2009/04/23 12:36:28.9    -462    -86   -319    470    568 259.4 -41.8  34170  289.74 0854.67
2009/04/23 12:36:29.0    -312   -224   -196    385    432 234.3 -33.6  34154  289.46 0854.67
2009/04/23 12:36:29.1    -324   -193      0    378    379 239.3   0.0  34156  289.50 0854.67
2009/04/23 12:36:29.2    -239   -231     58    333    339 225.9   9.9  34162  289.62 0854.67
2009/04/23 12:36:29.3    -189   -274     88    334    346 214.6  14.9  34158  289.54 0854.67
2009/04/23 12:36:29.4     -86   -181     38    201    205 205.5  10.8  34162  289.60 0854.67
2009/04/23 12:36:29.5      83    -70    147    109    183 130.4  60.0  34156  289.50 0854.68
2009/04/23 12:36:29.6      90     -5    234     91    251  93.5  78.1  34162  289.60 0854.68
2009/04/23 12:36:29.7     147   -230    109    274    294 147.4  23.0  34162  289.61 0854.68
2009/04/23 12:36:29.8     109   -304     27    324    326 160.2   4.9  34158  289.54 0854.68
2009/04/23 12:36:29.9     155   -275    148    316    348 150.6  27.1  34162  289.62 0854.68
2009/04/23 12:36:30.0     198   -257    105    325    342 142.4  18.0  34156  289.52 0854.68
2009/04/23 12:36:30.1     207   -235     80    314    325 138.6  14.4  34158  289.53 0854.68
2009/04/23 12:36:30.2      91   -188     72    210    223 154.1  18.9  34156  289.52 0854.68
2009/04/23 12:36:30.3      -7    -98     74     99    123 184.4  40.1  34164  289.65 0854.68
2009/04/23 12:36:30.4       8   -136    124    137    184 176.4  47.1  34160  289.58 0854.68
2009/04/23 12:36:30.5     -78   -271    194    283    343 196.0  37.8  34164  289.63 0854.69
2009/04/23 12:36:30.6    -117   -203    222    235    323 209.9  48.4  34158  289.53 0854.69
2009/04/23 12:36:30.7    -127   -199    155    237    283 212.6  36.3  34166  289.66 0854.69
2009/04/23 12:36:30.8     -95   -226    261    246    358 202.9  52.0  34164  289.63 0854.69
2009/04/23 12:36:30.9     -44   -112    228    121    258 201.8  69.8  34164  289.65 0854.69
2009/04/23 12:36:31.0    -117   -177    163    213    268 213.6  41.4  34168  289.71 0854.69
2009/04/23 12:36:31.1    -104   -161    199    192    276 213.0  51.2  34168  289.71 0854.69
2009/04/23 12:36:31.2    -149    -66    106    164    195 246.0  36.0  34168  289.72 0854.69
2009/04/23 12:36:31.3      83     50    156     97    183  58.9  64.9  34166  289.67 0854.69
2009/04/23 12:36:31.4      80     -2    156     81    175  91.7  70.6  34164  289.63 0854.69
2009/04/23 12:36:31.5      40    -21    189     46    194 118.0  86.7  34168  289.70 0854.69
2009/04/23 12:36:31.6     111    -12    176    112    208  96.6  64.7  34160  289.58 0854.69
2009/04/23 12:36:31.7     201    -58    263    210    336 106.2  57.5  34166  289.66 0854.69
2009/04/23 12:36:31.8     233     99    275    254    374  66.9  52.3  34232  290.79 0854.69
2009/04/23 12:36:31.9      58    105    227    121    257  29.0  69.8  34222  290.64 0854.69
2009/04/23 12:36:32.0     257     58    186    264    322  77.2  38.7  34240  290.93 0854.69
2009/04/23 12:36:32.1     152    275    134    315    342  29.0  24.5  34284  291.69 0854.69
2009/04/23 12:36:32.2     179    409    130    447    466  23.7  16.3  34270  291.45 0854.69
2009/04/23 12:36:32.3     157    267     55    310    315  30.5  10.1  34262  291.29 0854.69
2009/04/23 12:36:32.4     305    123     30    329    331  68.0   5.3  34268  291.42 0854.69
2009/04/23 12:36:32.5     378     83    164    388    421  77.6  24.2  34272  291.48 0854.70
2009/04/23 12:36:32.6     456    241     79    517    523  62.1   8.7  34282  291.64 0854.70
2009/04/23 12:36:32.7     646    245    253    692    736  69.2  21.0  34296  291.88 0854.70
2009/04/23 12:36:32.8     756    272    185    804    826  70.2  13.0  34226  290.69 0854.70
2009/04/23 12:36:33.0     864      7    196    865    888  89.5  12.8  34224  290.67 0854.70
2009/04/23 12:36:33.0     788     17    285    789    840  88.7  19.9  34222  290.62 0854.70
2009/04/23 12:36:33.1     844    -25    340    845    910  91.7  23.1  34206  290.35 0854.70
2009/04/23 12:36:33.2     908     96    214    914    939  83.9  13.2  34194  290.15 0854.70
2009/04/23 12:36:33.3     688     52    261    690    737  85.7  21.8  34192  290.11 0854.70
2009/04/23 12:36:33.4     627    220    204    665    696  70.6  17.1  34176  289.83 0854.70
2009/04/23 12:36:33.5     638    134    248    653    698  78.1  21.8  34232  290.78 0854.70
2009/04/23 12:36:33.6     617     77    230    622    663  82.8  21.3  34230  290.77 0854.70
2009/04/23 12:36:33.7     417   -243    296    483    566 120.2  34.4  34170  289.74 0854.70
2009/04/23 12:36:33.8     216   -315    219    383    441 145.5  32.3  34164  289.63 0854.70
2009/04/23 12:36:33.9     257   -287    260    386    465 138.1  37.3  34164  289.65 0854.70
2009/04/23 12:36:34.0     322   -265    329    418    531 129.5  42.2  34172  289.76 0854.70
2009/04/23 12:36:34.1     284   -299    217    413    466 136.5  30.0  34170  289.73 0854.70
2009/04/23 12:36:34.2     256   -305    235    399    463 139.9  33.4  34168  289.72 0854.70
2009/04/23 12:36:34.3     269   -281    199    390    437 136.3  29.2  34166  289.66 0854.70
2009/04/23 12:36:34.4     307   -219    231    378    442 125.5  34.4  34164  289.63 0854.70
2009/04/23 12:36:34.5     219   -232    246    320    403 136.7  41.6  34168  289.71 0854.73
2009/04/23 12:36:34.6     256   -228    261    344    431 131.7  41.1  34164  289.65 0854.73
2009/04/23 12:36:34.7     216   -266    232    343    414 140.9  37.4  34162  289.60 0854.73
2009/04/23 12:36:34.8     203   -286    191    352    400 144.6  30.9  34162  289.60 0854.73
2009/04/23 12:36:34.9     222   -270    218    350    412 140.6  35.0  34162  289.59 0854.73
2009/04/23 12:36:35.0     204   -211    248    294    384 135.9  44.3  34162  289.59 0854.73
2009/04/23 12:36:35.1     144   -231    246    273    367 148.1  46.6  34166  289.67 0854.73
2009/04/23 12:36:35.2     179   -159    214    240    321 131.6  46.5  34164  289.63 0854.73
2009/04/23 12:36:35.3     205   -157    153    259    300 127.5  33.5  34162  289.61 0854.73
2009/04/23 12:36:35.4     160   -222    167    275    321 144.2  34.2  34162  289.61 0854.73
2009/04/23 12:36:35.5     189   -171    141    256    292 132.2  31.4  34162  289.61 0854.73
2009/04/23 12:36:35.6     157   -164    170    228    284 136.3  40.7  34166  289.66 0854.73
2009/04/23 12:36:35.7     117   -138    141    182    230 139.7  41.7  34164  289.63 0854.73
2009/04/23 12:36:35.8     118   -157    154    197    250 143.0  42.0  34164  289.64 0854.73
2009/04/23 12:36:35.9     140    -97    133    171    216 124.9  42.0  34164  289.63 0854.73
2009/04/23 12:36:36.0     106   -106    100    151    181 134.9  36.5  34164  289.63 0854.73
2009/04/23 12:36:36.1      56   -109     75    123    144 152.8  35.0  34164  289.65 0854.73
2009/04/23 12:36:36.2      82    -74     66    111    129 132.2  33.5  34162  289.60 0854.73
2009/04/23 12:36:36.3      11   -151    136    152    203 175.5  46.4  34164  289.63 0854.73
2009/04/23 12:36:36.4      32   -139    167    143    219 166.7  55.0  34164  289.63 0854.73
2009/04/23 12:36:36.5       0   -142    150    143    207 180.0  51.6  34164  289.65 0854.72
2009/04/23 12:36:36.6       2   -133    160    134    208 179.0  56.1  34164  289.65 0854.72
2009/04/23 12:36:36.7     -34   -160    171    164    236 192.0  51.2  34164  289.63 0854.72
2009/04/23 12:36:36.8     -42   -184    229    189    296 192.9  56.4  34166  289.66 0854.72
2009/04/23 12:36:36.9     -20   -184    206    186    277 186.2  53.3  34168  289.70 0854.72
2009/04/23 12:36:37.0     153   -210    172    260    311 143.9  36.6  34166  289.66 0854.72
2009/04/23 12:36:37.1      98   -151    205    181    273 147.0  54.2  34170  289.73 0854.72
2009/04/23 12:36:37.2     118   -249    258    276    377 154.7  48.0  34168  289.72 0854.72
2009/04/23 12:36:37.3      98   -289    238    306    387 161.3  41.9  34164  289.65 0854.72
2009/04/23 12:36:37.4     -25   -269    237    271    360 185.3  45.8  34166  289.69 0854.72
2009/04/23 12:36:37.5      11   -235    266    236    355 177.3  54.0  34168  289.71 0854.72
2009/04/23 12:36:37.6      71   -263    239    273    362 164.9  45.7  34164  289.65 0854.72
2009/04/23 12:36:37.7      -4   -245    274    246    368 181.0  53.6  34166  289.69 0854.72
2009/04/23 12:36:37.8     155   -304    272    342    436 152.9  42.6  34166  289.68 0854.72
2009/04/23 12:36:37.9     116   -381    141    399    424 163.1  19.5  34160  289.56 0854.72
2009/04/23 12:36:38.1      24   -176    196    178    264 172.0  53.2  34166  289.66 0854.72
2009/04/23 12:36:38.2      86   -210    229    227    322 157.7  50.1  34164  289.64 0854.72
2009/04/23 12:36:38.3      58    -75    203     96    224 142.2  73.1  34162  289.62 0854.72
2009/04/23 12:36:38.4      -8   -167    264    168    312 182.9  64.7  34170  289.75 0854.72
2009/04/23 12:36:38.5     -13   -251    269    252    368 183.1  52.1  34166  289.67 0854.72
2009/04/23 12:36:38.6     -42   -302    189    306    359 188.0  34.8  34164  289.65 0854.75
2009/04/23 12:36:38.7      33   -266    263    269    376 172.9  49.4  34164  289.64 0854.75
2009/04/23 12:36:38.8      -3   -264    241    265    358 180.7  47.1  34168  289.71 0854.75
2009/04/23 12:36:38.9      13   -230    245    231    336 176.6  52.0  34170  289.75 0854.75
2009/04/23 12:36:39.0      48   -202    249    208    324 166.6  56.1  34168  289.70 0854.75
2009/04/23 12:36:39.1     -61   -219    217    228    314 195.6  48.6  34166  289.66 0854.75
2009/04/23 12:36:39.2      20   -217    189    219    289 174.7  45.4  34170  289.73 0854.75
2009/04/23 12:36:39.3      14   -318    183    319    367 177.3  32.6  34170  289.74 0854.75
2009/04/23 12:36:39.4     126   -336    152    360    390 159.4  24.2  34164  289.65 0854.75
2009/04/23 12:36:39.5     218   -341    187    405    446 147.4  26.6  34166  289.68 0854.75
2009/04/23 12:36:39.6      24   -350    173    351    391 176.0  28.2  34164  289.65 0854.75
2009/04/23 12:36:39.7      72   -141   -130    159    205 152.8 -48.1  34162  289.60 0854.75
2009/04/23 12:36:39.8     171   -145   -124    225    256 130.4 -35.8  34170  289.75 0854.75
2009/04/23 12:36:39.9     146    -85   -110    169    201 120.2 -40.1  34168  289.72 0854.75
2009/04/23 12:36:40.0     153   -109      9    189    190 125.5   2.8  34172  289.77 0854.75
2009/04/23 12:36:40.1     171     81      9    190    191  64.5   2.8  34170  289.74 0854.75
2009/04/23 12:36:40.2     291    -59   -203    297    359 101.5 -42.0  34166  289.69 0854.75
2009/04/23 12:36:40.3     282     47    -95    287    302  80.4 -23.8  34170  289.73 0854.75
2009/04/23 12:36:40.4     381   -151   -125    411    429 111.7 -21.8  34176  289.83 0854.75
2009/04/23 12:36:40.5     354   -504    161    616    637 144.9  14.7  34162  289.62 0854.75
2009/04/23 12:36:40.6     256  -1035    222   1067   1091 166.1  11.8  34166  289.67 0854.74
2009/04/23 12:36:40.7       9   -932    552    933   1084 179.4  33.4  34164  289.65 0854.74
2009/04/23 12:36:40.8     500   -775    623    923   1113 147.1  37.3  34150  289.39 0854.74
2009/04/23 12:36:40.9     434   -639    197    773    798 145.8  14.3  34156  289.49 0854.74
2009/04/23 12:36:41.0     374   -630     37    733    734 149.3   2.9  34158  289.55 0854.74
2009/04/23 12:36:41.1     274   -274    225    388    448 135.0  32.9  34154  289.46 0854.74
2009/04/23 12:36:41.2    -174   -657     90    680    686 194.9   7.6  34158  289.53 0854.74
2009/04/23 12:36:41.3    -430   -282   -212    515    556 236.7 -28.1  34162  289.62 0854.74
2009/04/23 12:36:41.4    -119   -429     83    446    454 195.6  10.6  34156  289.51 0854.74
2009/04/23 12:36:41.5     177   -495    149    526    547 160.3  15.9  34158  289.53 0854.74
2009/04/23 12:36:41.6     266   -412    172    491    520 147.2  20.1  34156  289.52 0854.74
2009/04/23 12:36:41.7     102   -352    162    367    401 163.7  25.3  34162  289.59 0854.74
2009/04/23 12:36:41.8     205   -193     83    282    294 133.2  16.4  34166  289.66 0854.74
2009/04/23 12:36:41.9     334   -186    136    383    406 119.1  20.2  34164  289.64 0854.74
2009/04/23 12:36:42.0      67   -217    177    228    288 162.8  41.7  34156  289.51 0854.74
2009/04/23 12:36:42.1     176   -385    226    424    480 155.4  30.3  34158  289.55 0854.74
2009/04/23 12:36:42.2     213   -214    182    303    353 135.1  33.6  34160  289.57 0854.74
2009/04/23 12:36:42.3     429   -388    124    579    593 132.1  12.2  34150  289.39 0854.74
2009/04/23 12:36:42.4     598   -505    208    784    812 130.2  14.9  34156  289.51 0854.74
2009/04/23 12:36:42.5     493   -626    203    797    823 141.8  14.3  34144  289.31 0854.74
2009/04/23 12:36:42.6     337   -527    418    626    752 147.4  36.9  34126  289.00 0854.69
2009/04/23 12:36:42.7     217   -618    389    656    762 160.6  33.5  34136  289.18 0854.69
2009/04/23 12:36:42.8     285   -677    219    735    768 157.2  16.6  34128  289.04 0854.69
2009/04/23 12:36:42.9     481   -409    345    632    720 130.4  31.0  34142  289.26 0854.69
2009/04/23 12:36:43.0     246   -437    412    502    649 150.6  43.6  34134  289.12 0854.69
2009/04/23 12:36:43.1      28   -495    429    496    655 176.8  45.2  34140  289.22 0854.69
2009/04/23 12:36:43.2     321   -335    269    465    537 136.2  32.8  34152  289.42 0854.69
2009/04/23 12:36:43.3     301   -171     70    347    354 119.7  11.5  34152  289.43 0854.69
2009/04/23 12:36:43.4     307   -179     42    356    359 120.2   6.9  34146  289.35 0854.69
2009/04/23 12:36:43.5     272   -148    100    310    326 118.6  17.9  34144  289.31 0854.69
2009/04/23 12:36:43.6     140   -311    301    342    455 155.7  45.9  34132  289.11 0854.69
2009/04/23 12:36:43.7     333   -312    -51    457    460 133.1  -6.5  34136  289.17 0854.69
2009/04/23 12:36:43.8     359   -462    149    586    605 142.2  14.3  34128  289.03 0854.69
2009/04/23 12:36:43.9     238   -651    197    694    722 159.9  15.9  34120  288.88 0854.69
2009/04/23 12:36:44.0     175   -519    257    548    605 161.3  27.1  34138  289.19 0854.69
2009/04/23 12:36:44.1     317   -323    211    453    499 135.6  26.9  34136  289.17 0854.69
2009/04/23 12:36:44.2     222   -200    123    300    324 132.0  23.6  34132  289.09 0854.69
2009/04/23 12:36:44.3     217   -145    221    262    342 123.7  44.3  34142  289.27 0854.69
2009/04/23 12:36:44.4     304   -265    295    404    500 131.0  39.7  34138  289.20 0854.69
2009/04/23 12:36:44.5     126   -163     79    207    221 142.4  22.0  34128  289.04 0854.69
2009/04/23 12:36:44.6       5    -73    128     74    147 175.6  67.2  34130  289.08 0854.69
2009/04/23 12:36:44.7     274    147   -148    312    345  61.8 -31.6  34136  289.18 0854.69
2009/04/23 12:36:44.8     427   -100    -35    439    441 103.3  -4.6  34140  289.22 0854.69
2009/04/23 12:36:44.9     343   -141    293    372    473 112.4  42.2  34132  289.09 0854.69
2009/04/23 12:36:45.0      -9   -125    187    126    225 184.5  62.8  34142  289.28 0854.69
2009/04/23 12:36:45.1       0   -101    274    102    292 180.0  78.9  34130  289.07 0854.69
2009/04/23 12:36:45.2      80    -74    163    110    196 132.7  62.6  34144  289.31 0854.69
2009/04/23 12:36:45.3     155   -237    149    284    320 146.8  30.0  34140  289.24 0854.69
2009/04/23 12:36:45.4     280    -48   -172    285    332  99.7 -38.4  34138  289.19 0854.69
2009/04/23 12:36:45.5     389     54   -116    393    410  82.0 -16.5  34140  289.22 0854.69
2009/04/23 12:36:45.6     330    104    247    347    425  72.4  39.0  34136  289.18 0854.69
2009/04/23 12:36:45.7     150    149    161    212    266  45.1  41.2  34142  289.25 0854.69
2009/04/23 12:36:45.8     101    264     77    283    294  20.9  15.3  34132  289.09 0854.69
2009/04/23 12:36:45.9     -53    131    193    142    239 337.7  60.3  34142  289.26 0854.69
2009/04/23 12:36:46.0     121    228    160    259    304  28.0  34.8  34142  289.25 0854.69
2009/04/23 12:36:46.1     356    343    296    495    576  46.1  33.7  34136  289.16 0854.69
2009/04/23 12:36:46.2     258    111    298    281    409  66.7  52.0  34146  289.32 0854.69
2009/04/23 12:36:46.3     257   -102    285    277    397 111.8  50.9  34144  289.30 0854.69
2009/04/23 12:36:46.4     291   -191    209    349    406 123.4  33.7  34134  289.13 0854.69
2009/04/23 12:36:46.5     187    -88    240    207    316 115.2  54.8  34132  289.09 0854.69
2009/04/23 12:36:46.6     -70    -54    223     89    240 232.2  77.1  34146  289.35 0854.64
2009/04/23 12:36:46.7     -97     71    172    121    210 306.0  61.5  34150  289.40 0854.64
2009/04/23 12:36:46.8      98     12    208     99    230  82.5  72.9  34146  289.35 0854.64
2009/04/23 12:36:46.9     114     30    336    119    356  75.0  79.8  34142  289.27 0854.64
2009/04/23 12:36:47.0     -55     57    215     80    229 315.9  79.1  34154  289.46 0854.64
2009/04/23 12:36:47.1     -12    -97    180     98    204 187.6  68.9  34148  289.38 0854.64
2009/04/23 12:36:47.2     -16   -241    346    242    422 183.8  61.7  34152  289.42 0854.64
2009/04/23 12:36:47.3    -154   -426    458    454    644 200.0  50.2  34144  289.29 0854.64
2009/04/23 12:36:47.4     301   -171    488    347    598 119.7  61.2  34140  289.23 0854.64
2009/04/23 12:36:47.5     155    -36    314    160    352 103.3  71.0  34144  289.29 0854.64
2009/04/23 12:36:47.6      49    -73    293     89    306 146.2  82.7  34154  289.47 0854.64
2009/04/23 12:36:47.7      12   -310    448    311    545 177.8  62.0  34156  289.52 0854.64
2009/04/23 12:36:47.8    -134   -432    421    453    618 197.3  47.9  34146  289.32 0854.64
2009/04/23 12:36:47.9     127   -120    317    175    362 133.3  68.8  34152  289.42 0854.64
2009/04/23 12:36:48.0      73    -14    266     75    276 101.5  84.1  34146  289.35 0854.64
2009/04/23 12:36:48.1    -104   -343    362    359    509 196.9  50.2  34150  289.39 0854.64
2009/04/23 12:36:48.2      36   -180    300    184    351 168.4  65.7  34150  289.41 0854.64
2009/04/23 12:36:48.3     334   -390    527    514    736 139.4  50.8  34142  289.26 0854.64
2009/04/23 12:36:48.4     418   -265    423    495    651 122.4  44.9  34144  289.30 0854.64
2009/04/23 12:36:48.5     168   -439    297    471    556 159.1  35.5  34142  289.28 0854.64
2009/04/23 12:36:48.6     130   -414    189    435    474 162.5  25.1  34148  289.38 0854.65
2009/04/23 12:36:48.7     155   -333    134    368    391 155.1  21.0  34148  289.38 0854.65
2009/04/23 12:36:48.8     162   -323    253    362    441 153.4  38.5  34146  289.33 0854.65
2009/04/23 12:36:48.9      28   -242    252    244    350 173.3  51.1  34136  289.15 0854.65
2009/04/23 12:36:49.0     -55   -397    378    402    551 188.0  48.0  34142  289.27 0854.65
2009/04/23 12:36:49.1     -69   -411    334    417    534 189.6  42.7  34142  289.28 0854.65
2009/04/23 12:36:49.2     -32   -367    386    369    534 185.1  51.5  34146  289.34 0854.65
2009/04/23 12:36:49.3     -26   -342    439    344    557 184.5  58.0  34150  289.39 0854.65
2009/04/23 12:36:49.4      30   -346    451    348    569 175.0  58.5  34146  289.35 0854.65
2009/04/23 12:36:49.5      25   -380    386    381    542 176.1  50.2  34142  289.27 0854.65
2009/04/23 12:36:49.6     -59   -463    416    467    625 187.3  46.3  34146  289.32 0854.65
2009/04/23 12:36:49.7     -74   -277    271    287    394 195.1  48.4  34142  289.25 0854.65
2009/04/23 12:36:49.8    -108   -150    147    186    237 215.8  42.4  34146  289.33 0854.65
2009/04/23 12:36:49.9     -79    -87    159    118    198 222.3  60.0  34146  289.35 0854.65
2009/04/23 12:36:50.0    -283   -311    281    421    506 222.3  36.9  34150  289.39 0854.65
2009/04/23 12:36:50.1      -9    -63    214     64    223 188.9  82.8  34136  289.18 0854.65
2009/04/23 12:36:50.2     -17   -200    259    201    327 185.1  58.3  34152  289.44 0854.65
2009/04/23 12:36:50.3    -216   -191    283    289    404 228.6  49.7  34144  289.30 0854.65
2009/04/23 12:36:50.4    -472    -88    260    481    546 259.4  30.8  34130  289.06 0854.65
2009/04/23 12:36:50.5    -119   -179    176    216    278 213.6  43.5  34142  289.27 0854.65
2009/04/23 12:36:50.6    -182   -215    253    282    378 220.3  46.5  34138  289.21 0854.67
2009/04/23 12:36:50.7    -693   -115    -15    703    704 260.5  -1.3  34136  289.15 0854.67
2009/04/23 12:36:50.8    -351    132    246    376    449 290.6  36.4  34150  289.39 0854.67
2009/04/23 12:36:50.9    -417    151    274    444    521 290.0  34.8  34142  289.28 0854.67
2009/04/23 12:36:51.0    -706    176   -123    728    739 284.0  -9.6  34144  289.31 0854.67
2009/04/23 12:36:51.1    -703     -7   -251    704    748 269.4 -19.7  34152  289.42 0854.67
2009/04/23 12:36:51.2    -430     23   -257    431    501 273.2 -38.1  34146  289.34 0854.67
2009/04/23 12:36:51.3    -802   -150   -532    816    974 259.4 -40.7  34128  289.02 0854.67
2009/04/23 12:36:51.4    -304    -23   -322    305    443 265.7 -56.3  34140  289.24 0854.67
2009/04/23 12:36:51.5    -493    729    103    881    888 325.9   6.7  34136  289.16 0854.67
2009/04/23 12:36:51.6    -699    375     32    794    795 298.2   2.3  34130  289.08 0854.68
2009/04/23 12:36:51.7    -685    268     83    736    741 291.4   6.5  34132  289.11 0854.68
2009/04/23 12:36:51.8    -406    417    252    583    635 315.8  24.9  34146  289.35 0854.68
2009/04/23 12:36:51.9    -283      0    -95    284    300 270.0 -18.6  34146  289.32 0854.68
2009/04/23 12:36:52.0     -23     58    133     63    147 338.1  72.9  34146  289.35 0854.68
2009/04/23 12:36:52.1    -200     11     75    201    214 273.3  21.3  34144  289.30 0854.68
2009/04/23 12:36:52.2    -289    -97    -90    305    318 251.4 -21.2  34142  289.27 0854.68
2009/04/23 12:36:52.3     -60   -180    -75    190    204 198.5 -26.9  34138  289.19 0854.68
2009/04/23 12:36:52.4      84   -139    -46    163    170 148.8 -16.0  34148  289.38 0854.68
2009/04/23 12:36:52.5     -40    -75    110     86    139 208.1  58.4  34146  289.33 0854.68
2009/04/23 12:36:52.6       7     36    133     37    138  11.6  84.8  34150  289.41 0854.68
2009/04/23 12:36:52.7       2    -35    172     36    175 175.6  88.8  34148  289.38 0854.68
2009/04/23 12:36:52.8      75   -289    152    299    335 165.3  28.9  34144  289.29 0854.68
2009/04/23 12:36:52.9     178   -354    -18    397    398 153.3  -2.6  34142  289.25 0854.68
2009/04/23 12:36:53.0     -10   -426     -9    427    428 181.4  -1.3  34138  289.21 0854.68
2009/04/23 12:36:53.1     -34   -455    179    457    490 184.4  22.7  34142  289.27 0854.68
2009/04/23 12:36:53.2     -69   -382    103    389    403 190.3  14.9  34148  289.38 0854.68
2009/04/23 12:36:53.3    -139   -273    107    307    326 207.1  19.2  34144  289.31 0854.68
2009/04/23 12:36:53.4     -94   -188    -83    211    226 206.7 -27.4  34142  289.26 0854.68
2009/04/23 12:36:53.5     -79   -384     91    393    404 191.7  13.1  34146  289.32 0854.68
2009/04/23 12:36:53.6    -123   -533     -8    548    549 193.0  -0.9  34142  289.26 0854.68
2009/04/23 12:36:53.7    -244   -265    -85    361    371 222.6 -13.3  34136  289.18 0854.68
2009/04/23 12:36:53.8    -274   -227    -50    356    360 230.4  -8.0  34142  289.26 0854.68
2009/04/23 12:36:53.9    -406   -309     14    511    512 232.7   1.6  34140  289.23 0854.68
2009/04/23 12:36:54.0    -356   -384    160    524    549 222.8  17.0  34142  289.26 0854.68
2009/04/23 12:36:54.1    -359   -394    145    534    554 222.3  15.2  34138  289.21 0854.68
2009/04/23 12:36:54.2    -517   -446    146    684    700 229.2  12.1  34142  289.26 0854.68
2009/04/23 12:36:54.3    -199   -337    153    392    420 210.6  22.5  34140  289.24 0854.68
2009/04/23 12:36:54.4      20   -347     40    348    351 176.6   6.6  34138  289.20 0854.68
2009/04/23 12:36:54.5     311   -280   -147    419    445 132.0 -19.3  34142  289.26 0854.68
2009/04/23 12:36:54.6     306   -194   -187    363    408 122.5 -33.7  34146  289.33 0854.68
2009/04/23 12:36:54.7     213   -108    -82    239    252 116.9 -23.6  34138  289.20 0854.68
2009/04/23 12:36:54.8      63    -63    135     90    162 135.0  63.2  34126  288.99 0854.68
2009/04/23 12:36:54.9     -76   -111    239    135    274 214.3  68.3  34142  289.27 0854.68
2009/04/23 12:36:55.0     -35   -149    170    154    229 193.3  53.3  34146  289.33 0854.68
2009/04/23 12:36:55.1     -67    -79     96    104    141 220.5  47.9  34142  289.28 0854.68
2009/04/23 12:36:55.2    -173   -271    114    322    341 212.6  20.1  34138  289.21 0854.68
2009/04/23 12:36:55.3    -217   -216    -84    307    319 225.2 -15.4  34140  289.22 0854.68
2009/04/23 12:36:55.4    -146   -245    235    286    370 210.8  43.7  34138  289.21 0854.68
2009/04/23 12:36:55.5    -306   -251     85    397    407 230.6  12.2  34140  289.22 0854.68
2009/04/23 12:36:55.6    -278   -489     14    563    564 209.6   1.5  34134  289.14 0854.69
2009/04/23 12:36:55.7     -84   -378    252    388    462 192.6  35.9  34130  289.05 0854.69
2009/04/23 12:36:55.8     -48   -359    264    363    448 187.7  39.5  34132  289.11 0854.69
2009/04/23 12:36:55.9     -24   -365    130    366    388 183.9  20.3  34130  289.06 0854.69
2009/04/23 12:36:56.0     -33   -427    296    429    521 184.5  37.9  34136  289.17 0854.69
2009/04/23 12:36:56.1      51   -552    409    555    689 174.7  40.0  34130  289.08 0854.69
2009/04/23 12:36:56.2       8   -502    447    503    672 179.0  46.2  34132  289.11 0854.69
2009/04/23 12:36:56.3    -164   -558    373    582    691 196.4  35.6  34136  289.17 0854.69
2009/04/23 12:36:56.4    -223   -637    541    675    865 199.3  42.8  34144  289.31 0854.69
2009/04/23 12:36:56.5    -264   -487    359    555    660 208.5  35.9  34128  289.04 0854.69
2009/04/23 12:36:56.6    -395   -440    119    592    604 221.9  11.4  34140  289.22 0854.69
2009/04/23 12:36:56.7    -532   -481   -111    718    727 227.9  -8.8  34136  289.15 0854.69
2009/04/23 12:36:56.8    -668   -440   -106    801    809 236.6  -7.6  34142  289.26 0854.69
2009/04/23 12:36:56.9    -494   -560   -154    747    763 221.4 -11.7  34134  289.12 0854.69
2009/04/23 12:36:57.0    -300   -513     99    595    604 210.3   9.4  34130  289.08 0854.69
2009/04/23 12:36:57.1      42   -537    298    539    615 175.5  31.4  34140  289.24 0854.69
2009/04/23 12:36:57.2    -116   -567    280    580    644 191.6  27.7  34132  289.09 0854.69
2009/04/23 12:36:57.3    -130   -627    348    641    729 191.8  30.9  34138  289.20 0854.69
2009/04/23 12:36:57.4     -21   -493    534    494    727 182.5  52.6  34124  288.97 0854.69
2009/04/23 12:36:57.5     266   -611    523    667    847 156.5  42.1  34130  289.08 0854.69
2009/04/23 12:36:57.6     -58   -267    369    274    459 192.3  59.9  34130  289.07 0854.69
2009/04/23 12:36:57.7    -233   -328     52    403    407 215.4   7.5  34142  289.27 0854.69
2009/04/23 12:36:57.8      75   -234    229    246    336 162.1  47.9  34132  289.09 0854.69
2009/04/23 12:36:57.9     139    -37    213    144    257 105.1  62.7  34132  289.11 0854.69
2009/04/23 12:36:58.0     139    -55    257    150    297 111.8  67.2  34138  289.19 0854.69
2009/04/23 12:36:58.1      71    -22    232     75    243 107.7  81.6  34140  289.23 0854.69
2009/04/23 12:36:58.2     -62   -308    271    315    415 191.5  45.1  34130  289.06 0854.69
2009/04/23 12:36:58.3    -341   -207    230    400    461 238.7  32.4  34140  289.24 0854.69
2009/04/23 12:36:58.4    -252   -144    219    291    364 240.3  40.9  34136  289.18 0854.69
2009/04/23 12:36:58.5    -369   -184    -44    413    416 243.4  -6.1  34140  289.22 0854.69
2009/04/23 12:36:58.6      63   -235    115    244    269 164.9  27.1  34142  289.25 0854.69
2009/04/23 12:36:58.7     -65   -128     50    144    153 207.2  19.4  34136  289.16 0854.69
2009/04/23 12:36:58.8    -118    -11    -28    119    123 264.3 -13.3  34120  288.89 0854.69
2009/04/23 12:36:58.9    -496    165     28    523    524 288.4   3.1  34136  289.18 0854.69
2009/04/23 12:36:59.0       9   -131    -39    132    138 176.0 -16.6  34132  289.09 0854.69
2009/04/23 12:36:59.1     271   -123    -82    298    310 114.4 -15.5  34138  289.19 0854.69
2009/04/23 12:36:59.2     303   -262     10    401    402 130.9   1.5  34132  289.11 0854.69
2009/04/23 12:36:59.3     233   -332    297    406    503 144.9  39.7  34134  289.12 0854.69
2009/04/23 12:36:59.4     145   -181    276    232    360 141.3  55.7  34134  289.14 0854.69
2009/04/23 12:36:59.5     152   -617    350    636    725 166.1  31.3  34136  289.18 0854.69
2009/04/23 12:36:59.6      69   -642    237    646    688 173.8  21.0  34132  289.09 0854.69
2009/04/23 12:36:59.7     100   -524   -130    534    550 169.1 -13.7  34126  289.01 0854.69
2009/04/23 12:36:59.8     410   -424     90    590    597 136.0   8.7  34126  288.98 0854.69
2009/04/23 12:36:59.9     469   -125     72    486    492 105.0   8.5  34126  289.00 0854.69
2009/04/23 12:37:00.0     259   -331     21    421    422 142.0   2.9  34136  289.16 0854.69
2009/04/23 12:37:00.1      81   -479    123    486    502 170.3  14.3  34126  288.98 0854.69
2009/04/23 12:37:00.2       3   -480    273    481    553 179.6  32.3  34132  289.11 0854.69
2009/04/23 12:37:00.3     204   -410    171    459    489 153.5  21.5  34136  289.15 0854.69
2009/04/23 12:37:00.4     238   -342    103    417    430 145.2  13.9  34138  289.19 0854.69
2009/04/23 12:37:00.5    -139   -250    139    287    318 209.0  27.8  34130  289.07 0854.69
2009/04/23 12:37:00.6    -289   -133   -143    319    349 245.2 -30.3  34134  289.13 0854.69
2009/04/23 12:37:00.7      31   -269     94    271    287 173.3  19.2  34136  289.17 0854.69
2009/04/23 12:37:00.8     -94   -310    203    325    383 196.9  35.2  34128  289.04 0854.69
2009/04/23 12:37:00.9     -86      6    -31     87     93 274.4 -19.7  34142  289.26 0854.69
2009/04/23 12:37:01.0     -12   -158    146    159    215 184.4  47.7  34138  289.21 0854.69
2009/04/23 12:37:01.1    -242   -421    214    486    531 209.9  25.2  34140  289.23 0854.69
2009/04/23 12:37:01.2    -238   -556    198    606    638 203.2  18.1  34136  289.15 0854.69
2009/04/23 12:37:01.3    -330   -580     10    668    669 209.6   0.9  34126  289.00 0854.69
2009/04/23 12:37:01.4    -367   -480    -80    605    611 217.4  -7.6  34130  289.08 0854.69
2009/04/23 12:37:01.5    -417   -331     49    533    536 231.6   5.3  34136  289.16 0854.69
2009/04/23 12:37:01.6    -441   -330     92    552    560 233.2   9.5  34134  289.13 0854.69
2009/04/23 12:37:01.7    -386   -304    102    492    503 231.7  11.8  34140  289.22 0854.69
2009/04/23 12:37:01.8    -246   -246    104    348    364 225.0  16.7  34136  289.18 0854.69
2009/04/23 12:37:01.9    -354   -174    -28    395    396 243.8  -4.1  34130  289.06 0854.69
2009/04/23 12:37:02.0    -170   -121    184    209    278 234.5  45.9  34134  289.12 0854.69
2009/04/23 12:37:02.1     -41    -34    177     54    185 230.5  82.3  34144  289.30 0854.69
2009/04/23 12:37:02.2     194    -81     -8    211    212 112.6  -2.2  34138  289.19 0854.69
2009/04/23 12:37:02.3      66   -329    228    336    406 168.6  37.4  34126  288.98 0854.69
2009/04/23 12:37:02.4     -67   -291    235    299    380 193.1  42.1  34130  289.06 0854.69
2009/04/23 12:37:02.5     -22   -190    203    192    279 186.7  52.0  34140  289.22 0854.69
2009/04/23 12:37:02.6     -83   -131    125    156    199 212.5  42.7  34138  289.19 0854.69
2009/04/23 12:37:02.7     -94    -60    112    112    158 237.1  50.1  34140  289.24 0854.69
2009/04/23 12:37:02.8    -204     73     89    217    234 289.7  23.8  34144  289.30 0854.69
2009/04/23 12:37:02.9    -156    -16     57    157    167 263.9  20.7  34140  289.23 0854.69
2009/04/23 12:37:03.0       9    -83    -49     84     97 173.3 -37.9  34136  289.18 0854.69
2009/04/23 12:37:03.1     -11     12    -55     17     57 316.8 -85.1  34136  289.16 0854.69
2009/04/23 12:37:03.2     -44    137     55    144    154 342.2  21.5  34140  289.23 0854.69
2009/04/23 12:37:03.3    -320    111    102    339    355 289.2  16.8  34136  289.16 0854.69
2009/04/23 12:37:03.4    -406    -59    117    411    428 261.6  15.9  34142  289.26 0854.69
2009/04/23 12:37:03.5    -328   -177    137    373    397 241.6  21.0  34142  289.25 0854.69
2009/04/23 12:37:03.6    -146    127    223    194    295 310.9  54.3  34138  289.20 0854.69
2009/04/23 12:37:03.7    -273     93    132    289    317 289.0  26.3  34136  289.17 0854.69
2009/04/23 12:37:03.8    -241   -245    102    344    359 224.5  16.6  34138  289.20 0854.69
2009/04/23 12:37:03.9    -109   -150     25    186    188 216.1   7.8  34142  289.26 0854.69
2009/04/23 12:37:04.0    -190    -15    171    191    256 265.2  46.6  34138  289.19 0854.69
2009/04/23 12:37:04.1    -119     66     98    137    168 298.9  39.1  34144  289.31 0854.69
2009/04/23 12:37:04.2     -70    -54    169     89    191 232.2  70.0  34148  289.38 0854.69
2009/04/23 12:37:04.3     -92   -104    140    140    197 221.4  50.1  34142  289.28 0854.69
2009/04/23 12:37:04.4    -110   -112     98    158    185 224.5  35.2  34144  289.31 0854.69
2009/04/23 12:37:04.5     -25      8    -38     27     46 288.6 -65.9  34140  289.24 0854.69
2009/04/23 12:37:04.6      89     75     29    117    121  49.6  14.3  34140  289.23 0854.69
2009/04/23 12:37:04.7     364   -125    280    385    476 109.0  39.7  34134  289.14 0854.69
2009/04/23 12:37:04.8     153   -253    378    296    480 148.8  57.9  34140  289.22 0854.69
2009/04/23 12:37:04.9     131   -321    326    347    476 157.8  48.0  34140  289.22 0854.69
2009/04/23 12:37:05.0     190   -341    320    391    505 150.8  43.6  34138  289.20 0854.69
2009/04/23 12:37:05.1     243   -215    154    325    359 131.4  27.1  34136  289.18 0854.69
2009/04/23 12:37:05.2      55   -327    -16    332    333 170.4  -2.8  34138  289.21 0854.69
2009/04/23 12:37:05.3      32   -326     16    328    329 174.3   2.8  34136  289.18 0854.69
2009/04/23 12:37:05.4      79   -339    -40    349    352 166.9  -6.6  34140  289.23 0854.69
2009/04/23 12:37:05.5    -168   -413   -173    447    479 202.2 -26.7  34134  289.13 0854.69
2009/04/23 12:37:05.6    -168   -324    -26    365    366 207.4  -4.1  34124  288.96 0854.68
2009/04/23 12:37:05.8     -35   -326    -30    328    330 186.3  -5.3  34138  289.20 0854.68
2009/04/23 12:37:05.9      90   -237    -89    254    269 159.1 -24.3  34136  289.17 0854.68
2009/04/23 12:37:06.0     513   -503     75    719    723 134.4   6.0  34136  289.15 0854.68
2009/04/23 12:37:06.1     420   -299    196    516    551 125.5  22.0  34120  288.89 0854.68
2009/04/23 12:37:06.2     488    -88    209    496    538 100.2  24.2  34142  289.26 0854.68
2009/04/23 12:37:06.3     358    -26    132    359    382  94.3  21.0  34134  289.13 0854.68
2009/04/23 12:37:06.4     212   -261     -6    337    338 141.0  -1.2  34138  289.20 0854.68
2009/04/23 12:37:06.5      72   -489     28    495    496 171.6   3.2  34136  289.17 0854.68
2009/04/23 12:37:06.6      88   -671     33    677    678 172.5   2.8  34136  289.17 0854.68
2009/04/23 12:37:06.7     260   -752    -70    796    800 160.9  -5.1  34130  289.08 0854.68
2009/04/23 12:37:06.8     221   -856    138    885    896 165.5   8.9  34122  288.94 0854.68
2009/04/23 12:37:06.9     200   -932    332    954   1011 167.8  19.2  34128  289.02 0854.68
2009/04/23 12:37:07.0     295   -902    317    950   1002 161.9  18.5  34132  289.09 0854.68
2009/04/23 12:37:07.1     142   -726    365    740    825 168.9  28.2  34134  289.13 0854.68
2009/04/23 12:37:07.2     123   -660    496    672    835 169.4  40.1  34142  289.25 0854.68
2009/04/23 12:37:07.3      91   -755    190    761    785 173.1  14.0  34136  289.15 0854.68
2009/04/23 12:37:07.4     121   -607     64    620    624 168.7   5.9  34136  289.16 0854.68
2009/04/23 12:37:07.5     158   -629     55    649    652 165.9   4.9  34134  289.13 0854.68
2009/04/23 12:37:07.6     231   -485     -6    538    539 154.5  -0.7  34136  289.18 0854.68
2009/04/23 12:37:07.7     447   -593    259    743    786 143.0  20.0  34140  289.24 0854.67
2009/04/23 12:37:07.8     397   -549    313    678    746 144.1  26.5  34138  289.20 0854.67
2009/04/23 12:37:07.9     376   -648    246    750    790 149.9  18.2  34140  289.22 0854.67
2009/04/23 12:37:08.0     364   -597     -4    700    701 148.6  -0.4  34134  289.13 0854.67
2009/04/23 12:37:08.1     274   -596    203    657    688 155.3  17.2  34134  289.14 0854.67
2009/04/23 12:37:08.2     285   -603     44    668    670 154.7   3.8  34132  289.10 0854.67
2009/04/23 12:37:08.3     546   -783     99    955    961 145.1   6.0  34144  289.30 0854.67
2009/04/23 12:37:08.4     423   -610     -2    743    744 145.3  -0.2  34128  289.02 0854.67
2009/04/23 12:37:08.5     392   -416    289    572    640 136.7  28.8  34132  289.09 0854.67
2009/04/23 12:37:08.6     582   -390      0    701    702 123.9   0.0  34140  289.22 0854.67
2009/04/23 12:37:08.7     480   -239    -17    537    538 116.5  -1.9  34136  289.18 0854.67
2009/04/23 12:37:08.8     196   -100    -65    221    231 117.0 -16.4  34136  289.16 0854.67
2009/04/23 12:37:08.9      95   -192     50    215    221 153.7  13.2  34140  289.24 0854.67
2009/04/23 12:37:09.0     139   -458    -10    479    480 163.1  -1.3  34136  289.18 0854.67
2009/04/23 12:37:09.1     328   -709    243    782    819 155.2  17.3  34136  289.18 0854.67
2009/04/23 12:37:09.2     627   -570    362    848    922 132.3  24.6  34132  289.11 0854.67
2009/04/23 12:37:09.3     501   -499    223    708    743 134.9  17.5  34140  289.22 0854.67
2009/04/23 12:37:09.4     497   -542    163    736    754 137.5  12.5  34142  289.28 0854.67
2009/04/23 12:37:09.5     534   -617    196    817    841 139.1  13.5  34114  288.79 0854.67
2009/04/23 12:37:09.6     184   -693    452    718    848 165.1  35.3  34132  289.09 0854.67
2009/04/23 12:37:09.7     126   -418    165    437    467 163.2  21.7  34120  288.90 0854.67
2009/04/23 12:37:09.8     425   -376     44    568    570 131.5   4.5  34130  289.05 0854.67
2009/04/23 12:37:09.9     419   -266     36    497    499 122.4   4.2  34136  289.15 0854.67
2009/04/23 12:37:10.0     246   -235    -31    341    343 133.7  -5.2  34138  289.20 0854.67
2009/04/23 12:37:10.1     320   -105    -71    337    345 108.3 -12.0  34136  289.15 0854.67
2009/04/23 12:37:10.2     189    -68   -174    202    266 110.0 -49.5  34132  289.09 0854.67
2009/04/23 12:37:10.3     183      2   -280    184    335  89.1 -68.1  34136  289.17 0854.67
2009/04/23 12:37:10.4     291    -96   -269    307    408 108.4 -50.2  34136  289.18 0854.67
2009/04/23 12:37:10.5     404    -41    115    407    424  95.8  15.8  34138  289.19 0854.67
2009/04/23 12:37:10.6     299     79    169    310    353  75.2  30.9  34138  289.20 0854.67
2009/04/23 12:37:10.7     285    292     64    409    415  44.3   9.0  34134  289.12 0854.67
2009/04/23 12:37:10.8     460    209     46    506    509  65.6   5.2  34136  289.17 0854.67
2009/04/23 12:37:10.9     358    291     29    462    463  50.9   3.6  34136  289.17 0854.67
2009/04/23 12:37:11.0     200    140    305    245    391  54.9  57.3  34126  288.99 0854.67
2009/04/23 12:37:11.1      86     14    323     88    334  80.3  84.7  34144  289.31 0854.67
2009/04/23 12:37:11.2      24    -14    245     29    246 120.7  90.0  34138  289.21 0854.67
2009/04/23 12:37:11.3      41   -467    501    469    686 174.9  52.2  34142  289.26 0854.67
2009/04/23 12:37:11.4     127   -553    189    568    599 167.0  18.4  34130  289.07 0854.67
2009/04/23 12:37:11.5    -156   -467   -141    493    513 198.5 -16.0  34130  289.05 0854.67
2009/04/23 12:37:11.6      99     39    317    107    334  68.3  80.9  34114  288.80 0854.67
2009/04/23 12:37:11.7      16    -53    450     56    453 163.1  90.0  34142  289.25 0854.66
2009/04/23 12:37:11.8     -15     36    -51     40     64 337.3 -62.9  34144  289.30 0854.66
2009/04/23 12:37:11.9       6     65    -45     66     79   5.3 -42.0  34140  289.24 0854.66
2009/04/23 12:37:12.0      25    231    -12    233    234   6.2  -3.2  34138  289.19 0854.66
2009/04/23 12:37:12.1     -21    238   -112    239    263 354.9 -31.5  34138  289.19 0854.66
2009/04/23 12:37:12.2      60     17    -63     63     89  74.1 -54.5  34138  289.21 0854.66
2009/04/23 12:37:12.3     113    -68    167    132    212 121.1  57.9  34146  289.33 0854.66
2009/04/23 12:37:12.4      75    187    164    202    260  21.9  43.5  34142  289.27 0854.66
2009/04/23 12:37:12.5      48    102    118    113    163  25.3  51.2  34146  289.33 0854.66
2009/04/23 12:37:12.6     126    196     70    234    245  32.7  16.6  34142  289.25 0854.66
2009/04/23 12:37:12.7     134    196    168    238    291  34.3  38.6  34140  289.22 0854.66
2009/04/23 12:37:12.8     206     55    205    214    296  75.0  48.7  34138  289.19 0854.66
2009/04/23 12:37:12.9     -25   -102    -14    106    107 193.8  -7.7  34146  289.33 0854.66
2009/04/23 12:37:13.0     161   -364    270    399    481 156.2  37.3  34138  289.19 0854.66
2009/04/23 12:37:13.1     303   -460    379    552    669 146.6  37.8  34126  288.99 0854.66
2009/04/23 12:37:13.2     232   -485    255    538    595 154.4  27.2  34116  288.83 0854.66
2009/04/23 12:37:13.3     173   -480    251    511    569 160.2  28.2  34130  289.06 0854.66
2009/04/23 12:37:13.4      28   -535    233    536    584 177.0  25.1  34132  289.10 0854.66
2009/04/23 12:37:13.5    -170   -392    271    428    506 203.4  35.5  34130  289.05 0854.66
2009/04/23 12:37:13.6    -200   -531    -73    568    573 200.7  -7.4  34126  289.00 0854.68
2009/04/23 12:37:13.7    -378   -331   -159    503    527 228.7 -22.6  34128  289.04 0854.68
2009/04/23 12:37:13.8    -126   -467    -45    484    487 195.2  -5.4  34124  288.96 0854.68
2009/04/23 12:37:13.9    -127   -595     32    609    610 192.1   3.0  34130  289.07 0854.68
2009/04/23 12:37:14.0      21   -585    132    586    601 177.9  12.8  34130  289.07 0854.68
2009/04/23 12:37:14.1      39   -595    116    597    609 176.2  11.0  34124  288.95 0854.68
2009/04/23 12:37:14.2     103   -397    -60    411    416 165.4  -8.4  34126  288.99 0854.68
2009/04/23 12:37:14.3      66   -429    -36    435    437 171.2  -4.8  34128  289.02 0854.68
2009/04/23 12:37:14.4      58   -274    101    281    299 168.0  19.9  34126  289.00 0854.68
2009/04/23 12:37:14.5     144   -130    109    195    223 132.2  31.6  34132  289.09 0854.68
2009/04/23 12:37:14.6     251   -124    102    281    298 116.4  20.9  34130  289.07 0854.68
2009/04/23 12:37:14.7     288    -44    127    292    318  98.8  25.0  34134  289.12 0854.68
2009/04/23 12:37:14.8     273     -7    170    274    322  91.5  34.9  34128  289.02 0854.68
2009/04/23 12:37:14.9      38    -85    160     94    185 155.5  66.8  34136  289.16 0854.68
2009/04/23 12:37:15.0     220     -3    136    221    259  90.8  34.5  34126  289.00 0854.68
2009/04/23 12:37:15.1     143    125     66    191    203  48.9  19.2  34130  289.06 0854.68
2009/04/23 12:37:15.2      -6      6     43      9     43 315.0  88.0  34126  289.01 0854.68
2009/04/23 12:37:15.3       6     72     79     73    107   5.3  52.2  34132  289.09 0854.68
2009/04/23 12:37:15.4     -92   -195    197    216    292 205.3  47.1  34130  289.05 0854.68
2009/04/23 12:37:15.5    -231   -256    191    346    395 222.1  31.4  34134  289.13 0854.68
2009/04/23 12:37:15.6    -260   -221    225    342    409 229.7  36.4  34128  289.03 0854.68
2009/04/23 12:37:15.7    -195   -371    218    420    473 207.7  29.8  34128  289.04 0854.68
2009/04/23 12:37:15.8    -194   -408    214    453    501 205.5  27.1  34116  288.81 0854.68
2009/04/23 12:37:15.9    -545     26    174    546    574 272.8  17.7  34132  289.11 0854.68
2009/04/23 12:37:16.0    -120   -121    153    171    229 224.8  46.4  34138  289.19 0854.68
2009/04/23 12:37:16.1       6   -155     83    156    176 177.8  30.3  34138  289.21 0854.68
2009/04/23 12:37:16.2    -193   -160      7    251    252 230.4   1.7  34138  289.19 0854.68
2009/04/23 12:37:16.3     -71   -415    150    422    447 189.8  20.2  34120  288.90 0854.68
2009/04/23 12:37:16.4      88   -358    338    369    500 166.2  47.3  34132  289.09 0854.68
2009/04/23 12:37:16.5     339   -281    193    441    481 129.7  25.2  34120  288.88 0854.68
2009/04/23 12:37:16.6     422   -508    231    661    700 140.3  20.0  34120  288.90 0854.68
2009/04/23 12:37:16.7     524   -354    417    633    758 124.1  36.5  34126  289.00 0854.68
2009/04/23 12:37:16.8     493    -27    179    494    525  93.1  20.8  34130  289.05 0854.68
2009/04/23 12:37:16.9     398   -480    219    624    662 140.3  19.4  34136  289.15 0854.68
2009/04/23 12:37:17.0     317   -432    299    536    613 143.7  31.4  34132  289.10 0854.68
2009/04/23 12:37:17.1      52   -515    306    518    601 174.2  33.4  34138  289.19 0854.68
2009/04/23 12:37:17.2     -62   -461    143    466    488 187.7  17.1  34134  289.12 0854.68
2009/04/23 12:37:17.3     -36   -463    103    465    477 184.5  12.5  34130  289.08 0854.68
2009/04/23 12:37:17.4    -130   -398    216    419    471 198.1  29.3  34136  289.17 0854.68
2009/04/23 12:37:17.5    -159   -306    239    346    420 207.5  37.9  34134  289.13 0854.68
2009/04/23 12:37:17.6    -115   -117     69    165    178 224.5  23.8  34134  289.14 0854.68
2009/04/23 12:37:17.7       6    -29     58     30     65 168.4  69.8  34136  289.16 0854.68
2009/04/23 12:37:17.8      84     17    148     86    171  78.5  67.2  34140  289.23 0854.68
2009/04/23 12:37:17.9      17    -97     99     99    140 169.8  50.1  34134  289.14 0854.68
2009/04/23 12:37:18.0      59    -48    105     77    130 129.5  60.5  34138  289.21 0854.68
2009/04/23 12:37:18.1      26     87    116     91    147  16.9  57.5  34136  289.16 0854.68
2009/04/23 12:37:18.2      20     98    140    101    172  11.6  61.1  34140  289.24 0854.68
2009/04/23 12:37:18.3      52    -17    146     55    156 108.4  79.1  34142  289.26 0854.68
2009/04/23 12:37:18.4      93     18    165     95    190  78.5  67.5  34138  289.21 0854.68
2009/04/23 12:37:18.5      68    -83    129    108    168 140.3  55.8  34140  289.23 0854.68
2009/04/23 12:37:18.6     -40     36    100     54    113 312.2  68.9  34146  289.35 0854.68
2009/04/23 12:37:18.7      -5    -35    131     36    135 188.0  84.8  34146  289.35 0854.68
2009/04/23 12:37:18.8     -31     48    127     58    139 327.5  73.5  34146  289.33 0854.68
2009/04/23 12:37:18.9      12   -155    177    156    235 175.5  54.2  34144  289.31 0854.68
2009/04/23 12:37:19.0      45    -95    143    106    178 154.5  60.0  34126  289.01 0854.68
2009/04/23 12:37:19.1      14     57     72     59     93  14.3  56.4  34142  289.26 0854.68
2009/04/23 12:37:19.2     -10    -49     26     51     57 191.6  28.2  34140  289.24 0854.68
2009/04/23 12:37:19.3    -128   -195    -71    234    245 213.2 -17.0  34142  289.27 0854.68
2009/04/23 12:37:19.4     -92   -433     95    443    454 192.0  12.1  34142  289.26 0854.68
2009/04/23 12:37:19.5     -47   -271     86    276    290 190.0  17.3  34140  289.24 0854.68
2009/04/23 12:37:19.6      33    -83    131     90    158 158.2  62.4  34142  289.26 0854.68
2009/04/23 12:37:19.7     -84    -95    120    127    174 221.5  48.7  34142  289.26 0854.68
2009/04/23 12:37:19.8    -196     29     82    199    215 278.6  23.4  34136  289.18 0854.68
2009/04/23 12:37:19.9    -247    105    -51    269    274 293.1 -10.9  34142  289.25 0854.68
2009/04/23 12:37:20.0    -234     78    -31    247    249 288.4  -7.2  34140  289.24 0854.68
2009/04/23 12:37:20.1    -180    -49     39    187    192 254.7  12.0  34138  289.19 0854.68
2009/04/23 12:37:20.2    -273   -153    123    314    337 240.7  22.5  34138  289.20 0854.68
2009/04/23 12:37:20.3    -182    -11      0    183    184 266.5   0.0  34140  289.24 0854.68
2009/04/23 12:37:20.4    -448     14     39    449    451 271.9   5.1  34146  289.34 0854.68
2009/04/23 12:37:20.5    -450   -117     87    466    474 255.4  10.6  34148  289.37 0854.68
2009/04/23 12:37:20.6    -517     55    107    520    532 276.1  11.7  34136  289.16 0854.68
2009/04/23 12:37:20.7    -208    -54    238    215    320 255.4  53.4  34140  289.22 0854.68
2009/04/23 12:37:20.8    -278     31    148    280    316 276.4  30.2  34146  289.32 0854.68
2009/04/23 12:37:20.9    -371     16     74    372    380 272.6  11.3  34146  289.35 0854.68
2009/04/23 12:37:21.0    -222     96    133    243    277 293.5  31.3  34148  289.37 0854.68
2009/04/23 12:37:21.1    -282     97    133    299    327 289.1  25.7  34144  289.31 0854.68
2009/04/23 12:37:21.2    -171    -85    166    192    253 243.4  45.4  34146  289.34 0854.68
2009/04/23 12:37:21.3      47   -168    -97    175    200 164.2 -35.8  34142  289.26 0854.68
2009/04/23 12:37:21.4      76   -120      1    143    144 147.5   0.7  34142  289.28 0854.68
2009/04/23 12:37:21.5     -15   -242    -78    243    256 183.6 -17.9  34140  289.24 0854.68
2009/04/23 12:37:21.6      16   -149      0    150    151 173.8   0.2  34138  289.21 0854.68
2009/04/23 12:37:21.7    -387    -16     10    388    389 267.5   1.5  34140  289.23 0854.68
2009/04/23 12:37:21.8    -292    -45   -193    296    353 261.2 -40.6  34142  289.25 0854.68
2009/04/23 12:37:21.9    -374   -216   -111    433    448 240.0 -14.4  34146  289.34 0854.68
2009/04/23 12:37:22.0    -379   -368   -265    529    591 225.9 -33.1  34138  289.19 0854.68
2009/04/23 12:37:22.1    -533   -123   -140    548    566 257.0 -14.4  34134  289.13 0854.68
2009/04/23 12:37:22.2    -513   -440   -206    677    708 229.4 -16.9  34126  289.00 0854.68
2009/04/23 12:37:22.3    -468   -426   -306    633    703 227.7 -32.2  34120  288.90 0854.68
2009/04/23 12:37:22.4    -315   -493     -5    586    587 212.6  -0.5  34124  288.95 0854.68
2009/04/23 12:37:22.5     -25   -494    -21    495    496 182.9  -2.5  34138  289.20 0854.68
2009/04/23 12:37:22.6     -92   -456   -109    466    479 191.5 -13.2  34142  289.27 0854.68
2009/04/23 12:37:22.7     -82   -424    140    432    455 191.0  18.0  34142  289.27 0854.69
2009/04/23 12:37:22.8    -270   -164    -60    316    322 238.7 -10.9  34132  289.10 0854.69
2009/04/23 12:37:22.9    -219   -502     -2    549    550 203.6  -0.3  34146  289.35 0854.69
2009/04/23 12:37:23.0    -297   -504     72    585    590 210.5   7.1  34134  289.12 0854.69
2009/04/23 12:37:23.1    -270   -445     53    521    524 211.3   5.9  34144  289.31 0854.69
2009/04/23 12:37:23.2    -356   -324      2    482    483 227.7   0.3  34144  289.30 0854.69
2009/04/23 12:37:23.3    -390   -246    -73    462    468 237.7  -9.0  34142  289.25 0854.69
2009/04/23 12:37:23.4    -447   -210    100    495    505 244.8  11.5  34146  289.35 0854.69
2009/04/23 12:37:23.5    -459   -207   -153    504    527 245.7 -16.9  34140  289.24 0854.69
2009/04/23 12:37:23.6    -516   -243   -172    571    596 244.8 -21.7  34128  289.03 0854.69
2009/04/23 12:37:23.7    -517    -61   -120    521    535 263.2 -13.0  34142  289.26 0854.69
2009/04/23 12:37:23.8    -609    -52   -198    612    644 265.0 -17.9  34122  288.94 0854.69
2009/04/23 12:37:23.9    -464   -124   -169    481    511 255.0 -19.4  34134  289.13 0854.69
2009/04/23 12:37:24.0    -558   -261   -138    617    633 244.9 -12.7  34126  288.99 0854.69
2009/04/23 12:37:24.1    -315   -254    110    405    420 231.1  15.3  34120  288.90 0854.69
2009/04/23 12:37:24.2    -550   -162    -68    574    579 253.6  -6.8  34130  289.05 0854.69
2009/04/23 12:37:24.3    -822   -525   -161    976    990 237.4  -9.4  34126  288.98 0854.69
2009/04/23 12:37:24.4    -352   -500    -78    612    617 215.2  -7.3  34136  289.18 0854.69
2009/04/23 12:37:24.5    -452   -483     -6    662    663 223.1  -0.6  34136  289.17 0854.69
2009/04/23 12:37:24.6    -415   -569     60    705    708 216.1   4.9  34136  289.15 0854.69
2009/04/23 12:37:24.7    -425   -534   -112    683    693 218.5  -9.3  34140  289.22 0854.71
2009/04/23 12:37:24.8    -389   -486   -163    623    644 218.7 -14.7  34130  289.08 0854.71
2009/04/23 12:37:24.9    -460   -519   -233    694    733 221.6 -18.6  34130  289.08 0854.71
2009/04/23 12:37:25.0    -414   -443   -249    607    656 223.1 -28.0  34128  289.03 0854.71
2009/04/23 12:37:25.1    -270   -543   -176    607    632 206.5 -20.9  34130  289.08 0854.71
2009/04/23 12:37:25.2    -102   -567   -244    577    626 190.2 -28.7  34136  289.17 0854.71
2009/04/23 12:37:25.3     -78   -566   -246    572    622 187.9 -29.3  34130  289.05 0854.71
2009/04/23 12:37:25.4     -91   -532   -186    540    572 189.7 -19.1  34130  289.06 0854.71
2009/04/23 12:37:25.5      57   -372   -125    377    398 171.2 -18.3  34128  289.04 0854.71
2009/04/23 12:37:25.6     317   -294    101    433    445 132.8  13.1  34118  288.87 0854.71
2009/04/23 12:37:25.7     264   -423    295    499    579 148.0  33.4  34140  289.24 0854.71
2009/04/23 12:37:25.8     286   -587    226    654    693 154.0  19.1  34134  289.14 0854.71
2009/04/23 12:37:25.9     394   -401     53    563    566 135.5   5.4  34136  289.16 0854.71
2009/04/23 12:37:26.0      39   -425    100    428    440 174.7  13.2  34132  289.11 0854.71
2009/04/23 12:37:26.1    -123   -216    194    249    315 209.6  42.0  34130  289.07 0854.71
2009/04/23 12:37:26.3    -452   -278    -67    531    536 238.4  -7.2  34134  289.13 0854.71
2009/04/23 12:37:26.3    -251   -435   -138    503    522 210.0 -15.4  34138  289.20 0854.71
2009/04/23 12:37:26.4    -354   -702     35    787    788 206.8   2.6  34134  289.12 0854.71
2009/04/23 12:37:26.5    -293   -588     13    657    658 206.5   1.2  34142  289.26 0854.71
2009/04/23 12:37:26.6    -146   -560      8    579    580 194.7   0.8  34138  289.19 0854.71
2009/04/23 12:37:26.7    -297   -674     41    737    739 203.8   3.2  34140  289.24 0854.73
2009/04/23 12:37:26.8    -398   -562   -206    689    720 215.3 -16.6  34130  289.05 0854.73
2009/04/23 12:37:26.9    -463   -448   -255    645    693 225.9 -27.3  34128  289.04 0854.73
2009/04/23 12:37:27.0    -566   -511   -230    763    796 227.9 -21.7  34130  289.05 0854.73
2009/04/23 12:37:27.1    -423   -518   -184    669    694 219.2 -15.4  34130  289.05 0854.73
2009/04/23 12:37:27.2    -428   -485   -228    648    686 221.4 -24.6  34132  289.10 0854.73
2009/04/23 12:37:27.3    -312   -404   -306    511    595 217.8 -38.1  34134  289.14 0854.73
2009/04/23 12:37:27.4    -232   -608   -296    652    716 200.9 -30.6  34134  289.12 0854.73
2009/04/23 12:37:27.5    -143   -632   -284    649    708 192.8 -29.6  34122  288.92 0854.73
2009/04/23 12:37:27.6    -229   -572   -287    617    680 201.8 -31.3  34132  289.09 0854.73
2009/04/23 12:37:27.7    -359   -373   -262    518    580 223.9 -33.2  34136  289.18 0854.73
2009/04/23 12:37:27.8    -244   -282   -121    374    394 220.9 -17.9  34126  288.98 0854.73
2009/04/23 12:37:27.9    -134   -500    115    518    531 195.1  12.6  34134  289.13 0854.73
2009/04/23 12:37:28.0    -228   -533    -41    581    583 203.2  -4.1  34130  289.05 0854.73
2009/04/23 12:37:28.1    -204   -647    -41    679    681 197.5  -3.5  34132  289.10 0854.73
2009/04/23 12:37:28.2      26   -610    148    611    629 177.5  13.7  34136  289.18 0854.73
2009/04/23 12:37:28.3      61   -573    176    577    604 173.9  17.0  34132  289.10 0854.73
2009/04/23 12:37:28.4      66   -569     59    573    576 173.3   5.9  34136  289.15 0854.73
2009/04/23 12:37:28.5      86   -504     53    512    515 170.3   6.0  34134  289.12 0854.73
2009/04/23 12:37:28.6     228   -482     49    534    537 154.7   5.3  34132  289.09 0854.73
2009/04/23 12:37:28.7     345   -375    146    510    531 137.4  16.0  34132  289.09 0854.70
2009/04/23 12:37:28.8     348   -404    149    534    555 139.2  15.6  34128  289.04 0854.70
2009/04/23 12:37:28.9     370   -446    239    580    627 140.4  23.7  34130  289.05 0854.70
2009/04/23 12:37:29.0     305   -503    196    589    621 148.8  18.4  34126  288.98 0854.70
2009/04/23 12:37:29.1     237   -572    246    620    667 157.5  22.9  34130  289.06 0854.70
2009/04/23 12:37:29.2     244   -601    263    649    700 157.9  23.2  34130  289.05 0854.70
2009/04/23 12:37:29.3     216   -635    312    671    739 161.2  26.7  34130  289.08 0854.70
2009/04/23 12:37:29.4     158   -621    360    641    735 165.7  31.7  34138  289.20 0854.70
2009/04/23 12:37:29.5     191   -596    263    626    679 162.2  24.2  34132  289.10 0854.70
2009/04/23 12:37:29.6     312   -542    364    626    724 150.1  32.8  34136  289.16 0854.70
2009/04/23 12:37:29.7     158   -324    280    361    456 154.0  41.7  34126  289.00 0854.70
2009/04/23 12:37:29.8     213   -135    246    253    352 122.5  49.2  34128  289.02 0854.70
2009/04/23 12:37:29.9     317    -54    201    322    379  99.7  35.2  34136  289.18 0854.70
2009/04/23 12:37:30.0     293    -66    190    301    355 102.8  35.3  34136  289.15 0854.70
2009/04/23 12:37:30.1     103    -72    221    126    254 125.1  67.8  34136  289.18 0854.70
2009/04/23 12:37:30.2       6     85    107     86    137   4.4  56.4  34142  289.28 0854.70
2009/04/23 12:37:30.3    -117    -86    194    146    242 233.6  59.4  34136  289.18 0854.70
2009/04/23 12:37:30.4     -88   -151    302    176    349 210.3  67.1  34142  289.27 0854.70
2009/04/23 12:37:30.5    -291   -420    325    512    606 214.7  35.5  34130  289.08 0854.70
2009/04/23 12:37:30.6       1   -277    181    278    331 179.8  36.0  34130  289.07 0854.70
2009/04/23 12:37:30.7     -46    -92    240    103    261 206.7  75.5  34138  289.21 0854.71
2009/04/23 12:37:30.8      30     91    245     96    263  18.3  77.6  34142  289.26 0854.71
2009/04/23 12:37:30.9     -16   -149    305    150    339 186.3  72.1  34144  289.31 0854.71
2009/04/23 12:37:31.0    -148   -192    354    243    429 217.8  62.6  34136  289.16 0854.71
2009/04/23 12:37:31.1      77    -64    254    101    273 129.5  77.1  34142  289.26 0854.71
2009/04/23 12:37:31.2    -174   -295    339    343    482 210.7  49.8  34138  289.19 0854.71
2009/04/23 12:37:31.3      41    115    268    123    294  20.0  73.8  34128  289.03 0854.71
2009/04/23 12:37:31.4    -110    250    262    274    379 336.2  48.7  34136  289.18 0854.71
2009/04/23 12:37:31.5    -176     83    229    195    300 295.4  55.4  34140  289.22 0854.71
2009/04/23 12:37:31.6     -75    -47    221     89    238 237.6  77.1  34146  289.35 0854.71
2009/04/23 12:37:31.7      60     25    230     66    239  67.4  83.8  34140  289.23 0854.71
2009/04/23 12:37:31.8     110    -65    186    129    226 120.7  62.1  34142  289.26 0854.71
2009/04/23 12:37:31.9      51     81    171     96    196  32.1  68.8  34148  289.36 0854.71
2009/04/23 12:37:32.0      60     47    156     77    173  52.2  72.1  34148  289.38 0854.71
2009/04/23 12:37:32.1      -1    -60    137     61    149 181.0  74.5  34142  289.28 0854.71
2009/04/23 12:37:32.2      85     96    173    129    215  41.5  59.8  34136  289.16 0854.71
2009/04/23 12:37:32.3      15    153    144    154    210   5.8  48.0  34150  289.41 0854.71
2009/04/23 12:37:32.4      23    129    111    132    172  10.2  44.3  34148  289.36 0854.71
2009/04/23 12:37:32.5      58     32    106     67    125  61.1  64.7  34146  289.35 0854.71
2009/04/23 12:37:32.6      63     -6     89     64    109  96.1  60.6  34146  289.33 0854.71
2009/04/23 12:37:32.7     138    -11    184    139    230  94.8  59.2  34148  289.36 0854.70
2009/04/23 12:37:32.8     143    -23    145    145    205  99.2  50.1  34152  289.43 0854.70
2009/04/23 12:37:32.9      94    -26    140     98    170 105.9  61.5  34156  289.50 0854.70
2009/04/23 12:37:33.0     151    -11    139    152    205  94.4  47.1  34146  289.33 0854.70
2009/04/23 12:37:33.1      80    -25    143     85    166 107.7  66.8  34150  289.41 0854.70
2009/04/23 12:37:33.2      52    -87    129    102    164 149.3  57.9  34146  289.33 0854.70
2009/04/23 12:37:33.3     -13   -144    119    145    187 185.3  43.7  34142  289.28 0854.70
2009/04/23 12:37:33.4     -60   -188     92    198    218 197.8  27.1  34142  289.26 0854.70
2009/04/23 12:37:33.6     -56   -159     32    169    173 199.6  10.8  34138  289.19 0854.70
2009/04/23 12:37:33.7     -43   -128     72    136    153 198.7  30.3  34144  289.30 0854.70
2009/04/23 12:37:33.8     -71    -69     79    100    127 225.6  42.7  34144  289.31 0854.70
2009/04/23 12:37:33.9     -61    -58     72     85    111 226.4  44.3  34144  289.30 0854.70
2009/04/23 12:37:34.0     -50     23     34     56     65 295.2  35.5  34144  289.31 0854.70
2009/04/23 12:37:34.1     -64    179     83    191    208 340.2  25.1  34152  289.43 0854.70
2009/04/23 12:37:34.2      33    172    127    176    217  11.1  39.5  34154  289.46 0854.70
2009/04/23 12:37:34.3      47    154      8    162    163  16.9   2.9  34160  289.57 0854.70
2009/04/23 12:37:34.4      35    148     55    153    162  13.4  20.4  34176  289.85 0854.70
2009/04/23 12:37:34.5      64    126     48    142    151  27.1  18.9  34190  290.08 0854.70
2009/04/23 12:37:34.6    -100     19    -25    102    106 281.0 -13.9  34166  289.67 0854.70
2009/04/23 12:37:34.7      -3   -147    -91    148    173 181.4 -39.4  34148  289.36 0854.70
2009/04/23 12:37:34.8      77    -23   -206     81    221 106.8 -81.8  34158  289.55 0854.70
2009/04/23 12:37:34.9    -118   -181   -155    217    266 213.0 -43.7  34144  289.31 0854.70
2009/04/23 12:37:35.0     -94   -123    -55    156    166 217.4 -19.7  34140  289.23 0854.70
2009/04/23 12:37:35.1    -146      6    -57    147    157 272.6 -26.7  34136  289.18 0854.70
2009/04/23 12:37:35.2    -238     -7    -95    239    257 268.1 -27.4  34148  289.37 0854.70
2009/04/23 12:37:35.3    -227    -11   -238    228    329 267.0 -55.6  34144  289.29 0854.70
2009/04/23 12:37:35.4    -376   -157   -174    408    443 247.3 -29.2  34136  289.17 0854.70
2009/04/23 12:37:35.5    -334   -260   -183    424    461 232.2 -29.4  34138  289.21 0854.70
2009/04/23 12:37:35.6    -231   -408    -18    470    471 209.5  -2.3  34146  289.35 0854.70
2009/04/23 12:37:35.7    -230   -271     31    356    358 220.3   5.1  34142  289.28 0854.70
2009/04/23 12:37:35.8    -209   -373      6    428    429 209.3   0.9  34138  289.19 0854.70
2009/04/23 12:37:35.9    -227   -266    180    350    393 220.5  29.3  34132  289.11 0854.70
2009/04/23 12:37:36.0    -438   -183    168    475    504 247.3  19.5  34142  289.25 0854.70
2009/04/23 12:37:36.1    -321     65     77    328    337 281.5  13.3  34142  289.28 0854.70
2009/04/23 12:37:36.2    -324    -88    120    336    356 254.8  20.4  34148  289.38 0854.70
2009/04/23 12:37:36.3    -251   -154    181    295    346 238.5  34.6  34146  289.35 0854.70
2009/04/23 12:37:36.4    -261   -216    117    340    360 230.4  19.1  34146  289.35 0854.70
2009/04/23 12:37:36.5    -292    -96     -6    308    309 251.8  -1.3  34148  289.37 0854.70
2009/04/23 12:37:36.6    -238    -67     77    248    260 254.3  17.3  34150  289.39 0854.70
2009/04/23 12:37:36.7    -303      9      3    304    305 271.7   0.7  34146  289.34 0854.70
2009/04/23 12:37:36.8    -265     33     -2    268    269 277.2  -0.5  34144  289.31 0854.72
2009/04/23 12:37:36.9    -292     30     72    294    303 275.9  13.9  34148  289.36 0854.72
2009/04/23 12:37:37.0    -209     15    113    210    238 274.1  30.6  34154  289.46 0854.72
2009/04/23 12:37:37.1    -185     61     65    195    206 288.4  18.6  34152  289.43 0854.72
2009/04/23 12:37:37.2    -173    -69     95    187    209 248.3  29.1  34148  289.38 0854.72
2009/04/23 12:37:37.3     -75   -143    155    162    224 207.6  48.7  34144  289.31 0854.72
2009/04/23 12:37:37.4    -176     43     82    182    199 283.9  25.9  34150  289.40 0854.72
2009/04/23 12:37:37.5     -94   -178     55    202    210 207.9  15.3  34146  289.35 0854.72
2009/04/23 12:37:37.6    -115   -169     82    205    220 214.3  23.0  34150  289.41 0854.72
2009/04/23 12:37:37.7    -188   -141     92    236    253 233.1  22.3  34148  289.36 0854.72
2009/04/23 12:37:37.8    -187    -14    214    188    284 265.6  54.3  34156  289.51 0854.74
2009/04/23 12:37:37.9    -158    -43    140    164    215 254.5  44.8  34156  289.50 0854.74
2009/04/23 12:37:38.0     -70     57    231     91    248 309.5  77.6  34178  289.89 0854.74
2009/04/23 12:37:38.1      67      3    162     68    175  87.4  76.1  34180  289.92 0854.74
2009/04/23 12:37:38.2     170   -121     96    209    229 125.5  26.6  34172  289.79 0854.74
2009/04/23 12:37:38.3     149   -247    221    289    363 148.8  41.4  34146  289.35 0854.74
2009/04/23 12:37:38.4     210   -223    271    307    409 136.7  45.9  34138  289.21 0854.74
2009/04/23 12:37:38.5     113   -199     91    229    246 150.4  23.0  34136  289.17 0854.74
2009/04/23 12:37:38.6      33   -275    116    278    301 173.1  24.1  34132  289.09 0854.74
2009/04/23 12:37:38.7     -39   -252    114    256    280 188.9  25.3  34142  289.27 0854.74
2009/04/23 12:37:38.8     -17   -229     71    230    241 184.4  17.3  34140  289.22 0854.74
2009/04/23 12:37:38.9      -9   -274     45    275    279 182.0   9.3  34140  289.22 0854.74
2009/04/23 12:37:39.0    -117   -209    122    240    269 209.2  29.1  34136  289.15 0854.74
2009/04/23 12:37:39.1    -114   -136     16    178    179 220.1   5.4  34138  289.21 0854.74
2009/04/23 12:37:39.2     -15   -202     -7    203    204 184.5  -2.2  34140  289.23 0854.74
2009/04/23 12:37:39.3      81   -312    -97    323    338 165.3 -16.8  34142  289.26 0854.74
2009/04/23 12:37:39.4     105   -277    -86    297    310 159.1 -16.2  34140  289.24 0854.74
2009/04/23 12:37:39.5     144   -312    124    344    365 155.2  20.7  34146  289.32 0854.74
2009/04/23 12:37:39.6     159   -294    207    335    393 151.5  34.6  34138  289.20 0854.74
2009/04/23 12:37:39.7     259   -259    188    367    412 135.0  29.2  34138  289.20 0854.74
2009/04/23 12:37:39.8     272   -161    200    317    374 120.7  35.5  34136  289.18 0854.71
2009/04/23 12:37:39.9     260    -74    124    271    298 105.9  26.2  34140  289.24 0854.71
2009/04/23 12:37:40.0     114   -344    131    363    385 161.7  20.7  34138  289.20 0854.71
2009/04/23 12:37:40.1      81   -424    149    432    458 169.2  19.1  34136  289.17 0854.71
2009/04/23 12:37:40.2     115   -348    160    367    400 161.6  25.1  34138  289.21 0854.71
2009/04/23 12:37:40.3      23   -367    135    368    391 176.3  21.0  34132  289.11 0854.71
2009/04/23 12:37:40.4     -96   -344    211    358    415 195.6  33.3  34130  289.08 0854.71
2009/04/23 12:37:40.5    -163   -216     90    271    286 217.0  18.4  34144  289.29 0854.71
2009/04/23 12:37:40.6     -70   -134    116    152    191 207.6  41.4  34134  289.13 0854.71
2009/04/23 12:37:40.7      69   -222    115    233    259 162.6  28.2  34138  289.19 0854.71
2009/04/23 12:37:40.8      17   -225      3    226    227 175.6   0.8  34138  289.19 0854.71
2009/04/23 12:37:40.9     -67   -278    -13    286    287 193.6  -2.8  34140  289.22 0854.71
2009/04/23 12:37:41.0     -91   -264     28    280    282 199.1   5.9  34140  289.22 0854.71
2009/04/23 12:37:41.1     -29   -310    102    312    329 185.4  18.1  34142  289.27 0854.71
2009/04/23 12:37:41.2     -53   -372     18    376    377 188.1   2.8  34142  289.26 0854.71
2009/04/23 12:37:41.3    -112   -368    -18    385    386 197.0  -2.8  34138  289.20 0854.71
2009/04/23 12:37:41.4     -12   -378      9    379    380 181.9   1.5  34140  289.23 0854.71
2009/04/23 12:37:41.5      61   -329    -30    335    337 169.4  -5.2  34140  289.23 0854.71
2009/04/23 12:37:41.6       8   -333     46    334    338 178.6   7.9  34142  289.26 0854.71
2009/04/23 12:37:41.7     -19   -356     57    357    362 183.1   9.2  34140  289.23 0854.71
2009/04/23 12:37:41.8     -64   -500      7    505    506 187.4   0.8  34142  289.27 0854.70
2009/04/23 12:37:41.9     -51   -359    111    363    380 188.2  17.0  34138  289.20 0854.70
2009/04/23 12:37:42.0     -48   -280     61    285    292 189.8  12.1  34136  289.15 0854.70
2009/04/23 12:37:42.1     -47   -277     76    281    292 189.7  15.2  34138  289.19 0854.70
2009/04/23 12:37:42.2      55   -205    104    213    237 164.8  28.0  34134  289.13 0854.70
2009/04/23 12:37:42.3     -31   -281    152    283    321 186.5  30.6  34140  289.22 0854.70
2009/04/23 12:37:42.4      14   -183    149    184    236 175.5  43.3  34136  289.16 0854.70
2009/04/23 12:37:42.5      62   -142    110    156    190 156.4  38.8  34140  289.23 0854.70
2009/04/23 12:37:42.6      75   -171    117    188    221 156.2  35.2  34138  289.19 0854.70
2009/04/23 12:37:42.7      36   -107    119    114    164 161.3  50.9  34138  289.21 0854.70
2009/04/23 12:37:42.8      51   -119    151    130    199 156.8  54.8  34142  289.26 0854.70
2009/04/23 12:37:42.9      89    -36    125     97    158 112.2  58.5  34142  289.28 0854.70
2009/04/23 12:37:43.0     182     24    106    184    212  82.3  32.9  34140  289.24 0854.70
2009/04/23 12:37:43.1     170      5     94    171    195  88.3  31.4  34138  289.21 0854.70
2009/04/23 12:37:43.2      95    118     29    152    155  38.7  11.1  34140  289.24 0854.70
2009/04/23 12:37:43.3     174     53      8    183    184  72.9   2.5  34140  289.23 0854.70
2009/04/23 12:37:43.4      89     33     25     95     99  69.6  15.2  34140  289.24 0854.70
2009/04/23 12:37:43.5     171    -16    -33    172    176  95.5 -10.9  34140  289.24 0854.70
2009/04/23 12:37:43.6     216      9    -27    217    219  87.6  -7.3  34142  289.26 0854.70
2009/04/23 12:37:43.7     158      2    -18    159    161  89.1  -6.7  34136  289.16 0854.70
2009/04/23 12:37:43.8      60    -57     71     83    109 133.6  44.3  34138  289.21 0854.72
2009/04/23 12:37:43.9      88    -58     39    106    112 123.7  20.4  34144  289.30 0854.72
2009/04/23 12:37:44.0      49    -69     11     85     86 144.4   7.5  34140  289.24 0854.72
2009/04/23 12:37:44.1       4    -61      7     62     63 175.5   7.1  34138  289.21 0854.72
2009/04/23 12:37:44.2       8    -51     24     52     57 170.2  27.1  34142  289.26 0854.72
2009/04/23 12:37:44.3     -40    -89     48     98    109 204.1  27.8  34140  289.24 0854.72
2009/04/23 12:37:44.4     -50    -60     43     79     89 219.6  30.8  34142  289.28 0854.72
2009/04/23 12:37:44.5     -81    -26     16     86     88 252.3  10.6  34140  289.24 0854.72
2009/04/23 12:37:44.6     -91    -12    -33     92     97 262.1 -23.8  34142  289.26 0854.72
2009/04/23 12:37:44.7     -22    -72     53     76     92 196.9  38.0  34140  289.24 0854.72
2009/04/23 12:37:44.8    -108    -44      1    117    118 247.4   0.8  34144  289.30 0854.72
2009/04/23 12:37:44.9    -111    -37     -4    118    119 251.4  -2.2  34142  289.28 0854.72
2009/04/23 12:37:45.0     -57      7     42     58     71 277.9  39.7  34144  289.31 0854.72
2009/04/23 12:37:45.1     -57     -3     45     58     73 266.5  42.7  34146  289.35 0854.72
2009/04/23 12:37:45.2     -60    -17      0     63     64 254.1  -0.3  34144  289.30 0854.72
2009/04/23 12:37:45.3     -93     77      9    122    123 309.6   4.4  34134  289.14 0854.72
2009/04/23 12:37:45.4     -34    228     75    231    244 351.5  18.1  34142  289.25 0854.72
2009/04/23 12:37:45.5      24    203    103    205    229   6.9  28.7  34142  289.28 0854.72
2009/04/23 12:37:45.6      76    231     88    244    259  18.3  20.7  34156  289.49 0854.72
2009/04/23 12:37:45.7      89    123    131    152    200  36.0  45.4  34174  289.80 0854.72
2009/04/23 12:37:45.8     -41    -34    136     54    146 230.5  77.1  34164  289.63 0854.68
2009/04/23 12:37:45.9      91     47     21    103    106  62.5  11.6  34156  289.50 0854.68
2009/04/23 12:37:46.0     -32      6     54     33     63 281.4  65.7  34154  289.48 0854.68
2009/04/23 12:37:46.1      -9    126     49    127    136 355.6  22.0  34154  289.48 0854.68
2009/04/23 12:37:46.2      25    -64    160     69    174 158.2  75.5  34152  289.45 0854.68
2009/04/23 12:37:46.3      18   -230    342    231    412 175.5  62.7  34146  289.33 0854.68
2009/04/23 12:37:46.4       7   -274    295    275    403 178.4  52.2  34152  289.45 0854.68
2009/04/23 12:37:46.5      15   -302    227    303    378 177.1  40.6  34142  289.26 0854.68
2009/04/23 12:37:46.6    -103   -297    147    315    347 199.2  27.1  34146  289.33 0854.68
2009/04/23 12:37:46.7     -30   -336    153    338    371 185.2  26.0  34146  289.33 0854.68
2009/04/23 12:37:46.8     -75   -363     -1    371    372 191.8  -0.3  34142  289.26 0854.68
2009/04/23 12:37:46.9    -130   -345     76    369    377 200.7  11.8  34138  289.20 0854.68
2009/04/23 12:37:47.0    -146   -381     -8    409    410 201.0  -1.2  34144  289.29 0854.68
2009/04/23 12:37:47.1     -42   -358   -172    361    399 186.7 -31.7  34142  289.25 0854.68
2009/04/23 12:37:47.2    -147   -359    -50    389    393 202.3  -7.3  34144  289.30 0854.68
2009/04/23 12:37:47.3    -436   -486   -127    654    667 221.9 -11.0  34134  289.14 0854.68
2009/04/23 12:37:47.4    -207   -403    139    454    475 207.2  17.1  34142  289.25 0854.68
2009/04/23 12:37:47.5     -59   -340    186    346    392 189.9  30.5  34142  289.25 0854.68
2009/04/23 12:37:47.6    -298   -423    -22    518    519 215.2  -2.5  34142  289.28 0854.68
2009/04/23 12:37:47.7    -214   -499     33    544    545 203.2   3.5  34142  289.26 0854.68
2009/04/23 12:37:47.8    -208   -363      5    419    420 209.9   0.7  34146  289.33 0854.70
2009/04/23 12:37:47.9    -198   -342    -61    396    401 210.1  -8.9  34148  289.38 0854.70
2009/04/23 12:37:48.0    -199   -422    -37    467    469 205.3  -4.6  34146  289.32 0854.70
2009/04/23 12:37:48.1    -325   -351   -184    479    513 222.8 -26.5  34140  289.23 0854.70
2009/04/23 12:37:48.2    -216   -342   -111    405    421 212.3 -15.4  34144  289.31 0854.70
2009/04/23 12:37:48.3     -97   -294   -112    310    329 198.3 -25.0  34148  289.36 0854.70
2009/04/23 12:37:48.4       5   -341   -150    342    373 179.1 -29.6  34132  289.10 0854.70
2009/04/23 12:37:48.5     -57   -398     -6    403    404 188.2  -0.9  34142  289.27 0854.70
2009/04/23 12:37:48.6    -146   -361    110    390    406 202.1  15.8  34144  289.30 0854.70
2009/04/23 12:37:48.7    -171   -301    150    347    378 209.6  24.9  34136  289.18 0854.70
2009/04/23 12:37:48.8    -193   -209    103    285    303 222.8  20.9  34140  289.22 0854.70
2009/04/23 12:37:48.9    -236   -165    -28    289    291 235.0  -5.6  34140  289.24 0854.70
2009/04/23 12:37:49.0    -236   -171   -174    292    339 234.0 -38.1  34140  289.24 0854.70
2009/04/23 12:37:49.1    -233   -192   -271    302    405 230.5 -50.9  34138  289.21 0854.70
2009/04/23 12:37:49.2    -422    -79   -228    430    486 259.3 -34.6  34138  289.20 0854.70
2009/04/23 12:37:49.3    -316    -64   -313    323    449 258.5 -53.4  34148  289.38 0854.70
2009/04/23 12:37:49.4    -387   -181   -135    428    448 244.9 -22.5  34148  289.38 0854.70
2009/04/23 12:37:49.5    -168   -242     77    295    305 214.7  14.7  34150  289.39 0854.70
2009/04/23 12:37:49.6    -199   -225   -287    301    415 221.5 -53.0  34144  289.30 0854.70
2009/04/23 12:37:49.7    -153   -113    -76    191    205 233.6 -27.2  34148  289.38 0854.70
2009/04/23 12:37:49.8    -271    -46   -180    275    328 260.3 -40.7  34148  289.36 0854.74
2009/04/23 12:37:49.9     -99    -63   -164    118    202 237.5 -65.2  34150  289.41 0854.74
2009/04/23 12:37:50.0      67   -126   -187    143    235 151.9 -63.1  34148  289.38 0854.74
2009/04/23 12:37:50.1     186   -224   -208    292    358 140.4 -43.5  34146  289.35 0854.74
2009/04/23 12:37:50.2     225   -361   -126    426    445 148.0 -16.5  34144  289.31 0854.74
2009/04/23 12:37:50.3      81   -435     35    443    445 169.4   4.6  34140  289.24 0854.74
2009/04/23 12:37:50.4       0   -426   -103    427    440 180.1 -13.6  34132  289.11 0854.74
2009/04/23 12:37:50.5      -3   -590    -79    591    597 180.4  -7.7  34142  289.27 0854.74
2009/04/23 12:37:50.6    -253   -493   -143    555    574 207.2 -14.5  34134  289.13 0854.74
2009/04/23 12:37:50.7    -301   -659      9    725    726 204.6   0.7  34142  289.28 0854.74
2009/04/23 12:37:50.8    -227   -654      0    693    694 199.2   0.0  34138  289.19 0854.74
2009/04/23 12:37:50.9    -397   -610   -133    729    742 213.1 -10.4  34138  289.19 0854.74
2009/04/23 12:37:51.0    -387   -482    -33    619    620 218.7  -3.1  34138  289.20 0854.74
2009/04/23 12:37:51.1    -116   -607     18    619    620 190.9   1.7  34142  289.28 0854.74
2009/04/23 12:37:51.2    -211   -653    -84    687    693 197.9  -7.0  34150  289.41 0854.74
2009/04/23 12:37:51.3    -189   -549    -69    581    586 199.1  -6.8  34142  289.27 0854.74
2009/04/23 12:37:51.4    -270   -673   -152    726    742 201.9 -11.9  34152  289.45 0854.74
2009/04/23 12:37:51.5    -298   -787   -216    842    870 200.8 -14.4  34140  289.24 0854.74
2009/04/23 12:37:51.6      65   -695     28    699    700 174.6   2.3  34140  289.23 0854.74
2009/04/23 12:37:51.7     205   -487    184    529    561 157.2  19.2  34146  289.33 0854.74
2009/04/23 12:37:51.8     246   -785    397    823    913 162.6  27.7  34146  289.32 0854.73
2009/04/23 12:37:51.9     224   -756    302    789    844 163.5  22.1  34144  289.30 0854.73
2009/04/23 12:37:52.0     331   -643    147    724    739 152.7  11.5  34144  289.31 0854.73
2009/04/23 12:37:52.1      52   -679    105    681    689 175.6   8.8  34146  289.32 0854.73
2009/04/23 12:37:52.2     223   -598    -29    639    640 159.5  -2.6  34148  289.37 0854.73
2009/04/23 12:37:52.3     215   -605    223    643    681 160.4  19.2  34144  289.29 0854.73
2009/04/23 12:37:52.4     259   -499    153    563    584 152.6  15.2  34142  289.25 0854.73
2009/04/23 12:37:52.5     309   -562    175    642    666 151.2  15.3  34142  289.26 0854.73
2009/04/23 12:37:52.6     348   -469    203    585    620 143.4  19.2  34142  289.25 0854.73
2009/04/23 12:37:52.7     189   -544    244    577    626 160.8  24.3  34142  289.27 0854.73
2009/04/23 12:37:52.8      62   -560     70    564    569 173.7   7.1  34148  289.36 0854.73
2009/04/23 12:37:52.9     -47   -551    -78    554    560 185.0  -8.1  34146  289.33 0854.73
2009/04/23 12:37:53.0    -176   -439    -36    474    476 201.8  -4.4  34140  289.22 0854.73
2009/04/23 12:37:53.1    -339   -331    -99    474    485 225.7 -11.8  34146  289.35 0854.73
2009/04/23 12:37:53.2    -357   -423   -142    554    572 220.2 -14.4  34142  289.26 0854.73
2009/04/23 12:37:53.3    -271   -372    -72    461    467 216.1  -8.9  34144  289.30 0854.73
2009/04/23 12:37:53.4    -355   -140    183    382    423 248.5  27.3  34144  289.29 0854.73
2009/04/23 12:37:53.5    -222   -255     94    339    352 221.1  15.6  34142  289.26 0854.73
2009/04/23 12:37:53.6    -179   -230     51    292    297 217.9  10.0  34150  289.39 0854.73
2009/04/23 12:37:53.7    -100   -216    146    239    280 204.9  34.4  34148  289.37 0854.73
2009/04/23 12:37:53.8     -52   -250    131    256    287 191.8  29.2  34144  289.31 0854.75
2009/04/23 12:37:53.9     -14   -328     37    329    332 182.6   6.5  34146  289.35 0854.75
2009/04/23 12:37:54.0      19   -404   -136    405    428 177.2 -18.6  34146  289.33 0854.75
2009/04/23 12:37:54.1      -4   -364   -103    365    380 180.7 -15.8  34132  289.11 0854.75
2009/04/23 12:37:54.2     -56   -252     95    259    275 192.5  21.0  34142  289.27 0854.75
2009/04/23 12:37:54.3     172      7    250    173    304  87.4  62.1  34142  289.27 0854.75
2009/04/23 12:37:54.4     298    -32    316    300    435  96.2  51.9  34140  289.23 0854.75
2009/04/23 12:37:54.5      60   -172    219    183    285 160.6  56.3  34132  289.10 0854.75
2009/04/23 12:37:54.6     165   -242    132    294    322 145.7  25.9  34148  289.36 0854.75
2009/04/23 12:37:54.7     131   -355    139    379    403 159.7  21.0  34142  289.28 0854.75
2009/04/23 12:37:54.8     -16   -414    113    415    431 182.2  15.3  34144  289.31 0854.75
2009/04/23 12:37:54.9    -137   -468     63    488    493 196.4   7.4  34146  289.34 0854.75
2009/04/23 12:37:55.0    -240   -504    -22    559    560 205.5  -2.3  34140  289.24 0854.75
2009/04/23 12:37:55.1    -205   -418   -148    466    490 206.1 -17.7  34140  289.22 0854.75
2009/04/23 12:37:55.2     -44   -473    -20    476    477 185.4  -2.5  34140  289.23 0854.75
2009/04/23 12:37:55.3    -103   -601     76    611    616 189.8   7.1  34144  289.30 0854.75
2009/04/23 12:37:55.4      -9   -517    139    518    537 181.0  15.0  34144  289.29 0854.75
2009/04/23 12:37:55.5    -243   -371     61    444    449 213.2   7.9  34140  289.22 0854.75
2009/04/23 12:37:55.6    -377   -251    -92    454    464 236.3 -11.5  34148  289.36 0854.75
2009/04/23 12:37:55.7    -229   -335   -112    407    423 214.4 -15.4  34142  289.26 0854.75
2009/04/23 12:37:55.8     -48   -224    -50    230    236 192.3 -12.4  34144  289.31 0854.77
2009/04/23 12:37:55.9      86   -380   -102    390    404 167.2 -14.7  34144  289.30 0854.77
2009/04/23 12:37:56.1     189   -397   -136    440    461 154.5 -17.2  34142  289.27 0854.77
2009/04/23 12:37:56.1     113   -471    -63    485    490 166.4  -7.5  34146  289.34 0854.77
2009/04/23 12:37:56.2     182   -355   -143    400    424 152.8 -24.8  34146  289.34 0854.77
2009/04/23 12:37:56.3     325   -367   -135    491    510 138.5 -15.4  34140  289.23 0854.77
2009/04/23 12:37:56.4     171   -252   -102    305    321 145.7 -23.6  34140  289.22 0854.77
2009/04/23 12:37:56.6     165   -136   -120    214    245 129.5 -36.0  34148  289.36 0854.77
2009/04/23 12:37:56.6     -31     52     21     61     65 329.3  18.9  34138  289.21 0854.77
2009/04/23 12:37:56.7    -221    -40      3    225    226 259.6   0.8  34146  289.33 0854.77
2009/04/23 12:37:56.8    -333      8   -108    334    351 271.4 -23.0  34148  289.38 0854.77
2009/04/23 12:37:56.9    -196   -369    175    418    453 208.0  24.1  34144  289.31 0854.77
2009/04/23 12:37:57.0    -138   -385    245    410    477 199.8  33.7  34136  289.16 0854.77
2009/04/23 12:37:57.1    -175   -255    171    310    354 214.5  31.3  34148  289.37 0854.77
2009/04/23 12:37:57.2    -328   -195    -10    382    383 239.2  -1.6  34146  289.33 0854.77
2009/04/23 12:37:57.3    -590   -138   -163    606    628 256.8 -15.1  34140  289.23 0854.77
2009/04/23 12:37:57.4    -546   -188   -189    578    608 250.9 -23.3  34130  289.05 0854.77
2009/04/23 12:37:57.5    -420    -96     59    431    436 257.1   7.9  34146  289.34 0854.77
2009/04/23 12:37:57.6    -355   -147     60    385    390 247.5   8.9  34148  289.37 0854.77
2009/04/23 12:37:57.7     -87   -160    -69    183    195 208.7 -26.1  34148  289.38 0854.77
2009/04/23 12:37:57.8    -153   -173    -15    232    233 221.4  -3.9  34152  289.43 0854.76
2009/04/23 12:37:57.9    -185   -223    -47    291    295 219.7  -9.3  34148  289.37 0854.76
2009/04/23 12:37:58.0     -16   -348   -112    349    366 182.7 -22.9  34140  289.23 0854.76
2009/04/23 12:37:58.1     -95   -180    -86    204    221 207.9 -28.5  34146  289.33 0854.76
2009/04/23 12:37:58.2      53   -275    -79    281    293 169.1 -15.8  34144  289.31 0854.76
2009/04/23 12:37:58.3      94   -463    -28    473    474 168.5  -3.5  34144  289.30 0854.76
2009/04/23 12:37:58.5      99   -342     31    357    359 163.9   5.0  34146  289.33 0854.76
2009/04/23 12:37:58.5     -24   -400     58    401    406 183.5   8.2  34146  289.34 0854.76
2009/04/23 12:37:58.6     -13   -330     90    331    344 182.3  15.3  34146  289.32 0854.76
2009/04/23 12:37:58.7     -87    -66     41    110    117 232.7  21.0  34136  289.16 0854.76
2009/04/23 12:37:58.8     163    -34    187    167    250 101.9  53.7  34150  289.41 0854.71
2009/04/23 12:37:58.9     282   -167    101    328    344 120.7  17.1  34148  289.37 0854.71
2009/04/23 12:37:59.0     224    -46    161    229    279 101.7  38.6  34154  289.46 0854.71
2009/04/23 12:37:59.1     346     33    335    348    483  84.4  49.0  34148  289.36 0854.71
2009/04/23 12:37:59.2     227   -159    154    278    317 125.1  31.5  34152  289.42 0854.71
2009/04/23 12:37:59.3      34   -208    278    211    349 170.7  59.1  34146  289.34 0854.71
2009/04/23 12:37:59.4     -16   -222    107    223    247 184.2  27.3  34152  289.44 0854.71
2009/04/23 12:37:59.5     109   -528    -45    540    542 168.3  -4.8  34142  289.26 0854.71
2009/04/23 12:37:59.6     179   -689    198    712    740 165.4  15.6  34140  289.22 0854.71
2009/04/23 12:37:59.7     172   -779    401    799    893 167.5  28.7  34144  289.29 0854.71
2009/04/23 12:37:59.8     270   -641    308    696    761 157.2  25.5  34140  289.24 0854.71
2009/04/23 12:37:59.9    -215   -741    291    772    825 196.2  21.7  34134  289.14 0854.71
2009/04/23 12:38:00.0    -151   -557    300    578    651 195.2  29.6  34136  289.15 0854.71
2009/04/23 12:38:00.1    -147   -321    305    354    467 204.6  45.1  34146  289.34 0854.71
2009/04/23 12:38:00.2    -222   -192     19    294    295 229.1   3.8  34146  289.32 0854.71
2009/04/23 12:38:00.3     -75   -373     72    381    388 191.5  10.8  34142  289.28 0854.71
2009/04/23 12:38:00.4    -190   -304     70    359    366 212.0  11.1  34144  289.30 0854.71
2009/04/23 12:38:00.5    -219   -181    141    285    317 230.5  28.4  34148  289.37 0854.71
2009/04/23 12:38:00.6    -182   -102    165    209    266 240.7  42.7  34148  289.36 0854.71
2009/04/23 12:38:00.7    -105   -236    174    259    312 204.1  37.0  34136  289.17 0854.71
2009/04/23 12:38:00.9    -125   -287    309    314    440 203.6  49.9  34136  289.17 0854.73
2009/04/23 12:38:00.9    -181   -226    286    290    407 218.7  49.9  34148  289.37 0854.73
2009/04/23 12:38:01.0    -234   -233    150    331    363 225.1  26.2  34142  289.25 0854.73
2009/04/23 12:38:01.1     -48   -180    137    187    231 195.1  39.7  34148  289.36 0854.73
2009/04/23 12:38:01.3     -33    274    255    276    375 353.1  47.7  34146  289.32 0854.73
2009/04/23 12:38:01.4     127    -56    187    139    233 114.0  60.0  34156  289.52 0854.73
2009/04/23 12:38:01.5      23   -508    511    509    721 177.3  50.1  34140  289.22 0854.73
2009/04/23 12:38:01.6     222   -475    296    525    602 155.0  32.0  34152  289.42 0854.73
2009/04/23 12:38:01.7     244   -523     49    578    581 155.0   4.9  34144  289.30 0854.73
2009/04/23 12:38:01.8     307   -374    -57    484    488 140.6  -6.8  34138  289.20 0854.73
2009/04/23 12:38:01.9      60   -330     35    336    338 169.7   6.1  34152  289.42 0854.73
2009/04/23 12:38:02.0     -39   -243      0    247    248 189.1   0.0  34146  289.34 0854.73
2009/04/23 12:38:02.1     -36   -274    143    277    311 187.6  29.6  34152  289.42 0854.73
2009/04/23 12:38:02.2      -9   -164     29    165    168 183.1  10.1  34146  289.35 0854.73
2009/04/23 12:38:02.3     280      8     -1    281    282  88.3  -0.3  34148  289.37 0854.73
2009/04/23 12:38:02.4     184     58    161    193    251  72.5  44.1  34146  289.32 0854.73
2009/04/23 12:38:02.5      84     42    116     94    149  63.4  56.4  34146  289.35 0854.73
2009/04/23 12:38:02.6    -161   -266    274    311    414 211.2  45.9  34144  289.30 0854.73
2009/04/23 12:38:02.7     -88   -265    209    280    349 198.5  40.4  34148  289.36 0854.73
2009/04/23 12:38:02.8    -350    -29    -36    352    354 265.1  -5.9  34142  289.28 0854.73
2009/04/23 12:38:02.9    -359    -60   -274    365    456 260.4 -45.0  34148  289.36 0854.72
2009/04/23 12:38:03.0    -502   -178   -113    533    545 250.4 -12.0  34148  289.38 0854.72
2009/04/23 12:38:03.1    -715     76    -20    720    721 276.1  -1.6  34146  289.32 0854.72
2009/04/23 12:38:03.2    -692   -105    -56    700    703 261.3  -4.6  34150  289.39 0854.72
2009/04/23 12:38:03.3    -690   -148     21    706    707 257.8   1.7  34142  289.25 0854.72
2009/04/23 12:38:03.4    -477   -278   -112    553    565 239.7 -11.5  34150  289.41 0854.72
2009/04/23 12:38:03.5    -229   -554     56    600    603 202.5   5.4  34144  289.29 0854.72
2009/04/23 12:38:03.6     -17   -673   -202    674    704 181.5 -16.7  34142  289.27 0854.72
2009/04/23 12:38:03.7     306   -611    -65    684    688 153.4  -5.5  34146  289.32 0854.72
2009/04/23 12:38:03.8     102   -500    275    511    580 168.4  30.6  34138  289.21 0854.72
2009/04/23 12:38:03.9     198   -531    196    568    602 159.5  19.1  34146  289.32 0854.72
2009/04/23 12:38:04.0     337   -497     -2    601    602 145.8  -0.3  34146  289.32 0854.72
2009/04/23 12:38:04.1     441   -448     79    629    635 135.5   7.2  34140  289.23 0854.72
2009/04/23 12:38:04.2     337   -285     68    442    448 130.2   8.8  34146  289.34 0854.72
2009/04/23 12:38:04.3       0   -386    -21    387    388 179.9  -3.1  34142  289.25 0854.72
2009/04/23 12:38:04.4    -166   -479    -23    508    509 199.2  -2.6  34136  289.18 0854.72
2009/04/23 12:38:04.5     -48   -340    206    344    400 188.1  33.8  34146  289.32 0854.72
2009/04/23 12:38:04.6     -16   -433    117    434    450 182.2  15.2  34146  289.33 0854.72
2009/04/23 12:38:04.7    -105   -418    129    432    451 194.2  16.7  34144  289.31 0854.72
2009/04/23 12:38:04.8     -70   -362    210    369    424 191.0  32.3  34148  289.36 0854.72
2009/04/23 12:38:04.9       4   -305    215    306    373 179.1  38.6  34146  289.32 0854.75
2009/04/23 12:38:05.0      20   -267    250    268    366 175.5  47.9  34148  289.37 0854.75
2009/04/23 12:38:05.1      74   -299    245    309    394 166.0  42.6  34146  289.32 0854.75
2009/04/23 12:38:05.2     183   -268    281    325    429 145.7  45.4  34146  289.32 0854.75
2009/04/23 12:38:05.3     181   -299    268    350    440 148.7  41.5  34146  289.33 0854.75
2009/04/23 12:38:05.4     432   -305    290    529    603 125.2  31.3  34142  289.27 0854.75
2009/04/23 12:38:05.5     444   -350    169    566    591 128.3  16.7  34136  289.15 0854.75
2009/04/23 12:38:05.6     376   -255     89    455    464 124.1  11.1  34138  289.21 0854.75
2009/04/23 12:38:05.7     181   -298    181    349    393 148.7  29.5  34142  289.28 0854.75
2009/04/23 12:38:05.8      67   -267    236    276    363 165.8  44.8  34148  289.38 0854.75
2009/04/23 12:38:05.9      14   -193     69    194    206 175.8  19.6  34148  289.36 0854.75
2009/04/23 12:38:06.0      73   -222     20    234    235 161.7   5.0  34148  289.36 0854.75
2009/04/23 12:38:06.1     -24    -75    -28     79     83 198.3 -23.8  34150  289.40 0854.75
2009/04/23 12:38:06.2     -49      0    -13     50     52 270.0 -15.4  34152  289.43 0854.75
2009/04/23 12:38:06.3       7     68     55     69     88   6.2  43.7  34148  289.36 0854.75
2009/04/23 12:38:06.4     -97     32     51    103    114 288.6  27.8  34150  289.41 0854.75
2009/04/23 12:38:06.5      54    193     35    201    205  15.8   9.9  34154  289.46 0854.75
2009/04/23 12:38:06.6     286    329   -148    437    462  41.0 -18.7  34180  289.90 0854.75
2009/04/23 12:38:06.7     157    203   -101    257    276  37.8 -27.2  34170  289.75 0854.75
2009/04/23 12:38:06.8     198    219    127    296    322  42.1  24.6  34156  289.51 0854.75
2009/04/23 12:38:06.9     222    176     35    284    287  51.6   7.1  34150  289.41 0854.73
2009/04/23 12:38:07.0     282    132    321    312    447  64.8  50.9  34180  289.90 0854.73
2009/04/23 12:38:07.1     171    131    278    216    352  52.5  58.4  34176  289.85 0854.73
2009/04/23 12:38:07.2     -32     20    209     39    212 302.4  90.0  34196  290.18 0854.73
2009/04/23 12:38:07.3      90     42    272    100    289  64.8  79.2  34192  290.12 0854.73
2009/04/23 12:38:07.4      68    132    163    149    220  27.2  52.5  34192  290.13 0854.73
2009/04/23 12:38:07.5      65   -138    258    153    299 154.6  66.7  34206  290.34 0854.73
2009/04/23 12:38:07.6    -210   -208    255    296    390 225.2  45.2  34198  290.23 0854.73
2009/04/23 12:38:07.7      12     -8    109     15    110 122.4  90.0  34172  289.79 0854.73
2009/04/23 12:38:07.8     456    -72    243    462    522  99.0  29.9  34150  289.40 0854.73
2009/04/23 12:38:07.9     426    -52    450    430    622  97.0  51.5  34152  289.45 0854.73
2009/04/23 12:38:08.0     470     65    412    475    628  82.1  45.4  34164  289.63 0854.73
2009/04/23 12:38:08.1     413     34    338    415    535  85.2  43.4  34162  289.62 0854.73
2009/04/23 12:38:08.2     363    -67    375    370    526 100.5  50.2  34156  289.50 0854.73
2009/04/23 12:38:08.3      23     46    228     52    233  27.2  87.5  34164  289.63 0854.73
2009/04/23 12:38:08.4      80    102    251    130    282  38.3  70.8  34166  289.66 0854.73
2009/04/23 12:38:08.5     199     77    347    214    407  68.7  65.6  34146  289.35 0854.73
2009/04/23 12:38:08.6     548    106    382    559    677  79.0  37.7  34184  289.99 0854.73
2009/04/23 12:38:08.7     527    114    371    540    655  77.7  37.8  34172  289.79 0854.73
2009/04/23 12:38:08.8     366    145    346    394    524  68.3  45.8  34178  289.89 0854.73
2009/04/23 12:38:08.9     519    307    160    604    625  59.4  14.9  34162  289.59 0854.58
2009/04/23 12:38:09.0     576    353    210    676    708  58.5  17.3  34152  289.42 0854.58
2009/04/23 12:38:09.1     552    310    203    634    666  60.7  17.8  34146  289.33 0854.58
2009/04/23 12:38:09.2     692    360    224    780    812  62.5  16.0  34154  289.46 0854.58
2009/04/23 12:38:09.3     706    314    188    773    796  66.0  13.7  34152  289.44 0854.58
2009/04/23 12:38:09.4     796     94    198    802    827  83.2  13.9  34180  289.92 0854.58
2009/04/23 12:38:09.5     744     92    299    750    807  82.9  23.0  34212  290.47 0854.58
2009/04/23 12:38:09.6     810    138    281    822    870  80.3  18.9  34206  290.34 0854.58
2009/04/23 12:38:09.7     601    290    219    668    704  64.2  18.2  34184  289.99 0854.58
2009/04/23 12:38:09.8     776    395    186    871    891  63.0  12.1  34258  291.25 0854.58
2009/04/23 12:38:09.9     733    371    188    822    844  63.1  12.9  34268  291.40 0854.58
2009/04/23 12:38:10.0     730    167     63    749    752  77.1   4.9  34214  290.50 0854.58
2009/04/23 12:38:10.1     760    203    -73    787    791  75.0  -5.4  34232  290.80 0854.58
2009/04/23 12:38:10.2     600    187    -98    629    637  72.7  -8.9  34192  290.11 0854.58
2009/04/23 12:38:10.3     667     44     -4    669    670  86.2  -0.4  34172  289.77 0854.58
2009/04/23 12:38:10.4     770     37   -189    772    795  87.2 -13.8  34222  290.63 0854.58
2009/04/23 12:38:10.5     502    -55    179    506    537  96.3  19.5  34214  290.48 0854.58
2009/04/23 12:38:10.6     545    316    144    631    648  59.9  12.9  34218  290.55 0854.58
2009/04/23 12:38:10.7     496    197     53    534    537  68.3   5.7  34172  289.77 0854.58
2009/04/23 12:38:10.8     457    166     87    487    495  70.0  10.2  34162  289.62 0854.58
2009/04/23 12:38:10.9     448    266     95    522    531  59.3  10.4  34162  289.60 0854.63
2009/04/23 12:38:11.0     437    316    195    540    575  54.1  19.9  34220  290.60 0854.63
2009/04/23 12:38:11.1     376    207    206    430    476  61.1  27.4  34168  289.70 0854.63
2009/04/23 12:38:11.2     484     28    193    485    521  86.6  23.0  34156  289.50 0854.63
2009/04/23 12:38:11.3     331     28    215    333    396  85.1  36.0  34168  289.71 0854.63
2009/04/23 12:38:11.4      23    -37    288     44    291 147.5  90.0  34162  289.61 0854.63
2009/04/23 12:38:11.5      64    154    126    168    210  22.7  40.9  34162  289.62 0854.63
2009/04/23 12:38:11.6     206    -94    280    227    360 114.6  56.9  34168  289.70 0854.63
2009/04/23 12:38:11.7     292     31    334    294    444  83.9  54.3  34172  289.79 0854.63
2009/04/23 12:38:11.8     215   -109    255    242    351 117.0  51.6  34180  289.90 0854.63
2009/04/23 12:38:11.9     267    -97    232    285    367 109.9  43.5  34194  290.16 0854.63
2009/04/23 12:38:12.0     383      4    298    384    486  89.3  41.7  34182  289.95 0854.63
2009/04/23 12:38:12.1     375      0    318    376    492  90.0  44.5  34182  289.94 0854.63
2009/04/23 12:38:12.2     188    -11    181    189    261  93.5  49.0  34188  290.03 0854.63
2009/04/23 12:38:12.3     333    105    260    350    436  72.5  40.4  34196  290.19 0854.63
2009/04/23 12:38:12.4     340    278    155    440    467  50.8  19.4  34222  290.63 0854.63
2009/04/23 12:38:12.5     304    147    156    338    372  64.1  26.6  34190  290.08 0854.63
2009/04/23 12:38:12.6     214    171    141    275    309  51.4  29.3  34176  289.85 0854.63
2009/04/23 12:38:12.7     -15    111    -20    113    115 352.0 -10.3  34180  289.92 0854.63
2009/04/23 12:38:12.8     172    112    -57    206    213  56.9 -20.2  34182  289.94 0854.63
2009/04/23 12:38:12.9      55    198     83    206    222  15.6  23.0  34188  290.04 0854.63
2009/04/23 12:38:13.0     -47    306     -6    310    311 351.1  -1.2  34188  290.05 0854.63
2009/04/23 12:38:13.1    -276    169    -55    324    329 301.5  -9.8  34216  290.51 0854.63
2009/04/23 12:38:13.2    -269     99    -79    287    298 290.2 -15.5  34208  290.37 0854.63
2009/04/23 12:38:13.3    -238    163   -111    289    309 304.4 -26.4  34190  290.07 0854.63
2009/04/23 12:38:13.4    -277    244   -253    370    448 311.4 -42.0  34192  290.11 0854.63
2009/04/23 12:38:13.5    -257    198   -332    325    464 307.6 -55.1  34176  289.83 0854.63
2009/04/23 12:38:13.6    -304   -110   -154    324    358 250.1 -31.7  34158  289.54 0854.63
2009/04/23 12:38:13.7    -280   -320   -132    426    447 221.2 -17.3  34160  289.58 0854.63
2009/04/23 12:38:13.8    -326   -294    -73    440    447 228.0  -9.5  34170  289.73 0854.63
2009/04/23 12:38:13.9    -387   -252    -41    462    464 236.9  -5.2  34168  289.70 0854.63
2009/04/23 12:38:14.0    -170   -196    -72    260    270 221.0 -15.5  34166  289.68 0854.63
2009/04/23 12:38:14.1     -10   -286    -74    287    297 182.0 -14.5  34166  289.66 0854.63
2009/04/23 12:38:14.2       0   -309     48    310    314 179.9   8.9  34174  289.80 0854.63
2009/04/23 12:38:14.3     -19   -348    -63    349    355 183.2 -10.4  34164  289.64 0854.63
2009/04/23 12:38:14.4     -19   -438    -92    439    449 182.6 -11.9  34160  289.56 0854.63
2009/04/23 12:38:14.5     351   -463    137    582    598 142.8  13.3  34150  289.41 0854.63
2009/04/23 12:38:14.6     146   -458    -21    481    482 162.3  -2.6  34156  289.49 0854.63
2009/04/23 12:38:14.7      65   -481    184    486    519 172.2  21.7  34154  289.47 0854.63
2009/04/23 12:38:14.8     223   -555     83    599    605 158.1   7.9  34156  289.49 0854.63
2009/04/23 12:38:14.9     238   -337    124    413    432 144.8  16.7  34160  289.58 0854.64
2009/04/23 12:38:15.0     136   -215    224    255    339 147.7  45.8  34158  289.53 0854.64
2009/04/23 12:38:15.1     197   -371    -56    421    425 152.0  -7.7  34152  289.44 0854.64
2009/04/23 12:38:15.2     203   -351    103    406    420 149.9  14.3  34156  289.51 0854.64
2009/04/23 12:38:15.3     267   -255     65    370    376 133.7  10.0  34158  289.55 0854.64
2009/04/23 12:38:15.4     337   -294     47    448    451 131.1   6.1  34158  289.53 0854.64
2009/04/23 12:38:15.5     347   -220     -1    411    412 122.4  -0.2  34150  289.41 0854.64
2009/04/23 12:38:15.6     288   -129    118    316    337 114.2  21.5  34158  289.54 0854.64
2009/04/23 12:38:15.7      43   -303    140    307    337 171.9  26.3  34154  289.46 0854.64
2009/04/23 12:38:15.8      13   -310    159    311    349 177.5  29.2  34152  289.45 0854.64
2009/04/23 12:38:15.9     -83   -311    123    322    344 195.1  21.8  34152  289.45 0854.64
2009/04/23 12:38:16.0     -68   -333     32    341    343 191.6   5.5  34154  289.47 0854.64
2009/04/23 12:38:16.1     -78   -385     26    394    395 191.6   3.9  34154  289.48 0854.64
2009/04/23 12:38:16.2     -22   -351     26    352    353 183.6   4.2  34158  289.54 0854.64
2009/04/23 12:38:16.3     -78   -320     69    330    338 193.7  11.8  34156  289.50 0854.64
2009/04/23 12:38:16.4      -1   -332    119    333    353 180.3  20.7  34152  289.45 0854.64
2009/04/23 12:38:16.5    -156   -129    -15    203    204 230.5  -4.4  34154  289.46 0854.64
2009/04/23 12:38:16.6     -71     -4    -83     72    109 266.5 -59.8  34160  289.57 0854.64
2009/04/23 12:38:16.7     -15     96    107     98    145 350.7  52.2  34160  289.58 0854.64
2009/04/23 12:38:16.8      81   -122    204    147    251 146.2  60.8  34158  289.53 0854.64
2009/04/23 12:38:16.9      -4   -311    222    312    382 180.9  39.2  34158  289.54 0854.62
2009/04/23 12:38:17.0     108   -219    222    245    330 153.7  46.9  34148  289.37 0854.62
2009/04/23 12:38:17.1      28   -336    142    338    366 175.1  24.2  34154  289.47 0854.62
2009/04/23 12:38:17.2     -64   -378    310    384    493 189.6  43.1  34154  289.46 0854.62
2009/04/23 12:38:17.3       0   -261    114    262    285 180.1  25.1  34154  289.46 0854.62
2009/04/23 12:38:17.4    -101   -284      8    302    303 199.6   1.6  34156  289.49 0854.62
2009/04/23 12:38:17.5      54   -250    173    256    308 167.6  37.4  34154  289.47 0854.62
2009/04/23 12:38:17.6     164    -59    173    175    246 110.0  49.9  34158  289.53 0854.62
2009/04/23 12:38:17.7      34     15    130     38    135  66.5  82.8  34162  289.60 0854.62
2009/04/23 12:38:17.8      38    -16    122     42    129 112.6  81.2  34162  289.60 0854.62
2009/04/23 12:38:17.9      49    -34     93     60    110 125.1  64.6  34158  289.53 0854.62
2009/04/23 12:38:18.0      88   -140    115    166    201 147.7  37.8  34156  289.50 0854.62
2009/04/23 12:38:18.1     110    -97     98    148    177 131.4  36.7  34156  289.52 0854.62
2009/04/23 12:38:18.2     178    -14     91    179    200  94.8  29.2  34168  289.70 0854.62
2009/04/23 12:38:18.3     201     81    108    217    242  68.0  28.5  34176  289.83 0854.62
2009/04/23 12:38:18.4     118     97     70    154    169  50.5  26.4  34176  289.85 0854.62
2009/04/23 12:38:18.5      27     39     13     48     50  35.2  15.3  34172  289.77 0854.62
2009/04/23 12:38:18.6      -8    -40     58     41     71 192.5  60.6  34172  289.79 0854.62
2009/04/23 12:38:18.7     108    -48     72    119    139 114.0  34.0  34160  289.58 0854.62
2009/04/23 12:38:18.8     112    -62     95    129    160 118.9  40.1  34158  289.53 0854.62
2009/04/23 12:38:18.9      79      0    129     80    151  90.0  64.7  34180  289.92 0854.62
2009/04/23 12:38:19.0     119     44     88    127    154  69.6  37.6  34184  289.99 0854.62
2009/04/23 12:38:19.1     127     78     36    150    155  58.5  13.7  34170  289.74 0854.62
2009/04/23 12:38:19.2     101      0    126    102    162  90.0  56.9  34174  289.80 0854.62
2009/04/23 12:38:19.3      28     -9    130     30    133 108.2  87.0  34188  290.04 0854.62
2009/04/23 12:38:19.4      -4     13     92     14     93 341.3  90.0  34190  290.08 0854.62
2009/04/23 12:38:19.5      12     91     60     92    109   7.6  35.6  34192  290.11 0854.62
2009/04/23 12:38:19.6       6    136      2    137    138   2.6   1.2  34184  289.99 0854.62
2009/04/23 12:38:19.7    -169    113    -91    204    223 303.7 -29.7  34188  290.04 0854.62
2009/04/23 12:38:19.8    -151     99    -79    181    197 303.3 -29.5  34160  289.57 0854.62
2009/04/23 12:38:19.9    -130    216    -86    253    267 329.0 -23.3  34162  289.59 0854.62
2009/04/23 12:38:20.0    -140    117   -174    183    252 310.0 -53.1  34162  289.60 0854.62
2009/04/23 12:38:20.1    -234    -64   -258    243    354 254.7 -56.5  34146  289.32 0854.62
2009/04/23 12:38:20.2    -307      0   -117    308    329 270.0 -26.0  34156  289.49 0854.62
2009/04/23 12:38:20.3    -127   -139     25    189    191 222.3   7.8  34160  289.57 0854.62
2009/04/23 12:38:20.4     -88    180    230    201    305 333.9  54.3  34166  289.66 0854.62
2009/04/23 12:38:20.5     -36    115    218    121    249 342.6  68.8  34186  290.02 0854.62
2009/04/23 12:38:20.6     -94    172    260    197    326 331.3  59.2  34244  291.00 0854.62
2009/04/23 12:38:20.7    -115     48    231    125    262 292.6  69.1  34236  290.86 0854.62
2009/04/23 12:38:20.8     -24     60    136     65    150 338.2  72.9  34234  290.82 0854.62
2009/04/23 12:38:20.9    -143     90    152    170    228 302.2  46.6  34206  290.36 0854.61
2009/04/23 12:38:21.0    -215    -44     99    220    241 258.3  25.9  34188  290.03 0854.61
2009/04/23 12:38:21.1    -199     -1     64    200    211 269.6  17.9  34172  289.77 0854.61
2009/04/23 12:38:21.2    -199    -50    108    206    232 255.8  30.1  34174  289.80 0854.61
2009/04/23 12:38:21.3    -324    -71    -43    332    335 257.6  -7.5  34162  289.59 0854.61
2009/04/23 12:38:21.4    -362   -114    -76    380    388 252.5 -11.3  34154  289.47 0854.61
2009/04/23 12:38:21.5    -345   -106    -14    361    362 252.9  -2.3  34148  289.38 0854.61
2009/04/23 12:38:21.6    -407    -43    -16    410    411 263.9  -2.2  34156  289.51 0854.61
2009/04/23 12:38:21.7    -414     46    -11    417    418 276.4  -1.6  34158  289.55 0854.61
2009/04/23 12:38:21.8    -348     63    -87    354    365 280.4 -13.8  34152  289.45 0854.61
2009/04/23 12:38:21.9    -330   -149    104    363    378 245.7  16.0  34154  289.47 0854.61
2009/04/23 12:38:22.1    -202    -69    -17    214    215 250.9  -4.6  34152  289.45 0854.61
2009/04/23 12:38:22.2    -202   -139    -58    246    253 235.4 -13.4  34158  289.54 0854.61
2009/04/23 12:38:22.2    -269   -195    -21    333    334 234.1  -3.7  34154  289.47 0854.61
2009/04/23 12:38:22.3    -447    -65   -251    452    517 261.7 -35.9  34150  289.40 0854.61
2009/04/23 12:38:22.4    -462   -153   -134    487    506 251.6 -15.4  34152  289.44 0854.61
2009/04/23 12:38:22.5    -480   -187   -218    516    560 248.7 -28.7  34154  289.46 0854.61
2009/04/23 12:38:22.6    -476     22   -299    477    562 272.7 -39.5  34152  289.43 0854.61
2009/04/23 12:38:22.7    -262   -150   -157    302    340 240.2 -34.2  34156  289.50 0854.61
2009/04/23 12:38:22.8     -15   -241   -131    242    275 183.6 -35.0  34154  289.47 0854.61
2009/04/23 12:38:22.9     -82   -305     44    316    320 195.1   8.0  34152  289.44 0854.61
2009/04/23 12:38:23.0     -96   -403     96    415    427 193.5  13.1  34156  289.49 0854.61
2009/04/23 12:38:23.1    -151   -382     61    411    416 201.6   8.5  34154  289.48 0854.61
2009/04/23 12:38:23.3    -184   -403     28    444    445 204.6   3.7  34154  289.48 0854.61
2009/04/23 12:38:23.4    -247   -238     43    344    347 226.1   7.2  34158  289.55 0854.61
2009/04/23 12:38:23.4    -327   -237     -2    404    405 234.0  -0.4  34158  289.53 0854.61
2009/04/23 12:38:23.5    -353   -240     -1    427    428 235.8  -0.2  34156  289.49 0854.61
2009/04/23 12:38:23.6    -272   -365     -1    456    457 216.8  -0.2  34156  289.51 0854.61
2009/04/23 12:38:23.7    -271   -286     47    395    398 223.5   6.9  34148  289.37 0854.61
2009/04/23 12:38:23.8    -287    -87    -98    301    316 253.1 -23.2  34148  289.36 0854.61
2009/04/23 12:38:23.9    -382   -133   -117    405    422 250.8 -16.2  34154  289.46 0854.60
2009/04/23 12:38:24.0    -570   -183   -215    599    636 252.2 -25.0  34154  289.47 0854.60
2009/04/23 12:38:24.1    -497   -185   -186    531    563 249.6 -19.3  34156  289.50 0854.60
2009/04/23 12:38:24.2    -473   -280   -152    550    570 239.4 -20.1  34156  289.50 0854.60
2009/04/23 12:38:24.3    -467   -334   -142    575    593 234.4 -13.9  34154  289.47 0854.60
2009/04/23 12:38:24.5    -334   -398    -65    520    525 220.0  -7.2  34144  289.31 0854.60
2009/04/23 12:38:24.6    -129   -489   -119    506    520 194.8 -13.3  34156  289.52 0854.60
2009/04/23 12:38:24.6     -25   -385   -117    386    404 183.7 -17.0  34154  289.47 0854.60
2009/04/23 12:38:24.7     -39   -445    -77    447    454 185.1  -9.9  34156  289.51 0854.60
2009/04/23 12:38:24.8     -28   -519     26    520    521 183.1   2.9  34158  289.53 0854.60
2009/04/23 12:38:24.9       9   -589     17    590    591 179.1   1.7  34152  289.42 0854.60
2009/04/23 12:38:25.0     -70   -545    -16    550    551 187.4  -1.7  34154  289.48 0854.60
2009/04/23 12:38:25.1      49   -500    -76    503    509 174.3  -8.6  34156  289.52 0854.60
2009/04/23 12:38:25.2      23   -658    -95    659    666 178.0  -8.2  34156  289.51 0854.60
2009/04/23 12:38:25.3     149   -546    -22    567    568 164.7  -2.2  34140  289.23 0854.60
2009/04/23 12:38:25.4     -62   -448   -219    453    503 187.9 -32.1  34152  289.42 0854.60
2009/04/23 12:38:25.5     147   -399   -120    426    443 159.7 -15.8  34154  289.48 0854.60
2009/04/23 12:38:25.6     145   -449   -155    472    497 162.1 -18.2  34152  289.45 0854.60
2009/04/23 12:38:25.7     166   -352   -139    390    415 154.7 -19.6  34156  289.49 0854.60
2009/04/23 12:38:25.8     387   -229    106    450    463 120.7  13.3  34154  289.46 0854.60
2009/04/23 12:38:25.9     426   -202   -154    472    497 115.4 -18.1  34156  289.50 0854.57
2009/04/23 12:38:26.0     189   -172   -129    256    286 132.3 -33.1  34154  289.47 0854.57
2009/04/23 12:38:26.1     153   -257   -171    300    345 149.3 -36.7  34156  289.50 0854.57
2009/04/23 12:38:26.2      50   -374    -68    378    385 172.3 -10.2  34152  289.45 0854.57
2009/04/23 12:38:26.3     154   -378   -128    409    428 157.8 -22.5  34150  289.41 0854.57
2009/04/23 12:38:26.4     122   -402      8    421    422 163.1   1.2  34148  289.38 0854.57
2009/04/23 12:38:26.6      63   -474    173    479    510 172.4  19.9  34150  289.39 0854.57
2009/04/23 12:38:26.6    -120   -504    184    519    550 193.4  20.4  34158  289.55 0854.57
2009/04/23 12:38:26.7    -222   -398    134    457    477 209.2  16.4  34154  289.47 0854.57
2009/04/23 12:38:26.9    -109   -328    214    346    406 198.5  34.8  34156  289.50 0854.57
2009/04/23 12:38:26.9      23   -444    153    445    471 177.0  19.1  34158  289.53 0854.57
2009/04/23 12:38:27.0     -28   -456     72    457    463 183.6   9.0  34152  289.44 0854.57
2009/04/23 12:38:27.2     -44   -585    166    587    611 184.4  15.8  34152  289.44 0854.57
2009/04/23 12:38:27.3      40   -522    249    524    580 175.5  27.3  34152  289.45 0854.57
2009/04/23 12:38:27.3     254   -635    239    685    726 158.2  19.3  34154  289.47 0854.57
2009/04/23 12:38:27.5     283   -593    255    658    705 154.5  22.3  34154  289.46 0854.57
2009/04/23 12:38:27.6     210   -550    161    589    611 159.1  15.3  34160  289.58 0854.57
2009/04/23 12:38:27.7     383   -359    -37    526    528 133.1  -4.1  34154  289.46 0854.57
2009/04/23 12:38:27.8     156   -406     89    436    446 159.0  11.6  34152  289.44 0854.57
2009/04/23 12:38:27.9     123   -336      5    359    360 159.8   0.8  34152  289.42 0854.57
2009/04/23 12:38:28.0      72   -292    134    301    329 166.0  25.7  34152  289.42 0854.49
2009/04/23 12:38:28.1      64   -314    226    321    392 168.4  38.6  34156  289.50 0854.49
2009/04/23 12:38:28.2    -121   -363    252    383    458 198.5  36.4  34158  289.53 0854.49
2009/04/23 12:38:28.3       5   -327    250    328    412 179.0  41.2  34154  289.48 0854.49
2009/04/23 12:38:28.4     -83   -274    181    287    339 197.0  35.5  34158  289.53 0854.49
2009/04/23 12:38:28.5    -195   -244    221    313    383 218.7  38.8  34158  289.55 0854.49
2009/04/23 12:38:28.6    -171   -159     59    234    242 227.1  14.3  34160  289.56 0854.49
2009/04/23 12:38:28.7    -292   -154    115    331    351 242.2  19.2  34158  289.54 0854.49
2009/04/23 12:38:28.8    -250     96    -17    268    269 291.1  -3.7  34154  289.46 0854.49
2009/04/23 12:38:28.9    -399    205    -17    449    450 297.2  -2.2  34130  289.07 0854.49
2009/04/23 12:38:29.0    -403   -196     40    449    451 244.0   5.2  34148  289.38 0854.49
2009/04/23 12:38:29.1    -266    -64     92    274    290 256.5  18.6  34158  289.54 0854.49
2009/04/23 12:38:29.2     -73    -19    112     76    135 254.9  62.7  34160  289.57 0854.49
2009/04/23 12:38:29.3    -122    155    123    198    233 321.9  35.5  34146  289.33 0854.49
2009/04/23 12:38:29.4    -220    112     95    247    264 297.0  22.1  34160  289.56 0854.49
2009/04/23 12:38:29.5     -56    111      1    125    126 333.3   0.8  34160  289.57 0854.49
2009/04/23 12:38:29.6      60     48    -73     77    106  51.4 -52.9  34158  289.53 0854.49
2009/04/23 12:38:29.7     -22     66     -1     70     71 341.5  -1.3  34158  289.55 0854.49
2009/04/23 12:38:29.8       7    -36     85     37     92 168.4  75.0  34158  289.55 0854.49
2009/04/23 12:38:29.9     -23    114    -10    117    118 348.4  -5.2  34156  289.52 0854.49
2009/04/23 12:38:30.0     349    -38    202    352    405  96.3  32.4  34144  289.30 0854.47
2009/04/23 12:38:30.1     345   -257    153    431    457 126.6  20.3  34156  289.49 0854.47
2009/04/23 12:38:30.2     391   -202    197    441    483 117.3  25.7  34152  289.45 0854.47
2009/04/23 12:38:30.3     279    -64    180    287    338 103.0  35.1  34154  289.46 0854.47
2009/04/23 12:38:30.4     274     -8    185    275    331  91.7  37.2  34158  289.53 0854.47
2009/04/23 12:38:30.5     176      7     48    177    184  87.6  15.3  34158  289.53 0854.47
2009/04/23 12:38:30.6     140    -83    157    163    226 120.7  49.0  34156  289.52 0854.47
2009/04/23 12:38:30.7     212   -111     42    240    244 117.8  10.1  34158  289.54 0854.47
2009/04/23 12:38:30.8     113   -187     64    219    229 148.8  16.3  34152  289.45 0854.47
2009/04/23 12:38:30.9     160   -314    -19    353    354 153.0  -3.1  34156  289.52 0854.47
2009/04/23 12:38:31.0     225   -278     -3    358    359 141.0  -0.6  34150  289.40 0854.47
2009/04/23 12:38:31.1     238    -78    105    251    272 108.2  24.1  34156  289.49 0854.47
2009/04/23 12:38:31.2      17   -168    158    169    231 174.0  47.9  34160  289.57 0854.47
2009/04/23 12:38:31.3     -17   -197    185    198    270 185.1  47.9  34160  289.58 0854.47
2009/04/23 12:38:31.4    -128   -222    237    257    349 210.1  47.6  34154  289.47 0854.47
2009/04/23 12:38:31.5      67   -163     80    177    194 157.5  26.2  34152  289.45 0854.47
2009/04/23 12:38:31.6     114   -137     29    179    182 140.4   9.5  34158  289.53 0854.47
2009/04/23 12:38:31.7     153   -153    -79    217    230 135.0 -25.1  34158  289.53 0854.47
2009/04/23 12:38:31.8     124   -202    -48    238    243 148.4 -11.5  34160  289.56 0854.47
2009/04/23 12:38:31.9     148   -172    -41    228    232 139.2 -10.3  34158  289.53 0854.47
2009/04/23 12:38:32.0     194   -157     -9    250    251 129.1  -2.2  34154  289.47 0854.47
2009/04/23 12:38:32.1     210   -124     -1    245    246 120.6  -0.3  34160  289.56 0854.47
2009/04/23 12:38:32.2     167   -182     -9    248    249 137.5  -2.2  34156  289.51 0854.47
2009/04/23 12:38:32.3      87   -243     35    259    262 160.2   7.8  34154  289.46 0854.47
2009/04/23 12:38:32.4     140   -252     41    289    293 151.0   8.2  34154  289.47 0854.47
2009/04/23 12:38:32.5      72   -227     13    239    240 162.4   3.1  34158  289.54 0854.47
2009/04/23 12:38:32.6      38   -222    -29    226    228 170.2  -7.3  34158  289.55 0854.47
2009/04/23 12:38:32.7      16   -175    -55    176    185 174.7 -17.6  34156  289.52 0854.47
2009/04/23 12:38:32.8     100   -210    -49    233    239 154.5 -11.9  34156  289.51 0854.47
2009/04/23 12:38:32.9     144   -202    -52    249    255 144.4 -11.9  34158  289.53 0854.47
2009/04/23 12:38:33.0     112   -235     22    261    263 154.5   4.9  34152  289.44 0854.47
2009/04/23 12:38:33.1      74   -221     80    234    248 161.5  18.9  34156  289.51 0854.47
2009/04/23 12:38:33.2      35   -205     85    209    225 170.2  23.1  34156  289.50 0854.47
2009/04/23 12:38:33.3      39   -240    115    244    269 170.7  27.1  34154  289.46 0854.47
2009/04/23 12:38:33.4     103   -269    164    289    332 159.1  32.1  34154  289.47 0854.47
2009/04/23 12:38:33.5      63   -328    103    335    351 169.1  17.1  34156  289.50 0854.47
2009/04/23 12:38:33.6       0   -320    107    321    339 180.1  18.6  34146  289.35 0854.47
2009/04/23 12:38:33.7       4   -330    102    331    347 179.3  17.2  34158  289.54 0854.47
2009/04/23 12:38:33.8      21   -335     89    336    348 176.3  14.9  34156  289.50 0854.47
2009/04/23 12:38:33.9      28   -361    107    363    379 175.4  16.5  34158  289.55 0854.47
2009/04/23 12:38:34.0      24   -292    119    294    317 175.3  23.2  34162  289.59 0854.50
2009/04/23 12:38:34.1     -23   -203    160    205    260 186.5  42.0  34162  289.59 0854.50
2009/04/23 12:38:34.2      21   -303    221    304    375 176.0  39.7  34158  289.55 0854.50
2009/04/23 12:38:34.3     139   -292    212    324    387 154.5  36.2  34154  289.48 0854.50
2009/04/23 12:38:34.4     110   -246    221    270    348 155.9  43.7  34158  289.53 0854.50
2009/04/23 12:38:34.5     163   -251    221    300    372 147.0  39.9  34160  289.57 0854.50
2009/04/23 12:38:34.6      74   -207    184    221    287 160.2  43.8  34158  289.54 0854.50
2009/04/23 12:38:34.7     137   -221    113    261    284 148.3  25.1  34156  289.49 0854.50
2009/04/23 12:38:34.8      81   -246    186    260    319 161.7  39.1  34156  289.51 0854.50
2009/04/23 12:38:34.9      32   -139    106    143    178 166.7  40.1  34158  289.55 0854.50
2009/04/23 12:38:35.0      98    -72     63    122    137 126.4  29.3  34160  289.57 0854.50
2009/04/23 12:38:35.1     130    -61     78    144    163 115.4  31.0  34156  289.50 0854.50
2009/04/23 12:38:35.2     136    -25    139    139    196 100.6  50.1  34158  289.53 0854.50
2009/04/23 12:38:35.3      -9    -12    105     16    106 216.1  90.0  34162  289.60 0854.50
2009/04/23 12:38:35.4      46    -28    135     55    145 121.5  77.0  34164  289.63 0854.50
2009/04/23 12:38:35.5      -4   -163    158    164    227 181.6  49.0  34160  289.57 0854.50
2009/04/23 12:38:35.6      27   -132    109    135    173 168.4  43.3  34160  289.58 0854.50
2009/04/23 12:38:35.7     -21   -185    163    187    248 186.5  45.8  34160  289.57 0854.50
2009/04/23 12:38:35.8     219   -290    103    364    379 143.0  15.8  34148  289.38 0854.50
2009/04/23 12:38:35.9     325   -153     95    360    373 115.3  14.9  34158  289.55 0854.50
2009/04/23 12:38:36.0     216    -61     82    225    239 105.9  20.9  34160  289.56 0854.53
2009/04/23 12:38:36.1     -13   -221    140    222    262 183.4  35.5  34158  289.53 0854.53
2009/04/23 12:38:36.2      -9   -309    132    310    336 181.8  24.5  34160  289.56 0854.53
2009/04/23 12:38:36.3      24   -370     89    371    382 176.2  13.6  34158  289.54 0854.53
2009/04/23 12:38:36.4      26   -286     69    288    297 174.7  13.5  34162  289.59 0854.53
2009/04/23 12:38:36.5     134   -357     84    382    392 159.4  12.4  34158  289.55 0854.53
2009/04/23 12:38:36.6      17   -388    -15    389    390 177.4  -2.2  34162  289.60 0854.53
2009/04/23 12:38:36.7    -107   -417     16    431    432 194.5   2.2  34162  289.60 0854.53
2009/04/23 12:38:36.8    -138   -314      4    344    345 203.8   0.8  34156  289.52 0854.53
2009/04/23 12:38:36.9     -88   -244     -1    260    261 200.0  -0.3  34158  289.54 0854.53
2009/04/23 12:38:37.0    -134   -271      3    303    304 206.3   0.7  34160  289.56 0854.53
2009/04/23 12:38:37.1     -25   -161     44    164    170 188.9  15.0  34156  289.52 0854.53
2009/04/23 12:38:37.2      -1    -77    131     78    152 180.9  66.7  34158  289.53 0854.53
2009/04/23 12:38:37.3      83    -94    130    126    181 138.6  50.9  34160  289.58 0854.53
2009/04/23 12:38:37.4     129   -213    210    250    326 148.8  44.3  34162  289.61 0854.53
2009/04/23 12:38:37.5      16   -298    233    299    379 176.9  41.9  34162  289.62 0854.53
2009/04/23 12:38:37.6      26   -392    188    393    435 176.1  27.3  34150  289.39 0854.53
2009/04/23 12:38:37.7     -26   -492    294    493    574 183.1  33.5  34160  289.57 0854.53
2009/04/23 12:38:37.8     -31   -210    119    213    243 188.5  31.9  34158  289.53 0854.53
2009/04/23 12:38:37.9     -82   -222    136    237    273 200.3  32.4  34158  289.54 0854.53
2009/04/23 12:38:38.0     133   -209    220    248    331 147.5  46.4  34160  289.58 0854.58
2009/04/23 12:38:38.1     137    -78    198    158    253 119.8  57.5  34166  289.69 0854.58
2009/04/23 12:38:38.2     182   -200    202    271    338 137.6  40.4  34164  289.63 0854.58
2009/04/23 12:38:38.3     147   -185    158    237    284 141.5  37.0  34162  289.59 0854.58
2009/04/23 12:38:38.4     -25   -231    183    233    296 186.2  42.0  34164  289.64 0854.58
2009/04/23 12:38:38.5     198   -217    104    294    313 137.6  19.6  34160  289.56 0854.58
2009/04/23 12:38:38.6     131   -298    231    326    399 156.3  38.6  34158  289.55 0854.58
2009/04/23 12:38:38.7     210   -187    128    282    309 131.8  26.2  34162  289.61 0854.58
2009/04/23 12:38:38.8     214   -191    119    288    311 131.8  23.6  34164  289.63 0854.58
2009/04/23 12:38:38.9     229   -133    123    265    292 120.2  27.1  34164  289.64 0854.58
2009/04/23 12:38:39.0     209   -157    132    262    293 126.9  29.1  34162  289.61 0854.58
2009/04/23 12:38:39.1     216    -91    150    235    278 112.8  35.6  34162  289.59 0854.58
2009/04/23 12:38:39.2     220    -79    166    235    287 109.9  38.6  34166  289.68 0854.58
2009/04/23 12:38:39.3     188   -203    191    277    336 137.2  38.0  34158  289.53 0854.58
2009/04/23 12:38:39.4      99   -258    121    277    302 159.0  25.1  34162  289.59 0854.58
2009/04/23 12:38:39.5     224   -290    100    367    381 142.4  15.3  34162  289.62 0854.58
2009/04/23 12:38:39.6     135   -399     16    422    423 161.3   2.2  34160  289.56 0854.58
2009/04/23 12:38:39.7     211   -332     69    394    401 147.5  10.0  34162  289.59 0854.58
2009/04/23 12:38:39.8     156   -263    130    306    332 149.3  24.3  34156  289.51 0854.58
2009/04/23 12:38:39.9      78   -246    187    259    319 162.4  39.5  34160  289.58 0854.58
2009/04/23 12:38:40.0      45   -317    184    321    369 171.9  32.6  34156  289.50 0854.60
2009/04/23 12:38:40.1      67   -240    266    250    365 164.4  52.1  34162  289.60 0854.60
2009/04/23 12:38:40.2     120   -300    248    324    408 158.2  41.4  34164  289.64 0854.60
2009/04/23 12:38:40.3     104   -270    212    290    359 158.8  39.7  34160  289.57 0854.60
2009/04/23 12:38:40.4      28   -291    154    293    331 174.4  30.0  34160  289.58 0854.60
2009/04/23 12:38:40.5     -28   -199    215    202    295 188.0  52.1  34162  289.59 0854.60
2009/04/23 12:38:40.6     -52   -170    126    178    218 197.2  39.1  34164  289.65 0854.60
2009/04/23 12:38:40.7    -157   -313     65    351    358 206.6  10.6  34166  289.67 0854.60
2009/04/23 12:38:40.8     -63   -340    113    346    365 190.5  18.2  34162  289.60 0854.60
2009/04/23 12:38:40.9    -100   -280   -138    298    328 199.8 -31.0  34162  289.61 0854.60
2009/04/23 12:38:41.0    -147   -121    -71    191    203 230.4 -25.4  34160  289.58 0854.60
2009/04/23 12:38:41.1    -153   -349    133    382    405 203.6  19.3  34162  289.62 0854.60
2009/04/23 12:38:41.2    -160   -389     73    421    428 202.5   9.9  34164  289.63 0854.60
2009/04/23 12:38:41.3    -205   -382    -45    434    437 208.2  -6.0  34168  289.70 0854.60
2009/04/23 12:38:41.4    -138   -271     14    305    306 207.1   2.8  34166  289.66 0854.60
2009/04/23 12:38:41.5    -140   -131     44    193    198 226.9  12.9  34166  289.67 0854.60
2009/04/23 12:38:41.6    -235   -179      1    296    297 232.7   0.2  34166  289.66 0854.60
2009/04/23 12:38:41.7    -165   -146    -93    221    239 228.4 -28.6  34162  289.59 0854.60
2009/04/23 12:38:41.8    -187     21    -21    189    191 276.6  -6.5  34170  289.74 0854.60
2009/04/23 12:38:41.9    -138     66     62    154    166 295.8  23.4  34166  289.69 0854.60
2009/04/23 12:38:42.0    -219     79     22    233    235 289.9   5.4  34170  289.73 0854.65
2009/04/23 12:38:42.1    -297     42     15    301    302 278.1   2.9  34164  289.63 0854.65
2009/04/23 12:38:42.2    -302     13    -27    303    305 272.5  -5.1  34170  289.75 0854.65
2009/04/23 12:38:42.3    -318    -14     93    319    333 267.4  16.3  34166  289.66 0854.65
2009/04/23 12:38:42.4    -352   -116    189    371    416 251.7  29.2  34168  289.71 0854.65
2009/04/23 12:38:42.5    -378    -55    158    383    414 261.7  23.7  34170  289.75 0854.65
2009/04/23 12:38:42.6    -299    -91    106    313    331 253.1  18.8  34172  289.78 0854.65
2009/04/23 12:38:42.7    -240    -25    182    242    302 263.9  40.7  34172  289.76 0854.65
2009/04/23 12:38:42.8    -154    -26    146    157    214 260.3  47.9  34172  289.77 0854.65
2009/04/23 12:38:42.9    -194   -139     58    239    246 234.3  13.7  34164  289.64 0854.65
2009/04/23 12:38:43.0    -256    -64    129    264    293 255.9  27.8  34170  289.75 0854.70
2009/04/23 12:38:43.1    -289      0    153    290    327 270.0  30.1  34174  289.81 0854.70
2009/04/23 12:38:43.2    -272     98    181    290    341 290.0  35.1  34172  289.78 0854.70
2009/04/23 12:38:43.3     -72     24    175     76    190 288.6  75.3  34174  289.80 0854.70
2009/04/23 12:38:43.4     -87    -87    176    124    215 225.1  61.1  34178  289.87 0854.70
2009/04/23 12:38:43.5     -51   -252    162    258    304 191.5  35.5  34170  289.73 0854.70
2009/04/23 12:38:43.6     -79   -249     97    262    279 197.6  21.0  34168  289.70 0854.70
2009/04/23 12:38:43.7     -25   -161     50    164    172 188.9  17.1  34170  289.74 0854.70
2009/04/23 12:38:43.8       4   -146     12    147    148 178.2   4.9  34168  289.72 0854.70
2009/04/23 12:38:43.9       6   -133     78    134    155 177.3  33.4  34170  289.74 0854.70
2009/04/23 12:38:44.0      57   -143    158    155    221 158.2  50.4  34166  289.67 0854.70
2009/04/23 12:38:44.1      46   -166    133    173    218 164.4  41.6  34168  289.72 0854.70
2009/04/23 12:38:44.2      86   -162    120    184    219 152.1  36.0  34168  289.70 0854.70
2009/04/23 12:38:44.3      81   -125    105    150    183 147.0  38.4  34170  289.75 0854.70
2009/04/23 12:38:44.4     105    -33    110    111    156 107.7  50.0  34166  289.67 0854.70
2009/04/23 12:38:44.5     102     27    136    106    172  75.0  57.9  34170  289.75 0854.70
2009/04/23 12:38:44.6     141     14    116    142    183  84.3  43.7  34186  290.01 0854.70
2009/04/23 12:38:44.7     200     14     89    201    219  85.9  25.3  34176  289.85 0854.70
2009/04/23 12:38:44.8     134      7    -64    135    149  87.0 -31.6  34168  289.72 0854.70
2009/04/23 12:38:44.9    -118     31     64    123    138 285.1  29.3  34172  289.79 0854.70
2009/04/23 12:38:45.0    -112    -26     62    116    131 256.7  30.3  34168  289.72 0854.58
2009/04/23 12:38:45.1     -76    -73     75    106    129 226.0  38.6  34166  289.67 0854.58
2009/04/23 12:38:45.2    -117   -156    126    196    233 217.0  35.6  34162  289.60 0854.58
2009/04/23 12:38:45.3    -145   -144    156    205    257 225.1  40.9  34166  289.68 0854.58
2009/04/23 12:38:45.4    -198   -247    177    317    363 218.8  31.5  34166  289.67 0854.58
2009/04/23 12:38:45.5    -193   -186    158    269    311 226.0  33.4  34168  289.70 0854.58
2009/04/23 12:38:45.6     -96   -102      9    141    142 223.3   3.8  34164  289.65 0854.58
2009/04/23 12:38:45.7     -46    -63    -41     79     89 216.1 -34.2  34164  289.63 0854.58
2009/04/23 12:38:45.8    -159    -43    -45    165    172 254.9 -15.2  34166  289.69 0854.58
2009/04/23 12:38:45.9    -208   -147     -9    256    257 234.7  -2.1  34170  289.73 0854.58
2009/04/23 12:38:46.0    -246   -179      9    305    306 234.0   1.8  34166  289.66 0854.58
2009/04/23 12:38:46.1    -242   -140    -20    280    281 240.0  -4.1  34168  289.70 0854.58
2009/04/23 12:38:46.2    -180   -164     25    244    246 227.7   5.9  34166  289.66 0854.58
2009/04/23 12:38:46.3    -181   -187      8    261    262 224.1   1.8  34166  289.66 0854.58
2009/04/23 12:38:46.4    -182   -189    -74    263    273 223.9 -20.4  34168  289.70 0854.58
2009/04/23 12:38:46.5    -102   -161    -16    191    192 212.5  -4.9  34166  289.67 0854.58
2009/04/23 12:38:46.6       4   -230     87    231    246 179.0  21.7  34162  289.59 0854.58
2009/04/23 12:38:46.7      72   -243     88    254    270 163.5  19.2  34166  289.66 0854.58
2009/04/23 12:38:46.8     123   -172    114    212    240 144.4  30.6  34164  289.65 0854.58
2009/04/23 12:38:46.9     161   -102     56    191    200 122.4  16.3  34166  289.69 0854.58
2009/04/23 12:38:47.0      95    -99     32    138    142 136.3  13.2  34168  289.70 0854.61
2009/04/23 12:38:47.1      42   -142     68    149    163 163.5  25.9  34164  289.63 0854.61
2009/04/23 12:38:47.2       0   -462      5    463    464 180.0   0.7  34164  289.63 0854.61
2009/04/23 12:38:47.3     -35   -483     43    485    487 184.2   5.1  34158  289.54 0854.61
2009/04/23 12:38:47.4    -149   -483     43    506    508 197.2   4.9  34162  289.61 0854.61
2009/04/23 12:38:47.5    -103   -419     -9    432    433 193.8  -1.3  34162  289.61 0854.61
2009/04/23 12:38:47.6      70   -333    -75    341    350 168.1 -12.5  34162  289.60 0854.61
2009/04/23 12:38:47.7     207   -284      5    352    353 143.9   0.8  34162  289.62 0854.61
2009/04/23 12:38:47.8     154   -153     -4    218    219 134.7  -1.3  34156  289.52 0854.61
2009/04/23 12:38:47.9     129    -76      9    150    151 120.6   3.8  34166  289.69 0854.61
2009/04/23 12:38:48.0      56    -67     15     88     90 140.4  10.1  34164  289.63 0854.61
2009/04/23 12:38:48.1    -119   -132      3    178    179 222.1   1.2  34162  289.62 0854.61
2009/04/23 12:38:48.2     -98    -95    -43    137    144 226.0 -17.6  34166  289.69 0854.61
2009/04/23 12:38:48.3     -38      7   -127     39    132 281.5 -86.7  34166  289.69 0854.61
2009/04/23 12:38:48.4     -48     46   -124     67    140 314.0 -73.3  34166  289.69 0854.61
2009/04/23 12:38:48.5     -28      9   -103     30    107 288.2 -87.7  34166  289.67 0854.61
2009/04/23 12:38:48.6      37     55    -79     67    103  34.3 -59.8  34168  289.70 0854.61
2009/04/23 12:38:48.7      80     52    -64     96    115  57.1 -40.4  34166  289.69 0854.61
2009/04/23 12:38:48.8      17      4    -25     18     30  74.9 -64.9  34166  289.69 0854.61
2009/04/23 12:38:48.9    -108    -35     38    114    121 251.8  18.4  34166  289.69 0854.61
2009/04/23 12:38:49.0    -163      8     58    164    173 273.0  20.0  34166  289.69 0854.63
2009/04/23 12:38:49.1    -170    -57     73    180    194 251.4  23.0  34166  289.67 0854.63
2009/04/23 12:38:49.2    -222    -92      8    241    242 247.4   2.1  34168  289.70 0854.63
2009/04/23 12:38:49.3    -298    -90   -125    312    336 253.2 -27.4  34166  289.68 0854.63
2009/04/23 12:38:49.4    -386    -76   -133    394    417 258.8 -18.7  34160  289.56 0854.63
2009/04/23 12:38:49.5    -286   -140    -21    319    320 243.8  -3.9  34162  289.59 0854.63
2009/04/23 12:38:49.6    -301    -84     61    313    320 254.3  11.1  34168  289.70 0854.63
2009/04/23 12:38:49.7    -369    -82     95    379    391 257.4  14.2  34172  289.76 0854.63
2009/04/23 12:38:49.8    -277   -140     12    311    312 243.1   2.3  34168  289.71 0854.63
2009/04/23 12:38:49.9    -171   -142    138    223    262 230.2  35.0  34166  289.66 0854.63
2009/04/23 12:38:50.0    -277    -83     75    290    300 253.2  14.5  34168  289.70 0854.63
2009/04/23 12:38:50.1    -330    -78     25    340    341 256.7   4.3  34164  289.65 0854.63
2009/04/23 12:38:50.2    -280    -85      6    293    294 253.1   1.2  34164  289.64 0854.63
2009/04/23 12:38:50.3    -281   -123     66    308    316 246.3  12.1  34166  289.68 0854.63
2009/04/23 12:38:50.4    -265   -169    102    315    332 237.5  17.9  34164  289.63 0854.63
2009/04/23 12:38:50.5    -204   -152     50    255    260 233.4  11.1  34166  289.66 0854.63
2009/04/23 12:38:50.6    -273     11    -92    274    290 272.5 -18.7  34162  289.59 0854.63
2009/04/23 12:38:50.7    -219   -177    107    282    301 231.1  21.7  34166  289.68 0854.63
2009/04/23 12:38:50.8    -256   -174    -49    310    314 235.8  -9.0  34168  289.71 0854.63
2009/04/23 12:38:50.9    -129   -167    -49    212    218 217.8 -13.2  34166  289.69 0854.63
2009/04/23 12:38:51.0    -125   -244    -25    275    277 207.1  -5.4  34162  289.61 0854.66
2009/04/23 12:38:51.1     -15   -319      5    320    321 182.7   1.0  34164  289.64 0854.66
2009/04/23 12:38:51.2    -103   -411    -19    424    425 194.2  -2.6  34160  289.56 0854.66
2009/04/23 12:38:51.3       5   -361    -51    362    366 179.1  -8.1  34162  289.62 0854.66
2009/04/23 12:38:51.4     294   -274      3    403    404 133.0   0.5  34160  289.58 0854.66
2009/04/23 12:38:51.5     266   -304   -142    405    430 138.8 -19.3  34154  289.48 0854.66
2009/04/23 12:38:51.6      26   -334     23    336    337 175.5   4.0  34162  289.60 0854.66
2009/04/23 12:38:51.7      26   -350     55    351    356 175.7   8.9  34162  289.62 0854.66
2009/04/23 12:38:51.8      95   -313     54    328    333 163.1   9.5  34162  289.60 0854.66
2009/04/23 12:38:51.9      28   -342     78    344    353 175.3  12.8  34162  289.62 0854.66
2009/04/23 12:38:52.0     108   -248    106    271    290 156.4  22.5  34162  289.59 0854.66
2009/04/23 12:38:52.1     146   -229    119    272    296 147.4  25.1  34158  289.53 0854.66
2009/04/23 12:38:52.2     182   -254    108    313    332 144.4  19.1  34158  289.53 0854.66
2009/04/23 12:38:52.3     203   -230    108    307    325 138.6  20.1  34150  289.41 0854.66
2009/04/23 12:38:52.4     309   -207    110    373    390 123.9  16.5  34162  289.59 0854.66
2009/04/23 12:38:52.5     229   -223    138    320    348 134.2  24.9  34162  289.62 0854.66
2009/04/23 12:38:52.6     179   -230    180    292    343 142.2  34.6  34160  289.58 0854.66
2009/04/23 12:38:52.7      78   -289    256    300    394 164.9  44.9  34162  289.59 0854.66
2009/04/23 12:38:52.8      32   -308    212    310    375 174.0  37.7  34158  289.55 0854.66
2009/04/23 12:38:52.9      -4   -289    190    290    346 180.9  36.3  34162  289.59 0854.66
2009/04/23 12:38:53.0     -52   -305    214    310    376 189.7  37.9  34158  289.54 0854.67
2009/04/23 12:38:53.1    -100   -412    196    424    467 193.7  26.9  34162  289.60 0854.67
2009/04/23 12:38:53.2    -123   -492    243    508    563 194.1  27.3  34156  289.50 0854.67
2009/04/23 12:38:53.3    -115   -347    169    366    403 198.5  26.5  34158  289.54 0854.67
2009/04/23 12:38:53.4     -94   -385    250    397    469 193.8  35.1  34162  289.61 0854.67
2009/04/23 12:38:53.5    -140   -450    280    472    548 197.3  33.4  34162  289.60 0854.67
2009/04/23 12:38:53.6    -181   -451    312    487    578 201.9  35.6  34164  289.65 0854.67
2009/04/23 12:38:53.8    -103   -443    225    455    507 193.1  28.2  34172  289.76 0854.67
2009/04/23 12:38:53.9    -315   -584    134    664    678 208.4  11.4  34164  289.65 0854.67
2009/04/23 12:38:54.0    -293   -523     62    600    604 209.3   5.9  34160  289.56 0854.67
2009/04/23 12:38:54.1    -139   -730    149    744    759 190.8  11.3  34166  289.67 0854.67
2009/04/23 12:38:54.2     -82   -762     43    767    769 186.2   3.2  34164  289.65 0854.67
2009/04/23 12:38:54.3    -125   -526    -64    541    545 193.4  -6.8  34150  289.41 0854.67
2009/04/23 12:38:54.4    -279   -507   -105    579    589 208.9 -10.3  34154  289.46 0854.67
2009/04/23 12:38:54.5    -344   -539      4    640    641 212.6   0.4  34144  289.30 0854.67
2009/04/23 12:38:54.6    -681   -705   -130    981    990 224.0  -7.6  34158  289.53 0854.67
2009/04/23 12:38:54.7    -537   -697   -168    880    896 217.6 -10.8  34146  289.32 0854.67
2009/04/23 12:38:54.8    -614   -513   -245    801    837 230.1 -21.9  34140  289.23 0854.67
2009/04/23 12:38:54.9    -821   -341    -79    890    894 247.4  -5.1  34158  289.55 0854.67
2009/04/23 12:38:55.0    -480   -388    252    618    667 231.0  23.5  34162  289.60 0854.67
2009/04/23 12:38:55.1    -430   -301    298    526    604 235.0  32.1  34154  289.47 0854.66
2009/04/23 12:38:55.2    -413   -203    163    461    488 243.8  20.3  34160  289.56 0854.66
2009/04/23 12:38:55.3    -264   -221    133    345    369 230.0  22.0  34162  289.62 0854.66
2009/04/23 12:38:55.4    -476   -257    138    541    559 241.6  14.3  34156  289.51 0854.66
2009/04/23 12:38:55.5    -315   -229    223    390    449 234.0  32.3  34162  289.61 0854.66
2009/04/23 12:38:55.6    -183   -421    248    460    522 203.5  30.8  34164  289.64 0854.66
2009/04/23 12:38:55.7    -170   -357    271    396    479 205.5  37.7  34164  289.63 0854.66
2009/04/23 12:38:55.8     -92   -288    279    303    411 197.8  47.6  34164  289.65 0854.66
2009/04/23 12:38:55.9     -42   -334    278    337    436 187.3  43.7  34162  289.61 0854.66
2009/04/23 12:38:56.0     -40   -316    274    319    420 187.2  45.0  34164  289.65 0854.66
2009/04/23 12:38:56.1     -20   -227    285    228    364 185.1  57.3  34164  289.63 0854.66
2009/04/23 12:38:56.2    -120   -299    291    323    434 201.9  46.8  34166  289.67 0854.66
2009/04/23 12:38:56.3    -292   -117    192    315    368 248.2  34.3  34162  289.60 0854.66
2009/04/23 12:38:56.4    -347    -26    124    348    369 265.7  20.3  34166  289.67 0854.66
2009/04/23 12:38:56.5    -385    -90     71    396    403 256.8  10.2  34166  289.69 0854.66
2009/04/23 12:38:56.6    -528   -286     84    601    608 241.5   8.0  34172  289.78 0854.66
2009/04/23 12:38:56.7    -477   -160      0    504    505 251.4   0.0  34178  289.86 0854.66
2009/04/23 12:38:56.8    -545   -101     21    555    556 259.5   2.2  34174  289.80 0854.66
2009/04/23 12:38:56.9    -604   -127     24    618    619 258.1   2.2  34178  289.89 0854.66
2009/04/23 12:38:57.0    -350   -107    129    367    390 252.9  19.4  34164  289.65 0854.66
2009/04/23 12:38:57.1    -323   -147    213    355    413 245.5  33.8  34164  289.65 0854.68
2009/04/23 12:38:57.2    -358    115     -8    377    378 287.8  -1.3  34152  289.45 0854.68
2009/04/23 12:38:57.3    -363     46    143    366    392 277.4  22.4  34166  289.69 0854.68
2009/04/23 12:38:57.4    -466     64    -82    471    479 277.9  -9.9  34164  289.64 0854.68
2009/04/23 12:38:57.5    -303    316    -67    439    445 316.2  -8.7  34164  289.65 0854.68
2009/04/23 12:38:57.6    -384    194    -33    431    433 296.9  -4.5  34166  289.68 0854.68
2009/04/23 12:38:57.7    -297    133    -91    326    338 294.1 -20.2  34164  289.64 0854.68
2009/04/23 12:38:57.8    -240    156    165    287    331 303.1  32.6  34166  289.66 0854.68
2009/04/23 12:38:57.9    -268    132     94    299    314 296.2  17.5  34166  289.68 0854.68
2009/04/23 12:38:58.0    -311    171     -7    356    357 298.9  -1.2  34164  289.64 0854.68
2009/04/23 12:38:58.1    -595    -67    -47    599    601 263.5  -4.6  34128  289.03 0854.68
2009/04/23 12:38:58.2    -643   -138   -113    658    668 257.9  -9.8  34150  289.41 0854.68
2009/04/23 12:38:58.3    -536   -214    -98    578    587 248.2  -9.7  34168  289.71 0854.68
2009/04/23 12:38:58.4    -276   -130   -130    306    332 244.8 -28.7  34154  289.47 0854.68
2009/04/23 12:38:58.5    -461    120   -112    477    491 284.6 -13.3  34156  289.50 0854.68
2009/04/23 12:38:58.6    -354    270    -90    446    455 307.3 -11.5  34162  289.60 0854.68
2009/04/23 12:38:58.7    -320    218    145    388    414 304.3  21.5  34162  289.60 0854.68
2009/04/23 12:38:58.8    -433    213    179    483    515 296.2  21.3  34170  289.74 0854.68
2009/04/23 12:38:58.9    -526    114     94    539    548 282.3   9.9  34178  289.87 0854.68
2009/04/23 12:38:59.0    -618   -104    -75    627    632 260.4  -6.9  34146  289.33 0854.68
2009/04/23 12:38:59.1    -415    -12   -103    416    429 268.3 -13.9  34152  289.43 0854.68
2009/04/23 12:38:59.2    -478    -97     56    488    492 258.5   6.6  34170  289.73 0854.68
2009/04/23 12:38:59.3    -380   -126    -22    401    402 251.6  -3.2  34164  289.64 0854.68
2009/04/23 12:38:59.4    -650   -163   -171    671    693 255.9 -14.3  34148  289.36 0854.68
2009/04/23 12:38:59.5    -371    -55    113    376    393 261.5  16.8  34136  289.16 0854.68
2009/04/23 12:38:59.6    -485    149    216    508    552 287.1  24.5  34162  289.60 0854.68
2009/04/23 12:38:59.7    -605     21     38    606    608 272.0   3.6  34168  289.71 0854.68
2009/04/23 12:38:59.8    -503     49     48    506    509 275.6   5.5  34174  289.81 0854.68
2009/04/23 12:38:59.9    -491     19   -158    492    516 272.2 -22.9  34150  289.39 0854.68
2009/04/23 12:39:00.0    -232    168    -83    287    298 306.0 -21.0  34150  289.41 0854.68
2009/04/23 12:39:00.1     -95    171    -28    196    199 331.0  -8.2  34162  289.60 0854.68
2009/04/23 12:39:00.2    -159     81    -53    179    187 297.1 -16.6  34162  289.60 0854.68
2009/04/23 12:39:00.3     -51     27     40     58     70 298.0  38.6  34158  289.53 0854.68
2009/04/23 12:39:00.4    -244    -15     86    245    260 266.3  19.4  34162  289.59 0854.68
2009/04/23 12:39:00.5    -257   -238     50    351    355 227.1   8.1  34134  289.13 0854.68
2009/04/23 12:39:00.6    -246   -133     46    280    284 241.6   9.5  34162  289.59 0854.68
2009/04/23 12:39:00.7    -313    -53    -51    318    323 260.4  -9.1  34160  289.58 0854.68
2009/04/23 12:39:00.8    -355   -166   -108    393    408 244.9 -15.4  34144  289.31 0854.68
2009/04/23 12:39:00.9    -387   -325   -126    506    522 230.0 -14.0  34166  289.67 0854.68
2009/04/23 12:39:01.0    -136   -476    -86    496    504 196.0  -9.9  34154  289.47 0854.68
2009/04/23 12:39:01.1    -112   -370     -1    387    388 196.9  -0.2  34162  289.59 0854.69
2009/04/23 12:39:01.2     -12   -321    102    322    338 182.3  17.7  34162  289.60 0854.69
2009/04/23 12:39:01.3    -197   -355     79    407    415 209.0  11.1  34170  289.75 0854.69
2009/04/23 12:39:01.4    -330   -452   -143    560    579 216.1 -14.4  34140  289.24 0854.69
2009/04/23 12:39:01.5    -465   -513   -171    693    714 222.2 -13.9  34142  289.25 0854.69
2009/04/23 12:39:01.6    -403   -343   -116    530    543 229.6 -12.4  34144  289.31 0854.69
2009/04/23 12:39:01.7    -460   -286   -149    542    562 238.1 -20.0  34148  289.36 0854.69
2009/04/23 12:39:01.8    -426   -218   -186    479    513 242.8 -26.8  34146  289.35 0854.69
2009/04/23 12:39:01.9    -353   -275   -214    448    496 232.1 -31.7  34146  289.34 0854.69
2009/04/23 12:39:02.0    -270   -272   -186    384    426 224.8 -32.1  34146  289.34 0854.69
2009/04/23 12:39:02.1    -451   -360   -268    578    637 231.4 -31.0  34152  289.45 0854.69
2009/04/23 12:39:02.2    -553   -304   -150    632    650 241.2 -13.4  34152  289.45 0854.69
2009/04/23 12:39:02.3    -586   -255   -164    639    660 246.5 -14.4  34148  289.37 0854.69
2009/04/23 12:39:02.4    -501   -200    -58    540    544 248.2  -6.2  34150  289.41 0854.69
2009/04/23 12:39:02.5    -456   -265    -53    528    531 239.9  -5.8  34156  289.51 0854.69
2009/04/23 12:39:02.6    -408   -250   -132    479    496 238.5 -20.1  34162  289.59 0854.69
2009/04/23 12:39:02.7    -362   -318   -176    483    514 228.7 -25.3  34152  289.44 0854.69
2009/04/23 12:39:02.8    -442   -371   -191    578    608 230.0 -23.6  34154  289.46 0854.69
2009/04/23 12:39:02.9    -426   -154    -97    454    465 250.1 -12.2  34142  289.26 0854.69
2009/04/23 12:39:03.0    -522    -89   -158    530    554 260.3 -16.6  34144  289.31 0854.69
2009/04/23 12:39:03.1    -255   -243   -170    353    391 226.3 -32.1  34154  289.47 0854.69
2009/04/23 12:39:03.2    -230   -223   -163    321    360 226.0 -33.6  34152  289.43 0854.69
2009/04/23 12:39:03.3     -64   -401   -133    407    429 189.1 -18.2  34154  289.46 0854.69
2009/04/23 12:39:03.4     -60   -239   -127    247    277 194.3 -33.7  34156  289.49 0854.69
2009/04/23 12:39:03.5     -85   -329   -122    340    362 194.6 -19.8  34154  289.47 0854.69
2009/04/23 12:39:03.6     -82   -291   -134    303    331 195.8 -29.7  34156  289.51 0854.69
2009/04/23 12:39:03.7    -153   -254   -178    297    346 211.0 -38.2  34146  289.35 0854.69
2009/04/23 12:39:03.8    -204   -192   -192    281    340 226.8 -42.0  34148  289.36 0854.69
2009/04/23 12:39:03.9      33   -347    -98    349    362 174.4 -20.3  34148  289.37 0854.69
2009/04/23 12:39:04.0      97   -404    -72    416    423 166.5  -9.9  34156  289.49 0854.69
2009/04/23 12:39:04.1      87   -459   -139    468    489 169.3 -16.5  34156  289.49 0854.71
2009/04/23 12:39:04.2      20   -583   -115    584    596 178.0 -11.2  34150  289.39 0854.71
2009/04/23 12:39:04.3     -89   -641    -46    648    650 187.9  -4.1  34154  289.48 0854.71
2009/04/23 12:39:04.4     -78   -592    -98    598    607 187.6  -9.3  34154  289.47 0854.71
2009/04/23 12:39:04.5     -44   -580    -63    582    586 184.4  -6.2  34154  289.46 0854.71
2009/04/23 12:39:04.6      12   -580    -26    581    582 178.7  -2.6  34150  289.41 0854.71
2009/04/23 12:39:04.7      40   -522    -10    524    525 175.5  -1.2  34146  289.35 0854.71
2009/04/23 12:39:04.8    -107   -368    -71    384    391 196.3 -10.5  34144  289.30 0854.71
2009/04/23 12:39:04.9    -148   -372    -30    401    403 201.7  -4.4  34146  289.35 0854.71
2009/04/23 12:39:05.0     -42   -494     25    496    497 184.9   2.9  34150  289.39 0854.71
2009/04/23 12:39:05.1     -62   -307     85    314    326 191.5  15.2  34150  289.41 0854.71
2009/04/23 12:39:05.2     -56   -278     55    284    290 191.5  11.1  34150  289.39 0854.71
2009/04/23 12:39:05.3     -74   -381     -1    389    390 191.1  -0.3  34150  289.40 0854.71
2009/04/23 12:39:05.4      48   -281    -20    286    287 170.2  -4.1  34140  289.24 0854.71
2009/04/23 12:39:05.5     185   -530    132    562    578 160.7  13.2  34146  289.34 0854.71
2009/04/23 12:39:05.6     197   -554     44    589    591 160.4   4.3  34148  289.37 0854.71
2009/04/23 12:39:05.7     153   -525     85    547    554 163.7   8.9  34142  289.26 0854.71
2009/04/23 12:39:05.8      60   -337    119    343    364 169.8  19.2  34146  289.32 0854.71
2009/04/23 12:39:05.9     -39   -622     80    624    630 183.6   7.3  34150  289.40 0854.71
2009/04/23 12:39:06.0     182   -545      2    575    576 161.5   0.2  34146  289.32 0854.71
2009/04/23 12:39:06.1      87   -654   -159    660    679 172.4 -13.6  34144  289.31 0854.68
2009/04/23 12:39:06.2     110   -731    -97    740    747 171.4  -7.5  34140  289.24 0854.68
2009/04/23 12:39:06.3     166   -564     18    588    589 163.6   1.8  34144  289.29 0854.68
2009/04/23 12:39:06.4      96   -528    171    537    564 169.7  17.7  34146  289.33 0854.68
2009/04/23 12:39:06.5      -1   -399    202    400    448 180.3  29.1  34146  289.33 0854.68
2009/04/23 12:39:06.6     158   -233    135    282    312 145.7  27.4  34144  289.29 0854.68
2009/04/23 12:39:06.7     267   -100    144    286    320 110.6  28.7  34144  289.29 0854.68
2009/04/23 12:39:06.8     417   -131     28    438    439 107.4   3.7  34146  289.34 0854.68
2009/04/23 12:39:06.9     310   -146      5    343    344 115.3   1.0  34146  289.35 0854.68
2009/04/23 12:39:07.0     234   -164     86    286    299 125.1  16.8  34146  289.34 0854.68
2009/04/23 12:39:07.1     335   -265    100    428    440 128.3  13.2  34140  289.22 0854.68
2009/04/23 12:39:07.2     153   -154    228    218    315 135.2  51.4  34150  289.41 0854.68
2009/04/23 12:39:07.3     148   -282    -90    319    332 152.3 -15.9  34148  289.36 0854.68
2009/04/23 12:39:07.4     105   -355   -170    371    408 163.5 -30.7  34146  289.33 0854.68
2009/04/23 12:39:07.5      15   -254   -125    255    283 176.6 -32.4  34140  289.22 0854.68
2009/04/23 12:39:07.6     -91   -371     46    383    386 193.8   6.9  34146  289.32 0854.68
2009/04/23 12:39:07.7     -68   -331     85    339    350 191.7  14.2  34146  289.32 0854.68
2009/04/23 12:39:07.8     -74   -350     49    358    362 192.1   7.8  34146  289.32 0854.68
2009/04/23 12:39:07.9    -123   -342     42    364    367 199.8   6.6  34146  289.35 0854.68
2009/04/23 12:39:08.0    -168   -254    -36    305    308 213.6  -6.9  34148  289.37 0854.68
2009/04/23 12:39:08.1     -79   -213    -26    228    230 200.5  -6.7  34144  289.31 0854.67
2009/04/23 12:39:08.2     -58   -174    -75    184    198 198.5 -27.5  34152  289.45 0854.67
2009/04/23 12:39:08.3     -52   -170   -135    178    223 197.2 -45.3  34152  289.43 0854.67
2009/04/23 12:39:08.4      52   -204    -70    211    222 165.7 -23.8  34150  289.41 0854.67
2009/04/23 12:39:08.5      65   -301    -33    309    311 167.7  -6.2  34148  289.37 0854.67
2009/04/23 12:39:08.6     167   -281     14    327    328 149.3   2.5  34148  289.36 0854.67
2009/04/23 12:39:08.7       7   -171     13    172    173 177.5   4.4  34144  289.30 0854.67
2009/04/23 12:39:08.8     -32   -300   -101    302    318 186.3 -23.6  34152  289.42 0854.67
2009/04/23 12:39:08.9     -20   -276    -77    277    288 184.2 -15.5  34154  289.46 0854.67
2009/04/23 12:39:09.0     142   -201    -31    247    250 144.8  -7.3  34150  289.39 0854.67
2009/04/23 12:39:09.1     181   -165    -51    246    252 132.4 -11.9  34148  289.37 0854.67
2009/04/23 12:39:09.2     171   -157    -13    233    234 132.7  -3.3  34150  289.41 0854.67
2009/04/23 12:39:09.3      96   -188     41    212    217 152.8  11.1  34150  289.40 0854.67
2009/04/23 12:39:09.4      13   -163      8    164    165 175.1   2.9  34150  289.41 0854.67
2009/04/23 12:39:09.5     -74   -277      3    287    288 195.1   0.7  34146  289.34 0854.67
2009/04/23 12:39:09.6     -40   -257     99    261    279 188.9  21.7  34150  289.41 0854.67
2009/04/23 12:39:09.7    -115   -327    126    347    369 199.5  20.8  34148  289.38 0854.67
2009/04/23 12:39:09.8    -183   -257     64    316    323 215.5  11.6  34150  289.39 0854.67
2009/04/23 12:39:09.9    -126   -126     66    179    190 225.1  20.7  34150  289.41 0854.67
2009/04/23 12:39:10.0    -141   -233    100    273    290 211.2  20.9  34152  289.44 0854.67
2009/04/23 12:39:10.1    -192   -231    -73    301    310 219.7 -13.7  34146  289.34 0854.68
2009/04/23 12:39:10.2    -148    -82     16    170    171 241.1   5.4  34150  289.41 0854.68
2009/04/23 12:39:10.3    -327   -208   -126    388    407 237.5 -23.3  34146  289.33 0854.68
2009/04/23 12:39:10.4    -322   -322    -69    456    462 225.0  -8.6  34152  289.43 0854.68
2009/04/23 12:39:10.5    -399   -291   -134    494    512 233.9 -15.2  34150  289.39 0854.68
2009/04/23 12:39:10.6    -336   -402     -2    525    526 219.9  -0.3  34154  289.46 0854.68
2009/04/23 12:39:10.7    -300   -333     21    449    450 222.1   2.8  34150  289.39 0854.68
2009/04/23 12:39:10.8    -333   -465    -39    573    575 215.6  -3.9  34152  289.44 0854.68
2009/04/23 12:39:10.9    -388   -432    -68    581    585 221.9  -6.7  34148  289.37 0854.68
2009/04/23 12:39:11.0    -482   -419      7    639    640 229.0   0.7  34132  289.09 0854.68
2009/04/23 12:39:11.1    -485   -463   -136    671    685 226.3 -11.5  34150  289.41 0854.68
2009/04/23 12:39:11.2    -582   -477   -207    753    782 230.7 -15.4  34156  289.49 0854.68
2009/04/23 12:39:11.3    -353   -436   -178    562    590 219.0 -17.6  34148  289.37 0854.68
2009/04/23 12:39:11.4    -271   -339   -184    435    472 218.6 -28.6  34150  289.39 0854.68
2009/04/23 12:39:11.5    -251   -445   -181    512    543 209.4 -24.6  34134  289.13 0854.68
2009/04/23 12:39:11.6    -370   -307   -104    482    494 230.3 -12.2  34138  289.20 0854.68
2009/04/23 12:39:11.7    -481   -142   -159    502    527 253.5 -17.6  34150  289.40 0854.68
2009/04/23 12:39:11.8    -382   -107   -198    397    443 254.3 -32.8  34150  289.41 0854.68
2009/04/23 12:39:11.9    -424    -86   -251    433    500 258.4 -37.2  34154  289.47 0854.68
2009/04/23 12:39:12.0    -404   -106   -291    418    509 255.2 -42.7  34156  289.49 0854.68
2009/04/23 12:39:12.1    -483   -217   -313    530    615 245.8 -37.8  34154  289.46 0854.60
2009/04/23 12:39:12.2    -552   -131   -266    568    627 256.6 -31.3  34154  289.47 0854.60
2009/04/23 12:39:12.3    -476   -240   -313    534    618 243.2 -37.4  34156  289.52 0854.60
2009/04/23 12:39:12.4    -351   -347   -143    494    514 225.4 -21.0  34148  289.37 0854.60
2009/04/23 12:39:12.5    -296   -376   -174    479    509 218.2 -25.3  34146  289.32 0854.60
2009/04/23 12:39:12.6    -221   -164   -203    276    342 233.4 -44.4  34150  289.41 0854.60
2009/04/23 12:39:12.7    -156   -368   -149    400    426 203.0 -25.7  34150  289.39 0854.60
2009/04/23 12:39:12.8    -131   -277   -206    307    369 205.3 -41.4  34146  289.35 0854.60
2009/04/23 12:39:12.9     -92   -334   -122    347    368 195.5 -19.4  34152  289.42 0854.60
2009/04/23 12:39:13.0     -29   -354    -79    356    365 184.7 -12.6  34152  289.43 0854.60
2009/04/23 12:39:13.1     -92   -452   -136    462    482 191.6 -16.4  34144  289.30 0854.60
2009/04/23 12:39:13.2     -59   -458   -149    462    486 187.4 -17.9  34150  289.40 0854.60
2009/04/23 12:39:13.3    -114   -418   -134    434    454 195.3 -22.1  34152  289.43 0854.60
2009/04/23 12:39:13.4     -78   -384    -82    392    401 191.5 -11.9  34148  289.37 0854.60
2009/04/23 12:39:13.5    -238   -303    -71    386    393 218.1 -10.5  34142  289.28 0854.60
2009/04/23 12:39:13.6    -184   -360   -125    405    424 207.1 -17.2  34150  289.39 0854.60
2009/04/23 12:39:13.7     -50   -460   -119    463    479 186.3 -14.5  34150  289.39 0854.60
2009/04/23 12:39:13.8      -6   -350   -119    351    370 181.0 -23.6  34152  289.45 0854.60
2009/04/23 12:39:13.9      12   -266   -198    267    332 177.4 -44.5  34150  289.39 0854.60
2009/04/23 12:39:14.0     -13   -286    -80    287    297 182.7 -20.0  34142  289.27 0854.60
2009/04/23 12:39:14.1      17   -225    -58    226    234 175.5 -14.4  34148  289.38 0854.59
2009/04/23 12:39:14.2      40   -198    -37    203    207 168.4 -10.5  34144  289.31 0854.59
2009/04/23 12:39:14.3      78   -232     12    245    246 161.3   2.9  34148  289.37 0854.59
2009/04/23 12:39:14.4      68   -234     42    244    248 163.7   9.9  34148  289.37 0854.59
2009/04/23 12:39:14.5      23   -275     81    277    289 175.1  16.3  34150  289.41 0854.59
2009/04/23 12:39:14.6      91   -274     -6    289    290 161.5  -1.3  34148  289.37 0854.59
2009/04/23 12:39:14.7      60   -276    -11    283    284 167.7  -2.2  34148  289.37 0854.59
2009/04/23 12:39:14.8      49   -284    -74    289    299 170.2 -14.5  34146  289.32 0854.59
2009/04/23 12:39:14.9     -91   -323     38    336    339 195.8   6.5  34152  289.45 0854.59
2009/04/23 12:39:15.0    -208   -321    -55    383    388 213.0  -8.2  34152  289.43 0854.59
2009/04/23 12:39:15.1     -87   -264    -90    279    293 198.3 -22.9  34154  289.46 0854.59
2009/04/23 12:39:15.2       1    -90    -31     91     97 179.1 -18.7  34148  289.38 0854.59
2009/04/23 12:39:15.3    -114    -78    -38    139    145 235.8 -15.4  34146  289.35 0854.59
2009/04/23 12:39:15.4    -180    -35    -34    184    188 258.8 -10.5  34156  289.50 0854.59
2009/04/23 12:39:15.5     -87    -96    -84    130    154 222.3 -40.0  34152  289.43 0854.59
2009/04/23 12:39:15.6      20    -36   -113     42    120 150.1 -83.6  34154  289.46 0854.59
2009/04/23 12:39:15.7      63   -142   -200    156    253 155.9 -62.6  34150  289.41 0854.59
2009/04/23 12:39:15.8     105   -188   -227    216    313 150.8 -56.0  34156  289.51 0854.59
2009/04/23 12:39:15.9     132   -277   -241    307    390 154.5 -46.5  34146  289.32 0854.59
2009/04/23 12:39:16.0     214   -294   -107    364    379 143.9 -21.2  34148  289.37 0854.59
2009/04/23 12:39:16.1     152   -234   -100    280    298 147.0 -19.7  34148  289.37 0854.55
2009/04/23 12:39:16.2     207   -210    132    296    324 135.5  25.8  34150  289.39 0854.55
2009/04/23 12:39:16.3     207   -353    -21    410    411 149.6  -3.0  34150  289.41 0854.55
2009/04/23 12:39:16.4     100   -405    -53    418    422 166.1  -7.3  34150  289.41 0854.55
2009/04/23 12:39:16.5      33   -426    -14    428    429 175.5  -1.9  34150  289.39 0854.55
2009/04/23 12:39:16.6     125   -342    -22    365    366 159.9  -3.5  34152  289.42 0854.55
2009/04/23 12:39:16.7     136   -276    -35    308    311 153.7  -6.6  34150  289.41 0854.55
2009/04/23 12:39:16.8     162   -182     -2    245    246 138.3  -0.5  34152  289.42 0854.55
2009/04/23 12:39:16.9     129   -205    -75    243    254 147.7 -22.3  34152  289.42 0854.55
2009/04/23 12:39:17.0     145   -201    -80    248    261 144.2 -18.1  34152  289.42 0854.55
2009/04/23 12:39:17.1      80   -215    -36    230    233 159.5  -9.0  34152  289.45 0854.55
2009/04/23 12:39:17.2      82   -190     10    208    209 156.6   2.9  34150  289.40 0854.55
2009/04/23 12:39:17.3     158   -158     23    224    226 135.0   5.9  34154  289.46 0854.55
2009/04/23 12:39:17.4     263   -224      0    346    347 130.4   0.1  34152  289.43 0854.55
2009/04/23 12:39:17.5     136   -271     25    304    306 153.3   4.9  34152  289.42 0854.55
2009/04/23 12:39:17.6     109   -261     44    283    287 157.3   8.9  34152  289.44 0854.55
2009/04/23 12:39:17.7      70   -250     51    260    266 164.2  11.1  34148  289.37 0854.55
2009/04/23 12:39:17.8      -7   -277     85    278    291 181.6  17.1  34154  289.47 0854.55
2009/04/23 12:39:17.9      -3   -235     64    236    245 180.9  15.2  34154  289.47 0854.55
2009/04/23 12:39:18.0      83   -233     -9    248    249 160.2  -2.2  34152  289.44 0854.55
2009/04/23 12:39:18.1      96   -314     80    329    339 163.0  13.8  34152  289.45 0854.61
2009/04/23 12:39:18.2      21   -336     58    337    343 176.4   9.9  34152  289.45 0854.61
2009/04/23 12:39:18.3      -6   -330     55    331    336 181.2   9.5  34152  289.43 0854.61
2009/04/23 12:39:18.4      31   -285     35    287    290 173.8   7.1  34150  289.41 0854.61
2009/04/23 12:39:18.5      69   -319     88    327    339 167.7  15.2  34152  289.45 0854.61
2009/04/23 12:39:18.6      -5   -336    153    337    370 181.0  26.2  34154  289.47 0854.61
2009/04/23 12:39:18.7     -45   -316    166    320    360 188.1  29.6  34154  289.47 0854.61
2009/04/23 12:39:18.8     -74   -213    187    226    293 199.2  43.7  34154  289.46 0854.61
2009/04/23 12:39:18.9     -24   -235    213    237    318 186.0  46.6  34156  289.49 0854.61
2009/04/23 12:39:19.0     -23   -215    180    217    281 186.3  43.8  34152  289.44 0854.61
2009/04/23 12:39:19.1      -7   -228    217    229    315 181.8  48.4  34152  289.44 0854.61
2009/04/23 12:39:19.2      26   -258    206    260    331 174.2  42.4  34156  289.49 0854.61
2009/04/23 12:39:19.3      25   -232    169    234    288 173.8  39.5  34156  289.49 0854.61
2009/04/23 12:39:19.4       1   -263    226    264    347 179.8  44.8  34150  289.39 0854.61
2009/04/23 12:39:19.5       7   -149    177    150    232 177.3  55.8  34152  289.45 0854.61
2009/04/23 12:39:19.6      74   -142    173    161    236 152.4  52.2  34150  289.41 0854.61
2009/04/23 12:39:19.7      66   -170    149    183    235 158.6  43.5  34152  289.43 0854.61
2009/04/23 12:39:19.8     -29   -193     76    196    210 188.7  22.3  34152  289.43 0854.61
2009/04/23 12:39:19.9     -10   -135    112    136    176 184.4  43.7  34152  289.43 0854.61
2009/04/23 12:39:20.1     -33   -132     47    137    146 194.3  19.2  34148  289.36 0854.61
2009/04/23 12:39:20.2      -1    -88     79     89    119 180.9  46.4  34154  289.46 0854.65
2009/04/23 12:39:20.2     -79   -165      1    184    185 205.6   0.5  34152  289.45 0854.65
2009/04/23 12:39:20.4      -5   -129     25    130    133 182.2  11.1  34152  289.43 0854.65
2009/04/23 12:39:20.5     -21   -102     32    105    110 192.0  17.3  34152  289.43 0854.65
2009/04/23 12:39:20.6      34   -133    189    138    234 165.3  60.5  34152  289.43 0854.65
2009/04/23 12:39:20.7     -37   -206    207    210    294 190.2  49.9  34150  289.39 0854.65
2009/04/23 12:39:20.8     -25   -173    192    175    259 188.5  53.0  34152  289.42 0854.65
2009/04/23 12:39:20.9    -120   -215    167    247    298 209.2  37.4  34148  289.36 0854.65
2009/04/23 12:39:21.0    -117   -296    134    319    346 201.6  24.1  34148  289.37 0854.65
2009/04/23 12:39:21.1    -135   -279    128    311    336 205.9  23.6  34152  289.42 0854.65
2009/04/23 12:39:21.2     -92   -209    102    229    250 203.7  25.7  34154  289.46 0854.65
2009/04/23 12:39:21.3     -21   -152     90    154    178 188.0  32.9  34148  289.38 0854.65
2009/04/23 12:39:21.4       0   -175    138    176    223 180.0  42.0  34154  289.48 0854.65
2009/04/23 12:39:21.5      -6   -208    143    209    253 181.8  37.6  34154  289.46 0854.65
2009/04/23 12:39:21.6      29   -150    102    153    183 168.9  36.5  34156  289.50 0854.65
2009/04/23 12:39:21.7      33    -33     92     47    103 135.0  71.4  34156  289.52 0854.65
2009/04/23 12:39:21.8      39    -38    129     55    140 134.1  75.5  34154  289.48 0854.65
2009/04/23 12:39:21.9     -85   -232    176    248    304 200.1  39.1  34154  289.47 0854.65
2009/04/23 12:39:22.0     -65   -217    114    227    254 196.7  28.5  34156  289.49 0854.65
2009/04/23 12:39:22.1      -8   -221     93    222    240 182.2  24.1  34154  289.47 0854.65
2009/04/23 12:39:22.2      -4   -246     80    247    260 181.0  18.1  34154  289.46 0854.63
2009/04/23 12:39:22.3     -22   -191     44    193    199 186.7  12.9  34152  289.45 0854.63
2009/04/23 12:39:22.4     -43   -190     93    195    216 192.9  27.3  34152  289.45 0854.63
2009/04/23 12:39:22.5     -25   -181    108    183    212 188.0  33.5  34154  289.46 0854.63
2009/04/23 12:39:22.6     -55   -250    133    257    289 192.4  29.3  34152  289.42 0854.63
2009/04/23 12:39:22.7     -68   -253    103    263    282 195.2  22.5  34150  289.41 0854.63
2009/04/23 12:39:22.8     -58   -214     45    222    227 195.2  11.4  34152  289.43 0854.63
2009/04/23 12:39:22.9     -66   -146     39    161    166 204.5  13.7  34150  289.40 0854.63
2009/04/23 12:39:23.0    -187    -86     46    207    213 245.2  12.6  34154  289.46 0854.63
2009/04/23 12:39:23.1    -204    -46     42    210    215 257.2  11.4  34148  289.36 0854.63
2009/04/23 12:39:23.2    -198    -88     81    217    231 246.0  21.3  34154  289.48 0854.63
2009/04/23 12:39:23.3    -120   -111     66    164    176 227.3  23.1  34156  289.50 0854.63
2009/04/23 12:39:23.4     -99    -99     49    141    150 225.0  19.2  34152  289.45 0854.63
2009/04/23 12:39:23.5    -141   -101     98    174    199 234.3  31.9  34154  289.48 0854.63
2009/04/23 12:39:23.6    -167   -139    133    218    255 230.4  34.2  34162  289.59 0854.63
2009/04/23 12:39:23.7    -186    -87     87    206    223 244.9  23.8  34160  289.57 0854.63
2009/04/23 12:39:23.8    -211    -84    -12    228    229 248.3  -3.2  34148  289.38 0854.63
2009/04/23 12:39:23.9    -210   -167    -98    269    286 231.4 -25.3  34152  289.44 0854.63
2009/04/23 12:39:24.0    -427   -185   -138    466    486 246.6 -21.5  34152  289.44 0854.63
2009/04/23 12:39:24.1    -493   -164   -103    520    531 251.5 -11.2  34156  289.50 0854.63
2009/04/23 12:39:24.2    -546   -128   -147    561    580 256.7 -14.7  34154  289.47 0854.64
2009/04/23 12:39:24.3    -562    -73   -109    567    578 262.6 -10.9  34148  289.37 0854.64
2009/04/23 12:39:24.4    -436   -157    245    464    524 250.2  30.1  34158  289.54 0854.64
2009/04/23 12:39:24.5    -232   -303    206    382    434 217.5  30.7  34152  289.43 0854.64
2009/04/23 12:39:24.6    -324   -310     73    449    456 226.2   9.3  34152  289.43 0854.64
2009/04/23 12:39:24.7    -329   -320   -136    460    480 225.8 -16.5  34156  289.49 0854.64
2009/04/23 12:39:24.8    -353   -284   -121    454    470 231.1 -15.0  34150  289.39 0854.64
2009/04/23 12:39:24.9    -332   -240   -121    410    428 234.1 -16.5  34154  289.46 0854.64
2009/04/23 12:39:25.0    -302   -207   -112    367    383 235.6 -21.8  34154  289.48 0854.64
2009/04/23 12:39:25.1    -199   -195      2    279    280 225.6   0.5  34152  289.44 0854.64
2009/04/23 12:39:25.2    -156   -158    -52    223    230 224.5 -13.3  34150  289.41 0854.64
2009/04/23 12:39:25.3    -161   -185    -73    246    257 221.2 -16.6  34154  289.47 0854.64
2009/04/23 12:39:25.4     -66   -128    -50    145    153 207.2 -23.3  34152  289.45 0854.64
2009/04/23 12:39:25.5     -44   -211      0    216    217 191.8   0.0  34146  289.33 0854.64
2009/04/23 12:39:25.6    -117   -216     22    246    248 208.5   5.2  34152  289.44 0854.64
2009/04/23 12:39:25.7    -104   -296     29    314    316 199.4   5.4  34152  289.44 0854.64
2009/04/23 12:39:25.8    -129   -338     73    362    370 201.0  11.5  34154  289.48 0854.64
2009/04/23 12:39:25.9    -155   -327     79    363    372 205.4  12.3  34154  289.47 0854.64
2009/04/23 12:39:26.0    -208   -280     24    350    351 216.6   4.0  34154  289.48 0854.64
2009/04/23 12:39:26.1    -301   -202     12    363    364 236.0   1.9  34154  289.47 0854.64
2009/04/23 12:39:26.2    -302   -142     21    334    335 244.8   3.6  34160  289.57 0854.64
2009/04/23 12:39:26.3    -267   -193     -1    330    331 234.0  -0.2  34154  289.47 0854.64
2009/04/23 12:39:26.4    -325   -241     79    405    413 233.4  11.1  34154  289.48 0854.64
2009/04/23 12:39:26.5    -156   -284     38    325    328 208.8   6.8  34158  289.53 0854.64
2009/04/23 12:39:26.6     -40   -372     -7    375    376 186.2  -1.1  34156  289.50 0854.64
2009/04/23 12:39:26.7     -29   -377    -41    379    382 184.5  -6.2  34152  289.43 0854.64
2009/04/23 12:39:26.8    -124   -315    -70    339    347 201.5 -11.8  34152  289.42 0854.64
2009/04/23 12:39:26.9     -84   -249     82    263    276 198.7  17.4  34152  289.44 0854.64
2009/04/23 12:39:27.0     -17   -219    128    220    254 184.5  32.7  34156  289.49 0854.64
2009/04/23 12:39:27.1      80   -283    163    295    337 164.2  31.4  34156  289.49 0854.64
2009/04/23 12:39:27.2     115   -340    115    359    378 161.3  17.8  34156  289.50 0854.64
2009/04/23 12:39:27.3     138   -428    217    450    499 162.1  27.7  34156  289.50 0854.64
2009/04/23 12:39:27.4     125   -471    188    488    522 165.1  22.2  34150  289.40 0854.64
2009/04/23 12:39:27.5     160   -452    208    480    523 160.5  25.1  34142  289.27 0854.64
2009/04/23 12:39:27.6     159   -462    170    489    518 161.0  19.2  34150  289.39 0854.64
2009/04/23 12:39:27.7     143   -471    192    493    529 163.1  22.5  34148  289.37 0854.64
2009/04/23 12:39:27.8     101   -466    216    477    523 167.7  26.2  34150  289.39 0854.64
2009/04/23 12:39:27.9     145   -434    150    458    482 161.4  18.1  34150  289.39 0854.64
2009/04/23 12:39:28.0      69   -400    142    407    431 170.2  20.0  34148  289.36 0854.64
2009/04/23 12:39:28.1     -20   -434    150    435    461 182.7  19.1  34154  289.48 0854.64
2009/04/23 12:39:28.2      15   -454     80    455    463 178.1  10.0  34150  289.41 0854.64
2009/04/23 12:39:28.3     -11   -365    -26    366    367 181.8  -4.1  34148  289.38 0854.64
2009/04/23 12:39:28.4     -92   -242    -76    260    270 200.9 -21.2  34154  289.46 0854.64
2009/04/23 12:39:28.5    -102   -215   -139    239    276 205.4 -37.3  34154  289.47 0854.64
2009/04/23 12:39:28.6    -131   -310   -160    337    373 203.0 -31.6  34152  289.45 0854.64
2009/04/23 12:39:28.7    -200   -370    -65    421    426 208.4  -8.8  34152  289.43 0854.64
2009/04/23 12:39:28.8    -171   -312     -3    356    357 208.7  -0.5  34146  289.32 0854.64
2009/04/23 12:39:28.9     -47   -250   -100    255    273 190.7 -26.7  34152  289.42 0854.64
2009/04/23 12:39:29.0    -126   -302    -14    328    329 202.7  -2.5  34150  289.41 0854.64
2009/04/23 12:39:29.1     -29   -339     -6    341    342 185.0  -1.2  34154  289.47 0854.64
2009/04/23 12:39:29.2     -12   -319     30    320    322 182.2   5.5  34156  289.49 0854.63
2009/04/23 12:39:29.3     -12   -289     14    290    291 182.5   2.8  34148  289.37 0854.63
2009/04/23 12:39:29.4      93   -488    -62    497    501 169.1  -7.2  34148  289.37 0854.63
2009/04/23 12:39:29.5      73   -495    -54    501    505 171.5  -6.2  34146  289.35 0854.63
2009/04/23 12:39:29.6     107   -430    -73    444    451 166.0  -9.3  34150  289.41 0854.63
2009/04/23 12:39:29.7     185   -472    -23    508    509 158.6  -2.7  34152  289.45 0854.63
2009/04/23 12:39:29.8     202   -439      6    484    485 155.3   0.8  34148  289.37 0854.63
2009/04/23 12:39:29.9     126   -417     66    436    442 163.1   8.7  34148  289.36 0854.63
2009/04/23 12:39:30.0      90   -443      2    453    454 168.4   0.4  34148  289.38 0854.63
2009/04/23 12:39:30.1      59   -350    -91    355    367 170.4 -14.4  34152  289.43 0854.63
2009/04/23 12:39:30.2      17   -341    -31    342    344 177.1  -5.3  34150  289.40 0854.63
2009/04/23 12:39:30.3      50   -313    -12    318    319 170.9  -2.2  34148  289.36 0854.63
2009/04/23 12:39:30.4      18   -320    -33    321    323 176.8  -6.0  34150  289.39 0854.63
2009/04/23 12:39:30.5     -13   -303    -36    304    307 182.6  -6.9  34146  289.32 0854.63
2009/04/23 12:39:30.6     -88   -179    -65    200    211 206.3 -18.1  34154  289.48 0854.63
2009/04/23 12:39:30.7     -33   -175     58    179    189 190.9  18.1  34152  289.45 0854.63
2009/04/23 12:39:30.8     -42   -160      8    166    167 194.9   2.9  34152  289.45 0854.63
2009/04/23 12:39:30.9      10   -131     71    132    149 175.5  30.8  34160  289.57 0854.63
2009/04/23 12:39:31.0     -23   -129     46    132    141 190.2  19.4  34156  289.50 0854.63
2009/04/23 12:39:31.1     -34    -97     57    103    117 199.6  31.4  34156  289.50 0854.63
2009/04/23 12:39:31.2     -79    -66     36    104    111 230.0  19.2  34154  289.46 0854.63
2009/04/23 12:39:31.3    -104    -49     41    116    123 244.8  20.0  34154  289.46 0854.63
2009/04/23 12:39:31.4     -76      1    -12     77     79 270.8  -9.3  34150  289.41 0854.63
2009/04/23 12:39:31.5    -135     27    -86    138    162 281.5 -39.6  34152  289.43 0854.63
2009/04/23 12:39:31.6    -142      5    -78    143    162 272.1 -35.4  34152  289.43 0854.63
2009/04/23 12:39:31.7    -159    -12    -78    160    178 265.6 -32.4  34152  289.45 0854.63
2009/04/23 12:39:31.8     -81      2    -51     82     96 271.7 -39.9  34152  289.43 0854.63
2009/04/23 12:39:31.9     -75      6    -70     76    103 275.2 -52.3  34152  289.45 0854.63
2009/04/23 12:39:32.0     -76    -10    -33     77     83 262.1 -28.5  34154  289.48 0854.63
2009/04/23 12:39:32.1     -36    -11    -48     38     61 251.8 -60.8  34154  289.46 0854.63
2009/04/23 12:39:32.2      -5     17    -48     18     51 341.7 -83.6  34154  289.46 0854.63
2009/04/23 12:39:32.3      58     58    -57     83    100  45.1 -42.4  34152  289.45 0854.63
2009/04/23 12:39:32.4      98    107    -56    146    156  42.3 -26.4  34150  289.40 0854.63
2009/04/23 12:39:32.5      94     60    -35    112    118  57.1 -17.6  34152  289.45 0854.63
2009/04/23 12:39:32.6     131     52     16    142    143  68.3   6.5  34152  289.43 0854.63
2009/04/23 12:39:32.7     114     22     36    117    123  79.0  17.3  34152  289.45 0854.63
2009/04/23 12:39:32.8      59     28     52     66     84  64.7  42.2  34152  289.45 0854.63
2009/04/23 12:39:32.9      71     12     83     73    110  80.3  54.3  34154  289.46 0854.63
2009/04/23 12:39:33.0      57     27     61     64     88  64.6  49.4  34154  289.48 0854.63
2009/04/23 12:39:33.1      24    -37     74     45     86 147.5  65.7  34158  289.55 0854.63
2009/04/23 12:39:33.2      13    -25     78     29     83 152.8  79.2  34168  289.70 0854.63
2009/04/23 12:39:33.3      -1    -74    113     75    135 180.9  63.6  34160  289.57 0854.63
2009/04/23 12:39:33.4     -35   -134    141    139    197 194.7  50.2  34170  289.75 0854.63
2009/04/23 12:39:33.5      -9   -115    151    116    190 184.9  58.7  34170  289.75 0854.63
2009/04/23 12:39:33.6     -32    -68     66     76    100 205.5  45.8  34168  289.72 0854.63
2009/04/23 12:39:33.7     -70   -101     99    124    158 214.7  42.7  34168  289.70 0854.63
2009/04/23 12:39:33.8    -124   -117     70    171    184 226.7  23.1  34162  289.60 0854.63
2009/04/23 12:39:33.9    -133    -62     21    147    149 244.8   8.5  34170  289.74 0854.63
2009/04/23 12:39:34.0     -69    -13     -9     71     72 259.4  -7.3  34164  289.65 0854.63
2009/04/23 12:39:34.1     -40     45      4     61     62 318.6   3.8  34168  289.70 0854.63
2009/04/23 12:39:34.2    -105     -6     24    106    109 266.5  13.2  34162  289.60 0854.63
2009/04/23 12:39:34.3    -168     81     10    187    188 295.8   3.1  34168  289.72 0854.63
2009/04/23 12:39:34.4    -143     38     12    149    150 285.0   5.0  34164  289.65 0854.63
2009/04/23 12:39:34.5    -110    112    -42    158    164 315.5 -15.0  34164  289.65 0854.63
2009/04/23 12:39:34.6     -61    192    -19    202    203 342.4  -5.6  34166  289.69 0854.63
2009/04/23 12:39:34.7     -27    213      7    215    216 352.7   2.1  34162  289.62 0854.63
2009/04/23 12:39:34.8      24    172      8    174    175   8.0   2.8  34164  289.65 0854.63
2009/04/23 12:39:34.9      94    131    -50    162    170  35.6 -17.3  34168  289.70 0854.63
2009/04/23 12:39:35.0     121    110     30    164    167  47.8  10.6  34164  289.65 0854.63
2009/04/23 12:39:35.1      59     41    110     73    132  54.9  63.6  34174  289.80 0854.63
2009/04/23 12:39:35.2     172    215     42    276    280  38.7   8.8  34188  290.05 0854.67
2009/04/23 12:39:35.3      36    301     47    304    308   6.9   8.8  34208  290.39 0854.67
2009/04/23 12:39:35.4     218    182     78    285    296  50.2  15.3  34206  290.36 0854.67
2009/04/23 12:39:35.5     252    150    130    294    321  59.3  25.3  34180  289.90 0854.67
2009/04/23 12:39:35.6     274    110    153    296    333  68.0  29.4  34212  290.44 0854.67
2009/04/23 12:39:35.7     145     81    179    167    244  60.7  52.2  34220  290.60 0854.67
2009/04/23 12:39:35.8     162    115    157    199    253  54.5  42.4  34232  290.78 0854.67
2009/04/23 12:39:35.9      97     44    150    107    184  65.2  61.1  34258  291.25 0854.67
2009/04/23 12:39:36.0     -38     60    107     72    128 327.5  63.2  34252  291.13 0854.67
2009/04/23 12:39:36.1      -7    -32     87     33     93 193.4  78.6  34242  290.96 0854.67
2009/04/23 12:39:36.2      -3     -3    119      5    119 226.7  90.0  34238  290.89 0854.67
2009/04/23 12:39:36.3     -18    -12    106     22    108 235.8  89.0  34232  290.79 0854.67
2009/04/23 12:39:36.4     -12   -159    175    160    237 184.5  53.0  34196  290.18 0854.67
2009/04/23 12:39:36.5      -7   -252    167    253    303 181.6  36.5  34168  289.71 0854.67
2009/04/23 12:39:36.6      37   -253    234    256    346 171.5  47.3  34166  289.68 0854.67
2009/04/23 12:39:36.7      80   -279    185    291    344 164.0  35.5  34156  289.49 0854.67
2009/04/23 12:39:36.8     112   -319    270    339    433 160.7  42.7  34160  289.58 0854.67
2009/04/23 12:39:36.9     -35   -431    280    433    515 184.7  35.9  34156  289.52 0854.67
2009/04/23 12:39:37.0      41   -490    346    492    601 175.1  38.6  34156  289.51 0854.67
2009/04/23 12:39:37.1      14   -511    372    512    632 178.4  39.7  34156  289.52 0854.67
2009/04/23 12:39:37.2     -99   -491    246    501    558 191.5  28.1  34164  289.63 0854.67
2009/04/23 12:39:37.3      43   -308    151    312    346 172.0  27.7  34152  289.43 0854.67
2009/04/23 12:39:37.4      87   -227    -21    244    246 159.1  -5.1  34158  289.53 0854.67
2009/04/23 12:39:37.5     101   -331   -109    347    364 163.1 -17.6  34146  289.32 0854.67
2009/04/23 12:39:37.6     -95   -357   -102    370    384 194.9 -15.5  34154  289.48 0854.67
2009/04/23 12:39:37.7    -127   -258    -84    288    300 206.3 -21.2  34162  289.59 0854.67
2009/04/23 12:39:37.8    -159   -285   -185    327    375 209.1 -36.4  34158  289.54 0854.67
2009/04/23 12:39:37.9     -67   -336    -47    343    347 191.4  -7.9  34156  289.50 0854.67
2009/04/23 12:39:38.0    -159   -163     39    228    232 224.3   9.9  34158  289.53 0854.67
2009/04/23 12:39:38.1     -30   -213     86    216    232 188.0  23.0  34160  289.57 0854.67
2009/04/23 12:39:38.2      42   -155     90    161    184 164.9  31.6  34160  289.57 0854.67
2009/04/23 12:39:38.3     116   -195     65    228    238 149.3  16.0  34156  289.49 0854.67
2009/04/23 12:39:38.4      86   -232     12    248    249 159.7   2.8  34156  289.51 0854.67
2009/04/23 12:39:38.5      58   -132      3    145    146 156.4   1.2  34150  289.41 0854.67
2009/04/23 12:39:38.6      52   -180     67    188    199 163.7  20.4  34148  289.38 0854.67
2009/04/23 12:39:38.7     170    -78     44    188    194 114.8  13.1  34144  289.31 0854.67
2009/04/23 12:39:38.8      89   -210    134    229    265 157.1  32.9  34140  289.24 0854.67
2009/04/23 12:39:38.9     -39   -187   -176    192    260 191.8 -51.9  34150  289.41 0854.67
2009/04/23 12:39:39.0     108   -220    -73    246    256 153.9 -21.2  34148  289.36 0854.67
2009/04/23 12:39:39.1      24   -315     23    317    318 175.5   4.2  34152  289.42 0854.67
2009/04/23 12:39:39.3      20   -269      8    270    271 175.6   1.8  34148  289.36 0854.69
2009/04/23 12:39:39.3     186   -204    -10    277    278 137.7  -2.2  34150  289.39 0854.69
2009/04/23 12:39:39.4     168   -188    -41    253    257 138.3  -9.3  34148  289.36 0854.69
2009/04/23 12:39:39.5       4   -259    -20    260    261 179.1  -4.6  34148  289.37 0854.69
2009/04/23 12:39:39.6    -107   -351    -32    368    370 196.9  -5.1  34152  289.42 0854.69
2009/04/23 12:39:39.7    -156   -290    -53    330    335 208.4  -9.1  34150  289.40 0854.69
2009/04/23 12:39:39.8    -191   -374    -13    421    422 207.1  -1.8  34152  289.44 0854.69
2009/04/23 12:39:39.9    -162   -393     28    426    427 202.5   3.8  34142  289.26 0854.69
2009/04/23 12:39:40.0    -101    -89    154    135    204 228.7  54.3  34144  289.31 0854.69
2009/04/23 12:39:40.1     -22   -210    189    212    284 186.2  45.9  34146  289.34 0854.69
2009/04/23 12:39:40.2     -36   -143    124    148    193 194.3  43.8  34142  289.26 0854.69
2009/04/23 12:39:40.3      10   -123    178    124    216 175.1  61.8  34150  289.40 0854.69
2009/04/23 12:39:40.4     204    -21    233    206    311  96.1  54.2  34150  289.39 0854.69
2009/04/23 12:39:40.5      69   -204    235    216    319 161.3  52.7  34156  289.49 0854.69
2009/04/23 12:39:40.6      86   -214    214    231    314 157.9  47.6  34156  289.49 0854.69
2009/04/23 12:39:40.7     213    -73    111    226    251 109.1  28.0  34148  289.37 0854.69
2009/04/23 12:39:40.8     213    -31    202    216    295  98.4  47.9  34148  289.36 0854.69
2009/04/23 12:39:40.9     -17   -278    196    279    340 183.6  38.5  34154  289.46 0854.69
2009/04/23 12:39:41.0      67   -299    242    307    390 167.3  42.2  34152  289.45 0854.69
2009/04/23 12:39:41.1      48   -344    125    348    369 172.0  20.4  34152  289.43 0854.69
2009/04/23 12:39:41.2      93   -346     47    359    363 164.9   7.6  34150  289.40 0854.67
2009/04/23 12:39:41.3     124   -392     36    412    414 162.4   5.1  34146  289.34 0854.67
2009/04/23 12:39:41.4      68   -434    -24    440    441 171.1  -3.2  34150  289.39 0854.67
2009/04/23 12:39:41.5      23   -422     33    423    425 176.9   4.5  34146  289.33 0854.67
2009/04/23 12:39:41.6     101   -273    189    292    347 159.7  35.7  34148  289.37 0854.67
2009/04/23 12:39:41.7     138   -316    230    345    414 156.4  36.7  34146  289.35 0854.67
2009/04/23 12:39:41.8      76   -301    254    311    401 165.7  43.5  34152  289.42 0854.67
2009/04/23 12:39:41.9       7   -272    286    273    395 178.4  51.4  34152  289.42 0854.67
2009/04/23 12:39:42.0      83   -344    285    354    454 166.3  43.0  34148  289.36 0854.67
2009/04/23 12:39:42.1      59   -409    329    414    528 171.8  42.4  34146  289.35 0854.67
2009/04/23 12:39:42.2     197   -397    290    444    530 153.6  36.3  34152  289.45 0854.67
2009/04/23 12:39:42.3      -7   -451    317    452    552 181.0  38.5  34138  289.19 0854.67
2009/04/23 12:39:42.4      10   -379    311    380    491 178.4  43.5  34130  289.07 0854.67
2009/04/23 12:39:42.5     357   -199    386    409    562 119.1  48.2  34150  289.39 0854.67
2009/04/23 12:39:42.6     260   -286    236    387    453 137.7  34.3  34146  289.33 0854.67
2009/04/23 12:39:42.7     219   -399    210    456    502 151.3  26.6  34154  289.47 0854.67
2009/04/23 12:39:42.8      51   -198     70    205    217 165.3  18.9  34150  289.40 0854.67
2009/04/23 12:39:42.9    -131   -110     11    172    173 229.8   3.8  34150  289.40 0854.67
2009/04/23 12:39:43.0    -127     17    -81    129    152 278.0 -39.9  34146  289.35 0854.67
2009/04/23 12:39:43.1     -65    -72    130     98    162 221.9  59.4  34132  289.09 0854.67
2009/04/23 12:39:43.2    -116   -116    208    165    265 225.0  57.5  34148  289.36 0854.63
2009/04/23 12:39:43.3    -145   -144    197    205    284 225.1  49.0  34144  289.31 0854.63
2009/04/23 12:39:43.4    -102    -27     38    106    112 254.9  20.0  34150  289.40 0854.63
2009/04/23 12:39:43.5     -58     61    -63     85    105 316.3 -44.5  34142  289.28 0854.63
2009/04/23 12:39:43.6    -162     38    -21    167    169 283.3  -7.2  34144  289.31 0854.63
2009/04/23 12:39:43.7    -119    -36     12    125    126 253.1   5.9  34148  289.38 0854.63
2009/04/23 12:39:43.8    -127   -106     42    166    172 230.2  14.3  34146  289.35 0854.63
2009/04/23 12:39:43.9    -157   -160    102    225    247 224.3  26.2  34144  289.29 0854.63
2009/04/23 12:39:44.0    -114    -98    135    151    202 229.1  46.6  34140  289.23 0854.63
2009/04/23 12:39:44.1     -98     58    191    114    222 300.7  66.4  34152  289.45 0854.63
2009/04/23 12:39:44.2     -92     17    200     94    220 281.0  73.1  34150  289.40 0854.63
2009/04/23 12:39:44.3       0    152    190    153    243 359.6  57.3  34148  289.38 0854.63
2009/04/23 12:39:44.4    -103    218    119    242    269 334.7  28.0  34148  289.36 0854.63
2009/04/23 12:39:44.5      -4     56     20     57     61 355.6  19.4  34156  289.50 0854.63
2009/04/23 12:39:44.6       0    102     -4    103    104   0.5  -2.2  34152  289.45 0854.63
2009/04/23 12:39:44.7     -17      4     70     18     72 285.1  84.9  34156  289.52 0854.63
2009/04/23 12:39:44.8      -8    121     16    122    124 356.0   7.5  34160  289.57 0854.63
2009/04/23 12:39:44.9      47    202     59    208    217  13.3  15.8  34160  289.57 0854.63
2009/04/23 12:39:45.0      -3    226      6    227    228 359.1   1.6  34170  289.74 0854.63
2009/04/23 12:39:45.1      57    268     52    275    280  12.0  10.8  34222  290.63 0854.63
2009/04/23 12:39:45.2      87    250     30    265    267  19.2   6.5  34216  290.51 0854.64
2009/04/23 12:39:45.3     151    183     83    238    253  39.7  19.2  34202  290.29 0854.64
2009/04/23 12:39:45.4      72    200     73    213    226  19.8  18.9  34202  290.28 0854.64
2009/04/23 12:39:45.5      69    324    121    332    353  12.1  21.0  34212  290.45 0854.64
2009/04/23 12:39:45.6      17    192    128    193    231   5.3  36.3  34220  290.60 0854.64
2009/04/23 12:39:45.7     150    180     80    235    249  39.9  18.9  34220  290.58 0854.64
2009/04/23 12:39:45.8     170    136    142    218    260  51.4  36.0  34230  290.75 0854.64
2009/04/23 12:39:45.9     167     99    121    195    229  59.3  35.2  34232  290.81 0854.64
2009/04/23 12:39:46.0     214     50    172    220    279  76.8  41.7  34206  290.34 0854.64
2009/04/23 12:39:46.1     216     61    150    225    270  74.1  36.5  34224  290.65 0854.64
2009/04/23 12:39:46.2       8    -12    129     15    129 147.5  90.0  34228  290.74 0854.64
2009/04/23 12:39:46.4     -61     44     98     76    124 306.0  58.5  34232  290.79 0854.64
2009/04/23 12:39:46.4     -23    -37    208     44    212 211.6  88.8  34220  290.60 0854.64
2009/04/23 12:39:46.6     -47    -56    227     74    238 219.6  81.6  34210  290.43 0854.64
2009/04/23 12:39:46.7      19    -11    236     23    237 120.7  90.0  34192  290.13 0854.64
2009/04/23 12:39:46.7     -81    -13    169     83    188 260.8  72.1  34196  290.18 0854.64
2009/04/23 12:39:46.9    -124     63    150    140    205 297.1  52.1  34180  289.92 0854.64
2009/04/23 12:39:47.0     -61    -84    247    105    268 216.0  75.9  34164  289.65 0854.64
2009/04/23 12:39:47.1     -70    -19    156     73    172 254.9  73.2  34172  289.79 0854.64
2009/04/23 12:39:47.2     -56     30    154     64    166 298.8  76.1  34178  289.89 0854.64
2009/04/23 12:39:47.3     -94    -95    167    134    214 224.5  57.1  34164  289.65 0854.66
2009/04/23 12:39:47.4    -196   -318    290    374    473 211.6  41.7  34196  290.19 0854.66
2009/04/23 12:39:47.5    -109   -358    125    375    396 197.0  18.4  34218  290.57 0854.66
2009/04/23 12:39:47.6     -49   -459    102    462    474 186.2  12.5  34182  289.95 0854.66
2009/04/23 12:39:47.7     -97   -306    116    322    342 197.6  20.6  34166  289.69 0854.66
2009/04/23 12:39:47.8    -198   -239    100    311    327 219.6  17.8  34174  289.81 0854.66
2009/04/23 12:39:47.9    -279   -388    -14    478    479 215.7  -1.7  34146  289.35 0854.66
2009/04/23 12:39:48.0    -586   -366   -206    691    722 238.0 -16.6  34142  289.25 0854.66
2009/04/23 12:39:48.1    -264   -317   -121    413    430 219.8 -21.2  34130  289.07 0854.66
2009/04/23 12:39:48.2      -4   -324   -116    325    346 180.7 -19.7  34130  289.08 0854.66
2009/04/23 12:39:48.3    -185   -421    289    460    543 203.7  35.3  34140  289.23 0854.65
2009/04/23 12:39:48.4    -266   -333    356    427    555 218.6  44.0  34136  289.17 0854.65
2009/04/23 12:39:48.5     -24   -636    150    637    655 182.2  13.3  34138  289.20 0854.65
2009/04/23 12:39:48.6     259   -712     79    759    764 160.0   6.0  34136  289.16 0854.65
2009/04/23 12:39:48.7     361   -601    136    702    716 149.0  11.0  34136  289.15 0854.65
2009/04/23 12:39:48.8     105   -556    235    566    612 169.3  23.8  34128  289.02 0854.65
2009/04/23 12:39:48.9    -324   -680      9    754    755 205.5   0.7  34136  289.16 0854.65
2009/04/23 12:39:49.0    -255   -853    -34    891    892 196.6  -2.2  34136  289.16 0854.65
2009/04/23 12:39:49.1      -3   -685    111    686    696 180.3   9.2  34142  289.27 0854.65
2009/04/23 12:39:49.2     135   -495    268    514    579 164.7  29.8  34132  289.09 0854.65
2009/04/23 12:39:49.3    -167   -389    256    424    495 203.2  34.0  34134  289.13 0854.65
2009/04/23 12:39:49.4    -248   -460   -116    523    536 208.4 -12.6  34136  289.18 0854.65
2009/04/23 12:39:49.5    -291   -627    -88    692    698 204.9  -7.3  34132  289.09 0854.65
2009/04/23 12:39:49.6    -440   -691    -67    820    823 212.5  -4.7  34132  289.11 0854.65
2009/04/23 12:39:49.7    -329   -592   -150    678    695 209.1 -12.5  34134  289.12 0854.65
2009/04/23 12:39:49.8    -350   -637   -100    727    734 208.8  -7.9  34132  289.10 0854.65
2009/04/23 12:39:49.9    -377   -681   -105    779    786 209.0  -7.7  34136  289.17 0854.65
2009/04/23 12:39:50.0    -486   -663    -89    823    828 216.2  -6.2  34136  289.18 0854.65
2009/04/23 12:39:50.1    -448   -660    -19    798    799 214.2  -1.4  34134  289.13 0854.65
2009/04/23 12:39:50.2    -389   -709   -177    809    829 208.8 -12.4  34140  289.23 0854.65
2009/04/23 12:39:50.3    -467   -688   -223    832    862 214.2 -15.1  34136  289.15 0854.66
2009/04/23 12:39:50.4    -502   -724   -138    882    893 214.7  -8.9  34130  289.06 0854.66
2009/04/23 12:39:50.5    -481   -721   -211    867    893 213.7 -13.7  34138  289.20 0854.66
2009/04/23 12:39:50.6    -341   -656   -246    740    779 207.5 -23.5  34136  289.16 0854.66
2009/04/23 12:39:50.7    -230   -659   -231    699    737 199.3 -18.3  34126  289.00 0854.66
2009/04/23 12:39:50.8    -364   -589   -190    693    718 211.7 -20.0  34136  289.15 0854.66
2009/04/23 12:39:50.9    -338   -639   -208    724    754 207.9 -16.1  34132  289.09 0854.66
2009/04/23 12:39:51.0    -342   -426   -207    547    584 218.7 -26.1  34134  289.14 0854.66
2009/04/23 12:39:51.1    -451   -458   -192    644    673 224.5 -16.6  34132  289.09 0854.66
2009/04/23 12:39:51.2    -314   -374   -176    489    520 220.0 -19.8  34130  289.08 0854.66
2009/04/23 12:39:51.3    -314   -464     -2    561    562 214.1  -0.3  34136  289.16 0854.66
2009/04/23 12:39:51.4    -291   -454     15    540    541 212.7   1.6  34138  289.21 0854.66
2009/04/23 12:39:51.5    -291   -419   -111    511    524 214.7 -12.3  34140  289.22 0854.66
2009/04/23 12:39:51.6    -438   -334    -65    551    555 232.7  -6.8  34140  289.23 0854.66
2009/04/23 12:39:51.7    -450   -179    -82    485    492 248.3  -9.7  34138  289.20 0854.66
2009/04/23 12:39:51.8    -312   -262   -172    408    442 229.9 -28.6  34134  289.14 0854.66
2009/04/23 12:39:51.9    -189   -204    -35    279    282 222.8  -7.2  34138  289.19 0854.66
2009/04/23 12:39:52.0    -322   -146    -13    354    355 245.6  -2.1  34130  289.06 0854.66
2009/04/23 12:39:52.1    -102   -216    152    239    283 205.3  35.5  34144  289.31 0854.66
2009/04/23 12:39:52.2     -66   -269     96    277    294 193.8  19.2  34140  289.24 0854.66
2009/04/23 12:39:52.3     -13   -338   -116    339    359 182.3 -19.0  34138  289.20 0854.64
2009/04/23 12:39:52.4     -61   -321    -70    327    335 190.9 -12.2  34140  289.23 0854.64
2009/04/23 12:39:52.5    -140   -193   -173    239    295 216.1 -43.9  34126  288.98 0854.64
2009/04/23 12:39:52.6     -85   -334    -72    345    353 194.4 -11.8  34138  289.21 0854.64
2009/04/23 12:39:52.7    -132   -245      1    279    280 208.3   0.2  34140  289.24 0854.64
2009/04/23 12:39:52.8    -398   -238   -109    464    477 239.1 -13.3  34132  289.10 0854.64
2009/04/23 12:39:52.9    -224    114    -89    252    267 297.1 -24.4  34138  289.19 0854.64
2009/04/23 12:39:53.0    -348    163   -162    385    417 295.1 -28.5  34136  289.16 0854.64
2009/04/23 12:39:53.1    -332    227   -214    403    456 304.4 -34.7  34136  289.17 0854.64
2009/04/23 12:39:53.2    -207    -27     -5    209    210 262.5  -1.6  34136  289.18 0854.64
2009/04/23 12:39:53.3    -278    -91    -81    293    305 251.8 -15.5  34142  289.27 0854.64
2009/04/23 12:39:53.4    -353    -71   -260    361    444 258.5 -43.9  34132  289.11 0854.64
2009/04/23 12:39:53.5    -348   -199   -179    401    439 240.2 -30.2  34144  289.29 0854.64
2009/04/23 12:39:53.6    -307   -146   -225    341    408 244.5 -40.9  34142  289.26 0854.64
2009/04/23 12:39:53.7    -142   -118   -201    185    273 230.2 -56.6  34142  289.25 0854.64
2009/04/23 12:39:53.8    -108   -270   -127    291    317 201.9 -29.4  34138  289.19 0854.64
2009/04/23 12:39:53.9    -109   -295     -2    315    316 200.3  -0.5  34142  289.27 0854.64
2009/04/23 12:39:54.0      10   -134    114    135    176 175.5  44.5  34144  289.30 0854.64
2009/04/23 12:39:54.1     104    -17     91    106    139  99.7  44.8  34144  289.30 0854.64
2009/04/23 12:39:54.2     156     -2    -56    157    167  90.8 -19.7  34142  289.28 0854.64
2009/04/23 12:39:54.3     214   -107    -27    240    242 116.6  -6.5  34140  289.24 0854.62
2009/04/23 12:39:54.4     132    -25     84    135    159 101.0  34.8  34138  289.19 0854.62
2009/04/23 12:39:54.5     143    -85      9    167    168 120.7   3.1  34138  289.21 0854.62
2009/04/23 12:39:54.6     117    -26    104    120    158 102.8  45.4  34144  289.30 0854.62
2009/04/23 12:39:54.7      85    -98      5    131    132 139.0   2.3  34144  289.31 0854.62
2009/04/23 12:39:54.8      17    -66     72     69     99 165.7  51.2  34146  289.33 0854.62
2009/04/23 12:39:54.9      -7      7     76     11     76 315.0  90.0  34148  289.36 0854.62
2009/04/23 12:39:55.0     -89     82    128    122    176 312.7  51.6  34150  289.41 0854.62
2009/04/23 12:39:55.1     -15     45     59     48     76 341.5  56.4  34148  289.38 0854.62
2009/04/23 12:39:55.2      13    -62    130     64    144 167.5  71.9  34148  289.38 0854.62
2009/04/23 12:39:55.3      45      0    167     46    173  90.0  84.4  34154  289.46 0854.62
2009/04/23 12:39:55.4      71   -139    164    157    227 152.8  51.6  34146  289.35 0854.62
2009/04/23 12:39:55.5      45    -54    102     71    124 140.4  62.6  34148  289.36 0854.62
2009/04/23 12:39:55.6    -100   -163    131    192    232 211.6  37.4  34146  289.35 0854.62
2009/04/23 12:39:55.7     -89   -188    145    209    254 205.5  38.5  34146  289.34 0854.62
2009/04/23 12:39:55.8       3   -211     46    212    218 179.0  12.4  34144  289.30 0854.62
2009/04/23 12:39:55.9     -64   -190      1    201    202 198.7   0.5  34144  289.30 0854.62
2009/04/23 12:39:56.0     -73   -127    -52    147    157 209.9 -19.7  34140  289.24 0854.62
2009/04/23 12:39:56.1    -115   -108    -54    158    168 226.9 -19.1  34146  289.33 0854.62
2009/04/23 12:39:56.2    -141    -68    -55    157    167 244.2 -19.4  34142  289.26 0854.62
2009/04/23 12:39:56.3    -171      0   -151    172    228 270.1 -50.2  34144  289.30 0854.63
2009/04/23 12:39:56.4    -197    -27   -237    199    309 262.1 -60.5  34140  289.24 0854.63
2009/04/23 12:39:56.5    -239    -48   -280    244    371 258.5 -58.8  34142  289.26 0854.63
2009/04/23 12:39:56.6    -255    -81   -322    268    418 252.3 -60.6  34142  289.25 0854.63
2009/04/23 12:39:56.7    -293    -79   -333    304    450 254.9 -57.4  34144  289.29 0854.63
2009/04/23 12:39:56.8    -126    -68   -268    144    304 241.6 -74.0  34140  289.24 0854.63
2009/04/23 12:39:56.9     -57    -22   -264     62    271 248.3 -90.0  34150  289.41 0854.63
2009/04/23 12:39:57.0     190    -84   -296    208    361 114.0 -65.9  34148  289.36 0854.63
2009/04/23 12:39:57.1    -131   -409   -285    430    515 197.8 -41.0  34150  289.39 0854.63
2009/04/23 12:39:57.2      52   -451   -170    454    484 173.4 -25.9  34140  289.22 0854.63
2009/04/23 12:39:57.3     111   -411   -155    426    453 164.8 -25.3  34136  289.17 0854.63
2009/04/23 12:39:57.4      27   -673   -228    674    712 177.7 -18.7  34136  289.18 0854.63
2009/04/23 12:39:57.5      87   -373   -337    384    510 166.8 -50.2  34134  289.13 0854.63
2009/04/23 12:39:57.6     182   -471   -103    506    517 158.8 -11.6  34140  289.22 0854.63
2009/04/23 12:39:57.7      74   -634     50    639    642 173.3   4.5  34142  289.25 0854.63
2009/04/23 12:39:57.8     329   -455    153    562    583 144.1  15.3  34138  289.20 0854.63
2009/04/23 12:39:57.9     270   -572    161    633    654 154.7  14.3  34142  289.26 0854.63
2009/04/23 12:39:58.0     313   -603    276    680    733 152.6  23.4  34132  289.10 0854.63
2009/04/23 12:39:58.1     185   -851    171    872    889 167.7  11.1  34140  289.22 0854.63
2009/04/23 12:39:58.2     118   -845    129    854    864 172.0   8.6  34124  288.97 0854.63
2009/04/23 12:39:58.3     165   -694    128    714    726 166.6  10.2  34126  289.00 0854.66
2009/04/23 12:39:58.4     153   -334    189    368    413 155.4  29.3  34128  289.04 0854.66
2009/04/23 12:39:58.5     248   -429     39    496    498 150.0   4.6  34138  289.20 0854.66
2009/04/23 12:39:58.6     255   -539    199    597    630 154.7  18.5  34142  289.25 0854.66
2009/04/23 12:39:58.7     242   -489    306    546    625 153.6  31.7  34140  289.22 0854.66
2009/04/23 12:39:58.8     184   -355    373    400    546 152.6  47.9  34136  289.15 0854.66
2009/04/23 12:39:58.9      57   -428    373    432    570 172.4  45.2  34144  289.31 0854.66
2009/04/23 12:39:59.0     117   -339    350    359    501 160.8  49.3  34142  289.27 0854.66
2009/04/23 12:39:59.1      67   -284    274    292    400 166.6  48.0  34136  289.15 0854.66
2009/04/23 12:39:59.2      38    -83    200     92    220 155.5  73.5  34144  289.31 0854.66
2009/04/23 12:39:59.3      54     39    150     67    164  54.1  74.5  34142  289.28 0854.66
2009/04/23 12:39:59.4     -95    -52    206    109    233 241.1  69.8  34148  289.38 0854.66
2009/04/23 12:39:59.5     -58     42    133     72    151 306.0  68.9  34142  289.26 0854.66
2009/04/23 12:39:59.6     -16    -86    164     88    186 190.7  69.6  34142  289.28 0854.66
2009/04/23 12:39:59.7    -161   -308    148    348    378 207.7  24.5  34142  289.26 0854.66
2009/04/23 12:39:59.8     102     97    182    142    230  46.4  58.2  34130  289.08 0854.66
2009/04/23 12:39:59.9     -19    253    269    254    369 355.5  51.9  34148  289.37 0854.66
2009/04/23 12:40:00.0      76    -61    235     98    254 128.6  76.1  34142  289.28 0854.66
2009/04/23 12:40:00.1      39     64    153     76    170  31.6  71.9  34146  289.33 0854.66
2009/04/23 12:40:00.2       8   -107    169    108    200 175.5  64.6  34144  289.30 0854.66
2009/04/23 12:40:00.3     -96     -3    150     97    178 267.9  64.4  34148  289.38 0854.66
2009/04/23 12:40:00.4     -79     76    149    110    185 314.0  60.3  34148  289.38 0854.66
2009/04/23 12:40:00.5    -285    -40    132    288    316 262.0  26.3  34142  289.27 0854.66
2009/04/23 12:40:00.6    -197    -79    120    213    244 248.0  32.1  34148  289.37 0854.66
2009/04/23 12:40:00.7    -152    -60    149    164    221 248.3  47.1  34152  289.43 0854.66
2009/04/23 12:40:00.8    -115   -144    155    185    241 218.7  44.5  34146  289.33 0854.66
2009/04/23 12:40:00.9     -14   -133    227    134    263 186.2  66.8  34148  289.36 0854.66
2009/04/23 12:40:01.0      -2    -25    215     26    216 184.5  90.0  34154  289.46 0854.66
2009/04/23 12:40:01.1     -76     82    151    113    188 317.2  59.4  34150  289.40 0854.66
2009/04/23 12:40:01.2      16    228    186    229    295   4.0  43.5  34148  289.37 0854.66
2009/04/23 12:40:01.3      97    233     89    253    268  22.7  20.0  34146  289.34 0854.66
2009/04/23 12:40:01.4    -120    264     86    291    304 335.5  16.5  34146  289.34 0854.66
2009/04/23 12:40:01.5      37    188     73    192    205  11.3  21.3  34152  289.43 0854.66
2009/04/23 12:40:01.6     138      6     95    139    168  87.4  37.6  34152  289.43 0854.66
2009/04/23 12:40:01.7     107     -4    206    108    232  92.6  70.0  34154  289.46 0854.66
2009/04/23 12:40:01.8      85     21    154     88    177  75.8  67.7  34164  289.65 0854.66
2009/04/23 12:40:01.9      30    -37     97     48    108 141.3  72.8  34166  289.67 0854.66
2009/04/23 12:40:02.0      25    -54     45     60     75 154.7  39.7  34166  289.67 0854.66
2009/04/23 12:40:02.1       8   -109     66    110    128 175.6  34.0  34152  289.45 0854.66
2009/04/23 12:40:02.2      40    -54     84     68    108 143.9  56.4  34150  289.40 0854.66
2009/04/23 12:40:02.3      55      4     54     56     77  85.7  51.1  34152  289.43 0854.68
2009/04/23 12:40:02.4     -32    146    -24    150    153 347.5  -9.4  34166  289.67 0854.68
2009/04/23 12:40:02.5    -195     72   -172    209    270 290.4 -48.1  34154  289.46 0854.68
2009/04/23 12:40:02.6    -449   -247   -307    513    597 241.2 -38.0  34146  289.34 0854.68
2009/04/23 12:40:02.7    -469   -199   -321    510    602 247.0 -39.7  34150  289.41 0854.68
2009/04/23 12:40:02.8    -227   -467   -105    520    531 206.0 -11.5  34148  289.36 0854.68
2009/04/23 12:40:02.9    -120   -191    -69    226    236 212.3 -21.8  34140  289.24 0854.68
2009/04/23 12:40:03.0    -329   -131   -147    355    384 248.3 -28.2  34146  289.35 0854.68
2009/04/23 12:40:03.1    -211    -26    -40    213    217 262.8 -10.9  34138  289.21 0854.68
2009/04/23 12:40:03.2    -219    -24     78    221    235 263.6  19.4  34150  289.41 0854.68
2009/04/23 12:40:03.3    -235   -173    140    292    323 233.6  27.3  34150  289.41 0854.68
2009/04/23 12:40:03.4    -373   -106    147    388    414 254.1  21.8  34154  289.48 0854.68
2009/04/23 12:40:03.5    -406     12    175    407    443 271.8  25.0  34158  289.55 0854.68
2009/04/23 12:40:03.6    -406    108     84    421    430 284.9  11.3  34160  289.56 0854.68
2009/04/23 12:40:03.7    -492     89     28    500    501 280.3   3.3  34160  289.56 0854.68
2009/04/23 12:40:03.8    -472    143    135    494    513 286.9  15.3  34162  289.62 0854.68
2009/04/23 12:40:03.9    -598    102     24    607    608 279.7   2.3  34164  289.64 0854.68
2009/04/23 12:40:04.0    -707    -10   -100    708    716 269.2  -8.1  34162  289.61 0854.68
2009/04/23 12:40:04.1    -554     66    122    558    572 276.8  12.4  34156  289.50 0854.68
2009/04/23 12:40:04.2    -475   -331    -31    580    581 235.1  -3.1  34162  289.59 0854.68
2009/04/23 12:40:04.3    -459   -429    -50    629    632 226.9  -4.6  34152  289.43 0854.70
2009/04/23 12:40:04.4    -502   -458     35    680    681 227.6   3.0  34128  289.02 0854.70
2009/04/23 12:40:04.5    -292   -480    201    562    596 211.3  20.4  34148  289.36 0854.70
2009/04/23 12:40:04.6     -64   -414    305    420    519 188.9  39.7  34160  289.57 0854.70
2009/04/23 12:40:04.7     -97   -279    152    296    332 199.2  29.3  34152  289.42 0854.70
2009/04/23 12:40:04.8    -147   -471    200    494    532 197.4  23.1  34162  289.62 0854.70
2009/04/23 12:40:04.9    -117   -550    404    563    692 192.1  39.3  34154  289.48 0854.70
2009/04/23 12:40:05.0    -224   -191   -219    295    367 229.6 -44.6  34152  289.45 0854.70
2009/04/23 12:40:05.1    -398   -122    122    417    435 253.0  16.3  34156  289.51 0854.70
2009/04/23 12:40:05.2    -155   -249    212    294    362 211.9  39.5  34156  289.50 0854.70
2009/04/23 12:40:05.3    -276   -112    164    299    341 247.8  31.3  34166  289.66 0854.70
2009/04/23 12:40:05.4    -380    -15     39    381    383 267.7   5.9  34172  289.77 0854.70
2009/04/23 12:40:05.5    -424   -141   -156    448    474 251.5 -24.4  34162  289.59 0854.70
2009/04/23 12:40:05.6    -431   -162    -93    461    471 249.3 -11.5  34162  289.62 0854.70
2009/04/23 12:40:05.7    -589   -283   -112    654    664 244.3  -9.8  34154  289.46 0854.70
2009/04/23 12:40:05.8    -517    -54      0    520    521 264.0   0.0  34158  289.53 0854.70
2009/04/23 12:40:05.9    -515    106   -170    526    552 281.7 -22.9  34154  289.46 0854.70
2009/04/23 12:40:06.0    -929   -234   -433    958   1051 255.8 -30.3  34152  289.43 0854.70
2009/04/23 12:40:06.1    -730    -89   -280    736    787 263.0 -26.4  34152  289.42 0854.70
2009/04/23 12:40:06.2    -678    -51   -343    680    761 265.6 -33.3  34168  289.72 0854.70
2009/04/23 12:40:06.3    -733   -311   -280    797    844 247.0 -24.6  34152  289.42 0854.72
2009/04/23 12:40:06.4    -655     37    -69    657    661 273.3  -6.1  34152  289.44 0854.72
2009/04/23 12:40:06.5    -638    175   -243    662    705 285.4 -25.5  34138  289.21 0854.72
2009/04/23 12:40:06.6    -919      5   -371    920    991 270.4 -27.6  34156  289.50 0854.72
2009/04/23 12:40:06.7    -813    -61   -375    816    898 265.7 -30.8  34146  289.35 0854.72
2009/04/23 12:40:06.8    -758    -48   -248    760    799 266.4 -23.2  34154  289.46 0854.72
2009/04/23 12:40:06.9    -683     47   -208    685    717 274.0 -16.9  34142  289.28 0854.72
2009/04/23 12:40:07.0    -508   -108   -169    520    547 258.0 -18.1  34154  289.46 0854.72
2009/04/23 12:40:07.1    -792      0   -268    793    838 270.0 -18.7  34156  289.52 0854.72
2009/04/23 12:40:07.2    -554     -7   -170    555    580 269.2 -21.9  34156  289.51 0854.72
2009/04/23 12:40:07.3    -466   -155   -152    492    516 251.6 -17.2  34152  289.42 0854.72
2009/04/23 12:40:07.4    -345   -364    -85    502    510 223.4  -9.7  34154  289.47 0854.72
2009/04/23 12:40:07.5    -244   -438    -49    502    505 209.1  -5.6  34156  289.50 0854.72
2009/04/23 12:40:07.6     -64   -462    -63    467    472 187.9  -7.7  34156  289.49 0854.72
2009/04/23 12:40:07.7      52   -475    -50    478    481 173.7  -6.0  34154  289.47 0854.72
2009/04/23 12:40:07.8      52   -386    -21    390    391 172.2  -3.1  34154  289.47 0854.72
2009/04/23 12:40:07.9      65   -285   -114    293    314 167.1 -26.7  34156  289.49 0854.72
2009/04/23 12:40:08.0     -20   -444   -140    445    466 182.6 -22.6  34152  289.43 0854.72
2009/04/23 12:40:08.1     -53   -463      0    467    468 186.6   0.0  34144  289.30 0854.72
2009/04/23 12:40:08.2     -27   -321    -58    323    329 184.9 -10.3  34150  289.41 0854.72
2009/04/23 12:40:08.3     -82   -221    -73    237    247 200.5 -22.3  34150  289.39 0854.69
2009/04/23 12:40:08.4       4   -170   -107    171    201 178.6 -39.9  34150  289.40 0854.69
2009/04/23 12:40:08.5     137   -413     16    436    437 161.6   2.1  34152  289.43 0854.69
2009/04/23 12:40:08.6      53   -414    -69    418    424 172.7  -9.4  34152  289.43 0854.69
2009/04/23 12:40:08.7      12   -508     46    509    512 178.6   5.2  34142  289.28 0854.69
2009/04/23 12:40:08.8    -104   -489    -11    500    501 192.0  -1.3  34148  289.37 0854.69
2009/04/23 12:40:08.9     -55   -390    -21    395    396 188.1  -3.2  34146  289.35 0854.69
2009/04/23 12:40:09.0     -16   -426    -16    427    428 182.2  -2.2  34154  289.46 0854.69
2009/04/23 12:40:09.1      -8   -551     52    552    555 180.9   5.5  34148  289.38 0854.69
2009/04/23 12:40:09.2     -77   -533     -5    539    540 188.2  -0.6  34142  289.28 0854.69
2009/04/23 12:40:09.3    -191   -513     61    548    552 200.5   6.4  34144  289.31 0854.67
2009/04/23 12:40:09.4    -102   -504     64    515    519 191.5   7.1  34142  289.28 0854.67
2009/04/23 12:40:09.5     -44   -501     15    504    505 185.1   1.8  34152  289.42 0854.67
2009/04/23 12:40:09.6     -42   -549    149    551    572 184.4  15.2  34150  289.40 0854.67
2009/04/23 12:40:09.7      -4   -485     75    486    492 180.5   8.8  34150  289.39 0854.67
2009/04/23 12:40:09.8       1   -465     77    466    473 179.8   9.4  34150  289.39 0854.67
2009/04/23 12:40:09.9     -39   -519    -17    521    522 184.4  -1.9  34148  289.36 0854.67
2009/04/23 12:40:10.0    -216   -465     63    513    517 205.0   7.1  34146  289.35 0854.67
2009/04/23 12:40:10.1    -163   -495      1    522    523 198.3   0.2  34150  289.40 0854.67
2009/04/23 12:40:10.2    -106   -498     39    510    512 192.0   4.4  34148  289.37 0854.67
2009/04/23 12:40:10.3     -72   -624     10    629    630 186.6   1.0  34146  289.33 0854.67
2009/04/23 12:40:10.4     -50   -593    -32    596    597 184.9  -3.1  34150  289.41 0854.67
2009/04/23 12:40:10.5     -89   -521    102    529    539 189.7  11.0  34144  289.31 0854.67
2009/04/23 12:40:10.6    -174   -415    138    451    472 202.7  17.0  34152  289.42 0854.67
2009/04/23 12:40:10.7    -223   -472     48    523    526 205.3   5.3  34146  289.35 0854.67
2009/04/23 12:40:10.8     -76   -378    129    386    408 191.4  18.5  34152  289.45 0854.67
2009/04/23 12:40:10.9    -150   -318      5    352    353 205.4   0.8  34148  289.38 0854.67
2009/04/23 12:40:11.0    -137   -354      7    380    381 201.2   1.1  34146  289.33 0854.67
2009/04/23 12:40:11.1     -97   -372    -44    385    388 194.6  -6.6  34146  289.32 0854.67
2009/04/23 12:40:11.2      32   -419    -16    421    422 175.6  -2.2  34150  289.41 0854.67
2009/04/23 12:40:11.3      13   -442      7    443    444 178.2   1.0  34148  289.36 0854.63
2009/04/23 12:40:11.4     -79   -460     -9    467    468 189.8  -1.2  34152  289.42 0854.63
2009/04/23 12:40:11.5     -26   -580     97    581    590 182.6   9.5  34156  289.49 0854.63
2009/04/23 12:40:11.6     -59   -544    132    548    564 186.3  13.6  34150  289.41 0854.63
2009/04/23 12:40:11.7    -132   -506    116    523    536 194.7  12.6  34154  289.46 0854.63
2009/04/23 12:40:11.8     -70   -542     -5    547    548 187.4  -0.6  34158  289.53 0854.63
2009/04/23 12:40:11.9     -39   -500    -15    502    503 184.5  -1.8  34164  289.64 0854.63
2009/04/23 12:40:12.0      -8   -496    -75    497    503 181.0  -8.6  34156  289.49 0854.63
2009/04/23 12:40:12.1     -65   -467     20    472    473 188.0   2.5  34150  289.40 0854.63
2009/04/23 12:40:12.2     -60   -520    -14    524    525 186.6  -1.6  34156  289.50 0854.63
2009/04/23 12:40:12.3    -112   -578    -64    589    593 191.0  -6.2  34156  289.51 0854.63
2009/04/23 12:40:12.4    -123   -591    -48    604    607 191.8  -4.6  34148  289.37 0854.63
2009/04/23 12:40:12.5    -128   -375    266    397    477 199.0  37.0  34152  289.44 0854.63
2009/04/23 12:40:12.6    -157   -433    235    461    517 200.0  29.2  34154  289.47 0854.63
2009/04/23 12:40:12.7     -69   -524    185    529    560 187.6  20.0  34148  289.38 0854.63
2009/04/23 12:40:12.8     -59   -547    101    551    561 186.2  10.4  34146  289.33 0854.63
2009/04/23 12:40:12.9     -65   -434    198    439    481 188.6  26.0  34148  289.37 0854.63
2009/04/23 12:40:13.0    -178   -408     68    446    452 203.6   8.7  34152  289.44 0854.63
2009/04/23 12:40:13.1    -102   -407    237    420    482 194.2  32.0  34154  289.46 0854.63
2009/04/23 12:40:13.2     -97   -375    294    388    486 194.5  40.9  34154  289.48 0854.63
2009/04/23 12:40:13.3     -30   -394    326    396    512 184.4  43.7  34156  289.52 0854.62
2009/04/23 12:40:13.4     -79   -411    193    419    461 191.0  26.6  34138  289.21 0854.62
2009/04/23 12:40:13.6     -52   -324    253    329    415 189.1  41.4  34156  289.50 0854.62
2009/04/23 12:40:13.7     -14   -316    206    317    378 182.7  36.0  34154  289.48 0854.62
2009/04/23 12:40:13.8     -84   -370    215    380    436 192.8  32.0  34156  289.49 0854.62
2009/04/23 12:40:13.9    -161   -297    133    338    363 208.5  22.7  34156  289.52 0854.62
2009/04/23 12:40:14.0    -135   -221     98    260    277 211.4  21.7  34156  289.49 0854.62
2009/04/23 12:40:14.1     -64   -223    167    233    286 196.0  39.3  34156  289.49 0854.62
2009/04/23 12:40:14.2    -109   -222    259    248    358 206.3  51.4  34160  289.58 0854.62
2009/04/23 12:40:14.3      -1   -111    188    112    218 180.9  66.7  34162  289.62 0854.62
2009/04/23 12:40:14.4      27   -159    189    162    248 170.3  55.4  34154  289.48 0854.62
2009/04/23 12:40:14.5      45   -134    289    142    322 161.3  72.1  34162  289.59 0854.62
2009/04/23 12:40:14.6      31   -400    137    402    425 175.5  18.9  34156  289.51 0854.62
2009/04/23 12:40:14.7      11   -400    108    401    416 178.3  15.1  34158  289.53 0854.62
2009/04/23 12:40:14.8      60   -387    154    392    421 171.1  22.8  34154  289.46 0854.62
2009/04/23 12:40:14.9      72   -329    217    337    400 167.6  35.7  34158  289.54 0854.62
2009/04/23 12:40:15.0      28   -361    131    363    385 175.4  20.7  34160  289.57 0854.62
2009/04/23 12:40:15.1      -3   -366     51    367    371 180.6   7.9  34158  289.55 0854.62
2009/04/23 12:40:15.2      13   -334     34    335    337 177.8   5.8  34162  289.59 0854.62
2009/04/23 12:40:15.3      63   -313     57    320    326 168.5  10.2  34162  289.59 0854.62
2009/04/23 12:40:15.4     -46   -248     49    253    258 190.5  11.0  34160  289.56 0854.64
2009/04/23 12:40:15.5     -55   -226    115    233    259 193.8  28.2  34158  289.54 0854.64
2009/04/23 12:40:15.6     -91   -162     58    187    196 209.4  17.4  34160  289.58 0854.64
2009/04/23 12:40:15.7     -74   -203     23    217    219 200.0   6.1  34158  289.55 0854.64
2009/04/23 12:40:15.8     -82   -164    -66    184    196 206.5 -19.7  34158  289.55 0854.64
2009/04/23 12:40:15.9      29   -227      0    229    230 172.7   0.2  34150  289.40 0854.64
2009/04/23 12:40:16.0      62   -263     50    271    276 166.6  10.6  34158  289.54 0854.64
2009/04/23 12:40:16.1      51   -179    148    187    238 164.0  42.4  34158  289.55 0854.64
2009/04/23 12:40:16.2      70   -219    182    231    294 162.2  42.2  34160  289.58 0854.64
2009/04/23 12:40:16.3      31   -230    181    233    295 172.2  41.7  34162  289.59 0854.64
2009/04/23 12:40:16.4      48   -254    143    259    295 169.1  31.4  34162  289.59 0854.64
2009/04/23 12:40:16.5      16   -196    151    197    248 175.3  41.6  34162  289.61 0854.64
2009/04/23 12:40:16.6      -2   -186    153    187    241 180.9  43.7  34160  289.57 0854.64
2009/04/23 12:40:16.7      -7   -199    153    200    251 182.2  41.2  34162  289.61 0854.64
2009/04/23 12:40:16.8     -21   -204    148    206    253 186.0  39.5  34160  289.58 0854.64
2009/04/23 12:40:16.9     -64   -211    167    221    277 196.9  40.9  34158  289.54 0854.64
2009/04/23 12:40:17.0     -96   -271    224    288    364 199.6  41.7  34160  289.57 0854.64
2009/04/23 12:40:17.1    -146   -280    170    317    359 207.6  30.6  34158  289.54 0854.64
2009/04/23 12:40:17.2    -123   -297    276    322    424 202.5  44.9  34156  289.52 0854.64
2009/04/23 12:40:17.3    -110   -274    263    296    395 201.9  46.3  34158  289.55 0854.64
2009/04/23 12:40:17.4    -110   -310    301    330    446 199.6  47.0  34156  289.51 0854.65
2009/04/23 12:40:17.5    -135   -375    316    399    508 199.9  42.2  34152  289.45 0854.65
2009/04/23 12:40:17.6    -134   -316    293    344    451 203.0  44.8  34156  289.49 0854.65
2009/04/23 12:40:17.7    -253   -302    272    395    479 220.0  37.8  34158  289.55 0854.65
2009/04/23 12:40:17.8    -239   -270    184    361    405 221.5  29.2  34154  289.48 0854.65
2009/04/23 12:40:17.9     -59   -155    223    166    278 200.9  59.8  34156  289.51 0854.65
2009/04/23 12:40:18.0    -110    -89    177    142    226 230.9  56.9  34158  289.53 0854.65
2009/04/23 12:40:18.1     -70    -79    127    106    165 221.4  55.8  34158  289.53 0854.65
2009/04/23 12:40:18.2     -65    -56    159     86    180 229.1  69.3  34158  289.53 0854.65
2009/04/23 12:40:18.3    -104      6     90    105    138 273.5  45.4  34160  289.58 0854.65
2009/04/23 12:40:18.4      33      6    115     34    119  78.6  82.8  34162  289.60 0854.65
2009/04/23 12:40:18.5    -159      6     99    160    188 272.5  35.0  34152  289.43 0854.65
2009/04/23 12:40:18.6    -180     13    169    181    247 274.3  47.9  34154  289.48 0854.65
2009/04/23 12:40:18.7     -73    -17    150     76    168 256.7  71.1  34158  289.55 0854.65
2009/04/23 12:40:18.8    -152   -142    196    209    286 226.9  48.0  34152  289.44 0854.65
2009/04/23 12:40:18.9      21     20    203     30    205  46.9  90.0  34160  289.57 0854.65
2009/04/23 12:40:19.0      -9     87    205     88    223 353.8  75.5  34158  289.53 0854.65
2009/04/23 12:40:19.1       4    105    164    106    195   2.7  64.1  34156  289.52 0854.65
2009/04/23 12:40:19.2    -201    199    227    283    362 314.7  43.0  34154  289.48 0854.65
2009/04/23 12:40:19.3    -230     79    168    244    296 289.0  37.8  34160  289.58 0854.65
2009/04/23 12:40:19.4    -260    149    125    300    325 299.8  23.9  34154  289.47 0854.67
2009/04/23 12:40:19.5    -291    163    108    334    351 299.3  17.9  34158  289.55 0854.67
2009/04/23 12:40:19.6    -198    239    156    311    347 320.3  28.5  34156  289.50 0854.67
2009/04/23 12:40:19.7    -325     43    114    328    348 277.7  19.2  34152  289.45 0854.67
2009/04/23 12:40:19.8    -367     -4    129    368    391 269.3  19.4  34158  289.54 0854.67
2009/04/23 12:40:19.9    -299   -136     24    329    330 245.6   4.3  34162  289.62 0854.67
2009/04/23 12:40:20.0    -322   -156    -30    359    361 244.1  -4.8  34156  289.52 0854.67
2009/04/23 12:40:20.1      39    -84    -11     93     94 154.7  -7.3  34150  289.41 0854.67
2009/04/23 12:40:20.2     -59   -249     95    256    273 193.4  21.0  34148  289.37 0854.67
2009/04/23 12:40:20.3    -227   -237     34    329    331 223.8   6.0  34154  289.48 0854.67
2009/04/23 12:40:20.4    -253   -253     30    359    361 225.0   4.9  34156  289.50 0854.67
2009/04/23 12:40:20.5    -259   -129     51    290    295 243.4  10.1  34150  289.39 0854.67
2009/04/23 12:40:20.6    -134   -185    217    229    315 215.8  48.4  34158  289.53 0854.67
2009/04/23 12:40:20.7    -182   -274    107    329    347 213.6  18.0  34152  289.45 0854.67
2009/04/23 12:40:20.8    -150   -315    120    349    370 205.5  19.1  34156  289.52 0854.67
2009/04/23 12:40:20.9    -174   -272    108    324    342 212.6  18.5  34154  289.48 0854.67
2009/04/23 12:40:21.0    -150   -308    139    343    370 206.1  23.1  34158  289.54 0854.67
2009/04/23 12:40:21.1    -124   -372    157    393    423 198.4  23.0  34156  289.49 0854.67
2009/04/23 12:40:21.2     -74   -434    153    441    468 189.7  19.2  34158  289.53 0854.67
2009/04/23 12:40:21.3     -55   -523     93    527    536 186.1  10.0  34156  289.50 0854.65
2009/04/23 12:40:21.4     -18   -519     74    520    526 182.0   8.1  34158  289.53 0854.65
2009/04/23 12:40:21.5       2   -412      5    413    414 179.7   0.8  34156  289.49 0854.65
2009/04/23 12:40:21.6     -75   -505      8    511    512 188.5   1.0  34152  289.42 0854.65
2009/04/23 12:40:21.7     -24   -395    -41    396    399 183.5  -5.9  34154  289.47 0854.65
2009/04/23 12:40:21.8     -97   -503    -16    513    514 191.0  -1.8  34140  289.23 0854.65
2009/04/23 12:40:21.9    -186   -411    -64    452    457 204.3  -8.1  34150  289.41 0854.65
2009/04/23 12:40:22.0    -121   -355    -43    376    379 198.8  -6.6  34152  289.43 0854.65
2009/04/23 12:40:22.1    -263   -537     78    598    604 206.1   7.4  34154  289.46 0854.65
2009/04/23 12:40:22.2    -420   -510    -36    661    663 219.5  -3.2  34132  289.09 0854.65
2009/04/23 12:40:22.3    -616   -585   -157    850    865 226.5 -10.5  34130  289.05 0854.65
2009/04/23 12:40:22.4    -305   -647    245    716    757 205.2  18.9  34144  289.31 0854.65
2009/04/23 12:40:22.5    -369   -669    148    764    779 208.9  11.0  34146  289.34 0854.65
2009/04/23 12:40:22.6    -376   -632     66    736    740 210.8   5.2  34152  289.45 0854.65
2009/04/23 12:40:22.7    -432   -590     11    732    733 216.2   0.9  34138  289.20 0854.65
2009/04/23 12:40:22.8    -285   -517    114    591    603 208.9  11.0  34152  289.44 0854.65
2009/04/23 12:40:22.9    -197   -561     24    595    596 199.4   2.3  34156  289.51 0854.65
2009/04/23 12:40:23.0    -176   -525     98    555    564 198.6  10.1  34154  289.46 0854.65
2009/04/23 12:40:23.1    -289   -439     75    526    532 213.4   8.1  34148  289.36 0854.65
2009/04/23 12:40:23.2    -262   -400     76    479    486 213.2   9.0  34142  289.25 0854.65
2009/04/23 12:40:23.3    -230   -377     40    442    444 211.4   5.2  34150  289.41 0854.65
2009/04/23 12:40:23.4    -160   -341    133    377    399 205.2  20.1  34148  289.38 0854.65
2009/04/23 12:40:23.5    -125   -358     68    380    387 199.3  10.2  34152  289.43 0854.65
2009/04/23 12:40:23.6    -129   -323     42    349    352 201.9   6.9  34142  289.28 0854.65
2009/04/23 12:40:23.7    -155   -270     32    312    314 209.9   6.0  34144  289.31 0854.65
2009/04/23 12:40:23.8     -27   -194     69    197    209 188.1  19.4  34144  289.31 0854.65
2009/04/23 12:40:23.9     -91   -178     54    201    209 207.1  15.2  34144  289.31 0854.65
2009/04/23 12:40:24.0     -35   -111     64    117    133 197.4  31.4  34142  289.28 0854.65
2009/04/23 12:40:24.1     -63   -131     45    146    153 205.9  17.3  34142  289.28 0854.65
2009/04/23 12:40:24.2    -115   -139     72    181    194 219.6  22.8  34134  289.14 0854.65
2009/04/23 12:40:24.3     -55    -51    -63     76     98 226.9 -48.2  34136  289.16 0854.65
2009/04/23 12:40:24.4      62   -139    -33    153    157 155.9 -12.2  34136  289.16 0854.65
2009/04/23 12:40:24.5     165   -199     31    259    261 140.4   6.9  34142  289.25 0854.65
2009/04/23 12:40:24.6     171   -193    -18    259    260 138.5  -4.1  34140  289.24 0854.65
2009/04/23 12:40:24.7     213   -357    -44    416    419 149.2  -6.1  34152  289.43 0854.65
2009/04/23 12:40:24.8     369   -268      0    457    458 126.0   0.0  34146  289.34 0854.65
2009/04/23 12:40:24.9     356   -196    123    407    426 118.9  16.8  34144  289.29 0854.65
2009/04/23 12:40:25.0     275   -259    297    379    481 133.3  42.2  34146  289.34 0854.65
2009/04/23 12:40:25.1     341   -468     17    580    581 143.9   1.7  34140  289.22 0854.65
2009/04/23 12:40:25.2     359   -580    -32    683    684 148.3  -2.7  34140  289.22 0854.65
2009/04/23 12:40:25.3     368   -557      9    668    669 146.5   0.8  34140  289.24 0854.62
2009/04/23 12:40:25.4     219   -593     53    633    636 159.7   4.9  34142  289.28 0854.62
2009/04/23 12:40:25.5     398   -412    134    573    589 136.0  13.2  34130  289.08 0854.62
2009/04/23 12:40:25.6     227   -316    247    390    461 144.3  35.5  34140  289.24 0854.62
2009/04/23 12:40:25.7     151   -527    173    549    576 164.0  17.5  34138  289.21 0854.62
2009/04/23 12:40:25.8      34   -446    105    448    461 175.5  13.2  34142  289.27 0854.62
2009/04/23 12:40:25.9      50   -506    156    509    533 174.3  17.1  34144  289.31 0854.62
2009/04/23 12:40:26.0     -67   -631     92    635    642 186.1   8.3  34142  289.25 0854.62
2009/04/23 12:40:26.1    -146   -767    -17    781    782 190.8  -1.3  34142  289.27 0854.62
2009/04/23 12:40:26.2    -116   -682    -89    692    698 189.7  -7.4  34142  289.25 0854.62
2009/04/23 12:40:26.3    -209   -493   -117    536    549 203.0 -12.4  34140  289.23 0854.62
2009/04/23 12:40:26.4    -435   -617    -42    756    758 215.2  -3.2  34140  289.23 0854.62
2009/04/23 12:40:26.5    -424   -667   -166    791    809 212.5 -11.9  34140  289.24 0854.62
2009/04/23 12:40:26.6    -377   -688   -256    785    826 208.8 -18.1  34138  289.21 0854.62
2009/04/23 12:40:26.7    -199   -636   -221    667    702 197.4 -23.5  34136  289.16 0854.62
2009/04/23 12:40:26.8     150   -804    -96    818    824 169.4  -6.7  34136  289.16 0854.62
2009/04/23 12:40:26.9     158   -791   -201    807    832 168.7 -14.0  34136  289.18 0854.62
2009/04/23 12:40:27.0     297   -846   -200    897    920 160.6 -12.6  34140  289.23 0854.62
2009/04/23 12:40:27.1     265   -726   -158    774    791 159.9 -11.6  34134  289.13 0854.62
2009/04/23 12:40:27.2     129   -633   -190    647    675 168.4 -16.4  34144  289.29 0854.62
2009/04/23 12:40:27.3     127   -638   -174    651    674 168.7 -15.0  34142  289.27 0854.61
2009/04/23 12:40:27.4     206   -607   -178    642    666 161.2 -20.1  34142  289.26 0854.61
2009/04/23 12:40:27.5     269   -331     24    427    428 140.9   3.3  34120  288.90 0854.61
2009/04/23 12:40:27.6    -348   -133    -33    373    375 249.0  -5.2  34130  289.06 0854.61
2009/04/23 12:40:27.7    -517   -284    -23    590    591 241.2  -2.2  34148  289.36 0854.61
2009/04/23 12:40:27.8    -417   -152      3    445    446 249.9   0.5  34142  289.27 0854.61
2009/04/23 12:40:27.9    -116   -264   -181    289    341 203.8 -39.6  34140  289.22 0854.61
2009/04/23 12:40:28.0    -129   -301    -21    328    329 203.3  -3.7  34140  289.23 0854.61
2009/04/23 12:40:28.1     -34   -389   -131    391    412 185.1 -23.5  34132  289.09 0854.61
2009/04/23 12:40:28.2    -162   -447   -140    476    496 200.0 -21.2  34140  289.23 0854.61
2009/04/23 12:40:28.3     134   -865     70    876    879 171.2   4.6  34136  289.18 0854.61
2009/04/23 12:40:28.4     -33  -1061    343   1062   1117 181.8  17.9  34136  289.16 0854.61
2009/04/23 12:40:28.5    -248  -1010      8   1040   1041 193.8   0.5  34144  289.29 0854.61
2009/04/23 12:40:28.6    -471  -1030   -105   1133   1139 204.6  -5.3  34142  289.28 0854.61
2009/04/23 12:40:28.7    -379   -884     23    962    963 203.2   1.4  34142  289.25 0854.61
2009/04/23 12:40:28.8    -314   -942   -116    994   1001 198.5  -6.7  34134  289.14 0854.61
2009/04/23 12:40:28.9    -294   -882    -99    931    937 198.5  -6.1  34142  289.27 0854.61
2009/04/23 12:40:29.0    -138   -861   -135    873    884 189.1  -8.8  34136  289.18 0854.61
2009/04/23 12:40:29.1    -202   -832   -200    857    881 193.7 -13.2  34140  289.23 0854.61
2009/04/23 12:40:29.2     -59   -730   -101    733    740 184.7  -7.9  34138  289.21 0854.61
2009/04/23 12:40:29.3     132   -623   -147    638    655 168.0 -13.0  34132  289.11 0854.60
2009/04/23 12:40:29.4    -181   -969    110    986    993 190.6   6.4  34134  289.12 0854.60
2009/04/23 12:40:29.5    -344   -969   -144   1029   1040 199.6  -8.0  34136  289.16 0854.60
2009/04/23 12:40:29.6    -321   -845   -183    905    924 200.8 -11.5  34140  289.24 0854.60
2009/04/23 12:40:29.7    -184   -909    -36    928    929 191.5  -2.2  34120  288.91 0854.60
2009/04/23 12:40:29.8    -248   -823     12    860    861 196.8   0.8  34132  289.10 0854.60
2009/04/23 12:40:29.9    -288   -847     -4    895    896 198.8  -0.3  34140  289.23 0854.60
2009/04/23 12:40:30.0    -302   -833    -83    887    892 200.0  -5.4  34138  289.20 0854.60
2009/04/23 12:40:30.1    -223   -848   -182    877    896 194.8 -11.8  34136  289.15 0854.60
2009/04/23 12:40:30.2    -194   -832    -76    855    859 193.2  -5.1  34136  289.17 0854.60
2009/04/23 12:40:30.3    -345   -758   -130    833    844 204.5  -8.9  34142  289.26 0854.59
2009/04/23 12:40:30.4    -300   -739   -113    798    807 202.1  -8.1  34134  289.12 0854.59
2009/04/23 12:40:30.5     -29   -632    -60    633    636 182.7  -5.5  34146  289.35 0854.59
2009/04/23 12:40:30.6      69   -701   -110    705    714 174.3  -8.9  34140  289.22 0854.59
2009/04/23 12:40:30.7      43   -626    -96    628    636 176.0  -8.7  34140  289.23
   -128   -714   -131    726    738 190.2 -10.3  34138  289.19
    -33   -866   -109    867    874 182.2  -7.2  34136  289.16
    -20   -771    -55    772    774 181.5  -4.1  34140  289.22
    -40   -631    -29    633    634 183.6  -2.7  34142  289.25
    -32   -593   -129    594    608 183.1 -12.3  34138  289.20
   -191   -614   -114    643    654 197.3 -10.1  34136  289.15
   -286   -631   -111    694    704 204.4  -9.1  34136  289.15
    -27   -649   -127    650    663 182.4 -11.1  34136  289.17
   -251   -325   -320    411    520 217.8 -46.1  34136  289.17
    226   -502    -12    551    552 155.7  -1.3  34130  289.07
    104   -552    -45    562    564 169.3  -4.6  34140  289.24
    -16   -316   -166    317    357 182.9 -34.2  34138  289.21 0854.59
2009/04/23 12:40:32.1      58   -453    -78    457    464 172.7  -9.7  34146  289.33 0854.59
2009/04/23 12:40:32.2     137   -403    -79    426    434 161.2 -10.5  34140  289.22 0854.59
2009/04/23 12:40:32.3     258   -536    -98    595    604 154.3  -9.4  34142  289.27 0854.59
2009/04/23 12:40:32.4     322   -463   -161    565    588 145.2 -15.9  34140  289.24 0854.59
2009/04/23 12:40:32.5     304   -373   -115    482    496 140.8 -13.4  34142  289.25 0854.59
2009/04/23 12:40:32.6     269   -696    -67    747    751 158.8  -5.2  34140  289.24 0854.59
2009/04/23 12:40:32.7     200   -741     16    768    769 164.9   1.2  34150  289.41 0854.59
2009/04/23 12:40:32.8      90   -625     90    632    639 171.8   8.1  34142  289.28 0854.59
2009/04/23 12:40:32.9     266   -648     14    701    702 157.7   1.2  34148  289.37 0854.59
2009/04/23 12:40:33.0     264   -579    -48    637    639 155.5  -4.4  34136  289.15 0854.59
2009/04/23 12:40:33.1     -32   -433    105    435    448 184.2  13.6  34150  289.39 0854.63
2009/04/23 12:40:33.2      36   -434    102    436    448 175.1  13.2  34142  289.26 0854.63
2009/04/23 12:40:33.3     -39   -382    176    385    423 185.9  26.3  34144  289.31 0854.63
2009/04/23 12:40:33.4      25   -313    232    315    391 175.3  40.0  34146  289.33 0854.63
2009/04/23 12:40:33.5     103   -382    285    396    487 164.9  39.2  34150  289.39 0854.63
2009/04/23 12:40:33.6     288   -493    368    571    679 149.7  35.7  34142  289.28 0854.63
2009/04/23 12:40:33.7     126   -404    328    424    536 162.6  41.7  34152  289.44 0854.63
2009/04/23 12:40:33.8     101   -588    398    597    717 170.2  36.9  34150  289.39 0854.63
2009/04/23 12:40:33.9     135   -443    403    464    614 163.0  45.4  34156  289.51 0854.63
2009/04/23 12:40:34.0     120   -488    289    503    580 166.1  32.4  34158  289.53 0854.63
2009/04/23 12:40:34.1      32   -337    328    339    471 174.4  49.0  34160  289.56 0854.63
2009/04/23 12:40:34.2     -18   -237    274    238    362 184.4  54.7  34160  289.58 0854.63
2009/04/23 12:40:34.3      80    -85    247    118    273 136.8  72.8  34152  289.42 0854.63
2009/04/23 12:40:34.4     123   -292    307    318    442 157.1  49.0  34146  289.33 0854.63
2009/04/23 12:40:34.5      37   -177    276    181    330 168.0  64.0  34150  289.41 0854.63
2009/04/23 12:40:34.6     207   -153    124    258    286 126.6  27.3  34152  289.42 0854.63
2009/04/23 12:40:34.7     149   -142    181    207    274 133.6  45.8  34152  289.42 0854.63
2009/04/23 12:40:34.8     130    -91    148    160    217 125.1  47.9  34150  289.41 0854.63
2009/04/23 12:40:34.9     248   -267     57    365    370 137.1   9.0  34150  289.40 0854.63
2009/04/23 12:40:35.0      45   -257    139    262    296 170.0  30.3  34146  289.34 0854.63
2009/04/23 12:40:35.1     -39   -153    204    158    258 194.3  58.5  34152  289.43 0854.67
2009/04/23 12:40:35.2     -53   -209    200    216    294 194.3  47.9  34152  289.42 0854.67
2009/04/23 12:40:35.3    -113   -189    127    221    254 211.0  32.4  34150  289.41 0854.67
2009/04/23 12:40:35.4     -93   -197    108    219    244 205.3  28.2  34148  289.36 0854.67
2009/04/23 12:40:35.5       0   -208    176    209    273 180.0  44.1  34152  289.44 0854.67
2009/04/23 12:40:35.6    -121   -255    161    283    325 205.3  32.3  34152  289.42 0854.67
2009/04/23 12:40:35.7    -208   -221    105    304    322 223.2  19.2  34156  289.49 0854.67
2009/04/23 12:40:35.8    -127   -105    180    165    244 230.4  52.7  34156  289.50 0854.67
2009/04/23 12:40:35.9     -82     -3    117     83    143 267.4  61.1  34156  289.52 0854.67
2009/04/23 12:40:36.0    -108     69    173    129    215 302.4  59.8  34156  289.50 0854.67
2009/04/23 12:40:36.2    -272     46    148    276    313 279.7  30.5  34156  289.49 0854.67
2009/04/23 12:40:36.2    -130    164     87    210    227 321.7  23.6  34158  289.53 0854.67
2009/04/23 12:40:36.3     -83     77    163    114    198 313.1  61.8  34166  289.69 0854.67
2009/04/23 12:40:36.4    -179      0    -32    180    183 270.0 -10.1  34162  289.62 0854.67
2009/04/23 12:40:36.5    -246     42     72    250    261 279.7  16.0  34166  289.66 0854.67
2009/04/23 12:40:36.6    -282    114    106    305    323 292.0  19.2  34182  289.93 0854.67
2009/04/23 12:40:36.7    -166    166    162    236    286 315.0  37.6  34178  289.86 0854.67
2009/04/23 12:40:36.8      53    113     43    126    134  25.3  18.9  34180  289.92 0854.67
2009/04/23 12:40:36.9     304     36    -92    307    321  83.2 -16.8  34184  289.98 0854.67
2009/04/23 12:40:37.0     366     24    220    367    427  86.2  33.8  34162  289.61 0854.67
2009/04/23 12:40:37.1     433    125    211    451    497  73.8  27.1  34158  289.54 0854.69
2009/04/23 12:40:37.2     346    -10     49    347    351  91.7   8.1  34162  289.59 0854.69
2009/04/23 12:40:37.4     352     60    297    358    465  80.2  43.8  34168  289.70 0854.69
2009/04/23 12:40:37.4     356     17    305    357    469  87.2  44.9  34170  289.73 0854.69
2009/04/23 12:40:37.5     346     50    337    350    485  81.6  49.0  34168  289.72 0854.69
2009/04/23 12:40:37.6     432   -129    305    452    545 106.7  37.3  34172  289.76 0854.69
2009/04/23 12:40:37.7     425    -81    257    433    503 100.8  33.5  34170  289.73 0854.69
2009/04/23 12:40:37.8     389   -104    299    403    501 105.0  40.2  34166  289.66 0854.69
2009/04/23 12:40:37.9     351    -43    377    354    517  97.1  52.1  34160  289.56 0854.69
2009/04/23 12:40:38.0     207     32    356    210    413  81.2  66.8  34172  289.76 0854.69
2009/04/23 12:40:38.1      10    -45    235     47    239 167.5  89.1  34176  289.84 0854.69
2009/04/23 12:40:38.2     199     12    372    200    422  86.5  69.6  34168  289.72 0854.69
2009/04/23 12:40:38.3     136     19    327    138    354  82.0  75.9  34166  289.68 0854.69
2009/04/23 12:40:38.4     192     22    335    194    387  83.2  67.4  34154  289.48 0854.69
2009/04/23 12:40:38.5     -19    -57    260     61    267 198.5  87.0  34158  289.53 0854.69
2009/04/23 12:40:38.7     -94    -83    246    126    276 228.7  70.8  34168  289.70 0854.69
2009/04/23 12:40:38.7     -93   -124    120    156    196 217.0  41.7  34160  289.58 0854.69
2009/04/23 12:40:38.8     137    -81    323    160    360 120.6  71.9  34156  289.51 0854.69
2009/04/23 12:40:38.9      23     97    216    100    238  13.8  73.5  34162  289.60 0854.69
2009/04/23 12:40:39.0      21    367     88    368    379   3.4  13.6  34162  289.62 0854.69
2009/04/23 12:40:39.1      39    503   -139    505    524   4.5 -15.4  34168  289.71 0854.70
2009/04/23 12:40:39.2     -27    429   -156    430    457 356.4 -25.3  34168  289.72 0854.70
2009/04/23 12:40:39.3      25    248    -89    250    266   5.8 -19.7  34164  289.63 0854.70
2009/04/23 12:40:39.4     128    260     14    290    291  26.3   2.9  34166  289.68 0854.70
2009/04/23 12:40:39.5     134    200      0    241    242  33.8   0.0  34166  289.68 0854.70
2009/04/23 12:40:39.6     153    111     54    190    198  54.0  16.0  34170  289.74 0854.70
2009/04/23 12:40:39.7     116     87     12    146    147  53.1   5.0  34168  289.70 0854.70
2009/04/23 12:40:39.8      51    130     70    140    156  21.4  28.5  34176  289.84 0854.70
2009/04/23 12:40:39.9       2     72     43     73     84   1.8  34.0  34172  289.79 0854.70
2009/04/23 12:40:40.0       1     68     65     69     94   1.0  49.0  34174  289.82 0854.70
2009/04/23 12:40:40.1     -35     -2     67     36     76 265.6  68.9  34176  289.85 0854.70
2009/04/23 12:40:40.2     -27    -22     75     36     83 230.5  72.9  34176  289.85 0854.70
2009/04/23 12:40:40.3     -89    -37    113     97    148 247.4  55.4  34176  289.84 0854.70
2009/04/23 12:40:40.4    -122      3    103    123    160 271.7  44.3  34170  289.75 0854.70
2009/04/23 12:40:40.5    -142    -24     94    145    172 260.3  35.6  34164  289.65 0854.70
2009/04/23 12:40:40.6    -174    -60     54    185    193 250.9  16.3  34158  289.53 0854.70
2009/04/23 12:40:40.7    -235    113     12    261    262 295.8   2.8  34156  289.51 0854.70
2009/04/23 12:40:40.8    -284      4     15    285    286 270.8   3.1  34164  289.64 0854.70
2009/04/23 12:40:40.9    -190    -43    -57    195    204 257.0 -16.4  34162  289.60 0854.70
2009/04/23 12:40:41.0    -362    -43   -135    365    389 263.1 -25.5  34146  289.32 0854.70
2009/04/23 12:40:41.1    -515    -97   -230    525    573 259.3 -29.6  34152  289.45 0854.73
2009/04/23 12:40:41.2    -527     35   -101    529    539 273.9 -10.8  34168  289.70 0854.73
2009/04/23 12:40:41.4    -442    115    -13    457    458 284.7  -1.7  34166  289.68 0854.73
2009/04/23 12:40:41.5    -607    118   -190    619    647 281.0 -21.9  34166  289.67 0854.73
2009/04/23 12:40:41.6    -407    140   -188    431    470 289.1 -29.5  34168  289.72 0854.73
2009/04/23 12:40:41.7    -422    269   -254    501    561 302.5 -33.3  34164  289.65 0854.73
2009/04/23 12:40:41.8    -343    311   -185    464    499 312.2 -27.4  34172  289.79 0854.73
2009/04/23 12:40:41.9    -345    350   -165    492    518 315.4 -23.3  34170  289.74 0854.73
2009/04/23 12:40:42.0    -386    136   -188    410    451 289.4 -30.8  34170  289.73 0854.73
2009/04/23 12:40:42.1    -333     31   -158    335    370 275.4 -31.5  34160  289.57 0854.73
2009/04/23 12:40:42.2    -426    -26    -82    427    435 266.4 -10.9  34164  289.63 0854.73
2009/04/23 12:40:42.3    -362   -121   -228    382    444 251.4 -38.0  34150  289.39 0854.73
2009/04/23 12:40:42.4    -284     58    -68    291    299 281.7 -13.2  34136  289.15 0854.73
2009/04/23 12:40:42.5    -198    130     94    237    254 303.3  23.0  34162  289.61 0854.73
2009/04/23 12:40:42.6    -284     -2   -115    285    307 269.4 -27.5  34168  289.70 0854.73
2009/04/23 12:40:42.7    -198     47   -137    204    245 283.5 -41.7  34160  289.56 0854.73
2009/04/23 12:40:42.8     -29     86    -40     91     99 341.3 -29.0  34164  289.65 0854.73
2009/04/23 12:40:42.9     -33    -11     55     35     65 251.4  64.7  34166  289.67 0854.73
2009/04/23 12:40:43.0    -168    -22    -66    170    182 262.3 -26.7  34156  289.52 0854.73
2009/04/23 12:40:43.1    -158    -12   -121    159    199 265.6 -45.8  34150  289.40 0854.73
2009/04/23 12:40:43.2      24    -75   -194     79    209 161.7 -81.4  34148  289.38 0854.73
2009/04/23 12:40:43.3     -79     63   -173    102    200 308.6 -71.2  34150  289.41 0854.73
2009/04/23 12:40:43.4      92     76   -158    120    198  50.4 -63.4  34152  289.43 0854.73
2009/04/23 12:40:43.5      98    100   -189    141    235  44.5 -63.8  34152  289.45 0854.73
2009/04/23 12:40:43.6      87    -43   -110     98    147 116.6 -58.1  34162  289.62 0854.73
2009/04/23 12:40:43.7      75   -105    -50    130    139 144.4 -26.4  34162  289.60 0854.73
2009/04/23 12:40:43.8      12   -113    -38    114    120 173.8 -23.6  34158  289.55 0854.73
2009/04/23 12:40:43.9    -106    -67    -74    126    146 237.5 -37.9  34158  289.55 0854.73
2009/04/23 12:40:44.0      79   -220     61    234    242 160.2  14.7  34156  289.51 0854.73
2009/04/23 12:40:44.1     151   -416    -64    443    448 160.0  -8.2  34158  289.53 0854.73
2009/04/23 12:40:44.2     111   -485      3    498    499 167.1   0.4  34152  289.44 0854.73
2009/04/23 12:40:44.3      84   -531      0    538    539 171.0   0.0  34154  289.46 0854.73
2009/04/23 12:40:44.4      41   -556    -80    558    564 175.8  -8.2  34158  289.53 0854.73
2009/04/23 12:40:44.5     -25   -544    -48    545    548 182.7  -5.1  34148  289.36 0854.73
2009/04/23 12:40:44.6      -3   -567   -103    568    578 180.4 -10.3  34150  289.39 0854.73
2009/04/23 12:40:44.7      46   -493     -6    496    497 174.6  -0.7  34146  289.35 0854.73
2009/04/23 12:40:44.8     228   -680    -51    718    720 161.4  -4.1  34152  289.42 0854.73
2009/04/23 12:40:44.9      85   -596     12    603    604 171.9   1.2  34144  289.29 0854.73
2009/04/23 12:40:45.0     154   -422    154    450    476 160.0  18.9  34150  289.39 0854.73
2009/04/23 12:40:45.1     135   -446    222    467    517 163.1  27.3  34152  289.42 0854.72
2009/04/23 12:40:45.2     192   -466     99    505    515 157.6  11.1  34150  289.40 0854.72
2009/04/23 12:40:45.3     157   -293    230    333    404 151.7  37.9  34148  289.38 0854.72
2009/04/23 12:40:45.4     102   -463    352    475    591 167.5  40.1  34152  289.45 0854.72
2009/04/23 12:40:45.5     124   -493    319    509    600 165.9  35.2  34152  289.42 0854.72
2009/04/23 12:40:45.6      57   -462    330    466    571 172.9  38.7  34150  289.40 0854.72
2009/04/23 12:40:45.7     -35   -490    396    492    631 184.1  42.9  34142  289.27 0854.72
2009/04/23 12:40:45.8      17   -573    334    574    664 178.2  32.9  34152  289.45 0854.72
2009/04/23 12:40:45.9      67   -445    292    451    537 171.4  35.9  34152  289.45 0854.72
2009/04/23 12:40:46.0      88   -546    118    554    567 170.8  12.1  34148  289.38 0854.72
2009/04/23 12:40:46.1     -64   -693    113    697    707 185.3   9.2  34146  289.35 0854.72
2009/04/23 12:40:46.2    -243   -703   -202    744    772 199.1 -15.2  34154  289.46 0854.72
2009/04/23 12:40:46.3     -20   -623   -178    624    648 181.9 -20.7  34148  289.37 0854.72
2009/04/23 12:40:46.4      -8   -677   -247    678    721 180.7 -25.3  34150  289.39 0854.72
2009/04/23 12:40:46.5     -12   -815   -226    816    847 180.9 -15.5  34156  289.50 0854.72
2009/04/23 12:40:46.6     -45   -863   -204    865    889 183.0 -13.3  34152  289.42 0854.72
2009/04/23 12:40:46.7    -392   -801   -160    892    907 206.1 -10.2  34142  289.28 0854.72
2009/04/23 12:40:46.8    -465   -879      8    995    996 207.9   0.5  34152  289.42 0854.72
2009/04/23 12:40:46.9    -240   -804     80    840    844 196.6   5.5  34146  289.34 0854.72
2009/04/23 12:40:47.0    -181   -775     62    796    799 193.2   4.5  34146  289.35 0854.72
2009/04/23 12:40:47.1    -258   -610     68    663    667 202.9   5.9  34146  289.32 0854.73
2009/04/23 12:40:47.2    -372   -580     14    690    691 212.7   1.2  34150  289.41 0854.73
2009/04/23 12:40:47.3    -292   -542   -101    616    625 208.4  -9.3  34142  289.28 0854.73
2009/04/23 12:40:47.4    -193   -524   -183    559    589 200.3 -18.2  34144  289.29 0854.73
2009/04/23 12:40:47.5     -58   -478   -176    482    513 187.0 -25.4  34142  289.27 0854.73
2009/04/23 12:40:47.6      31   -189   -153    192    245 170.7 -47.1  34138  289.19 0854.73
2009/04/23 12:40:47.7     -47   -146   -247    154    291 197.8 -69.1  34148  289.37 0854.73
2009/04/23 12:40:47.8     -60   -296   -171    303    347 191.6 -36.3  34146  289.35 0854.73
2009/04/23 12:40:47.9    -324   -444   -112    550    562 216.1 -11.6  34140  289.24 0854.73
2009/04/23 12:40:48.0    -369   -499    -66    621    625 216.5  -6.1  34132  289.09 0854.73
2009/04/23 12:40:48.1    -236   -618    -58    662    665 200.9  -5.1  34138  289.21 0854.73
2009/04/23 12:40:48.2    -467   -606    -21    766    767 217.6  -1.6  34138  289.19 0854.73
2009/04/23 12:40:48.3    -381   -598   -231    710    747 212.5 -18.0  34138  289.19 0854.73
2009/04/23 12:40:48.4    -320   -611   -215    690    722 207.7 -22.3  34140  289.23 0854.73
2009/04/23 12:40:48.5     -47   -573   -152    576    596 184.7 -14.8  34144  289.29 0854.73
2009/04/23 12:40:48.6     -78   -561   -163    567    589 188.0 -20.8  34132  289.10 0854.73
2009/04/23 12:40:48.7     -78   -484   -138    491    510 189.2 -20.3  34142  289.28 0854.73
2009/04/23 12:40:48.8      96   -616   -189    624    651 171.1 -21.7  34132  289.11 0854.73
2009/04/23 12:40:48.9     154   -440   -145    467    488 160.7 -22.3  34142  289.27 0854.73
2009/04/23 12:40:49.0     267   -509   -164    575    597 152.3 -20.7  34138  289.19 0854.73
2009/04/23 12:40:49.1     286   -388    -83    483    491 143.6  -9.8  34136  289.17 0854.70
2009/04/23 12:40:49.2     160   -425     23    455    456 159.3   2.9  34142  289.26 0854.70
2009/04/23 12:40:49.3     165   -639     19    660    661 165.5   1.7  34140  289.24 0854.70
2009/04/23 12:40:49.4      36   -589    118    591    603 176.5  11.3  34138  289.19 0854.70
2009/04/23 12:40:49.5     166   -566    210    590    627 163.6  19.6  34144  289.31 0854.70
2009/04/23 12:40:49.6     154   -467    201    492    531 161.7  23.5  34140  289.23 0854.70
2009/04/23 12:40:49.7     230   -411    204    472    514 150.7  25.0  34140  289.22 0854.70
2009/04/23 12:40:49.8      93   -461    -18    471    472 168.5  -2.2  34146  289.34 0854.70
2009/04/23 12:40:49.9      53   -481     63    485    490 173.7   7.4  34136  289.15 0854.70
2009/04/23 12:40:50.0      89   -335     61    347    353 165.1  10.1  34142  289.28 0854.70
2009/04/23 12:40:50.1     -86   -283     25    296    298 196.9   4.9  34142  289.25 0854.70
2009/04/23 12:40:50.2    -155   -287      5    327    328 208.4   1.0  34144  289.31 0854.70
2009/04/23 12:40:50.3    -169   -344      5    384    385 206.2   0.8  34138  289.20 0854.70
2009/04/23 12:40:50.4    -108   -510    102    522    533 192.1  11.1  34150  289.40 0854.70
2009/04/23 12:40:50.5    -153   -402   -133    431    451 200.8 -22.1  34142  289.27 0854.70
2009/04/23 12:40:50.6     -76   -376   -114    384    401 191.6 -16.6  34146  289.33 0854.70
2009/04/23 12:40:50.7    -133   -437      2    458    459 197.0   0.4  34136  289.16 0854.70
2009/04/23 12:40:50.8    -166   -352    -85    390    400 205.3 -12.4  34142  289.28 0854.70
2009/04/23 12:40:50.9    -173   -283   -131    332    356 211.4 -27.2  34144  289.30 0854.70
2009/04/23 12:40:51.0    -139   -205   -141    249    286 214.2 -36.5  34144  289.29 0854.70
2009/04/23 12:40:51.1      23   -138   -159    141    212 170.2 -58.4  34144  289.31 0854.69
2009/04/23 12:40:51.2      96   -140   -105    170    199 145.5 -39.2  34144  289.30 0854.69
2009/04/23 12:40:51.3     137   -128   -121    188    223 133.1 -40.0  34146  289.35 0854.69
2009/04/23 12:40:51.4     157   -166    -77    229    241 136.7 -23.3  34148  289.36 0854.69
2009/04/23 12:40:51.5     156   -195    -18    250    251 141.3  -4.1  34144  289.31 0854.69
2009/04/23 12:40:51.6      98   -276    -14    294    295 160.4  -2.8  34146  289.32 0854.69
2009/04/23 12:40:51.7     135   -239    -19    275    276 150.6  -4.1  34142  289.27 0854.69
2009/04/23 12:40:51.8      91   -248     75    265    276 159.7  15.8  34142  289.25 0854.69
2009/04/23 12:40:51.9     201   -233    115    309    329 139.2  21.3  34144  289.29 0854.69
2009/04/23 12:40:52.0     137   -311    102    341    357 156.2  16.7  34146  289.32 0854.69
2009/04/23 12:40:52.1      19   -359    131    360    383 176.9  20.9  34144  289.30 0854.69
2009/04/23 12:40:52.2     161   -385     73    418    425 157.3  10.0  34140  289.22 0854.69
2009/04/23 12:40:52.3     115   -328     39    348    351 160.6   6.5  34146  289.32 0854.69
2009/04/23 12:40:52.4    -102   -296     80    314    325 199.1  14.3  34142  289.25 0854.69
2009/04/23 12:40:52.5     -62   -247     74    255    266 194.3  16.3  34144  289.29 0854.69
2009/04/23 12:40:52.6     -27   -238     88    240    255 186.5  21.0  34142  289.27 0854.69
2009/04/23 12:40:52.7     -25   -211     76    213    226 186.9  20.2  34140  289.24 0854.69
2009/04/23 12:40:52.8      -3   -222    115    223    250 180.9  29.3  34142  289.27 0854.69
2009/04/23 12:40:52.9     -32   -225    116    228    255 188.2  29.1  34140  289.22 0854.69
2009/04/23 12:40:53.0     -75   -218    157    231    279 199.2  37.6  34138  289.19 0854.69
2009/04/23 12:40:53.1     -95   -231    165    250    299 202.5  36.5  34140  289.22 0854.69
2009/04/23 12:40:53.2    -154   -280    143    320    350 208.9  25.8  34138  289.20 0854.69
2009/04/23 12:40:53.3    -207   -234    102    313    330 221.4  18.2  34138  289.20 0854.69
2009/04/23 12:40:53.4    -201   -214     58    295    301 223.2  11.1  34142  289.27 0854.69
2009/04/23 12:40:53.5    -129   -181     67    223    233 215.4  16.8  34140  289.23 0854.69
2009/04/23 12:40:53.6    -151   -138     72    205    217 227.6  20.2  34146  289.33 0854.69
2009/04/23 12:40:53.7    -106   -199    103    226    248 208.1  26.2  34146  289.34 0854.69
2009/04/23 12:40:53.8    -126   -221     21    255    257 209.6   4.9  34148  289.36 0854.69
2009/04/23 12:40:53.9    -102   -226     -7    249    250 204.3  -1.8  34146  289.32 0854.69
2009/04/23 12:40:54.0    -162    -88     65    185    197 241.4  19.4  34146  289.33 0854.69
2009/04/23 12:40:54.1     -91    -89    -35    128    133 225.6 -15.5  34148  289.36 0854.67
2009/04/23 12:40:54.2    -149   -114   -123    188    224 232.5 -40.4  34144  289.30 0854.67
2009/04/23 12:40:54.3    -200    -70   -117    212    242 250.7 -35.8  34140  289.22 0854.67
2009/04/23 12:40:54.4    -169    -50    -54    177    185 253.4 -22.3  34144  289.31 0854.67
2009/04/23 12:40:54.5    -215     72     -4    227    228 288.6  -1.2  34148  289.36 0854.67
2009/04/23 12:40:54.6    -228    -32    -77    231    243 262.0 -23.6  34144  289.31 0854.67
2009/04/23 12:40:54.7    -309    111     -3    329    330 289.8  -0.6  34146  289.35 0854.67
2009/04/23 12:40:54.8    -215    127   -102    250    270 300.6 -27.8  34144  289.31 0854.67
2009/04/23 12:40:54.9    -247    146   -133    287    316 300.6 -30.9  34142  289.27 0854.67
2009/04/23 12:40:55.0     -98     78   -147    126    193 308.6 -59.4  34144  289.30 0854.67
2009/04/23 12:40:55.1      -8    158    -49    159    166 356.9 -22.3  34144  289.30 0854.67
2009/04/23 12:40:55.2      95    105     34    142    147  42.3  13.7  34144  289.31 0854.67
2009/04/23 12:40:55.3     123     70     67    142    157  60.2  27.0  34144  289.31 0854.67
2009/04/23 12:40:55.4     107     73     84    130    154  55.8  35.6  34146  289.35 0854.67
2009/04/23 12:40:55.5     124    -32     59    129    141 104.6  26.6  34148  289.38 0854.67
2009/04/23 12:40:55.6      75    -89     23    117    120 139.9  11.1  34148  289.38 0854.67
2009/04/23 12:40:55.7     110    -36     69    116    134 108.2  33.5  34146  289.33 0854.67
2009/04/23 12:40:55.8      69    -70     81     99    127 135.8  43.7  34146  289.35 0854.67
2009/04/23 12:40:55.9      57    -92     37    109    116 147.9  18.9  34148  289.36 0854.67
2009/04/23 12:40:56.0      46   -111     76    121    142 157.3  35.5  34142  289.28 0854.67
2009/04/23 12:40:56.1      33    -99    159    105    190 161.5  63.6  34144  289.31 0854.66
2009/04/23 12:40:56.2     -23     58    138     63    151 338.1  73.5  34144  289.31 0854.66
2009/04/23 12:40:56.3      66    103    144    123    189  32.6  55.6  34144  289.30 0854.66
2009/04/23 12:40:56.4     143     98    176    174    247  55.6  50.1  34142  289.28 0854.66
2009/04/23 12:40:56.5     -16    -64    120     67    137 194.3  68.8  34144  289.30 0854.66
2009/04/23 12:40:56.6    -136   -120    345    182    390 228.7  69.9  34144  289.30 0854.66
2009/04/23 12:40:56.7     -32    -25    207     41    211 232.2  89.1  34148  289.36 0854.66
2009/04/23 12:40:56.8     -19     57     85     61    104 341.5  60.6  34146  289.33 0854.66
2009/04/23 12:40:56.9       0      3    135      4    135 355.5  90.0  34146  289.35 0854.66
2009/04/23 12:40:57.0     -88   -110    218    141    259 218.7  64.4  34144  289.31 0854.66
2009/04/23 12:40:57.1    -223    -53    118    230    258 256.5  29.3  34144  289.31 0854.66
2009/04/23 12:40:57.2    -385    132    -22    408    409 289.0  -3.1  34152  289.43 0854.66
2009/04/23 12:40:57.3    -412    123     92    431    441 286.7  12.1  34150  289.39 0854.66
2009/04/23 12:40:57.4    -340     10    108    341    358 271.7  17.7  34148  289.37 0854.66
2009/04/23 12:40:57.5    -242     41    135    246    280 279.6  31.3  34144  289.29 0854.66
2009/04/23 12:40:57.6    -217    138     13    258    259 302.5   2.9  34148  289.36 0854.66
2009/04/23 12:40:57.7    -152    125     98    197    220 309.5  28.2  34146  289.33 0854.66
2009/04/23 12:40:57.8    -298    167      1    342    343 299.3   0.2  34142  289.26 0854.66
2009/04/23 12:40:57.9    -251    118     84    278    291 295.2  16.8  34148  289.36 0854.66
2009/04/23 12:40:58.0    -237     41     33    241    244 279.9   8.0  34146  289.34 0854.66
2009/04/23 12:40:58.1    -188     44     48    194    200 283.3  13.9  34146  289.33 0854.69
2009/04/23 12:40:58.2       0     89     88     90    125 359.5  50.0  34146  289.35 0854.69
2009/04/23 12:40:58.3     -53      9    102     54    115 279.7  69.8  34148  289.38 0854.69
2009/04/23 12:40:58.4     -36     47     98     60    114 323.0  64.7  34150  289.40 0854.69
2009/04/23 12:40:58.5     -84     -5     86     85    120 266.1  50.1  34148  289.36 0854.69
2009/04/23 12:40:58.6    -162    -42    102    168    196 255.4  34.2  34148  289.38 0854.69
2009/04/23 12:40:58.7    -189     23     84    191    208 277.0  25.1  34146  289.33 0854.69
2009/04/23 12:40:58.8    -121     39    -98    128    161 288.2 -45.8  34148  289.38 0854.69
2009/04/23 12:40:58.9    -109     86    -73    140    157 308.2 -33.9  34148  289.36 0854.69
2009/04/23 12:40:59.0    -187     35   -131    191    231 280.8 -42.0  34140  289.23 0854.69
2009/04/23 12:40:59.1    -181    161     83    243    257 311.8  18.9  34146  289.32 0854.69
2009/04/23 12:40:59.2    -225    212     29    310    312 313.3   5.5  34148  289.37 0854.69
2009/04/23 12:40:59.3    -310     87    -19    323    324 285.7  -3.5  34148  289.37 0854.69
2009/04/23 12:40:59.4    -249     99    -28    269    271 291.7  -6.0  34150  289.41 0854.69
2009/04/23 12:40:59.5    -186     99      0    211    212 298.0   0.0  34152  289.43 0854.69
2009/04/23 12:40:59.6    -186     16      5    187    188 275.2   1.6  34150  289.41 0854.69
2009/04/23 12:40:59.7    -146     11    -46    147    155 274.4 -17.6  34142  289.28 0854.69
2009/04/23 12:40:59.8    -311    -81    -28    322    324 255.4  -5.1  34148  289.36 0854.69
2009/04/23 12:40:59.9    -323    -51   -112    328    347 260.9 -19.0  34142  289.28 0854.69
2009/04/23 12:41:00.0    -384      6     19    385    386 271.0   2.9  34152  289.43 0854.69
2009/04/23 12:41:00.1    -349    153    -69    382    389 293.7 -10.3  34156  289.52 0854.70
2009/04/23 12:41:00.2    -343     13   -143    344    372 272.3 -28.2  34130  289.06 0854.70
2009/04/23 12:41:00.3    -588    -86   -247    595    644 261.6 -28.3  34128  289.04 0854.70
2009/04/23 12:41:00.4    -636    -48   -209    638    671 265.6 -23.3  34136  289.17 0854.70
2009/04/23 12:41:00.5    -675   -143   -224    691    726 258.0 -23.0  34126  289.01 0854.70
2009/04/23 12:41:00.6    -723   -239   -364    762    844 251.7 -31.7  34126  288.98 0854.70
2009/04/23 12:41:00.7    -676   -177   -455    699    834 255.3 -40.6  34130  289.08 0854.70
2009/04/23 12:41:00.8    -962   -141   -427    973   1062 261.6 -29.6  34134  289.13 0854.70
2009/04/23 12:41:00.9    -752    -76   -308    756    816 264.2 -27.9  34140  289.22 0854.70
2009/04/23 12:41:01.0    -799   -171   -393    818    907 257.9 -31.8  34142  289.25 0854.70
2009/04/23 12:41:01.1    -924   -286   -429    968   1058 252.8 -29.9  34140  289.23 0854.70
2009/04/23 12:41:01.2    -703     36     45    704    706 273.0   3.7  34132  289.10 0854.70
2009/04/23 12:41:01.3    -510   -113    -83    523    530 257.5  -9.1  34136  289.18 0854.70
2009/04/23 12:41:01.4    -395    -96   -128    407    427 256.3 -17.6  34142  289.27 0854.70
2009/04/23 12:41:01.5    -274   -523    -23    591    592 207.7  -2.2  34140  289.22 0854.70
2009/04/23 12:41:01.6    -267   -363     92    451    461 216.4  11.6  34142  289.27 0854.70
2009/04/23 12:41:01.7    -131    -50     41    141    147 249.2  16.3  34142  289.28 0854.70
2009/04/23 12:41:01.8     -46   -194     71    200    213 193.4  19.6  34142  289.28 0854.70
2009/04/23 12:41:01.9      80   -359    115    369    387 167.3  17.4  34142  289.25 0854.70
2009/04/23 12:41:02.0      43   -263    165    267    313 170.7  34.8  34146  289.32 0854.70
2009/04/23 12:41:02.1      92   -375     91    387    398 166.1  13.3  34142  289.28 0854.73
2009/04/23 12:41:02.2     155   -446    -10    473    474 160.8  -1.3  34146  289.32 0854.73
2009/04/23 12:41:02.3     152   -426   -138    453    474 160.3 -17.0  34148  289.37 0854.73
2009/04/23 12:41:02.4     175   -403   -177    440    474 156.5 -27.4  34144  289.29 0854.73
2009/04/23 12:41:02.5     101   -239    -79    260    271 157.1 -21.8  34146  289.34 0854.73
2009/04/23 12:41:02.6      25   -243    -22    245    247 174.0  -5.2  34142  289.27 0854.73
2009/04/23 12:41:02.7     -37   -240    -35    243    246 188.9  -8.3  34144  289.31 0854.73
2009/04/23 12:41:02.8     -88   -315     50    328    332 195.7   8.8  34140  289.23 0854.73
2009/04/23 12:41:02.9    -114   -328     15    348    349 199.3   2.5  34142  289.25 0854.73
2009/04/23 12:41:03.0    -113   -305     17    326    327 200.4   3.1  34140  289.22 0854.73
2009/04/23 12:41:03.1     -83   -318    103    329    345 194.6  17.5  34138  289.20 0854.73
2009/04/23 12:41:03.2    -100   -251    -14    271    272 201.8  -3.1  34138  289.20 0854.73
2009/04/23 12:41:03.3     -34   -253    -52    256    262 187.8 -11.5  34138  289.20 0854.73
2009/04/23 12:41:03.4     -16   -211     55    212    220 184.4  14.7  34140  289.23 0854.73
2009/04/23 12:41:03.5    -303   -260     83    400    409 229.4  11.8  34138  289.21 0854.73
2009/04/23 12:41:03.6    -405   -107     -3    420    421 255.1  -0.5  34132  289.09 0854.73
2009/04/23 12:41:03.7    -305    -53    -41    310    313 260.1  -7.6  34140  289.22 0854.73
2009/04/23 12:41:03.8    -353     52     57    357    362 278.5   9.2  34136  289.16 0854.73
2009/04/23 12:41:03.9    -269      0    214    270    344 270.1  42.6  34142  289.25 0854.73
2009/04/23 12:41:04.0    -164     19    176    166    241 276.8  51.6  34150  289.41 0854.73
2009/04/23 12:41:04.1    -104   -161     17    192    193 213.0   5.2  34148  289.38 0854.75
2009/04/23 12:41:04.2    -293   -245   -126    382    402 230.1 -23.7  34132  289.10 0854.75
2009/04/23 12:41:04.3    -309   -338   -161    459    487 222.4 -19.4  34132  289.10 0854.75
2009/04/23 12:41:04.4    -313   -293   -189    429    468 226.9 -29.7  34128  289.02 0854.75
2009/04/23 12:41:04.5    -250   -249   -223    354    418 225.1 -39.9  34136  289.15 0854.75
2009/04/23 12:41:04.6    -198   -251   -299    321    438 218.3 -52.3  34130  289.07 0854.75
2009/04/23 12:41:04.7    -129   -199   -207    238    315 213.0 -49.9  34134  289.14 0854.75
2009/04/23 12:41:04.8    -141   -162   -225    215    311 221.0 -55.8  34138  289.20 0854.75
2009/04/23 12:41:04.9    -145   -214   -194    259    323 214.1 -45.1  34136  289.17 0854.75
2009/04/23 12:41:05.0    -167   -177    -75    244    255 223.2 -21.8  34138  289.20 0854.75
2009/04/23 12:41:05.1    -164   -204   -157    262    305 218.8 -38.1  34142  289.25 0854.75
2009/04/23 12:41:05.2    -248    -77    -72    260    269 252.7 -20.2  34132  289.09 0854.75
2009/04/23 12:41:05.3    -154    -65   -132    168    213 247.2 -46.6  34142  289.28 0854.75
2009/04/23 12:41:05.4    -287    -58   -220    293    366 258.5 -45.1  34136  289.18 0854.75
2009/04/23 12:41:05.5    -270    -88    -80    285    296 251.8 -20.0  34140  289.22 0854.75
2009/04/23 12:41:05.6    -334   -196   -141    388    412 239.5 -25.3  34144  289.31 0854.75
2009/04/23 12:41:05.7    -260   -161   -162    307    347 238.2 -34.5  34140  289.23 0854.75
2009/04/23 12:41:05.8    -128   -182   -212    223    307 215.2 -52.6  34140  289.24 0854.75
2009/04/23 12:41:05.9      -8    -63   -160     64    172 188.0 -81.8  34144  289.31 0854.75
2009/04/23 12:41:06.0     -18    -78   -141     81    162 193.4 -71.9  34144  289.30 0854.75
2009/04/23 12:41:06.1    -203    -22   -117    205    236 263.8 -36.8  34142  289.26 0854.75
2009/04/23 12:41:06.2    -241   -118   -151    269    308 243.8 -36.0  34138  289.19 0854.75
2009/04/23 12:41:06.3    -244    -27   -174    246    301 263.6 -43.0  34136  289.17 0854.75
2009/04/23 12:41:06.4    -259    -45   -189    263    323 260.1 -43.7  34138  289.19 0854.75
2009/04/23 12:41:06.5    -198     -2   -224    199    299 269.4 -58.4  34140  289.24 0854.75
2009/04/23 12:41:06.6    -197    -88   -150    216    262 245.8 -42.8  34142  289.25 0854.75
2009/04/23 12:41:06.7    -259    -48   -251    264    364 259.4 -52.9  34136  289.16 0854.75
2009/04/23 12:41:06.8    -222    -69   -231    233    328 252.7 -54.4  34134  289.12 0854.75
2009/04/23 12:41:06.9    -244   -222   -187    331    380 227.7 -36.4  34136  289.16 0854.75
2009/04/23 12:41:07.0    -218   -282   -113    357    375 217.7 -17.6  34136  289.15 0854.75
2009/04/23 12:41:07.1    -503    -78    -94    510    519 261.1 -10.5  34140  289.22 0854.75
2009/04/23 12:41:07.2    -339    106   -134    356    380 287.4 -25.9  34136  289.15 0854.75
2009/04/23 12:41:07.3    -212    101   -287    235    370 295.5 -60.9  34138  289.21 0854.75
2009/04/23 12:41:07.4    -269     53   -349    275    444 281.2 -62.3  34130  289.08 0854.75
2009/04/23 12:41:07.5    -134     47   -267    143    302 289.5 -74.2  34136  289.17 0854.75
2009/04/23 12:41:07.6     -37     78   -220     87    236 334.6 -81.8  34140  289.24 0854.75
2009/04/23 12:41:07.7      79   -203   -206    219    300 158.6 -52.4  34142  289.25 0854.75
2009/04/23 12:41:07.8     124   -254   -145    283    317 153.9 -33.7  34142  289.25 0854.75
2009/04/23 12:41:07.9     147   -246   -153    287    325 149.2 -34.9  34140  289.24 0854.75
2009/04/23 12:41:08.0     183   -269   -115    326    345 145.7 -24.5  34138  289.21 0854.75
2009/04/23 12:41:08.1     276   -301    -95    409    420 137.5 -13.1  34134  289.12 0854.74
2009/04/23 12:41:08.2     271   -368    -40    458    460 143.6  -5.1  34136  289.17 0854.74
2009/04/23 12:41:08.3     163   -299    -40    341    344 151.4  -6.8  34136  289.18 0854.74
2009/04/23 12:41:08.4     155   -284    -83    324    335 151.3 -14.4  34136  289.18 0854.74
2009/04/23 12:41:08.5     147   -163    104    220    243 137.9  27.2  34138  289.20 0854.74
2009/04/23 12:41:08.6     165    -42     15    171    172 104.4   5.2  34138  289.21 0854.74
2009/04/23 12:41:08.7     137    -75   -144    157    213 118.8 -52.1  34132  289.11 0854.74
2009/04/23 12:41:08.8      38     30    -57     49     75  51.4 -59.8  34134  289.13 0854.74
2009/04/23 12:41:08.9     291     -4     59    292    298  90.8  11.4  34136  289.15 0854.74
2009/04/23 12:41:09.0     283   -144     71    318    326 117.0  12.6  34138  289.20 0854.74
2009/04/23 12:41:09.2     215   -145     71    260    270 124.1  15.3  34140  289.24 0854.74
2009/04/23 12:41:09.3     180   -140    101    229    250 128.0  25.3  34140  289.22 0854.74
2009/04/23 12:41:09.4     196   -222    104    297    315 138.6  19.4  34140  289.22 0854.74
2009/04/23 12:41:09.5     159   -294    120    335    355 151.6  20.6  34140  289.23 0854.74
2009/04/23 12:41:09.6     123   -268    135    295    324 155.3  26.4  34140  289.22 0854.74
2009/04/23 12:41:09.7     143   -220    181    263    319 147.0  37.8  34142  289.27 0854.74
2009/04/23 12:41:09.8     208   -324    161    386    418 147.3  23.9  34142  289.26 0854.74
2009/04/23 12:41:09.9     211   -255     67    332    339 140.4  11.5  34140  289.23 0854.74
2009/04/23 12:41:10.0     175   -320     20    365    366 151.3   3.2  34142  289.25 0854.74
2009/04/23 12:41:10.1     162   -285     16    329    330 150.4   2.9  34138  289.21 0854.74
2009/04/23 12:41:10.2     148   -197     69    247    257 143.0  15.6  34138  289.20 0854.70
2009/04/23 12:41:10.3      15   -331     59    332    338 177.4  10.1  34138  289.20 0854.70
2009/04/23 12:41:10.4      60   -351     50    357    361 170.2   8.1  34138  289.21 0854.70
2009/04/23 12:41:10.5     134   -283     79    314    324 154.6  14.2  34138  289.20 0854.70
2009/04/23 12:41:10.6     161   -253     32    301    303 147.5   6.1  34140  289.22 0854.70
2009/04/23 12:41:10.7     139   -245     35    282    285 150.4   7.1  34140  289.22 0854.70
2009/04/23 12:41:10.8     203   -193     29    281    283 133.6   6.0  34140  289.22 0854.70
2009/04/23 12:41:10.9     161   -182     56    244    251 138.6  13.1  34142  289.25 0854.70
2009/04/23 12:41:11.0      96   -166     46    192    198 149.9  13.5  34138  289.21 0854.70
2009/04/23 12:41:11.1      46   -153     15    161    162 163.1   5.4  34142  289.28 0854.70
2009/04/23 12:41:11.2     104   -182     22    210    212 150.1   6.1  34140  289.23 0854.70
2009/04/23 12:41:11.3      92   -139     -7    168    169 146.4  -2.6  34142  289.26 0854.70
2009/04/23 12:41:11.4      79   -134      1    156    157 149.2   0.5  34138  289.21 0854.70
2009/04/23 12:41:11.5      65   -100     58    120    133 147.0  27.3  34140  289.24 0854.70
2009/04/23 12:41:11.6      59    -67     68     90    112 139.0  41.2  34140  289.24 0854.70
2009/04/23 12:41:11.7      81    -36     81     89    120 114.0  47.5  34140  289.23 0854.70
2009/04/23 12:41:11.8      58    -34     53     68     86 120.7  41.7  34140  289.23 0854.70
2009/04/23 12:41:11.9      78    -58     64     98    117 126.4  35.6  34140  289.23 0854.70
2009/04/23 12:41:12.0     161    -46     94    168    192 105.9  31.9  34138  289.21 0854.70
2009/04/23 12:41:12.1     187    -31    117    190    223  99.5  35.0  34140  289.24 0854.70
2009/04/23 12:41:12.2     127      5    139    128    188  87.4  52.5  34144  289.31 0854.70
2009/04/23 12:41:12.3      84    -31    121     90    150 110.8  60.0  34142  289.28 0854.70
2009/04/23 12:41:12.4      76    -30     85     82    118 111.7  51.2  34146  289.33 0854.70
2009/04/23 12:41:12.5     -17     11     66     21     69 304.2  80.7  34150  289.41 0854.70
2009/04/23 12:41:12.6     -25      0     80     26     84 270.0  80.7  34150  289.40 0854.70
2009/04/23 12:41:12.7       0     11     89     12     89   4.5  90.0  34146  289.35 0854.70
2009/04/23 12:41:12.8      13    -35    116     38    122 160.0  80.7  34142  289.26 0854.70
2009/04/23 12:41:12.9      -6    -68    115     69    134 185.3  65.7  34142  289.28 0854.70
2009/04/23 12:41:13.0     -30    -68     65     75     99 203.6  45.4  34142  289.26 0854.70
2009/04/23 12:41:13.1     -38    -39      9     55     56 224.1  10.1  34142  289.26 0854.70
2009/04/23 12:41:13.2     -35    -32    -35     48     59 227.8 -44.1  34148  289.38 0854.70
2009/04/23 12:41:13.3      40    -40    -35     57     66 135.0 -39.9  34150  289.40 0854.70
2009/04/23 12:41:13.4      70    -77     17    105    107 137.7   9.5  34146  289.33 0854.70
2009/04/23 12:41:13.5      42    -95     65    105    123 155.9  35.5  34142  289.28 0854.70
2009/04/23 12:41:13.6     -18    -95     62     97    115 190.7  35.5  34146  289.35 0854.70
2009/04/23 12:41:13.7     -21    -99     47    102    112 192.0  26.6  34142  289.26 0854.70
2009/04/23 12:41:13.8     -16    -98     45    100    109 189.8  26.2  34140  289.24 0854.70
2009/04/23 12:41:13.9     -11    -94     31     95    101 186.7  18.4  34140  289.24 0854.70
2009/04/23 12:41:14.0       3    -85     16     86     88 177.8  11.1  34140  289.23 0854.70
2009/04/23 12:41:14.1      48    -86     22     99    102 150.6  12.6  34140  289.23 0854.71
2009/04/23 12:41:14.2      65    -51     67     83    106 128.2  43.7  34140  289.23 0854.71
2009/04/23 12:41:14.3      73    -44    118     86    146 121.5  60.5  34142  289.28 0854.71
2009/04/23 12:41:14.4      -3      0    111      4    111 265.6  90.0  34148  289.36 0854.71
2009/04/23 12:41:14.5     -39      3     83     40     92 274.4  72.9  34150  289.41 0854.71
2009/04/23 12:41:14.6      22    -46    103     52    115 154.5  71.9  34142  289.26 0854.71
2009/04/23 12:41:14.7     -20   -155    164    157    227 187.6  51.6  34140  289.24 0854.71
2009/04/23 12:41:14.8     -27   -194    172    196    260 188.0  45.8  34140  289.24 0854.71
2009/04/23 12:41:14.9     -70   -252    185    262    320 195.6  38.6  34142  289.25 0854.71
2009/04/23 12:41:15.0     -99   -287    133    304    331 199.2  25.0  34146  289.32 0854.71
2009/04/23 12:41:15.1    -122   -291    113    316    335 202.8  20.4  34148  289.37 0854.63
2009/04/23 12:41:15.2     -99   -288    104    305    323 199.1  18.9  34144  289.31 0854.63
2009/04/23 12:41:15.3     -99   -319     76    335    344 197.3  12.9  34142  289.26 0854.63
2009/04/23 12:41:15.4     -67   -357     60    364    370 190.7   9.4  34140  289.23 0854.63
2009/04/23 12:41:15.5     -50   -356     97    360    374 188.0  15.2  34144  289.30 0854.63
2009/04/23 12:41:15.6     -24   -334    139    335    362 184.1  23.8  34146  289.33 0854.63
2009/04/23 12:41:15.7     -21   -325    131    326    351 183.8  23.0  34146  289.32 0854.63
2009/04/23 12:41:15.8    -102   -391    152    405    432 194.6  21.6  34162  289.60 0854.63
2009/04/23 12:41:15.9    -103   -416    159    429    457 193.9  21.3  34154  289.48 0854.63
2009/04/23 12:41:16.0    -132   -386    132    409    430 198.9  17.9  34156  289.51 0854.63
2009/04/23 12:41:16.1    -144   -393    126    419    438 200.2  16.8  34154  289.46 0854.63
2009/04/23 12:41:16.2    -146   -415    247    441    505 199.4  31.7  34156  289.52 0854.63
2009/04/23 12:41:16.3     -98   -466    163    477    505 191.9  18.9  34156  289.50 0854.63
2009/04/23 12:41:16.4    -102   -404      0    417    418 194.3   0.0  34174  289.80 0854.63
2009/04/23 12:41:16.5    -121   -277   -104    303    321 203.7 -18.9  34168  289.70 0854.63
2009/04/23 12:41:16.6     -80   -184   -133    201    241 203.6 -40.9  34172  289.79 0854.63
2009/04/23 12:41:16.7     -19   -226   -121    227    257 184.9 -34.7  34172  289.76 0854.63
2009/04/23 12:41:16.8    -141   -325     75    355    364 203.4  12.0  34162  289.62 0854.63
2009/04/23 12:41:16.9    -174   -365    -61    405    410 205.5  -8.6  34164  289.63 0854.63
2009/04/23 12:41:17.0     -92   -522    101    531    541 190.0  10.8  34154  289.48 0854.63
2009/04/23 12:41:17.1    -278   -560     -6    626    627 206.4  -0.6  34156  289.50 0854.60
2009/04/23 12:41:17.2    -163   -403    145    436    460 202.1  18.4  34150  289.39 0854.60
2009/04/23 12:41:17.3      -1   -426    108    427    441 180.3  14.3  34162  289.60 0854.60
2009/04/23 12:41:17.4      -1   -439    114    440    455 180.2  14.6  34146  289.34 0854.60
2009/04/23 12:41:17.5     -29   -339    252    341    424 185.0  40.0  34158  289.55 0854.60
2009/04/23 12:41:17.6     -27   -336    221    338    403 184.7  36.3  34152  289.42 0854.60
2009/04/23 12:41:17.7     -89   -340    135    352    377 194.8  22.2  34154  289.47 0854.60
2009/04/23 12:41:17.8    -134   -316    144    344    372 202.9  23.9  34154  289.47 0854.60
2009/04/23 12:41:17.9     -32   -370    152    372    401 185.1  23.6  34158  289.54 0854.60
2009/04/23 12:41:18.0     -66   -281    198    289    350 193.3  37.6  34156  289.52 0854.60
2009/04/23 12:41:18.1     -31   -252    206    254    327 187.1  43.3  34156  289.51 0854.60
2009/04/23 12:41:18.2     -69   -338    225    346    412 191.6  36.2  34158  289.54 0854.60
2009/04/23 12:41:18.3     -74   -351    195    359    408 192.0  30.9  34168  289.71 0854.60
2009/04/23 12:41:18.4     -84   -312    200    324    380 195.1  34.9  34174  289.82 0854.60
2009/04/23 12:41:18.5     -68   -369    197    376    424 190.5  30.0  34176  289.85 0854.60
2009/04/23 12:41:18.6     -60   -349    207    355    410 189.9  32.8  34172  289.77 0854.60
2009/04/23 12:41:18.7     -52   -269    241    275    365 191.1  45.8  34162  289.60 0854.60
2009/04/23 12:41:18.8      53   -259    228    265    349 168.4  45.1  34164  289.64 0854.60
2009/04/23 12:41:18.9       6   -255    189    256    318 178.6  40.1  34160  289.58 0854.60
2009/04/23 12:41:19.0       6   -322    177    323    368 178.8  31.3  34158  289.55 0854.60
2009/04/23 12:41:19.1     -32   -298    188    300    354 186.2  35.1  34156  289.50 0854.62
2009/04/23 12:41:19.2       0   -304    197    305    363 180.0  35.7  34152  289.43 0854.62
2009/04/23 12:41:19.3      22   -315    225    316    387 176.0  39.1  34152  289.45 0854.62
2009/04/23 12:41:19.4       2   -319    234    320    396 179.5  39.8  34152  289.42 0854.62
2009/04/23 12:41:19.5      28   -371    239    372    442 175.6  35.6  34152  289.43 0854.62
2009/04/23 12:41:19.6      27   -346    278    348    445 175.5  42.7  34156  289.51 0854.62
2009/04/23 12:41:19.7      13   -373    218    374    432 178.0  33.0  34146  289.33 0854.62
2009/04/23 12:41:19.8      67   -365    178    372    412 169.5  27.3  34146  289.35 0854.62
2009/04/23 12:41:19.9     -51   -363    191    367    413 188.0  29.6  34152  289.43 0854.62
2009/04/23 12:41:20.0     -66   -365    183    371    413 190.3  28.2  34150  289.40 0854.62
2009/04/23 12:41:20.1     -59   -318    233    324    399 190.5  39.2  34152  289.43 0854.62
2009/04/23 12:41:20.2     -52   -299    280    304    413 190.0  47.6  34152  289.42 0854.62
2009/04/23 12:41:20.3     -26   -298    238    300    382 185.1  42.6  34152  289.45 0854.62
2009/04/23 12:41:20.4     -76   -345    166    354    390 192.5  27.1  34158  289.54 0854.62
2009/04/23 12:41:20.5     -84   -411     95    420    431 191.6  12.8  34150  289.41 0854.62
2009/04/23 12:41:20.6     -57   -367     72    372    379 188.9  11.0  34150  289.40 0854.62
2009/04/23 12:41:20.7     -44   -326      2    330    331 187.8   0.4  34152  289.43 0854.62
2009/04/23 12:41:20.8     -25   -327    -18    329    330 184.5  -3.1  34148  289.37 0854.62
2009/04/23 12:41:20.9     -24   -321    -61    322    328 184.3 -10.9  34150  289.39 0854.62
2009/04/23 12:41:21.0      81   -310    -33    321    323 165.3  -6.0  34148  289.36 0854.62
2009/04/23 12:41:21.1      47   -295     15    299    300 170.9   2.9  34150  289.41 0854.66
2009/04/23 12:41:21.2      91   -263     31    279    281 160.9   6.5  34148  289.37 0854.66
2009/04/23 12:41:21.3      48   -206     54    212    219 166.7  14.5  34150  289.40 0854.66
2009/04/23 12:41:21.4      59   -156     51    168    176 159.1  17.1  34148  289.38 0854.66
2009/04/23 12:41:21.5     106    -76     84    131    155 126.0  35.6  34152  289.45 0854.66
2009/04/23 12:41:21.6     144    -97     91    174    196 124.0  29.5  34152  289.43 0854.66
2009/04/23 12:41:21.7     195    -79     85    211    227 112.2  23.1  34150  289.41 0854.66
2009/04/23 12:41:21.8      66   -185     68    197    209 160.2  19.2  34148  289.36 0854.66
2009/04/23 12:41:21.9     112   -134    175    175    247 140.1  50.1  34152  289.45 0854.66
2009/04/23 12:41:22.0      56   -244    156    251    295 166.9  35.0  34152  289.44 0854.66
2009/04/23 12:41:22.1      48   -266    114    271    294 169.8  24.1  34150  289.39 0854.66
2009/04/23 12:41:22.2      36   -212     67    216    227 170.2  17.4  34148  289.38 0854.66
2009/04/23 12:41:22.3      75   -203     77    217    231 159.5  19.6  34150  289.41 0854.66
2009/04/23 12:41:22.4      72   -163     81    179    196 156.2  25.9  34152  289.43 0854.66
2009/04/23 12:41:22.5     124   -211     16    245    246 149.5   3.9  34152  289.42 0854.66
2009/04/23 12:41:22.6      68   -226    -30    237    239 163.1  -7.3  34150  289.39 0854.66
2009/04/23 12:41:22.7     -20   -202    -85    204    221 185.8 -28.0  34148  289.36 0854.66
2009/04/23 12:41:22.8     -32   -137    -73    141    158 193.4 -33.9  34150  289.40 0854.66
2009/04/23 12:41:22.9     -15   -138    -47    139    147 186.3 -18.7  34146  289.35 0854.66
2009/04/23 12:41:23.0     -59   -166     33    177    181 199.6  10.6  34148  289.38 0854.66
2009/04/23 12:41:23.1     -74   -212     37    225    229 199.4   9.3  34148  289.36 0854.58
2009/04/23 12:41:23.2     -62   -229     20    238    239 195.2   4.9  34150  289.41 0854.58
2009/04/23 12:41:23.3     -78   -194    -19    210    211 202.1  -5.4  34146  289.35 0854.58
2009/04/23 12:41:23.4    -169   -194   -183    258    316 221.0 -43.2  34138  289.20 0854.58
2009/04/23 12:41:23.5    -310   -172   -176    355    396 240.9 -32.6  34146  289.32 0854.58
2009/04/23 12:41:23.6    -244    -98   -117    264    288 248.0 -29.7  34136  289.17 0854.58
2009/04/23 12:41:23.7     -86   -143    -37    167    172 211.0 -12.6  34148  289.38 0854.58
2009/04/23 12:41:23.8    -256   -101    -79    276    287 248.5 -20.7  34152  289.44 0854.58
2009/04/23 12:41:23.9    -124   -160     50    203    210 217.8  13.9  34152  289.45 0854.58
2009/04/23 12:41:24.0    -183     60     96    193    215 288.2  28.2  34146  289.35 0854.58
2009/04/23 12:41:24.1    -230     61     25    239    241 285.0   6.1  34144  289.29 0854.58
2009/04/23 12:41:24.2    -257      8    -10    258    259 271.9  -2.2  34152  289.42 0854.58
2009/04/23 12:41:24.3    -261     44     -5    265    266 279.6  -1.3  34152  289.42 0854.58
2009/04/23 12:41:24.4    -306     25    -90    308    322 274.8 -16.4  34146  289.34 0854.58
2009/04/23 12:41:24.5    -316    -64   -112    323    341 258.6 -23.9  34152  289.45 0854.58
2009/04/23 12:41:24.6    -200     97    -41    223    227 296.0 -10.5  34152  289.45 0854.58
2009/04/23 12:41:24.7    -200     68     10    212    213 288.8   2.9  34150  289.40 0854.58
2009/04/23 12:41:24.8    -140    131     42    192    197 313.1  12.6  34150  289.41 0854.58
2009/04/23 12:41:24.9    -176    171    -32    246    249 314.2  -7.5  34152  289.44 0854.58
2009/04/23 12:41:25.0    -198     80    -58    214    222 292.2 -15.4  34148  289.38 0854.58
2009/04/23 12:41:25.1    -150     95    167    178    244 302.4  48.2  34152  289.45 0854.50
2009/04/23 12:41:25.2    -182    150    -16    237    238 309.5  -3.9  34156  289.49 0854.50
2009/04/23 12:41:25.3    -268    121    -82    295    307 294.4 -15.5  34164  289.64 0854.50
2009/04/23 12:41:25.4    -498     -7   -192    499    534 269.1 -26.5  34136  289.16 0854.50
2009/04/23 12:41:25.5    -185      0    122    186    222 270.0  36.0  34144  289.30 0854.50
2009/04/23 12:41:25.6    -153    134    -56    204    212 311.1 -15.4  34150  289.41 0854.50
2009/04/23 12:41:25.7    -251    -22    -77    253    265 264.8 -17.0  34154  289.47 0854.50
2009/04/23 12:41:25.8    -302    -99   -182    318    366 251.8 -36.8  34146  289.35 0854.50
2009/04/23 12:41:25.9    -353    -86   -164    364    399 256.2 -30.3  34146  289.35 0854.50
2009/04/23 12:41:26.0    -328    -27   -152    330    363 265.2 -31.0  34148  289.38 0854.50
2009/04/23 12:41:26.1    -355   -111   -168    373    409 252.6 -30.4  34148  289.37 0854.50
2009/04/23 12:41:26.2    -288    -35   -194    291    349 263.0 -41.0  34148  289.38 0854.50
2009/04/23 12:41:26.3    -229    -17   -139    230    268 265.7 -38.6  34148  289.36 0854.50
2009/04/23 12:41:26.4    -148     33   -186    152    240 282.8 -60.8  34152  289.45 0854.50
2009/04/23 12:41:26.5    -374    -55   -233    379    444 261.6 -38.9  34154  289.46 0854.50
2009/04/23 12:41:26.6    -305   -144   -200    338    392 244.6 -37.8  34148  289.37 0854.50
2009/04/23 12:41:26.7    -237   -252   -148    347    377 223.2 -28.9  34152  289.43 0854.50
2009/04/23 12:41:26.8    -292   -163   -170    335    375 240.9 -33.6  34152  289.43 0854.50
2009/04/23 12:41:26.9    -313   -115   -179    334    378 249.7 -35.0  34152  289.45 0854.50
2009/04/23 12:41:27.0    -170   -207   -221    269    348 219.4 -48.1  34154  289.47 0854.50
2009/04/23 12:41:27.1    -221   -183   -215    287    358 230.4 -45.1  34152  289.43 0854.48
2009/04/23 12:41:27.2    -255   -168   -156    306    343 236.7 -33.5  34156  289.50 0854.48
2009/04/23 12:41:27.3    -198   -308     71    367    374 212.7  11.0  34146  289.35 0854.48
2009/04/23 12:41:27.4    -328   -178   -106    374    388 241.5 -20.5  34158  289.54 0854.48
2009/04/23 12:41:27.5    -341   -239    -18    417    418 235.0  -2.6  34158  289.53 0854.48
2009/04/23 12:41:27.6    -191   -175    -77    260    272 227.6 -16.6  34156  289.49 0854.48
2009/04/23 12:41:27.7    -135   -148    -44    201    206 222.5 -12.6  34160  289.57 0854.48
2009/04/23 12:41:27.8    -174   -247    -90    303    317 215.2 -16.6  34150  289.39 0854.48
2009/04/23 12:41:27.9    -228   -171     -3    286    287 233.1  -0.7  34154  289.46 0854.48
2009/04/23 12:41:28.0    -230   -155    -10    278    279 235.9  -2.2  34158  289.53 0854.48
2009/04/23 12:41:28.1    -359   -132      1    383    384 249.7   0.2  34162  289.60 0854.48
2009/04/23 12:41:28.2    -360   -218      0    421    422 238.8   0.1  34156  289.49 0854.48
2009/04/23 12:41:28.3    -312   -120   -180    335    380 248.9 -35.1  34152  289.42 0854.48
2009/04/23 12:41:28.4    -141   -264    198    300    359 208.1  36.5  34152  289.42 0854.48
2009/04/23 12:41:28.5    -125   -251    179    281    333 206.5  35.6  34140  289.24 0854.48
2009/04/23 12:41:28.6      23   -372    145    373    400 176.4  22.2  34144  289.30 0854.48
2009/04/23 12:41:28.7     -15   -400    219    401    456 182.2  31.3  34148  289.36 0854.48
2009/04/23 12:41:28.8     -46   -440    120    443    460 186.0  15.2  34144  289.29 0854.48
2009/04/23 12:41:28.9     -38   -533    102    535    545 184.1  10.8  34136  289.18 0854.48
2009/04/23 12:41:29.0     -10   -609    198    610    642 181.0  18.0  34142  289.25 0854.48
2009/04/23 12:41:29.1      90   -575    133    583    599 171.1  12.9  34142  289.25 0854.49
2009/04/23 12:41:29.2     127   -583     -2    597    598 167.6  -0.2  34144  289.29 0854.49
2009/04/23 12:41:29.3      21   -538     40    539    541 177.7   4.3  34142  289.26 0854.49
2009/04/23 12:41:29.4       1   -563    100    564    573 179.9  10.1  34138  289.20 0854.49
2009/04/23 12:41:29.5      71   -434     21    440    441 170.7   2.8  34142  289.27 0854.49
2009/04/23 12:41:29.6     189   -368     80    414    422 152.8  11.0  34140  289.24 0854.49
2009/04/23 12:41:29.7     159   -397    166    428    459 158.1  22.3  34140  289.24 0854.49
2009/04/23 12:41:29.8     302   -462     16    553    554 146.8   1.7  34138  289.21 0854.49
2009/04/23 12:41:29.9     296   -481    103    565    575 148.4  10.3  34146  289.32 0854.49
2009/04/23 12:41:30.0     240   -376     53    447    451 147.5   6.9  34144  289.29 0854.49
2009/04/23 12:41:30.1     349   -327    -23    479    480 133.2  -2.8  34136  289.18 0854.49
2009/04/23 12:41:30.2     368   -347     27    506    507 133.3   3.1  34142  289.25 0854.49
2009/04/23 12:41:30.3     264   -402    126    482    499 146.7  14.7  34146  289.32 0854.49
2009/04/23 12:41:30.4     162   -395    195    427    469 157.7  26.2  34138  289.21 0854.49
2009/04/23 12:41:30.5     183   -329    152    377    406 150.9  23.1  34148  289.37 0854.49
2009/04/23 12:41:30.6     157   -420    202    449    492 159.4  25.9  34156  289.50 0854.49
2009/04/23 12:41:30.7     190   -402    214    445    493 154.7  27.4  34150  289.39 0854.49
2009/04/23 12:41:30.8     162   -384    136    417    439 157.1  18.1  34144  289.29 0854.49
2009/04/23 12:41:30.9     160   -304     89    344    356 152.3  14.5  34144  289.30 0854.49
2009/04/23 12:41:31.0     220   -247     80    332    342 138.3  13.6  34146  289.32 0854.49
2009/04/23 12:41:31.1      86   -312    116    324    344 164.6  20.4  34146  289.33 0854.53
2009/04/23 12:41:31.2     102   -318    121    334    356 162.2  19.9  34140  289.23 0854.53
2009/04/23 12:41:31.3      14   -233    201    234    308 176.4  44.9  34148  289.37 0854.53
2009/04/23 12:41:31.4      43   -273    109    277    297 170.9  23.0  34144  289.31 0854.53
2009/04/23 12:41:31.5     103   -256     89    276    291 158.1  17.9  34142  289.27 0854.53
2009/04/23 12:41:31.6      93   -256     63    273    281 159.9  13.1  34144  289.29 0854.53
2009/04/23 12:41:31.7       5   -142     71    143    159 177.8  28.5  34142  289.26 0854.53
2009/04/23 12:41:31.8     -93    -71     47    118    127 232.7  22.5  34144  289.31 0854.53
2009/04/23 12:41:31.9     -26    -56     55     62     82 205.4  46.4  34144  289.31 0854.53
2009/04/23 12:41:32.0      -6    -91     49     92    104 184.0  30.8  34144  289.31 0854.53
2009/04/23 12:41:32.1     -59    -77     73     98    122 217.4  40.7  34146  289.33 0854.53
2009/04/23 12:41:32.2    -136     44     40    144    150 288.2  15.8  34144  289.31 0854.53
2009/04/23 12:41:32.3    -153    -51    -56    162    171 251.4 -23.8  34146  289.33 0854.53
2009/04/23 12:41:32.4     -73   -183    -93    198    218 201.8 -31.5  34146  289.35 0854.53
2009/04/23 12:41:32.5     -56   -110    -41    124    130 207.2 -23.8  34142  289.26 0854.53
2009/04/23 12:41:32.6    -106      3     -4    107    108 271.7  -2.2  34150  289.40 0854.53
2009/04/23 12:41:32.7    -163    -70    -54    178    186 246.7 -21.7  34148  289.38 0854.53
2009/04/23 12:41:32.8    -157     15    -23    158    160 275.7  -8.6  34146  289.33 0854.53
2009/04/23 12:41:32.9    -140    -38    -10    146    147 254.9  -4.1  34148  289.36 0854.53
2009/04/23 12:41:33.0     -76    -71    -28    105    109 226.8 -15.4  34148  289.38 0854.53
2009/04/23 12:41:33.1     -98   -167     55    194    202 210.5  16.0  34148  289.38 0854.59
2009/04/23 12:41:33.3    -137   -124     95    186    208 227.8  29.2  34150  289.41 0854.59
2009/04/23 12:41:33.3    -197    -81    118    214    244 247.6  31.3  34156  289.49 0854.59
2009/04/23 12:41:33.4    -200   -212    168    292    336 223.4  32.6  34144  289.29 0854.59
2009/04/23 12:41:33.5    -152    -59    169    164    235 248.7  50.9  34150  289.41 0854.59
2009/04/23 12:41:33.6    -247     45    144    252    290 280.4  32.4  34152  289.42 0854.59
2009/04/23 12:41:33.7    -227      3     52    228    234 270.8  12.9  34146  289.35 0854.59
2009/04/23 12:41:33.8    -222    157     81    273    285 305.3  16.6  34150  289.39 0854.59
2009/04/23 12:41:33.9    -250    109    109    273    293 293.6  23.0  34148  289.37 0854.59
2009/04/23 12:41:34.0    -202    139     95    246    263 304.6  22.0  34150  289.39 0854.59
2009/04/23 12:41:34.1    -239    131     20    273    274 298.9   4.4  34148  289.36 0854.59
2009/04/23 12:41:34.2    -165    -17     32    166    170 263.9  11.0  34152  289.45 0854.59
2009/04/23 12:41:34.3    -125     25     14    128    129 281.4   6.5  34146  289.33 0854.59
2009/04/23 12:41:34.4    -139     88     47    165    172 302.4  16.0  34150  289.40 0854.59
2009/04/23 12:41:34.5     -96    112     36    148    153 319.5  13.9  34150  289.41 0854.59
2009/04/23 12:41:34.6      26    162    -48    165    172   9.3 -16.4  34150  289.40 0854.59
2009/04/23 12:41:34.7      77    140     10    160    161  28.9   3.6  34150  289.41 0854.59
2009/04/23 12:41:34.8     135     41     80    142    162  73.2  32.1  34152  289.43 0854.59
2009/04/23 12:41:34.9      99      7    132    100    165  85.6  59.2  34154  289.48 0854.59
2009/04/23 12:41:35.0      67    -74    125    101    160 137.7  56.9  34154  289.46 0854.59
2009/04/23 12:41:35.1      34    -21    110     41    117 122.4  79.2  34156  289.50 0854.65
2009/04/23 12:41:35.2       9      3    112     10    112  68.3  90.0  34158  289.55 0854.65
2009/04/23 12:41:35.3      -1    -70    128     71    146 180.9  68.8  34150  289.40 0854.65
2009/04/23 12:41:35.4      38     16    109     42    116  67.4  78.6  34152  289.43 0854.65
2009/04/23 12:41:35.5      31   -129     65    133    148 166.2  27.3  34146  289.35 0854.65
2009/04/23 12:41:35.6      82   -139     18    162    164 149.3   6.5  34144  289.31 0854.65
2009/04/23 12:41:35.7      -3   -141    -18    142    144 181.4  -7.2  34148  289.36 0854.65
2009/04/23 12:41:35.8       1   -123    -44    124    132 179.1 -19.7  34148  289.38 0854.65
2009/04/23 12:41:36.0      46   -144     91    152    177 162.2  33.7  34150  289.40 0854.65
2009/04/23 12:41:36.1      60   -238    108    246    268 165.8  25.3  34148  289.36 0854.65
2009/04/23 12:41:36.2      78   -131    189    153    243 149.3  57.1  34146  289.33 0854.65
2009/04/23 12:41:36.3      46   -250    187    255    316 169.5  39.9  34146  289.34 0854.65
2009/04/23 12:41:36.4      -4   -239    209    240    318 181.0  45.5  34150  289.39 0854.65
2009/04/23 12:41:36.5      90    -48    218    103    241 118.0  73.1  34144  289.30 0854.65
2009/04/23 12:41:36.6     123    -13    181    124    219  96.1  62.6  34148  289.36 0854.65
2009/04/23 12:41:36.7      17   -121    126    123    176 171.9  50.7  34152  289.45 0854.65
2009/04/23 12:41:36.8     103   -175    140    204    247 149.5  37.6  34150  289.41 0854.65
2009/04/23 12:41:36.9      60    -94    201    112    230 147.4  68.8  34154  289.48 0854.65
2009/04/23 12:41:37.0      48    -58    155     76    172 140.4  72.4  34154  289.48 0854.65
2009/04/23 12:41:37.1     -62   -396     76    401    409 189.0  10.8  34144  289.29 0854.65
2009/04/23 12:41:37.2      31   -391    124    393    413 175.4  17.5  34142  289.27 0854.65
2009/04/23 12:41:37.3      50   -356    157    360    392 171.9  25.1  34144  289.30 0854.65
2009/04/23 12:41:37.4      59   -424    217    429    480 172.0  28.8  34148  289.36 0854.65
2009/04/23 12:41:37.5      94   -377    250    389    462 165.9  35.6  34148  289.36 0854.65
2009/04/23 12:41:37.6     146   -415    250    441    506 160.6  32.1  34150  289.40 0854.65
2009/04/23 12:41:37.7     116   -381    213    399    452 163.0  30.3  34148  289.36 0854.65
2009/04/23 12:41:37.8     108   -436    131    450    469 166.0  16.3  34146  289.33 0854.65
2009/04/23 12:41:37.9      91   -418     27    429    430 167.6   3.7  34144  289.29 0854.65
2009/04/23 12:41:38.0      66   -405     88    411    421 170.7  12.1  34144  289.29 0854.65
2009/04/23 12:41:38.1      87   -377     76    387    395 167.0  11.1  34146  289.35 0854.65
2009/04/23 12:41:38.2      80   -413     58    421    425 169.0   7.9  34144  289.31 0854.66
2009/04/23 12:41:38.3      75   -404    144    411    435 169.4  20.0  34146  289.33 0854.66
2009/04/23 12:41:38.4      19   -432    134    433    454 177.4  17.3  34144  289.31 0854.66
2009/04/23 12:41:38.5      32   -395    173    397    433 175.3  25.1  34144  289.29 0854.66
2009/04/23 12:41:38.6      60   -378    146    383    409 170.9  22.0  34144  289.30 0854.66
2009/04/23 12:41:38.7     -20   -363    136    364    388 183.2  21.4  34144  289.30 0854.66
2009/04/23 12:41:38.8     -42   -448    147    451    475 185.4  18.0  34146  289.35 0854.66
2009/04/23 12:41:38.9     -39   -372    197    375    423 186.0  30.1  34148  289.38 0854.66
2009/04/23 12:41:39.0      12   -279    236    280    366 177.4  44.4  34146  289.35 0854.66
2009/04/23 12:41:39.1     117   -332    245    353    429 160.6  38.0  34146  289.34 0854.66
2009/04/23 12:41:39.2     120   -373    282    393    483 162.1  39.2  34148  289.36 0854.66
2009/04/23 12:41:39.3     187   -357    241    404    470 152.3  33.6  34144  289.31 0854.66
2009/04/23 12:41:39.4     269   -427    107    505    517 147.8  12.0  34144  289.30 0854.66
2009/04/23 12:41:39.5     195   -420    109    464    477 155.1  13.3  34142  289.27 0854.66
2009/04/23 12:41:39.6     128   -358    188    381    424 160.3  28.1  34142  289.27 0854.66
2009/04/23 12:41:39.7      28   -357    272    359    450 175.4  40.9  34150  289.39 0854.66
2009/04/23 12:41:39.8     -49   -403    237    407    470 187.0  32.9  34148  289.36 0854.66
2009/04/23 12:41:39.9    -122   -291    186    316    366 202.7  33.4  34146  289.32 0854.66
2009/04/23 12:41:40.0     -87   -229    140    246    283 200.9  32.4  34148  289.37 0854.66
2009/04/23 12:41:40.1     -78   -217    -16    231    232 200.0  -4.1  34144  289.31 0854.71
2009/04/23 12:41:40.2     -36   -201    -70    205    216 190.2 -23.6  34146  289.35 0854.71
2009/04/23 12:41:40.3      70   -223    -55    234    241 162.6 -13.4  34150  289.39 0854.71
2009/04/23 12:41:40.4       8   -179    -50    180    187 177.3 -15.5  34144  289.30 0854.71
2009/04/23 12:41:40.5       0   -170    -52    171    178 179.8 -21.7  34148  289.36 0854.71
2009/04/23 12:41:40.6     -22   -238    -26    240    242 185.3  -6.2  34148  289.37 0854.71
2009/04/23 12:41:40.7     111   -329     37    348    351 161.3   6.1  34146  289.32 0854.71
2009/04/23 12:41:40.8     151   -352     40    384    387 156.8   6.1  34146  289.32 0854.71
2009/04/23 12:41:40.9     116   -414     78    431    439 164.3  10.3  34144  289.29 0854.71
2009/04/23 12:41:41.0      60   -408    123    413    431 171.5  16.6  34140  289.24 0854.71
2009/04/23 12:41:41.1     209   -423     77    472    479 153.7   9.3  34142  289.25 0854.71
2009/04/23 12:41:41.2     128   -381    165    403    435 161.4  23.6  34132  289.11 0854.71
2009/04/23 12:41:41.3     145   -399    216    425    476 160.0  29.1  34132  289.11 0854.71
2009/04/23 12:41:41.4     102   -308    225    325    395 161.7  38.0  34136  289.16 0854.71
2009/04/23 12:41:41.5      27   -351    167    353    390 175.5  27.1  34142  289.25 0854.71
2009/04/23 12:41:41.6       0   -381    265    382    464 180.0  38.0  34144  289.31 0854.71
2009/04/23 12:41:41.7     144   -269    178    306    354 151.9  32.9  34142  289.26 0854.71
2009/04/23 12:41:41.8     181   -181     95    256    273 135.0  21.0  34144  289.29 0854.71
2009/04/23 12:41:41.9     247   -201    110    319    338 129.1  19.1  34146  289.32 0854.71
2009/04/23 12:41:42.0     325   -167     88    366    377 117.2  13.5  34146  289.32 0854.71
2009/04/23 12:41:42.1     280   -248    172    375    412 131.6  26.3  34140  289.23 0854.73
2009/04/23 12:41:42.2     119   -309    213    332    394 158.8  35.6  34146  289.32 0854.73
2009/04/23 12:41:42.3     123   -287    158    313    350 156.8  28.7  34144  289.30 0854.73
2009/04/23 12:41:42.4     181   -316    102    365    380 150.3  15.7  34144  289.30 0854.73
2009/04/23 12:41:42.5     174   -350    141    392    417 153.5  19.9  34142  289.27 0854.73
2009/04/23 12:41:42.6     121   -344     52    365    369 160.5   8.2  34140  289.23 0854.73
2009/04/23 12:41:42.7     115   -364    158    382    413 162.4  23.7  34136  289.17 0854.73
2009/04/23 12:41:42.8     157   -358    136    392    416 156.3  19.2  34140  289.22 0854.73
2009/04/23 12:41:42.9      43   -366     49    369    373 173.3   7.6  34136  289.18 0854.73
2009/04/23 12:41:43.0    -140   -377     21    403    404 200.4   3.0  34142  289.27 0854.73
2009/04/23 12:41:43.1     -75   -305     37    315    318 193.8   6.8  34138  289.19 0854.73
2009/04/23 12:41:43.2     -27   -359     27    360    361 184.4   4.3  34136  289.16 0854.73
2009/04/23 12:41:43.3      25   -352     42    353    356 175.9   6.8  34136  289.15 0854.73
2009/04/23 12:41:43.4      89   -347    -33    359    361 165.5  -5.4  34134  289.13 0854.73
2009/04/23 12:41:43.5     -22   -401    -96    402    414 183.2 -13.4  34134  289.12 0854.73
2009/04/23 12:41:43.6      54   -316    -78    321    331 170.3 -13.8  34136  289.17 0854.73
2009/04/23 12:41:43.7     -13   -306    -98    307    322 182.6 -22.9  34136  289.17 0854.73
2009/04/23 12:41:43.8      23   -365     41    366    369 176.4   6.5  34132  289.11 0854.73
2009/04/23 12:41:43.9      65   -222    -63    232    241 163.5 -15.2  34132  289.09 0854.73
2009/04/23 12:41:44.0      21   -241    -19    242    243 174.9  -4.6  34130  289.07 0854.73
2009/04/23 12:41:44.1      20   -191    -45    193    199 174.0 -13.2  34134  289.14 0854.74
2009/04/23 12:41:44.2      -1   -106     12    107    108 180.9   6.5  34134  289.13 0854.74
2009/04/23 12:41:44.3      18   -104    -76    106    130 170.2 -43.9  34134  289.13 0854.74
2009/04/23 12:41:44.4    -109   -196    -26    225    227 209.0  -6.7  34128  289.02 0854.74
2009/04/23 12:41:44.5     -94   -131    -38    162    167 215.6 -13.2  34132  289.11 0854.74
2009/04/23 12:41:44.6    -126    -45    -98    135    166 250.1 -44.3  34132  289.11 0854.74
2009/04/23 12:41:44.7     -86    -38   -125     95    157 246.0 -63.1  34130  289.08 0854.74
2009/04/23 12:41:44.8    -166     -4    -40    167    172 268.3 -13.7  34132  289.09 0854.74
2009/04/23 12:41:44.9     -99    104    -69    144    159 316.3 -31.8  34134  289.14 0854.74
2009/04/23 12:41:45.0    -125    134    -41    184    189 316.8 -12.6  34134  289.14 0854.74
2009/04/23 12:41:45.1    -141    148     52    205    212 316.3  14.3  34140  289.23 0854.74
2009/04/23 12:41:45.2     -79    240     -1    253    254 341.7  -0.3  34138  289.20 0854.74
2009/04/23 12:41:45.3      18    289      9    290    291   3.6   1.8  34138  289.19 0854.74
2009/04/23 12:41:45.4      81    225     32    240    243  19.8   7.8  34134  289.14 0854.74
2009/04/23 12:41:45.5      92    251     93    268    284  20.3  19.2  34126  288.98 0854.74
2009/04/23 12:41:45.6      96    174    159    199    254  28.9  42.8  34124  288.97 0854.74
2009/04/23 12:41:45.7     -10      9     98     14     99 313.3  90.0  34130  289.06 0854.74
2009/04/23 12:41:45.8      23     11     57     26     62  62.9  74.0  34132  289.11 0854.74
2009/04/23 12:41:45.9     107     25     56    110    123  76.7  29.3  34128  289.04 0854.74
2009/04/23 12:41:46.0     131     -6     90    132    159  93.0  37.8  34128  289.04 0854.74
2009/04/23 12:41:46.1     146     20    127    148    195  82.1  44.8  34126  289.01 0854.76
2009/04/23 12:41:46.2     -67    208    184    219    286 342.0  44.1  34128  289.03 0854.76
2009/04/23 12:41:46.3     -56    161    208    171    269 340.6  56.4  34134  289.12 0854.76
2009/04/23 12:41:46.4     -76    135    223    156    272 330.6  61.8  34128  289.03 0854.76
2009/04/23 12:41:46.5     -22     78    214     82    229 344.4  78.2  34138  289.19 0854.76
2009/04/23 12:41:46.6    -203    -13     79    204    218 266.1  22.3  34132  289.09 0854.76
2009/04/23 12:41:46.7     -12    109    151    110    186 353.3  60.5  34134  289.13 0854.76
2009/04/23 12:41:46.8     -19    -23     62     30     68 219.6  72.9  34134  289.14 0854.76
2009/04/23 12:41:46.9     -27     84     12     89     90 342.2   8.0  34130  289.06 0854.76
2009/04/23 12:41:47.0      24     60     75     65     99  21.8  54.8  34132  289.09 0854.76
2009/04/23 12:41:47.1      -4    106     -4    107    108 357.8  -2.2  34132  289.11 0854.76
2009/04/23 12:41:47.2      92     51    -45    106    115  61.1 -28.5  34132  289.11 0854.76
2009/04/23 12:41:47.3     168    -15      0    169    170  95.2   0.0  34136  289.16 0854.76
2009/04/23 12:41:47.4     234    -54    -17    241    242 103.2  -4.1  34130  289.07 0854.76
2009/04/23 12:41:47.5     319    -18    -19    320    321  93.3  -3.5  34126  288.98 0854.76
2009/04/23 12:41:47.6     468     19     14    469    470  87.7   1.8  34130  289.06 0854.76
2009/04/23 12:41:47.7     406     -4    -98    407    419  90.6 -13.6  34132  289.09 0854.76
2009/04/23 12:41:47.8     460   -183    -81    496    503 111.7  -9.3  34130  289.08 0854.76
2009/04/23 12:41:47.9     324     77    186    334    382  76.6  31.4  34172  289.76 0854.76
2009/04/23 12:41:48.0     393     19    215    394    448  87.1  31.3  34158  289.55 0854.76
2009/04/23 12:41:48.1     364     38    236    367    436  83.9  35.6  34168  289.72 0854.80
2009/04/23 12:41:48.2     378    -49    -26    382    383  97.5  -3.9  34136  289.16 0854.80
2009/04/23 12:41:48.3     297    -59    -38    303    306 101.4  -7.3  34130  289.05 0854.80
2009/04/23 12:41:48.4     316     89    138    329    356  74.2  24.1  34156  289.52 0854.80
2009/04/23 12:41:48.5     279    -64    -11    287    288 103.0  -2.2  34148  289.37 0854.80
2009/04/23 12:41:48.6     219    -58    -29    227    229 105.1  -7.3  34142  289.26 0854.80
2009/04/23 12:41:48.7     335     86   -109    346    363  75.6 -17.5  34160  289.57 0854.80
2009/04/23 12:41:48.8     386    111   -114    402    419  73.9 -15.9  34160  289.56 0854.80
2009/04/23 12:41:48.9     381    -33    -32    383    385  95.1  -4.9  34142  289.28 0854.80
2009/04/23 12:41:49.0     211   -239     13    320    321 138.6   2.3  34132  289.10 0854.80
2009/04/23 12:41:49.1     221   -278     -1    356    357 141.5  -0.3  34134  289.13 0854.80
2009/04/23 12:41:49.2     206   -259     10    332    333 141.5   1.9  34132  289.11 0854.80
2009/04/23 12:41:49.3     141   -327    -34    357    359 156.6  -5.5  34130  289.06 0854.80
2009/04/23 12:41:49.4     154   -327     50    362    366 154.7   8.0  34128  289.04 0854.80
2009/04/23 12:41:49.5     175   -314      9    360    361 150.9   1.5  34134  289.13 0854.80
2009/04/23 12:41:49.6     245   -385    -61    457    462 147.5  -7.7  34136  289.17 0854.80
2009/04/23 12:41:49.7     179   -434     78    470    477 157.6   9.5  34138  289.20 0854.80
2009/04/23 12:41:49.8     192   -453     56    493    497 157.0   6.6  34140  289.23 0854.80
2009/04/23 12:41:49.9      94   -432    122    443    460 167.6  15.4  34134  289.12 0854.80
2009/04/23 12:41:50.0     166   -503    223    530    575 161.7  24.2  34132  289.11 0854.80
2009/04/23 12:41:50.1     195   -499    125    536    551 158.6  13.1  34132  289.11 0854.76
2009/04/23 12:41:50.2     208   -485     87    528    536 156.8   9.4  34126  289.01 0854.76
2009/04/23 12:41:50.3     213   -539     97    580    589 158.4   9.5  34130  289.05 0854.76
2009/04/23 12:41:50.4     172   -474    122    505    520 160.0  13.7  34128  289.03 0854.76
2009/04/23 12:41:50.5     129   -495    154    512    535 165.3  16.8  34128  289.04 0854.76
2009/04/23 12:41:50.6      84   -449    183    457    492 169.3  23.0  34130  289.06 0854.76
2009/04/23 12:41:50.7      42   -358    202    361    413 173.3  31.6  34134  289.13 0854.76
2009/04/23 12:41:50.8      71   -351    143    359    386 168.5  23.0  34132  289.10 0854.76
2009/04/23 12:41:50.9     102   -351     99    366    380 163.7  15.2  34132  289.10 0854.76
2009/04/23 12:41:51.0     147   -441     26    466    467 161.5   3.3  34130  289.06 0854.76
2009/04/23 12:41:51.1      34   -439     77    441    448 175.5  10.0  34130  289.07 0854.76
2009/04/23 12:41:51.2      52   -439     25    443    444 173.1   3.2  34134  289.14 0854.76
2009/04/23 12:41:51.3      58   -394     86    399    409 171.5  12.3  34130  289.05 0854.76
2009/04/23 12:41:51.4     145   -344     19    374    375 157.1   2.9  34132  289.10 0854.76
2009/04/23 12:41:51.5     125   -329    -19    353    354 159.2  -3.2  34128  289.04 0854.76
2009/04/23 12:41:51.6      97   -319     26    334    336 163.0   4.6  34132  289.11 0854.76
2009/04/23 12:41:51.7     146   -326    -10    358    359 155.8  -1.7  34132  289.10 0854.76
2009/04/23 12:41:51.8      92   -259    -30    276    278 160.4  -6.2  34136  289.17 0854.76
2009/04/23 12:41:51.9      38   -274     53    277    283 172.0  11.0  34134  289.12 0854.76
2009/04/23 12:41:52.0     -25   -219    -70    221    232 186.7 -17.6  34134  289.13 0854.76
2009/04/23 12:41:52.1     137   -174    -88    222    238 141.7 -27.2  34132  289.10 0854.73
2009/04/23 12:41:52.2     139   -149      2    205    206 137.0   0.8  34134  289.13 0854.73
2009/04/23 12:41:52.3     106   -254     79    276    288 157.3  16.0  34132  289.10 0854.73
2009/04/23 12:41:52.4       0   -287     78    288    299 179.9  15.2  34132  289.10 0854.73
2009/04/23 12:41:52.5      -5   -290     35    291    294 181.1   6.9  34132  289.09 0854.73
2009/04/23 12:41:52.6      11   -243    -26    244    246 177.3  -6.1  34132  289.09 0854.73
2009/04/23 12:41:52.7      10   -277     -6    278    279 177.8  -1.3  34132  289.10 0854.73
2009/04/23 12:41:52.8       0   -284    -27    285    287 180.0  -5.6  34134  289.14 0854.73
2009/04/23 12:41:52.9     -42   -384     -1    387    388 186.3  -0.2  34134  289.13 0854.73
2009/04/23 12:41:53.0       5   -387     -2    388    389 179.2  -0.4  34132  289.10 0854.73
2009/04/23 12:41:53.1     -30   -283    105    285    303 186.2  21.0  34130  289.05 0854.73
2009/04/23 12:41:53.2     112   -392    142    408    433 164.0  19.2  34132  289.11 0854.73
2009/04/23 12:41:53.3     290   -366     58    468    472 141.6   7.1  34136  289.18 0854.73
2009/04/23 12:41:53.4     317   -530    -12    618    619 149.1  -1.2  34136  289.18 0854.73
2009/04/23 12:41:53.5     359   -578   -112    681    691 148.1  -9.3  34134  289.12 0854.73
2009/04/23 12:41:53.6     386   -684   -140    786    799 150.6 -10.1  34134  289.12 0854.73
2009/04/23 12:41:53.7      89   -543    -35    551    553 170.7  -3.7  34130  289.06 0854.73
2009/04/23 12:41:53.8      18   -593    -23    594    595 178.2  -2.2  34132  289.10 0854.73
2009/04/23 12:41:53.9      75   -657    -85    662    668 173.4  -7.4  34132  289.09 0854.73
2009/04/23 12:41:54.0     135   -660   -136    674    688 168.4 -11.5  34128  289.04 0854.73
2009/04/23 12:41:54.1     124   -506    -34    522    524 166.2  -3.7  34134  289.13 0854.74
2009/04/23 12:41:54.2     223   -443    140    497    517 153.3  15.8  34138  289.20 0854.74
2009/04/23 12:41:54.3     272   -499    155    569    590 151.4  15.3  34140  289.22 0854.74
2009/04/23 12:41:54.4      69   -446    189    452    489 171.1  24.1  34134  289.12 0854.74
2009/04/23 12:41:54.5    -136   -584    107    600    610 193.1  10.1  34134  289.14 0854.74
2009/04/23 12:41:54.6    -202   -503    134    543    560 201.9  13.9  34130  289.07 0854.74
2009/04/23 12:41:54.7    -120   -420    -23    437    438 196.0  -3.1  34144  289.29 0854.74
2009/04/23 12:41:54.8     -42   -486     28    488    489 185.0   3.3  34136  289.18 0854.74
2009/04/23 12:41:54.9       0   -407    -52    408    412 179.9  -7.3  34138  289.19 0854.74
2009/04/23 12:41:55.0       5   -343   -103    344    360 179.1 -16.7  34138  289.20 0854.74
2009/04/23 12:41:55.1      -4   -229    -70    230    241 181.1 -17.0  34136  289.15 0854.74
2009/04/23 12:41:55.2      23   -186   -107    188    216 172.9 -36.3  34136  289.18 0854.74
2009/04/23 12:41:55.3     -13   -207    -74    208    220 183.6 -24.6  34138  289.21 0854.74
2009/04/23 12:41:55.4       8   -191    -92    192    212 177.5 -31.7  34140  289.24 0854.74
2009/04/23 12:41:55.5      69   -146   -132    162    208 154.6 -48.1  34140  289.23 0854.74
2009/04/23 12:41:55.6     109   -260   -133    283    312 157.2 -31.5  34140  289.24 0854.74
2009/04/23 12:41:55.7     104   -260   -123    281    306 158.1 -29.6  34136  289.17 0854.74
2009/04/23 12:41:55.8     108   -310    -16    329    330 160.7  -2.8  34134  289.13 0854.74
2009/04/23 12:41:55.9      17   -300   -106    301    319 176.6 -24.5  34142  289.25 0854.74
2009/04/23 12:41:56.0      71   -455   -123    461    478 171.1 -15.0  34140  289.22 0854.74
2009/04/23 12:41:56.1      78   -384   -128    393    414 168.4 -18.1  34138  289.21 0854.73
2009/04/23 12:41:56.2     106   -375   -116    390    408 164.1 -16.6  34140  289.23 0854.73
2009/04/23 12:41:56.3     141   -392   -117    417    434 160.2 -15.7  34138  289.21 0854.73
2009/04/23 12:41:56.4     138   -366   -132    392    414 159.3 -18.7  34144  289.29 0854.73
2009/04/23 12:41:56.5    -193   -348   -116    398    414 209.0 -21.0  34140  289.22 0854.73
2009/04/23 12:41:56.6    -121   -507   -186    522    555 193.4 -19.7  34138  289.21 0854.73
2009/04/23 12:41:56.7     -69   -404   -154    410    437 189.7 -25.9  34138  289.19 0854.73
2009/04/23 12:41:56.8     -30   -359   -137    361    386 184.9 -26.2  34140  289.23 0854.73
2009/04/23 12:41:56.9      56   -333   -170    338    378 170.3 -33.1  34142  289.25 0854.73
2009/04/23 12:41:57.0      14   -373   -125    374    394 177.8 -23.6  34140  289.23 0854.73
2009/04/23 12:41:57.1      55   -327   -157    332    367 170.4 -31.5  34142  289.28 0854.70
2009/04/23 12:41:57.2       6   -434   -138    435    457 179.1 -17.6  34144  289.29 0854.70
2009/04/23 12:41:57.3      11   -446   -146    447    471 178.5 -18.1  34140  289.24 0854.70
2009/04/23 12:41:57.4       1   -476    -91    477    486 179.8 -10.9  34140  289.23 0854.70
2009/04/23 12:41:57.5      60   -432   -101    437    449 172.1 -13.1  34140  289.22 0854.70
2009/04/23 12:41:57.6      27   -408    -91    409    420 176.1 -12.6  34142  289.26 0854.70
2009/04/23 12:41:57.7      57   -332    -34    338    340 170.2  -5.9  34126  288.99 0854.70
2009/04/23 12:41:57.8      45   -320     50    324    328 171.9   8.8  34136  289.17 0854.70
2009/04/23 12:41:57.9      29   -378    -88    380    391 175.5 -13.1  34142  289.25 0854.70
2009/04/23 12:41:58.0     118   -381    -35    400    402 162.7  -5.1  34138  289.21 0854.70
2009/04/23 12:41:58.1      16   -370    -44    371    374 177.4  -6.8  34142  289.28 0854.70
2009/04/23 12:41:58.2     -46   -410    -44    413    416 186.5  -6.1  34142  289.26 0854.70
2009/04/23 12:41:58.3      18   -396    -43    397    400 177.3  -6.2  34142  289.25 0854.70
2009/04/23 12:41:58.4      -1   -189   -113    190    221 180.5 -37.9  34142  289.28 0854.70
2009/04/23 12:41:58.5     -27   -222    -48    224    230 187.1 -12.2  34140  289.24 0854.70
2009/04/23 12:41:58.6     -65    -31    -95     73    119 244.7 -62.9  34142  289.28 0854.70
2009/04/23 12:41:58.7     -28    -49    -44     57     72 209.9 -47.1  34144  289.30 0854.70
2009/04/23 12:41:58.8      48   -227    -86    233    248 168.0 -25.4  34146  289.32 0854.70
2009/04/23 12:41:58.9      41   -204   -117    209    239 168.4 -36.0  34146  289.33 0854.70
2009/04/23 12:41:59.0      50   -257   -153    262    303 168.9 -37.5  34144  289.29 0854.70
2009/04/23 12:41:59.1     -15   -215    -65    216    226 184.2 -17.0  34146  289.33 0854.74
2009/04/23 12:41:59.2      82   -250   -107    264    284 161.7 -27.5  34144  289.29 0854.74
2009/04/23 12:41:59.3      92   -253    -91    270    286 160.0 -18.7  34144  289.29 0854.74
2009/04/23 12:41:59.4     101   -290   -101    308    324 160.8 -23.5  34148  289.37 0854.74
2009/04/23 12:41:59.5     149   -298   -103    334    349 153.5 -22.3  34142  289.26 0854.74
2009/04/23 12:41:59.6     112   -274    -94    297    312 157.7 -17.6  34146  289.32 0854.74
2009/04/23 12:41:59.7     107   -338    -98    355    369 162.4 -15.4  34142  289.26 0854.74
2009/04/23 12:41:59.8      97   -304   -101    320    336 162.3 -17.5  34142  289.26 0854.74
2009/04/23 12:41:59.9      85   -296    -40    308    311 164.0  -7.5  34136  289.17 0854.74
2009/04/23 12:42:00.0     114   -353    -11    371    372 162.1  -1.7  34142  289.28 0854.74
2009/04/23 12:42:00.1     235   -382    -57    449    453 148.4  -7.3  34138  289.19 0854.74
2009/04/23 12:42:00.2     260   -357     62    442    447 143.9   8.0  34142  289.27 0854.74
2009/04/23 12:42:00.3     228   -350      5    418    419 146.9   0.8  34140  289.22 0854.74
2009/04/23 12:42:00.4     276   -446    -16    525    526 148.3  -1.8  34142  289.26 0854.74
2009/04/23 12:42:00.5     120   -366    120    386    405 161.9  17.3  34142  289.26 0854.74
2009/04/23 12:42:00.6      54   -428    100    432    444 172.8  13.1  34142  289.26 0854.74
2009/04/23 12:42:00.7      74   -406     12    413    414 169.7   1.8  34144  289.31 0854.74
2009/04/23 12:42:00.8      50   -372     -7    376    377 172.3  -1.2  34136  289.18 0854.74
2009/04/23 12:42:00.9     106   -313    114    331    351 161.3  19.1  34140  289.23 0854.74
2009/04/23 12:42:01.0     201   -407     56    454    458 153.7   7.1  34138  289.21 0854.74
2009/04/23 12:42:01.1     229   -453     15    508    509 153.2   1.7  34136  289.17 0854.72
2009/04/23 12:42:01.2      15   -497    123    498    513 178.2  13.9  34140  289.22 0854.72
2009/04/23 12:42:01.3      25   -558    161    559    582 177.4  16.1  34140  289.22 0854.72
2009/04/23 12:42:01.4      50   -540     91    543    551 174.7   9.6  34140  289.23 0854.72
2009/04/23 12:42:01.6    -125   -367     88    388    398 198.8  12.8  34140  289.23 0854.72
2009/04/23 12:42:01.6     -59   -277     22    284    285 192.0   4.6  34144  289.29 0854.72
2009/04/23 12:42:01.7     -44   -333    -18    336    337 187.7  -3.2  34142  289.28 0854.72
2009/04/23 12:42:01.9    -115   -464      1    479    480 194.0   0.2  34138  289.20 0854.72
2009/04/23 12:42:01.9    -105   -452   -152    465    490 193.2 -18.1  34146  289.32 0854.72
2009/04/23 12:42:02.1       8   -508   -112    509    522 179.0 -12.5  34142  289.27 0854.72
2009/04/23 12:42:02.2      26   -641    -35    642    644 177.7  -3.1  34142  289.26 0854.72
2009/04/23 12:42:02.3     111   -529    -90    541    549 168.1  -9.5  34142  289.26 0854.72
2009/04/23 12:42:02.4      -2   -598    -23    599    600 180.3  -2.2  34140  289.24 0854.72
2009/04/23 12:42:02.5     -97   -501    -66    511    516 191.0  -7.4  34142  289.25 0854.72
2009/04/23 12:42:02.6    -113   -512     -2    525    526 192.5  -0.3  34140  289.24 0854.72
2009/04/23 12:42:02.7    -229   -501    -28    551    552 204.6  -3.0  34144  289.31 0854.72
2009/04/23 12:42:02.8    -345   -376   -124    511    526 222.6 -13.7  34144  289.29 0854.72
2009/04/23 12:42:02.9    -359   -337   -109    493    506 226.8 -12.5  34140  289.23 0854.72
2009/04/23 12:42:03.0    -364   -393      0    536    537 222.8   0.1  34142  289.28 0854.72
2009/04/23 12:42:03.1    -264   -495    286    562    630 208.1  29.1  34142  289.25 0854.72
2009/04/23 12:42:03.2    -206   -432    244    479    537 205.5  29.1  34146  289.33 0854.72
2009/04/23 12:42:03.3    -162   -344    180    381    421 205.2  27.1  34142  289.27 0854.72
2009/04/23 12:42:03.4    -204   -328     10    387    388 211.9   1.5  34146  289.33 0854.72
2009/04/23 12:42:03.5    -178   -473    -86    506    514 200.7  -9.7  34144  289.30 0854.72
2009/04/23 12:42:03.6    -241   -379    -57    450    454 212.5  -7.3  34142  289.27 0854.72
2009/04/23 12:42:03.7    -266   -585    -35    643    645 204.5  -3.2  34142  289.28 0854.72
2009/04/23 12:42:03.8    -319   -617    -24    695    696 207.4  -2.0  34132  289.10 0854.72
2009/04/23 12:42:03.9     -69   -586     61    591    595 186.8   5.9  34136  289.15 0854.72
2009/04/23 12:42:04.0    -148   -627    267    645    698 193.3  23.8  34140  289.24 0854.72
2009/04/23 12:42:04.1    -217   -654    243    690    732 198.4  19.4  34140  289.23 0854.72
2009/04/23 12:42:04.2    -390   -415     64    570    574 223.2   6.5  34142  289.27 0854.72
2009/04/23 12:42:04.3    -226   -346    247    414    482 213.1  33.6  34142  289.26 0854.72
2009/04/23 12:42:04.4     -72   -170    225    185    291 202.9  56.4  34138  289.20 0854.72
2009/04/23 12:42:04.5      30   -403    269    405    486 175.6  36.6  34142  289.27 0854.72
2009/04/23 12:42:04.6      29   -367    247    369    444 175.4  37.0  34138  289.19 0854.72
2009/04/23 12:42:04.7     -65   -436    187    441    479 188.5  24.5  34142  289.27 0854.72
2009/04/23 12:42:04.8     -91   -459     55    468    472 191.2   6.8  34144  289.30 0854.72
2009/04/23 12:42:04.9    -233   -481   -147    535    556 205.9 -15.4  34140  289.23 0854.72
2009/04/23 12:42:05.0    -319   -469   -156    568    590 214.2 -15.4  34136  289.17 0854.72
2009/04/23 12:42:05.1    -254   -444   -107    512    524 209.8 -11.9  34138  289.19 0854.72
2009/04/23 12:42:05.2    -217   -462    103    511    522 205.2  11.5  34126  289.01 0854.74
2009/04/23 12:42:05.3     -90   -687     82    693    698 187.5   6.8  34126  289.00 0854.74
2009/04/23 12:42:05.4     -73   -585    -17    590    591 187.2  -1.7  34136  289.15 0854.74
2009/04/23 12:42:05.5     -80   -395    -51    404    408 191.6  -7.3  34138  289.19 0854.74
2009/04/23 12:42:05.6    -160   -477     28    504    505 198.6   3.3  34130  289.08 0854.74
2009/04/23 12:42:05.7    -248   -365    -40    442    444 214.2  -5.2  34134  289.14 0854.74
2009/04/23 12:42:05.8    -405    -51     88    409    419 262.8  12.2  34140  289.24 0854.74
2009/04/23 12:42:05.9    -410   -279   -157    497    522 235.7 -17.6  34140  289.22 0854.74
2009/04/23 12:42:06.0    -302   -236   -223    384    444 232.0 -37.3  34136  289.16 0854.74
2009/04/23 12:42:06.1    -300   -290   -136    418    439 225.9 -23.2  34138  289.19 0854.74
2009/04/23 12:42:06.2    -272   -281   -198    392    439 224.0 -33.5  34140  289.22 0854.74
2009/04/23 12:42:06.3    -242   -305   -272    390    475 218.4 -42.8  34132  289.09 0854.74
2009/04/23 12:42:06.4    -261   -231   -117    349    368 228.5 -23.3  34138  289.21 0854.74
2009/04/23 12:42:06.5    -418   -139   -325    441    547 251.5 -44.5  34142  289.25 0854.74
2009/04/23 12:42:06.6    -188   -299   -173    354    394 212.1 -32.4  34138  289.20 0854.74
2009/04/23 12:42:06.7    -138   -238    -91    276    290 210.1 -23.8  34144  289.31 0854.74
2009/04/23 12:42:06.8    -353   -145    -28    382    383 247.6  -4.2  34142  289.25 0854.74
2009/04/23 12:42:06.9    -273    -89   -116    288    310 251.8 -27.5  34138  289.20 0854.74
2009/04/23 12:42:07.0    -241   -199   -207    313    375 230.5 -41.0  34138  289.20 0854.74
2009/04/23 12:42:07.1    -116   -163   -178    201    268 215.4 -50.6  34142  289.25 0854.73
2009/04/23 12:42:07.2    -352    -72    -77    360    369 258.3 -12.2  34152  289.42 0854.73
2009/04/23 12:42:07.3    -360   -153   -203    392    441 246.9 -33.7  34152  289.43 0854.73
2009/04/23 12:42:07.4    -321   -135   -296    349    457 247.2 -49.1  34148  289.38 0854.73
2009/04/23 12:42:07.5    -254   -324   -217    413    466 218.1 -34.4  34142  289.27 0854.73
2009/04/23 12:42:07.6    -131   -322    -70    348    355 202.2 -11.5  34138  289.20 0854.73
2009/04/23 12:42:07.7     -62   -315    -38    322    325 191.1  -6.9  34140  289.24 0854.73
2009/04/23 12:42:07.8     -69   -285     49    294    299 193.6   9.5  34144  289.29 0854.73
2009/04/23 12:42:07.9    -160   -288    -67    330    337 209.2 -11.6  34140  289.23 0854.73
2009/04/23 12:42:08.0    -156   -344     38    378    380 204.5   5.8  34140  289.23 0854.73
2009/04/23 12:42:08.1     -89   -371    -14    382    383 193.6  -2.2  34136  289.18 0854.73
2009/04/23 12:42:08.2     -68   -323      5    331    332 191.9   0.9  34142  289.26 0854.73
2009/04/23 12:42:08.3     -66   -293     34    301    303 192.7   6.5  34140  289.24 0854.73
2009/04/23 12:42:08.4    -150   -293    -12    330    331 207.1  -2.2  34142  289.26 0854.73
2009/04/23 12:42:08.5     -81   -324    -21    334    335 194.1  -3.7  34146  289.32 0854.73
2009/04/23 12:42:08.6    -128   -255     14    286    287 206.7   2.9  34140  289.22 0854.73
2009/04/23 12:42:08.7     -95   -221     56    241    248 203.4  13.2  34138  289.19 0854.73
2009/04/23 12:42:08.8      14   -313     16    314    315 177.4   3.0  34142  289.27 0854.73
2009/04/23 12:42:08.9     -47   -234    -40    239    243 191.6  -9.6  34142  289.27 0854.73
2009/04/23 12:42:09.0     -14   -139     -7    140    141 185.8  -3.1  34140  289.24 0854.73
2009/04/23 12:42:09.1      29   -201   -111    204    232 171.8 -35.7  34140  289.24 0854.74
2009/04/23 12:42:09.2     -69   -271     18    280    281 194.3   3.8  34142  289.25 0854.74
2009/04/23 12:42:09.3      -4   -272     -5    273    274 181.0  -1.2  34140  289.24 0854.74
2009/04/23 12:42:09.4      30   -236     37    238    242 172.7   9.0  34142  289.27 0854.74
2009/04/23 12:42:09.5      43   -231     41    236    240 169.3   9.9  34142  289.25 0854.74
2009/04/23 12:42:09.6     -79   -181    114    198    228 203.8  32.7  34142  289.26 0854.74
2009/04/23 12:42:09.7     -73   -237     87    249    264 197.2  19.4  34142  289.25 0854.74
2009/04/23 12:42:09.8     -12   -212     85    213    229 183.4  23.0  34142  289.28 0854.74
2009/04/23 12:42:09.9      -8   -103     71    104    125 184.9  37.6  34144  289.30 0854.74
2009/04/23 12:42:10.0     -89   -199    139    219    259 204.1  35.5  34140  289.24 0854.74
2009/04/23 12:42:10.1     -19   -246    137    247    282 184.5  31.4  34140  289.24 0854.74
2009/04/23 12:42:10.2    -118   -251    192    278    337 205.2  38.0  34142  289.27 0854.74
2009/04/23 12:42:10.3     -42     -1    179     43    184 268.3  86.7  34150  289.41 0854.74
2009/04/23 12:42:10.4       0     43    147     44    153   0.0  82.8  34150  289.41 0854.74
2009/04/23 12:42:10.5       1    -89    142     90    168 179.1  64.7  34144  289.31 0854.74
2009/04/23 12:42:10.6     -17    -47    167     50    174 200.0  82.8  34148  289.38 0854.74
2009/04/23 12:42:10.7      -2     -8     93      9     93 198.5  90.0  34154  289.46 0854.74
2009/04/23 12:42:10.8      43     68     68     81    105  32.5  44.3  34152  289.43 0854.74
2009/04/23 12:42:10.9      -7     60    168     61    178 352.9  79.5  34144  289.30 0854.74
2009/04/23 12:42:11.0      13     47    136     49    144  16.0  80.2  34162  289.60 0854.74
2009/04/23 12:42:11.1      54     15     94     57    109  74.1  65.7  34160  289.57 0854.73
2009/04/23 12:42:11.2      48     -3    110     49    120  94.3  74.9  34156  289.50 0854.73
2009/04/23 12:42:11.3     240    -58     82    247    261 103.7  18.4  34156  289.49 0854.73
2009/04/23 12:42:11.4     172   -146     77    226    239 130.4  18.9  34152  289.44 0854.73
2009/04/23 12:42:11.5     152     41    219    158    270  74.9  60.6  34174  289.81 0854.73
2009/04/23 12:42:11.6     126     13    153    127    198  83.9  56.3  34174  289.82 0854.73
2009/04/23 12:42:11.7      89     17     86     91    125  79.0  49.0  34162  289.60 0854.73
2009/04/23 12:42:11.8      63   -100    136    119    180 147.5  54.3  34164  289.63 0854.73
2009/04/23 12:42:11.9      87    -31    118     93    150 109.5  57.5  34156  289.52 0854.73
2009/04/23 12:42:12.0     -23     19    109     30    113 309.5  84.8  34156  289.52 0854.73
2009/04/23 12:42:12.1      49     12     74     51     89  75.8  62.6  34162  289.60 0854.73
2009/04/23 12:42:12.2      11      0     80     12     80  90.8  90.0  34162  289.60 0854.73
2009/04/23 12:42:12.3      58     33    107     67    126  60.2  64.7  34154  289.48 0854.73
2009/04/23 12:42:12.4     -20     76     93     79    122 344.9  54.8  34152  289.45 0854.73
2009/04/23 12:42:12.5     -37    105      5    112    113 340.4   2.9  34156  289.50 0854.73
2009/04/23 12:42:12.6      -1     40     61     41     73 357.4  63.6  34156  289.52 0854.73
2009/04/23 12:42:12.7     -66      8     51     67     84 277.0  41.2  34158  289.53 0854.73
2009/04/23 12:42:12.8     -71     10      4     72     73 278.0   3.8  34160  289.58 0854.73
2009/04/23 12:42:12.9     -89     39      4     98     99 294.0   2.8  34160  289.57 0854.73
2009/04/23 12:42:13.0       0     -3    -12      4     12 184.5 -85.4  34160  289.58 0854.73
2009/04/23 12:42:13.1      73     77     53    107    119  43.3  28.7  34154  289.48 0854.71
2009/04/23 12:42:13.2     -30    -41     90     51    103 216.1  68.8  34158  289.55 0854.71
2009/04/23 12:42:13.3     -44   -107    103    116    155 202.3  45.9  34160  289.58 0854.71
2009/04/23 12:42:13.4    -131   -123    193    180    263 226.9  52.1  34158  289.54 0854.71
2009/04/23 12:42:13.5     -45    -77    168     90    190 210.3  69.6  34150  289.41 0854.71
2009/04/23 12:42:13.6     -53   -209    173    216    276 194.3  42.8  34148  289.37 0854.71
2009/04/23 12:42:13.7      42    -50    103     66    122 140.4  64.6  34152  289.45 0854.71
2009/04/23 12:42:13.8      55    106    162    120    201  27.6  59.8  34162  289.60 0854.71
2009/04/23 12:42:13.9      58     -7    166     59    176  97.0  80.2  34164  289.65 0854.71
2009/04/23 12:42:14.0     215     49    214    221    307  77.0  49.0  34154  289.46 0854.71
2009/04/23 12:42:14.1     256     52    195    262    326  78.5  40.4  34154  289.47 0854.71
2009/04/23 12:42:14.2     320     74    170    329    370  77.0  29.4  34146  289.32 0854.71
2009/04/23 12:42:14.3     245     69    229    255    342  74.1  46.6  34146  289.34 0854.71
2009/04/23 12:42:14.4     223     68    280    234    364  73.1  56.1  34150  289.41 0854.71
2009/04/23 12:42:14.5     286     75    193    296    353  75.2  36.2  34152  289.43 0854.71
2009/04/23 12:42:14.6     325    125    168    349    387  69.0  27.3  34150  289.40 0854.71
2009/04/23 12:42:14.7     350    101    114    365    383  73.9  17.4  34142  289.26 0854.71
2009/04/23 12:42:14.8     339     71    181    347    391  78.1  29.8  34148  289.37 0854.71
2009/04/23 12:42:14.9     339    128    154    363    394  69.3  24.3  34148  289.37 0854.71
2009/04/23 12:42:15.0     340    134    217    366    425  68.5  33.5  34164  289.65 0854.71
2009/04/23 12:42:15.1     383    158    198    415    459  67.6  27.3  34144  289.31 0854.72
2009/04/23 12:42:15.2     319    141    203    349    403  66.1  32.9  34204  290.33 0854.72
2009/04/23 12:42:15.3     301    141    214    333    395  64.8  35.7  34180  289.91 0854.72
2009/04/23 12:42:15.4     324    148    192    357    405  65.5  30.6  34154  289.47 0854.72
2009/04/23 12:42:15.5     372    188    180    417    454  63.2  25.0  34154  289.48 0854.72
2009/04/23 12:42:15.6     303    167    311    346    465  61.1  46.6  34194  290.14 0854.72
2009/04/23 12:42:15.7     399    226    221    459    509  60.5  27.7  34182  289.96 0854.72
2009/04/23 12:42:15.8     339    218    143    404    428  57.2  20.1  34166  289.68 0854.72
2009/04/23 12:42:15.9     309    230    161    386    418  53.4  23.9  34238  290.89 0854.72
2009/04/23 12:42:16.0     331    232    192    405    448  54.9  27.2  34244  291.01 0854.72
2009/04/23 12:42:16.1     399    297    248    498    556  53.4  28.4  34220  290.58 0854.72
2009/04/23 12:42:16.2     474    285    189    554    586  59.0  18.9  34146  289.34 0854.72
2009/04/23 12:42:16.3     403    231    161    465    493  60.2  19.2  34146  289.35 0854.72
2009/04/23 12:42:16.4     421    245    138    488    508  59.8  15.8  34150  289.39 0854.72
2009/04/23 12:42:16.5     452    200     90    495    504  66.1  10.4  34150  289.40 0854.72
2009/04/23 12:42:16.6     634    252     69    683    687  68.3   5.8  34144  289.29 0854.72
2009/04/23 12:42:16.7     644    298    -52    710    712  65.2  -4.2  34142  289.25 0854.72
2009/04/23 12:42:16.8     634    268    142    689    704  67.1  11.7  34136  289.18 0854.72
2009/04/23 12:42:16.9     496    251    152    556    577  63.1  15.3  34150  289.39 0854.72
2009/04/23 12:42:17.0     388    339     74    516    522  48.8   8.2  34144  289.29 0854.72
2009/04/23 12:42:17.1     454    298    109    544    555  56.7  11.3  34218  290.55 0854.74
2009/04/23 12:42:17.2     388    244    149    459    483  57.9  18.0  34298  291.93 0854.74
2009/04/23 12:42:17.3     291    224     50    368    372  52.5   7.8  34260  291.28 0854.74
2009/04/23 12:42:17.4     232    303    157    382    413  37.4  23.6  34266  291.36 0854.74
2009/04/23 12:42:17.5     218    139    209    259    332  57.5  43.1  34258  291.22 0854.74
2009/04/23 12:42:17.6     247    106    186    269    327  66.7  37.9  34282  291.63 0854.74
2009/04/23 12:42:17.7     536    130    130    552    568  76.3  13.3  34210  290.43 0854.74
2009/04/23 12:42:17.8     386    -58    137    391    414  98.6  20.1  34192  290.12 0854.74
2009/04/23 12:42:17.9     105     10    221    106    245  84.3  72.8  34202  290.30 0854.74
2009/04/23 12:42:18.0     329    101    275    345    441  72.8  42.7  34294  291.86 0854.74
2009/04/23 12:42:18.1     365     78    280    374    467  77.9  40.6  34294  291.84 0854.74
2009/04/23 12:42:18.2     498     72    175    504    534  81.7  19.2  34242  290.97 0854.74
2009/04/23 12:42:18.3     414     23     43    415    418  86.8   6.0  34198  290.21 0854.74
2009/04/23 12:42:18.4     342      5    -13    343    344  89.1  -2.2  34176  289.84 0854.74
2009/04/23 12:42:18.5     401    169     17    436    437  67.2   2.2  34162  289.60 0854.74
2009/04/23 12:42:18.6     432    189     -2    472    473  66.4  -0.3  34170  289.74 0854.74
2009/04/23 12:42:18.7     416     21    113    417    433  87.0  15.2  34158  289.55 0854.74
2009/04/23 12:42:18.8     483    106     12    495    496  77.6   1.4  34160  289.57 0854.74
2009/04/23 12:42:18.9     499    271     58    568    571  61.5   5.9  34162  289.59 0854.74
2009/04/23 12:42:19.0     602    107    -78    612    617  79.9  -7.3  34168  289.70 0854.74
2009/04/23 12:42:19.1     604    162     24    626    627  75.0   2.2  34174  289.81 0854.73
2009/04/23 12:42:19.2     556     33    142    558    576  86.6  14.3  34182  289.93 0854.73
2009/04/23 12:42:19.3     426     32    147    428    453  85.6  19.1  34182  289.94 0854.73
2009/04/23 12:42:19.4     404    168     38    438    440  67.4   5.1  34170  289.73 0854.73
2009/04/23 12:42:19.5     510    -46     90    513    522  95.2  10.0  34178  289.86 0854.73
2009/04/23 12:42:19.6     438    -26    -39    439    441  93.4  -5.1  34164  289.63 0854.73
2009/04/23 12:42:19.7     545    137     31    562    563  75.8   3.2  34192  290.13 0854.73
2009/04/23 12:42:19.8     501     56    122    505    520  83.5  13.7  34174  289.81 0854.73
2009/04/23 12:42:19.9     574    130    -46    589    591  77.2  -4.5  34238  290.90 0854.73
2009/04/23 12:42:20.0     484     45    -83    487    495  84.7  -9.7  34184  289.98 0854.73
2009/04/23 12:42:20.1     532     50   -108    535    546  84.6 -11.5  34174  289.82 0854.69
2009/04/23 12:42:20.2     595    195     10    627    628  71.8   1.0  34242  290.98 0854.69
2009/04/23 12:42:20.3     576    373     97    687    695  57.0   8.1  34220  290.58 0854.69
2009/04/23 12:42:20.4     505    332    219    605    643  56.7  20.8  34222  290.62 0854.69
2009/04/23 12:42:20.5     300    370    284    477    555  39.1  33.5  34210  290.41 0854.69
2009/04/23 12:42:20.6     442    139    300    464    552  72.5  36.0  34198  290.23 0854.69
2009/04/23 12:42:20.7     536    176    180    565    593  71.8  17.7  34194  290.14 0854.69
2009/04/23 12:42:20.8     354    190     73    402    409  61.7  10.3  34204  290.33 0854.69
2009/04/23 12:42:20.9     338    139     44    366    369  67.5   6.9  34200  290.25 0854.69
2009/04/23 12:42:21.0     393    -17    -83    394    403  92.5 -11.9  34182  289.93 0854.69
2009/04/23 12:42:21.1     345     43      7    348    349  82.9   1.2  34188  290.03 0854.69
2009/04/23 12:42:21.2     243     79     89    256    272  71.8  19.2  34220  290.58 0854.69
2009/04/23 12:42:21.3      82    178    136    197    239  24.7  38.0  34214  290.48 0854.69
2009/04/23 12:42:21.4     177    104    169    206    266  59.6  43.7  34210  290.41 0854.69
2009/04/23 12:42:21.5     241     95     41    260    264  68.5   9.0  34186  290.00 0854.69
2009/04/23 12:42:21.6     185    142     96    234    252  52.5  23.6  34238  290.90 0854.69
2009/04/23 12:42:21.7     263     97     38    281    284  69.6   7.8  34186  290.00 0854.69
2009/04/23 12:42:21.8     244    -40     72    248    259  99.5  16.3  34160  289.58 0854.69
2009/04/23 12:42:21.9     260    -82     25    273    275 107.5   5.4  34158  289.54 0854.69
2009/04/23 12:42:22.0     320   -155    140    356    382 116.0  22.8  34166  289.67 0854.69
2009/04/23 12:42:22.1     210     -3    117    211    241  91.0  31.6  34182  289.94 0854.71
2009/04/23 12:42:22.2     289    -31    258    291    388  96.2  46.1  34184  289.99 0854.71
2009/04/23 12:42:22.3     244     17     81    245    259  85.9  18.4  34180  289.90 0854.71
2009/04/23 12:42:22.4     261     11     31    262    264  87.4   6.9  34178  289.86 0854.71
2009/04/23 12:42:22.5     225    -37    107    229    252  99.5  27.1  34174  289.81 0854.71
2009/04/23 12:42:22.6     147    -35     86    152    174 103.7  32.4  34168  289.72 0854.71
2009/04/23 12:42:22.7       7    -85    117     86    145 175.1  60.5  34166  289.67 0854.71
2009/04/23 12:42:22.8      74   -181    143    196    242 157.7  39.7  34164  289.65 0854.71
2009/04/23 12:42:22.9      68    -58     79     90    119 130.9  45.8  34166  289.69 0854.71
2009/04/23 12:42:23.0     -19    -91     25     94     98 192.0  15.2  34166  289.69 0854.71
2009/04/23 12:42:23.1     -59    -38      3     71     72 237.6   2.8  34172  289.77 0854.71
2009/04/23 12:42:23.2     -15     12    -57     20     60 309.5 -85.6  34172  289.79 0854.71
2009/04/23 12:42:23.3      22     17   -100     29    104  52.2 -87.7  34168  289.72 0854.71
2009/04/23 12:42:23.4     -99     77   -135    126    184 307.7 -56.5  34166  289.69 0854.71
2009/04/23 12:42:23.5    -136     14   -155    137    206 276.2 -58.6  34156  289.52 0854.71
2009/04/23 12:42:23.6     -17   -224    -62    225    234 184.5 -15.5  34172  289.77 0854.71
2009/04/23 12:42:23.7     -11   -238    -53    239    245 182.7 -12.6  34182  289.95 0854.71
2009/04/23 12:42:23.8      35   -350    -32    352    354 174.2  -5.3  34172  289.76 0854.71
2009/04/23 12:42:23.9      38   -368    -47    371    375 174.0  -7.3  34166  289.67 0854.71
2009/04/23 12:42:24.0      -1   -336     -1    337    338 180.2  -0.3  34168  289.71 0854.71
2009/04/23 12:42:24.1      43   -429     -9    432    433 174.2  -1.3  34164  289.63 0854.70
2009/04/23 12:42:24.2      70   -434     -9    440    441 170.8  -1.3  34164  289.65 0854.70
2009/04/23 12:42:24.3      71   -408     -8    415    416 170.1  -1.2  34164  289.65 0854.70
2009/04/23 12:42:24.4     -24   -381     81    382    391 183.6  12.0  34170  289.74 0854.70
2009/04/23 12:42:24.5     -19   -381     31    382    384 182.9   4.7  34172  289.76 0854.70
2009/04/23 12:42:24.6     -53   -392     -2    396    397 187.8  -0.4  34174  289.81 0854.70
2009/04/23 12:42:24.7    -118   -355    -10    375    376 198.4  -1.6  34172  289.79 0854.70
2009/04/23 12:42:24.8    -193   -326    -20    379    380 210.7  -3.1  34170  289.74 0854.70
2009/04/23 12:42:24.9    -140   -348     23    376    377 201.9   3.6  34166  289.69 0854.70
2009/04/23 12:42:25.0      56   -393      0    398    399 171.9   0.0  34164  289.64 0854.70
2009/04/23 12:42:25.1      25   -393     49    394    398 176.3   7.1  34168  289.72 0854.70
2009/04/23 12:42:25.2      17   -394     61    395    400 177.5   8.8  34168  289.71 0854.70
2009/04/23 12:42:25.3      -5   -372     80    373    382 180.8  12.2  34168  289.72 0854.70
2009/04/23 12:42:25.4     -32   -369     72    371    378 185.1  11.0  34164  289.65 0854.70
2009/04/23 12:42:25.5      18   -379    101    380    394 177.2  14.9  34162  289.62 0854.70
2009/04/23 12:42:25.6      17   -446    104    447    459 177.8  13.1  34160  289.56 0854.70
2009/04/23 12:42:25.8       0   -532     84    533    540 180.0   9.0  34168  289.72 0854.70
2009/04/23 12:42:25.8    -122   -509    113    524    537 193.5  12.2  34170  289.75 0854.70
2009/04/23 12:42:25.9     -67   -506     90    511    519 187.6  10.0  34162  289.61 0854.70
2009/04/23 12:42:26.0     -58   -559    115    563    575 186.0  11.6  34156  289.52 0854.70
2009/04/23 12:42:26.1    -134   -611     -2    626    627 192.4  -0.3  34138  289.20 0854.69
2009/04/23 12:42:26.2    -305   -496     -2    583    584 211.6  -0.3  34146  289.32 0854.69
2009/04/23 12:42:26.3    -183   -478    129    512    528 201.0  14.2  34150  289.40 0854.69
2009/04/23 12:42:26.4      -6   -498    171    499    528 180.7  18.9  34152  289.45 0854.69
2009/04/23 12:42:26.5     -38   -569    110    571    582 183.9  11.0  34152  289.44 0854.69
2009/04/23 12:42:26.6    -196   -793    -53    817    819 193.9  -3.7  34138  289.21 0854.69
2009/04/23 12:42:26.7    -218   -833    -34    861    862 194.7  -2.3  34136  289.17 0854.69
2009/04/23 12:42:26.8    -169   -827    -44    845    847 191.6  -3.0  34138  289.19 0854.69
2009/04/23 12:42:26.9    -163   -892    -84    907    912 190.4  -5.3  34134  289.14 0854.69
2009/04/23 12:42:27.0    -209   -906    -56    930    932 193.0  -3.5  34136  289.15 0854.69
2009/04/23 12:42:27.1    -139   -851    -31    863    864 189.3  -2.1  34136  289.15 0854.69
2009/04/23 12:42:27.2     -87   -882    -29    887    888 185.7  -1.9  34136  289.16 0854.69
2009/04/23 12:42:27.3     -40   -862     35    864    865 182.7   2.4  34134  289.12 0854.69
2009/04/23 12:42:27.4    -137   -920    119    931    939 188.5   7.3  34136  289.17 0854.69
2009/04/23 12:42:27.5     -69   -630   -215    634    670 186.3 -18.8  34134  289.14 0854.69
2009/04/23 12:42:27.6    -130   -563   -115    578    590 193.0 -11.3  34136  289.17 0854.69
2009/04/23 12:42:27.7     -86   -550   -166    557    582 188.9 -16.6  34136  289.15 0854.69
2009/04/23 12:42:27.9    -126   -536    -60    551    555 193.3  -6.2  34134  289.14 0854.69
2009/04/23 12:42:27.9    -187   -562    -69    593    598 198.4  -6.7  34138  289.20 0854.69
2009/04/23 12:42:28.0    -202   -487   -100    528    538 202.6 -10.8  34136  289.18 0854.69
2009/04/23 12:42:28.1    -222   -401    -66    459    464 209.0  -8.2  34136  289.16 0854.69
2009/04/23 12:42:28.2    -199   -349    -94    402    413 209.7 -13.3  34134  289.14 0854.69
2009/04/23 12:42:28.4    -172   -468    -78    499    506 200.2  -8.9  34136  289.17 0854.69
2009/04/23 12:42:28.5    -144   -489    -65    510    515 196.4  -7.3  34136  289.17 0854.69
2009/04/23 12:42:28.5    -138   -464    -44    485    488 196.6  -5.2  34136  289.15 0854.69
2009/04/23 12:42:28.7    -137   -483    -23    503    504 195.9  -2.7  34138  289.20 0854.69
2009/04/23 12:42:28.8    -139   -518    -20    537    538 195.1  -2.2  34138  289.19 0854.69
2009/04/23 12:42:28.9    -137   -535    -30    553    554 194.4  -3.1  34138  289.21 0854.69
2009/04/23 12:42:29.0     -75   -482    -43    488    491 188.9  -5.1  34140  289.23 0854.69
2009/04/23 12:42:29.1    -105   -463     49    475    478 192.8   6.0  34140  289.23 0854.69
2009/04/23 12:42:29.2    -154   -451     43    477    479 199.0   5.2  34136  289.18 0854.69
2009/04/23 12:42:29.3    -200   -392    -48    441    444 207.1  -6.3  34136  289.17 0854.69
2009/04/23 12:42:29.4    -250   -292    -61    385    391 220.6  -9.1  34142  289.25 0854.69
2009/04/23 12:42:29.5    -288   -359   -180    461    494 218.8 -26.8  34134  289.12 0854.69
2009/04/23 12:42:29.6    -150   -441   -145    466    488 198.8 -22.3  34136  289.18 0854.69
2009/04/23 12:42:29.7      -8   -345   -107    346    363 181.4 -17.2  34138  289.21 0854.69
2009/04/23 12:42:29.8      -5   -321    -65    322    329 181.0 -11.6  34138  289.19 0854.69
2009/04/23 12:42:29.9      -1   -342    -10    343    344 180.3  -1.8  34142  289.25 0854.69
2009/04/23 12:42:30.0    -115   -346     10    365    366 198.5   1.7  34140  289.23 0854.69
2009/04/23 12:42:30.1    -287   -360   -115    461    476 218.6 -14.1  34142  289.25 0854.69
2009/04/23 12:42:30.2    -333   -401   -124    522    537 219.7 -13.4  34138  289.19 0854.70
2009/04/23 12:42:30.3    -336   -528   -176    627    652 212.5 -15.7  34138  289.21 0854.70
2009/04/23 12:42:30.4    -397   -545   -137    675    689 216.1 -11.5  34142  289.27 0854.70
2009/04/23 12:42:30.5    -402   -557    -62    688    691 215.8  -5.2  34144  289.29 0854.70
2009/04/23 12:42:30.6    -349   -503   -121    613    625 214.7 -11.2  34138  289.21 0854.70
2009/04/23 12:42:30.7    -346   -492    -29    602    603 215.1  -2.8  34138  289.20 0854.70
2009/04/23 12:42:30.8    -368   -318    -44    487    490 229.1  -5.2  34142  289.25 0854.70
2009/04/23 12:42:30.9    -281   -275    -75    394    402 225.6 -10.8  34140  289.23 0854.70
2009/04/23 12:42:31.0    -155   -251    -60    296    302 211.7 -11.5  34140  289.22 0854.70
2009/04/23 12:42:31.1    -105   -109     -5    152    153 224.1  -2.2  34142  289.26 0854.70
2009/04/23 12:42:31.2    -127   -196     83    234    248 213.0  20.0  34138  289.20 0854.70
2009/04/23 12:42:31.3    -165   -103     56    195    203 238.0  16.0  34142  289.26 0854.70
2009/04/23 12:42:31.4    -118   -175     98    212    233 214.1  27.1  34136  289.18 0854.70
2009/04/23 12:42:31.5     102   -267     76    286    297 159.1  15.0  34142  289.25 0854.70
2009/04/23 12:42:31.6       8   -216     -8    217    218 177.8  -2.2  34140  289.23 0854.70
2009/04/23 12:42:31.7      16   -319    -97    320    335 177.1 -17.0  34142  289.26 0854.70
2009/04/23 12:42:31.8       8   -266    -61    267    274 178.2 -12.9  34142  289.25 0854.70
2009/04/23 12:42:31.9       0   -241    -56    242    249 179.9 -13.2  34144  289.31 0854.70
2009/04/23 12:42:32.0      -9   -269    -10    270    271 182.0  -2.2  34144  289.29 0854.70
2009/04/23 12:42:32.1     -26   -278    -10    280    281 185.4  -2.2  34144  289.31 0854.70
2009/04/23 12:42:32.2     -29   -274    -43    276    280 186.2  -9.0  34144  289.31 0854.70
2009/04/23 12:42:32.3      -3   -211    -43    212    217 180.9 -11.5  34142  289.28 0854.70
2009/04/23 12:42:32.4      -2   -157    -13    158    159 181.0  -4.9  34142  289.28 0854.70
2009/04/23 12:42:32.5     -33    -21    -85     40     93 237.5 -77.5  34142  289.28 0854.70
2009/04/23 12:42:32.6      36     68   -101     78    127  28.1 -62.8  34144  289.31 0854.70
2009/04/23 12:42:32.7      32     16   -104     37    110  62.9 -85.1  34142  289.26 0854.70
2009/04/23 12:42:32.8     -43    -53   -122     69    140 218.7 -73.2  34144  289.30 0854.70
2009/04/23 12:42:32.9      41   -152   -128    158    203 164.8 -47.7  34142  289.28 0854.70
2009/04/23 12:42:33.0      38   -106    -91    113    145 160.0 -48.1  34142  289.26 0854.70
2009/04/23 12:42:33.1     186    -40     -3    191    192 102.2  -1.1  34140  289.24 0854.70
2009/04/23 12:42:33.2     195   -123     19    231    232 122.4   4.9  34142  289.28 0854.70
2009/04/23 12:42:33.3     163   -151     43    223    228 132.9  11.1  34144  289.30 0854.70
2009/04/23 12:42:33.4     194   -200     49    279    284 135.9  10.1  34142  289.25 0854.70
2009/04/23 12:42:33.5     201   -206     19    288    289 135.7   3.9  34142  289.27 0854.70
2009/04/23 12:42:33.6     192   -168     12    256    257 131.3   2.8  34142  289.27 0854.70
2009/04/23 12:42:33.7     159   -206      7    261    262 142.4   1.7  34142  289.27 0854.70
2009/04/23 12:42:33.8     166   -198     -7    259    260 139.9  -1.6  34142  289.25 0854.70
2009/04/23 12:42:33.9      71   -231     37    242    245 162.8   8.9  34144  289.31 0854.70
2009/04/23 12:42:34.0     105   -258     85    279    292 157.7  17.1  34132  289.10 0854.70
2009/04/23 12:42:34.1      68   -263     42    272    276 165.3   8.8  34140  289.24 0854.68
2009/04/23 12:42:34.2      47   -258      7    263    264 169.5   1.6  34142  289.27 0854.68
2009/04/23 12:42:34.3      66   -193     69    205    217 161.1  18.6  34142  289.26 0854.68
2009/04/23 12:42:34.4     177   -126     67    218    229 125.3  17.1  34144  289.31 0854.68
2009/04/23 12:42:34.5     149    -91     40    175    180 121.5  12.9  34144  289.31 0854.68
2009/04/23 12:42:34.6     138    -46     61    146    158 108.6  23.8  34144  289.30 0854.68
2009/04/23 12:42:34.7     137    -12     52    138    147  95.2  21.5  34144  289.31 0854.68
2009/04/23 12:42:34.8     104     -5     20    105    107  93.0  11.0  34150  289.40 0854.68
2009/04/23 12:42:34.9      58    -42    -47     72     85 125.9 -40.4  34148  289.38 0854.68
2009/04/23 12:42:35.0      60    -61    -30     86     92 135.5 -19.7  34146  289.33 0854.68
2009/04/23 12:42:35.1      82    -84    -19    118    120 135.5  -9.3  34144  289.30 0854.68
2009/04/23 12:42:35.2      68   -140    -18    156    158 154.1  -6.9  34142  289.28 0854.68
2009/04/23 12:42:35.3      75   -137     -3    157    158 151.1  -1.3  34142  289.26 0854.68
2009/04/23 12:42:35.4     145    -81    -10    167    168 119.3  -3.7  34142  289.28 0854.68
2009/04/23 12:42:35.5     141   -138     -7    198    199 134.2  -2.2  34142  289.26 0854.68
2009/04/23 12:42:35.6     -55   -194    130    202    240 196.0  35.7  34142  289.26 0854.68
2009/04/23 12:42:35.7     122   -202    141    237    275 148.8  33.5  34144  289.31 0854.68
2009/04/23 12:42:35.8     137   -266    136    300    329 152.8  26.2  34142  289.27 0854.68
2009/04/23 12:42:35.9     118   -249    160    276    319 154.7  32.8  34142  289.27 0854.68
2009/04/23 12:42:36.0      84   -375     65    385    391 167.4   9.7  34142  289.28 0854.68
2009/04/23 12:42:36.1     100   -274      3    292    293 160.0   0.7  34142  289.25 0854.69
2009/04/23 12:42:36.2      48   -236      5    241    242 168.4   1.2  34146  289.32 0854.69
2009/04/23 12:42:36.3      69   -168    -19    182    184 157.5  -6.0  34144  289.31 0854.69
2009/04/23 12:42:36.4      77   -127     -8    149    150 148.8  -3.2  34142  289.26 0854.69
2009/04/23 12:42:36.5      55   -140     -1    151    152 158.6  -0.7  34142  289.28 0854.69
2009/04/23 12:42:36.6      35   -137      3    142    143 165.3   1.2  34144  289.31 0854.69
2009/04/23 12:42:36.7      39   -117     33    124    129 161.3  15.2  34144  289.31 0854.69
2009/04/23 12:42:36.8      47   -127     58    136    147 159.5  24.6  34146  289.33 0854.69
2009/04/23 12:42:36.9      37   -138     76    143    161 164.9  30.1  34144  289.30 0854.69
2009/04/23 12:42:37.0     -38   -110     84    117    144 199.2  39.5  34146  289.33 0854.69
2009/04/23 12:42:37.1      -7    -98     87     99    131 184.4  45.8  34146  289.33 0854.69
2009/04/23 12:42:37.2       2   -108     90    109    141 178.6  43.7  34148  289.36 0854.69
2009/04/23 12:42:37.3      12   -159    108    160    193 175.6  37.0  34142  289.28 0854.69
2009/04/23 12:42:37.4     -36   -187    145    191    239 191.1  41.2  34142  289.26 0854.69
2009/04/23 12:42:37.5     -16   -208    187    209    280 184.5  46.6  34146  289.32 0854.69
2009/04/23 12:42:37.6     -20   -244    170    245    298 184.7  38.0  34144  289.31 0854.69
2009/04/23 12:42:37.7     -11   -238    186    239    302 182.7  41.7  34144  289.29 0854.69
2009/04/23 12:42:37.8     -44   -214    187    219    287 191.8  44.8  34146  289.34 0854.69
2009/04/23 12:42:37.9     100   -351    232    365    432 164.1  35.5  34148  289.38 0854.69
2009/04/23 12:42:38.0      38   -312    255    315    405 172.9  43.1  34146  289.35 0854.69
2009/04/23 12:42:38.1      58   -311    231    317    392 169.3  39.8  34138  289.21 0854.70
2009/04/23 12:42:38.2      75   -440    178    447    481 170.2  23.0  34144  289.30 0854.70
2009/04/23 12:42:38.3      98   -469    222    480    528 168.1  26.6  34142  289.28 0854.70
2009/04/23 12:42:38.4      80   -503    124    510    525 170.9  13.7  34144  289.29 0854.70
2009/04/23 12:42:38.5     147   -451    167    475    503 161.9  20.0  34144  289.30 0854.70
2009/04/23 12:42:38.6     223   -420     49    476    479 152.0   5.9  34146  289.35 0854.70
2009/04/23 12:42:38.7     198   -359     88    411    421 151.1  12.1  34146  289.33 0854.70
2009/04/23 12:42:38.8     177   -330     15    375    376 151.7   2.3  34148  289.37 0854.70
2009/04/23 12:42:38.9     196   -398      7    444    445 153.7   1.0  34146  289.33 0854.70
2009/04/23 12:42:39.0     199   -375     74    425    432 152.0   9.9  34144  289.31 0854.70
2009/04/23 12:42:39.1     181   -183    -14    258    259 135.2  -3.3  34142  289.25 0854.70
2009/04/23 12:42:39.2     167   -166     36    236    239 134.9   8.9  34146  289.32 0854.70
2009/04/23 12:42:39.3      62   -252    125    260    288 166.2  27.3  34146  289.34 0854.70
2009/04/23 12:42:39.4     113   -309     17    330    331 159.8   3.0  34142  289.28 0854.70
2009/04/23 12:42:39.5     125   -359    104    381    396 160.7  15.3  34138  289.20 0854.70
2009/04/23 12:42:39.6      65   -342    196    349    400 169.2  31.9  34144  289.30 0854.70
2009/04/23 12:42:39.7     143   -318    129    349    372 155.8  21.3  34146  289.35 0854.70
2009/04/23 12:42:39.8      61   -299     72    306    315 168.4  13.2  34148  289.37 0854.70
2009/04/23 12:42:39.9     -30   -284     83    286    298 186.2  16.3  34148  289.36 0854.70
2009/04/23 12:42:40.0     -30   -324     91    326    339 185.4  15.6  34146  289.33 0854.70
2009/04/23 12:42:40.1     -54   -313    159    318    355 189.8  28.5  34146  289.35 0854.72
2009/04/23 12:42:40.2      13   -294    102    295    313 177.4  19.1  34146  289.32 0854.72
2009/04/23 12:42:40.3     154   -170     43    230    234 137.7  10.6  34140  289.22 0854.72
2009/04/23 12:42:40.4     111   -373    134    390    413 163.4  19.1  34148  289.36 0854.72
2009/04/23 12:42:40.5     -12   -412    120    413    431 181.8  16.3  34148  289.38 0854.72
2009/04/23 12:42:40.6     109   -539    161    550    574 168.5  16.3  34144  289.31 0854.72
2009/04/23 12:42:40.7     155   -486    222    511    557 162.3  25.1  34148  289.38 0854.72
2009/04/23 12:42:40.8     145   -536    189    556    588 164.8  18.8  34148  289.37 0854.72
2009/04/23 12:42:40.9      75   -435     80    442    450 170.2  10.3  34146  289.33 0854.72
2009/04/23 12:42:41.0      36   -371     81    373    382 174.4  12.4  34146  289.33 0854.72
2009/04/23 12:42:41.1     221   -359    125    422    441 148.4  16.5  34148  289.36 0854.75
2009/04/23 12:42:41.2     128   -302    157    329    364 157.0  27.3  34146  289.35 0854.75
2009/04/23 12:42:41.3     149   -184    183    238    300 141.0  41.6  34142  289.27 0854.75
2009/04/23 12:42:41.4     147    -96    165    176    241 123.3  48.0  34146  289.33 0854.75
2009/04/23 12:42:41.5     128    -33     41    133    140 104.6  17.3  34150  289.40 0854.75
2009/04/23 12:42:41.6      79    -44    -15     91     93 119.3  -9.8  34146  289.33 0854.75
2009/04/23 12:42:41.7     217   -191     55    290    296 131.3  10.8  34146  289.34 0854.75
2009/04/23 12:42:41.8     179   -313     10    361    362 150.3   1.7  34144  289.30 0854.75
2009/04/23 12:42:41.9     104   -335    174    351    391 162.7  28.2  34142  289.26 0854.75
2009/04/23 12:42:42.0      75   -408    202    415    461 169.5  27.8  34144  289.31 0854.75
2009/04/23 12:42:42.1      28   -371    114    372    390 175.7  17.1  34146  289.33 0854.75
2009/04/23 12:42:42.2     211   -381     77    436    443 151.0  10.1  34148  289.36 0854.75
2009/04/23 12:42:42.3     172   -314     91    359    371 151.3  14.3  34146  289.32 0854.75
2009/04/23 12:42:42.4     225   -211     85    309    321 133.2  15.4  34142  289.25 0854.75
2009/04/23 12:42:42.5     160   -148     82    219    233 132.7  21.0  34146  289.33 0854.75
2009/04/23 12:42:42.6      96    -99      6    138    139 135.9   2.8  34146  289.35 0854.75
2009/04/23 12:42:42.7     168   -159    -38    232    236 133.6  -9.3  34146  289.32 0854.75
2009/04/23 12:42:42.8      27   -239     38    241    245 173.5   9.0  34140  289.22 0854.75
2009/04/23 12:42:42.9     -24   -319    144    320    350 184.4  25.8  34148  289.38 0854.75
2009/04/23 12:42:43.0     -34   -245     39    248    252 188.0   9.0  34148  289.37 0854.75
2009/04/23 12:42:43.1      93   -230    -35    249    252 157.9  -8.0  34146  289.34 0854.71
2009/04/23 12:42:43.2      76   -190    -57    205    212 158.2 -20.4  34148  289.38 0854.71
2009/04/23 12:42:43.3      23   -117    -59    120    133 168.5 -32.2  34146  289.33 0854.71
2009/04/23 12:42:43.4     -17   -120    -33    122    127 188.1 -15.4  34148  289.38 0854.71
2009/04/23 12:42:43.5     -41    -64    -32     77     83 212.5 -28.0  34148  289.36 0854.71
2009/04/23 12:42:43.6     -94    -52    -16    108    110 241.1  -8.8  34148  289.38 0854.71
2009/04/23 12:42:43.7     -69    -94     62    117    132 216.5  29.8  34150  289.40 0854.71
2009/04/23 12:42:43.8     -50    -71     45     87     97 215.2  29.3  34148  289.38 0854.71
2009/04/23 12:42:43.9      10    -86     86     87    122 173.3  50.0  34150  289.41 0854.71
2009/04/23 12:42:44.0      68    -46     23     83     87 124.2  15.8  34150  289.40 0854.71
2009/04/23 12:42:44.1      47   -100    -22    111    114 154.7 -11.5  34148  289.36 0854.71
2009/04/23 12:42:44.2     -10   -138     -4    139    140 184.4  -1.8  34144  289.31 0854.71
2009/04/23 12:42:44.3      33   -160      5    164    165 168.2   1.8  34144  289.31 0854.71
2009/04/23 12:42:44.4      33   -101     27    107    111 161.7  14.3  34146  289.33 0854.71
2009/04/23 12:42:44.5      42   -164     54    170    179 165.5  17.7  34144  289.31 0854.71
2009/04/23 12:42:44.6       9   -178     86    179    198 177.1  27.4  34146  289.35 0854.71
2009/04/23 12:42:44.7     -33   -144    117    148    188 193.3  42.4  34152  289.45 0854.71
2009/04/23 12:42:44.8     -97   -140    137    171    219 214.7  43.0  34154  289.46 0854.71
2009/04/23 12:42:44.9     -58   -163    133    174    219 199.8  41.4  34150  289.41 0854.71
2009/04/23 12:42:45.0     -36   -176    155    180    237 191.6  45.4  34154  289.46 0854.71
2009/04/23 12:42:45.1     -44   -147    147    154    212 196.9  48.7  34154  289.48 0854.66
2009/04/23 12:42:45.2     -62   -142    145    156    212 203.6  47.9  34152  289.43 0854.66
2009/04/23 12:42:45.3      20   -102    129    105    166 168.5  56.4  34156  289.50 0854.66
2009/04/23 12:42:45.4       2    -86     97     87    130 178.6  53.7  34154  289.48 0854.66
2009/04/23 12:42:45.5      -9    -94     98     95    136 185.8  50.2  34156  289.50 0854.66
2009/04/23 12:42:45.6     -26   -100     97    104    142 194.7  47.9  34154  289.48 0854.66
2009/04/23 12:42:45.7     -30   -101    124    106    163 196.5  54.8  34154  289.48 0854.66
2009/04/23 12:42:45.8     -21    -75    128     79    150 196.0  64.7  34160  289.57 0854.66
2009/04/23 12:42:45.9     -29    -86    129     91    157 198.7  61.3  34156  289.50 0854.66
2009/04/23 12:42:46.0     -18    -86    111     88    141 192.0  57.5  34158  289.53 0854.66
2009/04/23 12:42:46.1     -37    -50     55     63     83 216.1  46.4  34156  289.50 0854.66
2009/04/23 12:42:46.2      -8     -2     58      9     58 251.6  90.0  34160  289.57 0854.66
2009/04/23 12:42:46.3     -65      0     38     66     76 270.0  33.5  34154  289.48 0854.66
2009/04/23 12:42:46.4     -62    -51     19     81     84 230.5  13.2  34154  289.46 0854.66
2009/04/23 12:42:46.5     -67    -15     26     69     73 256.7  20.0  34152  289.45 0854.66
2009/04/23 12:42:46.6     -61     15     48     63     79 284.2  41.2  34152  289.43 0854.66
2009/04/23 12:42:46.7     -72     -4     52     73     89 266.5  39.1  34154  289.48 0854.66
2009/04/23 12:42:46.8     -72     54     55     90    105 306.9  35.0  34156  289.52 0854.66
2009/04/23 12:42:46.9     -86     72     46    113    122 310.0  23.0  34158  289.53 0854.66
2009/04/23 12:42:47.0     -68     72     29    100    105 316.8  16.3  34158  289.53 0854.66
2009/04/23 12:42:47.1     -47     47     23     67     72 314.9  19.2  34156  289.52 0854.65
2009/04/23 12:42:47.2     -28     86     10     91     92 341.7   6.5  34152  289.45 0854.65
2009/04/23 12:42:47.3     -22    107     -3    110    111 348.4  -1.8  34156  289.50 0854.65
2009/04/23 12:42:47.4      -1     97      8     98     99 359.1   4.9  34160  289.58 0854.65
2009/04/23 12:42:47.5      20     84     19     87     90  13.8  12.6  34160  289.58 0854.65
2009/04/23 12:42:47.6      51     54     56     75     93  43.2  40.7  34164  289.63 0854.65
2009/04/23 12:42:47.7       6     32     64     33     72  11.5  71.9  34202  290.28 0854.65
2009/04/23 12:42:47.8      10      9    112     14    112  46.7  90.0  34242  290.98 0854.65
2009/04/23 12:42:47.9      52     26     72     59     93  63.8  56.4  34238  290.89 0854.65
2009/04/23 12:42:48.0      92     58     47    109    118  57.6  25.1  34196  290.19 0854.65
2009/04/23 12:42:48.1      85     36     76     93    120  66.9  43.7  34246  291.03 0854.65
2009/04/23 12:42:48.2      81     40     56     91    106  63.8  35.0  34264  291.33 0854.65
2009/04/23 12:42:48.3      65     38     24     76     80  59.3  17.9  34276  291.55 0854.65
2009/04/23 12:42:48.4      47      0      9     48     49  90.8  11.1  34278  291.57 0854.65
2009/04/23 12:42:48.5      45    -15     58     48     75 108.4  56.3  34268  291.40 0854.65
2009/04/23 12:42:48.6      67     -7     48     68     83  96.1  39.1  34278  291.59 0854.65
2009/04/23 12:42:48.7      49      3     74     50     89  85.6  63.2  34282  291.64 0854.65
2009/04/23 12:42:48.8      20      0     62     21     65  92.6  81.0  34274  291.50 0854.65
2009/04/23 12:42:48.9       2    -15     44     16     46 172.0  80.2  34268  291.40 0854.65
2009/04/23 12:42:49.0      58     36    105     69    125  57.6  64.1  34264  291.33 0854.65
2009/04/23 12:42:49.1      86     14    140     88    165  80.8  64.7  34258  291.23 0854.68
2009/04/23 12:42:49.2     170     33    166    174    240  78.8  48.7  34274  291.50 0854.68
2009/04/23 12:42:49.3     209    115    144    239    279  61.1  33.7  34272  291.48 0854.68
2009/04/23 12:42:49.4     221     67     38    232    236  73.1   9.3  34266  291.36 0854.68
2009/04/23 12:42:49.5     216     26     85    218    233  83.0  22.3  34254  291.16 0854.68
2009/04/23 12:42:49.6     250     36    110    253    275  81.6  25.1  34260  291.27 0854.68
2009/04/23 12:42:49.7     261     53     80    267    279  78.5  16.8  34290  291.78 0854.68
2009/04/23 12:42:49.8     177     18     77    179    194  83.9  24.9  34292  291.81 0854.68
2009/04/23 12:42:49.9     155     50    146    163    218  72.1  46.6  34284  291.69 0854.68
2009/04/23 12:42:50.0     264     76    129    275    303  73.8  27.1  34284  291.68 0854.68
2009/04/23 12:42:50.1     193     64    129    204    241  71.6  35.5  34278  291.57 0854.68
2009/04/23 12:42:50.2     172    142    172    224    282  50.4  41.6  34272  291.46 0854.68
2009/04/23 12:42:50.3     165     86    137    187    231  62.5  39.7  34274  291.50 0854.68
2009/04/23 12:42:50.4     158    143     93    214    233  48.0  25.1  34266  291.38 0854.68
2009/04/23 12:42:50.5     179    105    107    208    233  59.6  29.3  34282  291.64 0854.68
2009/04/23 12:42:50.6      84    163     53    184    192  27.2  16.0  34266  291.38 0854.68
2009/04/23 12:42:50.7     116    159     36    198    202  36.1  10.3  34274  291.52 0854.68
2009/04/23 12:42:50.8     152     97     73    181    195  57.5  23.0  34296  291.89 0854.68
2009/04/23 12:42:50.9     167    141     78    219    232  49.8  20.2  34280  291.60 0854.68
2009/04/23 12:42:51.0     114    116     64    163    175  44.5  22.0  34266  291.37 0854.68
2009/04/23 12:42:51.1      13     83    102     85    132   8.9  56.3  34254  291.16 0854.66
2009/04/23 12:42:51.2      48    109     87    120    148  23.6  39.7  34264  291.33 0854.66
2009/04/23 12:42:51.3      86    152     80    175    192  29.6  26.4  34270  291.45 0854.66
2009/04/23 12:42:51.4     112    133     79    175    192  40.1  26.2  34282  291.64 0854.66
2009/04/23 12:42:51.5     160    191    101    250    269  40.1  23.0  34288  291.73 0854.66
2009/04/23 12:42:51.6      73    199     74    213    226  20.3  19.2  34260  291.26 0854.66
2009/04/23 12:42:51.7      32    134     21    138    140  13.4   9.0  34268  291.40 0854.66
2009/04/23 12:42:51.8     110     68     67    130    146  58.0  29.3  34262  291.30 0854.66
2009/04/23 12:42:51.9     133    120    129    180    221  48.0  39.5  34228  290.72 0854.66
2009/04/23 12:42:52.0     113     47    103    123    160  67.4  44.3  34210  290.41 0854.66
2009/04/23 12:42:52.1      68     44     85     82    118  57.1  51.2  34218  290.55 0854.66
2009/04/23 12:42:52.2      49     23     35     55     65  64.7  35.5  34220  290.60 0854.66
2009/04/23 12:42:52.3      35    -35     47     50     68 135.0  49.0  34220  290.60 0854.66
2009/04/23 12:42:52.4      40    -87     41     97    105 155.1  24.1  34248  291.08 0854.66
2009/04/23 12:42:52.5      29   -121     84    125    150 166.2  37.0  34242  290.96 0854.66
2009/04/23 12:42:52.6      70   -109     81    130    153 147.4  35.5  34226  290.70 0854.66
2009/04/23 12:42:52.7     135    -86     66    161    174 122.4  23.4  34172  289.77 0854.66
2009/04/23 12:42:52.8     136    -87     69    162    176 122.5  24.3  34158  289.53 0854.66
2009/04/23 12:42:52.9      92    -92     25    131    134 135.0  11.1  34186  290.01 0854.66
2009/04/23 12:42:53.0      95    -32     66    101    120 108.6  36.0  34154  289.48 0854.66
2009/04/23 12:42:53.1     114     82     97    141    171  54.1  37.8  34184  289.97 0854.65
2009/04/23 12:42:53.2     243    170     14    297    298  54.9   2.8  34226  290.68 0854.65
2009/04/23 12:42:53.3     195    105     18    222    223  61.6   4.9  34220  290.60 0854.65
2009/04/23 12:42:53.4     188    153     94    243    260  50.9  22.1  34276  291.55 0854.65
2009/04/23 12:42:53.5     193     91     40    214    218  64.6  10.6  34266  291.38 0854.65
2009/04/23 12:42:53.6     199     87     11    218    219  66.5   2.9  34238  290.89 0854.65
2009/04/23 12:42:53.7      96     96     25    136    139  45.0  10.6  34248  291.06 0854.65
2009/04/23 12:42:53.8      76     86      5    115    116  41.4   2.8  34256  291.21 0854.65
2009/04/23 12:42:53.9     119     32     70    124    142  74.9  31.4  34270  291.43 0854.65
2009/04/23 12:42:54.0     164     61     36    176    180  69.6  11.6  34254  291.16 0854.65
2009/04/23 12:42:54.1     238     36     46    241    246  81.2  11.0  34254  291.16 0854.65
2009/04/23 12:42:54.2     189     49    117    196    228  75.4  33.5  34246  291.03 0854.65
2009/04/23 12:42:54.3     107     34     34    113    119  72.3  16.8  34242  290.98 0854.65
2009/04/23 12:42:54.4     131     -9    -32    132    137  94.3 -13.9  34240  290.94 0854.65
2009/04/23 12:42:54.5      67     26     19     73     76  68.3  15.2  34236  290.86 0854.65
2009/04/23 12:42:54.7      -8    116     53    117    128 355.6  26.2  34244  290.99 0854.65
2009/04/23 12:42:54.7       8     97     16     98    100   4.9   9.5  34252  291.13 0854.65
2009/04/23 12:42:54.8      96     21     19     99    101  77.6  11.1  34248  291.08 0854.65
2009/04/23 12:42:55.0     127     93    -26    158    161  53.6  -9.3  34264  291.33 0854.65
2009/04/23 12:42:55.1     161    170      0    235    236  43.3   0.0  34244  290.99 0854.65
2009/04/23 12:42:55.2     202     66    101    213    235  71.8  27.2  34230  290.77 0854.64
2009/04/23 12:42:55.3     137    109    123    176    214  51.6  38.0  34248  291.08 0854.64
2009/04/23 12:42:55.4     153    165    169    226    282  42.8  40.6  34256  291.21 0854.64
2009/04/23 12:42:55.5     122     73    111    143    181  59.3  42.0  34254  291.16 0854.64
2009/04/23 12:42:55.6     133     48    -49    142    150  70.0 -23.3  34230  290.75 0854.64
2009/04/23 12:42:55.7     165     54    -35    174    178  71.6 -11.6  34220  290.58 0854.64
2009/04/23 12:42:55.8     148     25     46    151    159  80.3  17.1  34216  290.52 0854.64
2009/04/23 12:42:55.9     119     15     28    121    125  82.5  13.2  34208  290.38 0854.64
2009/04/23 12:42:56.0     111    -29     57    115    128 105.0  28.2  34206  290.35 0854.64
2009/04/23 12:42:56.1     121      3     23    122    125  88.3  11.0  34218  290.57 0854.64
2009/04/23 12:42:56.2     122     62     41    137    144  63.0  16.8  34216  290.52 0854.64
2009/04/23 12:42:56.3     166    140     36    218    222  50.0   9.5  34246  291.04 0854.64
2009/04/23 12:42:56.4     223     59     97    231    250  75.0  24.2  34274  291.50 0854.64
2009/04/23 12:42:56.5     279     12     78    280    291  87.5  15.6  34264  291.34 0854.64
2009/04/23 12:42:56.6     325     63     65    332    339  79.0  11.1  34228  290.74 0854.64
2009/04/23 12:42:56.7     244    109     98    268    285  65.8  21.0  34224  290.65 0854.64
2009/04/23 12:42:56.8     267     85     60    281    288  72.3  12.1  34248  291.05 0854.64
2009/04/23 12:42:56.9     218     58     68    226    237  75.0  16.8  34254  291.16 0854.64
2009/04/23 12:42:57.0     315     34     61    317    323  83.8  11.0  34230  290.76 0854.64
2009/04/23 12:42:57.1     264     99     10    283    284  69.4   2.1  34222  290.63 0854.64
2009/04/23 12:42:57.2     266    146     25    304    306  61.2   4.9  34230  290.75 0854.64
2009/04/23 12:42:57.3     228     88     67    245    255  68.9  15.3  34250  291.09 0854.64
2009/04/23 12:42:57.4     249      3    123    250    278  89.2  28.2  34256  291.19 0854.64
2009/04/23 12:42:57.5     206     62    104    216    239  73.2  27.4  34246  291.04 0854.64
2009/04/23 12:42:57.6     181     60    105    191    217  71.6  31.4  34278  291.59 0854.64
2009/04/23 12:42:57.7     139     84    110    163    196  58.9  37.6  34278  291.59 0854.64
2009/04/23 12:42:57.8     124    125     -6    177    178  44.9  -2.1  34268  291.42 0854.64
2009/04/23 12:42:57.9      57     31     85     66    107  61.2  57.9  34258  291.23 0854.64
2009/04/23 12:42:58.0     151     57     46    162    169  69.2  15.8  34244  290.99 0854.64
2009/04/23 12:42:58.1     200    110     40    229    233  61.2  10.1  34244  290.99 0854.64
2009/04/23 12:42:58.2     187     41     70    192    204  77.4  20.9  34236  290.86 0854.64
2009/04/23 12:42:58.3     196    114    107    227    250  59.8  27.1  34250  291.10 0854.64
2009/04/23 12:42:58.4     237      9    169    238    291  87.6  38.6  34232  290.78 0854.64
2009/04/23 12:42:58.5     241    128    161    274    317  62.0  33.1  34222  290.61 0854.64
2009/04/23 12:42:58.6     104    -27    149    108    184 104.6  60.6  34208  290.38 0854.64
2009/04/23 12:42:58.7      93     -7    122     94    154  94.4  58.5  34204  290.31 0854.64
2009/04/23 12:42:58.8     -17    -50     77     54     94 199.2  62.1  34222  290.62 0854.64
2009/04/23 12:42:58.9      23    -91     84     94    126 165.7  46.9  34240  290.94 0854.64
2009/04/23 12:42:59.0     -16    -25     29     30     41 212.5  50.0  34242  290.98 0854.64
2009/04/23 12:42:59.1     -64    -13     53     66     84 258.5  42.7  34248  291.06 0854.64
2009/04/23 12:42:59.2     -68    -37     14     78     80 241.1  10.1  34232  290.81 0854.65
2009/04/23 12:42:59.3       8      1     50      9     50  78.5  90.0  34228  290.74 0854.65
2009/04/23 12:42:59.4      36     25     67     44     80  54.9  63.6  34230  290.75 0854.65
2009/04/23 12:42:59.5     115     -7    125    116    170  93.9  52.5  34228  290.74 0854.65
2009/04/23 12:42:59.6     103     -9    121    104    159  95.2  55.0  34220  290.60 0854.65
2009/04/23 12:42:59.7      71    -45     84     85    119 122.5  50.0  34204  290.33 0854.65
2009/04/23 12:42:59.8       7    -21     48     23     53 161.5  72.9  34200  290.25 0854.65
2009/04/23 12:42:59.9       7    -23     35     25     43 161.5  60.5  34200  290.26 0854.65
2009/04/23 12:43:00.0      28    -49     41     57     70 150.1  39.7  34204  290.33 0854.65
2009/04/23 12:43:00.1      54    -65     65     85    107 140.4  41.2  34198  290.23 0854.65
2009/04/23 12:43:00.2      54    -60     79     81    113 138.1  50.0  34188  290.06 0854.65
2009/04/23 12:43:00.3     -73    -63     63     97    115 229.1  35.6  34194  290.14 0854.65
2009/04/23 12:43:00.4    -106    -38      5    113    114 250.0   2.9  34200  290.26 0854.65
2009/04/23 12:43:00.5    -193    -78     34    209    212 248.0   9.3  34198  290.23 0854.65
2009/04/23 12:43:00.6     -38   -137     39    143    149 195.6  15.3  34194  290.14 0854.65
2009/04/23 12:43:00.7    -113      3     74    114    135 271.7  35.6  34206  290.35 0854.65
2009/04/23 12:43:00.8    -167    -10     38    168    173 266.3  12.9  34224  290.67 0854.65
2009/04/23 12:43:00.9    -163     27     40    166    171 279.6  13.7  34214  290.50 0854.65
2009/04/23 12:43:01.0     -52     98     88    112    142 331.9  42.2  34210  290.43 0854.65
2009/04/23 12:43:01.1     -97     56     67    113    131 300.2  33.5  34196  290.18 0854.65
2009/04/23 12:43:01.2       5      6     71      8     71  39.6  90.0  34196  290.18 0854.68
2009/04/23 12:43:01.3      35    -35     67     50     83 135.0  59.4  34188  290.04 0854.68
2009/04/23 12:43:01.4      -4    -99     28    100    104 182.7  15.8  34188  290.06 0854.68
2009/04/23 12:43:01.5      14   -108     -6    109    110 172.4  -3.1  34186  290.02 0854.68
2009/04/23 12:43:01.6      62   -181     19    192    193 161.1   5.7  34196  290.18 0854.68
2009/04/23 12:43:01.7      23   -165    -45    167    172 172.0 -20.0  34190  290.08 0854.68
2009/04/23 12:43:01.8     -88   -106     18    138    140 219.6   7.5  34184  289.97 0854.68
2009/04/23 12:43:01.9     -46    -70     91     84    123 213.4  52.2  34190  290.09 0854.68
2009/04/23 12:43:02.0      -4    -62     76     63     98 184.4  56.3  34192  290.11 0854.68
2009/04/23 12:43:02.1     -40   -124     67    131    147 197.8  29.2  34192  290.11 0854.72
2009/04/23 12:43:02.2       1   -153     25    154    157 179.5   9.5  34196  290.18 0854.72
2009/04/23 12:43:02.3     -14   -161    -46    162    169 185.1 -15.8  34194  290.16 0854.72
2009/04/23 12:43:02.4      -5   -287    101    288    306 181.0  19.4  34192  290.12 0854.72
2009/04/23 12:43:02.5     -35   -255    180    258    314 187.8  38.4  34208  290.37 0854.72
2009/04/23 12:43:02.6     -48   -236    128    242    273 191.6  30.2  34204  290.31 0854.72
2009/04/23 12:43:02.7     -66   -277     97    285    302 193.4  18.9  34202  290.29 0854.72
2009/04/23 12:43:02.8     -61   -241     64    249    258 194.3  14.5  34204  290.31 0854.72
2009/04/23 12:43:02.9     -49   -184     75    191    205 195.1  22.8  34202  290.28 0854.72
2009/04/23 12:43:03.0     -90   -128     66    157    170 215.2  24.1  34198  290.23 0854.72
2009/04/23 12:43:03.1      -5   -122    113    123    167 182.7  47.5  34198  290.23 0854.72
2009/04/23 12:43:03.2      15   -198    151    199    249 175.6  41.2  34194  290.15 0854.72
2009/04/23 12:43:03.3     -53   -193    112    201    230 195.4  31.4  34192  290.11 0854.72
2009/04/23 12:43:03.4       3   -210     89    211    229 179.1  24.3  34196  290.18 0854.72
2009/04/23 12:43:03.5     -42   -163     92    169    192 194.5  31.3  34194  290.14 0854.72
2009/04/23 12:43:03.6     -17   -123     92    125    155 188.0  39.7  34200  290.25 0854.72
2009/04/23 12:43:03.7       0   -164     88    165    187 180.2  30.3  34196  290.19 0854.72
2009/04/23 12:43:03.8     -14   -188     93    189    210 184.5  28.0  34196  290.18 0854.72
2009/04/23 12:43:03.9     -12   -171    106    172    202 184.2  35.0  34196  290.18 0854.72
2009/04/23 12:43:04.0     -16   -183    131    184    225 185.1  39.3  34194  290.16 0854.72
2009/04/23 12:43:04.1     -10   -214     91    215    233 182.7  24.1  34196  290.18 0854.70
2009/04/23 12:43:04.2      33   -175    107    179    208 169.1  33.7  34190  290.09 0854.70
2009/04/23 12:43:04.3      12   -178    134    179    223 176.0  40.4  34182  289.94 0854.70
2009/04/23 12:43:04.4      52   -161    142    170    221 162.0  44.1  34186  290.01 0854.70
2009/04/23 12:43:04.5      27   -167    116    170    205 170.7  37.6  34188  290.04 0854.70
2009/04/23 12:43:04.6       9   -139     86    140    164 176.0  34.8  34184  289.99 0854.70
2009/04/23 12:43:04.7      58   -143     80    155    174 157.7  29.3  34186  290.02 0854.70
2009/04/23 12:43:04.8       8   -216     10    217    218 177.8   2.8  34186  290.01 0854.70
2009/04/23 12:43:04.9      20   -115     46    117    125 169.8  22.5  34182  289.94 0854.70
2009/04/23 12:43:05.0      15   -156     84    157    178 174.2  30.6  34184  289.99 0854.70
2009/04/23 12:43:05.1      38   -127     60    133    145 163.0  25.7  34184  289.99 0854.70
2009/04/23 12:43:05.2      42    -99     96    108    144 156.8  46.4  34186  290.01 0854.70
2009/04/23 12:43:05.3       8    -87    108     88    139 174.2  56.4  34184  289.97 0854.70
2009/04/23 12:43:05.4     -12   -138     77    139    158 185.3  31.6  34190  290.08 0854.70
2009/04/23 12:43:05.5       0   -148     62    149    161 180.0  23.8  34188  290.04 0854.70
2009/04/23 12:43:05.6      -9    -65    105     66    124 188.1  64.7  34182  289.96 0854.70
2009/04/23 12:43:05.7       2    -38     99     39    106 175.6  77.6  34188  290.04 0854.70
2009/04/23 12:43:05.8      -9    -11     72     15     73 219.6  89.0  34188  290.06 0854.70
2009/04/23 12:43:05.9       2     48     44     49     65   2.7  47.9  34190  290.09 0854.70
2009/04/23 12:43:06.0      10    104     22    105    108   5.8  12.2  34190  290.08 0854.70
2009/04/23 12:43:06.1      28    120     61    124    138  13.4  27.3  34186  290.01 0854.69
2009/04/23 12:43:06.2      -3    127     58    128    140 358.6  26.2  34186  290.02 0854.69
2009/04/23 12:43:06.3      42    103     61    112    127  22.3  31.3  34184  289.97 0854.69
2009/04/23 12:43:06.4      84     73     34    112    118  48.7  16.8  34186  290.01 0854.69
2009/04/23 12:43:06.5      83     68     63    108    125  50.4  33.4  34190  290.08 0854.69
2009/04/23 12:43:06.6      74     69     53    102    114  47.3  29.8  34194  290.16 0854.69
2009/04/23 12:43:06.7      82     39     86     91    125  64.6  49.0  34196  290.19 0854.69
2009/04/23 12:43:06.8     104     18     84    106    135  79.9  42.7  34222  290.62 0854.69
2009/04/23 12:43:06.9     -17     58     85     61    104 343.1  60.6  34244  290.99 0854.69
2009/04/23 12:43:07.0     -22     68     74     72    103 341.5  50.1  34250  291.09 0854.69
2009/04/23 12:43:07.1     -60     30     83     68    107 297.1  56.4  34246  291.03 0854.69
2009/04/23 12:43:07.2     -76    120     20    143    145 327.5   8.0  34244  291.01 0854.69
2009/04/23 12:43:07.3    -111    130     78    172    188 319.5  26.4  34254  291.18 0854.69
2009/04/23 12:43:07.4     -86     91    133    126    183 316.8  51.6  34256  291.20 0854.69
2009/04/23 12:43:07.5     -56     88     93    105    140 327.5  45.9  34252  291.13 0854.69
2009/04/23 12:43:07.6      -2     83     65     84    106 358.2  41.7  34248  291.06 0854.69
2009/04/23 12:43:07.7     -23     99     31    102    107 346.6  17.3  34252  291.13 0854.69
2009/04/23 12:43:07.8      53     85      9    101    102  32.1   5.4  34256  291.21 0854.69
2009/04/23 12:43:07.9      51     66      4     84     85  37.4   2.9  34268  291.40 0854.69
2009/04/23 12:43:08.0     106     72    -28    129    133  55.8 -12.4  34288  291.74 0854.69
2009/04/23 12:43:08.1     141     91     63    169    180  57.1  21.3  34274  291.52 0854.70
2009/04/23 12:43:08.2      84    141     21    165    167  30.7   7.5  34286  291.72 0854.70
2009/04/23 12:43:08.3     147    185      4    237    238  38.5   1.0  34294  291.84 0854.70
2009/04/23 12:43:08.4     230    190     76    299    309  50.4  14.3  34300  291.96 0854.70
2009/04/23 12:43:08.5     270    232     46    357    360  49.3   7.4  34286  291.71 0854.70
2009/04/23 12:43:08.6     260    259     37    368    370  45.1   5.8  34234  290.83 0854.70
2009/04/23 12:43:08.7     287    297      1    413    414  44.0   0.2  34224  290.67 0854.70
2009/04/23 12:43:08.8     243    333     18    413    414  36.1   2.5  34240  290.94 0854.70
2009/04/23 12:43:08.9     120    217    156    249    293  29.0  35.5  34306  292.06 0854.70
2009/04/23 12:43:09.0     223    231    140    322    351  43.9  25.1  34302  291.97 0854.70
2009/04/23 12:43:09.1     346    149    257    377    456  66.7  37.6  34224  290.67 0854.70
2009/04/23 12:43:09.2     253     72    187    264    323  74.1  38.8  34204  290.32 0854.70
2009/04/23 12:43:09.3      51    153   -148    162    219  18.5 -51.9  34216  290.52 0854.70
2009/04/23 12:43:09.4      15    142   -196    143    242   6.3 -64.9  34224  290.65 0854.70
2009/04/23 12:43:09.5     269     52     73    275    285  79.0  15.0  34208  290.37 0854.70
2009/04/23 12:43:09.6     339     49    155    343    376  81.7  25.9  34200  290.25 0854.70
2009/04/23 12:43:09.7     355    119    306    375    484  71.4  43.5  34166  289.66 0854.70
2009/04/23 12:43:09.8     163     34    155    167    227  78.1  47.9  34174  289.82 0854.70
2009/04/23 12:43:09.9     238   -110     99    263    281 114.8  21.5  34166  289.68 0854.70
2009/04/23 12:43:10.0     225   -157    173    275    324 125.0  35.3  34176  289.85 0854.70
2009/04/23 12:43:10.1     251   -123    179    280    332 116.2  35.6  34196  290.17 0854.70
2009/04/23 12:43:10.2     257   -105    102    278    296 112.2  21.0  34262  291.31 0854.70
2009/04/23 12:43:10.3     317   -106     48    335    339 108.5   8.2  34254  291.17 0854.70
2009/04/23 12:43:10.4     293   -146    -29    328    330 116.6  -5.1  34248  291.06 0854.70
2009/04/23 12:43:10.5     188   -212    -84    284    297 138.3 -16.5  34230  290.76 0854.70
2009/04/23 12:43:10.6     324   -301    -47    443    446 132.9  -6.1  34224  290.67 0854.70
2009/04/23 12:43:10.7     288   -298    -68    415    421 136.0  -9.3  34236  290.87 0854.70
2009/04/23 12:43:10.8     303   -182   -116    354    372 121.0 -23.6  34208  290.40 0854.70
2009/04/23 12:43:10.9     222   -246    -34    332    334 138.0  -6.0  34238  290.88 0854.70
2009/04/23 12:43:11.0     155   -267    -80    309    320 149.9 -14.6  34228  290.71 0854.70
2009/04/23 12:43:11.1     182   -186    -24    261    263 135.7  -5.4  34198  290.22 0854.70
2009/04/23 12:43:11.2     172   -253     38    307    310 145.7   7.1  34216  290.51 0854.70
2009/04/23 12:43:11.3      96   -282     93    299    314 161.1  17.3  34196  290.19 0854.70
2009/04/23 12:43:11.4     149   -259    146    299    332 150.1  27.9  34188  290.05 0854.70
2009/04/23 12:43:11.5     135   -213    148    253    293 147.5  33.1  34194  290.14 0854.70
2009/04/23 12:43:11.6     150   -151    169    213    271 135.2  42.7  34194  290.14 0854.70
2009/04/23 12:43:11.7     232   -260    160    349    383 138.2  26.5  34186  290.01 0854.70
2009/04/23 12:43:11.8     286   -268     51    393    397 133.1   7.5  34184  289.98 0854.70
2009/04/23 12:43:11.9      50   -291    -20    296    297 170.2  -3.9  34186  290.02 0854.70
2009/04/23 12:43:12.0      90   -279    -37    294    297 162.1  -7.2  34184  289.97 0854.70
2009/04/23 12:43:12.1     130   -211    -68    248    258 148.4 -15.5  34182  289.93 0854.71
2009/04/23 12:43:12.2      85   -133   -135    159    208 147.4 -48.9  34182  289.94 0854.71
2009/04/23 12:43:12.3      87   -149   -193    173    259 149.7 -57.9  34168  289.71 0854.71
2009/04/23 12:43:12.4      12    -92   -144     93    171 172.4 -68.8  34174  289.82 0854.71
2009/04/23 12:43:12.5     131    -95   -212    163    267 126.0 -62.9  34162  289.61 0854.71
2009/04/23 12:43:12.6     174   -216   -155    278    318 141.0 -36.0  34172  289.78 0854.71
2009/04/23 12:43:12.7     182   -221    -99    287    303 140.6 -23.8  34176  289.83 0854.71
2009/04/23 12:43:12.8     136   -228   -163    266    311 149.2 -38.9  34160  289.56 0854.71
2009/04/23 12:43:12.9     159   -198   -133    255    287 141.2 -33.9  34170  289.73 0854.71
2009/04/23 12:43:13.0     252   -195    -77    319    329 127.8 -13.6  34174  289.80 0854.71
2009/04/23 12:43:13.1     123   -241    -55    271    277 152.8 -11.5  34174  289.81 0854.71
2009/04/23 12:43:13.2      35   -199    -33    203    206 170.0  -9.4  34176  289.85 0854.71
2009/04/23 12:43:13.3      61    -90     74    110    132 145.7  37.0  34174  289.80 0854.71
2009/04/23 12:43:13.4     214    -44    -34    219    222 101.7  -9.0  34168  289.72 0854.71
2009/04/23 12:43:13.5     173     94    -62    198    208  61.4 -17.6  34158  289.55 0854.71
2009/04/23 12:43:13.6     169     57    -51    179    187  71.4 -16.0  34154  289.48 0854.71
2009/04/23 12:43:13.7     194     74    -63    208    217  68.9 -21.7  34156  289.52 0854.71
2009/04/23 12:43:13.8     131     62    -77    145    164  64.6 -34.7  34146  289.33 0854.71
2009/04/23 12:43:13.9     101     19    -92    103    138  79.0 -50.8  34148  289.36 0854.71
2009/04/23 12:43:14.0     119     16    -82    121    146  82.0 -41.8  34140  289.23 0854.71
2009/04/23 12:43:14.1     115      0    -62    116    131  90.0 -34.7  34142  289.28 0854.69
2009/04/23 12:43:14.2      83     17    -41     85     94  78.1 -31.7  34146  289.33 0854.69
2009/04/23 12:43:14.3      90     -4    -28     91     95  92.6 -22.8  34146  289.35 0854.69
2009/04/23 12:43:14.4      97     -7    -42     98    106  94.4 -28.5  34142  289.26 0854.69
2009/04/23 12:43:14.5     124     11    -30    125    129  84.8 -13.9  34140  289.24 0854.69
2009/04/23 12:43:14.6     119      9    -14    120    121  85.6  -6.7  34142  289.26 0854.69
2009/04/23 12:43:14.7     104    -25     -4    108    109 103.7  -2.2  34142  289.26 0854.69
2009/04/23 12:43:14.8     102    -47     26    113    117 114.8  13.2  34144  289.31 0854.69
2009/04/23 12:43:14.9      76    -56     15     95     97 126.4   9.5  34144  289.30 0854.69
2009/04/23 12:43:15.0      63    -48     -1     80     81 127.8  -1.3  34142  289.28 0854.69
2009/04/23 12:43:15.1      47    -68    -29     83     89 145.3 -19.7  34142  289.26 0854.69
2009/04/23 12:43:15.2      26    -73    -27     78     82 160.0 -23.8  34144  289.30 0854.69
2009/04/23 12:43:15.3      40    -61    -29     74     79 146.6 -26.4  34144  289.31 0854.69
2009/04/23 12:43:15.4      51    -64    -31     83     88 141.3 -25.4  34144  289.30 0854.69
2009/04/23 12:43:15.5      54    -54    -26     77     81 135.0 -23.6  34144  289.30 0854.69
2009/04/23 12:43:15.6      42    -38     14     57     59 132.2  14.3  34146  289.33 0854.69
2009/04/23 12:43:15.7      38    -38      5     54     55 135.0   5.9  34142  289.28 0854.69
2009/04/23 12:43:15.8      25    -25     10     36     38 135.0  15.3  34146  289.33 0854.69
2009/04/23 12:43:15.9      28     -9    -12     30     32 108.2 -27.4  34144  289.31 0854.69
2009/04/23 12:43:16.0      35      7     -4     36     37  78.5  -7.3  34144  289.30 0854.69
2009/04/23 12:43:16.1       1     15     39     16     42   4.5  77.1  34148  289.36 0854.68
2009/04/23 12:43:16.2       5      1     25      6     25  71.6  86.9  34150  289.40 0854.68
2009/04/23 12:43:16.3     -27     22     20     36     41 309.6  31.4  34148  289.36 0854.68
2009/04/23 12:43:16.4     -55     31     26     64     69 299.8  23.0  34150  289.41 0854.68
2009/04/23 12:43:16.5     -55     40     18     69     72 306.0  15.3  34146  289.35 0854.68
2009/04/23 12:43:16.6     -40     42     20     59     63 316.8  19.4  34148  289.38 0854.68
2009/04/23 12:43:16.7     -47      6    -10     48     50 277.9 -12.4  34146  289.35 0854.68
2009/04/23 12:43:16.8     -58      7    -21     59     63 277.0 -19.6  34148  289.36 0854.68
2009/04/23 12:43:16.9     -45     15    -24     48     53 288.4 -31.7  34152  289.43 0854.68
2009/04/23 12:43:17.0     -43     26    -16     51     53 301.5 -23.8  34158  289.53 0854.68
2009/04/23 12:43:17.1     -33     -2    -26     34     42 265.6 -46.1  34160  289.57 0854.68
2009/04/23 12:43:17.2     -20    -32    -35     38     51 212.6 -52.3  34162  289.62 0854.68
2009/04/23 12:43:17.3     -45    -15    -44     48     65 251.6 -52.3  34160  289.57 0854.68
2009/04/23 12:43:17.4     -63    -20    -49     67     83 251.8 -44.5  34152  289.45 0854.68
2009/04/23 12:43:17.5      17    -22    -49     28     56 142.2 -71.2  34150  289.41 0854.68
2009/04/23 12:43:17.6      25      1    -71     26     75  85.7 -85.6  34154  289.46 0854.68
2009/04/23 12:43:17.7      58     18    -51     61     79  72.3 -48.7  34154  289.48 0854.68
2009/04/23 12:43:17.8      66     -9     29     67     73  97.9  25.1  34156  289.52 0854.68
2009/04/23 12:43:17.9      85    -11     35     86     92  97.5  23.0  34158  289.53 0854.68
2009/04/23 12:43:18.0      92    -15     63     94    113  99.7  36.5  34158  289.55 0854.68
2009/04/23 12:43:18.1      55     -8     57     56     79  98.8  50.1  34160  289.57 0854.67
2009/04/23 12:43:18.2       2    -48     56     49     74 177.3  54.3  34164  289.63 0854.67
2009/04/23 12:43:18.3       5    -43     40     44     59 172.9  47.9  34160  289.57 0854.67
2009/04/23 12:43:18.4      28      0     35     29     45  90.8  55.4  34166  289.67 0854.67
2009/04/23 12:43:18.5      32     -8     50     34     60 105.1  62.6  34164  289.63 0854.67
2009/04/23 12:43:18.6       5    -10     47     12     48 151.0  84.9  34162  289.60 0854.67
2009/04/23 12:43:18.7      -8      8     31     12     33 313.1  81.2  34162  289.62 0854.67
2009/04/23 12:43:18.8      -7      0     51      8     51 270.0  90.0  34164  289.65 0854.67
2009/04/23 12:43:18.9     -18     -6     41     20     45 251.4  71.9  34162  289.60 0854.67
2009/04/23 12:43:19.0     -21     32     31     39     49 325.7  43.7  34162  289.62 0854.67
2009/04/23 12:43:19.1     -39     40     34     57     66 315.8  34.4  34160  289.58 0854.67
2009/04/23 12:43:19.2     -56     57     16     81     83 315.5  11.6  34156  289.50 0854.67
2009/04/23 12:43:19.3     -94     66    -10    116    117 305.1  -5.2  34158  289.55 0854.67
2009/04/23 12:43:19.4    -120     76    -32    143    147 302.5 -12.9  34162  289.60 0854.67
2009/04/23 12:43:19.5    -171     80    -79    190    205 295.2 -28.2  34156  289.52 0854.67
2009/04/23 12:43:19.6    -140     67    -62    156    167 295.8 -27.2  34154  289.46 0854.67
2009/04/23 12:43:19.7    -170    171     -7    242    243 315.2  -1.8  34160  289.56 0854.67
2009/04/23 12:43:19.8    -212    150     -7    260    261 305.3  -1.6  34158  289.54 0854.67
2009/04/23 12:43:19.9    -242    114    -10    268    269 295.3  -2.2  34160  289.58 0854.67
2009/04/23 12:43:20.0    -302     81    -65    313    320 285.0 -11.8  34154  289.46 0854.67
2009/04/23 12:43:20.1    -270    171    -59    320    326 302.4 -10.5  34154  289.46 0854.68
2009/04/23 12:43:20.2    -291     78    -96    302    316 285.0 -22.8  34154  289.47 0854.68
2009/04/23 12:43:20.3    -252    -52    -88    258    272 258.3 -23.3  34156  289.49 0854.68
2009/04/23 12:43:20.4    -234   -138    -75    272    282 239.4 -20.0  34164  289.63 0854.68
2009/04/23 12:43:20.5    -203   -143    -39    249    253 234.9  -9.0  34164  289.63 0854.68
2009/04/23 12:43:20.6    -219   -203     15    299    300 227.1   2.9  34160  289.58 0854.68
2009/04/23 12:43:20.7    -319   -134    -43    347    350 247.2  -7.2  34150  289.40 0854.68
2009/04/23 12:43:20.8    -334   -152    -38    368    370 245.5  -5.9  34152  289.43 0854.68
2009/04/23 12:43:20.9    -346   -107    -63    363    369 252.7  -9.9  34150  289.40 0854.68
2009/04/23 12:43:21.0    -343    -57   -101    348    363 260.6 -16.2  34146  289.35 0854.68
2009/04/23 12:43:21.1    -294   -150    -93    331    345 242.9 -15.8  34148  289.38 0854.68
2009/04/23 12:43:21.3    -270   -125    -92    298    311 245.2 -22.3  34148  289.36 0854.68
2009/04/23 12:43:21.4    -263    -65   -132    271    301 256.1 -31.8  34154  289.47 0854.68
2009/04/23 12:43:21.5    -282    -39   -154    285    323 262.1 -35.0  34150  289.41 0854.68
2009/04/23 12:43:21.6    -353     13   -129    354    376 272.1 -25.3  34152  289.43 0854.68
2009/04/23 12:43:21.7    -384    -54   -163    388    420 262.0 -28.6  34152  289.44 0854.68
2009/04/23 12:43:21.8    -359   -142    -85    387    397 248.3 -12.5  34154  289.48 0854.68
2009/04/23 12:43:21.9    -266   -240    -62    359    365 228.0  -9.9  34154  289.48 0854.68
2009/04/23 12:43:22.0    -272   -171    -98    322    337 237.8 -16.9  34156  289.50 0854.68
2009/04/23 12:43:22.1    -293   -139   -161    325    362 244.5 -32.6  34162  289.59 0854.68
2009/04/23 12:43:22.2    -208   -208   -112    295    315 225.1 -26.1  34158  289.54 0854.67
2009/04/23 12:43:22.3    -195   -201    -89    281    294 224.1 -22.8  34160  289.56 0854.67
2009/04/23 12:43:22.4    -130   -184    -84    226    241 215.2 -25.7  34154  289.46 0854.67
2009/04/23 12:43:22.5     -17   -208    -41    209    214 184.9 -11.1  34154  289.48 0854.67
2009/04/23 12:43:22.6     -28   -252    -38    254    257 186.5  -8.6  34156  289.49 0854.67
2009/04/23 12:43:22.7    -159   -212    -18    266    267 216.9  -3.9  34152  289.44 0854.67
2009/04/23 12:43:22.8    -215   -167    -77    273    284 232.2 -15.8  34158  289.54 0854.67
2009/04/23 12:43:22.9    -261   -112    -78    285    296 246.7 -15.4  34154  289.47 0854.67
2009/04/23 12:43:23.0    -251   -118    -71    278    288 244.8 -14.4  34158  289.53 0854.67
2009/04/23 12:43:23.1    -256    -74    -78    267    278 253.8 -21.0  34152  289.42 0854.67
2009/04/23 12:43:23.2    -295    -12    -97    296    311 267.6 -23.8  34168  289.71 0854.67
2009/04/23 12:43:23.3    -244      4   -144    245    284 271.0 -37.8  34168  289.70 0854.67
2009/04/23 12:43:23.4    -221    -52   -166    228    282 256.8 -44.1  34162  289.61 0854.67
2009/04/23 12:43:23.5    -115   -177   -257    212    333 213.0 -60.8  34166  289.66 0854.67
2009/04/23 12:43:23.6     -90   -128   -285    157    325 215.2 -73.2  34156  289.49 0854.67
2009/04/23 12:43:23.7    -319     32   -182    321    369 275.9 -36.5  34154  289.48 0854.67
2009/04/23 12:43:23.8    -151    -44    -98    158    185 253.6 -39.6  34156  289.52 0854.67
2009/04/23 12:43:23.9    -190    -54    -81    198    213 254.1 -27.5  34158  289.53 0854.67
2009/04/23 12:43:24.0    -155    -31   -138    159    210 258.5 -50.0  34158  289.55 0854.67
2009/04/23 12:43:24.1     -75      1   -120     76    142 270.8 -69.1  34168  289.72 0854.67
2009/04/23 12:43:24.2      10    -33    -33     35     48 163.1 -54.4  34168  289.72 0854.67
2009/04/23 12:43:24.3      49    -83     14     97     99 149.3   8.5  34166  289.67 0854.67
2009/04/23 12:43:24.4      15    -70    120     72    139 167.5  66.7  34166  289.69 0854.67
2009/04/23 12:43:24.5     -34   -124    115    129    172 195.6  46.6  34162  289.62 0854.67
2009/04/23 12:43:24.6      55   -163     80    173    190 161.3  27.0  34164  289.63 0854.67
2009/04/23 12:43:24.7      53    -99     22    113    116 151.9  11.0  34166  289.67 0854.67
2009/04/23 12:43:24.8     -27   -168    101    171    198 189.3  33.5  34168  289.70 0854.67
2009/04/23 12:43:24.9     -67   -156     81    170    188 203.4  27.3  34164  289.65 0854.67
2009/04/23 12:43:25.0     -23   -128    119    131    176 190.2  47.1  34168  289.70 0854.67
2009/04/23 12:43:25.1      -7    -84     95     85    127 184.9  53.7  34168  289.70 0854.67
2009/04/23 12:43:25.2       5      0     88      6     88  90.0  90.0  34172  289.79 0854.64
2009/04/23 12:43:25.3     -22     35     67     42     79 328.4  65.1  34174  289.82 0854.64
2009/04/23 12:43:25.4     -44     17     79     48     92 291.7  65.7  34174  289.80 0854.64
2009/04/23 12:43:25.5     -41     26     77     49     91 302.4  64.7  34174  289.80 0854.64
2009/04/23 12:43:25.6       0     25     54     26     59 359.1  72.8  34172  289.77 0854.64
2009/04/23 12:43:25.7     -10      6     49     13     50 302.4  84.9  34172  289.79 0854.64
2009/04/23 12:43:25.8      -2    -25     44     26     51 184.5  65.7  34176  289.84 0854.64
2009/04/23 12:43:25.9     -13    -51     33     53     62 194.3  35.5  34170  289.74 0854.64
2009/04/23 12:43:26.0     -59    -53     -8     80     81 228.2  -6.2  34164  289.63 0854.64
2009/04/23 12:43:26.1     -71    -16    -27     73     77 256.7 -24.4  34164  289.63 0854.64
2009/04/23 12:43:26.2     -82     -6    -26     83     86 265.6 -22.8  34162  289.62 0854.64
2009/04/23 12:43:26.3     -96     32    -40    102    109 288.4 -26.9  34162  289.62 0854.64
2009/04/23 12:43:26.4    -105     35    -37    111    118 288.6 -18.7  34164  289.65 0854.64
2009/04/23 12:43:26.5    -161     48     -6    169    170 286.8  -2.2  34164  289.63 0854.64
2009/04/23 12:43:26.6    -212     64    -20    222    223 286.9  -5.2  34162  289.62 0854.64
2009/04/23 12:43:26.7    -268    138      4    302    303 297.3   0.8  34160  289.58 0854.64
2009/04/23 12:43:26.8    -245    193    -12    313    314 308.2  -2.2  34160  289.56 0854.64
2009/04/23 12:43:26.9    -235    165    -31    288    290 305.1  -6.2  34166  289.66 0854.64
2009/04/23 12:43:27.0    -355    146    -84    385    395 292.4 -12.4  34160  289.57 0854.64
2009/04/23 12:43:27.1    -393     79    -93    401    412 281.4 -13.2  34154  289.46 0854.64
2009/04/23 12:43:27.2    -400    196    -93    446    456 296.2 -11.8  34138  289.19 0854.63
2009/04/23 12:43:27.3    -352    215    -74    413    420 301.5 -10.2  34140  289.24 0854.63
2009/04/23 12:43:27.4    -440    195    -67    482    487 294.0  -8.0  34142  289.27 0854.63
2009/04/23 12:43:27.5    -457    215     15    506    507 295.2   1.8  34152  289.45 0854.63
2009/04/23 12:43:27.6    -437    309     28    536    537 305.2   3.0  34142  289.28 0854.63
2009/04/23 12:43:27.7    -400    400   -140    567    585 315.0 -13.9  34140  289.22 0854.63
2009/04/23 12:43:27.8    -386    405   -137    560    577 316.4 -13.8  34132  289.10 0854.63
2009/04/23 12:43:27.9    -472    416   -125    630    643 311.4 -11.2  34146  289.33 0854.63
2009/04/23 12:43:28.0    -521    307   -139    605    621 300.5 -13.0  34146  289.35 0854.63
2009/04/23 12:43:28.1    -634    283   -186    695    720 294.1 -15.1  34148  289.37 0854.63
2009/04/23 12:43:28.2    -563    234   -163    610    632 292.6 -15.0  34144  289.31 0854.63
2009/04/23 12:43:28.3    -521    255   -160    581    603 296.1 -15.4  34146  289.32 0854.63
2009/04/23 12:43:28.4    -465    208   -161    510    536 294.1 -17.6  34150  289.40 0854.63
2009/04/23 12:43:28.5    -442    192   -198    482    521 293.5 -28.0  34142  289.25 0854.63
2009/04/23 12:43:28.6    -468    136   -230    488    539 286.3 -31.5  34148  289.36 0854.63
2009/04/23 12:43:28.7    -534    134   -216    551    591 284.2 -26.9  34148  289.37 0854.63
2009/04/23 12:43:28.8    -479    175   -276    511    580 290.1 -35.1  34142  289.26 0854.63
2009/04/23 12:43:28.9    -480     82   -280    487    561 279.7 -36.8  34156  289.50 0854.63
2009/04/23 12:43:29.0    -346    325   -232    476    529 313.2 -32.3  34140  289.23 0854.63
2009/04/23 12:43:29.1    -348    227    -87    416    426 303.1 -11.9  34168  289.70 0854.65
2009/04/23 12:43:29.2    -252    211   -169    329    369 309.9 -33.7  34144  289.30 0854.65
2009/04/23 12:43:29.3    -346    113   -167    365    401 288.2 -30.8  34158  289.55 0854.65
2009/04/23 12:43:29.4    -334    133   -165    360    396 291.7 -30.6  34140  289.23 0854.65
2009/04/23 12:43:29.5    -310    141   -171    341    381 294.5 -33.0  34142  289.25 0854.65
2009/04/23 12:43:29.6    -313    163   -157    353    386 297.5 -30.0  34146  289.32 0854.65
2009/04/23 12:43:29.7    -299    194   -239    357    429 303.0 -41.6  34142  289.27 0854.65
2009/04/23 12:43:29.8    -284    189   -201    342    396 303.7 -37.5  34150  289.40 0854.65
2009/04/23 12:43:29.9    -354    214   -264    414    491 301.2 -40.0  34140  289.23 0854.65
2009/04/23 12:43:30.0    -396    238   -299    463    551 301.0 -40.3  34146  289.35 0854.65
2009/04/23 12:43:30.1    -413    168   -302    447    539 292.2 -41.8  34144  289.30 0854.65
2009/04/23 12:43:30.2    -418    174   -188    453    490 292.6 -28.2  34152  289.45 0854.65
2009/04/23 12:43:30.3    -365    137   -196    391    437 290.6 -33.0  34144  289.31 0854.65
2009/04/23 12:43:30.4    -312    173   -182    357    400 299.0 -33.6  34142  289.26 0854.65
2009/04/23 12:43:30.5    -337    214   -189    400    442 302.4 -31.5  34144  289.29 0854.65
2009/04/23 12:43:30.6    -321    172   -131    365    388 298.2 -19.8  34144  289.30 0854.65
2009/04/23 12:43:30.7    -288    228   -170    368    405 308.4 -30.9  34144  289.30 0854.65
2009/04/23 12:43:30.8    -280    215   -173    354    394 307.5 -32.4  34142  289.26 0854.65
2009/04/23 12:43:30.9    -362    184   -126    407    427 297.0 -17.3  34154  289.46 0854.65
2009/04/23 12:43:31.0    -366    276     22    459    460 307.0   2.8  34162  289.60 0854.65
2009/04/23 12:43:31.1    -413    262    -57    490    494 302.4  -6.7  34146  289.35 0854.67
2009/04/23 12:43:31.2    -423    215    -63    475    480 297.0  -7.6  34146  289.35 0854.67
2009/04/23 12:43:31.3    -291    152    -88    329    341 297.7 -15.0  34148  289.37 0854.67
2009/04/23 12:43:31.4     -68    201   -194    213    288 341.3 -51.4  34152  289.42 0854.67
2009/04/23 12:43:31.5    -122    256   -259    284    384 334.4 -51.5  34146  289.33 0854.67
2009/04/23 12:43:31.6    -198    261   -245    328    409 322.8 -44.8  34142  289.28 0854.67
2009/04/23 12:43:31.7    -199    160   -189    256    318 308.9 -44.5  34148  289.37 0854.67
2009/04/23 12:43:31.8    -163    170   -167    236    289 316.3 -43.0  34146  289.32 0854.67
2009/04/23 12:43:31.9     -88    154   -140    178    226 330.4 -46.8  34146  289.35 0854.67
2009/04/23 12:43:32.0    -101    155   -110    186    216 327.0 -37.9  34144  289.31 0854.67
2009/04/23 12:43:32.1    -114    137    -96    179    203 320.4 -35.0  34146  289.33 0854.67
2009/04/23 12:43:32.2    -127    107    -82    167    186 310.2 -32.2  34146  289.33 0854.67
2009/04/23 12:43:32.3    -133     95   -102    164    193 305.7 -39.9  34144  289.30 0854.67
2009/04/23 12:43:32.4    -137     78    -90    158    181 299.8 -36.8  34146  289.35 0854.67
2009/04/23 12:43:32.5    -107     61    -93    124    155 299.8 -44.5  34146  289.35 0854.67
2009/04/23 12:43:32.6    -115     95    -67    150    164 309.6 -30.1  34146  289.35 0854.67
2009/04/23 12:43:32.7    -114    143    -65    184    195 321.5 -24.4  34146  289.35 0854.67
2009/04/23 12:43:32.8    -165    124    -60    207    216 307.1 -16.4  34146  289.33 0854.67
2009/04/23 12:43:32.9    -116    141    -48    183    190 320.6 -14.7  34144  289.31 0854.67
2009/04/23 12:43:33.0    -123    114    -65    168    180 312.9 -26.4  34144  289.31 0854.67
2009/04/23 12:43:33.1    -138    130    -79    190    205 313.3 -28.2  34144  289.31 0854.69
2009/04/23 12:43:33.2     -96     79    -46    125    133 309.5 -25.3  34146  289.35 0854.69
2009/04/23 12:43:33.3     -94     94    -49    133    141 315.0 -25.4  34146  289.35 0854.69
2009/04/23 12:43:33.4    -102     94     -6    139    140 312.7  -2.6  34146  289.35 0854.69
2009/04/23 12:43:33.5     -72     87    -65    113    130 320.4 -37.3  34148  289.36 0854.69
2009/04/23 12:43:33.6     -90     84    -83    124    149 313.1 -41.4  34146  289.35 0854.69
2009/04/23 12:43:33.7     -95     99    -84    138    161 316.3 -38.6  34146  289.35 0854.69
2009/04/23 12:43:33.8     -59    113    -65    128    143 332.4 -33.6  34148  289.38 0854.69
2009/04/23 12:43:33.9     -95     46    -74    106    129 295.8 -42.4  34148  289.36 0854.69
2009/04/23 12:43:34.0     -96    107    -51    144    152 318.1 -23.8  34148  289.36 0854.69
2009/04/23 12:43:34.1    -140    131    -81    193    209 313.1 -28.7  34152  289.43 0854.69
2009/04/23 12:43:34.2    -304    168   -113    348    367 299.0 -18.1  34146  289.35 0854.69
2009/04/23 12:43:34.3    -357    120   -183    377    419 288.6 -32.2  34146  289.34 0854.69
2009/04/23 12:43:34.4    -223    206   -109    304    324 312.7 -19.8  34154  289.47 0854.69
2009/04/23 12:43:34.5    -294    228   -110    373    390 307.8 -16.5  34146  289.35 0854.69
2009/04/23 12:43:34.6    -267    240   -172    360    398 311.9 -31.7  34152  289.42 0854.69
2009/04/23 12:43:34.7    -371    244   -194    445    485 303.3 -29.5  34150  289.39 0854.69
2009/04/23 12:43:34.8    -391    170   -260    427    499 293.5 -38.6  34154  289.47 0854.69
2009/04/23 12:43:34.9    -165     54   -197    174    262 288.2 -58.4  34158  289.54 0854.69
2009/04/23 12:43:35.0    -273    -37    -61    276    283 262.1 -12.6  34158  289.54 0854.69
2009/04/23 12:43:35.1    -411     30   -106    413    427 274.3 -14.5  34154  289.46 0854.69
2009/04/23 12:43:35.2    -349    171   -137    389    412 296.2 -24.5  34150  289.39 0854.69
2009/04/23 12:43:35.3    -331    143   -148    361    390 293.4 -28.0  34150  289.40 0854.69
2009/04/23 12:43:35.4    -292    112   -206    313    374 291.1 -40.8  34150  289.40 0854.69
2009/04/23 12:43:35.5    -261     30   -267    263    374 276.6 -54.8  34154  289.48 0854.69
2009/04/23 12:43:35.6    -224     -1   -277    225    356 269.6 -61.3  34154  289.47 0854.69
2009/04/23 12:43:35.7     -45    -25   -199     52    205 241.1 -89.8  34154  289.48 0854.69
2009/04/23 12:43:35.8     -76     25   -139     81    160 288.4 -71.6  34154  289.46 0854.69
2009/04/23 12:43:35.9    -187    -35   -158    191    247 259.2 -48.1  34152  289.43 0854.69
2009/04/23 12:43:36.0    -212    -31    -88    215    232 261.6 -27.5  34144  289.30 0854.69
2009/04/23 12:43:36.1     -93    -42    -90    103    136 245.6 -50.2  34150  289.41 0854.69
2009/04/23 12:43:36.2      -2    -24   -134     25    136 186.2 -90.0  34152  289.45 0854.69
2009/04/23 12:43:36.3     -73     35   -140     82    162 295.8 -71.2  34154  289.46 0854.69
2009/04/23 12:43:36.4    -137    -47   -155    146    212 250.9 -56.4  34152  289.43 0854.69
2009/04/23 12:43:36.5    -158    -99   -119    187    221 237.8 -39.9  34152  289.45 0854.69
2009/04/23 12:43:36.6    -137     52    -50    147    155 290.8 -23.3  34152  289.45 0854.69
2009/04/23 12:43:36.7    -106     21    -95    109    144 281.4 -50.2  34152  289.45 0854.69
2009/04/23 12:43:36.8    -111     22   -100    114    151 281.5 -50.2  34152  289.45 0854.69
2009/04/23 12:43:36.9     -59     92    -79    110    135 327.4 -43.5  34160  289.58 0854.69
2009/04/23 12:43:37.0     -69    163    -89    178    199 337.1 -33.1  34182  289.94 0854.69
2009/04/23 12:43:37.1     -80    159    -64    179    190 333.3 -24.4  34174  289.80 0854.70
2009/04/23 12:43:37.2     -85    109    -40    139    144 322.2 -21.2  34174  289.82 0854.70
2009/04/23 12:43:37.3     -27    137    -40    140    145 348.5 -20.7  34180  289.92 0854.70
2009/04/23 12:43:37.4      -9    171    -65    172    183 356.9 -25.9  34182  289.96 0854.70
2009/04/23 12:43:37.5      49    130    -69    140    156  20.9 -31.7  34164  289.65 0854.70
2009/04/23 12:43:37.6     120    165    -48    205    211  36.0 -13.3  34156  289.50 0854.70
2009/04/23 12:43:37.7     150    204     61    254    262  36.3  13.7  34160  289.56 0854.70
2009/04/23 12:43:37.8     159    235     39    284    287  34.1   8.0  34184  289.98 0854.70
2009/04/23 12:43:37.9     183    149    -42    237    241  50.9 -10.3  34158  289.53 0854.70
2009/04/23 12:43:38.0     224    123    -57    256    263  61.1 -12.6  34162  289.61 0854.70
2009/04/23 12:43:38.1     187    118    -78    222    236  57.6 -19.4  34170  289.75 0854.70
2009/04/23 12:43:38.2     232    125    -77    264    276  61.6 -16.4  34174  289.81 0854.70
2009/04/23 12:43:38.3     175    115     -8    210    211  56.7  -2.2  34168  289.72 0854.70
2009/04/23 12:43:38.4     196    203     55    283    289  44.1  11.1  34196  290.19 0854.70
2009/04/23 12:43:38.5     155    211    100    262    280  36.3  22.0  34228  290.71 0854.70
2009/04/23 12:43:38.6     182    116    -22    216    218  57.5  -6.0  34178  289.87 0854.70
2009/04/23 12:43:38.7     240    116    -51    267    272  64.2 -10.9  34162  289.61 0854.70
2009/04/23 12:43:38.8     290    215   -103    362    377  53.4 -15.9  34200  290.25 0854.70
2009/04/23 12:43:38.9     327    205      2    387    388  57.9   0.4  34214  290.49 0854.70
2009/04/23 12:43:39.0     331    149    133    364    387  65.7  20.9  34280  291.62 0854.70
2009/04/23 12:43:39.1     273     79     97    285    302  73.8  18.9  34288  291.73 0854.69
2009/04/23 12:43:39.2     269    109     82    291    303  67.8  15.8  34292  291.82 0854.69
2009/04/23 12:43:39.3     241    153     47    286    290  57.6   9.3  34272  291.46 0854.69
2009/04/23 12:43:39.4     213    124     60    247    255  59.8  13.7  34286  291.72 0854.69
2009/04/23 12:43:39.5     294    148      9    330    331  63.2   1.6  34218  290.55 0854.69
2009/04/23 12:43:39.6     264    202      4    333    334  52.5   0.7  34206  290.35 0854.69
2009/04/23 12:43:39.7     248    193     23    315    316  52.2   4.2  34238  290.90 0854.69
2009/04/23 12:43:39.8     324     99    -18    339    340  73.0  -3.1  34220  290.60 0854.69
2009/04/23 12:43:39.9     331    137     73    359    367  67.4  11.5  34238  290.88 0854.69
2009/04/23 12:43:40.0     287     65    104    295    313  77.2  19.5  34306  292.04 0854.69
2009/04/23 12:43:40.1     348     80    180    358    400  77.0  28.7  34216  290.52 0854.69
2009/04/23 12:43:40.2     255     51    190    261    322  78.5  39.8  34188  290.05 0854.69
2009/04/23 12:43:40.3      35     11    139     37    143  71.8  84.9  34188  290.04 0854.69
2009/04/23 12:43:40.4     -50    149     88    158    180 341.5  31.4  34186  290.02 0854.69
2009/04/23 12:43:40.5      62    233    155    242    287  14.9  35.6  34172  289.76 0854.69
2009/04/23 12:43:40.6     265    231    -19    352    353  49.0  -3.2  34180  289.91 0854.69
2009/04/23 12:43:40.7     183    196    -89    269    284  43.0 -18.3  34172  289.78 0854.69
2009/04/23 12:43:40.8     208    263     73    336    345  38.4  12.4  34218  290.54 0854.69
2009/04/23 12:43:40.9     180    217     57    283    289  39.6  11.4  34218  290.56 0854.69
2009/04/23 12:43:41.0     234    159     12    284    285  55.8   2.5  34190  290.09 0854.69
2009/04/23 12:43:41.1     239    108     11    263    264  65.6   2.5  34214  290.49 0854.70
2009/04/23 12:43:41.2     270    137     57    303    309  63.0  10.8  34240  290.92 0854.70
2009/04/23 12:43:41.3     381    153    100    411    423  68.0  13.7  34288  291.74 0854.70
2009/04/23 12:43:41.4     399    139     85    423    432  70.7  11.4  34246  291.02 0854.70
2009/04/23 12:43:41.5     309    158    120    347    368  62.9  19.1  34234  290.83 0854.70
2009/04/23 12:43:41.6     232    175     94    291    306  52.9  17.9  34220  290.59 0854.70
2009/04/23 12:43:41.7     242    154     78    288    299  57.5  15.3  34224  290.66 0854.70
2009/04/23 12:43:41.8     246    143     77    285    296  59.8  15.2  34210  290.41 0854.70
2009/04/23 12:43:41.9     243    169     49    297    302  55.1   9.5  34198  290.22 0854.70
2009/04/23 12:43:42.0     286    247     93    379    391  49.2  13.8  34194  290.15 0854.70
2009/04/23 12:43:42.1     254    282     63    380    386  42.0   9.5  34180  289.91 0854.70
2009/04/23 12:43:42.2     189    226    103    295    313  39.9  19.4  34236  290.85 0854.70
2009/04/23 12:43:42.3     134    223    117    261    286  31.0  25.9  34238  290.90 0854.70
2009/04/23 12:43:42.4     116    189    124    222    254  31.6  31.6  34228  290.73 0854.70
2009/04/23 12:43:42.5     241    220     46    327    331  47.7   8.1  34224  290.66 0854.70
2009/04/23 12:43:42.6     345    226    113    413    429  56.7  15.3  34234  290.84 0854.70
2009/04/23 12:43:42.7     101    333    156    349    382  16.9  25.7  34294  291.86 0854.70
2009/04/23 12:43:42.8     192    249    141    315    345  37.6  25.9  34268  291.39 0854.70
2009/04/23 12:43:42.9     230    174     74    289    299  52.9  14.5  34216  290.53 0854.70
2009/04/23 12:43:43.0     295    194     63    354    360  56.6  10.2  34166  289.67 0854.70
2009/04/23 12:43:43.1     285    225     48    364    368  51.7   7.6  34176  289.84 0854.70
2009/04/23 12:43:43.2     285    129     44    314    318  65.6   8.1  34228  290.73 0854.70
2009/04/23 12:43:43.3     249    147     36    290    293  59.4   7.2  34194  290.15 0854.70
2009/04/23 12:43:43.4     160    193      9    251    252  39.6   2.1  34184  289.97 0854.70
2009/04/23 12:43:43.5     199    200    -11    283    284  44.8  -2.2  34194  290.14 0854.70
2009/04/23 12:43:43.6     185    197     45    271    275  43.2   9.5  34188  290.05 0854.70
2009/04/23 12:43:43.7     208    187     20    280    281  48.0   4.2  34196  290.17 0854.70
2009/04/23 12:43:43.8     172    191     86    258    273  41.9  18.6  34212  290.46 0854.70
2009/04/23 12:43:43.9      89    216     -1    234    235  22.5  -0.3  34258  291.22 0854.70
2009/04/23 12:43:44.0     133    120     66    180    191  48.0  21.0  34200  290.25 0854.70
2009/04/23 12:43:44.1     163     95     68    189    200  59.6  20.4  34188  290.04 0854.74
2009/04/23 12:43:44.2     203    190     99    279    296  46.9  20.2  34184  289.98 0854.74
2009/04/23 12:43:44.3     247    224     91    334    347  47.8  15.3  34176  289.84 0854.74
2009/04/23 12:43:44.4     247    202     64    320    327  50.7  11.3  34176  289.85 0854.74
2009/04/23 12:43:44.5     173    204     57    268    275  40.3  12.0  34180  289.90 0854.74
2009/04/23 12:43:44.6     163    204     15    262    263  38.7   3.3  34184  289.98 0854.74
2009/04/23 12:43:44.7     120    208      4    241    242  29.9   1.0  34190  290.09 0854.74
2009/04/23 12:43:44.8     166     97     19    193    194  59.8   5.7  34184  289.97 0854.74
2009/04/23 12:43:44.9     124     36     25    130    133  73.6  11.1  34188  290.06 0854.74
2009/04/23 12:43:45.0     170      8      1    171    172  87.2   0.5  34222  290.62 0854.74
2009/04/23 12:43:45.1     176     89      5    198    199  63.1   1.6  34248  291.06 0854.74
2009/04/23 12:43:45.2     222     59     53    230    237  75.0  13.1  34218  290.54 0854.74
2009/04/23 12:43:45.3     254    178    109    311    330  55.0  19.3  34186  290.02 0854.74
2009/04/23 12:43:45.4     162    235     56    286    292  34.7  11.1  34190  290.09 0854.74
2009/04/23 12:43:45.5     175    210    160    274    317  39.9  33.0  34200  290.26 0854.74
2009/04/23 12:43:45.6     147    207    110    254    276  35.4  25.1  34220  290.58 0854.74
2009/04/23 12:43:45.7      37    234     79    238    252   9.1  18.5  34220  290.59 0854.74
2009/04/23 12:43:45.8      87    253    106    268    288  19.1  23.0  34230  290.75 0854.74
2009/04/23 12:43:45.9      98    206    113    229    255  25.5  28.2  34224  290.65 0854.74
2009/04/23 12:43:46.0     167    229    122    284    309  36.1  25.1  34192  290.12 0854.74
2009/04/23 12:43:46.1     363    184    -43    407    410  63.1  -6.1  34182  289.95 0854.77
2009/04/23 12:43:46.2     299    197    103    359    374  56.6  16.1  34210  290.42 0854.77
2009/04/23 12:43:46.3     318    138     34    347    349  66.5   5.7  34172  289.76 0854.77
2009/04/23 12:43:46.4     288    147     78    324    334  62.9  13.5  34210  290.42 0854.77
2009/04/23 12:43:46.5     322    209    123    385    405  57.0  17.7  34172  289.79 0854.77
2009/04/23 12:43:46.6     393    186     52    436    440  64.6   6.9  34194  290.14 0854.77
2009/04/23 12:43:46.7     310    108     73    329    338  70.7  12.6  34192  290.10 0854.77
2009/04/23 12:43:46.8     326    -10     53    327    332  91.9   9.3  34214  290.49 0854.77
2009/04/23 12:43:46.9     337     56    148    342    372  80.6  25.0  34230  290.77 0854.77
2009/04/23 12:43:47.0     277    163    144    322    352  59.5  25.8  34248  291.05 0854.77
2009/04/23 12:43:47.1     332    136    222    359    422  67.7  34.6  34228  290.73 0854.77
2009/04/23 12:43:47.2     258     90    181    274    328  70.7  36.5  34220  290.59 0854.77
2009/04/23 12:43:47.3     231     46    161    236    285  78.6  37.6  34214  290.48 0854.77
2009/04/23 12:43:47.4     191    -29    206    194    282  98.8  52.0  34212  290.46 0854.77
2009/04/23 12:43:47.5     250     26     92    252    268  83.9  20.9  34208  290.39 0854.77
2009/04/23 12:43:47.6     195    -55     82    203    218 105.9  23.0  34214  290.50 0854.77
2009/04/23 12:43:47.7     233    -15     83    234    248  93.9  20.0  34216  290.51 0854.77
2009/04/23 12:43:47.8     254     35    101    257    276  82.1  22.8  34236  290.85 0854.77
2009/04/23 12:43:47.9     267    126    137    296    326  64.6  26.5  34192  290.12 0854.77
2009/04/23 12:43:48.0     287    158    147    328    359  61.2  25.7  34202  290.28 0854.77
2009/04/23 12:43:48.1     237    166    164    290    333  54.9  31.9  34218  290.54 0854.78
2009/04/23 12:43:48.2     310    147    128    344    367  64.6  21.3  34202  290.27 0854.78
2009/04/23 12:43:48.3     347    174    136    389    413  63.4  19.3  34220  290.60 0854.78
2009/04/23 12:43:48.4     268    153    101    309    326  60.3  18.1  34232  290.80 0854.78
2009/04/23 12:43:48.5     231    132    195    267    330  60.3  39.8  34280  291.61 0854.78
2009/04/23 12:43:48.6     222    127    172    256    308  60.2  37.3  34288  291.73 0854.78
2009/04/23 12:43:48.7     279     74    123    289    314  75.0  24.6  34240  290.93 0854.78
2009/04/23 12:43:48.8     281     70     90    290    304  75.8  17.3  34240  290.93 0854.78
2009/04/23 12:43:48.9     308     54    192    313    367  79.9  34.4  34258  291.22 0854.78
2009/04/23 12:43:49.0     243     77    209    256    330  72.3  43.5  34268  291.41 0854.78
2009/04/23 12:43:49.2     175     96    164    200    258  61.1  43.7  34286  291.70 0854.78
2009/04/23 12:43:49.3     159    100    177    189    258  57.8  48.0  34274  291.51 0854.78
2009/04/23 12:43:49.4     138    159    171    211    271  41.0  43.7  34286  291.72 0854.78
2009/04/23 12:43:49.5     237    150    160    281    323  57.6  32.1  34300  291.94 0854.78
2009/04/23 12:43:49.6     289     65    181    297    347  77.2  34.3  34298  291.93 0854.78
2009/04/23 12:43:49.7     374    160     68    408    414  66.8   9.5  34254  291.16 0854.78
2009/04/23 12:43:49.8     322    184    191    371    417  60.2  29.3  34278  291.58 0854.78
2009/04/23 12:43:49.9     408    152    176    436    470  69.5  23.4  34270  291.43 0854.78
2009/04/23 12:43:50.0     391    159    184    423    461  67.9  25.1  34286  291.70 0854.78
2009/04/23 12:43:50.1     415    207    142    464    486  63.5  17.0  34238  290.90 0854.78
2009/04/23 12:43:50.2     429    210      4    478    479  63.9   0.5  34192  290.12 0854.76
2009/04/23 12:43:50.3     412     61    196    417    460  81.5  27.1  34252  291.12 0854.76
2009/04/23 12:43:50.4     430    157    299    458    546  69.9  36.3  34258  291.23 0854.76
2009/04/23 12:43:50.5     491    233     50    544    547  64.6   5.3  34228  290.72 0854.76
2009/04/23 12:43:50.6     448    105     22    461    462  76.8   2.8  34194  290.16 0854.76
2009/04/23 12:43:50.7     435     33     24    437    438  85.6   3.2  34190  290.09 0854.76
2009/04/23 12:43:50.8     414    -38     58    416    421  95.3   8.0  34182  289.94 0854.76
2009/04/23 12:43:50.9     477     81     -3    484    485  80.3  -0.4  34186  290.00 0854.76
2009/04/23 12:43:51.0     402     77     -8    410    411  79.1  -1.2  34178  289.88 0854.76
2009/04/23 12:43:51.1     334     43    100    337    352  82.5  16.5  34182  289.96 0854.76
2009/04/23 12:43:51.2     406    156     66    436    442  68.9   8.7  34208  290.38 0854.76
2009/04/23 12:43:51.3     533    128    -12    549    550  76.5  -1.3  34200  290.26 0854.76
2009/04/23 12:43:51.4     465    143     60    487    491  72.8   7.1  34220  290.59 0854.76
2009/04/23 12:43:51.5     458    140     69    480    486  72.9   8.2  34212  290.44 0854.76
2009/04/23 12:43:51.6     527     98    126    537    552  79.4  13.2  34200  290.24 0854.76
2009/04/23 12:43:51.7     409     53     49    413    416  82.5   6.8  34192  290.11 0854.76
2009/04/23 12:43:51.8     359     55      4    364    365  81.2   0.7  34184  289.99 0854.76
2009/04/23 12:43:51.9     341    -33     96    343    357  95.6  15.7  34180  289.91 0854.76
2009/04/23 12:43:52.0     344    -83    130    354    377 103.6  21.0  34178  289.87 0854.76
2009/04/23 12:43:52.1     355   -143    111    383    399 112.0  16.3  34180  289.91 0854.76
2009/04/23 12:43:52.2     308   -125    113    333    352 112.1  18.8  34180  289.91 0854.74
2009/04/23 12:43:52.3     255   -121    143    283    317 115.4  28.9  34176  289.85 0854.74
2009/04/23 12:43:52.4     274   -102    156    293    331 110.4  30.5  34176  289.83 0854.74
2009/04/23 12:43:52.5     285   -115    129    308    333 112.0  23.9  34174  289.80 0854.74
2009/04/23 12:43:52.6     280    -65    171    288    334 103.2  33.5  34176  289.85 0854.74
2009/04/23 12:43:52.7     280    -46    153    284    322  99.5  30.7  34170  289.73 0854.74
2009/04/23 12:43:52.8     293     -4    103    294    312  90.8  19.3  34172  289.76 0854.74
2009/04/23 12:43:52.9     340    -46    156    344    377  97.8  26.2  34178  289.86 0854.74
2009/04/23 12:43:53.0     309     26    181    311    359  85.0  33.0  34178  289.87 0854.74
2009/04/23 12:43:53.1     364      5    245    365    439  89.2  37.2  34178  289.88 0854.74
2009/04/23 12:43:53.2     382    -46    172    385    421  96.9  25.8  34176  289.85 0854.74
2009/04/23 12:43:53.3     327    -75    243    336    414 103.0  39.5  34178  289.87 0854.74
2009/04/23 12:43:53.4     293    -86    227    306    381 106.4  40.0  34174  289.81 0854.74
2009/04/23 12:43:53.5     219   -127    218    254    334 120.0  45.1  34180  289.90 0854.74
2009/04/23 12:43:53.6     142   -142    191    201    277 135.0  48.5  34202  290.29 0854.74
2009/04/23 12:43:53.7      23   -112    193    115    224 168.4  66.4  34186  290.01 0854.74
2009/04/23 12:43:53.8      91    -27    166     96    191 106.8  67.2  34190  290.08 0854.74
2009/04/23 12:43:53.9      19    -92    148     95    175 168.0  64.6  34194  290.16 0854.74
2009/04/23 12:43:54.0     161    -84    102    182    208 117.5  31.6  34200  290.25 0854.74
2009/04/23 12:43:54.1     251   -157     96    297    313 122.0  18.0  34186  290.02 0854.74
2009/04/23 12:43:54.2     332   -137     35    360    362 112.4   5.7  34186  290.01 0854.72
2009/04/23 12:43:54.3     207   -171    -54    269    275 129.5 -11.3  34184  289.97 0854.72
2009/04/23 12:43:54.4     255   -133    -47    288    292 117.5  -9.4  34188  290.05 0854.72
2009/04/23 12:43:54.5     224   -141    -53    265    271 122.2 -11.3  34190  290.09 0854.72
2009/04/23 12:43:54.6     230   -136     13    268    269 120.7   2.9  34184  289.97 0854.72
2009/04/23 12:43:54.7     214   -117     25    245    247 118.8   5.9  34184  289.98 0854.72
2009/04/23 12:43:54.8     239    -78     61    252    260 108.2  13.7  34182  289.95 0854.72
2009/04/23 12:43:54.9     202    -86     -8    220    221 113.1  -2.2  34178  289.89 0854.72
2009/04/23 12:43:55.0     113    -98    -41    150    156 130.9 -15.5  34188  290.04 0854.72
2009/04/23 12:43:55.1      97    -89    -21    132    134 132.7  -9.3  34186  290.02 0854.72
2009/04/23 12:43:55.2      76   -125    -47    147    154 148.8 -23.8  34188  290.06 0854.72
2009/04/23 12:43:55.3      67   -102    -39    123    130 146.6 -17.5  34184  289.99 0854.72
2009/04/23 12:43:55.4     132    -50    -94    142    170 110.8 -40.9  34182  289.94 0854.72
2009/04/23 12:43:55.5     106    -92    -39    141    147 130.9 -15.5  34182  289.96 0854.72
2009/04/23 12:43:55.6     206    -48      5    212    213 103.3   1.6  34184  289.97 0854.72
2009/04/23 12:43:55.7     189    -97    -44    213    218 117.3 -11.9  34184  289.99 0854.72
2009/04/23 12:43:55.8     155    -63    -93    168    192 112.2 -35.8  34182  289.96 0854.72
2009/04/23 12:43:55.9     113   -109    -39    158    163 134.0 -13.9  34186  290.01 0854.72
2009/04/23 12:43:56.0      81   -105     11    133    134 142.2   4.9  34190  290.08 0854.72
2009/04/23 12:43:56.1     100    -82     25    130    133 129.5  11.1  34190  290.09 0854.72
2009/04/23 12:43:56.2      67    -18     40     70     80 105.0  32.4  34190  290.08 0854.72
2009/04/23 12:43:56.3      50     -7     49     51     70  97.9  49.0  34194  290.14 0854.72
2009/04/23 12:43:56.4       2    -11     62     12     63 168.4  89.1  34194  290.14 0854.72
2009/04/23 12:43:56.5     -24      0     57     25     62 270.0  75.0  34196  290.18 0854.72
2009/04/23 12:43:56.6     -82    -24     50     86     99 253.2  32.9  34188  290.06 0854.72
2009/04/23 12:43:56.7    -128     -9     70    129    146 265.7  30.8  34186  290.02 0854.72
2009/04/23 12:43:56.8    -149     19     53    151    161 277.5  19.4  34188  290.06 0854.72
2009/04/23 12:43:56.9    -114     28    -33    118    123 284.2 -16.0  34190  290.08 0854.72
2009/04/23 12:43:57.0    -155      4    -46    156    163 271.5 -16.6  34188  290.06 0854.72
2009/04/23 12:43:57.1    -155    -21    -28    157    160 262.1 -10.3  34186  290.02 0854.72
2009/04/23 12:43:57.2    -149    -15     -3    150    151 263.9  -1.2  34186  290.02 0854.72
2009/04/23 12:43:57.3    -137     -7    -38    138    144 267.0 -15.5  34176  289.85 0854.72
2009/04/23 12:43:57.4    -144      3    -29    145    148 271.3 -11.3  34182  289.96 0854.72
2009/04/23 12:43:57.5    -151      0    -40    152    158 270.4 -14.7  34156  289.50 0854.72
2009/04/23 12:43:57.6    -141     43    -31    148    152 286.9 -11.9  34156  289.52 0854.72
2009/04/23 12:43:57.7    -138     37    -44    143    149 285.0 -22.3  34156  289.52 0854.72
2009/04/23 12:43:57.8    -147    -39    -93    153    179 254.9 -38.6  34158  289.53 0854.72
2009/04/23 12:43:57.9    -194    -98    -81    218    232 243.1 -25.4  34160  289.58 0854.72
2009/04/23 12:43:58.0    -235    -63   -122    244    272 255.0 -32.9  34158  289.53 0854.72
2009/04/23 12:43:58.1    -252    -19   -137    253    287 265.6 -35.2  34160  289.56 0854.72
2009/04/23 12:43:58.2    -240    -28   -162    242    291 263.2 -41.1  34156  289.49 0854.72
2009/04/23 12:43:58.3    -167     98   -169    194    257 300.4 -50.2  34156  289.51 0854.72
2009/04/23 12:43:58.4     -96     37   -172    104    200 291.3 -70.6  34166  289.69 0854.72
2009/04/23 12:43:58.5    -210     14   -170    211    270 273.9 -47.7  34170  289.75 0854.72
2009/04/23 12:43:58.6    -255     83   -100    269    286 288.2 -25.4  34178  289.88 0854.72
2009/04/23 12:43:58.7    -190     66    -52    202    209 289.3 -14.5  34178  289.87 0854.72
2009/04/23 12:43:58.8    -155    -11    -38    156    161 265.6 -13.9  34174  289.82 0854.72
2009/04/23 12:43:58.9    -145   -114    -90    185    205 231.8 -31.8  34176  289.84 0854.72
2009/04/23 12:43:59.0     -61   -129   -112    143    181 205.3 -46.6  34170  289.75 0854.72
2009/04/23 12:43:59.1      10    -68    -98     69    119 171.1 -65.9  34174  289.80 0854.72
2009/04/23 12:43:59.2      62   -154    -75    167    183 157.9 -30.1  34166  289.69 0854.72
2009/04/23 12:43:59.3     162   -121    -24    203    205 126.6  -6.9  34164  289.65 0854.72
2009/04/23 12:43:59.4     133   -111     91    174    196 129.8  29.5  34168  289.72 0854.72
2009/04/23 12:43:59.5      90   -162     97    186    209 150.8  29.5  34168  289.72 0854.72
2009/04/23 12:43:59.6      86   -181     98    201    223 154.5  27.8  34172  289.77 0854.72
2009/04/23 12:43:59.7      13   -185     69    186    198 176.0  21.0  34174  289.80 0854.72
2009/04/23 12:43:59.8      14   -132    117    133    177 173.8  46.2  34174  289.82 0854.72
2009/04/23 12:43:59.9       2   -146     96    147    175 179.1  35.7  34172  289.79 0854.72
2009/04/23 12:44:00.0     -14   -188    113    189    220 184.5  33.5  34176  289.85 0854.72
2009/04/23 12:44:00.1     -59   -134     48    147    155 203.7  18.1  34176  289.84 0854.73
2009/04/23 12:44:00.2    -126   -127     62    179    190 224.8  19.2  34174  289.80 0854.73
2009/04/23 12:44:00.3    -144   -185     38    235    239 217.9   9.3  34174  289.80 0854.73
2009/04/23 12:44:00.4     -92   -291     20    306    307 197.6   3.8  34178  289.86 0854.73
2009/04/23 12:44:00.5    -176   -227    -13    288    289 217.8  -2.6  34182  289.93 0854.73
2009/04/23 12:44:00.6    -196   -246    -54    315    320 218.5  -9.8  34184  289.98 0854.73
2009/04/23 12:44:00.7    -235   -275    -60    362    367 220.5  -9.5  34174  289.81 0854.73
2009/04/23 12:44:00.8    -202   -349    -46    404    407 210.0  -6.6  34178  289.88 0854.73
2009/04/23 12:44:00.9    -205   -265    -66    336    343 217.7 -11.1  34168  289.72 0854.73
2009/04/23 12:44:01.0    -146   -269    -32    307    309 208.5  -6.1  34162  289.61 0854.73
2009/04/23 12:44:01.1     -97   -269    -20    287    288 200.0  -4.1  34176  289.85 0854.73
2009/04/23 12:44:01.2     -90   -246    -15    263    264 200.1  -3.3  34174  289.81 0854.73
2009/04/23 12:44:01.3    -146   -187    -86    238    253 217.9 -24.8  34166  289.68 0854.73
2009/04/23 12:44:01.4    -151   -206   -149    256    296 216.3 -37.3  34170  289.73 0854.73
2009/04/23 12:44:01.5     -73   -201    -85    214    230 200.0 -27.4  34158  289.55 0854.73
2009/04/23 12:44:01.6    -154   -194    -88    248    263 218.5 -24.4  34168  289.71 0854.73
2009/04/23 12:44:01.7    -144   -219    -85    263    277 213.4 -17.9  34174  289.81 0854.73
2009/04/23 12:44:01.8     -80   -235    -51    249    255 198.9 -11.6  34176  289.85 0854.73
2009/04/23 12:44:01.9     -94   -234    -51    253    259 201.8 -11.5  34174  289.80 0854.73
2009/04/23 12:44:02.0    -189   -237   -108    304    323 218.5 -19.6  34166  289.66 0854.73
2009/04/23 12:44:02.1    -176   -176    -50    250    256 225.0 -11.5  34172  289.76 0854.73
2009/04/23 12:44:02.2    -240   -118    -82    268    280 243.8 -21.8  34166  289.66 0854.73
2009/04/23 12:44:02.3    -251   -132    -90    284    297 242.2 -22.8  34162  289.61 0854.73
2009/04/23 12:44:02.4    -213    -75    -58    226    234 250.5 -14.5  34166  289.67 0854.73
2009/04/23 12:44:02.5    -204    -68    -14    216    217 251.6  -3.9  34174  289.80 0854.73
2009/04/23 12:44:02.6    -200    -40     -9    205    206 258.5  -2.6  34168  289.72 0854.73
2009/04/23 12:44:02.7    -223    -40     50    227    233 259.6  12.6  34172  289.77 0854.73
2009/04/23 12:44:02.8    -209    -48     67    215    226 257.0  17.4  34170  289.75 0854.73
2009/04/23 12:44:02.9    -201    -88     18    220    221 246.3   4.9  34168  289.72 0854.73
2009/04/23 12:44:03.0    -200   -115    -39    231    235 240.0  -9.6  34170  289.73 0854.73
2009/04/23 12:44:03.1    -178    -70    -45    192    198 248.5 -13.4  34170  289.74 0854.73
2009/04/23 12:44:03.2    -184   -198    -54    271    277 223.0 -11.3  34160  289.58 0854.73
2009/04/23 12:44:03.3    -184   -194    -90    268    282 223.4 -23.3  34158  289.54 0854.73
2009/04/23 12:44:03.4    -156   -172   -150    233    277 222.1 -40.0  34154  289.47 0854.73
2009/04/23 12:44:03.5    -310   -125   -107    335    351 248.0 -22.9  34162  289.62 0854.73
2009/04/23 12:44:03.6    -327   -181    -79    375    384 241.0 -12.0  34162  289.59 0854.73
2009/04/23 12:44:03.7    -275   -151   -112    314    334 241.1 -19.7  34160  289.58 0854.73
2009/04/23 12:44:03.8    -248   -108    -85    271    284 246.3 -22.5  34164  289.64 0854.73
2009/04/23 12:44:03.9    -164   -162    -80    231    245 225.3 -19.1  34162  289.61 0854.73
2009/04/23 12:44:04.0    -171   -177     44    247    251 224.1  10.1  34164  289.64 0854.73
2009/04/23 12:44:04.1     -99   -201    102    225    247 206.3  26.2  34166  289.66 0854.73
2009/04/23 12:44:04.2     -87   -206     79    224    237 202.9  20.2  34166  289.66 0854.73
2009/04/23 12:44:04.3     -75   -152     65    170    182 206.3  22.0  34162  289.62 0854.73
2009/04/23 12:44:04.4       0   -219     18    220    221 180.0   4.9  34164  289.63 0854.73
2009/04/23 12:44:04.5    -117   -236    -44    264    268 206.5  -9.6  34166  289.66 0854.73
2009/04/23 12:44:04.6    -222   -185    -50    290    295 230.2  -9.8  34166  289.68 0854.73
2009/04/23 12:44:04.7    -167   -197   -105    259    279 220.3 -27.5  34164  289.64 0854.73
2009/04/23 12:44:04.8    -163   -173    -78    238    250 223.3 -23.8  34164  289.64 0854.73
2009/04/23 12:44:04.9     -68   -198    -63    210    219 198.9 -21.7  34160  289.58 0854.73
2009/04/23 12:44:05.0     -11   -182    -68    183    195 183.6 -25.1  34158  289.55 0854.73
2009/04/23 12:44:05.1      15   -186     -7    187    188 175.1  -2.2  34164  289.63 0854.72
2009/04/23 12:44:05.2      25   -127    -32    130    134 168.5 -13.9  34160  289.57 0854.72
2009/04/23 12:44:05.3     -15   -102     -4    104    105 188.5  -2.2  34158  289.55 0854.72
2009/04/23 12:44:05.4     -63   -134    -19    149    151 205.3  -7.3  34160  289.57 0854.72
2009/04/23 12:44:05.5     -59   -138    -30    151    155 203.2 -11.5  34160  289.58 0854.72
2009/04/23 12:44:05.6     -32   -128      5    133    134 194.3   2.3  34164  289.63 0854.72
2009/04/23 12:44:05.7     -43   -151     -6    158    159 196.0  -2.2  34166  289.69 0854.72
2009/04/23 12:44:05.8     -19   -141      5    143    144 188.0   2.3  34166  289.67 0854.72
2009/04/23 12:44:05.9       3   -162     -6    163    164 178.9  -2.2  34164  289.63 0854.72
2009/04/23 12:44:06.0      32   -174    -16    177    178 169.5  -5.4  34162  289.62 0854.72
2009/04/23 12:44:06.1      12   -145    -19    146    148 175.1  -7.7  34162  289.60 0854.72
2009/04/23 12:44:06.2     -35   -179    -13    183    184 191.3  -4.1  34162  289.62 0854.72
2009/04/23 12:44:06.3    -112   -195    -12    225    226 209.9  -3.1  34164  289.63 0854.72
2009/04/23 12:44:06.4    -132   -215    -60    253    261 211.6 -13.4  34162  289.61 0854.72
2009/04/23 12:44:06.5    -164   -226    -59    280    287 216.0 -11.9  34162  289.61 0854.72
2009/04/23 12:44:06.6    -133   -219    -61    257    265 211.2 -13.4  34164  289.63 0854.72
2009/04/23 12:44:06.7     -93   -180    -67    203    213 207.4 -23.8  34158  289.55 0854.72
2009/04/23 12:44:06.8     -43   -163    -90    169    191 195.1 -34.7  34158  289.55 0854.72
2009/04/23 12:44:06.9     -40   -142    -90    148    173 196.0 -39.2  34160  289.57 0854.72
2009/04/23 12:44:07.0     -48   -133    -72    142    159 200.1 -33.5  34158  289.55 0854.72
2009/04/23 12:44:07.1     -26    -98    -30    102    107 195.2 -16.6  34162  289.62 0854.72
2009/04/23 12:44:07.2     -19    -74     -9     77     78 195.1  -7.3  34164  289.65 0854.72
2009/04/23 12:44:07.3     -23    -57     -6     62     63 201.8  -6.2  34164  289.65 0854.72
2009/04/23 12:44:07.4     -43    -47    -17     64     67 222.3 -15.5  34164  289.63 0854.72
2009/04/23 12:44:07.5    -127      0    -16    128    130 270.0  -7.2  34160  289.58 0854.72
2009/04/23 12:44:07.6    -143     -2    -40    144    150 269.1 -15.5  34166  289.67 0854.72
2009/04/23 12:44:07.7    -144    -28    -48    147    155 259.0 -18.1  34164  289.63 0854.72
2009/04/23 12:44:07.8    -122    -22    -48    125    133 259.4 -25.9  34162  289.60 0854.72
2009/04/23 12:44:07.9    -111    -54    -11    124    125 243.8  -5.2  34162  289.62 0854.72
2009/04/23 12:44:08.0     -99    -44     -2    109    110 246.0  -1.3  34164  289.65 0854.72
2009/04/23 12:44:08.1    -127    -60    -17    141    143 244.6  -7.2  34164  289.65 0854.72
2009/04/23 12:44:08.2     -97    -26    -28    101    105 254.9 -15.5  34164  289.65 0854.72
2009/04/23 12:44:08.3     -67    -38    -80     78    111 240.2 -54.5  34160  289.58 0854.72
2009/04/23 12:44:08.4     -60    -28    -97     67    117 244.8 -66.5  34162  289.62 0854.72
2009/04/23 12:44:08.5    -127    -33   -147    132    197 255.4 -57.9  34152  289.43 0854.72
2009/04/23 12:44:08.6    -213    -29   -167    216    273 262.1 -46.1  34144  289.29 0854.72
2009/04/23 12:44:08.7    -104     21   -199    107    225 281.5 -74.0  34150  289.41 0854.72
2009/04/23 12:44:08.8      70     23   -128     74    147  71.6 -71.6  34154  289.46 0854.72
2009/04/23 12:44:08.9     -18     54   -182     57    190 341.5 -86.2  34158  289.55 0854.72
2009/04/23 12:44:09.0      96    -99   -133    139    192 135.9 -53.4  34160  289.58 0854.72
2009/04/23 12:44:09.1      94   -306   -182    321    369 162.8 -36.5  34164  289.65 0854.72
2009/04/23 12:44:09.2     151   -519    -58    541    545 163.7  -6.2  34162  289.60 0854.72
2009/04/23 12:44:09.3     122   -423     50    441    444 163.9   6.6  34156  289.49 0854.72
2009/04/23 12:44:09.4      99   -317    164    333    371 162.6  28.1  34158  289.54 0854.72
2009/04/23 12:44:09.5     107   -307    205    326    385 160.8  35.5  34160  289.57 0854.72
2009/04/23 12:44:09.6      68   -271     96    280    297 165.8  18.9  34156  289.49 0854.72
2009/04/23 12:44:09.7      -7    -67    200     68    211 186.2  81.2  34164  289.63 0854.72
2009/04/23 12:44:09.8    -132   -121    131    180    222 227.6  39.7  34162  289.62 0854.72
2009/04/23 12:44:09.9    -192    -40     88    197    215 258.1  25.7  34162  289.62 0854.72
2009/04/23 12:44:10.0    -149   -345    112    377    394 203.4  16.5  34162  289.59 0854.72
2009/04/23 12:44:10.1    -185   -315    250    366    443 210.4  37.6  34164  289.63 0854.72
2009/04/23 12:44:10.2    -193   -167    233    256    346 229.1  47.0  34168  289.70 0854.72
2009/04/23 12:44:10.3    -361    -83    195    371    419 257.0  30.2  34174  289.80 0854.72
2009/04/23 12:44:10.4    -364    -39    140    367    392 263.8  22.0  34170  289.74 0854.72
2009/04/23 12:44:10.5    -400   -216     -3    455    456 241.6  -0.5  34166  289.68 0854.72
2009/04/23 12:44:10.6    -382    -96    -38    394    396 255.9  -5.6  34158  289.54 0854.72
2009/04/23 12:44:10.7    -350     -8     10    351    352 268.6   1.8  34156  289.52 0854.72
2009/04/23 12:44:10.8    -695    128    180    707    730 280.5  14.3  34150  289.40 0854.72
2009/04/23 12:44:10.9    -696    -52    158    698    716 265.7  12.8  34154  289.47 0854.72
2009/04/23 12:44:11.0    -594    -24    161    595    617 267.6  15.2  34154  289.47 0854.72
2009/04/23 12:44:11.1    -215   -179    141    281    314 230.2  28.6  34154  289.46 0854.73
2009/04/23 12:44:11.2     -48   -311    273    315    416 188.9  45.4  34168  289.71 0854.73
2009/04/23 12:44:11.3      -8   -276    357    277    451 181.8  58.4  34176  289.83 0854.73
2009/04/23 12:44:11.4    -273   -526    389    593    709 207.5  36.4  34168  289.71 0854.73
2009/04/23 12:44:11.5    -225   -439    320    494    588 207.2  36.0  34162  289.62 0854.73
2009/04/23 12:44:11.6    -131   -250    263    283    386 207.6  47.9  34166  289.67 0854.73
2009/04/23 12:44:11.7    -231    -66    -55    241    248 254.1 -12.9  34164  289.63 0854.73
2009/04/23 12:44:11.8    -180     -3    -84    181    199 268.7 -31.0  34158  289.55 0854.73
2009/04/23 12:44:11.9    -136   -289    159    320    357 205.3  28.5  34158  289.55 0854.73
2009/04/23 12:44:12.0    -245   -252     62    352    358 224.2  10.0  34168  289.72 0854.73
2009/04/23 12:44:12.1    -469   -110    -37    482    484 256.8  -4.5  34158  289.54 0854.73
2009/04/23 12:44:12.2    -564    -78     14    570    571 262.1   1.5  34158  289.54 0854.73
2009/04/23 12:44:12.3    -656    185   -148    682    699 285.8 -12.3  34132  289.09 0854.73
2009/04/23 12:44:12.4    -710    183   -103    734    742 284.5  -8.0  34150  289.40 0854.73
2009/04/23 12:44:12.5    -546     40   -166    548    572 274.3 -21.8  34156  289.50 0854.73
2009/04/23 12:44:12.6    -302   -100   -112    319    338 251.6 -24.5  34158  289.55 0854.73
2009/04/23 12:44:12.7    -379   -443    -16    584    585 220.6  -1.6  34158  289.54 0854.73
2009/04/23 12:44:12.8    -341   -357     -6    495    496 223.7  -0.7  34160  289.56 0854.73
2009/04/23 12:44:12.9    -307   -421    -47    522    525 216.1  -5.2  34154  289.46 0854.73
2009/04/23 12:44:13.0    -214   -420     19    472    473 207.1   2.3  34158  289.54 0854.73
2009/04/23 12:44:13.1    -208   -347    -44    405    408 211.0  -6.3  34158  289.55 0854.72
2009/04/23 12:44:13.2    -157   -343    -47    378    382 204.6  -7.2  34154  289.48 0854.72
2009/04/23 12:44:13.3    -174   -317    -56    362    367 208.9  -8.9  34156  289.52 0854.72
2009/04/23 12:44:13.4    -231   -187    -33    298    300 231.1  -6.5  34158  289.53 0854.72
2009/04/23 12:44:13.5    -221    -59    -65    229    239 254.9 -15.8  34158  289.53 0854.72
2009/04/23 12:44:13.6     -94   -169    -63    194    203 209.0 -23.3  34154  289.46 0854.72
2009/04/23 12:44:13.7     -13   -280   -126    281    307 182.7 -30.3  34156  289.49 0854.72
2009/04/23 12:44:13.8       3   -396   -130    397    417 179.5 -23.5  34156  289.49 0854.72
2009/04/23 12:44:13.9     122   -424    -39    442    444 164.0  -5.1  34156  289.49 0854.72
2009/04/23 12:44:14.0      -6   -433     34    434    436 180.9   4.6  34156  289.49 0854.72
2009/04/23 12:44:14.1     -72   -341     10    349    350 192.0   1.8  34154  289.48 0854.72
2009/04/23 12:44:14.2     -31   -151    119    155    195 191.6  41.6  34158  289.55 0854.72
2009/04/23 12:44:14.3      51    -93    138    107    174 151.1  58.5  34158  289.55 0854.72
2009/04/23 12:44:14.4       6     -5     89      8     89 129.5  90.0  34162  289.60 0854.72
2009/04/23 12:44:14.5     -55    -57    109     80    135 224.1  60.5  34160  289.58 0854.72
2009/04/23 12:44:14.6     -66     -5    106     67    125 265.7  64.7  34164  289.65 0854.72
2009/04/23 12:44:14.7     -10    -13     77     17     78 219.6  87.5  34164  289.63 0854.72
2009/04/23 12:44:14.8     -41   -146     52    152    161 196.0  18.9  34154  289.48 0854.72
2009/04/23 12:44:14.9    -111   -201     15    230    231 209.0   3.8  34150  289.41 0854.72
2009/04/23 12:44:15.0    -130   -166    140    211    253 218.1  36.5  34154  289.47 0854.72
2009/04/23 12:44:15.1     -46   -207    209    213    298 192.7  49.8  34158  289.53 0854.72
2009/04/23 12:44:15.2    -106   -224    146    249    288 205.4  33.4  34158  289.54 0854.72
2009/04/23 12:44:15.3      12   -236    193    237    305 177.1  43.7  34158  289.53 0854.72
2009/04/23 12:44:15.4      90   -350    194    362    410 165.6  30.5  34152  289.43 0854.72
2009/04/23 12:44:15.5     -51   -234    174    240    296 192.5  39.7  34144  289.31 0854.72
2009/04/23 12:44:15.6      26   -170    224    173    283 171.1  58.5  34146  289.34 0854.72
2009/04/23 12:44:15.7      65   -110    199    128    236 149.3  64.4  34150  289.40 0854.72
2009/04/23 12:44:15.8     -51   -229    297    235    378 192.7  57.7  34142  289.26 0854.72
2009/04/23 12:44:15.9      39   -186    149    191    242 168.2  41.7  34156  289.50 0854.72
2009/04/23 12:44:16.0      80   -161     81    180    197 153.5  25.7  34156  289.52 0854.72
2009/04/23 12:44:16.1     164    -69     53    178    186 112.8  16.8  34156  289.50 0854.72
2009/04/23 12:44:16.2      81    -82     33    116    121 135.3  16.3  34156  289.50 0854.72
2009/04/23 12:44:16.3      70    -38     90     80    120 118.9  53.7  34152  289.45 0854.72
2009/04/23 12:44:16.4      23    -57    121     62    135 158.2  71.0  34154  289.46 0854.72
2009/04/23 12:44:16.5      32    -10    123     34    127 108.2  84.4  34154  289.46 0854.72
2009/04/23 12:44:16.6     129   -151    144    199    245 139.5  39.7  34150  289.40 0854.72
2009/04/23 12:44:16.7      98   -204    177    227    287 154.4  41.7  34154  289.47 0854.72
2009/04/23 12:44:16.8      70    -65    180     96    204 132.7  69.6  34154  289.48 0854.72
2009/04/23 12:44:17.0     110     53    142    123    187  64.2  54.8  34150  289.41 0854.72
2009/04/23 12:44:17.1      16      5     86     17     87  71.8  89.6  34152  289.43 0854.72
2009/04/23 12:44:17.2      14    -32     93     35     99 156.4  78.6  34152  289.43 0854.73
2009/04/23 12:44:17.3      51     48     95     71    118  46.9  59.4  34158  289.55 0854.73
2009/04/23 12:44:17.4      47      6    107     48    117  82.1  74.5  34158  289.53 0854.73
2009/04/23 12:44:17.5     -19   -139    173    141    223 188.0  56.4  34154  289.46 0854.73
2009/04/23 12:44:17.6      71    -26    153     76    170 110.8  71.9  34148  289.36 0854.73
2009/04/23 12:44:17.7       3   -117    222    118    251 178.2  69.8  34152  289.45 0854.73
2009/04/23 12:44:17.8     114   -285    286    308    420 158.2  47.8  34152  289.42 0854.73
2009/04/23 12:44:17.9     297   -338    321    451    553 138.7  39.0  34152  289.43 0854.73
2009/04/23 12:44:18.0     243   -235    234    339    411 134.0  38.0  34152  289.43 0854.73
2009/04/23 12:44:18.1     221   -246    106    331    348 138.1  17.8  34152  289.45 0854.73
2009/04/23 12:44:18.2     364   -170    163    403    434 115.1  23.2  34154  289.48 0854.73
2009/04/23 12:44:18.3     -30   -279    241    281    370 186.3  45.1  34154  289.47 0854.73
2009/04/23 12:44:18.4     -26   -315    290    317    429 184.9  47.0  34142  289.28 0854.73
2009/04/23 12:44:18.5      -6   -180    210    181    277 182.0  54.8  34148  289.36 0854.73
2009/04/23 12:44:18.6      48   -150    147    158    215 162.2  47.9  34146  289.35 0854.73
2009/04/23 12:44:18.7    -220   -333    244    400    468 213.5  34.3  34150  289.41 0854.73
2009/04/23 12:44:18.8    -150   -418    155    445    472 199.8  19.3  34150  289.41 0854.73
2009/04/23 12:44:18.9    -155   -303    103    341    357 207.1  16.8  34146  289.33 0854.73
2009/04/23 12:44:19.0    -111   -237     64    262    270 205.2  13.9  34152  289.42 0854.73
2009/04/23 12:44:19.1      -1   -138    -56    139    149 180.5 -27.4  34150  289.41 0854.73
2009/04/23 12:44:19.2     121   -171    -95    210    230 144.6 -30.6  34148  289.38 0854.71
2009/04/23 12:44:19.3     163   -190    -51    251    257 139.2 -11.6  34150  289.39 0854.71
2009/04/23 12:44:19.4     241   -159     14    290    291 123.5   2.9  34152  289.44 0854.71
2009/04/23 12:44:19.5     219   -127     54    254    260 120.2  12.2  34148  289.37 0854.71
2009/04/23 12:44:19.6     193   -226     81    298    309 139.5  15.3  34150  289.41 0854.71
2009/04/23 12:44:19.7     150   -181    114    236    262 140.3  27.8  34152  289.42 0854.71
2009/04/23 12:44:19.8     190   -166    -85    253    268 131.3 -18.7  34148  289.37 0854.71
2009/04/23 12:44:19.9     205   -195   -124    283    308 133.6 -29.6  34148  289.37 0854.71
2009/04/23 12:44:20.0     236   -284   -110    370    387 140.4 -16.6  34146  289.33 0854.71
2009/04/23 12:44:20.1     236   -296     -1    379    380 141.5  -0.2  34144  289.30 0854.71
2009/04/23 12:44:20.2     185   -308     92    360    372 149.0  14.4  34144  289.30 0854.71
2009/04/23 12:44:20.3     -41   -180    205    185    276 193.1  53.3  34146  289.32 0854.71
2009/04/23 12:44:20.4    -135   -227    177    265    318 210.8  37.0  34148  289.37 0854.71
2009/04/23 12:44:20.5    -238   -281     58    369    374 220.3   9.0  34152  289.42 0854.71
2009/04/23 12:44:20.6    -252   -232     -4    343    344 227.4  -0.7  34146  289.33 0854.71
2009/04/23 12:44:20.7    -130   -222     43    258    262 210.3   9.5  34152  289.42 0854.71
2009/04/23 12:44:20.8     -64   -288     15    296    297 192.7   2.9  34146  289.34 0854.71
2009/04/23 12:44:20.9     -57   -396     41    401    404 188.3   5.9  34142  289.26 0854.71
2009/04/23 12:44:21.0    -251   -379   -149    455    479 213.5 -18.2  34146  289.34 0854.71
2009/04/23 12:44:21.1    -199   -497     -2    536    537 201.9  -0.2  34142  289.28 0854.71
2009/04/23 12:44:21.2    -209   -467     -2    512    513 204.1  -0.3  34146  289.32 0854.69
2009/04/23 12:44:21.3    -147   -720    -47    736    738 191.6  -3.7  34148  289.38 0854.69
2009/04/23 12:44:21.4    -206   -667    -30    699    700 197.2  -2.5  34146  289.32 0854.69
2009/04/23 12:44:21.5    -175   -611     12    636    637 196.0   1.1  34148  289.38 0854.69
2009/04/23 12:44:21.6    -136   -608    -15    624    625 192.7  -1.4  34150  289.40 0854.69
2009/04/23 12:44:21.7    -243   -538   -164    591    614 204.3 -15.5  34148  289.37 0854.69
2009/04/23 12:44:21.8    -150   -699    -60    716    719 192.2  -4.8  34152  289.45 0854.69
2009/04/23 12:44:21.9    -105   -649    -63    658    662 189.2  -5.5  34150  289.39 0854.69
2009/04/23 12:44:22.0      11   -635    113    636    647 179.0  10.1  34142  289.25 0854.69
2009/04/23 12:44:22.1      67   -531      3    536    537 172.8   0.4  34148  289.38 0854.69
2009/04/23 12:44:22.2      68   -598    -32    602    603 173.4  -3.1  34146  289.34 0854.69
2009/04/23 12:44:22.3      -5   -588      8    589    590 180.5   0.8  34146  289.34 0854.69
2009/04/23 12:44:22.4      24   -517    -14    518    519 177.3  -1.6  34152  289.42 0854.69
2009/04/23 12:44:22.5      73   -490     74    496    502 171.5   8.5  34150  289.39 0854.69
2009/04/23 12:44:22.6     133   -314     89    342    354 157.1  14.7  34152  289.42 0854.69
2009/04/23 12:44:22.7     114   -223    102    251    270 152.8  23.1  34150  289.39 0854.69
2009/04/23 12:44:22.8      84   -156    250    178    306 151.7  61.1  34150  289.41 0854.69
2009/04/23 12:44:22.9      42   -125    192    132    232 161.3  62.6  34150  289.40 0854.69
2009/04/23 12:44:23.0     -71   -214    292    226    369 198.5  58.4  34148  289.37 0854.69
2009/04/23 12:44:23.1    -143   -190    261    238    353 217.0  53.0  34148  289.37 0854.69
2009/04/23 12:44:23.2       2     43    155     44    161   2.7  84.1  34150  289.41 0854.69
2009/04/23 12:44:23.3     -21   -107    159    110    193 191.5  62.4  34152  289.43 0854.69
2009/04/23 12:44:23.4     131    -61    175    145    227 115.2  56.3  34144  289.31 0854.69
2009/04/23 12:44:23.5     -36    -96    135    103    169 200.9  58.7  34154  289.48 0854.69
2009/04/23 12:44:23.6     -21   -150    176    152    232 188.1  54.8  34152  289.43 0854.69
2009/04/23 12:44:23.7     -47   -112    164    122    204 202.7  59.8  34150  289.40 0854.69
2009/04/23 12:44:23.8      19    -97    140     99    171 168.5  61.3  34154  289.46 0854.69
2009/04/23 12:44:23.9     -83   -284    172    296    342 196.3  32.9  34152  289.42 0854.69
2009/04/23 12:44:24.0    -168   -292    130    337    361 209.9  22.2  34132  289.11 0854.69
2009/04/23 12:44:24.1     -67   -214    222    225    316 197.4  49.8  34152  289.44 0854.69
2009/04/23 12:44:24.2    -256   -258    156    364    396 224.8  24.6  34152  289.42 0854.69
2009/04/23 12:44:24.3    -181   -212    222    279    356 220.5  42.4  34144  289.30 0854.69
2009/04/23 12:44:24.4    -242   -292    258    380    459 219.7  37.4  34154  289.46 0854.69
2009/04/23 12:44:24.5    -384   -223    161    445    473 239.9  20.8  34148  289.36 0854.69
2009/04/23 12:44:24.6    -297   -320     69    437    443 222.9   9.0  34154  289.46 0854.69
2009/04/23 12:44:24.7    -333   -307    -99    454    465 227.3 -12.4  34150  289.41 0854.69
2009/04/23 12:44:24.8    -215   -162    -70    270    280 232.9 -14.7  34148  289.37 0854.69
2009/04/23 12:44:24.9    -154   -140    -59    209    218 227.6 -15.8  34148  289.38 0854.69
2009/04/23 12:44:25.0     -62   -184     58    195    204 198.7  16.8  34144  289.31 0854.69
2009/04/23 12:44:25.1    -175    -48    104    182    209 254.5  32.4  34152  289.45 0854.69
2009/04/23 12:44:25.2    -208    -97     85    230    245 244.8  21.0  34156  289.49 0854.70
2009/04/23 12:44:25.3    -251     81    133    264    295 287.9  28.7  34160  289.56 0854.70
2009/04/23 12:44:25.4    -282    102    151    300    335 289.9  28.7  34156  289.49 0854.70
2009/04/23 12:44:25.5    -249     -8     80    250    263 268.1  17.9  34160  289.56 0854.70
2009/04/23 12:44:25.6    -277     36    196    280    341 277.5  38.5  34168  289.71 0854.70
2009/04/23 12:44:25.7    -205   -181    192    274    334 228.6  38.6  34162  289.59 0854.70
2009/04/23 12:44:25.8    -272   -273    217    386    442 224.9  31.9  34166  289.68 0854.70
2009/04/23 12:44:25.9    -157   -207    230    261    347 217.2  46.1  34166  289.66 0854.70
2009/04/23 12:44:26.0    -173   -181    215    251    330 223.7  45.0  34164  289.64 0854.70
2009/04/23 12:44:26.1     -32   -229    189    232    299 188.1  43.7  34156  289.49 0854.70
2009/04/23 12:44:26.2     141   -322    281    352    450 156.3  42.7  34156  289.49 0854.72
2009/04/23 12:44:26.3     -20   -406    184    407    446 182.9  26.2  34144  289.29 0854.72
2009/04/23 12:44:26.4     -17   -314    247    315    400 183.1  42.1  34150  289.40 0854.72
2009/04/23 12:44:26.5    -143   -316    151    348    379 204.4  25.0  34138  289.21 0854.72
2009/04/23 12:44:26.6    -222   -416     74    472    478 208.1   9.0  34150  289.39 0854.72
2009/04/23 12:44:26.7    -174   -381    124    420    439 204.6  16.5  34150  289.39 0854.72
2009/04/23 12:44:26.8    -283   -373      8    469    470 217.2   1.0  34154  289.47 0854.72
2009/04/23 12:44:26.9    -231   -299    -77    378    386 217.7 -11.6  34152  289.42 0854.72
2009/04/23 12:44:27.0    -152   -327    -85    361    371 204.9 -13.3  34152  289.43 0854.72
2009/04/23 12:44:27.1     -97   -281     -6    298    299 199.2  -1.2  34150  289.41 0854.72
2009/04/23 12:44:27.2     -38   -166     10    171    172 192.9   3.6  34152  289.45 0854.72
2009/04/23 12:44:27.3     -28   -112    -27    116    120 194.3 -13.3  34152  289.43 0854.72
2009/04/23 12:44:27.4      86    -88    -29    124    128 135.5 -13.4  34150  289.41 0854.72
2009/04/23 12:44:27.5     103    -75    -47    128    136 126.4 -25.3  34154  289.48 0854.72
2009/04/23 12:44:27.6     154    -53    -73    163    178 109.1 -30.3  34154  289.46 0854.72
2009/04/23 12:44:27.7      66    -21   -112     70    132 108.2 -69.1  34152  289.43 0854.72
2009/04/23 12:44:27.8     120     49    -55    130    141  67.8 -28.5  34148  289.36 0854.72
2009/04/23 12:44:27.9       9    102     44    103    112   5.3  24.1  34150  289.41 0854.72
2009/04/23 12:44:28.0      96    147     68    176    188  33.2  22.3  34152  289.43 0854.72
2009/04/23 12:44:28.1      75    153     83    171    190  26.3  27.4  34150  289.41 0854.72
2009/04/23 12:44:28.2     -91    196     28    217    219 335.1   7.5  34152  289.45 0854.72
2009/04/23 12:44:28.3     -65    101     62    121    135 327.4  29.2  34152  289.45 0854.72
2009/04/23 12:44:28.4      19     30    152     36    156  32.6  86.9  34156  289.52 0854.72
2009/04/23 12:44:28.5    -127   -165    174    209    271 217.8  43.8  34154  289.47 0854.72
2009/04/23 12:44:28.6      85   -270    252    284    379 162.4  46.2  34144  289.30 0854.72
2009/04/23 12:44:28.7    -144   -303    164    336    373 205.4  27.9  34140  289.23 0854.72
2009/04/23 12:44:28.8    -295   -231     88    375    386 231.9  13.2  34142  289.28 0854.72
2009/04/23 12:44:28.9     -33   -234    149    237    279 188.2  35.5  34150  289.39 0854.72
2009/04/23 12:44:29.0      50   -265    164    270    315 169.3  34.2  34146  289.32 0854.72
2009/04/23 12:44:29.1      39   -231    221    235    322 170.4  48.2  34144  289.31 0854.72
2009/04/23 12:44:29.2      12    -94    223     95    242 172.4  75.9  34146  289.35 0854.72
2009/04/23 12:44:29.3       2   -263    255    264    367 179.5  49.1  34146  289.33 0854.72
2009/04/23 12:44:29.4     -57   -290    209    296    362 191.1  38.7  34142  289.28 0854.72
2009/04/23 12:44:29.5    -123   -311    177    335    378 201.7  30.2  34144  289.30 0854.72
2009/04/23 12:44:29.6    -160   -357    177    392    430 204.2  25.9  34144  289.29 0854.72
2009/04/23 12:44:29.7    -193   -348    213    399    452 209.0  30.3  34148  289.38 0854.72
2009/04/23 12:44:29.8    -258   -265    207    371    424 224.2  31.5  34148  289.36 0854.72
2009/04/23 12:44:29.9    -178   -214     65    279    287 219.7  13.2  34146  289.34 0854.72
2009/04/23 12:44:30.0      19   -269     65    270    278 175.8  13.7  34148  289.36 0854.72
2009/04/23 12:44:30.1      10   -250     41    251    255 177.5   9.3  34148  289.37 0854.73
2009/04/23 12:44:30.2      10   -199      8    200    201 176.9   2.3  34148  289.38 0854.73
2009/04/23 12:44:30.3       5   -113    128    114    171 177.3  53.7  34150  289.41 0854.73
2009/04/23 12:44:30.4       1    -96     67     97    117 179.1  38.0  34150  289.40 0854.73
2009/04/23 12:44:30.5      33    -75     63     83    104 155.9  40.7  34150  289.41 0854.73
2009/04/23 12:44:30.6       7    -82    124     83    149 174.7  63.2  34148  289.38 0854.73
2009/04/23 12:44:30.7     -47   -199    165    205    263 193.4  43.3  34148  289.36 0854.73
2009/04/23 12:44:30.8      92     76    198    120    231  50.5  65.7  34152  289.45 0854.73
2009/04/23 12:44:30.9      40    -71    189     82    206 150.1  75.0  34154  289.48 0854.73
2009/04/23 12:44:31.0    -132   -257     70    290    299 207.2  13.7  34146  289.34 0854.73
2009/04/23 12:44:31.1    -216   -364     92    424    434 210.7  12.3  34146  289.33 0854.73
2009/04/23 12:44:31.2    -225   -342     80    410    418 213.3  11.1  34150  289.41 0854.73
2009/04/23 12:44:31.3    -257   -186     36    318    321 234.1   6.6  34142  289.27 0854.73
2009/04/23 12:44:31.4     -46    -93    146    104    179 206.3  60.8  34148  289.38 0854.73
2009/04/23 12:44:31.5     -38   -321    221    324    392 186.9  37.6  34148  289.38 0854.73
2009/04/23 12:44:31.6    -208   -398    198    450    491 207.6  25.3  34150  289.39 0854.73
2009/04/23 12:44:31.7    -222   -442    221    495    542 206.7  25.7  34152  289.45 0854.73
2009/04/23 12:44:31.8    -260   -391    119    470    486 213.6  14.3  34146  289.35 0854.73
2009/04/23 12:44:31.9    -251   -391    120    465    481 212.8  14.5  34146  289.35 0854.73
2009/04/23 12:44:32.0    -181   -421    203    459    501 203.3  25.6  34152  289.44 0854.73
2009/04/23 12:44:32.1     -93   -419    104    430    443 192.5  13.7  34150  289.39 0854.70
2009/04/23 12:44:32.2     -44   -410     89    413    423 186.2  12.2  34148  289.38 0854.70
2009/04/23 12:44:32.3     316   -125     96    340    354 111.6  15.9  34148  289.38 0854.70
2009/04/23 12:44:32.4     192   -144     20    240    241 126.9   4.9  34152  289.42 0854.70
2009/04/23 12:44:32.5      14   -320    115    321    340 177.4  20.4  34142  289.26 0854.70
2009/04/23 12:44:32.6    -165   -427    280    459    537 201.2  34.3  34150  289.39 0854.70
2009/04/23 12:44:32.7    -268   -407    280    488    562 213.4  32.4  34150  289.40 0854.70
2009/04/23 12:44:32.8    -348   -343    241    489    545 225.5  28.2  34152  289.45 0854.70
2009/04/23 12:44:32.9    -353   -134     73    378    386 249.2  11.0  34142  289.28 0854.70
2009/04/23 12:44:33.0    -291    -73     -5    301    302 255.9  -1.1  34154  289.46 0854.70
2009/04/23 12:44:33.1    -256    -98    -15    275    276 249.1  -3.1  34152  289.44 0854.70
2009/04/23 12:44:33.2    -355   -189   -151    403    430 242.0 -25.9  34146  289.34 0854.70
2009/04/23 12:44:33.3    -412   -245   -132    480    498 239.2 -15.4  34152  289.42 0854.70
2009/04/23 12:44:33.4    -328   -223    -50    397    401 235.8  -7.2  34144  289.30 0854.70
2009/04/23 12:44:33.5    -364   -290    113    466    480 231.4  13.7  34150  289.40 0854.70
2009/04/23 12:44:33.6    -493   -334    -50    596    599 235.9  -4.9  34152  289.42 0854.70
2009/04/23 12:44:33.7    -274   -225    238    355    427 230.6  37.0  34150  289.41 0854.70
2009/04/23 12:44:33.8    -189   -150    219    242    326 231.6  46.8  34152  289.42 0854.70
2009/04/23 12:44:33.9    -414   -166    119    447    463 248.2  14.9  34158  289.53 0854.70
2009/04/23 12:44:34.0    -219   -139    215    260    337 237.5  43.7  34150  289.39 0854.70
2009/04/23 12:44:34.1     -94   -295    208    310    373 197.8  37.2  34152  289.42 0854.69
2009/04/23 12:44:34.2     -99   -297    214    314    379 198.5  37.6  34152  289.42 0854.69
2009/04/23 12:44:34.3    -154   -318    135    354    378 205.9  21.8  34152  289.42 0854.69
2009/04/23 12:44:34.4    -162   -268     81    314    325 211.2  14.5  34146  289.34 0854.69
2009/04/23 12:44:34.5    -225    -25    107    227    250 263.6  27.1  34154  289.47 0854.69
2009/04/23 12:44:34.6    -180    -48    167    187    250 255.0  46.4  34156  289.50 0854.69
2009/04/23 12:44:34.7    -203    -20    198    205    285 264.3  49.0  34156  289.51 0854.69
2009/04/23 12:44:34.8     -21    -64    213     68    223 198.5  81.6  34158  289.53 0854.69
2009/04/23 12:44:34.9      82     10    222     83    237  82.5  78.6  34154  289.46 0854.69
2009/04/23 12:44:35.0     -58    104    113    120    164 331.0  48.5  34150  289.41 0854.69
2009/04/23 12:44:35.1    -148   -231    301    275    407 212.6  53.0  34156  289.52 0854.69
2009/04/23 12:44:35.2    -187   -291    145    347    376 212.7  23.9  34142  289.26 0854.69
2009/04/23 12:44:35.3      15   -104    128    106    166 171.5  56.3  34150  289.40 0854.69
2009/04/23 12:44:35.4     -68   -134    132    151    200 207.1  45.8  34152  289.45 0854.69
2009/04/23 12:44:35.5     120   -243    122    271    297 153.7  25.9  34154  289.46 0854.69
2009/04/23 12:44:35.6     118   -213     81    244    258 151.0  18.5  34148  289.37 0854.69
2009/04/23 12:44:35.7      57    -73    168     93    192 141.7  68.8  34156  289.50 0854.69
2009/04/23 12:44:35.8      29   -263    128    265    294 173.7  27.3  34158  289.53 0854.69
2009/04/23 12:44:35.9      49   -149    157    157    222 161.7  50.1  34162  289.60 0854.69
2009/04/23 12:44:36.0     258    -84    113    272    294 108.2  23.8  34166  289.66 0854.69
2009/04/23 12:44:36.1      10    -68    277     69    285 171.1  86.2  34158  289.54 0854.70
2009/04/23 12:44:36.2     164   -335    243    374    446 153.9  36.0  34154  289.46 0854.70
2009/04/23 12:44:36.3      85   -145    180    169    246 149.5  52.1  34152  289.45 0854.70
2009/04/23 12:44:36.4      -7    -99    143    100    174 184.0  62.1  34154  289.46 0854.70
2009/04/23 12:44:36.5      -8   -259    139    260    294 181.8  30.3  34152  289.42 0854.70
2009/04/23 12:44:36.6     -69   -235     91    246    262 196.5  21.0  34146  289.34 0854.70
2009/04/23 12:44:36.7     101    -79     35    129    134 128.2  15.2  34150  289.41 0854.70
2009/04/23 12:44:36.8     116     -8     82    117    142  94.3  38.0  34152  289.45 0854.70
2009/04/23 12:44:36.9     164    -93    148    189    240 119.5  42.0  34154  289.48 0854.70
2009/04/23 12:44:37.0      92   -186    156    208    260 153.5  40.7  34154  289.46 0854.70
2009/04/23 12:44:37.1     -43   -176     33    182    186 193.8  10.3  34150  289.40 0854.70
2009/04/23 12:44:37.2     -55   -138    163    149    220 201.8  52.5  34154  289.46 0854.70
2009/04/23 12:44:37.3      -2    -38    162     39    166 184.4  86.9  34158  289.53 0854.70
2009/04/23 12:44:37.4     -79   -124    186    148    237 212.5  57.5  34152  289.43 0854.70
2009/04/23 12:44:37.5     -76   -155    156    173    232 206.1  46.9  34154  289.46 0854.70
2009/04/23 12:44:37.6     -22    -63     23     67     72 199.2  19.2  34154  289.46 0854.70
2009/04/23 12:44:37.7      -9     66     57     67     87 351.9  44.8  34158  289.53 0854.70
2009/04/23 12:44:37.8    -126    -22     47    129    137 259.9  21.0  34156  289.52 0854.70
2009/04/23 12:44:37.9     -88    -20     11     91     92 256.7   6.9  34156  289.50 0854.70
2009/04/23 12:44:38.0     -76    -25     -9     81     82 251.6  -6.7  34154  289.46 0854.70
2009/04/23 12:44:38.1     -21    -49     29     54     61 203.6  31.3  34154  289.48 0854.71
2009/04/23 12:44:38.2      47      3     94     48    105  85.6  70.8  34156  289.50 0854.71
2009/04/23 12:44:38.3     101    -81    166    130    210 128.6  57.9  34158  289.55 0854.71
2009/04/23 12:44:38.4      -7   -113    219    114    246 184.0  70.6  34158  289.53 0854.71
2009/04/23 12:44:38.5      18    -59     90     62    109 162.2  62.1  34158  289.53 0854.71
2009/04/23 12:44:38.6      39   -316    313    319    446 172.9  49.8  34154  289.46 0854.71
2009/04/23 12:44:38.7      14   -187    220    188    289 175.5  55.4  34154  289.46 0854.71
2009/04/23 12:44:38.8     186   -203    124    276    302 137.6  26.2  34154  289.47 0854.71
2009/04/23 12:44:38.9     121   -131     29    179    182 137.5   9.5  34154  289.48 0854.71
2009/04/23 12:44:39.0     200    -87    -77    219    232 113.6 -24.4  34156  289.50 0854.71
2009/04/23 12:44:39.1     220    -74     54    233    240 108.6  13.2  34156  289.51 0854.71
2009/04/23 12:44:39.2     229   -144     94    271    287 122.2  19.2  34158  289.53 0854.71
2009/04/23 12:44:39.3     117   -159    113    198    227 143.5  32.1  34150  289.40 0854.71
2009/04/23 12:44:39.4      72    -66    157     98    185 132.7  64.9  34152  289.45 0854.71
2009/04/23 12:44:39.5     -19    -19    181     27    183 225.0  90.0  34150  289.41 0854.71
2009/04/23 12:44:39.6      57     -4     56     58     80  94.4  49.4  34152  289.45 0854.71
2009/04/23 12:44:39.7       3    -46     79     47     91 175.5  66.2  34156  289.52 0854.71
2009/04/23 12:44:39.8      78    -43    142     90    168 118.9  64.7  34158  289.55 0854.71
2009/04/23 12:44:39.9     166      0     95    167    192  90.0  32.4  34158  289.53 0854.71
2009/04/23 12:44:40.0     150    -19    173    152    230  97.5  54.3  34158  289.55 0854.71
2009/04/23 12:44:40.1      54   -101    130    115    173 151.9  54.0  34152  289.45 0854.70
2009/04/23 12:44:40.2     -27   -131     31    134    138 192.0  13.1  34156  289.52 0854.70
2009/04/23 12:44:40.3     -23    -85    -20     89     92 195.1 -12.9  34154  289.48 0854.70
2009/04/23 12:44:40.4     -12    -44     -6     46     47 196.0  -8.2  34158  289.55 0854.70
2009/04/23 12:44:40.5     -24    -41    -23     48     53 210.7 -31.6  34156  289.50 0854.70
2009/04/23 12:44:40.6      31     94   -138     99    169  18.3 -65.5  34152  289.43 0854.70
2009/04/23 12:44:40.7     199    279    -24    343    344  35.5  -4.0  34154  289.48 0854.70
2009/04/23 12:44:40.8     174    355     79    396    404  26.1  11.3  34154  289.48 0854.70
2009/04/23 12:44:40.9     127    325    167    350    387  21.4  27.3  34170  289.74 0854.70
2009/04/23 12:44:41.0     191    291    154    349    381  33.3  25.2  34164  289.65 0854.70
2009/04/23 12:44:41.1      50    172    141    180    228  16.3  42.0  34172  289.77 0854.70
2009/04/23 12:44:41.2     -62    -43    149     76    167 234.9  71.4  34176  289.84 0854.70
2009/04/23 12:44:41.3     -69   -118    109    137    175 210.3  42.7  34162  289.62 0854.70
2009/04/23 12:44:41.4      -2      2     54      4     54 315.0  90.0  34164  289.63 0854.70
2009/04/23 12:44:41.5     -36    108    -17    115    117 341.3  -8.8  34168  289.70 0854.70
2009/04/23 12:44:41.6      -8     87    -30     88     94 354.2 -19.1  34164  289.63 0854.70
2009/04/23 12:44:41.7       5    100     32    101    107   3.1  17.9  34162  289.62 0854.70
2009/04/23 12:44:41.8      41    198    -13    203    204  11.8  -3.7  34158  289.55 0854.70
2009/04/23 12:44:41.9     108    227    135    252    285  25.6  30.3  34176  289.85 0854.70
2009/04/23 12:44:42.0     184    194     86    268    282  43.4  17.9  34178  289.88 0854.70
2009/04/23 12:44:42.1     123    169    107    210    235  36.1  29.1  34166  289.69 0854.67
2009/04/23 12:44:42.2     205    167    112    265    287  50.9  24.2  34166  289.68 0854.67
2009/04/23 12:44:42.3     115    126    103    171    199  42.5  33.7  34168  289.72 0854.67
2009/04/23 12:44:42.4     226     21     87    228    244  84.5  21.7  34164  289.63 0854.67
2009/04/23 12:44:42.5     136     22    110    138    176  80.8  43.0  34166  289.67 0854.67
2009/04/23 12:44:42.6      98    119     61    155    166  39.6  22.8  34186  290.01 0854.67
2009/04/23 12:44:42.7      35    122     97    127    159  16.0  41.4  34176  289.85 0854.67
2009/04/23 12:44:42.8      10     65     14     66     68   8.9  12.2  34182  289.96 0854.67
2009/04/23 12:44:42.9      92     94     51    132    141  44.5  22.5  34184  289.99 0854.67
2009/04/23 12:44:43.0     134    -14    130    135    187  96.1  49.0  34182  289.94 0854.67
2009/04/23 12:44:43.1     118    -18    107    120    160  98.8  46.4  34178  289.87 0854.67
2009/04/23 12:44:43.2      67   -112    176    131    219 149.2  60.0  34162  289.62 0854.67
2009/04/23 12:44:43.3     103    -86    131    135    188 129.6  49.2  34164  289.65 0854.67
2009/04/23 12:44:43.4      39     17     32     43     53  66.5  40.7  34174  289.82 0854.67
2009/04/23 12:44:43.5      22     35     25     42     48  31.6  34.4  34174  289.82 0854.67
2009/04/23 12:44:43.6      75     10    116     76    138  82.1  64.1  34164  289.65 0854.67
2009/04/23 12:44:43.7      74    -58    149     95    176 128.2  64.6  34154  289.46 0854.67
2009/04/23 12:44:43.8      -1   -133    253    134    286 180.5  69.9  34158  289.53 0854.67
2009/04/23 12:44:43.9     -83   -285    172    297    343 196.3  32.7  34156  289.52 0854.67
2009/04/23 12:44:44.0    -137   -168     -8    217    218 219.2  -2.1  34156  289.52 0854.67
2009/04/23 12:44:44.1    -122   -172    -28    211    213 215.4  -7.7  34154  289.46 0854.67
2009/04/23 12:44:44.3    -159   -187    175    246    301 220.3  38.8  34154  289.47 0854.67
2009/04/23 12:44:44.3     -58   -216    210    224    307 195.1  48.0  34152  289.42 0854.67
2009/04/23 12:44:44.5      16   -152    189    153    243 173.8  57.1  34150  289.40 0854.67
2009/04/23 12:44:44.6       0      0     98      0     98   0.0 -90.0  34152  289.45 0854.67
2009/04/23 12:44:44.7     110    -44    149    119    190 111.8  56.9  34156  289.52 0854.67
2009/04/23 12:44:44.8      81   -119    123    145    190 145.7  44.5  34156  289.52 0854.67
2009/04/23 12:44:44.9      97   -116    134    152    202 140.3  46.2  34158  289.53 0854.67
2009/04/23 12:44:45.0      85   -127     74    153    169 146.2  27.4  34154  289.46 0854.67
2009/04/23 12:44:45.1      85   -293     -9    306    307 163.7  -1.8  34156  289.49 0854.67
2009/04/23 12:44:45.2     149    -51     46    158    165 109.1  16.3  34154  289.48 0854.67
2009/04/23 12:44:45.3     188   -124    -12    226    227 123.5  -3.1  34152  289.45 0854.67
2009/04/23 12:44:45.4     220   -179    101    284    302 129.1  19.6  34154  289.47 0854.67
2009/04/23 12:44:45.5      19   -109    113    111    158 169.8  50.4  34152  289.45 0854.67
2009/04/23 12:44:45.6      48    -45    126     67    142 133.2  69.8  34156  289.52 0854.67
2009/04/23 12:44:45.7      42   -102    202    111    230 157.3  68.9  34158  289.55 0854.67
2009/04/23 12:44:45.8     173    -77     80    190    206 114.2  24.3  34152  289.45 0854.67
2009/04/23 12:44:45.9     201    -83    154    218    266 112.4  38.6  34152  289.44 0854.67
2009/04/23 12:44:46.0     185     22     -7    187    188  83.2  -2.3  34156  289.52 0854.67
2009/04/23 12:44:46.1     144    -43     52    151    160 106.8  19.2  34154  289.46 0854.67
2009/04/23 12:44:46.2       4   -108    109    109    154 177.8  50.1  34156  289.52 0854.69
2009/04/23 12:44:46.3      97   -152    161    181    242 147.5  46.4  34154  289.48 0854.69
2009/04/23 12:44:46.4     163    -80    230    182    293 116.2  57.7  34156  289.49 0854.69
2009/04/23 12:44:46.5     301    -17    156    302    339  93.4  29.5  34158  289.53 0854.69
2009/04/23 12:44:46.6      55   -218    206    226    305 165.7  47.1  34156  289.49 0854.69
2009/04/23 12:44:46.7      86   -129    -13    156    157 146.2  -4.9  34154  289.46 0854.69
2009/04/23 12:44:46.8     265    -58    -35    272    275 102.4  -7.3  34152  289.42 0854.69
2009/04/23 12:44:46.9     215   -201    149    295    330 133.1  28.9  34152  289.42 0854.69
2009/04/23 12:44:47.0     274   -426     80    507    514 147.2   9.0  34142  289.28 0854.69
2009/04/23 12:44:47.1     408   -371    242    552    602 132.3  25.2  34146  289.32 0854.69
2009/04/23 12:44:47.2     208   -242    202    320    378 139.4  35.5  34146  289.35 0854.69
2009/04/23 12:44:47.3     166   -212    132    270    300 141.9  28.0  34150  289.39 0854.69
2009/04/23 12:44:47.4      88   -162      1    185    186 151.5   0.5  34148  289.36 0854.69
2009/04/23 12:44:47.5      17   -226    -41    227    231 175.5 -10.3  34148  289.38 0854.69
2009/04/23 12:44:47.6     -45   -245     -3    250    251 190.5  -0.7  34150  289.39 0854.69
2009/04/23 12:44:47.7     -42   -313     74    316    325 187.8  13.2  34150  289.41 0854.69
2009/04/23 12:44:47.8    -128   -282    109    310    328 204.5  20.1  34152  289.42 0854.69
2009/04/23 12:44:47.9    -226   -416     62    474    478 208.6   7.5  34152  289.44 0854.69
2009/04/23 12:44:48.0    -259   -437    -47    508    511 210.7  -5.4  34156  289.52 0854.69
2009/04/23 12:44:48.1     -45   -376   -132    379    401 186.9 -24.3  34156  289.50 0854.69
2009/04/23 12:44:48.2     -24   -219   -206    221    302 186.5 -52.3  34156  289.49 0854.69
2009/04/23 12:44:48.3      62   -295   -208    302    366 168.0 -42.2  34152  289.43 0854.69
2009/04/23 12:44:48.4     133   -261   -157    294    333 152.9 -34.9  34154  289.47 0854.69
2009/04/23 12:44:48.5     139   -251   -138    288    319 151.0 -31.8  34156  289.49 0854.69
2009/04/23 12:44:48.6      48   -180    -51    187    193 164.8 -20.0  34156  289.52 0854.69
2009/04/23 12:44:48.7      40   -132    -38    139    145 163.0 -15.5  34158  289.53 0854.69
2009/04/23 12:44:48.8      17   -124    -65    126    141 172.0 -33.7  34154  289.46 0854.69
2009/04/23 12:44:48.9     120    -38     56    126    137 107.7  25.2  34154  289.46 0854.69
2009/04/23 12:44:49.0     117    -33     79    122    145 105.9  35.6  34156  289.52 0854.69
2009/04/23 12:44:49.1     122    -83     54    148    157 124.2  21.0  34152  289.45 0854.69
2009/04/23 12:44:49.2     235    -85    -71    251    260 110.0 -20.7  34150  289.41 0854.67
2009/04/23 12:44:49.3     142   -223    -34    265    268 147.5  -7.3  34146  289.34 0854.67
2009/04/23 12:44:49.4     -53   -113      1    125    126 205.3   0.8  34152  289.45 0854.67
2009/04/23 12:44:49.5      33   -286     86    288    301 173.3  16.8  34148  289.37 0854.67
2009/04/23 12:44:49.6     -25   -191    140    193    238 187.6  39.7  34152  289.45 0854.67
2009/04/23 12:44:49.7      73    -44    101     86    132 121.5  55.4  34152  289.43 0854.67
2009/04/23 12:44:49.8      10     55     67     56     87  10.7  55.8  34152  289.45 0854.67
2009/04/23 12:44:49.9      20    -43    102     48    112 154.6  73.1  34150  289.40 0854.67
2009/04/23 12:44:50.0      55     53    -26     77     81  45.9 -23.6  34150  289.41 0854.67
2009/04/23 12:44:50.1     -36    -96     38    103    109 200.9  20.4  34152  289.43 0854.67
2009/04/23 12:44:50.2      14   -147     70    148    163 174.2  27.2  34152  289.43 0854.67
2009/04/23 12:44:50.3    -102    -36    -49    109    119 250.5 -30.1  34148  289.38 0854.67
2009/04/23 12:44:50.4      -7   -255    -84    256    270 181.8 -18.3  34140  289.24 0854.67
2009/04/23 12:44:50.5     -65   -216    227    226    320 196.9  50.0  34142  289.27 0854.67
2009/04/23 12:44:50.6    -181    -13    180    182    255 265.7  50.0  34150  289.39 0854.67
2009/04/23 12:44:50.7     -38    -38     31     54     62 225.0  31.4  34152  289.45 0854.67
2009/04/23 12:44:50.8     -48   -143    -94    152    178 198.7 -39.4  34146  289.33 0854.67
2009/04/23 12:44:50.9    -184   -290   -237    344    417 212.4 -42.3  34144  289.30 0854.67
2009/04/23 12:44:51.0    -281   -386    -26    478    479 216.1  -3.2  34148  289.37 0854.67
2009/04/23 12:44:51.1    -307   -238   -216    389    444 232.2 -35.8  34142  289.26 0854.67
2009/04/23 12:44:51.2    -214   -252   -254    331    417 220.4 -45.8  34144  289.30 0854.68
2009/04/23 12:44:51.3     -42   -272   -200    276    340 188.9 -43.9  34146  289.34 0854.68
2009/04/23 12:44:51.4      13    -99    -27    100    104 172.0 -15.5  34148  289.36 0854.68
2009/04/23 12:44:51.5     160    -95    -72    187    200 120.7 -26.1  34150  289.41 0854.68
2009/04/23 12:44:51.6      77   -213     -2    227    228 159.9  -0.7  34144  289.30 0854.68
2009/04/23 12:44:51.7     180   -603     24    630    631 163.4   2.2  34142  289.25 0854.68
2009/04/23 12:44:51.8      78   -554    -22    560    561 171.9  -2.3  34144  289.31 0854.68
2009/04/23 12:44:51.9     107   -495    -53    507    510 167.7  -6.1  34136  289.15 0854.68
2009/04/23 12:44:52.0     232   -551    -53    598    601 157.2  -5.1  34148  289.36 0854.68
2009/04/23 12:44:52.1     274   -424    -33    506    508 147.1  -3.7  34144  289.30 0854.68
2009/04/23 12:44:52.2     335   -357     64    490    495 136.8   7.5  34146  289.35 0854.68
2009/04/23 12:44:52.3     305   -289    164    421    451 133.5  22.5  34148  289.36 0854.68
2009/04/23 12:44:52.4     187   -361     91    407    418 152.6  12.6  34146  289.33 0854.68
2009/04/23 12:44:52.5     153   -330    131    364    386 155.1  20.6  34152  289.43 0854.68
2009/04/23 12:44:52.6     210   -407     71    459    465 152.7   8.9  34148  289.36 0854.68
2009/04/23 12:44:52.7     178   -280     90    333    346 147.5  15.2  34146  289.33 0854.68
2009/04/23 12:44:52.8     331   -246    293    413    506 126.6  38.8  34146  289.32 0854.68
2009/04/23 12:44:52.9     139   -148    274    204    341 136.8  59.8  34138  289.20 0854.68
2009/04/23 12:44:53.0    -231   -433    142    491    512 208.1  16.1  34144  289.30 0854.68
2009/04/23 12:44:53.1    -329   -567     74    656    661 210.1   6.5  34148  289.36 0854.68
2009/04/23 12:44:53.2    -305   -487    -59    575    579 212.1  -5.9  34150  289.39 0854.67
2009/04/23 12:44:53.3    -226   -385    -56    447    451 210.4  -7.2  34144  289.29 0854.67
2009/04/23 12:44:53.4    -279   -360     56    456    460 217.8   7.1  34148  289.36 0854.67
2009/04/23 12:44:53.5     -66   -278    -69    286    295 193.4 -13.7  34138  289.19 0854.67
2009/04/23 12:44:53.6    -188    -77    -44    204    209 247.6 -12.2  34144  289.31 0854.67
2009/04/23 12:44:53.7     -24   -117    -83    120    145 191.6 -42.0  34148  289.36 0854.67
2009/04/23 12:44:53.8    -135   -134    -86    191    209 225.1 -30.3  34148  289.38 0854.67
2009/04/23 12:44:53.9     -14   -190     20    191    193 184.5   6.1  34146  289.35 0854.67
2009/04/23 12:44:54.0     -21   -241    -86    242    257 185.1 -19.6  34146  289.34 0854.67
2009/04/23 12:44:54.1     -83   -158   -120    179    215 207.6 -41.4  34148  289.36 0854.67
2009/04/23 12:44:54.2     -89    -57    -60    106    121 237.1 -36.3  34148  289.38 0854.67
2009/04/23 12:44:54.3     -64      8    -69     65     94 277.9 -55.6  34148  289.36 0854.67
2009/04/23 12:44:54.4     -31     14    -27     35     44 295.2 -47.1  34148  289.36 0854.67
2009/04/23 12:44:54.5      -2     42    -82     43     92 357.3 -75.2  34150  289.41 0854.67
2009/04/23 12:44:54.6      -6     81    -82     82    115 355.5 -54.5  34150  289.41 0854.67
2009/04/23 12:44:54.7     -20     44    -64     49     80 335.5 -63.4  34150  289.41 0854.67
2009/04/23 12:44:54.8      -2     26    -54     27     60 355.6 -76.3  34152  289.43 0854.67
2009/04/23 12:44:54.9      40    -40    -32     57     65 135.0 -35.8  34154  289.46 0854.67
2009/04/23 12:44:55.0      68    -43      5     81     82 122.4   3.8  34154  289.46 0854.67
2009/04/23 12:44:55.1      43    -27     58     52     77 122.4  52.2  34152  289.43 0854.66
2009/04/23 12:44:55.2      52     -3    105     53    117  94.3  71.4  34160  289.57 0854.66
2009/04/23 12:44:55.3      82     -6     90     83    122  94.4  52.2  34150  289.41 0854.66
2009/04/23 12:44:55.4      55     10     78     56     96  79.4  61.1  34154  289.48 0854.66
2009/04/23 12:44:55.5      85     40     39     95    102  64.7  23.1  34154  289.46 0854.66
2009/04/23 12:44:55.6      39    -62     79     74    108 147.5  52.1  34152  289.45 0854.66
2009/04/23 12:44:55.7      34   -222     92    225    243 171.1  23.4  34152  289.42 0854.66
2009/04/23 12:44:55.8      -9   -255    201    256    325 182.2  42.2  34152  289.44 0854.66
2009/04/23 12:44:55.9      25   -128    259    131    290 168.9  71.1  34156  289.51 0854.66
2009/04/23 12:44:56.0     -33    -33    177     48    183 225.1  84.8  34156  289.52 0854.66
2009/04/23 12:44:56.1     -26     -4    140     27    142 260.3  89.6  34158  289.53 0854.66
2009/04/23 12:44:56.2     -10     29    256     31    257 340.0  90.0  34156  289.50 0854.66
2009/04/23 12:44:56.3     -29     42    224     52    229 324.8  87.3  34152  289.45 0854.66
2009/04/23 12:44:56.4     -80     23    201     84    217 285.9  76.3  34154  289.48 0854.66
2009/04/23 12:44:56.5      12   -118    275    119    299 173.8  75.0  34150  289.41 0854.66
2009/04/23 12:44:56.6     -78   -350    350    359    501 192.6  49.3  34154  289.46 0854.66
2009/04/23 12:44:56.7     -80   -287    338    298    450 195.6  54.2  34152  289.43 0854.66
2009/04/23 12:44:56.8    -164    -93    140    189    235 240.5  40.4  34146  289.35 0854.66
2009/04/23 12:44:56.9    -120    -46    135    129    186 248.7  51.4  34140  289.24 0854.66
2009/04/23 12:44:57.0       3   -220    305    221    376 179.0  60.6  34152  289.43 0854.66
2009/04/23 12:44:57.1      -4   -305    250    306    395 180.9  43.5  34152  289.43 0854.66
2009/04/23 12:44:57.2      36   -318    213    321    385 173.5  36.6  34154  289.47 0854.66
2009/04/23 12:44:57.3      -8   -277    171    278    326 181.8  34.6  34150  289.39 0854.66
2009/04/23 12:44:57.4      43   -216    167    221    277 168.7  40.9  34154  289.47 0854.66
2009/04/23 12:44:57.5      63   -250    191    259    321 165.7  40.0  34150  289.39 0854.66
2009/04/23 12:44:57.6      67    -22    155     71    170 108.4  73.8  34156  289.52 0854.66
2009/04/23 12:44:57.7     -60    -26    134     66    149 246.5  72.4  34158  289.53 0854.66
2009/04/23 12:44:57.8       4    -85    205     86    222 176.9  76.3  34156  289.52 0854.66
2009/04/23 12:44:57.9      31   -131    281    135    311 166.6  72.8  34158  289.53 0854.66
2009/04/23 12:44:58.0      32     -8    186     34    189 105.1  90.0  34156  289.52 0854.66
2009/04/23 12:44:58.1     173    -21    263    175    315  97.0  63.3  34158  289.53 0854.66
2009/04/23 12:44:58.2     318     72    183    327    374  77.2  31.6  34148  289.38 0854.66
2009/04/23 12:44:58.3     417    328    118    531    545  51.8  12.6  34132  289.09 0854.66
2009/04/23 12:44:58.4     200   -173     92    265    281 130.9  19.2  34156  289.51 0854.66
2009/04/23 12:44:58.5     103   -162    126    193    230 147.5  35.7  34154  289.48 0854.66
2009/04/23 12:44:58.6     208    -90    403    227    462 113.5  68.3  34144  289.30 0854.66
2009/04/23 12:44:58.7     235     14    428    236    488  86.5  68.9  34142  289.26 0854.66
2009/04/23 12:44:58.8     438     54    290    442    528  82.9  36.4  34152  289.45 0854.66
2009/04/23 12:44:58.9     419    182    238    457    515  66.5  29.6  34178  289.89 0854.66
2009/04/23 12:44:59.0     402     90    133    413    435  77.3  17.9  34212  290.44 0854.66
2009/04/23 12:44:59.1     236    -10    152    237    281  92.5  35.6  34204  290.32 0854.67
2009/04/23 12:44:59.2      93     51    119    107    160  61.1  53.5  34206  290.35 0854.67
2009/04/23 12:44:59.3     321    -51    362    326    487  99.1  53.3  34224  290.65 0854.67
2009/04/23 12:44:59.4     333    -23     88    334    346  94.1  14.9  34218  290.57 0854.67
2009/04/23 12:44:59.5     362    -22    171    363    401  93.5  27.1  34208  290.40 0854.67
2009/04/23 12:44:59.6     355    -13    100    356    370  92.1  15.8  34214  290.50 0854.67
2009/04/23 12:44:59.7     240    -48     64    245    254 101.5  14.7  34186  290.00 0854.67
2009/04/23 12:44:59.8     131    129     76    185    200  45.4  23.6  34212  290.45 0854.67
2009/04/23 12:44:59.9      59     47     34     76     83  51.4  25.7  34224  290.67 0854.67
2009/04/23 12:45:00.0      83    -56    -83    101    130 124.2 -48.1  34216  290.52 0854.67
2009/04/23 12:45:00.1      71    -45    -29     85     89 122.5 -23.3  34196  290.18 0854.67
2009/04/23 12:45:00.2      97      4    -32     98    104  87.4 -18.1  34200  290.25 0854.67
2009/04/23 12:45:00.3      97     15    -46     99    109  81.2 -31.5  34214  290.48 0854.67
2009/04/23 12:45:00.4      49     19    -94     53    107  68.3 -73.2  34204  290.31 0854.67
2009/04/23 12:45:00.5       2   -134    -42    135    141 179.1 -21.8  34176  289.85 0854.67
2009/04/23 12:45:00.6     151     11    -42    152    158  85.7 -15.5  34204  290.33 0854.67
2009/04/23 12:45:00.7     164     58   -110    174    205  70.5 -39.9  34196  290.19 0854.67
2009/04/23 12:45:00.8     -17     25    -47     31     56 325.7 -69.0  34200  290.26 0854.67
2009/04/23 12:45:00.9      71     -6     93     72    117  95.2  58.4  34222  290.62 0854.67
2009/04/23 12:45:01.0     150     -2    145    151    209  90.9  49.2  34250  291.11 0854.67
2009/04/23 12:45:01.1      19      8     98     21    100  66.5  89.0  34236  290.87 0854.68
2009/04/23 12:45:01.2      -7      8     77     11     77 320.4  90.0  34222  290.62 0854.68
2009/04/23 12:45:01.3    -127     48      9    136    137 290.8   3.8  34220  290.58 0854.68
2009/04/23 12:45:01.4     -88    -70    -14    113    114 231.4  -7.2  34194  290.14 0854.68
2009/04/23 12:45:01.5     -53   -112    -11    124    125 205.4  -5.1  34170  289.74 0854.68
2009/04/23 12:45:01.6     -26    -52     76     59     96 207.2  57.9  34170  289.74 0854.68
2009/04/23 12:45:01.7       1    -20      4     21     22 175.5  11.1  34168  289.72 0854.68
2009/04/23 12:45:01.8      82     84    126    118    172  44.1  52.0  34212  290.47 0854.68
2009/04/23 12:45:01.9      81    -40    136     91    163 116.2  63.4  34218  290.55 0854.68
2009/04/23 12:45:02.0      45    -45    133     65    148 135.0  72.8  34210  290.43 0854.68
2009/04/23 12:45:02.1     331     76     -2    340    341  77.0  -0.5  34172  289.79 0854.68
2009/04/23 12:45:02.2     377    168    122    413    431  65.9  16.5  34278  291.57 0854.68
2009/04/23 12:45:02.3     342    112     11    360    361  71.8   1.8  34222  290.64 0854.68
2009/04/23 12:45:02.4     225    170     25    283    285  52.9   5.2  34232  290.78 0854.68
2009/04/23 12:45:02.5     137    114     16    179    180  50.2   5.4  34282  291.64 0854.68
2009/04/23 12:45:02.6      58    165    167    176    242  19.6  48.7  34284  291.67 0854.68
2009/04/23 12:45:02.7     244     61     59    252    259  75.9  13.2  34284  291.67 0854.68
2009/04/23 12:45:02.8     301    234    204    382    433  52.2  30.3  34270  291.45 0854.68
2009/04/23 12:45:02.9     366    287    209    466    510  51.9  25.7  34252  291.12 0854.68
2009/04/23 12:45:03.0     495    296    174    577    603  59.1  16.8  34218  290.54 0854.68
2009/04/23 12:45:03.1     637    259    249    688    731  67.8  20.8  34228  290.73 0854.68
2009/04/23 12:45:03.2     634    199    297    665    728  72.6  25.7  34192  290.13 0854.68
2009/04/23 12:45:03.3     616    211    183    652    678  71.1  15.7  34222  290.61 0854.68
2009/04/23 12:45:03.4     701    264    241    750    788  69.3  17.8  34174  289.81 0854.68
2009/04/23 12:45:03.5     697    180    153    720    737  75.5  12.0  34178  289.88 0854.68
2009/04/23 12:45:03.6     506     96    -60    516    520  79.2  -6.7  34188  290.03 0854.68
2009/04/23 12:45:03.7     362    -16     -5    363    364  92.6  -0.9  34194  290.15 0854.68
2009/04/23 12:45:03.8     229     36    -38    232    236  81.0  -9.3  34198  290.22 0854.68
2009/04/23 12:45:03.9     150   -114   -122    189    224 127.3 -40.0  34196  290.19 0854.68
2009/04/23 12:45:04.0     156   -150   -156    217    267 134.0 -43.9  34210  290.42 0854.68
2009/04/23 12:45:04.1      -6    -29    -85     30     90 191.6 -85.1  34190  290.09 0854.68
2009/04/23 12:45:04.2     143    127   -262    192    324  48.4 -64.7  34206  290.34 0854.68
2009/04/23 12:45:04.3     161     93   -165    187    249  60.0 -50.3  34190  290.08 0854.68
2009/04/23 12:45:04.4      27   -134   -176    137    223 168.5 -62.9  34204  290.31 0854.68
2009/04/23 12:45:04.5      16   -206   -105    207    232 175.3 -33.6  34194  290.16 0854.68
2009/04/23 12:45:04.6     274    -91    167    289    333 108.4  32.6  34198  290.22 0854.68
2009/04/23 12:45:04.7     308   -117    173    330    372 110.8  29.8  34194  290.16 0854.68
2009/04/23 12:45:04.8     395    -67    156    401    430  99.7  22.4  34190  290.07 0854.68
2009/04/23 12:45:04.9     293    -94    107    308    327 107.8  19.2  34188  290.05 0854.68
2009/04/23 12:45:05.0     323   -144    101    354    369 114.1  16.0  34192  290.10 0854.68
2009/04/23 12:45:05.1     303   -133     21    332    333 113.7   3.6  34204  290.32 0854.68
2009/04/23 12:45:05.2     225   -149     -5    271    272 123.5  -1.3  34200  290.26 0854.68
2009/04/23 12:45:05.3     269   -186    -21    328    329 124.6  -3.7  34212  290.46 0854.68
2009/04/23 12:45:05.4     126   -200     27    237    239 147.7   6.7  34194  290.14 0854.68
2009/04/23 12:45:05.5      12   -273     34    274    277 177.3   7.1  34186  290.02 0854.68
2009/04/23 12:45:05.6     -38   -236    -13    240    241 189.3  -3.1  34198  290.22 0854.68
2009/04/23 12:45:05.7      93   -226    -49    245    250 157.7 -11.3  34192  290.12 0854.68
2009/04/23 12:45:05.8     203   -129     52    241    247 122.4  12.2  34198  290.22 0854.68
2009/04/23 12:45:05.9      36   -221    124    225    256 170.7  31.4  34214  290.48 0854.68
2009/04/23 12:45:06.1      19   -251     98    252    270 175.6  22.5  34218  290.56 0854.68
2009/04/23 12:45:06.1      88   -173     78    195    210 153.0  23.0  34212  290.47 0854.68
2009/04/23 12:45:06.2     105   -172     99    202    224 148.6  27.4  34202  290.28 0854.68
2009/04/23 12:45:06.3     112   -155    133    192    233 144.2  37.8  34190  290.09 0854.68
2009/04/23 12:45:06.4     185   -101    119    211    242 118.6  32.1  34196  290.17 0854.68
2009/04/23 12:45:06.5     198    -65    136    209    249 108.2  36.0  34192  290.12 0854.68
2009/04/23 12:45:06.6     110    -92    131    144    194 130.0  47.1  34200  290.25 0854.68
2009/04/23 12:45:06.7     142    -38    155    148    214 105.0  51.2  34202  290.28 0854.68
2009/04/23 12:45:06.8      -6    -88    111     89    142 184.5  56.4  34204  290.33 0854.68
2009/04/23 12:45:06.9      50    -41    123     66    139 129.5  69.3  34214  290.48 0854.68
2009/04/23 12:45:07.0      -6    -83    173     84    192 184.5  72.8  34220  290.58 0854.68
2009/04/23 12:45:07.1      -3    -25    164     26    166 188.0  90.0  34222  290.62 0854.69
2009/04/23 12:45:07.2    -105    -87    153    137    205 230.4  53.7  34228  290.72 0854.69
2009/04/23 12:45:07.3    -179   -217    207    282    349 219.6  39.8  34220  290.59 0854.69
2009/04/23 12:45:07.4     -91   -234    219    252    333 201.2  45.5  34192  290.10 0854.69
2009/04/23 12:45:07.5    -183   -232    220    296    368 218.3  40.4  34194  290.15 0854.69
2009/04/23 12:45:07.6    -341   -192    166    392    425 240.6  24.3  34206  290.36 0854.69
2009/04/23 12:45:07.7    -189   -117     48    223    229 238.2  12.2  34202  290.30 0854.69
2009/04/23 12:45:07.8     -43   -130     35    137    142 198.3  14.7  34192  290.11 0854.69
2009/04/23 12:45:07.9      64   -237    177    246    303 164.9  39.5  34188  290.05 0854.69
2009/04/23 12:45:08.0       0   -257    198    258    325 180.0  41.4  34190  290.07 0854.69
2009/04/23 12:45:08.1     -26   -289    175    291    339 185.3  34.0  34182  289.93 0854.69
2009/04/23 12:45:08.2     -13   -288    165    289    332 182.6  32.1  34176  289.85 0854.69
2009/04/23 12:45:08.3     -46   -285    254    289    384 189.3  45.8  34192  290.11 0854.69
2009/04/23 12:45:08.4     -29   -288    230    290    370 185.8  42.4  34182  289.93 0854.69
2009/04/23 12:45:08.5      -9   -265    248    266    363 182.0  47.9  34188  290.03 0854.69
2009/04/23 12:45:08.6       5   -246    200    247    317 178.6  43.1  34192  290.10 0854.69
2009/04/23 12:45:08.7      49   -363    207    367    421 172.3  31.9  34184  289.97 0854.69
2009/04/23 12:45:08.8      32   -330    157    332    367 174.3  27.1  34178  289.89 0854.69
2009/04/23 12:45:08.9      -1   -268    140    269    303 180.2  29.3  34178  289.88 0854.69
2009/04/23 12:45:09.0      64   -291     81    299    310 167.5  15.3  34174  289.80 0854.69
2009/04/23 12:45:09.1      36   -287     79    290    301 172.8  15.3  34164  289.63 0854.69
2009/04/23 12:45:09.2     -22   -278    162    279    322 184.7  32.9  34168  289.71 0854.69
2009/04/23 12:45:09.3      63   -287    129    294    321 167.5  25.1  34164  289.64 0854.69
2009/04/23 12:45:09.4      66   -301    117    309    330 167.6  21.6  34164  289.64 0854.69
2009/04/23 12:45:09.5      22   -288    117    289    311 175.6  23.1  34164  289.64 0854.69
2009/04/23 12:45:09.6     -13   -341    110    342    360 182.3  17.8  34162  289.60 0854.69
2009/04/23 12:45:09.7      39   -325    164    328    366 173.0  28.6  34166  289.67 0854.69
2009/04/23 12:45:09.8     -15   -319    182    320    368 182.7  32.3  34166  289.67 0854.69
2009/04/23 12:45:09.9     -66   -303    154    311    347 192.3  28.2  34166  289.67 0854.69
2009/04/23 12:45:10.0     -93   -352    142    365    391 194.8  22.4  34162  289.62 0854.69
2009/04/23 12:45:10.1    -111   -378    122    394    413 196.4  17.3  34158  289.55 0854.69
2009/04/23 12:45:10.2     -62   -364    165    370    405 189.7  25.7  34162  289.62 0854.69
2009/04/23 12:45:10.3     -23   -380    161    381    413 183.5  24.2  34162  289.61 0854.69
2009/04/23 12:45:10.4     -10   -358    166    359    395 181.7  26.4  34166  289.67 0854.69
2009/04/23 12:45:10.5      44   -284    166    288    332 171.1  32.7  34166  289.66 0854.69
2009/04/23 12:45:10.6      62   -306    211    313    377 168.4  37.4  34162  289.60 0854.69
2009/04/23 12:45:10.7      59   -396    140    401    424 171.5  20.0  34162  289.60 0854.69
2009/04/23 12:45:10.8      57   -400    139    405    429 171.8  18.9  34158  289.53 0854.69
2009/04/23 12:45:11.0      67   -389    160    395    426 170.1  23.1  34158  289.55 0854.69
2009/04/23 12:45:11.1     113   -433    152    448    474 165.4  18.8  34160  289.57 0854.69
2009/04/23 12:45:11.2      70   -403    201    410    456 170.1  28.1  34158  289.53 0854.69
2009/04/23 12:45:11.3      85   -408    202    417    463 168.2  27.4  34156  289.51 0854.69
2009/04/23 12:45:11.4     130   -391    158    413    442 161.5  22.0  34160  289.56 0854.69
2009/04/23 12:45:11.5      85   -388    147    398    424 167.6  21.1  34156  289.49 0854.69
2009/04/23 12:45:11.6      87   -429     87    438    447 168.5  11.3  34160  289.58 0854.69
2009/04/23 12:45:11.7      88   -438    126    447    465 168.6  15.8  34160  289.58 0854.69
2009/04/23 12:45:11.8      92   -433     63    443    448 167.9   8.1  34160  289.56 0854.69
2009/04/23 12:45:11.9      90   -414    119    424    441 167.6  15.7  34160  289.56 0854.69
2009/04/23 12:45:12.0      74   -367    126    375    396 168.5  18.6  34162  289.60 0854.69
2009/04/23 12:45:12.1      70   -336    143    344    372 168.1  23.8  34160  289.57 0854.69
2009/04/23 12:45:12.2     181   -367    221    410    465 153.7  30.7  34154  289.46 0854.68
2009/04/23 12:45:12.3     159   -438    179    467    500 160.0  22.1  34156  289.50 0854.68
2009/04/23 12:45:12.4     118   -443    162    459    488 165.1  19.5  34160  289.56 0854.68
2009/04/23 12:45:12.5     175   -387    224    425    480 155.7  30.0  34156  289.51 0854.68
2009/04/23 12:45:12.6      35   -353    195    355    405 174.2  31.3  34156  289.50 0854.68
2009/04/23 12:45:12.7     -31   -349    144    351    379 185.2  23.5  34154  289.48 0854.68
2009/04/23 12:45:12.8     -53   -302    263    307    404 190.0  44.9  34154  289.48 0854.68
2009/04/23 12:45:12.9     -46   -229    144    234    274 191.6  34.5  34158  289.53 0854.68
2009/04/23 12:45:13.0     -30   -174      9    177    178 189.8   2.9  34158  289.55 0854.68
2009/04/23 12:45:13.1      72   -140    -44    158    165 152.8 -15.8  34158  289.53 0854.68
2009/04/23 12:45:13.2     170    -91    -64    194    204 118.2 -23.8  34162  289.60 0854.68
2009/04/23 12:45:13.3      87   -112    -55    142    152 142.2 -26.4  34158  289.55 0854.68
2009/04/23 12:45:13.4     117    -35    -15    123    124 106.9  -7.2  34154  289.48 0854.68
2009/04/23 12:45:13.5      46    -22     17     52     55 115.4  18.4  34160  289.58 0854.68
2009/04/23 12:45:13.6      54   -160     30    169    172 161.3  10.1  34158  289.55 0854.68
2009/04/23 12:45:13.7       0   -142     -5    143    144 180.0  -2.2  34160  289.57 0854.68
2009/04/23 12:45:13.8       0   -166     17    167    168 180.0   6.1  34156  289.52 0854.68
2009/04/23 12:45:13.9      -2   -186    108    187    215 180.9  32.4  34154  289.48 0854.68
2009/04/23 12:45:14.0     -30   -175    136    178    224 190.0  41.4  34156  289.50 0854.68
2009/04/23 12:45:14.1       0    -88     49     89    101 180.5  31.4  34156  289.52 0854.68
2009/04/23 12:45:14.2      96    -35     84    103    132 110.4  43.7  34156  289.52 0854.69
2009/04/23 12:45:14.3      70    -84     49    110    120 140.3  25.2  34154  289.46 0854.69
2009/04/23 12:45:14.4      91     36    -31     99    104  68.2 -17.6  34158  289.53 0854.69
2009/04/23 12:45:14.5     123     75    -14    145    146  58.5  -5.6  34158  289.55 0854.69
2009/04/23 12:45:14.6     118     29      3    122    123  75.8   1.8  34160  289.58 0854.69
2009/04/23 12:45:14.7     153     17     42    155    161  83.4  15.3  34158  289.55 0854.69
2009/04/23 12:45:14.8     163     14     68    164    177  84.8  23.6  34158  289.53 0854.69
2009/04/23 12:45:14.9     144     16     77    145    164  83.4  30.3  34156  289.52 0854.69
2009/04/23 12:45:15.0      47     51     89     70    113  43.2  57.5  34160  289.58 0854.69
2009/04/23 12:45:15.1      36     12     88     39     96  71.4  74.5  34160  289.58 0854.69
2009/04/23 12:45:15.2      31    -86    127     92    156 160.0  60.8  34158  289.55 0854.69
2009/04/23 12:45:15.3     132    -17    128    134    185  97.5  48.7  34158  289.53 0854.69
2009/04/23 12:45:15.4     171    -87    133    193    234 117.1  37.8  34154  289.48 0854.69
2009/04/23 12:45:15.5      86     16    -22     88     91  79.0 -14.5  34156  289.50 0854.69
2009/04/23 12:45:15.6       8      8    -65     12     66  46.9 -90.0  34158  289.53 0854.69
2009/04/23 12:45:15.7     -30     -9   -146     32    149 251.8 -90.0  34160  289.58 0854.69
2009/04/23 12:45:15.8     -26    -99   -202    103    226 195.1 -75.5  34152  289.45 0854.69
2009/04/23 12:45:15.9     178     70   -126    192    229  68.3 -40.7  34150  289.41 0854.69
2009/04/23 12:45:16.0     205    290    -63    356    362  35.2 -10.1  34146  289.35 0854.69
2009/04/23 12:45:16.1      91    194    155    215    265  25.2  39.5  34154  289.46 0854.69
2009/04/23 12:45:16.2     -96    194     80    217    231 333.5  20.9  34154  289.48 0854.70
2009/04/23 12:45:16.3     -48     98     58    110    124 333.7  30.3  34160  289.58 0854.70
2009/04/23 12:45:16.4     -53    155     32    164    168 341.1  11.1  34158  289.55 0854.70
2009/04/23 12:45:16.5      36     80    110     88    140  24.5  56.9  34162  289.62 0854.70
2009/04/23 12:45:16.6     -16     61    104     64    122 344.9  65.7  34160  289.57 0854.70
2009/04/23 12:45:16.7      15     49    158     52    166  17.8  80.7  34160  289.58 0854.70
2009/04/23 12:45:16.8     -54    -85    195    101    219 212.5  70.6  34162  289.60 0854.70
2009/04/23 12:45:16.9    -257   -250    273    359    451 225.8  41.2  34156  289.51 0854.70
2009/04/23 12:45:17.0    -221   -252    134    336    361 221.3  23.0  34154  289.47 0854.70
2009/04/23 12:45:17.1    -279   -112     85    301    313 248.0  15.8  34152  289.42 0854.70
2009/04/23 12:45:17.2    -295   -118     62    318    325 248.2  11.1  34156  289.49 0854.70
2009/04/23 12:45:17.3    -182    -40     65    187    197 257.6  20.0  34156  289.52 0854.70
2009/04/23 12:45:17.4    -206    -15    139    207    249 265.7  37.0  34150  289.39 0854.70
2009/04/23 12:45:17.5    -206   -213    173    297    343 224.1  32.8  34156  289.50 0854.70
2009/04/23 12:45:17.6    -252   -316    144    405    430 218.6  19.6  34152  289.44 0854.70
2009/04/23 12:45:17.7    -259   -333    194    423    465 217.9  26.4  34152  289.44 0854.70
2009/04/23 12:45:17.8    -299   -261    183    398    438 228.9  26.3  34160  289.58 0854.70
2009/04/23 12:45:17.9    -283   -115    192    306    361 247.8  35.3  34154  289.47 0854.70
2009/04/23 12:45:18.0    -100     72    208    124    242 306.0  66.4  34154  289.46 0854.70
2009/04/23 12:45:18.1    -194   -357    256    407    480 208.6  35.2  34152  289.44 0854.70
2009/04/23 12:45:18.2    -207   -399    262    450    520 207.5  32.9  34164  289.64 0854.70
2009/04/23 12:45:18.3    -300   -374    111    480    493 218.7  13.1  34150  289.39 0854.70
2009/04/23 12:45:18.4    -322   -396    115    511    524 219.1  12.8  34158  289.55 0854.70
2009/04/23 12:45:18.5    -133   -326    255    353    435 202.3  39.5  34160  289.56 0854.70
2009/04/23 12:45:18.6    -172   -411    232    446    502 202.7  29.8  34152  289.42 0854.70
2009/04/23 12:45:18.7    -106   -425    157    438    465 194.0  20.6  34150  289.41 0854.70
2009/04/23 12:45:18.8     -77   -470    169    477    506 189.3  20.3  34156  289.49 0854.70
2009/04/23 12:45:18.9      16   -582    135    583    599 178.4  13.1  34156  289.52 0854.70
2009/04/23 12:45:19.0     113   -417    251    433    500 164.8  32.8  34156  289.52 0854.70
2009/04/23 12:45:19.1     290   -496     53    575    578 149.7   5.3  34158  289.54 0854.70
2009/04/23 12:45:19.2     255   -509     63    570    574 153.4   6.4  34156  289.51 0854.70
2009/04/23 12:45:19.3     307   -316    220    441    492 135.8  28.5  34160  289.57 0854.70
2009/04/23 12:45:19.4     276   -297    189    406    447 137.1  27.0  34158  289.55 0854.70
2009/04/23 12:45:19.5     196   -203    163    283    326 135.9  32.7  34154  289.47 0854.70
2009/04/23 12:45:19.6     116   -182    101    217    239 147.4  26.6  34160  289.58 0854.70
2009/04/23 12:45:19.7      47      0    169     48    175  90.8  84.1  34156  289.52 0854.70
2009/04/23 12:45:19.8      -1    -37    213     38    216 182.6  90.0  34164  289.65 0854.70
2009/04/23 12:45:19.9     -48     31    161     58    171 302.5  79.9  34168  289.70 0854.70
2009/04/23 12:45:20.0     -99    -19    169    101    196 259.0  66.7  34168  289.70 0854.70
2009/04/23 12:45:20.1    -156    -63     99    169    195 248.0  33.1  34164  289.65 0854.70
2009/04/23 12:45:20.2    -218   -161    170    272    320 233.6  35.1  34166  289.68 0854.70
2009/04/23 12:45:20.3    -181   -168    230    248    338 227.1  47.9  34164  289.64 0854.70
2009/04/23 12:45:20.4    -210    -70    187    222    290 251.4  44.3  34166  289.66 0854.70
2009/04/23 12:45:20.5    -255    -63    103    263    282 256.1  22.5  34164  289.63 0854.70
2009/04/23 12:45:20.6    -263    -79    -94    275    291 253.2 -18.9  34166  289.66 0854.70
2009/04/23 12:45:20.7    -342   -155    -88    376    387 245.6 -13.3  34164  289.64 0854.70
2009/04/23 12:45:20.8    -346   -100    -87    361    372 253.8 -13.6  34162  289.60 0854.70
2009/04/23 12:45:20.9    -503    -96   -216    513    556 259.1 -28.6  34162  289.60 0854.70
2009/04/23 12:45:21.0    -362   -196   -230    412    471 241.5 -36.0  34168  289.72 0854.70
2009/04/23 12:45:21.1    -400    -83    148    409    434 258.2  20.9  34162  289.60 0854.70
2009/04/23 12:45:21.2    -304   -121    117    328    348 248.3  20.3  34160  289.57 0854.70
2009/04/23 12:45:21.3    -230    -89     86    247    262 248.7  19.2  34164  289.64 0854.70
2009/04/23 12:45:21.4    -228    -68    109    238    261 253.4  26.2  34164  289.64 0854.70
2009/04/23 12:45:21.5    -209    -35     78    213    226 260.3  21.0  34166  289.69 0854.70
2009/04/23 12:45:21.6     -72   -140    -46    158    165 207.2 -16.4  34166  289.67 0854.70
2009/04/23 12:45:21.7     -50   -144     39    153    158 199.2  14.3  34164  289.65 0854.70
2009/04/23 12:45:21.8     114   -150    -34    189    193 142.6 -10.3  34162  289.62 0854.70
2009/04/23 12:45:21.9     166    -91      9    190    191 118.9   2.9  34166  289.67 0854.70
2009/04/23 12:45:22.0     253    -51     61    259    267 101.5  13.2  34158  289.54 0854.70
2009/04/23 12:45:22.1     236     73    106    248    269  72.7  24.6  34166  289.68 0854.71
2009/04/23 12:45:22.2     173    123    119    213    243  54.5  31.9  34160  289.58 0854.71
2009/04/23 12:45:22.3     247     16      7    248    249  86.1   1.8  34166  289.66 0854.71
2009/04/23 12:45:22.4     285     28   -112    287    308  84.3 -26.9  34168  289.71 0854.71
2009/04/23 12:45:22.5     134    129    -95    187    209  46.2 -33.5  34168  289.70 0854.71
2009/04/23 12:45:22.6     198    143    -80    245    257  54.3 -23.3  34160  289.58 0854.71
2009/04/23 12:45:22.7     241     96    -44    260    264  68.2  -9.8  34166  289.66 0854.71
2009/04/23 12:45:22.8     155     -2     89    156    179  90.9  32.1  34166  289.67 0854.71
2009/04/23 12:45:22.9     171     17     90    172    194  84.3  30.1  34166  289.67 0854.71
2009/04/23 12:45:23.0     205    -64     -2    215    216 107.5  -0.7  34166  289.67 0854.71
2009/04/23 12:45:23.1     121     46     68    130    146  69.2  29.3  34164  289.65 0854.71
2009/04/23 12:45:23.2     104     48    -51    115    125  65.2 -29.6  34166  289.69 0854.71
2009/04/23 12:45:23.3     145    -28    -42    148    155 101.0 -16.0  34162  289.60 0854.71
2009/04/23 12:45:23.4      75     15     77     77    108  78.6  50.1  34168  289.70 0854.71
2009/04/23 12:45:23.5      71    -71     66    101    120 135.0  36.0  34168  289.70 0854.71
2009/04/23 12:45:23.6     179     26    -57    181    189  81.6 -23.0  34168  289.70 0854.71
2009/04/23 12:45:23.7     105   -105    -35    149    154 135.0 -13.2  34166  289.67 0854.71
2009/04/23 12:45:23.8     157   -113    -61    194    204 125.9 -17.5  34164  289.65 0854.71
2009/04/23 12:45:23.9     116   -195   -110    228    253 149.3 -31.8  34168  289.70 0854.71
2009/04/23 12:45:24.0     225   -324   -108    395    410 145.2 -15.4  34170  289.73 0854.71
2009/04/23 12:45:24.1      90   -360     18    372    373 166.0   2.9  34162  289.62 0854.73
2009/04/23 12:45:24.2     184   -370     99    414    426 153.5  13.5  34162  289.61 0854.73
2009/04/23 12:45:24.3      55   -312    135    317    344 170.0  24.6  34166  289.67 0854.73
2009/04/23 12:45:24.4      34   -254    108    257    278 172.2  24.1  34166  289.68 0854.73
2009/04/23 12:45:24.5      -3   -220    141    221    262 181.0  35.6  34166  289.66 0854.73
2009/04/23 12:45:24.6     -72   -238    167    249    299 197.0  37.0  34160  289.58 0854.73
2009/04/23 12:45:24.7     -92   -245    101    262    280 200.7  22.1  34162  289.59 0854.73
2009/04/23 12:45:24.8    -154   -198    109    252    274 217.9  25.1  34164  289.63 0854.73
2009/04/23 12:45:24.9       6   -162     88    163    185 177.8  30.8  34164  289.63 0854.73
2009/04/23 12:45:25.0      13   -169    107    170    200 175.5  35.2  34164  289.63 0854.73
2009/04/23 12:45:25.1      37   -300     99    303    319 172.9  18.2  34168  289.71 0854.73
2009/04/23 12:45:25.2      49   -313    106    317    335 171.1  18.5  34166  289.67 0854.73
2009/04/23 12:45:25.3      57   -288     41    294    297 168.7   8.0  34168  289.71 0854.73
2009/04/23 12:45:25.4     119   -250    -20    278    279 154.5  -4.1  34166  289.68 0854.73
2009/04/23 12:45:25.5     190   -181     12    263    264 133.6   2.8  34164  289.64 0854.73
2009/04/23 12:45:25.6      86   -248     82    263    276 160.8  17.4  34168  289.70 0854.73
2009/04/23 12:45:25.7     -23   -229    -47    231    236 185.8 -11.6  34166  289.66 0854.73
2009/04/23 12:45:25.8    -118   -296    -15    319    320 201.8  -2.8  34166  289.68 0854.73
2009/04/23 12:45:25.9    -162   -362    -99    397    410 204.1 -14.1  34168  289.72 0854.73
2009/04/23 12:45:26.0    -151   -424     92    451    461 199.6  11.6  34158  289.53 0854.73
2009/04/23 12:45:26.1    -167   -361    125    398    418 204.8  17.4  34168  289.72 0854.76
2009/04/23 12:45:26.2    -140   -388    175    413    448 199.9  24.5  34166  289.66 0854.76
2009/04/23 12:45:26.3     -58   -351    205    356    410 189.4  32.4  34162  289.59 0854.76
2009/04/23 12:45:26.4     100   -311    226    327    397 162.2  38.0  34166  289.69 0854.76
2009/04/23 12:45:26.5      87   -257    241    272    363 161.3  45.9  34172  289.76 0854.76
2009/04/23 12:45:26.6     195   -204    261    283    384 136.3  47.7  34170  289.74 0854.76
2009/04/23 12:45:26.7     135   -232    256    269    371 149.9  48.5  34162  289.59 0854.76
2009/04/23 12:45:26.8     240   -329    290    408    500 143.9  39.1  34166  289.66 0854.76
2009/04/23 12:45:26.9     220   -427    295    481    564 152.7  34.4  34166  289.67 0854.76
2009/04/23 12:45:27.0     294   -277    277    405    490 133.3  37.8  34164  289.63 0854.76
2009/04/23 12:45:27.1     421   -286    197    509    545 124.2  22.3  34166  289.67 0854.76
2009/04/23 12:45:27.2     488   -384    220    622    660 128.2  19.5  34162  289.62 0854.76
2009/04/23 12:45:27.3     292   -258    235    390    455 131.5  33.8  34162  289.61 0854.76
2009/04/23 12:45:27.4     451   -362    222    579    620 128.7  22.1  34162  289.59 0854.76
2009/04/23 12:45:27.5     363   -374     81    522    529 135.9   8.8  34166  289.67 0854.76
2009/04/23 12:45:27.6     393   -552    102    678    686 144.5   8.6  34164  289.65 0854.76
2009/04/23 12:45:27.7     398   -528     40    662    664 143.0   3.5  34162  289.61 0854.76
2009/04/23 12:45:27.8     329   -622    306    704    767 152.1  25.1  34154  289.48 0854.76
2009/04/23 12:45:27.9     136   -573    302    590    662 166.6  29.3  34160  289.57 0854.76
2009/04/23 12:45:28.0     -49   -488    284    491    567 185.8  32.7  34162  289.60 0854.76
2009/04/23 12:45:28.1      39   -344    157    347    380 173.5  26.2  34166  289.67 0854.74
2009/04/23 12:45:28.2     148   -122    127    192    230 129.5  36.5  34168  289.72 0854.74
2009/04/23 12:45:28.3     220   -180     51    285    290 129.3  10.3  34164  289.64 0854.74
2009/04/23 12:45:28.4     271    -87    131    285    313 107.9  26.4  34166  289.68 0854.74
2009/04/23 12:45:28.5     179   -173    140    250    286 134.0  31.6  34162  289.61 0854.74
2009/04/23 12:45:28.6     200    -79    188    216    286 111.5  45.8  34170  289.73 0854.74
2009/04/23 12:45:28.7     226      4    234    227    326  88.7  50.9  34164  289.63 0854.74
2009/04/23 12:45:28.8     248     82    267    262    374  71.6  50.6  34164  289.64 0854.74
2009/04/23 12:45:28.9     244     33    206    247    321  82.3  44.2  34168  289.70 0854.74
2009/04/23 12:45:29.0     334     55     -6    339    340  80.5  -1.1  34166  289.69 0854.74
2009/04/23 12:45:29.1     239    -96    185    258    317 112.0  39.2  34166  289.68 0854.65
2009/04/23 12:45:29.2     191    -68     32    203    206 109.7   9.0  34160  289.58 0854.65
2009/04/23 12:45:29.3      66    -34     68     75    101 117.1  47.5  34170  289.74 0854.65
2009/04/23 12:45:29.4      33    -33     67     48     82 135.0  61.1  34168  289.70 0854.65
2009/04/23 12:45:29.5      32    -16     32     37     48 117.1  46.9  34170  289.75 0854.65
2009/04/23 12:45:29.6      15      0      2     16     17  90.0   6.9  34168  289.72 0854.65
2009/04/23 12:45:29.7      56     22     69     61     92  68.2  53.7  34170  289.74 0854.65
2009/04/23 12:45:29.8      -5     92    123     93    154 356.9  59.0  34170  289.75 0854.65
2009/04/23 12:45:29.9     -17     67    123     70    141 345.7  68.3  34174  289.80 0854.65
2009/04/23 12:45:30.0     -80    171     90    190    210 334.8  27.2  34164  289.63 0854.65
2009/04/23 12:45:30.1    -152    246     61    290    297 328.4  12.0  34168  289.71 0854.65
2009/04/23 12:45:30.2    -203    214    147    296    330 316.6  28.2  34170  289.75 0854.65
2009/04/23 12:45:30.3     -97    210    194    232    302 335.3  43.8  34170  289.73 0854.65
2009/04/23 12:45:30.4    -237    129    201    270    336 298.6  40.2  34162  289.59 0854.65
2009/04/23 12:45:30.5    -245    249    128    350    372 315.4  21.0  34154  289.48 0854.65
2009/04/23 12:45:30.6    -284    180    134    337    362 302.4  22.9  34164  289.65 0854.65
2009/04/23 12:45:30.7    -240    -74    116    252    277 252.7  26.4  34168  289.71 0854.65
2009/04/23 12:45:30.8    -339    -67    -32    346    348 258.8  -5.3  34164  289.64 0854.65
2009/04/23 12:45:30.9    -573    -17   -158    574    596 268.3 -15.4  34158  289.54 0854.65
2009/04/23 12:45:31.0    -594    -10   -132    595    610 269.0 -12.5  34160  289.56 0854.65
2009/04/23 12:45:31.1    -484   -105    -85    496    504 257.7  -9.8  34164  289.64 0854.64
2009/04/23 12:45:31.2    -447   -163    -64    477    482 249.9  -7.7  34156  289.49 0854.64
2009/04/23 12:45:31.3    -326     45   -104    330    347 277.9 -17.5  34164  289.64 0854.64
2009/04/23 12:45:31.4    -504    -15    -45    505    508 268.2  -5.1  34164  289.64 0854.64
2009/04/23 12:45:31.5    -420    -94    150    431    457 257.3  19.3  34160  289.58 0854.64
2009/04/23 12:45:31.6    -331   -240    103    409    422 234.0  14.2  34164  289.65 0854.64
2009/04/23 12:45:31.7    -350    201     -2    404    405 299.9  -0.4  34174  289.80 0854.64
2009/04/23 12:45:31.8    -356    258    -39    441    443 306.0  -5.1  34178  289.88 0854.64
2009/04/23 12:45:31.9    -247    296    -90    386    397 320.1 -13.2  34170  289.74 0854.64
2009/04/23 12:45:32.0    -222    225    106    317    335 315.5  18.6  34168  289.70 0854.64
2009/04/23 12:45:32.1    -358     62    -51    364    368 279.9  -8.1  34158  289.55 0854.64
2009/04/23 12:45:32.2    -286    -13    164    287    330 267.2  32.4  34174  289.80 0854.64
2009/04/23 12:45:32.3    -332     19     75    333    342 273.4  12.8  34162  289.60 0854.64
2009/04/23 12:45:32.4    -410   -228     38    470    472 240.9   4.7  34174  289.81 0854.64
2009/04/23 12:45:32.5    -436   -267     16    512    513 238.5   1.8  34172  289.79 0854.64
2009/04/23 12:45:32.6    -369   -287    -77    468    475 232.2  -9.4  34172  289.78 0854.64
2009/04/23 12:45:32.7    -312   -284    107    422    436 227.7  14.3  34166  289.66 0854.64
2009/04/23 12:45:32.8    -418    -51    110    422    437 263.0  14.6  34170  289.73 0854.64
2009/04/23 12:45:32.9    -450   -105    -33    463    465 256.8  -4.1  34162  289.61 0854.64
2009/04/23 12:45:33.0    -335   -313     46    459    462 227.0   5.8  34160  289.58 0854.64
2009/04/23 12:45:33.1    -309   -241     89    393    403 232.0  12.8  34164  289.65 0854.66
2009/04/23 12:45:33.2    -112   -176     58    209    218 212.5  15.6  34162  289.60 0854.66
2009/04/23 12:45:33.3     -85   -387    119    397    415 192.5  16.7  34162  289.60 0854.66
2009/04/23 12:45:33.4    -167   -470    128    499    516 199.6  14.4  34156  289.49 0854.66
2009/04/23 12:45:33.5    -238   -185     42    302    306 232.2   8.0  34156  289.51 0854.66
2009/04/23 12:45:33.6    -450   -295     32    539    540 236.7   3.5  34172  289.79 0854.66
2009/04/23 12:45:33.7    -350    -42    -77    353    362 263.0 -12.4  34164  289.64 0854.66
2009/04/23 12:45:33.8    -338    191   -225    389    449 299.4 -37.1  34174  289.80 0854.66
2009/04/23 12:45:33.9    -112    139   -292    179    342 321.0 -70.0  34172  289.76 0854.66
2009/04/23 12:45:34.0      34    101   -161    107    193  18.7 -68.0  34170  289.75 0854.66
2009/04/23 12:45:34.1      75    117   -185    140    232  32.6 -63.6  34162  289.60 0854.66
2009/04/23 12:45:34.2      70    -31   -175     77    191 114.4 -79.2  34166  289.69 0854.66
2009/04/23 12:45:34.3     328     49   -196    332    385  81.4 -37.8  34170  289.74 0854.66
2009/04/23 12:45:34.4     572    108   -188    583    613  79.3 -17.9  34178  289.86 0854.66
2009/04/23 12:45:34.5     607    193   -125    638    651  72.3 -11.1  34168  289.70 0854.66
2009/04/23 12:45:34.6     578     45   -195    580    613  85.5 -18.6  34172  289.76 0854.66
2009/04/23 12:45:34.7     657    156    -99    676    684  76.6  -8.4  34158  289.53 0854.66
2009/04/23 12:45:34.8     595     10     39    596    598  89.0   3.8  34162  289.61 0854.66
2009/04/23 12:45:34.9     534     -7    242    535    587  90.8  26.2  34160  289.56 0854.66
2009/04/23 12:45:35.0     493     43    360    496    612  84.9  39.5  34166  289.66 0854.66
2009/04/23 12:45:35.1     521    105    345    532    634  78.5  36.0  34162  289.61 0854.68
2009/04/23 12:45:35.2     533     83    474    540    718  81.1  45.8  34170  289.75 0854.68
2009/04/23 12:45:35.3     655      5    306    656    723  89.5  26.9  34158  289.55 0854.68
2009/04/23 12:45:35.4     609     56    353    612    706  84.7  32.6  34170  289.73 0854.68
2009/04/23 12:45:35.5     528    -13   -146    529    549  91.5 -15.5  34156  289.51 0854.68
2009/04/23 12:45:35.6     580    241     -5    629    630  67.4  -0.5  34166  289.69 0854.68
2009/04/23 12:45:35.7     608    234    101    652    660  68.9   8.8  34172  289.77 0854.68
2009/04/23 12:45:35.8     565    133    200    581    615  76.7  19.1  34172  289.76 0854.68
2009/04/23 12:45:35.9     569    225    -12    612    613  68.4  -1.2  34174  289.80 0854.68
2009/04/23 12:45:36.0     439    375     69    578    583  49.5   6.9  34170  289.75 0854.68
2009/04/23 12:45:36.1     313    211    191    378    423  55.9  28.7  34174  289.82 0854.68
2009/04/23 12:45:36.2     382    219    232    441    498  60.1  30.0  34172  289.78 0854.68
2009/04/23 12:45:36.3     364    204    186    418    457  60.7  25.6  34178  289.88 0854.68
2009/04/23 12:45:36.4     379    256    103    458    470  55.9  12.8  34182  289.95 0854.68
2009/04/23 12:45:36.5     292    292    217    413    466  45.0  30.0  34176  289.83 0854.68
2009/04/23 12:45:36.6     445    514    169    680    701  40.9  14.0  34202  290.27 0854.68
2009/04/23 12:45:36.8       7    376    142    377    402   1.2  21.6  34222  290.64 0854.68
2009/04/23 12:45:36.8     226    319    189    391    434  35.3  27.7  34218  290.56 0854.68
2009/04/23 12:45:36.9     269    159    266    313    410  59.4  44.8  34192  290.10 0854.68
2009/04/23 12:45:37.0     680      4     -5    681    682  89.6  -0.5  34190  290.07 0854.68
2009/04/23 12:45:37.2     615    -95      3    623    624  98.8   0.4  34174  289.81 0854.70
2009/04/23 12:45:37.3     630   -175    100    655    663 105.6   8.7  34158  289.53 0854.70
2009/04/23 12:45:37.4     601   -125     85    615    621 101.8   7.9  34176  289.84 0854.70
2009/04/23 12:45:37.5     553    -42    356    555    659  94.4  35.6  34184  289.98 0854.70
2009/04/23 12:45:37.6     514    205   -116    554    567  68.2 -11.9  34202  290.28 0854.70
2009/04/23 12:45:37.7     663     -6    -18    664    665  90.6  -1.6  34186  290.00 0854.70
2009/04/23 12:45:37.8     923    355     29    990    991  68.9   1.7  34168  289.71 0854.70
2009/04/23 12:45:37.9     811    587   -203   1002   1023  54.1 -11.5  34182  289.94 0854.70
2009/04/23 12:45:38.0     520    537   -348    748    824  44.1 -31.1  34212  290.47 0854.70
2009/04/23 12:45:38.1     433    344   -216    554    594  51.5 -26.8  34202  290.29 0854.70
2009/04/23 12:45:38.2     418     84   -122    427    444  78.6 -20.7  34202  290.29 0854.70
2009/04/23 12:45:38.3     312    159    -96    351    365  63.0 -15.4  34178  289.87 0854.70
2009/04/23 12:45:38.4     327    169    -32    369    371  62.7  -5.1  34192  290.10 0854.70
2009/04/23 12:45:38.5     342    188    111    391    407  61.1  15.9  34204  290.32 0854.70
2009/04/23 12:45:38.6     607    297    -41    676    678  63.9  -3.5  34174  289.82 0854.70
2009/04/23 12:45:38.7     652    339    -21    735    736  62.5  -1.7  34174  289.82 0854.70
2009/04/23 12:45:38.8     625    296    136    692    706  64.6  11.1  34214  290.49 0854.70
2009/04/23 12:45:38.9     328    417   -124    531    546  38.2 -13.2  34202  290.30 0854.70
2009/04/23 12:45:39.0     194    323     44    377    380  31.0   6.8  34214  290.50 0854.70
2009/04/23 12:45:39.1     294    195    236    353    424  56.4  36.9  34236  290.85 0854.70
2009/04/23 12:45:39.2     601    422    103    735    743  54.9   8.0  34206  290.36 0854.70
2009/04/23 12:45:39.3     365    382    199    529    565  43.7  21.6  34222  290.63 0854.70
2009/04/23 12:45:39.4     436    147    170    461    491  71.3  21.1  34232  290.81 0854.70
2009/04/23 12:45:39.5     666    187    -15    692    693  74.3  -1.3  34186  290.00 0854.70
2009/04/23 12:45:39.6     652    555     43    857    859  49.6   2.9  34220  290.58 0854.70
2009/04/23 12:45:39.7     655    390    226    763    796  59.3  16.5  34208  290.39 0854.70
2009/04/23 12:45:39.8     611    380    250    720    763  58.1  19.2  34256  291.21 0854.70
2009/04/23 12:45:39.9     572    290    214    642    678  63.1  18.5  34254  291.16 0854.70
2009/04/23 12:45:40.0     602    286    261    667    716  64.6  22.5  34236  290.86 0854.70
2009/04/23 12:45:40.1     471    279    288    548    619  59.4  30.0  34222  290.64 0854.70
2009/04/23 12:45:40.2     668    129    237    681    722  79.0  19.2  34222  290.61 0854.70
2009/04/23 12:45:40.3     725    324    156    795    811  65.9  11.1  34184  289.97 0854.70
2009/04/23 12:45:40.4     567    345     38    664    666  58.7   3.3  34190  290.07 0854.70
2009/04/23 12:45:40.5     601    184     12    629    630  73.0   1.1  34194  290.15 0854.70
2009/04/23 12:45:40.6     472    227    101    524    534  64.3  11.0  34186  290.02 0854.70
2009/04/23 12:45:40.7     568    274    164    631    652  64.2  14.6  34232  290.79 0854.70
2009/04/23 12:45:40.8     563    312    216    644    680  61.0  18.6  34202  290.29 0854.70
2009/04/23 12:45:40.9     653    232    244    694    736  70.4  19.4  34208  290.40 0854.70
2009/04/23 12:45:41.0     473    254    304    538    617  61.7  32.0  34212  290.47 0854.70
2009/04/23 12:45:41.1     584    289    178    652    676  63.6  15.3  34252  291.12 0854.70
2009/04/23 12:45:41.2     589    203    226    624    664  70.9  19.9  34232  290.79 0854.72
2009/04/23 12:45:41.3     600    230    101    643    652  69.0   9.0  34200  290.25 0854.72
2009/04/23 12:45:41.4     647    381     36    752    753  59.5   2.8  34170  289.75 0854.72
2009/04/23 12:45:41.5     378    322     75    497    503  49.6   8.6  34162  289.61 0854.72
2009/04/23 12:45:41.6     572    111    173    583    609  79.0  16.5  34206  290.34 0854.72
2009/04/23 12:45:41.7     548    151    126    569    583  74.6  12.5  34162  289.59 0854.72
2009/04/23 12:45:41.8     589    208    224    625    663  70.5  20.6  34172  289.76 0854.72
2009/04/23 12:45:41.9     548    238    106    598    608  66.5  10.1  34174  289.81 0854.72
2009/04/23 12:45:42.0     541    268    243    604    651  63.6  23.1  34234  290.82 0854.72
2009/04/23 12:45:42.1     428    310     28    529    530  54.1   3.1  34172  289.77 0854.72
2009/04/23 12:45:42.2     474    322     95    573    581  55.8   9.4  34154  289.47 0854.72
2009/04/23 12:45:42.3     492    380     64    622    626  52.3   5.9  34172  289.79 0854.72
2009/04/23 12:45:42.4     606    271    150    664    681  65.9  12.8  34244  291.00 0854.72
2009/04/23 12:45:42.5     506    290    212    584    621  60.2  20.9  34230  290.76 0854.72
2009/04/23 12:45:42.6     517    229    148    566    586  66.1  14.7  34198  290.22 0854.72
2009/04/23 12:45:42.7     420    145     87    445    454  71.0  11.1  34158  289.55 0854.72
2009/04/23 12:45:42.8     381    116     78    399    407  73.1  11.1  34222  290.63 0854.72
2009/04/23 12:45:42.9     405    126    200    425    469  72.7  27.0  34208  290.38 0854.72
2009/04/23 12:45:43.0     551    -15    315    552    635  91.6  32.3  34198  290.20 0854.72
2009/04/23 12:45:43.1     527     63    234    531    580  83.1  25.2  34238  290.91 0854.72
2009/04/23 12:45:43.2     382    247    162    456    485  57.1  19.6  34164  289.64 0854.73
2009/04/23 12:45:43.3     358    130    174    382    419  70.0  26.2  34158  289.55 0854.73
2009/04/23 12:45:43.4     290    105    174    309    354  70.0  31.9  34168  289.71 0854.73
2009/04/23 12:45:43.5     286    135    142    317    347  64.6  25.8  34174  289.81 0854.73
2009/04/23 12:45:43.6     359    130    155    382    412  70.1  23.2  34182  289.95 0854.73
2009/04/23 12:45:43.7     205    -48    193    211    285 103.3  47.1  34166  289.66 0854.73
2009/04/23 12:45:43.8     204     68    214    216    304  71.4  50.0  34188  290.05 0854.73
2009/04/23 12:45:43.9     272    123     96    299    315  65.6  17.9  34182  289.95 0854.73
2009/04/23 12:45:44.0     387     62    160    393    424  80.9  23.2  34220  290.58 0854.73
2009/04/23 12:45:44.1     307    101    136    324    351  71.7  24.2  34192  290.13 0854.73
2009/04/23 12:45:44.2     340     46     78    344    353  82.3  12.8  34228  290.71 0854.73
2009/04/23 12:45:44.3     242    175     58    299    305  54.0  11.0  34210  290.42 0854.73
2009/04/23 12:45:44.4     110    158     71    193    205  35.0  20.9  34208  290.40 0854.73
2009/04/23 12:45:44.5     130    -66     73    146    163 117.1  28.7  34216  290.53 0854.73
2009/04/23 12:45:44.6     137   -263     69    297    305 152.4  13.1  34166  289.66 0854.73
2009/04/23 12:45:44.7     287   -213    122    358    379 126.6  18.9  34166  289.67 0854.73
2009/04/23 12:45:44.8     166   -132    156    213    264 128.4  39.7  34170  289.73 0854.73
2009/04/23 12:45:44.9     198   -183    197    270    334 132.7  39.8  34170  289.73 0854.73
2009/04/23 12:45:45.0     298   -248    167    388    422 129.8  24.8  34172  289.78 0854.73
2009/04/23 12:45:45.1     264   -264    132    374    396 134.9  20.2  34168  289.72 0854.73
2009/04/23 12:45:45.2     195   -251    137    319    347 142.1  24.8  34172  289.76 0854.76
2009/04/23 12:45:45.3     194   -242    149    311    344 141.3  27.3  34170  289.74 0854.76
2009/04/23 12:45:45.4     172   -268    125    319    342 147.3  22.7  34170  289.74 0854.76
2009/04/23 12:45:45.5     258   -218    102    338    354 130.2  16.8  34166  289.69 0854.76
2009/04/23 12:45:45.6     255   -176     88    311    324 124.6  15.9  34172  289.76 0854.76
2009/04/23 12:45:45.7     199   -225     64    301    308 138.6  12.2  34174  289.80 0854.76
2009/04/23 12:45:45.8     232   -191    104    301    319 129.5  19.2  34168  289.71 0854.76
2009/04/23 12:45:45.9     193   -226    175    298    345 139.5  33.1  34168  289.71 0854.76
2009/04/23 12:45:46.0     144   -229    155    271    312 147.7  32.4  34166  289.66 0854.76
2009/04/23 12:45:46.1     149   -260    116    300    321 150.1  22.2  34166  289.68 0854.76
2009/04/23 12:45:46.2     133   -184    106    228    251 144.0  27.0  34170  289.73 0854.76
2009/04/23 12:45:46.3     121   -144    109    189    218 139.9  32.7  34166  289.69 0854.76
2009/04/23 12:45:46.4     148   -138     96    203    224 133.1  27.1  34166  289.67 0854.76
2009/04/23 12:45:46.5     112   -120     80    165    183 136.8  27.8  34172  289.79 0854.76
2009/04/23 12:45:46.6      12   -111     94    112    146 173.8  43.8  34172  289.77 0854.76
2009/04/23 12:45:46.7      24   -141     77    144    163 170.3  30.6  34174  289.80 0854.76
2009/04/23 12:45:46.8     -48   -142     54    150    159 198.7  20.4  34170  289.75 0854.76
2009/04/23 12:45:46.9    -106   -170     82    201    217 212.1  23.1  34168  289.72 0854.76
2009/04/23 12:45:47.0     -15   -196    150    197    247 184.4  41.2  34170  289.75 0854.76
2009/04/23 12:45:47.1     -11   -248    152    249    291 182.7  34.4  34170  289.73 0854.76
2009/04/23 12:45:47.2      28   -210    168    212    270 172.2  42.7  34170  289.75 0854.76
2009/04/23 12:45:47.3     -61   -174    117    185    218 199.6  35.5  34170  289.74 0854.76
2009/04/23 12:45:47.4     -24   -159    112    161    196 188.7  38.0  34172  289.77 0854.76
2009/04/23 12:45:47.5      15    -98    158    100    186 171.1  64.7  34174  289.82 0854.76
2009/04/23 12:45:47.6     -19    -64    110     67    128 196.9  65.7  34174  289.80 0854.76
2009/04/23 12:45:47.7       8    -82     57     83    100 173.8  38.0  34174  289.82 0854.76
2009/04/23 12:45:47.8      17   -119     14    121    122 171.9   6.9  34172  289.79 0854.76
2009/04/23 12:45:47.9      16   -213      1    214    215 175.5   0.5  34172  289.79 0854.76
2009/04/23 12:45:48.0     -22   -300     -8    301    302 184.4  -1.6  34170  289.75 0854.76
2009/04/23 12:45:48.1      88   -241    -37    257    260 160.0  -8.2  34170  289.73 0854.76
2009/04/23 12:45:48.2     146   -119    -56    189    198 129.3 -16.6  34172  289.77 0854.76
2009/04/23 12:45:48.3     114   -167    -45    203    209 145.7 -12.6  34172  289.79 0854.76
2009/04/23 12:45:48.4      94   -213      4    233    234 156.2   1.2  34170  289.75 0854.76
2009/04/23 12:45:48.5      62   -199     94    209    229 162.6  25.9  34170  289.74 0854.76
2009/04/23 12:45:48.6      76   -205    142    219    261 159.5  35.7  34174  289.81 0854.76
2009/04/23 12:45:48.7      85   -212    119    229    258 158.2  29.8  34168  289.70 0854.76
2009/04/23 12:45:48.8      47   -224     77    230    243 168.0  18.6  34168  289.71 0854.76
2009/04/23 12:45:48.9      21   -233     90    235    251 174.7  22.0  34168  289.71 0854.76
2009/04/23 12:45:49.0      49   -272     43    277    281 169.8   8.9  34168  289.70 0854.76
2009/04/23 12:45:49.1      50   -248    -38    253    256 168.5  -8.6  34168  289.71 0854.76
2009/04/23 12:45:49.2      80   -174    -18    192    193 155.1  -5.6  34168  289.72 0854.76
2009/04/23 12:45:49.3      63   -165    -40    177    182 159.1 -12.9  34170  289.74 0854.76
2009/04/23 12:45:49.4      28   -135    -20    139    141 168.0  -8.2  34170  289.75 0854.76
2009/04/23 12:45:49.5      60   -179     90    190    210 161.3  27.2  34164  289.65 0854.76
2009/04/23 12:45:49.6      52   -233    109    239    262 167.3  26.2  34164  289.64 0854.76
2009/04/23 12:45:49.7      29   -237     55    239    246 172.9  13.1  34160  289.58 0854.76
2009/04/23 12:45:49.8     -36   -214     95    218    237 189.6  25.1  34160  289.58 0854.76
2009/04/23 12:45:49.9     -33   -175    105    179    207 190.9  33.4  34162  289.60 0854.76
2009/04/23 12:45:50.0      -2   -186     79    187    203 180.9  24.1  34164  289.65 0854.76
2009/04/23 12:45:50.1     -54   -201     31    209    212 195.2   8.5  34160  289.58 0854.79
2009/04/23 12:45:50.2     -82   -188     39    206    210 203.6  10.8  34162  289.62 0854.79
2009/04/23 12:45:50.3     -84   -163     50    184    191 207.2  15.3  34164  289.65 0854.79
2009/04/23 12:45:50.4     -63   -187      8    198    199 198.7   2.3  34164  289.65 0854.79
2009/04/23 12:45:50.5    -167   -179     -3    246    247 223.0  -0.7  34166  289.68 0854.79
2009/04/23 12:45:50.6    -171   -151    -35    229    232 228.4  -8.8  34164  289.65 0854.79
2009/04/23 12:45:50.7    -112   -164     71    199    212 214.3  19.6  34168  289.70 0854.79
2009/04/23 12:45:50.8    -100   -226     97    248    266 203.8  22.5  34172  289.76 0854.79
2009/04/23 12:45:50.9    -154   -128     55    201    209 230.4  15.3  34166  289.69 0854.79
2009/04/23 12:45:51.0    -142    -78    -57    163    173 241.2 -19.4  34168  289.70 0854.79
2009/04/23 12:45:51.1    -203   -120    -48    236    241 239.4 -11.6  34166  289.66 0854.79
2009/04/23 12:45:51.2    -244    -76    -76    256    267 252.7 -21.5  34162  289.61 0854.79
2009/04/23 12:45:51.3    -300     -4    -31    301    303 269.2  -6.0  34164  289.63 0854.79
2009/04/23 12:45:51.4    -222    -74    -55    235    242 251.4 -13.3  34162  289.61 0854.79
2009/04/23 12:45:51.5    -231    -94    -84    250    264 247.8 -18.6  34164  289.63 0854.79
2009/04/23 12:45:51.6    -196   -108    -15    224    225 241.2  -3.9  34168  289.72 0854.79
2009/04/23 12:45:51.7     -94   -205    -25    226    228 204.7  -6.5  34168  289.72 0854.79
2009/04/23 12:45:51.8     -57   -223     29    231    233 194.3   7.2  34174  289.80 0854.79
2009/04/23 12:45:51.9     -72   -261    -59    271    278 195.6 -12.4  34164  289.64 0854.79
2009/04/23 12:45:52.0     -24   -228    -12    230    231 186.2  -3.1  34168  289.70 0854.79
2009/04/23 12:45:52.1    -116   -240      0    267    268 205.9   0.0  34164  289.64 0854.77
2009/04/23 12:45:52.2    -120   -176    -30    214    217 214.3  -8.0  34164  289.65 0854.77
2009/04/23 12:45:52.3    -107    -95    -22    144    146 228.2  -8.8  34162  289.62 0854.77
2009/04/23 12:45:52.4     -75    -59    -32     96    101 231.4 -23.6  34164  289.65 0854.77
2009/04/23 12:45:52.5     -82   -129     16    154    155 212.6   6.1  34168  289.72 0854.77
2009/04/23 12:45:52.6     -88   -121     51    151    160 216.1  18.9  34170  289.74 0854.77
2009/04/23 12:45:52.7    -102    -84     11    133    134 230.5   5.0  34170  289.75 0854.77
2009/04/23 12:45:52.8     -88    -81     13    120    121 227.3   6.5  34168  289.70 0854.77
2009/04/23 12:45:52.9    -128    -26     65    131    146 258.5  27.8  34170  289.75 0854.77
2009/04/23 12:45:53.0    -114     15    -27    116    120 277.9 -13.4  34168  289.72 0854.77
2009/04/23 12:45:53.1     -89    -53     24    104    107 238.9  13.2  34168  289.70 0854.77
2009/04/23 12:45:53.2    -183    -41    110    188    217 257.2  33.1  34168  289.70 0854.77
2009/04/23 12:45:53.3    -230    -87     12    247    248 249.2   2.8  34166  289.66 0854.77
2009/04/23 12:45:53.4    -326    -45    -91    330    343 262.1 -15.5  34164  289.64 0854.77
2009/04/23 12:45:53.5    -301    -47    -84    305    317 261.0 -15.5  34162  289.59 0854.77
2009/04/23 12:45:53.6    -340    -23   -110    341    359 266.1 -17.9  34160  289.57 0854.77
2009/04/23 12:45:53.7    -300      0    -62    301    308 270.0 -11.8  34164  289.63 0854.77
2009/04/23 12:45:53.8    -329     27    -12    331    332 274.7  -2.2  34162  289.59 0854.77
2009/04/23 12:45:53.9    -239    -94    -71    257    266 248.5 -20.0  34164  289.63 0854.77
2009/04/23 12:45:54.0    -313    -28   -143    315    345 264.8 -30.6  34160  289.57 0854.77
2009/04/23 12:45:54.1    -332    -11   -147    333    364 268.0 -29.7  34166  289.67 0854.75
2009/04/23 12:45:54.2    -215    -81    -80    230    243 249.2 -24.3  34160  289.56 0854.75
2009/04/23 12:45:54.3    -174   -180    -81    251    263 224.1 -23.3  34164  289.63 0854.75
2009/04/23 12:45:54.4    -187   -212   -169    283    329 221.4 -38.2  34160  289.58 0854.75
2009/04/23 12:45:54.5    -274    -32   -222    276    354 263.2 -47.4  34162  289.62 0854.75
2009/04/23 12:45:54.6    -181    -40   -212    186    282 257.4 -58.6  34164  289.63 0854.75
2009/04/23 12:45:54.7    -142      0   -173    143    224 270.0 -60.7  34164  289.63 0854.75
2009/04/23 12:45:54.8    -153   -179   -139    236    273 220.5 -37.8  34164  289.64 0854.75
2009/04/23 12:45:54.9     -46   -233   -146    238    279 191.3 -38.8  34162  289.59 0854.75
2009/04/23 12:45:55.0      -4   -192    -63    193    203 181.4 -23.6  34162  289.60 0854.75
2009/04/23 12:45:55.1      43   -278    -79    282    292 171.1 -20.2  34164  289.63 0854.75
2009/04/23 12:45:55.2       0   -204     40    205    209 180.2  11.1  34158  289.55 0854.75
2009/04/23 12:45:55.3    -158    -16    -63    159    171 263.9 -27.2  34166  289.69 0854.75
2009/04/23 12:45:55.4     -63   -113      4    130    131 209.0   1.8  34166  289.69 0854.75
2009/04/23 12:45:55.5      26    -83     45     87     97 162.6  29.3  34166  289.67 0854.75
2009/04/23 12:45:55.6     -23    -37     52     44     68 211.6  55.4  34164  289.65 0854.75
2009/04/23 12:45:55.7     -15    -57     38     60     71 195.1  35.5  34168  289.70 0854.75
2009/04/23 12:45:55.8      23    -23     48     33     58 134.9  63.6  34166  289.67 0854.75
2009/04/23 12:45:55.9      -6    -17     40     19     44 198.7  74.0  34170  289.74 0854.75
2009/04/23 12:45:56.0     -23     10     22     26     34 293.5  45.8  34170  289.74 0854.75
2009/04/23 12:45:56.1     -24     20      7     32     33 309.5  13.2  34168  289.72 0854.71
2009/04/23 12:45:56.2     -37     14      4     40     41 290.8   5.9  34168  289.70 0854.71
2009/04/23 12:45:56.3     -29     25      2     39     40 311.3   3.8  34168  289.70 0854.71
2009/04/23 12:45:56.4     -61     16    -24     64     68 285.1 -24.4  34166  289.69 0854.71
2009/04/23 12:45:56.5     -44      7    -79     45     90 279.7 -72.1  34168  289.70 0854.71
2009/04/23 12:45:56.6     -63    -76    -27    100    104 219.7 -15.4  34162  289.60 0854.71
2009/04/23 12:45:56.7    -112    -36      6    118    119 251.8   2.9  34166  289.67 0854.71
2009/04/23 12:45:56.8    -255     50    -98    260    277 281.2 -26.1  34164  289.64 0854.71
2009/04/23 12:45:56.9    -254     47   -147    259    297 280.6 -36.5  34168  289.70 0854.71
2009/04/23 12:45:57.0    -302   -130   -108    329    346 246.7 -23.5  34172  289.79 0854.71
2009/04/23 12:45:57.1    -328   -122   -115    350    368 249.6 -23.6  34172  289.76 0854.71
2009/04/23 12:45:57.2    -256    -55   -165    263    310 257.7 -39.9  34164  289.64 0854.71
2009/04/23 12:45:57.3    -293    -84    -84    305    316 254.0 -20.0  34176  289.83 0854.71
2009/04/23 12:45:57.4    -240    -10     -9    241    242 267.4  -2.2  34176  289.85 0854.71
2009/04/23 12:45:57.5    -160    184    -13    245    246 319.0  -3.1  34174  289.80 0854.71
2009/04/23 12:45:57.6    -183    172    -59    252    259 313.2 -13.2  34170  289.75 0854.71
2009/04/23 12:45:57.7    -182    150     55    237    244 309.5  13.2  34168  289.71 0854.71
2009/04/23 12:45:57.8    -184    156      2    242    243 310.4   0.5  34166  289.66 0854.71
2009/04/23 12:45:57.9    -142     96     11    172    173 304.2   3.8  34162  289.60 0854.71
2009/04/23 12:45:58.0    -115     83     71    143    159 306.0  28.5  34166  289.67 0854.71
2009/04/23 12:45:58.1    -213    -74     24    226    228 250.7   6.1  34172  289.77 0854.70
2009/04/23 12:45:58.2    -197    -54      8    205    206 254.7   2.5  34170  289.74 0854.70
2009/04/23 12:45:58.3    -196    -53      0    204    205 254.9   0.2  34166  289.69 0854.70
2009/04/23 12:45:58.4    -164    -88     30    187    190 241.6   9.3  34166  289.69 0854.70
2009/04/23 12:45:58.5    -104   -111     51    153    162 223.3  18.4  34166  289.69 0854.70
2009/04/23 12:45:58.6     -95   -236    151    255    296 202.1  33.5  34166  289.66 0854.70
2009/04/23 12:45:58.7    -105   -164     85    195    212 212.7  25.1  34164  289.63 0854.70
2009/04/23 12:45:58.8     -57   -202    135    210    249 195.8  35.6  34166  289.68 0854.70
2009/04/23 12:45:58.9     -57   -153    148    164    220 200.7  46.9  34164  289.63 0854.70
2009/04/23 12:45:59.0    -103   -103    123    146    190 225.0  44.1  34166  289.69 0854.70
2009/04/23 12:45:59.1     -85   -115    127    144    192 216.5  46.2  34164  289.65 0854.70
2009/04/23 12:45:59.2    -226    -31    -33    229    232 262.1  -8.2  34164  289.63 0854.70
2009/04/23 12:45:59.3    -277     46    -46    281    285 279.6  -9.3  34164  289.63 0854.70
2009/04/23 12:45:59.4    -290    133    -75    320    329 294.6 -13.3  34166  289.68 0854.70
2009/04/23 12:45:59.5    -340     62    -52    346    350 280.4  -8.7  34168  289.72 0854.70
2009/04/23 12:45:59.6    -244    160    -80    293    304 303.3 -15.4  34168  289.71 0854.70
2009/04/23 12:45:59.7    -225    164    -31    279    281 306.2  -6.5  34168  289.71 0854.70
2009/04/23 12:45:59.8    -212    135    -71    252    262 302.4 -15.8  34162  289.59 0854.70
2009/04/23 12:45:59.9    -173    136    -78    221    235 308.2 -19.4  34162  289.62 0854.70
2009/04/23 12:46:00.0    -122    213     43    246    250 330.1  10.1  34170  289.75 0854.70
2009/04/23 12:46:00.1    -105    126     69    165    178 320.1  23.8  34170  289.74 0854.71
2009/04/23 12:46:00.2    -141     99     79    173    190 305.1  26.6  34170  289.74 0854.71
2009/04/23 12:46:00.3    -146     48    104    154    185 288.2  37.3  34172  289.79 0854.71
2009/04/23 12:46:00.4    -152     49     72    160    175 288.2  25.9  34174  289.80 0854.71
2009/04/23 12:46:00.5    -164     58     16    174    175 289.5   5.4  34170  289.75 0854.71
2009/04/23 12:46:00.6    -189     47     30    195    198 284.2   8.9  34168  289.70 0854.71
2009/04/23 12:46:00.7    -188      6    -23    189    191 272.1  -7.2  34162  289.60 0854.71
2009/04/23 12:46:00.8    -154     -8    -37    155    160 267.0 -13.7  34162  289.62 0854.71
2009/04/23 12:46:00.9    -121    -62    -50    137    145 242.9 -24.8  34166  289.67 0854.71
2009/04/23 12:46:01.0    -149    -82    -74    171    186 241.1 -29.3  34170  289.74 0854.71
2009/04/23 12:46:01.1    -107   -181    -55    211    219 210.5 -14.7  34168  289.70 0854.71
2009/04/23 12:46:01.2    -118   -214    -27    245    247 209.0  -6.5  34172  289.76 0854.71
2009/04/23 12:46:01.3    -101   -181    -60    208    216 209.2 -20.7  34176  289.84 0854.71
2009/04/23 12:46:01.4     -77   -228    -39    241    245 198.7  -9.3  34174  289.80 0854.71
2009/04/23 12:46:01.5     -68   -223    -73    234    245 197.0 -22.3  34178  289.88 0854.71
2009/04/23 12:46:01.6     -18   -242    -83    243    257 184.5 -18.9  34174  289.81 0854.71
2009/04/23 12:46:01.7     -71   -274     -7    284    285 194.5  -1.6  34178  289.86 0854.71
2009/04/23 12:46:01.8     -26   -281    -11    283    284 185.4  -2.2  34174  289.81 0854.71
2009/04/23 12:46:01.9       0   -260    -17    261    262 180.0  -3.7  34178  289.88 0854.71
2009/04/23 12:46:02.0      24   -260    -23    262    264 174.7  -5.2  34172  289.78 0854.71
2009/04/23 12:46:02.1     -51   -255     26    261    263 191.5   5.7  34174  289.80 0854.71
2009/04/23 12:46:02.2     -25   -264     18    266    267 185.6   3.9  34174  289.80 0854.71
2009/04/23 12:46:02.3     -55   -277     55    283    289 191.3  11.1  34168  289.71 0854.71
2009/04/23 12:46:02.4     -60   -255     38    263    266 193.4   8.2  34168  289.71 0854.71
2009/04/23 12:46:02.5     -52   -237     49    243    248 192.4  11.4  34168  289.71 0854.71
2009/04/23 12:46:02.6     -49   -236     47    242    247 191.8  11.1  34168  289.70 0854.71
2009/04/23 12:46:02.7     -79   -218     43    232    236 200.0  10.6  34172  289.76 0854.71
2009/04/23 12:46:02.8     -51   -200     54    207    214 194.3  14.7  34168  289.70 0854.71
2009/04/23 12:46:03.0      -3   -214     35    215    218 180.9   9.5  34170  289.75 0854.71
2009/04/23 12:46:03.0     -67   -234     52    244    250 196.0  12.2  34174  289.81 0854.71
2009/04/23 12:46:03.2     -67   -226     -9    236    237 196.5  -2.2  34178  289.86 0854.71
2009/04/23 12:46:03.2     -81   -244    -32    258    261 198.5  -7.2  34180  289.90 0854.71
2009/04/23 12:46:03.4     -45   -231     22    236    238 191.1   5.4  34178  289.86 0854.71
2009/04/23 12:46:03.5     -19   -234     -1    235    236 184.9  -0.3  34174  289.81 0854.71
2009/04/23 12:46:03.6     -48   -236    -13    241    242 191.6  -3.2  34176  289.83 0854.71
2009/04/23 12:46:03.7     -36   -253    -18    256    257 188.2  -4.1  34178  289.88 0854.71
2009/04/23 12:46:03.8       7   -244    -28    245    247 178.2  -6.7  34172  289.78 0854.71
2009/04/23 12:46:03.9     -41   -212     26    217    219 191.1   6.9  34180  289.92 0854.71
2009/04/23 12:46:04.0     -64   -168     19    180    182 200.9   6.1  34174  289.82 0854.71
2009/04/23 12:46:04.1     -70    -96     23    120    123 216.1  11.1  34184  289.97 0854.71
2009/04/23 12:46:04.2     -48   -131     38    140    146 200.5  15.2  34182  289.96 0854.73
2009/04/23 12:46:04.3     -57   -166     70    176    189 199.2  23.0  34172  289.77 0854.73
2009/04/23 12:46:04.4    -153    -51    -11    162    163 251.4  -4.1  34176  289.85 0854.73
2009/04/23 12:46:04.5    -130   -135     65    188    200 224.1  19.2  34172  289.79 0854.73
2009/04/23 12:46:04.6    -167   -138     34    217    220 230.4   8.9  34174  289.82 0854.73
2009/04/23 12:46:04.7    -198   -131     74    238    250 236.5  17.4  34176  289.83 0854.73
2009/04/23 12:46:04.8    -162    -50     62    170    180 252.7  21.0  34174  289.80 0854.73
2009/04/23 12:46:04.9    -138    -11     74    139    157 265.2  30.1  34170  289.75 0854.73
2009/04/23 12:46:05.0     -15    -33     52     37     63 205.3  60.6  34170  289.74 0854.73
2009/04/23 12:46:05.1       1    -13    110     14    110 172.0  90.0  34170  289.75 0854.73
2009/04/23 12:46:05.2     -21    -84     58     87    104 194.3  36.5  34170  289.74 0854.73
2009/04/23 12:46:05.3      12    -86     40     87     95 172.0  26.6  34164  289.65 0854.73
2009/04/23 12:46:05.4      23    -57     53     62     81 158.2  45.4  34170  289.75 0854.73
2009/04/23 12:46:05.5     100   -181    -31    207    210 151.0  -8.6  34170  289.75 0854.73
2009/04/23 12:46:05.6     130   -165    -34    211    214 141.7  -9.3  34170  289.75 0854.73
2009/04/23 12:46:05.7     154   -100     30    185    188 123.1   9.3  34164  289.63 0854.73
2009/04/23 12:46:05.8     -81   -162     82    182    199 206.5  25.9  34168  289.70 0854.73
2009/04/23 12:46:05.9    -200   -192     39    278    281 226.2   8.0  34168  289.71 0854.73
2009/04/23 12:46:06.0    -252   -159     58    299    305 237.8  11.1  34176  289.85 0854.73
2009/04/23 12:46:06.1    -321   -223     19    392    393 235.2   2.9  34156  289.50 0854.73
2009/04/23 12:46:06.2    -335   -231     10    407    408 235.4   1.5  34170  289.73 0854.72
2009/04/23 12:46:06.3    -293   -221    -63    368    374 233.0  -9.7  34152  289.45 0854.72
2009/04/23 12:46:06.4    -301   -212    -61    369    375 234.8  -9.4  34148  289.38 0854.72
2009/04/23 12:46:06.5    -277   -238   -100    366    380 229.4 -15.4  34146  289.33 0854.72
2009/04/23 12:46:06.6    -272   -225   -110    354    370 230.4 -22.3  34146  289.35 0854.72
2009/04/23 12:46:06.7    -293   -225   -108    370    385 232.5 -21.2  34146  289.32 0854.72
2009/04/23 12:46:06.8    -302   -206   -131    366    389 235.6 -19.7  34146  289.32 0854.72
2009/04/23 12:46:06.9    -292   -182   -109    345    362 238.1 -17.6  34148  289.38 0854.72
2009/04/23 12:46:07.0    -287   -176    -83    337    348 238.5 -13.9  34152  289.43 0854.72
2009/04/23 12:46:07.1    -290   -172    -78    338    348 239.4 -13.1  34152  289.42 0854.72
2009/04/23 12:46:07.2    -282   -171    -65    331    338 238.7 -11.1  34150  289.40 0854.72
2009/04/23 12:46:07.3    -290   -166    -42    335    338 240.2  -7.2  34152  289.43 0854.72
2009/04/23 12:46:07.4    -239   -147    -99    281    297 238.4 -24.6  34148  289.37 0854.72
2009/04/23 12:46:07.5    -207   -188    -64    280    288 227.8 -12.9  34150  289.39 0854.72
2009/04/23 12:46:07.6    -221   -195    -42    296    300 228.6  -8.2  34150  289.39 0854.72
2009/04/23 12:46:07.7    -196   -240    -60    311    317 219.2 -11.0  34150  289.39 0854.72
2009/04/23 12:46:07.8    -222   -288    -59    364    369 217.6  -9.3  34150  289.40 0854.72
2009/04/23 12:46:07.9    -250   -325    -96    411    423 217.6 -13.2  34152  289.43 0854.72
2009/04/23 12:46:08.0    -234   -341   -116    414    431 214.5 -15.7  34150  289.39 0854.72
2009/04/23 12:46:08.1    -214   -294   -124    364    385 216.1 -18.9  34154  289.48 0854.72
2009/04/23 12:46:08.2    -185   -276   -144    333    362 213.9 -29.4  34154  289.48 0854.73
2009/04/23 12:46:08.3    -264   -264   -184    374    416 225.1 -32.6  34156  289.49 0854.73
2009/04/23 12:46:08.4    -250   -245   -111    351    368 225.6 -22.6  34154  289.47 0854.73
2009/04/23 12:46:08.5    -200   -251   -107    322    339 218.5 -23.7  34154  289.47 0854.73
2009/04/23 12:46:08.6    -222   -221    -91    314    326 225.1 -21.0  34154  289.46 0854.73
2009/04/23 12:46:08.7    -208   -243    -94    320    333 220.6 -21.1  34154  289.48 0854.73
2009/04/23 12:46:08.8    -191   -210    -88    284    297 222.3 -22.1  34154  289.46 0854.73
2009/04/23 12:46:08.9    -159   -169    -98    233    252 223.3 -28.5  34154  289.47 0854.73
2009/04/23 12:46:09.0    -185   -172   -110    253    275 227.1 -29.5  34154  289.46 0854.73
2009/04/23 12:46:09.1    -221   -188   -136    291    321 229.6 -31.0  34152  289.44 0854.73
2009/04/23 12:46:09.2    -247   -179   -103    306    322 234.0 -23.5  34152  289.44 0854.73
2009/04/23 12:46:09.3    -261   -162   -153    308    343 238.2 -32.6  34156  289.50 0854.73
2009/04/23 12:46:09.4    -267   -107   -141    288    320 248.0 -32.4  34154  289.47 0854.73
2009/04/23 12:46:09.5    -268   -125   -107    296    314 244.9 -25.1  34154  289.47 0854.73
2009/04/23 12:46:09.6    -242   -145   -119    283    307 239.1 -28.5  34156  289.49 0854.73
2009/04/23 12:46:09.7    -267   -131   -116    298    319 243.8 -26.7  34152  289.44 0854.73
2009/04/23 12:46:09.8    -281   -108   -141    302    333 248.9 -31.4  34156  289.49 0854.73
2009/04/23 12:46:09.9    -263    -96   -150    281    318 249.8 -34.7  34158  289.53 0854.73
2009/04/23 12:46:10.0    -253   -124   -156    282    322 243.8 -35.8  34156  289.49 0854.73
2009/04/23 12:46:10.1    -247   -120   -124    275    301 244.0 -30.3  34160  289.56 0854.73
2009/04/23 12:46:10.2    -252   -119   -114    279    301 244.7 -27.5  34160  289.56 0854.70
2009/04/23 12:46:10.3    -200   -174    -88    266    280 228.9 -23.8  34158  289.53 0854.70
2009/04/23 12:46:10.4    -199   -185   -129    273    301 227.1 -31.6  34156  289.49 0854.70
2009/04/23 12:46:10.5    -179   -175   -143    251    288 225.6 -36.7  34156  289.51 0854.70
2009/04/23 12:46:10.6    -227   -184    -90    293    306 230.9 -22.1  34156  289.49 0854.70
2009/04/23 12:46:10.7    -225   -217    -89    313    326 226.0 -15.9  34154  289.47 0854.70
2009/04/23 12:46:10.8    -192   -215    -90    289    302 221.7 -22.3  34158  289.53 0854.70
2009/04/23 12:46:10.9    -192   -192   -102    272    290 225.0 -25.7  34152  289.44 0854.70
2009/04/23 12:46:11.0    -198   -136   -108    241    264 235.6 -30.6  34158  289.53 0854.70
2009/04/23 12:46:11.1    -154   -154    -88    219    236 225.0 -27.4  34156  289.50 0854.70
2009/04/23 12:46:11.2    -132   -140    -66    193    203 223.2 -23.6  34156  289.50 0854.69
2009/04/23 12:46:11.3    -144   -142    -80    203    218 225.3 -27.2  34154  289.48 0854.69
2009/04/23 12:46:11.4    -177   -138    -75    225    237 232.0 -23.6  34156  289.49 0854.69
2009/04/23 12:46:11.5    -174    -91   -103    197    222 242.2 -34.5  34156  289.50 0854.69
2009/04/23 12:46:11.6    -189    -89    -98    209    230 244.8 -31.5  34156  289.50 0854.69
2009/04/23 12:46:11.7    -186   -104    -90    214    232 240.7 -28.5  34156  289.52 0854.69
2009/04/23 12:46:11.8    -154   -110    -77    190    205 234.5 -27.5  34156  289.50 0854.69
2009/04/23 12:46:11.9    -125    -61   -107    140    176 243.8 -45.8  34156  289.52 0854.69
2009/04/23 12:46:12.0    -147    -95   -112    176    208 237.1 -39.9  34158  289.53 0854.69
2009/04/23 12:46:12.1     -84   -100   -118    131    176 220.1 -51.3  34156  289.50 0854.69
2009/04/23 12:46:12.2    -103   -103   -122    146    190 225.1 -48.2  34158  289.53 0854.69
2009/04/23 12:46:12.3    -121    -99   -115    157    194 230.5 -44.1  34156  289.50 0854.69
2009/04/23 12:46:12.4    -126    -87    -48    154    161 235.4 -22.3  34158  289.53 0854.69
2009/04/23 12:46:12.5    -142   -103    -94    176    199 234.0 -35.0  34156  289.52 0854.69
2009/04/23 12:46:12.6    -143   -113    -90    183    203 231.6 -32.6  34158  289.53 0854.69
2009/04/23 12:46:12.7    -157    -81    -79    177    193 242.5 -30.3  34156  289.50 0854.69
2009/04/23 12:46:12.8    -150    -59    -84    162    182 248.3 -34.2  34158  289.55 0854.69
2009/04/23 12:46:12.9    -135    -59    -78    148    167 246.4 -34.2  34158  289.53 0854.69
2009/04/23 12:46:13.0    -120    -61    -61    135    148 242.9 -30.6  34156  289.50 0854.69
2009/04/23 12:46:13.1    -133    -29    -41    137    143 257.6 -21.7  34156  289.50 0854.69
2009/04/23 12:46:13.2     -95    -31    -43    101    109 251.8 -29.0  34160  289.57 0854.64
2009/04/23 12:46:13.3     -62    -64    -39     90     98 224.1 -29.0  34158  289.55 0854.64
2009/04/23 12:46:13.4    -112     -8    -14    113    114 265.6  -7.3  34160  289.58 0854.64
2009/04/23 12:46:13.5    -138    -25    -40    141    147 259.4 -16.0  34158  289.55 0854.64
2009/04/23 12:46:13.6    -166    -39    -61    171    181 256.5 -24.8  34158  289.53 0854.64
2009/04/23 12:46:13.7    -160     -8    -52    161    169 267.0 -23.0  34158  289.53 0854.64
2009/04/23 12:46:13.8    -151     -5    -56    152    161 267.9 -25.4  34156  289.52 0854.64
2009/04/23 12:46:13.9    -137    -27    -71    140    156 258.6 -33.1  34156  289.52 0854.64
2009/04/23 12:46:14.0    -152    -55    -96    162    188 250.1 -38.1  34158  289.55 0854.64
2009/04/23 12:46:14.1    -140    -71    -67    158    171 243.0 -28.7  34156  289.50 0854.64
2009/04/23 12:46:14.2    -151    -82    -80    173    190 241.4 -31.4  34158  289.53 0854.64
2009/04/23 12:46:14.3    -163    -87    -86    186    204 241.8 -31.4  34158  289.53 0854.64
2009/04/23 12:46:14.4    -135    -73    -89    154    177 241.6 -37.1  34160  289.57 0854.64
2009/04/23 12:46:14.5    -137    -65    -92    152    177 244.6 -38.6  34160  289.58 0854.64
2009/04/23 12:46:14.6    -176    -36   -138    180    226 258.3 -46.0  34158  289.55 0854.64
2009/04/23 12:46:14.7    -162    -81    -83    182    200 243.4 -30.6  34160  289.58 0854.64
2009/04/23 12:46:14.8    -162    -89    -57    186    194 241.1 -22.3  34166  289.67 0854.64
2009/04/23 12:46:14.9    -177   -145    -46    230    235 230.7 -11.3  34174  289.81 0854.64
2009/04/23 12:46:15.0    -179   -173    -84    250    263 226.0 -23.3  34160  289.58 0854.64
2009/04/23 12:46:15.1    -147   -156    -69    215    226 223.2 -17.9  34160  289.57 0854.64
2009/04/23 12:46:15.2    -199   -147    -31    248    250 233.6  -7.2  34166  289.66 0854.65
2009/04/23 12:46:15.3    -134   -184    -10    229    230 216.1  -2.6  34164  289.65 0854.65
2009/04/23 12:46:15.4    -104   -220    -62    244    252 205.3 -14.4  34164  289.63 0854.65
2009/04/23 12:46:15.5     -58   -251    -90    258    273 193.1 -24.4  34162  289.59 0854.65
2009/04/23 12:46:15.6     -59   -188    -92    198    218 197.6 -31.5  34160  289.57 0854.65
2009/04/23 12:46:15.7     -80   -174    -56    192    201 204.7 -16.4  34160  289.58 0854.65
2009/04/23 12:46:15.8    -121    -99    -55    157    166 230.5 -24.4  34160  289.57 0854.65
2009/04/23 12:46:15.9    -162   -101    -39    192    197 238.0 -11.6  34158  289.55 0854.65
2009/04/23 12:46:16.0    -136    -64    -50    151    159 244.7 -23.3  34160  289.58 0854.65
2009/04/23 12:46:16.1    -147    -48    -44    155    161 251.6 -20.4  34162  289.62 0854.65
2009/04/23 12:46:16.2    -151    -41    -49    157    164 254.9 -22.8  34162  289.62 0854.65
2009/04/23 12:46:16.3    -129    -82      7    153    154 237.6   2.9  34164  289.63 0854.65
2009/04/23 12:46:16.4    -135    -57     -8    147    148 246.9  -3.1  34162  289.60 0854.65
2009/04/23 12:46:16.5    -144    -24    -28    147    150 260.3 -10.9  34162  289.62 0854.65
2009/04/23 12:46:16.6    -111    -37     10    118    119 251.4   4.9  34162  289.62 0854.65
2009/04/23 12:46:16.7     -75    -59    -49     96    107 231.4 -32.6  34162  289.62 0854.65
2009/04/23 12:46:16.8    -105    -62    -42    123    129 239.3 -23.3  34164  289.63 0854.65
2009/04/23 12:46:16.9    -100    -60    -48    117    126 238.9 -27.5  34162  289.62 0854.65
2009/04/23 12:46:17.0    -102    -48    -41    113    120 244.8 -25.3  34162  289.60 0854.65
2009/04/23 12:46:17.1    -122    -14    -39    123    130 263.0 -17.6  34166  289.69 0854.70
2009/04/23 12:46:17.2    -118    -20    -33    120    125 260.4 -15.4  34164  289.63 0854.70
2009/04/23 12:46:17.3    -128    -64    -51    144    153 243.4 -19.6  34162  289.60 0854.70
2009/04/23 12:46:17.4    -118    -43    -45    126    134 250.0 -19.7  34160  289.58 0854.70
2009/04/23 12:46:17.5    -125    -42    -29    132    136 251.4 -12.4  34158  289.55 0854.70
2009/04/23 12:46:17.6    -145    -48    -35    153    158 251.6 -13.2  34160  289.58 0854.70
2009/04/23 12:46:17.7    -157    -51    -42    166    172 251.8 -14.3  34162  289.62 0854.70
2009/04/23 12:46:17.8    -155    -44    -31    162    165 254.1 -10.9  34164  289.65 0854.70
2009/04/23 12:46:17.9    -180    -26    -38    182    186 261.6 -11.9  34160  289.58 0854.70
2009/04/23 12:46:18.0    -153    -15    -61    154    165 264.3 -26.9  34156  289.52 0854.70
2009/04/23 12:46:18.1    -177    -12    -65    178    189 265.9 -25.1  34156  289.50 0854.70
2009/04/23 12:46:18.2    -172     -7    -64    173    184 267.4 -25.4  34154  289.48 0854.70
2009/04/23 12:46:18.3    -178     -8    -55    179    187 267.4 -22.3  34158  289.53 0854.70
2009/04/23 12:46:18.4    -181     -7    -59    182    192 267.6 -18.1  34156  289.50 0854.70
2009/04/23 12:46:18.5    -154    -29    -51    157    166 259.0 -18.1  34158  289.53 0854.70
2009/04/23 12:46:18.6    -136    -17    -42    138    144 262.5 -22.3  34158  289.55 0854.70
2009/04/23 12:46:18.7    -124    -36    -34    130    135 253.6 -15.0  34160  289.57 0854.70
2009/04/23 12:46:18.8    -101    -34    -13    107    108 251.4  -7.3  34160  289.57 0854.70
2009/04/23 12:46:18.9    -113    -44    -28    122    126 248.7 -13.3  34160  289.57 0854.70
2009/04/23 12:46:19.0    -120    -37    -40    126    133 252.7 -17.6  34160  289.57 0854.70
2009/04/23 12:46:19.1    -195    -64    -48    206    212 251.8 -13.2  34156  289.50 0854.70
2009/04/23 12:46:19.2    -214    -48    -28    220    222 257.2  -7.3  34160  289.57 0854.70
2009/04/23 12:46:19.3    -190    -38    -42    194    199 258.5 -12.4  34158  289.53 0854.70
2009/04/23 12:46:19.4    -185    -60    -60    195    204 251.8 -22.1  34158  289.53 0854.70
2009/04/23 12:46:19.5    -179    -52    -65    187    197 253.8 -24.4  34160  289.58 0854.70
2009/04/23 12:46:19.6    -167    -44    -64    173    184 255.2 -25.4  34160  289.58 0854.70
2009/04/23 12:46:19.7    -129    -43    -49    137    145 251.4 -24.4  34158  289.55 0854.70
2009/04/23 12:46:19.8    -129    -44    -48    137    145 250.9 -23.3  34158  289.55 0854.70
2009/04/23 12:46:19.9    -123    -33    -45    128    136 254.9 -19.7  34160  289.57 0854.70
2009/04/23 12:46:20.0    -131    -41    -44    138    144 252.7 -23.8  34162  289.62 0854.70
2009/04/23 12:46:20.1    -111    -38    -41    118    124 250.9 -23.3  34162  289.60 0854.70
2009/04/23 12:46:20.2     -99    -47    -33    110    116 244.2 -17.0  34162  289.62 0854.70
2009/04/23 12:46:20.3     -67    -36    -31     77     83 242.0 -27.4  34162  289.62 0854.70
2009/04/23 12:46:20.4     -56    -38    -38     68     77 235.8 -35.8  34164  289.63 0854.70
2009/04/23 12:46:20.5     -35    -43    -32     56     64 219.7 -36.8  34160  289.58 0854.70
2009/04/23 12:46:20.6     -51    -36    -19     63     65 234.9 -22.8  34160  289.58 0854.70
2009/04/23 12:46:20.7     -24    -15    -10     29     31 237.5 -19.7  34162  289.62 0854.70
2009/04/23 12:46:20.8      -3      0     -4      4      5 270.0 -54.5  34162  289.62 0854.70
2009/04/23 12:46:20.9      23     10     -3     26     27  66.5  -7.2  34160  289.58 0854.70
2009/04/23 12:46:21.0      63     21    -24     67     72  70.9 -19.6  34162  289.62 0854.70
2009/04/23 12:46:21.1      66     31    -17     74     77  64.8 -13.4  34162  289.62 0854.72
2009/04/23 12:46:21.2      76     29     -8     82     83  68.7  -5.6  34162  289.62 0854.72
2009/04/23 12:46:21.3      54     45     -9     71     72  50.4  -7.3  34160  289.58 0854.72
2009/04/23 12:46:21.4      51     51      1     73     74  45.1   0.8  34160  289.57 0854.72
2009/04/23 12:46:21.5      83     36     -3     91     92  66.0  -2.2  34162  289.60 0854.72
2009/04/23 12:46:21.6      78     -1    -21     79     82  90.8 -15.0  34160  289.58 0854.72
2009/04/23 12:46:21.7      94     16    -28     96    100  80.3 -21.2  34160  289.58 0854.72
2009/04/23 12:46:21.8      75     30    -25     81     86  67.8 -17.6  34162  289.60 0854.72
2009/04/23 12:46:21.9      65     19     -3     68     69  73.2  -3.1  34160  289.58 0854.72
2009/04/23 12:46:22.0      44     21     17     49     53  64.6  19.4  34162  289.62 0854.72
2009/04/23 12:46:22.1      32     21     24     39     45  55.8  35.5  34160  289.58 0854.72
2009/04/23 12:46:22.2      28     31     17     43     46  42.3  22.0  34162  289.60 0854.72
2009/04/23 12:46:22.3       0     45     16     46     49   0.0  19.2  34164  289.63 0854.72
2009/04/23 12:46:22.4     -14     46     26     49     55 342.2  30.3  34162  289.62 0854.72
2009/04/23 12:46:22.5     -34     54     30     65     71 327.5  27.1  34162  289.60 0854.72
2009/04/23 12:46:22.6     -39     61     13     73     75 327.4  10.1  34162  289.60 0854.72
2009/04/23 12:46:22.7     -52     71     -6     89     90 323.9  -4.1  34160  289.57 0854.72
2009/04/23 12:46:22.8     -54     57    -15     79     81 316.8 -10.9  34160  289.58 0854.72
2009/04/23 12:46:22.9     -63     34    -20     72     75 298.9 -15.5  34160  289.57 0854.72
2009/04/23 12:46:23.0     -87     72    -65    114    131 309.5 -36.8  34162  289.62 0854.72
2009/04/23 12:46:23.1    -129    -22    -86    131    156 260.3 -40.0  34162  289.60 0854.72
2009/04/23 12:46:23.2    -130    -14    -50    131    140 263.8 -25.9  34160  289.58 0854.72
2009/04/23 12:46:23.3    -120     -9      0    121    122 265.6   0.2  34162  289.60 0854.72
2009/04/23 12:46:23.4    -129     -5      6    130    131 267.4   2.8  34162  289.62 0854.72
2009/04/23 12:46:23.5    -126     -1    -12    127    128 269.2  -5.6  34158  289.55 0854.72
2009/04/23 12:46:23.6    -136    -10     -3    137    138 265.6  -1.3  34160  289.58 0854.72
2009/04/23 12:46:23.7    -102    -48     -4    114    115 244.6  -2.2  34162  289.62 0854.72
2009/04/23 12:46:23.8     -93    -49      5    106    107 242.0   2.9  34162  289.60 0854.72
2009/04/23 12:46:23.9     -97    -44    -13    107    108 245.6  -7.3  34164  289.63 0854.72
2009/04/23 12:46:24.0     -94    -42    -30    104    109 245.6 -16.0  34164  289.63 0854.72
2009/04/23 12:46:24.1     -71    -49    -18     87     89 235.4 -11.9  34162  289.62 0854.72
2009/04/23 12:46:24.2     -65    -78      0    102    103 219.6  -0.3  34162  289.62 0854.72
2009/04/23 12:46:24.3     -61    -96     -9    114    115 212.5  -4.6  34162  289.62 0854.72
2009/04/23 12:46:24.4     -40   -111     -4    119    120 200.0  -2.2  34162  289.62 0854.72
2009/04/23 12:46:24.5     -32   -128      5    133    134 194.3   2.3  34164  289.63 0854.72
2009/04/23 12:46:24.6     -50   -114      0    125    126 203.6   0.2  34162  289.60 0854.72
2009/04/23 12:46:24.7    -102   -102     20    145    147 224.9   8.0  34162  289.60 0854.72
2009/04/23 12:46:24.8    -125    -57    -13    138    139 245.2  -5.6  34162  289.62 0854.72
2009/04/23 12:46:24.9    -103    -44    -56    113    126 246.9 -32.6  34162  289.60 0854.72
2009/04/23 12:46:25.0    -101    -34   -104    107    149 251.4 -53.8  34164  289.63 0854.72
2009/04/23 12:46:25.1     -59    -67   -101     90    135 221.4 -58.6  34164  289.65 0854.71
2009/04/23 12:46:25.2    -148    -96    -52    177    185 237.1 -16.6  34162  289.62 0854.71
2009/04/23 12:46:25.3    -114   -107    -81    157    176 226.9 -33.7  34162  289.62 0854.71
2009/04/23 12:46:25.4    -126    -87   -112    154    190 235.4 -44.1  34164  289.63 0854.71
2009/04/23 12:46:25.5    -181   -120    -64    218    228 236.3 -16.4  34164  289.65 0854.71
2009/04/23 12:46:25.6    -197    -78    -85    213    229 248.3 -27.4  34164  289.65 0854.71
2009/04/23 12:46:25.7    -181    -50    -58    188    197 254.3 -17.3  34164  289.63 0854.71
2009/04/23 12:46:25.8    -184    -25    -23    186    188 262.1  -7.3  34160  289.58 0854.71
2009/04/23 12:46:25.9    -176    -21    -13    178    179 263.2  -4.4  34164  289.63 0854.71
2009/04/23 12:46:26.0    -156     -7      2    157    158 267.4   1.0  34164  289.63 0854.71
2009/04/23 12:46:26.1    -151     -2     32    152    156 269.1  12.2  34164  289.65 0854.71
2009/04/23 12:46:26.2    -142      0     22    143    145 269.6   9.0  34164  289.65 0854.71
2009/04/23 12:46:26.3    -134     -6      6    135    136 267.4   2.9  34164  289.65 0854.71
2009/04/23 12:46:26.4    -143    -33     -3    147    148 256.7  -1.3  34168  289.72 0854.71
2009/04/23 12:46:26.5     -93    -76     20    121    123 230.5   9.5  34170  289.74 0854.71
2009/04/23 12:46:26.6    -123    -41     52    130    140 251.4  23.0  34168  289.70 0854.71
2009/04/23 12:46:26.7    -179    -11     24    180    182 266.3   7.8  34166  289.69 0854.71
2009/04/23 12:46:26.8    -163      0     -6    164    165 270.1  -2.2  34166  289.67 0854.71
2009/04/23 12:46:26.9    -109     14    -38    110    117 277.5 -19.1  34162  289.62 0854.71
2009/04/23 12:46:27.0    -125      0    -66    126    142 270.0 -34.2  34162  289.62 0854.71
2009/04/23 12:46:27.1    -130    -23    -44    133    140 259.9 -23.8  34162  289.62 0854.71
2009/04/23 12:46:27.2    -121    -40    -49    128    137 251.6 -25.9  34162  289.62 0854.71
2009/04/23 12:46:27.3    -123    -25    -37    126    131 258.1 -21.2  34164  289.63 0854.71
2009/04/23 12:46:27.4    -116    -31    -34    121    126 255.0 -16.0  34162  289.60 0854.71
2009/04/23 12:46:27.5    -121    -23    -35    124    128 259.0 -20.2  34162  289.62 0854.71
2009/04/23 12:46:27.6     -98    -39    -52    106    118 248.3 -32.2  34164  289.63 0854.71
2009/04/23 12:46:27.7     -90    -43    -54    100    113 244.2 -35.7  34164  289.63 0854.71
2009/04/23 12:46:27.8    -113    -53    -36    125    130 244.8 -21.2  34164  289.63 0854.71
2009/04/23 12:46:27.9     -98    -60      1    115    116 238.5   0.8  34162  289.62 0854.71
2009/04/23 12:46:28.0     -81     -6    -10     82     83 265.2  -7.2  34166  289.67 0854.71
2009/04/23 12:46:28.1     -92      6      1     93     94 274.3   1.2  34162  289.62 0854.71
2009/04/23 12:46:28.2    -100    -20     -2    103    104 258.5  -1.3  34166  289.67 0854.71
2009/04/23 12:46:28.3    -124    -61    -17    139    141 243.8  -7.3  34166  289.67 0854.71
2009/04/23 12:46:28.4    -162    -36    -45    167    172 257.4 -20.0  34160  289.58 0854.71
2009/04/23 12:46:28.5    -168    -15    -60    169    179 264.8 -24.6  34160  289.57 0854.71
2009/04/23 12:46:28.6    -128     -3    -89    129    156 268.3 -42.8  34160  289.57 0854.71
2009/04/23 12:46:28.7    -140     -6    -94    141    169 267.4 -41.1  34162  289.62 0854.71
2009/04/23 12:46:28.8    -104    -41    -69    112    131 248.3 -39.4  34160  289.58 0854.71
2009/04/23 12:46:28.9     -67    -62    -15     92     94 226.9  -9.8  34162  289.60 0854.71
2009/04/23 12:46:29.0     -78      0    -35     79     86 270.0 -29.5  34162  289.62 0854.71
2009/04/23 12:46:29.1     -95     -6    -35     96    102 266.1 -24.8  34160  289.58 0854.70
2009/04/23 12:46:29.2     -89    -12    -72     90    115 262.1 -48.1  34162  289.60 0854.70
2009/04/23 12:46:29.3     -63    -19    -73     66     98 253.2 -57.1  34162  289.60 0854.70
2009/04/23 12:46:29.4     -83    -23    -66     87    109 254.5 -45.6  34162  289.62 0854.70
2009/04/23 12:46:29.5     -88    -18    -61     90    108 258.1 -41.4  34164  289.65 0854.70
2009/04/23 12:46:29.6     -74    -10    -68     75    101 262.0 -51.9  34166  289.67 0854.70
2009/04/23 12:46:29.7     -41    -12    -64     43     77 253.2 -69.0  34164  289.65 0854.70
2009/04/23 12:46:29.9     -40    -21    -72     46     85 242.0 -69.0  34166  289.67 0854.70
2009/04/23 12:46:30.0     -37    -16    -76     41     86 246.5 -73.7  34168  289.70 0854.70
2009/04/23 12:46:30.1     -58     -6    -85     59    103 263.9 -66.5  34166  289.67 0854.70
2009/04/23 12:46:30.2     -71     -4    -83     72    109 266.5 -59.8  34164  289.63 0854.70
2009/04/23 12:46:30.3      -8      1    -33      9     34 281.5 -87.2  34164  289.65 0854.70
2009/04/23 12:46:30.4       3     -3    -24      5     24 133.3 -90.0  34164  289.63 0854.70
2009/04/23 12:46:30.5     -28    -61    -48     68     83 204.5 -43.5  34160  289.58 0854.70
2009/04/23 12:46:30.6     -19    -94    -57     97    112 191.6 -37.9  34162  289.62 0854.70
2009/04/23 12:46:30.7      -7    -99    -54    100    113 184.0 -35.7  34160  289.57 0854.70
2009/04/23 12:46:30.8      -7   -113    -55    114    126 184.0 -31.7  34160  289.58 0854.70
2009/04/23 12:46:30.9     -15   -109    -67    111    129 188.1 -38.4  34162  289.60 0854.70
2009/04/23 12:46:31.0     -13   -122    -89    123    151 186.3 -44.1  34162  289.60 0854.70
2009/04/23 12:46:31.1      40   -133    -84    140    163 163.1 -38.4  34160  289.58 0854.70
2009/04/23 12:46:31.2      60   -128    -77    142    161 154.7 -35.2  34162  289.60 0854.71
2009/04/23 12:46:31.3      49   -132    -70    142    158 159.5 -32.6  34162  289.60 0854.71
2009/04/23 12:46:31.4      37   -161    -65    166    178 167.1 -26.9  34160  289.58 0854.71
2009/04/23 12:46:31.5      45   -159    -57    166    175 164.0 -23.3  34160  289.58 0854.71
2009/04/23 12:46:31.6      40   -123    -56    130    141 161.7 -29.5  34162  289.60 0854.71
2009/04/23 12:46:31.7      56   -125    -32    138    142 155.9 -13.3  34162  289.60 0854.71
2009/04/23 12:46:31.8     108   -115    -34    158    162 136.8 -12.4  34162  289.60 0854.71
2009/04/23 12:46:31.9     101   -135    -56    169    179 143.3 -18.3  34162  289.62 0854.71
2009/04/23 12:46:32.0     135   -141    -46    196    202 136.3 -13.3  34160  289.57 0854.71
2009/04/23 12:46:32.1     153   -106    -43    187    193 124.9 -13.2  34162  289.62 0854.71
2009/04/23 12:46:32.2     169   -115    -44    205    210 124.4 -12.2  34162  289.62 0854.68
2009/04/23 12:46:32.3     140   -107    -52    177    184 127.3 -21.2  34162  289.60 0854.68
2009/04/23 12:46:32.4     125   -109     -8    167    168 131.1  -2.8  34162  289.62 0854.68
2009/04/23 12:46:32.5     150   -151    -27    214    216 135.2  -7.2  34162  289.60 0854.68
2009/04/23 12:46:32.6     141   -214    -49    257    262 146.6 -10.9  34162  289.59 0854.68
2009/04/23 12:46:32.7      76   -202   -112    217    244 159.3 -33.7  34162  289.61 0854.68
2009/04/23 12:46:32.8     105   -159    -82    191    207 146.6 -29.3  34160  289.57 0854.68
2009/04/23 12:46:32.9     149   -173    -82    229    244 139.2 -19.7  34162  289.61 0854.68
2009/04/23 12:46:33.0     157   -159    -97    224    244 135.5 -29.3  34162  289.61 0854.68
2009/04/23 12:46:33.1     180   -176   -132    252    284 134.4 -33.9  34160  289.58 0854.68
2009/04/23 12:46:33.2     179   -172   -114    249    273 133.8 -30.6  34164  289.63 0854.68
2009/04/23 12:46:33.3     104   -116   -140    157    210 138.1 -50.6  34164  289.63 0854.68
2009/04/23 12:46:33.4     100    -82    -95    130    161 129.5 -44.3  34162  289.62 0854.68
2009/04/23 12:46:33.5     153    -51    -67    162    175 108.6 -28.0  34160  289.58 0854.68
2009/04/23 12:46:33.6     182    -43    -18    188    189 103.3  -5.6  34160  289.58 0854.68
2009/04/23 12:46:33.7     141    -96     41    171    176 124.4  13.5  34164  289.63 0854.68
2009/04/23 12:46:33.8     172   -151     24    229    231 131.3   6.1  34160  289.58 0854.68
2009/04/23 12:46:33.9     199   -133     57    240    247 123.7  13.5  34166  289.66 0854.68
2009/04/23 12:46:34.0     159    -79    -15    178    179 116.6  -4.9  34164  289.65 0854.68
2009/04/23 12:46:34.1     154    -48    -29    162    165 107.5 -10.3  34166  289.67 0854.68
2009/04/23 12:46:34.2     120    -96      0    154    155 128.6  -0.3  34162  289.60 0854.65
2009/04/23 12:46:34.3     146    -25     52    149    157  99.7  20.0  34164  289.63 0854.65
2009/04/23 12:46:34.4     124    -73     68    145    160 120.7  27.0  34166  289.67 0854.65
2009/04/23 12:46:34.5      74    -75     68    106    125 135.5  35.6  34164  289.63 0854.65
2009/04/23 12:46:34.6      25   -115     83    118    144 167.5  38.6  34164  289.65 0854.65
2009/04/23 12:46:34.7       8   -114     98    115    151 175.5  44.3  34164  289.65 0854.65
2009/04/23 12:46:34.8      47   -166    141    173    223 164.0  43.7  34162  289.60 0854.65
2009/04/23 12:46:34.9     -13   -123    124    124    175 186.3  50.1  34164  289.63 0854.65
2009/04/23 12:46:35.0     -43   -217     89    222    239 191.3  23.0  34166  289.66 0854.65
2009/04/23 12:46:35.1     -72   -227     64    239    248 197.6  15.0  34164  289.63 0854.65
2009/04/23 12:46:35.2     -76   -239     37    251    254 197.8   8.5  34162  289.61 0854.65
2009/04/23 12:46:35.3     -51   -323     51    328    333 189.1   8.9  34162  289.59 0854.65
2009/04/23 12:46:35.4      32   -356    -41    358    361 174.8  -6.6  34158  289.55 0854.65
2009/04/23 12:46:35.5      -5   -299    -16    300    301 181.0  -3.2  34164  289.63 0854.65
2009/04/23 12:46:35.6     -20   -307     43    308    312 183.8   8.0  34164  289.63 0854.65
2009/04/23 12:46:35.7     -29   -290     56    292    298 185.8  11.0  34168  289.71 0854.65
2009/04/23 12:46:35.8      -4   -266     50    267    272 181.0  10.6  34166  289.66 0854.65
2009/04/23 12:46:35.9     -90   -295     41    309    312 197.0   7.6  34168  289.70 0854.65
2009/04/23 12:46:36.0     -82   -281      6    293    294 196.3   1.2  34166  289.68 0854.65
2009/04/23 12:46:36.1     -97   -268    -11    286    287 200.0  -2.2  34166  289.68 0854.65
2009/04/23 12:46:36.2     -94   -281    -65    297    305 198.5 -12.4  34166  289.66 0854.63
2009/04/23 12:46:36.3    -169   -298    -29    343    345 209.6  -4.9  34162  289.62 0854.63
2009/04/23 12:46:36.4    -168   -377   -103    413    426 204.1 -14.1  34166  289.66 0854.63
2009/04/23 12:46:36.5    -181   -258    -77    316    326 215.1 -13.8  34162  289.59 0854.63
2009/04/23 12:46:36.6    -225   -138    -83    264    277 238.5 -17.6  34170  289.73 0854.63
2009/04/23 12:46:36.7    -221    -82    -69    236    246 249.6 -16.4  34172  289.78 0854.63
2009/04/23 12:46:36.8    -160   -159    -29    226    228 225.1  -7.3  34168  289.72 0854.63
2009/04/23 12:46:36.9    -120   -217    -60    249    257 209.0 -13.7  34174  289.80 0854.63
2009/04/23 12:46:37.0    -208   -156   -116    260    284 233.1 -30.1  34174  289.80 0854.63
2009/04/23 12:46:37.1    -244   -145    -36    284    287 239.3  -7.3  34174  289.80 0854.63
2009/04/23 12:46:37.2    -198   -132     25    239    241 236.3   6.0  34174  289.80 0854.63
2009/04/23 12:46:37.3    -114   -202     -4    233    234 209.4  -1.2  34170  289.73 0854.63
2009/04/23 12:46:37.4    -140   -148    -44    204    209 223.4 -12.4  34168  289.70 0854.63
2009/04/23 12:46:37.5    -132   -121   -103    180    207 227.6 -36.8  34166  289.69 0854.63
2009/04/23 12:46:37.6    -120    -99    -71    156    171 230.5 -30.6  34170  289.74 0854.63
2009/04/23 12:46:37.7     -44   -135    -51    143    152 198.3 -19.7  34168  289.72 0854.63
2009/04/23 12:46:37.8     -97    -94     75    136    155 226.0  31.4  34168  289.72 0854.63
2009/04/23 12:46:37.9     -93    -12    107     94    142 262.1  54.2  34178  289.89 0854.63
2009/04/23 12:46:38.0    -160     53     63    169    180 288.4  21.3  34180  289.91 0854.63
2009/04/23 12:46:38.1    -123     24     52    126    136 281.0  23.6  34176  289.85 0854.63
2009/04/23 12:46:38.2    -145   -110     69    183    195 232.9  21.7  34172  289.77 0854.67
2009/04/23 12:46:38.3    -155    -67     -7    170    171 246.5  -2.6  34174  289.82 0854.67
2009/04/23 12:46:38.4    -226      4     -8    227    228 271.3  -2.2  34172  289.79 0854.67
2009/04/23 12:46:38.5     -92     11     67     93    114 277.0  39.5  34174  289.82 0854.67
2009/04/23 12:46:38.6     -56     21     65     60     88 290.8  52.2  34172  289.79 0854.67
2009/04/23 12:46:38.7     -46    -97     65    108    126 205.5  34.0  34174  289.82 0854.67
2009/04/23 12:46:38.8     -77   -159     27    177    180 205.9   8.8  34172  289.77 0854.67
2009/04/23 12:46:38.9     -89   -123     56    152    161 216.0  21.0  34170  289.74 0854.67
2009/04/23 12:46:39.0    -108   -209     61    236    244 207.4  14.5  34170  289.73 0854.67
2009/04/23 12:46:39.1    -101   -305     30    322    324 198.3   5.3  34168  289.71 0854.67
2009/04/23 12:46:39.2    -135   -253      3    287    288 208.1   0.7  34168  289.71 0854.67
2009/04/23 12:46:39.3    -237   -256    -26    350    351 222.8  -4.4  34172  289.76 0854.67
2009/04/23 12:46:39.4    -206   -263     17    335    336 218.0   3.0  34164  289.64 0854.67
2009/04/23 12:46:39.5    -107   -269     45    290    294 201.8   9.0  34168  289.71 0854.67
2009/04/23 12:46:39.6    -104   -245     35    267    270 202.9   7.5  34170  289.73 0854.67
2009/04/23 12:46:39.7    -149   -270    -28    309    311 209.0  -5.2  34168  289.71 0854.67
2009/04/23 12:46:39.8    -190   -266     -6    328    329 215.6  -1.2  34166  289.68 0854.67
2009/04/23 12:46:39.9    -114   -266     40    290    293 203.2   8.0  34166  289.68 0854.67
2009/04/23 12:46:40.0     -99   -322    -13    338    339 197.2  -2.2  34172  289.77 0854.67
2009/04/23 12:46:40.1    -147   -340      3    371    372 203.4   0.5  34168  289.71 0854.67
2009/04/23 12:46:40.2    -147   -384     41    412    415 200.9   5.8  34166  289.66 0854.67
2009/04/23 12:46:40.3    -146   -375     40    403    405 201.3   5.7  34166  289.68 0854.67
2009/04/23 12:46:40.4    -122   -342     34    364    366 199.7   5.4  34166  289.67 0854.67
2009/04/23 12:46:40.5    -117   -322     55    343    348 200.0   9.2  34164  289.65 0854.67
2009/04/23 12:46:40.6     -93   -376     50    388    392 194.0   7.5  34164  289.64 0854.67
2009/04/23 12:46:40.7    -100   -394     38    407    409 194.3   5.4  34166  289.66 0854.67
2009/04/23 12:46:40.8    -117   -384     41    402    405 197.0   5.9  34166  289.66 0854.67
2009/04/23 12:46:40.9    -100   -403     43    416    419 194.0   5.9  34166  289.68 0854.67
2009/04/23 12:46:41.0     -55   -394     40    398    401 188.0   5.8  34168  289.71 0854.67
2009/04/23 12:46:41.1     -62   -370     39    376    379 189.6   6.0  34166  289.67 0854.67
2009/04/23 12:46:41.2     -54   -338     42    343    346 189.1   7.1  34168  289.72 0854.67
2009/04/23 12:46:41.3     -36   -296     52    299    304 187.1   9.9  34166  289.68 0854.67
2009/04/23 12:46:41.4     -18   -362     98    363    377 182.9  15.1  34170  289.74 0854.67
2009/04/23 12:46:41.5       7   -355     83    356    366 178.8  13.1  34170  289.74 0854.67
2009/04/23 12:46:41.6      25   -367     67    368    375 176.1  10.3  34168  289.71 0854.67
2009/04/23 12:46:41.7      36   -357     69    359    366 174.2  11.0  34172  289.76 0854.67
2009/04/23 12:46:41.8      32   -336     91    338    351 174.4  15.2  34168  289.72 0854.67
2009/04/23 12:46:41.9      68   -250    119    260    285 164.8  26.2  34168  289.70 0854.67
2009/04/23 12:46:42.0     133   -284    108    314    333 154.8  19.1  34168  289.70 0854.67
2009/04/23 12:46:42.1     145   -196    101    245    265 143.5  23.8  34166  289.68 0854.67
2009/04/23 12:46:42.2     108   -195     97    224    244 151.0  24.9  34170  289.73 0854.65
2009/04/23 12:46:42.3     127   -130     75    183    197 135.7  23.4  34168  289.72 0854.65
2009/04/23 12:46:42.4      39   -146    116    152    191 164.9  41.4  34168  289.70 0854.65
2009/04/23 12:46:42.5     170   -120     63    209    219 125.3  16.8  34168  289.72 0854.65
2009/04/23 12:46:42.6     149    -45     66    156    169 106.8  24.6  34164  289.63 0854.65
2009/04/23 12:46:42.7     133    -63    102    148    179 115.2  38.0  34168  289.72 0854.65
2009/04/23 12:46:42.8     212    -92     54    232    239 113.5  13.2  34168  289.70 0854.65
2009/04/23 12:46:42.9     201    -87     90    220    237 113.5  23.6  34166  289.67 0854.65
2009/04/23 12:46:43.0     208   -132    141    247    284 122.5  32.3  34166  289.66 0854.65
2009/04/23 12:46:43.1     214   -171     32    275    277 128.6   6.7  34164  289.63 0854.65
2009/04/23 12:46:43.2     154   -121      8    197    198 128.2   2.5  34166  289.69 0854.65
2009/04/23 12:46:43.3     168   -109      3    201    202 123.1   1.0  34168  289.70 0854.65
2009/04/23 12:46:43.4     176   -104     32    205    208 120.7   9.0  34164  289.63 0854.65
2009/04/23 12:46:43.5     130   -139     78    191    206 136.8  23.4  34166  289.69 0854.65
2009/04/23 12:46:43.6     123   -137     80    185    201 138.1  24.9  34166  289.69 0854.65
2009/04/23 12:46:43.7     111   -150     65    187    197 143.5  20.0  34164  289.65 0854.65
2009/04/23 12:46:43.8     144   -157     49    214    220 137.5  13.1  34166  289.69 0854.65
2009/04/23 12:46:43.9     109    -85     81    139    160 127.8  32.9  34166  289.67 0854.65
2009/04/23 12:46:44.0      99    -70     95    122    154 125.5  41.7  34166  289.67 0854.65
2009/04/23 12:46:44.1      46    -59    105     75    129 142.2  60.6  34168  289.70 0854.64
2009/04/23 12:46:44.2     108    -80    108    135    172 126.4  43.0  34168  289.72 0854.64
2009/04/23 12:46:44.3     121    -56     83    134    157 114.8  34.8  34166  289.69 0854.64
2009/04/23 12:46:44.4     119    -61     48    134    142 117.1  20.4  34166  289.69 0854.64
2009/04/23 12:46:44.5      60    -97     49    115    125 148.4  24.6  34168  289.72 0854.64
2009/04/23 12:46:44.6      54    -78     69     95    117 145.3  39.7  34168  289.70 0854.64
2009/04/23 12:46:44.7      15    -64     96     66    116 166.6  62.6  34166  289.67 0854.64
2009/04/23 12:46:44.8       3    -81     76     82    111 177.3  47.9  34168  289.70 0854.64
2009/04/23 12:46:44.9     112    -59    101    127    162 118.0  42.7  34164  289.65 0854.64
2009/04/23 12:46:45.0      26    -69     62     74     96 159.1  44.3  34168  289.72 0854.64
2009/04/23 12:46:45.1       2   -125      6    126    127 179.0   2.8  34168  289.70 0854.64
2009/04/23 12:46:45.2       8   -122     24    123    126 176.0  11.1  34166  289.69 0854.64
2009/04/23 12:46:45.3      77    -92    -31    121    126 139.9 -14.5  34166  289.67 0854.64
2009/04/23 12:46:45.4     104    -77    -70    130    147 126.4 -35.7  34168  289.70 0854.64
2009/04/23 12:46:45.5     -13    -56    -54     58     79 193.4 -52.9  34166  289.67 0854.64
2009/04/23 12:46:45.6     -39    -43    -45     59     74 222.3 -46.1  34168  289.72 0854.64
2009/04/23 12:46:45.7     -22    -76    -67     80    104 196.0 -48.2  34168  289.72 0854.64
2009/04/23 12:46:45.8     -64    -98    -56    118    130 213.4 -31.6  34170  289.74 0854.64
2009/04/23 12:46:45.9     -44   -170    -30    176    179 194.5  -9.8  34166  289.67 0854.64
2009/04/23 12:46:46.0      36   -133    -40    138    143 164.9 -21.2  34168  289.70 0854.64
2009/04/23 12:46:46.1       0   -148    -29    149    152 180.4 -11.3  34168  289.70 0854.67
2009/04/23 12:46:46.2       0   -168    -26    169    171 179.8  -8.8  34168  289.70 0854.67
2009/04/23 12:46:46.3       2   -184    -25    185    187 179.1  -7.7  34168  289.70 0854.67
2009/04/23 12:46:46.4     -20   -249      5    250    251 184.7   1.2  34168  289.71 0854.67
2009/04/23 12:46:46.5       0   -264     78    265    277 180.0  16.4  34166  289.68 0854.67
2009/04/23 12:46:46.6     -32   -254     95    257    273 187.3  21.0  34168  289.71 0854.67
2009/04/23 12:46:46.7     -24   -227     92    229    246 186.3  23.0  34168  289.71 0854.67
2009/04/23 12:46:46.8     -60   -197     76    207    220 197.0  20.9  34168  289.70 0854.67
2009/04/23 12:46:46.9     -88   -134     46    161    168 213.2  16.0  34172  289.79 0854.67
2009/04/23 12:46:47.0    -103   -143     51    177    185 215.6  16.3  34174  289.82 0854.67
2009/04/23 12:46:47.1    -119   -115     79    166    183 226.0  27.2  34174  289.82 0854.67
2009/04/23 12:46:47.2    -146   -110     29    184    187 232.9   9.0  34170  289.74 0854.67
2009/04/23 12:46:47.3     -94   -101     32    139    143 222.8  13.1  34168  289.72 0854.67
2009/04/23 12:46:47.4      50    -71     96     88    130 144.8  52.7  34168  289.72 0854.67
2009/04/23 12:46:47.5      13   -124    102    125    161 173.8  43.5  34168  289.72 0854.67
2009/04/23 12:46:47.6     -27   -198    115    201    231 188.0  32.7  34168  289.70 0854.67
2009/04/23 12:46:47.7     -61   -241     83    249    263 194.3  18.4  34170  289.75 0854.67
2009/04/23 12:46:47.8     -13   -295     76    296    306 182.6  14.5  34170  289.75 0854.67
2009/04/23 12:46:47.9      -4   -302     69    303    311 180.9  12.9  34168  289.70 0854.67
2009/04/23 12:46:48.0       8   -323     38    324    327 178.5   6.8  34170  289.73 0854.67
2009/04/23 12:46:48.1     -23   -264     94    266    283 185.1  19.6  34170  289.75 0854.68
2009/04/23 12:46:48.2      -2   -266     54    267    273 180.5  11.6  34170  289.73 0854.68
2009/04/23 12:46:48.3      60   -306     29    312    314 168.9   5.3  34170  289.73 0854.68
2009/04/23 12:46:48.4       8   -278    104    279    297 178.2  21.3  34170  289.75 0854.68
2009/04/23 12:46:48.5     -75   -287    112    297    317 194.7  21.6  34170  289.75 0854.68
2009/04/23 12:46:48.6    -102   -235    153    257    299 203.6  33.5  34174  289.80 0854.68
2009/04/23 12:46:48.7     -58   -259    140    266    300 192.7  30.2  34174  289.80 0854.68
2009/04/23 12:46:48.8    -125   -240     79    271    283 207.6  16.3  34172  289.78 0854.68
2009/04/23 12:46:48.9    -154   -294     82    333    344 207.7  13.9  34178  289.86 0854.68
2009/04/23 12:46:49.0    -102   -324    113    340    359 197.5  18.4  34174  289.81 0854.68
2009/04/23 12:46:49.1    -131   -430    160    450    477 197.0  20.4  34170  289.73 0854.68
2009/04/23 12:46:49.2     153   -584     30    604    605 165.3   2.9  34170  289.75 0854.68
2009/04/23 12:46:49.3      94   -572     72    580    585 170.7   7.1  34166  289.68 0854.68
2009/04/23 12:46:49.4     110   -469    160    482    508 166.7  18.4  34160  289.57 0854.68
2009/04/23 12:46:49.5      74   -410     49    417    420 169.8   6.8  34170  289.73 0854.68
2009/04/23 12:46:49.6     177   -409    145    446    470 156.5  18.0  34166  289.66 0854.68
2009/04/23 12:46:49.7      50   -487    214    490    534 174.0  25.1  34170  289.74 0854.68
2009/04/23 12:46:49.8      -6   -423    240    424    487 180.9  32.0  34166  289.69 0854.68
2009/04/23 12:46:49.9     -41   -274    324    278    426 188.5  55.3  34166  289.67 0854.68
2009/04/23 12:46:50.0      43   -390    288    393    487 173.7  39.9  34166  289.68 0854.68
2009/04/23 12:46:50.1     -59   -382    214    387    442 188.8  31.4  34166  289.66 0854.74
2009/04/23 12:46:50.2    -134   -385    148    408    434 199.2  20.9  34168  289.72 0854.74
2009/04/23 12:46:50.3    -214   -403    160    457    485 208.0  19.3  34166  289.69 0854.74
2009/04/23 12:46:50.4    -260   -336     73    426    433 217.8   9.7  34172  289.78 0854.74
2009/04/23 12:46:50.5    -141   -255   -107    292    310 209.0 -25.3  34172  289.76 0854.74
2009/04/23 12:46:50.6     -83   -245    -17    259    260 198.7  -3.9  34172  289.76 0854.74
2009/04/23 12:46:50.7      45   -319     82    323    334 171.9  14.3  34164  289.65 0854.74
2009/04/23 12:46:50.8      79   -323     45    333    337 166.2   7.8  34166  289.67 0854.74
2009/04/23 12:46:50.9     125   -235    134    267    298 151.9  28.7  34170  289.75 0854.74
2009/04/23 12:46:51.0     118   -124    195    172    260 136.3  54.2  34170  289.75 0854.74
2009/04/23 12:46:51.1     226   -120    166    257    305 118.0  35.6  34170  289.73 0854.74
2009/04/23 12:46:51.2     285   -157    131    326    351 118.9  23.0  34172  289.77 0854.74
2009/04/23 12:46:51.3     329   -183    131    377    399 119.2  20.0  34172  289.77 0854.74
2009/04/23 12:46:51.4     270   -284     84    392    401 136.5  12.1  34170  289.74 0854.74
2009/04/23 12:46:51.5     164   -288     31    332    334 150.4   5.4  34172  289.76 0854.74
2009/04/23 12:46:51.6     213   -276    128    349    371 142.4  21.0  34168  289.71 0854.74
2009/04/23 12:46:51.7     223   -272    109    352    369 140.6  17.3  34172  289.76 0854.74
2009/04/23 12:46:51.8     274   -271     75    386    394 134.6  11.0  34162  289.60 0854.74
2009/04/23 12:46:51.9     283   -253    133    380    403 131.8  19.3  34168  289.72 0854.74
2009/04/23 12:46:52.0     189   -300    -23    355    356 147.7  -3.7  34166  289.69 0854.74
2009/04/23 12:46:52.1     271   -262     32    378    380 134.0   4.9  34168  289.72 0854.69
2009/04/23 12:46:52.2     298   -247     16    388    389 129.6   2.4  34168  289.71 0854.69
2009/04/23 12:46:52.3     275   -275      5    389    390 135.0   0.8  34166  289.69 0854.69
2009/04/23 12:46:52.4     251   -300      2    392    393 140.1   0.4  34170  289.74 0854.69
2009/04/23 12:46:52.5     274   -258     73    377    385 133.2  11.0  34170  289.74 0854.69
2009/04/23 12:46:52.6     212   -178    208    278    347 130.0  40.6  34168  289.71 0854.69
2009/04/23 12:46:52.7     103   -101    158    145    214 134.4  52.5  34168  289.72 0854.69
2009/04/23 12:46:52.8     167   -113    128    202    239 124.2  35.5  34168  289.72 0854.69
2009/04/23 12:46:52.9     233    -99     49    254    259 113.1  11.1  34170  289.75 0854.69
2009/04/23 12:46:53.0     177   -130     95    220    239 126.4  24.9  34164  289.63 0854.69
2009/04/23 12:46:53.1     154   -203    243    256    352 142.8  48.4  34170  289.75 0854.67
2009/04/23 12:46:53.2      10   -225    206    226    305 177.3  47.1  34170  289.73 0854.67
2009/04/23 12:46:53.3    -148   -246    100    288    306 211.0  19.2  34168  289.70 0854.67
2009/04/23 12:46:53.4    -141   -247     34    285    288 209.8   6.9  34168  289.71 0854.67
2009/04/23 12:46:53.5    -117   -180   -113    215    242 213.0 -34.6  34164  289.64 0854.67
2009/04/23 12:46:53.6     -41   -176    -50    181    187 193.4 -20.0  34166  289.67 0854.67
2009/04/23 12:46:53.7     -50    -60      3     79     80 219.6   2.3  34170  289.75 0854.67
2009/04/23 12:46:53.8      -1    -18     38     19     42 184.5  71.9  34170  289.75 0854.67
2009/04/23 12:46:53.9      50    -21     18     55     58 113.5  18.4  34170  289.75 0854.67
2009/04/23 12:46:54.0      62    -85    113    106    154 144.0  52.1  34168  289.72 0854.67
2009/04/23 12:46:54.1       9    -10     70     14     71 136.8  89.0  34170  289.74 0854.67
2009/04/23 12:46:54.2     -41    -43    -70     60     92 224.2 -59.2  34170  289.75 0854.67
2009/04/23 12:46:54.3       6     20    -33     22     39  18.5 -68.0  34168  289.72 0854.67
2009/04/23 12:46:54.4      20     98    -44    101    110  11.6 -29.5  34170  289.75 0854.67
2009/04/23 12:46:54.5     129    136    -53    188    196  43.4 -15.8  34170  289.75 0854.67
2009/04/23 12:46:54.6     155    139    -45    209    214  48.2 -12.2  34170  289.74 0854.67
2009/04/23 12:46:54.7      85    109    -40    139    144  37.9 -21.2  34172  289.79 0854.67
2009/04/23 12:46:54.8      91     91   -135    129    186  45.0 -55.8  34166  289.69 0854.67
2009/04/23 12:46:54.9     140    146   -125    203    238  43.7 -38.9  34170  289.75 0854.67
2009/04/23 12:46:55.0     215    136   -111    255    278  57.6 -29.5  34168  289.71 0854.67
2009/04/23 12:46:55.1     329    132    -45    355    358  68.1  -7.4  34162  289.60 0854.67
2009/04/23 12:46:55.2     286     34    104    289    308  83.2  19.9  34166  289.68 0854.67
2009/04/23 12:46:55.3     153     50    208    162    263  71.8  58.2  34170  289.75 0854.67
2009/04/23 12:46:55.4     113    -37    191    119    225 108.2  64.7  34174  289.82 0854.67
2009/04/23 12:46:55.5     112    -12    187    113    218  96.6  66.2  34176  289.84 0854.67
2009/04/23 12:46:55.6      69     14    101     71    123  78.5  61.5  34174  289.82 0854.67
2009/04/23 12:46:55.7     110     73     70    133    150  56.3  29.8  34170  289.75 0854.67
2009/04/23 12:46:55.8     173     57    170    183    249  71.6  47.9  34162  289.60 0854.67
2009/04/23 12:46:55.9     118     16    196    120    229  82.1  65.4  34170  289.75 0854.67
2009/04/23 12:46:56.0      86     28    141     91    167  71.8  64.4  34170  289.74 0854.67
2009/04/23 12:46:56.1     -35    -34     81     50     95 225.9  64.7  34178  289.89 0854.67
2009/04/23 12:46:56.2      16    -18     62     25     66 138.6  77.1  34174  289.82 0854.67
2009/04/23 12:46:56.3    -110     41     87    118    146 290.8  39.7  34174  289.82 0854.67
2009/04/23 12:46:56.4    -148     59     48    160    168 291.8  16.8  34172  289.79 0854.67
2009/04/23 12:46:56.5    -200    116     11    232    233 300.2   2.8  34170  289.75 0854.67
2009/04/23 12:46:56.6    -244     97    -17    263    264 291.7  -3.7  34168  289.70 0854.67
2009/04/23 12:46:56.7    -279    162    -46    323    327 300.2  -8.2  34172  289.78 0854.67
2009/04/23 12:46:56.9    -194    237     20    307    308 320.6   3.9  34170  289.73 0854.67
2009/04/23 12:46:57.0    -254    161    173    301    347 302.4  32.6  34164  289.64 0854.67
2009/04/23 12:46:57.1    -361    124    196    382    429 289.0  29.3  34176  289.83 0854.67
2009/04/23 12:46:57.2    -346    102    228    361    426 286.5  35.5  34176  289.83 0854.67
2009/04/23 12:46:57.3    -264    -19    128    265    294 265.9  27.3  34174  289.81 0854.67
2009/04/23 12:46:57.4    -113     32    101    118    155 285.9  44.8  34172  289.77 0854.67
2009/04/23 12:46:57.5      14    -77    203     79    217 169.3  77.6  34178  289.89 0854.67
2009/04/23 12:46:57.6    -288   -158    221    329    396 241.1  37.2  34164  289.64 0854.67
2009/04/23 12:46:57.7    -221    -72    153    233    278 251.8  36.5  34170  289.73 0854.67
2009/04/23 12:46:57.8    -394     59     49    399    403 278.6   7.1  34166  289.69 0854.67
2009/04/23 12:46:57.9    -215      8    168    216    273 272.4  41.7  34174  289.80 0854.67
2009/04/23 12:46:58.0    -178    -72    101    193    217 247.8  29.8  34168  289.72 0854.67
2009/04/23 12:46:58.1    -163   -127    104    207    231 232.0  28.5  34172  289.77 0854.67
2009/04/23 12:46:58.2    -156      2     54    157    167 270.8  19.2  34170  289.74 0854.67
2009/04/23 12:46:58.3      15      0     57     16     59  90.0  84.8  34172  289.79 0854.67
2009/04/23 12:46:58.4      24   -232    -50    234    240 174.0 -12.2  34166  289.66 0854.67
2009/04/23 12:46:58.5     -29   -322     38    324    327 185.2   6.8  34162  289.61 0854.67
2009/04/23 12:46:58.6    -149   -189     37    242    245 218.3   8.8  34168  289.71 0854.67
2009/04/23 12:46:58.7    -255    -73     -5    266    267 254.0  -1.2  34170  289.73 0854.67
2009/04/23 12:46:58.8    -294   -118     51    318    323 248.0   9.2  34172  289.78 0854.67
2009/04/23 12:46:58.9    -319    -44    123    323    345 262.0  21.8  34174  289.81 0854.67
2009/04/23 12:46:59.0    -276     77     14    287    288 285.7   2.8  34170  289.73 0854.67
2009/04/23 12:46:59.1    -433     -6    -95    434    445 269.2 -12.4  34170  289.75 0854.67
2009/04/23 12:46:59.2    -216    -57    107    224    248 255.2  27.3  34164  289.63 0854.68
2009/04/23 12:46:59.3    -207     -7    140    208    250 267.9  37.0  34174  289.80 0854.68
2009/04/23 12:46:59.4    -156    -18    118    158    197 263.4  40.4  34176  289.84 0854.68
2009/04/23 12:46:59.5    -147     16     68    148    162 276.6  26.2  34170  289.75 0854.68
2009/04/23 12:46:59.6    -177      0     39    178    183 270.1  12.4  34172  289.77 0854.68
2009/04/23 12:46:59.7     -15    -45    100     48    110 198.5  72.8  34170  289.74 0854.68
2009/04/23 12:46:59.8     -17    -54    123     57    135 198.3  73.1  34178  289.87 0854.68
2009/04/23 12:46:59.9       2    -89     81     90    121 178.2  46.9  34176  289.84 0854.68
2009/04/23 12:47:00.0     -59    -63     61     87    106 223.2  38.6  34174  289.80 0854.68
2009/04/23 12:47:00.1    -133    -73     34    152    156 241.1  12.6  34172  289.77 0854.68
2009/04/23 12:47:00.2    -289    -31    118    291    314 263.8  23.4  34168  289.70 0854.68
2009/04/23 12:47:00.3    -390    -29     46    392    395 265.6   6.8  34174  289.81 0854.68
2009/04/23 12:47:00.4    -356    -18    139    357    383 267.1  22.5  34168  289.72 0854.68
2009/04/23 12:47:00.5    -361    -61    115    367    385 260.4  17.5  34174  289.82 0854.68
2009/04/23 12:47:00.6    -311    -32    206    313    374 264.1  36.4  34170  289.74 0854.68
2009/04/23 12:47:00.7    -323     -4    236    324    400 269.2  39.7  34172  289.76 0854.68
2009/04/23 12:47:00.8    -229   -103    191    252    316 245.8  40.9  34170  289.75 0854.68
2009/04/23 12:47:00.9     -93    -90    158    130    204 226.0  56.4  34174  289.82 0854.68
2009/04/23 12:47:01.0     -26     55    137     62    150 334.5  74.0  34180  289.92 0854.68
2009/04/23 12:47:01.1     -64     20     75     68    101 287.7  52.7  34178  289.89 0854.68
2009/04/23 12:47:01.2      -7    -94     97     95    135 184.5  50.1  34170  289.75 0854.69
2009/04/23 12:47:01.3    -137   -150    151    204    253 222.5  39.9  34172  289.78 0854.69
2009/04/23 12:47:01.4    -216   -163    133    271    301 232.9  28.2  34172  289.78 0854.69
2009/04/23 12:47:01.5    -151   -134     10    202    203 228.4   2.9  34172  289.79 0854.69
2009/04/23 12:47:01.6      -2   -186    125    187    224 180.9  37.0  34166  289.67 0854.69
2009/04/23 12:47:01.7    -160   -151    151    221    267 226.7  37.6  34172  289.78 0854.69
2009/04/23 12:47:01.8    -198   -176    149    266    304 228.4  31.4  34172  289.76 0854.69
2009/04/23 12:47:01.9    -316   -125     63    340    346 248.4  10.6  34180  289.91 0854.69
2009/04/23 12:47:02.0    -268   -147     31    306    308 241.1   5.9  34172  289.76 0854.69
2009/04/23 12:47:02.1    -249    -58    -72    256    265 256.7 -20.4  34180  289.92 0854.69
2009/04/23 12:47:02.2    -277     31    -40    279    282 276.6  -8.2  34176  289.83 0854.69
2009/04/23 12:47:02.3    -232   -111   -127    258    287 244.5 -32.6  34176  289.83 0854.69
2009/04/23 12:47:02.4    -144   -110   -134    182    226 232.7 -44.3  34172  289.79 0854.69
2009/04/23 12:47:02.5    -164    -88    -21    187    189 241.8  -6.5  34170  289.75 0854.69
2009/04/23 12:47:02.6    -180    -75     32    196    199 247.4   9.5  34168  289.72 0854.69
2009/04/23 12:47:02.7    -208    -22    -84    210    226 263.9 -27.4  34176  289.85 0854.69
2009/04/23 12:47:02.8    -165    -50     60    173    184 252.9  19.2  34174  289.80 0854.69
2009/04/23 12:47:02.9    -104   -104     12    148    149 225.1   4.9  34174  289.82 0854.69
2009/04/23 12:47:03.0    -165    -17    106    166    196 264.1  35.6  34174  289.80 0854.69
2009/04/23 12:47:03.1    -346    -30     97    348    362 265.0  15.6  34168  289.72 0854.69
2009/04/23 12:47:03.2    -285    -21    -11    286    287 265.6  -2.2  34180  289.90 0854.70
2009/04/23 12:47:03.3    -346    -33     22    348    349 264.5   3.6  34180  289.91 0854.70
2009/04/23 12:47:03.4    -206   -144     89    252    268 235.0  19.4  34176  289.85 0854.70
2009/04/23 12:47:03.5    -130   -157     37    204    208 219.6  10.3  34174  289.82 0854.70
2009/04/23 12:47:03.6    -161    -79    -47    180    187 243.8 -14.7  34172  289.77 0854.70
2009/04/23 12:47:03.7     -52    -33    -96     62    114 237.6 -69.0  34174  289.82 0854.70
2009/04/23 12:47:03.8      45   -136     90    144    169 161.7  35.2  34176  289.84 0854.70
2009/04/23 12:47:03.9    -171   -336     50    378    382 207.0   7.6  34170  289.74 0854.70
2009/04/23 12:47:04.0    -187   -427    -14    467    468 203.7  -1.8  34172  289.78 0854.70
2009/04/23 12:47:04.1    -162   -410     58    441    445 201.6   7.6  34168  289.70 0854.70
2009/04/23 12:47:04.2     -81   -423     76    431    438 190.9  10.1  34172  289.78 0854.70
2009/04/23 12:47:04.3       7   -485     80    486    493 179.1   9.4  34170  289.73 0854.70
2009/04/23 12:47:04.4    -163   -482    -46    509    512 198.7  -5.2  34172  289.79 0854.70
2009/04/23 12:47:04.5    -130   -452    -60    471    475 196.1  -7.4  34172  289.76 0854.70
2009/04/23 12:47:04.6     -45   -425    -14    428    429 186.1  -1.9  34170  289.73 0854.70
2009/04/23 12:47:04.7    -176   -381    -82    420    429 204.8 -11.1  34170  289.75 0854.70
2009/04/23 12:47:04.8     -20   -390    -28    391    392 183.0  -4.1  34170  289.74 0854.70
2009/04/23 12:47:04.9    -124   -430      7    448    449 196.1   1.0  34170  289.75 0854.70
2009/04/23 12:47:05.0     -48   -441    -73    444    451 186.3  -9.3  34174  289.80 0854.70
2009/04/23 12:47:05.1     -60   -435     21    440    441 187.9   2.8  34170  289.75 0854.70
2009/04/23 12:47:05.2      58   -497    -99    501    511 173.3 -11.2  34166  289.69 0854.71
2009/04/23 12:47:05.3     -75   -482     -7    488    489 188.9  -0.9  34168  289.71 0854.71
2009/04/23 12:47:05.4     -79   -415    -29    423    425 190.9  -4.0  34170  289.73 0854.71
2009/04/23 12:47:05.5    -107   -381    -63    396    402 195.8  -9.1  34172  289.79 0854.71
2009/04/23 12:47:05.6      68   -375     82    382    391 169.7  12.1  34162  289.60 0854.71
2009/04/23 12:47:05.7      70   -355     87    362    373 168.8  13.6  34158  289.55 0854.71
2009/04/23 12:47:05.8      19   -247     39    248    252 175.5   9.0  34168  289.71 0854.71
2009/04/23 12:47:05.9     -94   -308     16    323    324 196.9   2.9  34168  289.71 0854.71
2009/04/23 12:47:06.0     -73   -219     33    231    234 198.5   8.2  34166  289.66 0854.71
2009/04/23 12:47:06.1      48   -185     40    192    197 165.5  12.0  34166  289.69 0854.71
2009/04/23 12:47:06.2     -78   -218    156    232    279 199.8  37.4  34168  289.71 0854.71
2009/04/23 12:47:06.3      46   -127     31    136    140 159.9  13.1  34170  289.75 0854.71
2009/04/23 12:47:06.4      29     45     78     54     94  32.5  62.6  34172  289.77 0854.71
2009/04/23 12:47:06.5      37     75    132     84    156  26.7  64.7  34174  289.80 0854.71
2009/04/23 12:47:06.6      82     82    204    116    234  45.0  68.1  34176  289.84 0854.71
2009/04/23 12:47:06.7     -34     90    101     97    140 339.1  51.2  34172  289.79 0854.71
2009/04/23 12:47:06.8      25    111     76    114    137  12.9  37.0  34170  289.75 0854.71
2009/04/23 12:47:06.9     143     29     94    146    173  78.5  35.6  34162  289.62 0854.71
2009/04/23 12:47:07.0     188     45    106    194    221  76.5  31.3  34170  289.74 0854.71
2009/04/23 12:47:07.1     124    -41    133    131    186 108.4  50.4  34166  289.67 0854.71
2009/04/23 12:47:07.2      97     41     78    106    131  66.9  40.1  34172  289.77 0854.72
2009/04/23 12:47:07.3      17    -37     59     41     71 154.5  61.5  34172  289.79 0854.72
2009/04/23 12:47:07.4     -10    -14     46     18     49 216.1  78.2  34174  289.80 0854.72
2009/04/23 12:47:07.5      11     40     62     42     74  16.0  63.6  34172  289.77 0854.72
2009/04/23 12:47:07.6      -6      0     53      7     53 270.0  90.0  34176  289.84 0854.72
2009/04/23 12:47:07.7      11    -35     76     37     84 161.7  72.4  34174  289.82 0854.72
2009/04/23 12:47:07.8     -54    -32     73     63     96 239.3  54.8  34170  289.75 0854.72
2009/04/23 12:47:07.9     -93    -12     63     94    113 262.1  36.5  34168  289.70 0854.72
2009/04/23 12:47:08.0    -161    -24    110    163    196 261.4  37.6  34168  289.70 0854.72
2009/04/23 12:47:08.1    -166    -12     98    167    193 265.6  33.5  34170  289.74 0854.72
2009/04/23 12:47:08.2    -207    -91      0    227    228 246.3   0.0  34168  289.72 0854.72
2009/04/23 12:47:08.3      16   -210    133    211    249 175.5  35.5  34164  289.63 0854.72
2009/04/23 12:47:08.4    -140    -77     56    160    170 241.1  19.4  34160  289.58 0854.72
2009/04/23 12:47:08.5    -154      8    138    155    207 273.0  46.2  34168  289.72 0854.72
2009/04/23 12:47:08.6    -130     43     72    137    154 288.4  29.8  34168  289.72 0854.72
2009/04/23 12:47:08.7     -78     84     99    115    151 317.2  45.4  34166  289.69 0854.72
2009/04/23 12:47:08.8     -15   -109    123    111    165 188.1  53.3  34164  289.65 0854.72
2009/04/23 12:47:08.9     -46    -92    118    103    156 206.7  54.3  34166  289.69 0854.72
2009/04/23 12:47:09.0    -195   -123    117    231    258 237.6  29.1  34166  289.68 0854.72
2009/04/23 12:47:09.1    -249   -118    118    276    300 244.5  24.6  34162  289.59 0854.72
2009/04/23 12:47:09.2    -229   -131    157    264    307 240.2  33.5  34162  289.61 0854.73
2009/04/23 12:47:09.3    -199   -288    231    351    420 214.7  36.5  34162  289.60 0854.73
2009/04/23 12:47:09.4    -120   -249    248    277    371 205.9  46.5  34164  289.65 0854.73
2009/04/23 12:47:09.5    -110   -195    247    225    334 209.4  53.0  34164  289.63 0854.73
2009/04/23 12:47:09.6    -135   -124    190    184    264 227.3  51.2  34166  289.66 0854.73
2009/04/23 12:47:09.7    -168   -256    131    307    333 213.4  24.6  34166  289.68 0854.73
2009/04/23 12:47:09.8    -249   -128    115    281    303 242.7  23.4  34160  289.58 0854.73
2009/04/23 12:47:09.9    -225   -152    123    272    298 235.9  26.2  34170  289.75 0854.73
2009/04/23 12:47:10.0    -218    -18    111    219    245 265.2  28.7  34156  289.51 0854.73
2009/04/23 12:47:10.1    -181   -362    160    405    435 206.6  22.9  34158  289.55 0854.73
2009/04/23 12:47:10.2    -101   -303     90    320    333 198.5  15.8  34154  289.47 0854.73
2009/04/23 12:47:10.3    -148   -268    223    307    379 208.9  39.5  34150  289.40 0854.73
2009/04/23 12:47:10.4     -53   -297    331    302    448 190.2  53.0  34152  289.44 0854.73
2009/04/23 12:47:10.5      22   -361    310    362    476 176.5  45.0  34144  289.31 0854.73
2009/04/23 12:47:10.6     -51   -325    213    330    392 188.9  35.9  34146  289.33 0854.73
2009/04/23 12:47:10.7    -184   -353    157    399    428 207.5  22.7  34154  289.46 0854.73
2009/04/23 12:47:10.8    -138   -329    139    357    383 202.8  22.5  34152  289.42 0854.73
2009/04/23 12:47:10.9    -101   -305    131    322    347 198.5  23.2  34154  289.47 0854.73
2009/04/23 12:47:11.0     -71   -240    151    251    292 196.5  33.7  34154  289.47 0854.73
2009/04/23 12:47:11.1     -61   -212    104    221    244 196.0  27.1  34154  289.47 0854.74
2009/04/23 12:47:11.2     -68   -312     22    320    321 192.3   4.0  34150  289.39 0854.74
2009/04/23 12:47:11.3    -100   -251     18    271    272 201.8   3.8  34152  289.44 0854.74
2009/04/23 12:47:11.4     -95   -301    108    316    335 197.5  18.9  34150  289.41 0854.74
2009/04/23 12:47:11.5    -246   -270    105    366    381 222.3  16.0  34146  289.33 0854.74
2009/04/23 12:47:11.6    -166   -184    106    248    269 222.1  24.6  34150  289.39 0854.74
2009/04/23 12:47:11.7     -84   -201    146    218    262 202.7  36.7  34146  289.32 0854.74
2009/04/23 12:47:11.8     -96   -202    113    224    250 205.4  28.5  34144  289.31 0854.74
2009/04/23 12:47:11.9     -41   -152    162    158    226 195.2  50.7  34144  289.31 0854.74
2009/04/23 12:47:12.0    -178   -117     80    214    228 236.7  21.3  34146  289.33 0854.74
2009/04/23 12:47:12.1     -89   -162     69    185    197 208.9  21.3  34148  289.38 0854.74
2009/04/23 12:47:12.2      15    -43    102     46    111 160.0  74.0  34152  289.43 0854.74
2009/04/23 12:47:12.3      35     -7     49     36     60 101.5  60.5  34152  289.43 0854.74
2009/04/23 12:47:12.4     -23     77     79     81    113 343.1  50.0  34154  289.48 0854.74
2009/04/23 12:47:12.5       0     53     56     54     77   0.9  49.1  34154  289.46 0854.74
2009/04/23 12:47:12.6     -10     87     98     88    131 352.9  53.3  34156  289.52 0854.74
2009/04/23 12:47:12.7      11     80     89     81    120   8.0  52.7  34154  289.48 0854.74
2009/04/23 12:47:12.8      64    189    121    200    233  18.7  34.2  34156  289.50 0854.74
2009/04/23 12:47:12.9     169    136     93    218    237  51.1  24.3  34172  289.77 0854.74
2009/04/23 12:47:13.0     170     68    134    184    227  68.2  39.7  34172  289.77 0854.74
2009/04/23 12:47:13.1     249    164    116    299    320  56.5  22.3  34170  289.73 0854.74
2009/04/23 12:47:13.2     263    162     63    309    316  58.4  11.6  34162  289.61 0854.74
2009/04/23 12:47:13.3     248    164     73    298    307  56.5  13.9  34170  289.75 0854.74
2009/04/23 12:47:13.4     228    134     65    265    274  59.4  13.9  34180  289.92 0854.74
2009/04/23 12:47:13.5      78    188    116    204    234  22.5  32.1  34176  289.84 0854.74
2009/04/23 12:47:13.6     226    137    139    265    299  58.9  30.1  34172  289.76 0854.74
2009/04/23 12:47:13.7     126    183    166    223    278  34.5  40.4  34184  289.98 0854.74
2009/04/23 12:47:13.8     162    119    223    202    300  53.6  53.2  34172  289.78 0854.74
2009/04/23 12:47:13.9     125     54    149    137    202  66.5  52.5  34162  289.62 0854.74
2009/04/23 12:47:14.0     119    105    121    159    199  48.6  41.4  34160  289.57 0854.74
2009/04/23 12:47:14.1      92    -48     94    104    140 117.5  47.5  34164  289.65 0854.73
2009/04/23 12:47:14.2     132    -44    148    140    203 108.6  51.6  34168  289.70 0854.73
2009/04/23 12:47:14.3      89    -56    132    106    169 122.0  56.9  34174  289.80 0854.73
2009/04/23 12:47:14.4     -93    -99    115    136    178 223.2  44.5  34172  289.77 0854.73
2009/04/23 12:47:14.5    -110   -183    129    214    249 211.2  34.0  34160  289.58 0854.73
2009/04/23 12:47:14.6      76     -5    149     77    167  94.4  70.6  34162  289.60 0854.73
2009/04/23 12:47:14.7     -19    -51    139     55    149 200.9  77.1  34164  289.63 0854.73
2009/04/23 12:47:14.8      64     -4    145     65    158  94.4  74.2  34162  289.62 0854.73
2009/04/23 12:47:14.9       0    -29    175     30    177 180.9  90.0  34164  289.65 0854.73
2009/04/23 12:47:15.0     -15    -75     91     77    119 191.6  55.4  34156  289.50 0854.73
2009/04/23 12:47:15.1     -12     16    147     21    148 322.2  90.0  34158  289.55 0854.73
2009/04/23 12:47:15.2       0    -32    168     33    171 180.9  89.4  34160  289.57 0854.73
2009/04/23 12:47:15.3     -22   -108    162    111    196 191.6  62.4  34158  289.55 0854.73
2009/04/23 12:47:15.4       6    -95    140     96    169 176.4  62.4  34158  289.53 0854.73
2009/04/23 12:47:15.5    -140    -95    106    170    200 235.8  35.0  34160  289.57 0854.73
2009/04/23 12:47:15.6     -66   -119    105    137    172 209.0  41.4  34158  289.53 0854.73
2009/04/23 12:47:15.7     -85   -195    145    213    257 203.6  37.6  34160  289.56 0854.73
2009/04/23 12:47:15.8     -72   -141    159    159    224 207.1  50.1  34158  289.53 0854.73
2009/04/23 12:47:15.9     -32   -170    254    174    307 190.7  62.6  34156  289.51 0854.73
2009/04/23 12:47:16.0     -80   -239    242    253    350 198.5  48.7  34152  289.42 0854.73
2009/04/23 12:47:16.1    -113   -159    242    196    311 215.4  56.6  34158  289.53 0854.72
2009/04/23 12:47:16.2     -86   -151    269    174    320 209.6  64.3  34156  289.51 0854.72
2009/04/23 12:47:16.3     -28    -40    187     50    193 215.2  84.9  34158  289.55 0854.72
2009/04/23 12:47:16.4      21   -107    174    110    205 168.5  64.7  34156  289.50 0854.72
2009/04/23 12:47:16.5     -16   -183    277    184    332 185.1  63.4  34150  289.39 0854.72
2009/04/23 12:47:16.6     -40   -187    277    192    337 192.3  62.0  34150  289.41 0854.72
2009/04/23 12:47:16.7     -37   -164    229    169    284 192.9  60.0  34150  289.41 0854.72
2009/04/23 12:47:16.8     -39   -235    200    239    311 189.6  43.8  34152  289.42 0854.72
2009/04/23 12:47:16.9     -75   -239    173    251    304 197.6  37.8  34150  289.41 0854.72
2009/04/23 12:47:17.0    -103   -217    199    241    312 205.5  43.7  34146  289.32 0854.72
2009/04/23 12:47:17.1      -1   -109    247    110    270 180.9  74.5  34156  289.52 0854.72
2009/04/23 12:47:17.2     -97    -85    137    130    188 228.7  51.6  34152  289.43 0854.72
2009/04/23 12:47:17.3      -1    -88    191     89    210 180.9  73.1  34148  289.38 0854.72
2009/04/23 12:47:17.4     -18   -213    205    214    296 184.9  48.7  34150  289.39 0854.72
2009/04/23 12:47:17.5    -103   -217    236    241    337 205.4  49.4  34154  289.47 0854.72
2009/04/23 12:47:17.6    -125     14    120    126    174 276.6  49.0  34156  289.50 0854.72
2009/04/23 12:47:17.7    -135     42     60    142    154 287.3  24.1  34158  289.53 0854.72
2009/04/23 12:47:17.8    -140   -172    189    222    291 219.2  44.8  34150  289.39 0854.72
2009/04/23 12:47:17.9     -34    -72    131     80    153 205.5  65.1  34150  289.41 0854.72
2009/04/23 12:47:18.0      76     25    135     81    157  71.8  66.2  34154  289.48 0854.72
2009/04/23 12:47:18.1      14    -25    171     29    173 151.0  90.0  34162  289.62 0854.72
2009/04/23 12:47:18.2     -12   -110    184    111    214 186.7  66.2  34156  289.52 0854.72
2009/04/23 12:47:18.3     -26   -146    200    149    249 190.2  59.6  34148  289.38 0854.72
2009/04/23 12:47:18.4       2   -108    150    109    185 178.6  60.5  34154  289.46 0854.72
2009/04/23 12:47:18.6     -12    -60    149     62    161 191.5  76.3  34150  289.41 0854.72
2009/04/23 12:47:18.6     -32    -39     83     51     97 219.7  64.7  34154  289.48 0854.72
2009/04/23 12:47:18.7     -10    -16     47     19     50 212.5  77.1  34154  289.48 0854.72
2009/04/23 12:47:18.8       7    -22     22     24     32 161.7  50.0  34152  289.43 0854.72
2009/04/23 12:47:18.9      37    -23    -14     44     47 121.5 -17.6  34152  289.43 0854.72
2009/04/23 12:47:19.0      10    -28    -15     30     33 160.0 -31.6  34152  289.43 0854.72
2009/04/23 12:47:19.1      16    -12      1     21     22 127.8   4.9  34164  289.65 0854.72
2009/04/23 12:47:19.2     -25    -34      7     43     44 216.1  10.1  34164  289.65 0854.72
2009/04/23 12:47:19.3     -10     10    -17     15     22 316.8 -56.6  34178  289.87 0854.72
2009/04/23 12:47:19.4     103     66     42    123    131  57.1  18.9  34178  289.89 0854.72
2009/04/23 12:47:19.5     124    134    -50    183    190  42.8 -15.5  34184  289.97 0854.72
2009/04/23 12:47:19.6      93     96    -74    134    153  44.1 -35.8  34186  290.02 0854.72
2009/04/23 12:47:19.8     218     79      9    233    234  70.0   2.3  34208  290.39 0854.72
2009/04/23 12:47:19.8     242    106    -33    265    268  66.3  -7.2  34232  290.78 0854.72
2009/04/23 12:47:19.9     236    124    -14    267    268  62.1  -3.1  34204  290.32 0854.72
2009/04/23 12:47:20.0     187     35     23    191    193  79.2   6.9  34184  289.99 0854.72
2009/04/23 12:47:20.1     162    -10     45    163    170  93.7  15.6  34186  290.01 0854.71
2009/04/23 12:47:20.2     118     57    -21    132    134  64.2  -9.4  34174  289.80 0854.71
2009/04/23 12:47:20.3      99     83     65    130    145  50.0  28.7  34180  289.91 0854.71
2009/04/23 12:47:20.4       7     97     34     98    104   4.5  19.2  34186  290.02 0854.71
2009/04/23 12:47:20.5     -18     82    -27     85     90 347.1 -17.6  34180  289.91 0854.71
2009/04/23 12:47:20.6     -13     28    -28     32     42 334.5 -51.3  34182  289.96 0854.71
2009/04/23 12:47:20.7      -4     45    -31     46     55 354.7 -40.0  34184  289.97 0854.71
2009/04/23 12:47:20.8     -40     13     -1     43     44 288.6  -2.2  34174  289.82 0854.71
2009/04/23 12:47:20.9     -49    -93     95    106    142 207.6  46.9  34156  289.50 0854.71
2009/04/23 12:47:21.0     -93   -140     56    169    179 213.6  18.4  34152  289.45 0854.71
2009/04/23 12:47:21.1      16   -117    114    119    164 172.0  49.2  34154  289.46 0854.71
2009/04/23 12:47:21.2      -8   -165    151    166    224 182.9  47.5  34152  289.45 0854.71
2009/04/23 12:47:21.3     -75   -195    182    210    277 201.2  45.6  34152  289.42 0854.71
2009/04/23 12:47:21.4    -122   -214     61    247    255 209.6  13.9  34154  289.46 0854.71
2009/04/23 12:47:21.5     -82   -145     73    167    182 209.6  25.1  34148  289.36 0854.71
2009/04/23 12:47:21.6     -88   -106     91    138    165 219.6  36.3  34154  289.48 0854.71
2009/04/23 12:47:21.7    -122    -94     53    155    164 232.3  18.9  34154  289.48 0854.71
2009/04/23 12:47:21.8     -70    -56     76     90    117 231.4  44.8  34154  289.48 0854.71
2009/04/23 12:47:21.9    -118    -93     -5    151    152 231.8  -2.2  34154  289.48 0854.71
2009/04/23 12:47:22.0    -100   -162     19    191    193 211.9   5.9  34154  289.46 0854.71
2009/04/23 12:47:22.1     -50   -133    -42    143    149 200.5 -21.2  34152  289.43 0854.72
2009/04/23 12:47:22.2    -119   -126      8    174    175 223.4   2.9  34154  289.46 0854.72
2009/04/23 12:47:22.3     -87   -128     -8    156    157 214.3  -3.1  34152  289.45 0854.72
2009/04/23 12:47:22.4     -67   -106    -32    126    131 212.5 -14.5  34154  289.46 0854.72
2009/04/23 12:47:22.5     -61   -128    -22    142    144 205.5  -8.8  34152  289.43 0854.72
2009/04/23 12:47:22.6     -41   -123    -16    130    132 198.7  -7.3  34152  289.43 0854.72
2009/04/23 12:47:22.7     -29   -136     -7    140    141 192.0  -3.1  34150  289.41 0854.72
2009/04/23 12:47:22.8      -9   -139     81    140    161 184.0  32.7  34154  289.48 0854.72
2009/04/23 12:47:22.9     -11   -113    144    114    183 185.8  57.7  34154  289.48 0854.72
2009/04/23 12:47:23.0      11   -206     69    207    219 176.9  18.6  34154  289.46 0854.72
2009/04/23 12:47:23.1     -15   -207     51    208    215 184.4  13.9  34154  289.46 0854.72
2009/04/23 12:47:23.2     -16   -212     47    213    219 184.5  12.6  34152  289.45 0854.72
2009/04/23 12:47:23.3     -38   -189     12    194    195 191.6   3.6  34156  289.52 0854.72
2009/04/23 12:47:23.4       1   -130      4    131    132 179.5   1.8  34156  289.50 0854.72
2009/04/23 12:47:23.5      23    -45     30     51     59 152.8  34.4  34156  289.50 0854.72
2009/04/23 12:47:23.6      97      0     60     98    114  90.0  35.5  34158  289.55 0854.72
2009/04/23 12:47:23.7      85     44     63     96    114  62.5  35.6  34158  289.55 0854.72
2009/04/23 12:47:23.8       6     44     77     45     89   8.0  66.8  34162  289.62 0854.72
2009/04/23 12:47:23.9     -21      3     87     22     89 279.7  85.9  34164  289.65 0854.72
2009/04/23 12:47:24.0     -79    -52    111     95    146 236.7  54.8  34164  289.63 0854.72
2009/04/23 12:47:24.1     -59    -17     87     62    106 253.2  61.1  34164  289.65 0854.73
2009/04/23 12:47:24.2     -39     -6     83     40     92 260.3  72.9  34162  289.60 0854.73
2009/04/23 12:47:24.3    -120   -159    125    200    235 217.0  35.0  34160  289.58 0854.73
2009/04/23 12:47:24.4    -187   -174    140    256    291 227.1  31.3  34156  289.51 0854.73
2009/04/23 12:47:24.5    -143   -140     79    201    215 225.6  23.0  34158  289.55 0854.73
2009/04/23 12:47:24.7    -104   -116     82    157    177 221.9  29.5  34158  289.55 0854.73
2009/04/23 12:47:24.8    -119    -76     60    142    154 237.6  24.1  34158  289.53 0854.73
2009/04/23 12:47:24.9    -159    -56    -83    169    188 250.3 -32.4  34162  289.62 0854.73
2009/04/23 12:47:25.0    -163     20    -58    165    174 277.2 -23.8  34154  289.46 0854.73
2009/04/23 12:47:25.1    -267     31    -89    269    284 276.8 -18.3  34160  289.56 0854.73
2009/04/23 12:47:25.2    -288     58     57    294    300 281.5  11.1  34166  289.66 0854.73
2009/04/23 12:47:25.3    -305    -96    -61    320    326 252.5 -10.9  34164  289.64 0854.73
2009/04/23 12:47:25.4    -494    -46   -130    497    514 264.7 -14.7  34160  289.56 0854.73
2009/04/23 12:47:25.5    -580     32   -137    581    597 273.2 -13.3  34164  289.64 0854.73
2009/04/23 12:47:25.6    -457    114    -44    472    475 284.1  -5.4  34162  289.62 0854.73
2009/04/23 12:47:25.7    -199   -102    114    224    251 242.9  29.1  34168  289.70 0854.73
2009/04/23 12:47:25.8    -358    -14    120    359    379 267.6  18.6  34170  289.74 0854.73
2009/04/23 12:47:25.9    -162   -105     45    194    200 236.9  13.1  34170  289.75 0854.73
2009/04/23 12:47:26.0      11   -124     53    125    135 174.7  24.6  34170  289.75 0854.73
2009/04/23 12:47:26.1     -16   -168    -48    169    175 185.6 -20.4  34160  289.58 0854.73
2009/04/23 12:47:26.2     -49   -158    -58    166    175 197.2 -24.0  34162  289.60 0854.73
2009/04/23 12:47:26.3     -56    -89   -108    106    151 212.5 -54.5  34164  289.63 0854.73
2009/04/23 12:47:26.4     -84    -95    -99    128    161 221.5 -46.1  34162  289.62 0854.73
2009/04/23 12:47:26.5     -80   -133    -91    156    180 211.2 -37.3  34164  289.63 0854.73
2009/04/23 12:47:26.6      31    -82    -64     88    108 159.1 -44.1  34162  289.60 0854.73
2009/04/23 12:47:26.7      31    -69    -51     76     91 155.5 -41.4  34164  289.63 0854.73
2009/04/23 12:47:26.8      -3    -47    -18     48     51 184.5 -25.4  34162  289.62 0854.73
2009/04/23 12:47:26.9      57    -92     42    109    116 148.4  21.5  34162  289.60 0854.73
2009/04/23 12:47:27.0      64   -199     49    210    216 162.2  13.2  34164  289.65 0854.73
2009/04/23 12:47:27.1      68   -151    107    166    197 155.5  35.7  34164  289.65 0854.73
2009/04/23 12:47:27.2     117   -148    -20    189    191 141.7  -6.2  34162  289.60 0854.73
2009/04/23 12:47:27.3      75   -121    -13    143    144 148.4  -5.2  34162  289.62 0854.73
2009/04/23 12:47:27.4      29    -71     32     77     83 157.3  23.6  34166  289.67 0854.73
2009/04/23 12:47:27.5      19   -100     26    102    106 168.9  14.7  34166  289.67 0854.73
2009/04/23 12:47:27.6      -5    -61     28     62     68 185.3  26.2  34166  289.69 0854.73
2009/04/23 12:47:27.7     -29   -109     30    113    118 195.1  15.2  34164  289.65 0854.73
2009/04/23 12:47:27.8     -32   -153     79    157    175 192.0  28.7  34164  289.65 0854.73
2009/04/23 12:47:27.9     -97   -156     -5    184    185 211.9  -1.6  34162  289.62 0854.73
2009/04/23 12:47:28.0    -204    -96     15    226    227 244.6   3.8  34166  289.67 0854.73
2009/04/23 12:47:28.1    -164    -78    -65    182    194 244.5 -19.7  34160  289.58 0854.73
2009/04/23 12:47:28.2    -156    -96     17    184    185 238.5   5.4  34164  289.65 0854.73
2009/04/23 12:47:28.3    -186    -60     -8    196    197 252.1  -2.6  34170  289.74 0854.73
2009/04/23 12:47:28.4    -190    -72    -34    204    207 249.2  -9.6  34168  289.70 0854.73
2009/04/23 12:47:28.5    -175    -54    -90    184    204 252.9 -32.4  34160  289.58 0854.73
2009/04/23 12:47:28.6    -116   -142     47    184    191 219.4  14.5  34164  289.63 0854.73
2009/04/23 12:47:28.7     -91   -146     57    173    183 211.9  18.4  34164  289.63 0854.73
2009/04/23 12:47:28.8    -134   -141     64    195    206 223.4  18.1  34166  289.67 0854.73
2009/04/23 12:47:28.9    -172   -112     -7    206    207 236.9  -2.1  34168  289.70 0854.73
2009/04/23 12:47:29.0    -154   -154    -10    218    219 225.0  -2.8  34166  289.69 0854.73
2009/04/23 12:47:29.1     -63   -125     67    141    156 206.7  27.2  34166  289.69 0854.73
2009/04/23 12:47:29.2     -35    -98     93    105    140 200.0  45.9  34170  289.74 0854.73
2009/04/23 12:47:29.3     -31    -95     84    101    131 198.5  43.8  34170  289.74 0854.73
2009/04/23 12:47:29.4     -32   -104     57    110    123 197.4  29.3  34168  289.70 0854.73
2009/04/23 12:47:29.5     -51   -107     14    119    120 205.9   6.9  34166  289.69 0854.73
2009/04/23 12:47:29.6    -115    -73     19    137    139 237.6   8.0  34166  289.67 0854.73
2009/04/23 12:47:29.7    -291    -92    -17    306    307 252.3  -3.2  34168  289.70 0854.73
2009/04/23 12:47:29.8    -171     38    -48    176    183 282.8 -15.5  34172  289.79 0854.73
2009/04/23 12:47:29.9    -152     -6    -45    153    159 267.5 -21.5  34172  289.79 0854.73
2009/04/23 12:47:30.0     -59    -29     23     66     70 243.8  19.4  34174  289.82 0854.73
2009/04/23 12:47:30.1      -3    -46    -25     47     53 184.5 -34.7  34176  289.85 0854.73
2009/04/23 12:47:30.2      -8    -99    -51    100    112 184.9 -33.1  34172  289.79 0854.74
2009/04/23 12:47:30.3      -6   -147    -48    148    155 182.7 -23.8  34172  289.79 0854.74
2009/04/23 12:47:30.4     -30   -119     -3    123    124 194.3  -1.8  34172  289.77 0854.74
2009/04/23 12:47:30.5      18    -25     39     31     49 143.9  56.4  34172  289.77 0854.74
2009/04/23 12:47:30.6       5     21     34     22     40  15.1  63.6  34172  289.79 0854.74
2009/04/23 12:47:30.7     -33     54     57     64     85 328.4  46.4  34172  289.79 0854.74
2009/04/23 12:47:30.8     -80    -29     39     86     94 249.6  25.7  34172  289.77 0854.74
2009/04/23 12:47:30.9     -63    -35     54     73     90 241.1  40.1  34174  289.80 0854.74
2009/04/23 12:47:31.0     -37    -68     68     78    103 209.0  46.4  34174  289.82 0854.74
2009/04/23 12:47:31.1    -156    -99     64    185    196 237.5  19.2  34174  289.80 0854.74
2009/04/23 12:47:31.2    -163    -80     30    182    185 243.6   9.3  34176  289.84 0854.74
2009/04/23 12:47:31.3    -148   -135     42    201    206 227.6  12.0  34172  289.79 0854.74
2009/04/23 12:47:31.4    -177   -146     15    230    231 230.4   3.8  34172  289.79 0854.74
2009/04/23 12:47:31.5    -147   -101     27    179    182 235.6   8.8  34170  289.74 0854.74
2009/04/23 12:47:31.6     -79    -96     58    125    137 219.6  26.6  34170  289.75 0854.74
2009/04/23 12:47:31.7    -111   -114    104    160    190 224.1  35.7  34168  289.72 0854.74
2009/04/23 12:47:31.8    -117    -74     82    139    161 237.6  33.1  34174  289.82 0854.74
2009/04/23 12:47:31.9     -77   -111    105    136    171 214.7  41.7  34168  289.72 0854.74
2009/04/23 12:47:32.0     -32   -141    111    145    182 192.9  41.2  34168  289.72 0854.74
2009/04/23 12:47:32.1      -1   -106    125    107    164 181.0  55.0  34170  289.74 0854.74
2009/04/23 12:47:32.2       4    -97    123     98    157 177.3  57.5  34172  289.79 0854.75
2009/04/23 12:47:32.3      -4   -160    134    161    209 181.6  43.8  34168  289.70 0854.75
2009/04/23 12:47:32.4      41   -180     75    185    199 167.1  23.4  34166  289.69 0854.75
2009/04/23 12:47:32.5     -23   -216     54    218    225 186.2  13.9  34166  289.69 0854.75
2009/04/23 12:47:32.6     -31   -289     79    291    302 186.2  15.2  34168  289.71 0854.75
2009/04/23 12:47:32.7     -80   -283    104    295    312 195.8  20.2  34170  289.73 0854.75
2009/04/23 12:47:32.8     -16   -334     87    335    347 182.9  14.7  34168  289.72 0854.75
2009/04/23 12:47:32.9      23   -309    103    310    327 175.6  18.5  34166  289.68 0854.75
2009/04/23 12:47:33.0      38   -300    109    303    322 172.7  20.6  34164  289.63 0854.75
2009/04/23 12:47:33.1      49   -307    197    311    368 170.9  35.5  34166  289.69 0854.75
2009/04/23 12:47:33.2      -5   -300    151    301    336 181.0  28.7  34170  289.73 0854.75
2009/04/23 12:47:33.3      13   -378    177    379    418 178.0  27.0  34168  289.70 0854.75
2009/04/23 12:47:33.4     165   -358    122    395    414 155.3  17.2  34168  289.70 0854.75
2009/04/23 12:47:33.5     203   -297     87    361    372 145.6  13.7  34164  289.64 0854.75
2009/04/23 12:47:33.6     189   -358    187    406    446 152.1  26.5  34166  289.66 0854.75
2009/04/23 12:47:33.7     161   -423    191    453    491 159.1  24.2  34166  289.67 0854.75
2009/04/23 12:47:33.8     231   -420    167    480    509 151.2  19.2  34166  289.67 0854.75
2009/04/23 12:47:33.9     285   -297     47    412    415 136.2   6.6  34166  289.68 0854.75
2009/04/23 12:47:34.0     263   -269     19    377    378 135.7   2.9  34164  289.65 0854.75
2009/04/23 12:47:34.1     144   -431     64    455    460 161.5   8.0  34166  289.68 0854.75
2009/04/23 12:47:34.2      94   -383     70    395    402 166.2  10.1  34164  289.64 0854.74
2009/04/23 12:47:34.3     125   -323     33    347    349 158.7   5.5  34168  289.71 0854.74
2009/04/23 12:47:34.4     114   -344     51    363    367 161.6   8.1  34168  289.71 0854.74
2009/04/23 12:47:34.5     107   -293    -20    313    314 160.0  -3.8  34164  289.63 0854.74
2009/04/23 12:47:34.6      72   -260   -101    270    288 164.4 -25.7  34168  289.71 0854.74
2009/04/23 12:47:34.7      98   -365    -98    379    392 164.9 -14.6  34166  289.67 0854.74
2009/04/23 12:47:34.8     113   -291    -79    313    324 158.8 -14.3  34166  289.68 0854.74
2009/04/23 12:47:34.9      80   -258    -38    271    274 162.8  -8.0  34168  289.70 0854.74
2009/04/23 12:47:35.0     106   -216    -10    241    242 153.7  -2.6  34168  289.70 0854.74
2009/04/23 12:47:35.1      99   -141      5    173    174 145.0   1.8  34170  289.75 0854.74
2009/04/23 12:47:35.2     128   -172    -43    215    220 143.3 -11.5  34166  289.67 0854.74
2009/04/23 12:47:35.3     130   -120   -122    177    214 132.7 -42.0  34166  289.69 0854.74
2009/04/23 12:47:35.4     101   -189    -82    215    230 151.9 -26.1  34166  289.69 0854.74
2009/04/23 12:47:35.5     178   -234    -83    295    307 142.8 -15.8  34166  289.66 0854.74
2009/04/23 12:47:35.6     192   -224    -37    296    299 139.5  -7.2  34170  289.73 0854.74
2009/04/23 12:47:35.7     167   -215    -75    273    284 142.1 -15.5  34168  289.71 0854.74
2009/04/23 12:47:35.8     156   -195    -75    250    261 141.3 -21.7  34168  289.71 0854.74
2009/04/23 12:47:35.9     185   -193    -90    268    283 136.3 -18.7  34164  289.64 0854.74
2009/04/23 12:47:36.0     197   -223    -35    298    301 138.6  -6.7  34166  289.68 0854.74
2009/04/23 12:47:36.1     131   -246    -56    279    285 151.9 -11.3  34166  289.66 0854.74
2009/04/23 12:47:36.2      92   -170    -95    194    216 151.5 -32.2  34170  289.74 0854.74
2009/04/23 12:47:36.3      76   -139    -89    159    182 151.1 -36.3  34170  289.75 0854.74
2009/04/23 12:47:36.4      71   -128    -74    147    164 151.1 -33.1  34168  289.70 0854.74
2009/04/23 12:47:36.5      61   -114    -48    130    138 151.9 -25.4  34170  289.75 0854.74
2009/04/23 12:47:36.6      49    -97     -9    109    110 153.3  -5.2  34172  289.77 0854.74
2009/04/23 12:47:36.7      76    -87     70    116    135 139.0  34.4  34170  289.75 0854.74
2009/04/23 12:47:36.8      90    -75     93    118    150 130.0  42.7  34170  289.74 0854.74
2009/04/23 12:47:36.9     109    -87     65    140    154 128.6  27.1  34168  289.70 0854.74
2009/04/23 12:47:37.0     132   -100     31    166    169 127.3  10.6  34168  289.70 0854.74
2009/04/23 12:47:37.1     154   -154    -59    218    226 135.0 -15.2  34170  289.75 0854.73
2009/04/23 12:47:37.2     119   -155    -59    196    205 142.6 -17.0  34170  289.74 0854.73
2009/04/23 12:47:37.3      87   -175    -17    196    197 153.5  -5.2  34166  289.67 0854.73
2009/04/23 12:47:37.4      22   -176    -50    178    185 172.9 -15.8  34166  289.69 0854.73
2009/04/23 12:47:37.5     -32   -174    -34    177    181 190.5 -11.1  34168  289.70 0854.73
2009/04/23 12:47:37.6       1   -161    -10    162    163 179.5  -3.7  34168  289.70 0854.73
2009/04/23 12:47:37.7       8   -101    -14    102    104 175.1  -8.2  34168  289.70 0854.73
2009/04/23 12:47:37.8     -29    -74    -13     80     82 201.9  -9.3  34168  289.72 0854.73
2009/04/23 12:47:37.9     -39    -94    -93    103    138 202.7 -51.9  34170  289.75 0854.73
2009/04/23 12:47:38.0     -44   -133    -78    141    161 198.3 -35.8  34164  289.65 0854.73
2009/04/23 12:47:38.1     -52   -130    -43    141    147 201.8 -21.8  34168  289.72 0854.73
2009/04/23 12:47:38.2     -55    -86    -26    103    107 212.6 -14.5  34168  289.70 0854.73
2009/04/23 12:47:38.3     -33    -52    -40     62     73 212.6 -40.0  34168  289.72 0854.73
2009/04/23 12:47:38.4     -28    -42    -34     51     61 213.4 -40.9  34168  289.72 0854.73
2009/04/23 12:47:38.5       8    -50      2     51     52 170.2   2.9  34168  289.72 0854.73
2009/04/23 12:47:38.6      30    -55     33     63     71 151.0  30.3  34166  289.67 0854.73
2009/04/23 12:47:38.7      37     12     77     39     86  71.8  70.8  34172  289.77 0854.73
2009/04/23 12:47:38.8      57      0     73     58     93  90.0  56.9  34170  289.75 0854.73
2009/04/23 12:47:38.9      82    -69     78    108    133 130.4  39.5  34170  289.75 0854.73
2009/04/23 12:47:39.0     136    -45     63    144    157 108.4  25.1  34162  289.60 0854.73
2009/04/23 12:47:39.1      26   -127    115    130    173 168.4  46.2  34158  289.55 0854.72
2009/04/23 12:47:39.2     -88   -195     99    214    235 204.3  26.4  34160  289.57 0854.72
2009/04/23 12:47:39.3     -82   -228    131    243    276 199.8  30.8  34160  289.58 0854.72
2009/04/23 12:47:39.4     -30   -147    126    151    196 191.6  44.1  34162  289.62 0854.72
2009/04/23 12:47:39.5     -25   -146     76    149    167 189.7  28.7  34160  289.57 0854.72
2009/04/23 12:47:39.6      80   -175    104    193    219 155.5  30.8  34164  289.63 0854.72
2009/04/23 12:47:39.7      74   -198     75    212    224 159.3  20.0  34162  289.62 0854.72
2009/04/23 12:47:39.8      76   -226    118    239    266 161.3  28.0  34166  289.66 0854.72
2009/04/23 12:47:39.9      58   -234     71    242    253 166.0  16.4  34164  289.64 0854.72
2009/04/23 12:47:40.0     115   -250     43    276    280 155.3   9.0  34162  289.59 0854.72
2009/04/23 12:47:40.1     109   -264     50    286    291 157.5  10.0  34160  289.58 0854.72
2009/04/23 12:47:40.2     165   -277     78    323    333 149.3  13.6  34160  289.57 0854.72
2009/04/23 12:47:40.3      75   -301    136    311    339 166.0  25.1  34160  289.57 0854.72
2009/04/23 12:47:40.4      99   -272    177    290    339 160.0  34.4  34164  289.64 0854.72
2009/04/23 12:47:40.5     104   -200    192    226    296 152.6  44.8  34162  289.59 0854.72
2009/04/23 12:47:40.6     215   -211    182    302    352 134.4  33.8  34164  289.65 0854.72
2009/04/23 12:47:40.7     260   -252    -28    363    365 134.1  -4.5  34162  289.59 0854.72
2009/04/23 12:47:40.8     151   -177    123    233    263 139.5  30.2  34160  289.58 0854.72
2009/04/23 12:47:40.9     234   -187    -16    300    301 128.6  -3.2  34160  289.56 0854.72
2009/04/23 12:47:41.0     214   -157    -33    266    269 126.2  -7.2  34164  289.63 0854.72
2009/04/23 12:47:41.1     193    -88     25    213    215 114.4   6.9  34162  289.60 0854.71
2009/04/23 12:47:41.2     175   -117     20    211    213 123.7   5.4  34158  289.55 0854.71
2009/04/23 12:47:41.3     117   -179     49    214    220 146.8  13.1  34162  289.60 0854.71
2009/04/23 12:47:41.4     215   -231     96    316    331 137.0  17.0  34158  289.54 0854.71
2009/04/23 12:47:41.5     187   -306     33    359    361 148.6   5.3  34162  289.62 0854.71
2009/04/23 12:47:41.6     189   -361     57    408    413 152.3   8.0  34162  289.61 0854.71
2009/04/23 12:47:41.7     178   -326     44    372    375 151.3   6.9  34160  289.57 0854.71
2009/04/23 12:47:41.8     113   -277     46    300    304 157.7   8.8  34162  289.59 0854.71
2009/04/23 12:47:41.9      89   -357     75    369    377 165.9  11.5  34162  289.60 0854.71
2009/04/23 12:47:42.0      57   -370     31    375    377 171.1   4.9  34162  289.62 0854.71
2009/04/23 12:47:42.1     120   -362     21    382    383 161.6   3.3  34162  289.62 0854.71
2009/04/23 12:47:42.2     178   -328    -55    374    379 151.5  -8.4  34158  289.55 0854.71
2009/04/23 12:47:42.3     160   -401    -42    433    436 158.2  -5.6  34160  289.58 0854.71
2009/04/23 12:47:42.4     137   -399    -45    423    426 161.0  -6.1  34162  289.60 0854.71
2009/04/23 12:47:42.5     198   -424    -60    469    473 155.0  -7.3  34162  289.62 0854.71
2009/04/23 12:47:42.6     147   -410    -67    436    442 160.2  -8.8  34158  289.55 0854.71
2009/04/23 12:47:42.7      51   -363    -16    367    368 172.0  -2.6  34162  289.59 0854.71
2009/04/23 12:47:42.8     104   -284   -106    303    322 159.9 -19.3  34162  289.59 0854.71
2009/04/23 12:47:42.9     129   -313    -88    339    351 157.5 -14.6  34162  289.59 0854.71
2009/04/23 12:47:43.0     108   -319    -28    337    339 161.3  -4.9  34158  289.55 0854.71
2009/04/23 12:47:43.1      53   -323     -5    328    329 170.6  -0.9  34162  289.61 0854.71
2009/04/23 12:47:43.2      46   -304    -51    308    313 171.3  -9.5  34164  289.64 0854.71
2009/04/23 12:47:43.3     102   -310    -90    327    339 161.7 -20.0  34164  289.65 0854.71
2009/04/23 12:47:43.4      41   -297    -85    300    311 172.0 -20.7  34160  289.56 0854.71
2009/04/23 12:47:43.5     104   -332    -82    348    358 162.6 -13.3  34160  289.57 0854.71
2009/04/23 12:47:43.6      41   -243   -130    247    279 170.2 -34.5  34158  289.54 0854.71
2009/04/23 12:47:43.7     104   -204    -37    230    234 153.0  -9.3  34156  289.52 0854.71
2009/04/23 12:47:43.8      38   -373    -78    375    384 174.1 -11.8  34162  289.59 0854.71
2009/04/23 12:47:43.9      74   -314    -80    323    333 166.6 -13.9  34156  289.52 0854.71
2009/04/23 12:47:44.0      73   -305    -45    314    318 166.4  -8.2  34156  289.49 0854.71
2009/04/23 12:47:44.1     106   -342    -19    359    360 162.8  -3.2  34156  289.52 0854.71
2009/04/23 12:47:44.2      60   -412    -39    417    419 171.7  -5.4  34152  289.44 0854.71
2009/04/23 12:47:44.3      29   -375    -19    377    378 175.5  -3.0  34156  289.50 0854.71
2009/04/23 12:47:44.4      -9   -288   -101    289    307 181.8 -19.4  34158  289.54 0854.71
2009/04/23 12:47:44.5      34   -329     -6    331    332 174.0  -1.1  34156  289.50 0854.71
2009/04/23 12:47:44.6      56   -392    -41    397    400 171.8  -5.9  34154  289.47 0854.71
2009/04/23 12:47:44.7      67   -339    -12    346    347 168.8  -2.1  34150  289.40 0854.71
2009/04/23 12:47:44.8      78   -399    -39    407    410 168.9  -5.6  34150  289.41 0854.71
2009/04/23 12:47:44.9     101   -387    -64    400    406 165.3  -9.1  34150  289.41 0854.71
2009/04/23 12:47:45.0      71   -396    -66    403    409 169.8  -9.3  34152  289.43 0854.71
2009/04/23 12:47:45.1      43   -362    -90    365    376 173.1 -13.9  34152  289.45 0854.70
2009/04/23 12:47:45.2      85   -328    -68    339    346 165.4 -11.5  34154  289.47 0854.70
2009/04/23 12:47:45.3      68   -316    -98    324    339 167.7 -16.9  34154  289.47 0854.70
2009/04/23 12:47:45.4     100   -289    -67    307    315 160.8 -12.4  34154  289.46 0854.70
2009/04/23 12:47:45.5     119   -271    -49    297    302 156.2  -9.4  34152  289.42 0854.70
2009/04/23 12:47:45.6     134   -312    -61    340    346 156.7 -10.3  34156  289.52 0854.70
2009/04/23 12:47:45.7     109   -299    -29    319    321 160.0  -5.4  34156  289.51 0854.70
2009/04/23 12:47:45.8     100   -297      0    314    315 161.3   0.1  34156  289.51 0854.70
2009/04/23 12:47:45.9      35   -257    -77    260    272 172.2 -16.5  34156  289.49 0854.70
2009/04/23 12:47:46.0      71   -233    -31    244    246 163.1  -7.3  34158  289.54 0854.70
2009/04/23 12:47:46.1      27   -252     -3    254    255 173.7  -0.7  34156  289.51 0854.70
2009/04/23 12:47:46.2      46   -235      0    240    241 168.9   0.2  34160  289.58 0854.70
2009/04/23 12:47:46.3      37   -214    -20    218    220 170.2  -5.4  34158  289.55 0854.70
2009/04/23 12:47:46.4      26   -270    -24    272    274 174.4  -5.2  34158  289.53 0854.70
2009/04/23 12:47:46.5      29   -300    -16    302    303 174.4  -3.1  34158  289.53 0854.70
2009/04/23 12:47:46.6      -6   -314     17    315    316 181.1   3.1  34162  289.59 0854.70
2009/04/23 12:47:46.7       8   -275     54    276    282 178.2  11.1  34160  289.58 0854.70
2009/04/23 12:47:46.8     -18   -231     99    232    252 184.5  24.3  34158  289.53 0854.70
2009/04/23 12:47:46.9     -46   -158     81    165    183 196.5  28.0  34158  289.55 0854.70
2009/04/23 12:47:47.0     -21   -168     37    170    175 187.1  12.4  34158  289.53 0854.70
2009/04/23 12:47:47.1     -36   -178     11    182    183 191.6   3.6  34156  289.50 0854.69
2009/04/23 12:47:47.2     -15   -187     27    188    190 184.9   8.2  34156  289.50 0854.69
2009/04/23 12:47:47.3     -29   -181     48    184    191 189.1  14.7  34156  289.52 0854.69
2009/04/23 12:47:47.4      17   -218     36    219    222 175.5   9.3  34154  289.48 0854.69
2009/04/23 12:47:47.5     -11   -199     68    200    212 183.4  18.9  34154  289.46 0854.69
2009/04/23 12:47:47.6      13   -146     69    147    162 174.7  27.0  34154  289.48 0854.69
2009/04/23 12:47:47.7      10   -169     46    170    177 176.6  15.3  34156  289.50 0854.69
2009/04/23 12:47:47.8     -98   -181     72    206    218 208.5  20.0  34156  289.50 0854.69
2009/04/23 12:47:47.9     -86   -209     82    227    241 202.5  20.4  34160  289.56 0854.69
2009/04/23 12:47:48.0     -35   -186    103    190    216 190.9  30.8  34160  289.57 0854.69
2009/04/23 12:47:48.1    -102   -182    113    209    237 209.4  30.8  34158  289.55 0854.69
2009/04/23 12:47:48.2    -135   -287    131    318    343 205.2  23.6  34164  289.64 0854.69
2009/04/23 12:47:48.3     -88   -290    143    304    335 197.0  27.1  34162  289.59 0854.69
2009/04/23 12:47:48.4      75   -247    122    259    286 163.1  27.1  34162  289.59 0854.69
2009/04/23 12:47:48.5     129   -302     80    329    339 156.8  13.8  34158  289.54 0854.69
2009/04/23 12:47:48.6     103   -237     17    259    260 156.4   3.8  34156  289.51 0854.69
2009/04/23 12:47:48.7      77   -251     41    263    267 162.8   9.0  34156  289.51 0854.69
2009/04/23 12:47:48.8     142   -192     20    239    240 143.5   4.9  34154  289.46 0854.69
2009/04/23 12:47:48.9     154   -207     32    259    262 143.3   7.1  34154  289.47 0854.69
2009/04/23 12:47:49.0     205   -288     75    354    362 144.6  12.0  34160  289.57 0854.69
2009/04/23 12:47:49.1     210   -290     52    359    363 144.1   8.3  34156  289.52 0854.68
2009/04/23 12:47:49.2      76   -269     -1    280    281 164.2  -0.3  34160  289.56 0854.68
2009/04/23 12:47:49.3      32   -209    -23    212    214 171.3  -6.2  34158  289.53 0854.68
2009/04/23 12:47:49.4      -2   -250     98    251    269 180.5  22.3  34162  289.59 0854.68
2009/04/23 12:47:49.5     103   -283    112    302    322 160.0  21.3  34160  289.56 0854.68
2009/04/23 12:47:49.6     167   -167    105    237    259 135.0  25.3  34154  289.46 0854.68
2009/04/23 12:47:49.7     229   -223    126    320    343 134.2  22.8  34162  289.60 0854.68
2009/04/23 12:47:49.8     256   -259    162    365    399 135.4  25.3  34164  289.64 0854.68
2009/04/23 12:47:49.9     224   -276    116    356    375 140.9  18.0  34160  289.57 0854.68
2009/04/23 12:47:50.0     184   -315    199    365    415 149.7  31.3  34164  289.64 0854.68
2009/04/23 12:47:50.1     220   -234    247    322    405 136.8  41.4  34162  289.60 0854.68
2009/04/23 12:47:50.2      83    -68    152    108    186 129.1  60.8  34164  289.63 0854.68
2009/04/23 12:47:50.3      77   -220    201    234    308 160.6  44.9  34164  289.63 0854.68
2009/04/23 12:47:50.4      98   -304    171    320    362 162.1  30.3  34158  289.54 0854.68
2009/04/23 12:47:50.5      49   -360    165    364    399 172.2  26.0  34160  289.57 0854.68
2009/04/23 12:47:50.6      31   -357    119    359    379 174.9  18.4  34156  289.52 0854.68
2009/04/23 12:47:50.7     -48   -356    123    360    381 187.7  18.9  34160  289.57 0854.68
2009/04/23 12:47:50.8    -125   -364    132    385    408 199.0  18.9  34162  289.62 0854.68
2009/04/23 12:47:50.9     -41   -400     71    403    410 186.0  10.0  34164  289.65 0854.68
2009/04/23 12:47:51.0     -50   -394     24    398    399 187.3   3.5  34164  289.64 0854.68
2009/04/23 12:47:51.1    -157   -427    -10    456    457 200.2  -1.3  34162  289.61 0854.67
2009/04/23 12:47:51.2    -149   -449     -1    474    475 198.4  -0.2  34166  289.66 0854.67
2009/04/23 12:47:51.3    -134   -390     52    413    417 199.0   7.2  34162  289.61 0854.67
2009/04/23 12:47:51.4     -91   -399     25    410    411 192.9   3.6  34164  289.63 0854.67
2009/04/23 12:47:51.5    -114   -357    -18    375    376 197.8  -2.8  34164  289.64 0854.67
2009/04/23 12:47:51.6     -34   -294   -106    297    316 186.7 -19.8  34162  289.59 0854.67
2009/04/23 12:47:51.7      -5   -316   -106    317    334 181.0 -23.6  34160  289.56 0854.67
2009/04/23 12:47:51.8     -70   -320   -111    328    347 192.4 -18.8  34162  289.59 0854.67
2009/04/23 12:47:51.9    -108   -326   -110    344    362 198.5 -17.7  34160  289.57 0854.67
2009/04/23 12:47:52.0     -61   -267    -89    274    288 192.9 -23.0  34162  289.61 0854.67
2009/04/23 12:47:52.1     -28   -244    -79    246    258 186.7 -22.9  34162  289.61 0854.67
2009/04/23 12:47:52.2     -29   -271    -85    273    286 186.3 -17.3  34162  289.61 0854.67
2009/04/23 12:47:52.4    -156   -214    -58    265    272 216.1 -12.4  34164  289.63 0854.67
2009/04/23 12:47:52.5     -96   -205    -70    227    237 205.2 -21.8  34166  289.66 0854.67
2009/04/23 12:47:52.6     -85   -251   -101    266    284 198.7 -26.1  34170  289.73 0854.67
2009/04/23 12:47:52.7     -34   -227   -103    230    252 188.7 -30.1  34166  289.66 0854.67
2009/04/23 12:47:52.8     -31   -222    -74    225    236 188.0 -23.3  34162  289.61 0854.67
2009/04/23 12:47:52.9      52   -175    -70    183    195 163.3 -26.4  34164  289.63 0854.67
2009/04/23 12:47:53.0      68   -203    -27    215    217 161.5  -7.2  34158  289.53 0854.67
2009/04/23 12:47:53.1      38   -187     24    191    193 168.5   7.2  34158  289.53 0854.67
2009/04/23 12:47:53.2      47   -176      5    183    184 165.1   1.8  34156  289.52 0854.67
2009/04/23 12:47:53.3      16   -166     54    167    176 174.4  18.1  34156  289.52 0854.67
2009/04/23 12:47:53.4      41   -200     33    205    208 168.2   9.3  34156  289.50 0854.67
2009/04/23 12:47:53.5      51   -179     27    187    189 164.0   8.2  34154  289.46 0854.67
2009/04/23 12:47:53.6      67    -92    -14    115    116 143.9  -7.2  34158  289.53 0854.67
2009/04/23 12:47:53.7      40   -132   -115    139    180 163.1 -48.2  34158  289.55 0854.67
2009/04/23 12:47:53.8       4    -63   -110     64    127 175.6 -71.6  34158  289.55 0854.67
2009/04/23 12:47:53.9       6    -42    -94     43    103 171.1 -78.4  34160  289.57 0854.67
2009/04/23 12:47:54.0     -13    -47    -47     49     67 196.0 -54.4  34158  289.53 0854.67
2009/04/23 12:47:54.1     -17     -2    -47     18     50 262.1 -83.6  34160  289.58 0854.67
2009/04/23 12:47:54.2     -48      0    -25     49     55 270.8 -33.7  34158  289.55 0854.67
2009/04/23 12:47:54.3     -32     10    -27     34     43 288.4 -47.1  34158  289.53 0854.67
2009/04/23 12:47:54.4     -19     30    -39     36     53 327.5 -56.6  34156  289.52 0854.67
2009/04/23 12:47:54.5      -5     84    -52     85     99 356.4 -38.8  34158  289.53 0854.67
2009/04/23 12:47:54.6      37     72    -79     82    113  27.2 -53.8  34158  289.55 0854.67
2009/04/23 12:47:54.7       0     97    -46     98    108   0.5 -31.5  34158  289.55 0854.67
2009/04/23 12:47:54.8      22     65    -24     69     73  19.2 -23.3  34156  289.52 0854.67
2009/04/23 12:47:54.9      35     39      6     53     54  42.3   6.9  34154  289.46 0854.67
2009/04/23 12:47:55.0      30     34     22     46     51  41.4  27.2  34156  289.50 0854.67
2009/04/23 12:47:55.1       3     42     17     43     46   4.5  22.0  34156  289.52 0854.67
2009/04/23 12:47:55.2     -25      8     35     27     44 288.2  57.5  34158  289.55 0854.67
2009/04/23 12:47:55.3     -71    -38     22     81     84 242.0  15.3  34164  289.65 0854.67
2009/04/23 12:47:55.4     -84    -49     32     98    104 239.8  17.9  34162  289.60 0854.67
2009/04/23 12:47:55.5     -71    -69     29    100    105 226.0  16.3  34158  289.53 0854.67
2009/04/23 12:47:55.6     -77    -72     40    106    113 226.8  21.5  34160  289.58 0854.67
2009/04/23 12:47:55.7     -56    -71     31     91     97 218.3  19.2  34158  289.55 0854.67
2009/04/23 12:47:55.8     -75    -54     31     93     99 234.0  18.4  34158  289.53 0854.67
2009/04/23 12:47:55.9     -91    -41     48    100    110 245.6  27.3  34158  289.53 0854.67
2009/04/23 12:47:56.0    -101     33     70    107    127 288.2  36.0  34156  289.52 0854.67
2009/04/23 12:47:56.1    -129     29     75    133    152 282.8  31.9  34156  289.50 0854.67
2009/04/23 12:47:56.2    -125     22     78    127    149 280.1  35.0  34160  289.58 0854.65
2009/04/23 12:47:56.3    -154    -53     32    164    168 250.9  11.1  34160  289.57 0854.65
2009/04/23 12:47:56.4    -188    -93     29    210    213 243.6   8.0  34162  289.60 0854.65
2009/04/23 12:47:56.5    -211    -93    -12    231    232 246.0  -3.2  34160  289.57 0854.65
2009/04/23 12:47:56.6    -199   -145      6    247    248 234.0   1.6  34158  289.53 0854.65
2009/04/23 12:47:56.7    -141   -129     72    192    205 227.6  21.0  34160  289.57 0854.65
2009/04/23 12:47:56.8    -126   -101     16    162    163 231.4   5.7  34156  289.52 0854.65
2009/04/23 12:47:56.9     -82   -123     40    149    155 213.8  15.0  34154  289.48 0854.65
2009/04/23 12:47:57.0    -147    -81    -48    168    175 241.1 -16.0  34158  289.55 0854.65
2009/04/23 12:47:57.1    -125    -96   -107    158    190 232.3 -41.7  34160  289.58 0854.65
2009/04/23 12:47:57.2    -232    -37   -163    236    286 260.8 -42.2  34160  289.56 0854.65
2009/04/23 12:47:57.3    -239    183    -90    302    315 307.5 -21.5  34154  289.47 0854.65
2009/04/23 12:47:57.4    -467    134   -252    487    548 286.1 -33.8  34160  289.58 0854.65
2009/04/23 12:47:57.5    -405     82   -329    414    528 281.5 -46.8  34162  289.62 0854.65
2009/04/23 12:47:57.6    -424    -14   -379    425    569 268.0 -50.8  34146  289.33 0854.65
2009/04/23 12:47:57.7    -234    -25    -47    236    241 263.8 -11.3  34162  289.61 0854.65
2009/04/23 12:47:57.8    -369    -32     -1    371    372 264.9  -0.2  34156  289.50 0854.65
2009/04/23 12:47:57.9    -219    -41    117    223    251 259.2  30.1  34156  289.51 0854.65
2009/04/23 12:47:58.0    -238     18    160    239    287 274.4  37.0  34166  289.68 0854.65
2009/04/23 12:47:58.1    -170     50     80    178    195 286.4  26.2  34176  289.84 0854.65
2009/04/23 12:47:58.2    -177    -13     20    178    180 265.6   6.7  34172  289.77 0854.65
2009/04/23 12:47:58.3    -180   -101    -32    207    210 240.7  -9.0  34188  290.04 0854.65
2009/04/23 12:47:58.4     -20   -211      4    213    214 185.6   1.2  34176  289.85 0854.65
2009/04/23 12:47:58.5      -3   -225     72    226    238 181.0  17.7  34170  289.73 0854.65
2009/04/23 12:47:58.6     -71   -266     74    276    286 195.1  15.0  34188  290.03 0854.65
2009/04/23 12:47:58.7     -53   -258     -5    264    265 191.8  -1.3  34192  290.10 0854.65
2009/04/23 12:47:58.8     -30   -269    -29    271    273 186.5  -6.2  34184  289.98 0854.65
2009/04/23 12:47:58.9       8   -290     -5    291    292 178.4  -1.1  34180  289.92 0854.65
2009/04/23 12:47:59.0     -33   -297     -6    299    300 186.5  -1.2  34180  289.90 0854.65
2009/04/23 12:47:59.1      -6   -334     24    335    336 181.2   4.2  34174  289.81 0854.65
2009/04/23 12:47:59.2      -7   -372     72    373    380 181.1  11.0  34178  289.86 0854.65
2009/04/23 12:47:59.3     -46   -368     31    371    373 187.2   4.9  34184  289.99 0854.65
2009/04/23 12:47:59.4     -68   -334     -1    342    343 191.6  -0.3  34182  289.93 0854.65
2009/04/23 12:47:59.5    -123   -299     71    324    332 202.5  12.4  34178  289.86 0854.65
2009/04/23 12:47:59.6    -132   -278     64    308    315 205.5  11.8  34166  289.68 0854.65
2009/04/23 12:47:59.7     -89   -270     88    285    299 198.3  17.3  34164  289.64 0854.65
2009/04/23 12:47:59.8    -108   -363     66    379    385 196.6  10.0  34178  289.86 0854.65
2009/04/23 12:47:59.9    -166   -329     18    369    370 206.8   2.8  34188  290.03 0854.65
2009/04/23 12:48:00.0     -76   -285     31    296    298 195.1   6.1  34176  289.85 0854.65
2009/04/23 12:48:00.1    -148   -279    125    316    339 208.0  22.7  34164  289.65 0854.65
2009/04/23 12:48:00.2    -102   -267    123    286    311 200.9  24.9  34168  289.71 0854.65
2009/04/23 12:48:00.3    -123   -192     79    229    243 212.6  19.2  34170  289.73 0854.65
2009/04/23 12:48:00.4     -53   -244    139    250    286 192.4  31.4  34166  289.68 0854.65
2009/04/23 12:48:00.5     -36   -223    147    227    270 189.3  35.6  34166  289.66 0854.65
2009/04/23 12:48:00.6       0   -214    154    215    264 180.2  39.5  34176  289.85 0854.65
2009/04/23 12:48:00.7     -10   -223    201    224    300 182.7  46.6  34172  289.76 0854.65
2009/04/23 12:48:00.8     -20   -263    172    264    315 184.5  36.3  34172  289.78 0854.65
2009/04/23 12:48:00.9       4   -257    168    258    307 179.1  36.0  34172  289.76 0854.65
2009/04/23 12:48:01.0      20   -220    223    222    314 174.7  50.1  34162  289.59 0854.65
2009/04/23 12:48:01.1      72   -262     13    272    273 164.6   2.9  34172  289.78 0854.65
2009/04/23 12:48:01.2      96   -367   -185    380    422 165.3 -32.2  34170  289.73 0854.65
2009/04/23 12:48:01.3     160   -325   -102    363    378 153.8 -15.7  34160  289.57 0854.65
2009/04/23 12:48:01.4      94   -284    -27    300    302 161.7  -5.2  34170  289.75 0854.65
2009/04/23 12:48:01.5      50   -307    -34    312    314 170.7  -6.3  34172  289.78 0854.65
2009/04/23 12:48:01.6      93   -365    -36    377    379 165.7  -5.5  34166  289.67 0854.65
2009/04/23 12:48:01.7      69   -385    -67    392    398 169.8  -9.8  34166  289.67 0854.65
2009/04/23 12:48:01.8     151   -452     -2    477    478 161.5  -0.3  34178  289.86 0854.65
2009/04/23 12:48:01.9     139   -440     20    462    463 162.4   2.5  34178  289.87 0854.65
2009/04/23 12:48:02.0      55   -458     17    462    463 173.1   2.1  34182  289.95 0854.65
2009/04/23 12:48:02.1       7   -455    -40    456    458 179.0  -5.1  34170  289.73 0854.65
2009/04/23 12:48:02.2      38   -408     -1    410    411 174.6  -0.3  34178  289.87 0854.66
2009/04/23 12:48:02.3      13   -443     36    444    446 178.2   4.7  34178  289.88 0854.66
2009/04/23 12:48:02.4       0   -437     76    438    445 180.1   9.9  34174  289.82 0854.66
2009/04/23 12:48:02.5      49   -429     37    432    434 173.4   5.0  34172  289.78 0854.66
2009/04/23 12:48:02.6      57   -403    128    408    428 171.9  17.4  34182  289.94 0854.66
2009/04/23 12:48:02.7      60   -398    101    403    416 171.4  14.2  34178  289.88 0854.66
2009/04/23 12:48:02.8     130   -375     98    398    411 160.8  13.9  34186  290.00 0854.66
2009/04/23 12:48:02.9     184   -428     90    466    475 156.7  11.0  34162  289.62 0854.66
2009/04/23 12:48:03.0     152   -378    143    408    432 158.1  20.1  34164  289.65 0854.66
2009/04/23 12:48:03.1     107   -432    137    446    467 166.0  17.1  34164  289.65 0854.66
2009/04/23 12:48:03.2       6   -494    149    495    518 179.3  16.8  34170  289.73 0854.66
2009/04/23 12:48:03.3      -5   -413    121    414    432 180.8  16.4  34168  289.70 0854.66
2009/04/23 12:48:03.4      68   -387    116    394    411 170.0  16.4  34168  289.72 0854.66
2009/04/23 12:48:03.5      12   -393    139    394    417 178.2  20.0  34168  289.70 0854.66
2009/04/23 12:48:03.6     -24   -440    -17    441    442 183.2  -2.2  34170  289.75 0854.66
2009/04/23 12:48:03.7      62   -416    -41    421    424 171.5  -5.6  34174  289.80 0854.66
2009/04/23 12:48:03.8     -41   -381    -12    384    385 186.3  -1.9  34172  289.79 0854.66
2009/04/23 12:48:03.9     -58   -283    -67    290    298 191.6 -13.2  34168  289.71 0854.66
2009/04/23 12:48:04.0     -59   -277    -81    284    296 192.0 -16.0  34168  289.70 0854.66
2009/04/23 12:48:04.1      -4   -271    -55    272    278 180.9 -11.5  34164  289.63 0854.66
2009/04/23 12:48:04.2       0   -291    -34    292    295 180.0  -6.7  34164  289.64 0854.66
2009/04/23 12:48:04.3       3   -344    -16    345    346 179.4  -2.7  34168  289.72 0854.66
2009/04/23 12:48:04.4      12   -378     -5    379    380 178.1  -0.9  34172  289.76 0854.66
2009/04/23 12:48:04.5      -9   -342    -48    343    347 181.6  -8.0  34172  289.76 0854.66
2009/04/23 12:48:04.6     -16   -360    -14    361    362 182.6  -2.2  34172  289.77 0854.66
2009/04/23 12:48:04.7     -30   -322    -14    324    325 185.4  -2.5  34172  289.78 0854.66
2009/04/23 12:48:04.8      16   -267    -14    268    269 176.4  -3.1  34170  289.73 0854.66
2009/04/23 12:48:04.9      55   -320     16    325    326 170.2   2.9  34172  289.76 0854.66
2009/04/23 12:48:05.0      39   -319    -20    322    323 172.9  -3.7  34166  289.68 0854.66
2009/04/23 12:48:05.1      50   -293     -1    298    299 170.3  -0.3  34166  289.66 0854.66
2009/04/23 12:48:05.2      -4   -318     44    319    323 180.9   7.9  34164  289.64 0854.66
2009/04/23 12:48:05.3      -5   -313     52    314    319 181.0   9.5  34160  289.58 0854.66
2009/04/23 12:48:05.4       8   -291     93    292    307 178.4  17.7  34164  289.64 0854.66
2009/04/23 12:48:05.5      -8   -285    103    286    305 181.6  19.9  34166  289.66 0854.66
2009/04/23 12:48:05.6      -3   -198     68    199    211 180.9  18.9  34164  289.63 0854.66
2009/04/23 12:48:05.7     -30   -149     86    153    175 191.6  31.6  34166  289.69 0854.66
2009/04/23 12:48:05.8      -8   -206     25    207    209 182.2   7.1  34166  289.67 0854.66
2009/04/23 12:48:05.9      20   -222     22    224    226 174.7   5.7  34166  289.69 0854.66
2009/04/23 12:48:06.0      10   -233     -5    234    235 177.3  -1.3  34166  289.68 0854.66
2009/04/23 12:48:06.1      22   -172    -48    174    180 172.4 -20.0  34166  289.67 0854.66
2009/04/23 12:48:06.2      19   -138    -66    140    154 172.0 -31.6  34166  289.69 0854.66
2009/04/23 12:48:06.3     -23   -142    -41    144    149 189.3 -20.7  34166  289.69 0854.66
2009/04/23 12:48:06.4     -10   -146    -13    147    148 184.0  -5.2  34172  289.79 0854.66
2009/04/23 12:48:06.5       0   -200    -48    201    207 180.0 -13.4  34168  289.72 0854.66
2009/04/23 12:48:06.6      -9   -212    -25    213    215 182.7  -6.9  34166  289.69 0854.66
2009/04/23 12:48:06.7     -15   -199     -9    200    201 184.5  -2.6  34164  289.63 0854.66
2009/04/23 12:48:06.8      -9   -198     -9    199    200 182.7  -2.8  34166  289.67 0854.66
2009/04/23 12:48:06.9     -22   -203    -62    205    215 186.3 -16.8  34164  289.65 0854.66
2009/04/23 12:48:07.0      -1   -199    -55    200    208 180.5 -15.5  34164  289.63 0854.66
2009/04/23 12:48:07.1      -6   -157    -28    158    161 182.2 -10.3  34162  289.62 0854.66
2009/04/23 12:48:07.2      31   -122    -21    126    128 165.7  -9.8  34164  289.65 0854.66
2009/04/23 12:48:07.3      -2   -158    -65    159    171 181.0 -28.0  34166  289.67 0854.66
2009/04/23 12:48:07.4       3   -189    -26    190    192 179.0  -8.0  34164  289.63 0854.66
2009/04/23 12:48:07.5       8   -186     -2    187    188 177.3  -0.7  34164  289.63 0854.66
2009/04/23 12:48:07.6     -10   -191     23    192    194 183.1   6.9  34164  289.65 0854.66
2009/04/23 12:48:07.7      43   -177    -13    183    184 166.2  -4.1  34166  289.69 0854.66
2009/04/23 12:48:07.8      36   -152    -10    157    158 166.6  -3.7  34162  289.62 0854.66
2009/04/23 12:48:07.9      54   -137      2    148    149 158.2   0.8  34168  289.70 0854.66
2009/04/23 12:48:08.0      45   -137     -1    145    146 161.7  -0.7  34162  289.62 0854.66
2009/04/23 12:48:08.1      53   -150     21    160    162 160.4   7.5  34164  289.65 0854.67
2009/04/23 12:48:08.2      58   -149     10    161    162 158.6   3.8  34164  289.65 0854.67
2009/04/23 12:48:08.3      49   -141      0    150    151 160.8  -0.3  34164  289.65 0854.67
2009/04/23 12:48:08.4      67   -141     13    157    158 154.5   4.9  34166  289.67 0854.67
2009/04/23 12:48:08.5      72   -145    -17    163    164 153.5  -6.2  34164  289.65 0854.67
2009/04/23 12:48:08.6      58   -139     -8    151    152 157.3  -3.1  34164  289.65 0854.67
2009/04/23 12:48:08.7      77   -123     -5    146    147 147.9  -2.2  34166  289.67 0854.67
2009/04/23 12:48:08.8      75   -118    -35    141    146 147.5 -13.9  34166  289.67 0854.67
2009/04/23 12:48:08.9      72   -115    -22    136    138 147.9  -9.3  34166  289.69 0854.67
2009/04/23 12:48:09.0      67   -139     -7    155    156 154.1  -2.6  34166  289.69 0854.67
2009/04/23 12:48:09.1      51   -159    -18    167    169 162.2  -6.2  34168  289.70 0854.67
2009/04/23 12:48:09.2      59   -152     -2    164    165 158.8  -0.7  34166  289.67 0854.67
2009/04/23 12:48:09.3      42   -161     15    167    168 165.1   5.4  34166  289.69 0854.67
2009/04/23 12:48:09.4      52   -146     36    156    161 160.4  13.2  34162  289.62 0854.67
2009/04/23 12:48:09.5      73   -159     18    176    177 155.3   5.9  34166  289.67 0854.67
2009/04/23 12:48:09.6      68   -166     21    180    182 157.7   6.7  34164  289.65 0854.67
2009/04/23 12:48:09.7      84   -145      8    168    169 149.7   2.8  34166  289.67 0854.67
2009/04/23 12:48:09.8      83   -143    -13    166    167 149.7  -4.6  34160  289.58 0854.67
2009/04/23 12:48:09.9     104   -111    -27    153    156 136.8 -10.3  34164  289.65 0854.67
2009/04/23 12:48:10.0      93   -113    -22    147    149 140.4  -8.8  34164  289.65 0854.67
2009/04/23 12:48:10.1      95    -95    -17    135    137 135.0  -7.3  34164  289.65 0854.66
2009/04/23 12:48:10.2      70    -84     13    110    111 140.3   6.9  34164  289.63 0854.66
2009/04/23 12:48:10.3      49    -84     34     98    104 149.7  19.2  34164  289.63 0854.66
2009/04/23 12:48:10.4      29    -99     -2    104    105 163.5  -1.3  34164  289.63 0854.66
2009/04/23 12:48:10.5       1    -97     -2     98     99 179.1  -1.3  34164  289.63 0854.66
2009/04/23 12:48:10.6      -1   -110    -10    111    112 180.9  -5.6  34164  289.63 0854.66
2009/04/23 12:48:10.7      11   -151    -23    152    154 175.6  -8.8  34164  289.63 0854.66
2009/04/23 12:48:10.8      31   -154     38    158    163 168.4  13.5  34164  289.65 0854.66
2009/04/23 12:48:10.9      17   -128     28    130    134 172.4  12.2  34164  289.63 0854.66
2009/04/23 12:48:11.0      -2   -124     64    125    140 181.0  29.3  34164  289.63 0854.66
2009/04/23 12:48:11.1       4   -158     77    159    176 178.2  27.4  34166  289.69 0854.66
2009/04/23 12:48:11.2      41   -192     70    197    210 167.7  19.6  34164  289.65 0854.66
2009/04/23 12:48:11.3      37   -200     72    204    217 169.3  19.4  34166  289.69 0854.66
2009/04/23 12:48:11.4      47   -218     69    224    235 167.7  17.3  34168  289.72 0854.66
2009/04/23 12:48:11.5      81   -278     45    290    294 163.7   8.9  34172  289.78 0854.66
2009/04/23 12:48:11.6      70   -342     29    350    352 168.3   4.9  34164  289.64 0854.66
2009/04/23 12:48:11.7     -37   -298     15    301    302 187.1   2.9  34168  289.71 0854.66
2009/04/23 12:48:11.8      45   -331    -20    335    336 172.2  -3.5  34168  289.72 0854.66
2009/04/23 12:48:11.9      82   -303     25    314    316 164.9   4.6  34168  289.71 0854.66
2009/04/23 12:48:12.0     106   -318      9    336    337 161.5   1.6  34172  289.77 0854.66
2009/04/23 12:48:12.1      83   -258      3    272    273 162.2   0.8  34166  289.68 0854.67
2009/04/23 12:48:12.2     130   -274     64    304    311 154.5  12.0  34170  289.73 0854.67
2009/04/23 12:48:12.3     103   -300     35    318    320 161.1   6.4  34176  289.85 0854.67
2009/04/23 12:48:12.4      74   -331     53    340    345 167.3   8.9  34174  289.82 0854.67
2009/04/23 12:48:12.5      56   -276     50    282    287 168.5  10.1  34176  289.85 0854.67
2009/04/23 12:48:12.6      68   -253     -5    263    264 164.9  -1.3  34172  289.78 0854.67
2009/04/23 12:48:12.7      58   -244    -13    251    252 166.6  -3.1  34170  289.75 0854.67
2009/04/23 12:48:12.8      74   -221    -16    234    235 161.5  -4.1  34172  289.76 0854.67
2009/04/23 12:48:12.9      19   -262    -18    263    264 175.8  -4.1  34170  289.75 0854.67
2009/04/23 12:48:13.0       8   -264     -1    265    266 178.2  -0.3  34172  289.78 0854.67
2009/04/23 12:48:13.1      57   -225     68    233    243 165.7  16.3  34170  289.73 0854.67
2009/04/23 12:48:13.2      15   -182     91    183    204 175.1  28.5  34172  289.77 0854.67
2009/04/23 12:48:13.3     -15   -185     42    186    191 184.7  12.9  34176  289.84 0854.67
2009/04/23 12:48:13.4     -10   -142     65    143    157 184.0  26.2  34176  289.84 0854.67
2009/04/23 12:48:13.5     -14   -153     59    154    164 185.3  21.5  34174  289.82 0854.67
2009/04/23 12:48:13.6     -52   -159     58    168    178 198.3  19.2  34174  289.82 0854.67
2009/04/23 12:48:13.7     -50   -167     61    175    186 196.7  19.4  34172  289.79 0854.67
2009/04/23 12:48:13.8     -34   -177     31    181    184 190.9   9.9  34174  289.82 0854.67
2009/04/23 12:48:13.9     -25   -161     39    164    169 188.9  13.7  34174  289.80 0854.67
2009/04/23 12:48:14.0     -31   -172     34    175    179 190.5  11.1  34172  289.79 0854.67
2009/04/23 12:48:14.1     -34   -180      9    184    185 190.9   2.8  34176  289.84 0854.67
2009/04/23 12:48:14.2     -27   -206      0    208    209 187.6   0.0  34170  289.75 0854.64
2009/04/23 12:48:14.3     -49   -232      0    238    239 192.0   0.2  34172  289.76 0854.64
2009/04/23 12:48:14.4     -15   -240      4    241    242 183.8   1.0  34166  289.68 0854.64
2009/04/23 12:48:14.5     -10   -201      2    202    203 182.9   0.8  34168  289.70 0854.64
2009/04/23 12:48:14.6     -41   -223     20    227    228 190.5   5.2  34172  289.79 0854.64
2009/04/23 12:48:14.7     -62   -204     46    214    219 197.0  12.2  34172  289.77 0854.64
2009/04/23 12:48:14.8     -46   -165     38    172    177 195.8  12.6  34172  289.77 0854.64
2009/04/23 12:48:14.9      10   -229     84    230    244 177.5  20.9  34170  289.73 0854.64
2009/04/23 12:48:15.0     118   -249     64    276    284 154.5  13.2  34168  289.71 0854.64
2009/04/23 12:48:15.1      32   -233     84    236    250 172.0  20.0  34170  289.75 0854.64
2009/04/23 12:48:15.2       0   -285    129    286    313 180.0  25.9  34162  289.61 0854.64
2009/04/23 12:48:15.3     -34   -304     71    306    315 186.5  13.1  34166  289.66 0854.64
2009/04/23 12:48:15.4     -19   -350      4    351    352 183.2   0.7  34164  289.65 0854.64
2009/04/23 12:48:15.5      71   -345    -84    353    363 168.3 -13.4  34166  289.67 0854.64
2009/04/23 12:48:15.6      23   -348    -96    349    361 176.1 -20.0  34166  289.67 0854.64
2009/04/23 12:48:15.7      53   -353    -84    357    367 171.4 -13.3  34178  289.87 0854.64
2009/04/23 12:48:15.8     -30   -279     72    281    291 186.2  14.5  34176  289.83 0854.64
2009/04/23 12:48:15.9     143   -329     70    359    366 156.5  11.1  34168  289.72 0854.64
2009/04/23 12:48:16.0     122   -448     94    465    475 164.7  11.4  34172  289.79 0854.64
2009/04/23 12:48:16.1       8   -336     35    337    339 178.6   6.1  34174  289.81 0854.61
2009/04/23 12:48:16.2      23   -303     34    304    306 175.6   6.5  34178  289.86 0854.61
2009/04/23 12:48:16.3      10   -200     48    201    207 176.9  13.5  34180  289.92 0854.61
2009/04/23 12:48:16.4     -70   -230      7    241    242 197.0   1.7  34174  289.81 0854.61
2009/04/23 12:48:16.5     -78   -243      5    256    257 197.8   1.2  34176  289.83 0854.61
2009/04/23 12:48:16.6     -86   -221     -9    238    239 201.4  -2.2  34170  289.75 0854.61
2009/04/23 12:48:16.7     -88   -190    -10    210    211 204.9  -2.8  34176  289.84 0854.61
2009/04/23 12:48:16.8     -32   -210     -8    213    214 188.7  -2.2  34170  289.75 0854.61
2009/04/23 12:48:16.9       2   -195    -56    196    204 179.3 -16.0  34170  289.74 0854.61
2009/04/23 12:48:17.0      20   -257     -2    258    259 175.5  -0.5  34172  289.76 0854.61
2009/04/23 12:48:17.1      29   -207     35    210    213 172.0   9.5  34168  289.70 0854.60
2009/04/23 12:48:17.2      56   -236    -53    243    249 166.6 -12.4  34176  289.83 0854.60
2009/04/23 12:48:17.3       4   -229    -31    230    233 179.0  -7.7  34174  289.82 0854.60
2009/04/23 12:48:17.4      28   -187    -45    190    196 171.3 -13.4  34174  289.80 0854.60
2009/04/23 12:48:17.5      13   -207    -57    208    216 176.4 -15.5  34174  289.82 0854.60
2009/04/23 12:48:17.6      34   -243    -50    246    252 172.0 -11.6  34168  289.70 0854.60
2009/04/23 12:48:17.7      66   -295    -33    303    305 167.3  -6.2  34172  289.78 0854.60
2009/04/23 12:48:17.8      30   -262    -47    264    269 173.3 -10.3  34176  289.83 0854.60
2009/04/23 12:48:17.9      17   -284    -57    285    291 176.5 -11.5  34172  289.76 0854.60
2009/04/23 12:48:18.0      67   -310    -75    318    327 167.7 -13.4  34154  289.46 0854.60
2009/04/23 12:48:18.1      50   -297    -59    302    308 170.3 -11.2  34156  289.49 0854.60
2009/04/23 12:48:18.2      69   -289    -26    298    300 166.4  -5.1  34154  289.47 0854.60
2009/04/23 12:48:18.3      41   -262    -21    266    267 171.1  -4.6  34154  289.47 0854.60
2009/04/23 12:48:18.5      43   -271      8    275    276 170.9   1.8  34156  289.49 0854.60
2009/04/23 12:48:18.5      57   -211    -46    219    224 164.8 -11.9  34156  289.52 0854.60
2009/04/23 12:48:18.7     -91   -296    -12    310    311 197.2  -2.2  34158  289.54 0854.60
2009/04/23 12:48:18.8    -101   -280     -6    298    299 200.0  -1.3  34160  289.58 0854.60
2009/04/23 12:48:18.9     -52   -309    108    314    333 189.7  19.1  34158  289.53 0854.60
2009/04/23 12:48:19.0      55   -343     46    348    352 170.9   7.6  34158  289.55 0854.60
2009/04/23 12:48:19.1      34   -317     92    319    333 173.8  16.1  34160  289.56 0854.60
2009/04/23 12:48:19.2     116   -357    102    376    390 162.0  15.2  34158  289.54 0854.61
2009/04/23 12:48:19.3     107   -349    -43    366    369 163.0  -6.7  34158  289.55 0854.61
2009/04/23 12:48:19.4     162   -374     60    408    413 156.6   8.5  34158  289.53 0854.61
2009/04/23 12:48:19.5     150   -373     45    403    406 158.1   6.5  34160  289.58 0854.61
2009/04/23 12:48:19.6     178   -315    -13    363    364 150.5  -2.1  34160  289.57 0854.61
2009/04/23 12:48:19.7     213   -297      7    366    367 144.4   1.2  34166  289.67 0854.61
2009/04/23 12:48:19.8     204   -275    -14    343    344 143.5  -2.5  34158  289.55 0854.61
2009/04/23 12:48:19.9     120   -301     34    325    327 158.2   6.1  34160  289.58 0854.61
2009/04/23 12:48:20.0      64   -287     55    295    301 167.3  10.6  34158  289.53 0854.61
2009/04/23 12:48:20.1      50   -313     65    318    325 170.9  11.6  34158  289.54 0854.61
2009/04/23 12:48:20.2      98   -208     43    231    235 154.7  10.6  34160  289.56 0854.61
2009/04/23 12:48:20.3      91   -222     24    241    243 157.7   5.9  34160  289.56 0854.61
2009/04/23 12:48:20.4      60   -223     59    232    240 164.8  14.3  34158  289.54 0854.61
2009/04/23 12:48:20.5     108   -256    -21    278    279 157.1  -4.4  34160  289.58 0854.61
2009/04/23 12:48:20.6      69   -262    -18    272    273 165.1  -3.9  34156  289.51 0854.61
2009/04/23 12:48:20.7     106   -292     -2    311    312 159.9  -0.5  34158  289.54 0854.61
2009/04/23 12:48:20.8      59   -272    -20    279    280 167.7  -4.1  34156  289.51 0854.61
2009/04/23 12:48:20.9      97   -205    -72    227    239 154.7 -17.6  34158  289.53 0854.61
2009/04/23 12:48:21.0      92   -221    -86    240    256 157.3 -19.7  34160  289.58 0854.61
2009/04/23 12:48:21.1      73   -292    -32    302    304 165.8  -6.2  34158  289.53 0854.61
2009/04/23 12:48:21.2      79   -303    -24    314    316 165.3  -4.5  34158  289.53 0854.59
2009/04/23 12:48:21.3      51   -333    -42    337    340 171.3  -7.2  34160  289.57 0854.59
2009/04/23 12:48:21.4      25   -344     17    345    346 175.8   2.9  34160  289.57 0854.59
2009/04/23 12:48:21.5      42   -252    -66    256    265 170.4 -14.5  34162  289.59 0854.59
2009/04/23 12:48:21.6      59   -255    -78    262    273 166.9 -21.7  34162  289.61 0854.59
2009/04/23 12:48:21.7      72   -275    -31    285    287 165.3  -6.2  34160  289.56 0854.59
2009/04/23 12:48:21.8      92   -273      3    289    290 161.3   0.7  34160  289.56 0854.59
2009/04/23 12:48:21.9      69   -247    -57    257    264 164.4 -12.6  34162  289.59 0854.59
2009/04/23 12:48:22.0      66   -217    -80    227    241 163.1 -19.4  34160  289.58 0854.59
2009/04/23 12:48:22.1      13   -206    -82    207    222 176.4 -27.4  34162  289.60 0854.59
2009/04/23 12:48:22.2      12   -232    -83    233    247 176.9 -24.8  34160  289.58 0854.59
2009/04/23 12:48:22.3     100   -266   -137    285    316 159.3 -31.8  34160  289.56 0854.59
2009/04/23 12:48:22.4      98   -245    -89    265    279 158.2 -23.3  34158  289.54 0854.59
2009/04/23 12:48:22.5     164   -275    -41    321    324 149.1  -7.3  34162  289.61 0854.59
2009/04/23 12:48:22.6     192   -338    -20    390    391 150.4  -3.0  34160  289.57 0854.59
2009/04/23 12:48:22.7     206   -346    -23    403    404 149.3  -3.3  34162  289.61 0854.59
2009/04/23 12:48:22.8     164   -265    -34    312    314 148.3  -6.3  34162  289.59 0854.59
2009/04/23 12:48:22.9      74   -248      7    259    260 163.3   1.6  34162  289.59 0854.59
2009/04/23 12:48:23.0      38   -142   -171    148    226 164.9 -59.2  34164  289.63 0854.59
2009/04/23 12:48:23.1      22   -176   -124    178    216 172.7 -42.8  34162  289.60 0854.59
2009/04/23 12:48:23.2      66   -153    -30    167    170 156.6 -10.5  34160  289.57 0854.60
2009/04/23 12:48:23.3      46   -226     98    231    250 168.4  24.3  34162  289.59 0854.60
2009/04/23 12:48:23.4      57   -219     37    227    231 165.3   9.3  34164  289.63 0854.60
2009/04/23 12:48:23.5     140   -217    135    259    292 147.0  29.8  34164  289.63 0854.60
2009/04/23 12:48:23.6      13   -292    166    293    336 177.3  32.0  34166  289.68 0854.60
2009/04/23 12:48:23.7     -42   -287    107    291    310 188.5  21.0  34162  289.61 0854.60
2009/04/23 12:48:23.8     -32   -227    115    230    257 188.0  28.5  34162  289.59 0854.60
2009/04/23 12:48:23.9     -39   -215     87    219    235 190.5  23.0  34164  289.65 0854.60
2009/04/23 12:48:24.0     -57   -192     78    201    215 196.5  22.5  34162  289.60 0854.60
2009/04/23 12:48:24.1     -75   -194    -58    209    217 201.2 -15.5  34164  289.63 0854.60
2009/04/23 12:48:24.2     -64   -134    -25    149    152 205.5  -9.8  34164  289.63 0854.60
2009/04/23 12:48:24.3     -45   -120    -41    129    136 200.5 -17.6  34162  289.62 0854.60
2009/04/23 12:48:24.4     -60   -127    -39    141    147 205.3 -15.4  34164  289.63 0854.60
2009/04/23 12:48:24.5     -43   -177     22    183    185 193.8   6.9  34164  289.63 0854.60
2009/04/23 12:48:24.6     -37   -221     27    225    227 189.6   6.9  34166  289.67 0854.60
2009/04/23 12:48:24.7       3   -221      6    222    223 179.1   1.8  34166  289.67 0854.60
2009/04/23 12:48:24.8      -2   -169     30    170    173 180.9  10.1  34168  289.72 0854.60
2009/04/23 12:48:24.9     -39   -172     82    177    195 192.9  27.0  34168  289.72 0854.60
2009/04/23 12:48:25.0     -51   -183    110    190    219 195.6  32.7  34168  289.70 0854.60
2009/04/23 12:48:25.1     -43   -166    142    172    223 194.5  43.7  34172  289.77 0854.60
2009/04/23 12:48:25.2      15   -249    160    250    296 176.5  35.6  34174  289.80 0854.61
2009/04/23 12:48:25.3      35   -311     73    314    323 173.5  13.1  34170  289.75 0854.61
2009/04/23 12:48:25.4      33   -257    125    260    288 172.7  27.3  34174  289.80 0854.61
2009/04/23 12:48:25.5     102   -243     98    264    281 157.2  21.0  34174  289.80 0854.61
2009/04/23 12:48:25.6      76   -269     -1    280    281 164.2  -0.3  34170  289.75 0854.61
2009/04/23 12:48:25.7     117   -278    -38    302    305 157.1  -7.2  34168  289.70 0854.61
2009/04/23 12:48:25.8      98   -224   -103    245    265 156.3 -28.6  34166  289.68 0854.61
2009/04/23 12:48:25.9      47   -154    -61    162    173 163.1 -25.7  34168  289.72 0854.61
2009/04/23 12:48:26.0      20   -186    -67    188    200 173.8 -19.7  34166  289.69 0854.61
2009/04/23 12:48:26.1     -14   -204    -14    205    206 184.0  -4.1  34168  289.72 0854.61
2009/04/23 12:48:26.2     -71   -194    -16    207    208 200.1  -4.6  34166  289.67 0854.61
2009/04/23 12:48:26.3     -75   -175     25    191    193 203.2   7.5  34170  289.74 0854.61
2009/04/23 12:48:26.4     -57   -160     -8    171    172 199.8  -2.8  34172  289.77 0854.61
2009/04/23 12:48:26.5     -36   -213     31    217    220 189.6   8.2  34166  289.67 0854.61
2009/04/23 12:48:26.6     -42   -239     27    243    245 190.0   6.5  34168  289.71 0854.61
2009/04/23 12:48:26.7     -72   -221     72    233    245 198.0  17.3  34170  289.75 0854.61
2009/04/23 12:48:26.8     -59   -225     54    233    240 194.7  13.2  34168  289.70 0854.61
2009/04/23 12:48:26.9     -56   -206    -19    214    215 195.4  -5.2  34170  289.74 0854.61
2009/04/23 12:48:27.0     -35   -283     -2    286    287 187.2  -0.5  34168  289.71 0854.61
2009/04/23 12:48:27.1     -66   -255    -38    264    267 194.5  -8.2  34166  289.68 0854.61
2009/04/23 12:48:27.2     -63   -281    -74    289    299 192.7 -14.5  34168  289.70 0854.62
2009/04/23 12:48:27.3     -38   -306    -97    309    325 187.1 -17.5  34166  289.66 0854.62
2009/04/23 12:48:27.4      21   -253    -70    254    264 175.1 -15.5  34166  289.66 0854.62
2009/04/23 12:48:27.5      41   -237    -21    241    242 170.0  -5.2  34164  289.64 0854.62
2009/04/23 12:48:27.6       0   -266    -24    267    269 179.9  -5.2  34166  289.68 0854.62
2009/04/23 12:48:27.7      42   -390     22    393    394 173.8   3.2  34164  289.64 0854.62
2009/04/23 12:48:27.8      17   -392     57    393    398 177.5   8.3  34162  289.62 0854.62
2009/04/23 12:48:27.9     -92   -335      4    348    349 195.4   0.8  34166  289.67 0854.62
2009/04/23 12:48:28.0     -74   -365     -8    373    374 191.6  -1.3  34168  289.72 0854.62
2009/04/23 12:48:28.1    -151   -470   -121    494    509 197.8 -13.8  34174  289.81 0854.62
2009/04/23 12:48:28.2    -161   -463   -106    491    503 199.2 -12.3  34172  289.79 0854.62
2009/04/23 12:48:28.3    -135   -456    -70    476    482 196.5  -8.4  34172  289.78 0854.62
2009/04/23 12:48:28.4     -38   -348     -5    351    352 186.3  -0.9  34168  289.71 0854.62
2009/04/23 12:48:28.5     -64   -451     34    456    458 188.1   4.3  34166  289.66 0854.62
2009/04/23 12:48:28.6    -165   -455    -32    485    487 200.0  -3.8  34164  289.64 0854.62
2009/04/23 12:48:28.7    -198   -394    -48    442    445 206.7  -6.3  34156  289.51 0854.62
2009/04/23 12:48:28.8    -229   -412    -95    472    482 209.1 -11.5  34162  289.62 0854.62
2009/04/23 12:48:28.9    -188   -514   -119    548    561 200.1 -12.3  34162  289.62 0854.62
2009/04/23 12:48:29.0    -208   -476   -120    520    534 203.6 -13.0  34160  289.58 0854.62
2009/04/23 12:48:29.1    -232   -461   -139    517    536 206.7 -15.1  34158  289.55 0854.62
2009/04/23 12:48:29.2     -35   -527     -3    529    530 183.9  -0.4  34166  289.67 0854.63
2009/04/23 12:48:29.3     -30   -467   -154    468    493 183.7 -18.3  34162  289.61 0854.63
2009/04/23 12:48:29.4    -165   -422   -129    454    473 201.4 -15.9  34162  289.61 0854.63
2009/04/23 12:48:29.5      22   -499    -91    500    509 177.4 -10.4  34160  289.56 0854.63
2009/04/23 12:48:29.6      42   -447     29    450    451 174.6   3.7  34166  289.66 0854.63
2009/04/23 12:48:29.7       0   -316     72    317    326 180.0  12.9  34160  289.58 0854.63
2009/04/23 12:48:29.8      28   -294    -22    296    297 174.4  -4.4  34164  289.64 0854.63
2009/04/23 12:48:29.9      16   -369    -28    370    371 177.4  -4.4  34164  289.64 0854.63
2009/04/23 12:48:30.0      70   -344    -13    352    353 168.4  -2.2  34162  289.62 0854.63
2009/04/23 12:48:30.1      45   -328    -19    332    333 172.2  -3.3  34162  289.60 0854.63
2009/04/23 12:48:30.2     -21   -313      9    314    315 184.0   1.8  34164  289.63 0854.63
2009/04/23 12:48:30.3     -73   -322    -31    331    333 192.9  -5.5  34168  289.71 0854.63
2009/04/23 12:48:30.4     -91   -295    -12    309    310 197.2  -2.2  34170  289.73 0854.63
2009/04/23 12:48:30.5    -110   -310    -15    330    331 199.6  -2.7  34172  289.76 0854.63
2009/04/23 12:48:30.6    -104   -283    -73    302    311 200.3 -13.7  34164  289.64 0854.63
2009/04/23 12:48:30.7    -164   -289   -146    333    363 209.6 -29.6  34162  289.62 0854.63
2009/04/23 12:48:30.8    -122   -272   -167    299    342 204.1 -35.9  34160  289.58 0854.63
2009/04/23 12:48:30.9    -168   -266   -173    315    359 212.3 -35.8  34164  289.64 0854.63
2009/04/23 12:48:31.0     -18   -294   -154    295    332 183.6 -34.2  34162  289.61 0854.63
2009/04/23 12:48:31.1    -102   -268    -92    288    302 200.9 -23.0  34164  289.63 0854.63
2009/04/23 12:48:31.2    -148   -270   -123    308    331 208.7 -27.4  34164  289.64 0854.65
2009/04/23 12:48:31.3    -118   -303   -104    326    342 201.3 -23.0  34166  289.67 0854.65
2009/04/23 12:48:31.4     -87   -288    -98    302    318 196.9 -18.1  34164  289.63 0854.65
2009/04/23 12:48:31.5     -54   -267   -115    273    296 191.6 -28.6  34166  289.68 0854.65
2009/04/23 12:48:31.6     -78   -270    -99    282    298 196.1 -24.4  34166  289.68 0854.65
2009/04/23 12:48:31.7    -104   -368   -121    383    402 195.9 -17.6  34168  289.72 0854.65
2009/04/23 12:48:31.8     -95   -261   -133    278    308 200.1 -31.7  34164  289.63 0854.65
2009/04/23 12:48:31.9    -216   -200   -154    295    332 227.1 -34.2  34162  289.59 0854.65
2009/04/23 12:48:32.0    -144   -226   -123    269    295 212.5 -30.6  34164  289.64 0854.65
2009/04/23 12:48:32.1     -51   -183   -124    190    226 195.6 -40.4  34164  289.63 0854.65
2009/04/23 12:48:32.2      12   -157    -89    158    181 175.5 -36.0  34168  289.70 0854.65
2009/04/23 12:48:32.3      94   -173    -60    197    205 151.5 -21.8  34164  289.63 0854.65
2009/04/23 12:48:32.4     133   -171    -34    217    220 142.1  -9.0  34162  289.60 0854.65
2009/04/23 12:48:32.5     -83   -171    -27    191    194 205.9  -8.2  34166  289.69 0854.65
2009/04/23 12:48:32.6    -155   -102   -168    186    250 236.7 -51.3  34164  289.65 0854.65
2009/04/23 12:48:32.7    -226    -55   -149    233    276 256.1 -40.0  34168  289.71 0854.65
2009/04/23 12:48:32.8    -303   -110   -154    323    357 250.0 -31.7  34166  289.67 0854.65
2009/04/23 12:48:32.9    -170   -268   -108    318    335 212.5 -23.8  34164  289.65 0854.65
2009/04/23 12:48:33.0    -258   -211   -120    334    356 230.8 -19.8  34166  289.67 0854.65
2009/04/23 12:48:33.1    -287   -182   -130    341    364 237.6 -26.1  34168  289.72 0854.65
2009/04/23 12:48:33.2    -198   -150    -51    249    255 232.7 -11.6  34150  289.41 0854.64
2009/04/23 12:48:33.3    -256   -148   -103    296    314 240.0 -19.3  34170  289.73 0854.64
2009/04/23 12:48:33.4    -207   -226    -90    307    319 222.4 -21.2  34164  289.63 0854.64
2009/04/23 12:48:33.5    -148   -218   -106    264    284 214.3 -27.4  34168  289.70 0854.64
2009/04/23 12:48:33.6    -159   -159    -82    225    239 225.0 -25.3  34164  289.63 0854.64
2009/04/23 12:48:33.7    -190   -127   -111    229    254 236.3 -32.2  34166  289.66 0854.64
2009/04/23 12:48:33.8    -171   -108   -148    203    251 237.6 -44.1  34166  289.66 0854.64
2009/04/23 12:48:33.9    -145    -58   -192    157    248 248.2 -60.8  34168  289.72 0854.64
2009/04/23 12:48:34.0    -100     -7   -172    101    199 265.6 -71.4  34168  289.70 0854.64
2009/04/23 12:48:34.1      -8     30   -130     32    133 344.9 -90.0  34168  289.70 0854.64
2009/04/23 12:48:34.2      34    -22    -84     41     93 122.5 -77.2  34168  289.72 0854.64
2009/04/23 12:48:34.3      60      0    -29     61     67  90.0 -31.6  34168  289.70 0854.64
2009/04/23 12:48:34.4      63     63    -42     90     99  45.0 -31.5  34168  289.70 0854.64
2009/04/23 12:48:34.5     -90    102    -44    137    145 318.5 -18.1  34170  289.75 0854.64
2009/04/23 12:48:34.6    -128     85    -11    154    155 303.7  -4.1  34172  289.77 0854.64
2009/04/23 12:48:34.7    -110     90    -47    143    150 309.1 -23.8  34176  289.84 0854.64
2009/04/23 12:48:34.8    -105     84    -45    135    142 308.6 -23.6  34174  289.80 0854.64
2009/04/23 12:48:34.9      -3     12   -114     13    114 344.9 -90.0  34172  289.79 0854.64
2009/04/23 12:48:35.0      53     43    -99     69    120  50.5 -65.9  34170  289.75 0854.64
2009/04/23 12:48:35.1      50     53    -90     74    116  43.3 -60.8  34170  289.74 0854.64
2009/04/23 12:48:35.2      47     -6    -77     48     90  97.9 -69.1  34170  289.74 0854.63
2009/04/23 12:48:35.3    -140    -88   -121    166    205 238.0 -44.1  34170  289.74 0854.63
2009/04/23 12:48:35.4     -52   -157   -153    166    225 198.3 -52.1  34166  289.69 0854.63
2009/04/23 12:48:35.5     -19   -149   -132    151    200 187.6 -50.2  34168  289.72 0854.63
2009/04/23 12:48:35.6       8   -222    -67    223    233 177.8 -16.8  34168  289.72 0854.63
2009/04/23 12:48:35.7     164   -135     41    213    217 129.5  11.0  34168  289.72 0854.63
2009/04/23 12:48:35.8     160   -148     86    219    235 132.7  22.5  34166  289.67 0854.63
2009/04/23 12:48:35.9     108   -217     -1    243    244 153.5  -0.3  34166  289.68 0854.63
2009/04/23 12:48:36.0     101   -189    -27    215    217 151.7  -7.2  34164  289.65 0854.63
2009/04/23 12:48:36.1      58   -122     -8    136    137 154.7  -3.7  34166  289.67 0854.63
2009/04/23 12:48:36.2      91    -71     23    116    119 128.2  11.6  34164  289.65 0854.63
2009/04/23 12:48:36.3      73    -34     60     81    100 115.2  40.1  34166  289.69 0854.63
2009/04/23 12:48:36.4     -10   -135    142    136    196 184.4  51.4  34166  289.67 0854.63
2009/04/23 12:48:36.5     -18   -115    130    117    174 189.3  53.5  34166  289.69 0854.63
2009/04/23 12:48:36.6       0    -48     92     49    104 180.0  69.3  34170  289.75 0854.63
2009/04/23 12:48:36.7     -52   -111    130    123    178 205.3  52.0  34166  289.69 0854.63
2009/04/23 12:48:36.8       4    -57    123     58    135 175.6  73.1  34170  289.75 0854.63
2009/04/23 12:48:36.9       0     42     15     43     46   0.0  19.4  34174  289.82 0854.63
2009/04/23 12:48:37.0     -46     21    -18     51     55 295.4 -19.7  34172  289.77 0854.63
2009/04/23 12:48:37.1     -88     73      5    115    116 309.5   2.9  34168  289.72 0854.63
2009/04/23 12:48:37.2     -58     57    -50     82     96 314.4 -39.4  34168  289.72 0854.63
2009/04/23 12:48:37.3     -15     -7    -83     17     84 244.7 -90.0  34172  289.79 0854.63
2009/04/23 12:48:37.4       8   -102      5    103    104 175.1   2.9  34168  289.70 0854.63
2009/04/23 12:48:37.5     -25   -108     25    112    115 193.4  12.6  34172  289.77 0854.63
2009/04/23 12:48:37.6     -70    -56      4     90     91 231.4   2.9  34172  289.79 0854.63
2009/04/23 12:48:37.7     -67    -40    -13     79     81 239.3  -9.3  34172  289.77 0854.63
2009/04/23 12:48:37.8    -142    -68    -53    158    167 244.2 -18.7  34166  289.69 0854.63
2009/04/23 12:48:37.9    -187    -76    -24    203    205 247.8  -6.9  34166  289.67 0854.63
2009/04/23 12:48:38.0    -261    -70   -120    271    296 255.0 -29.6  34168  289.71 0854.63
2009/04/23 12:48:38.1    -263    -82   -145    276    311 252.7 -34.5  34166  289.68 0854.63
2009/04/23 12:48:38.2    -255    -34    -74    258    268 262.3 -20.8  34170  289.73 0854.63
2009/04/23 12:48:38.3    -295    -69   -100    304    320 256.8 -23.5  34170  289.73 0854.63
2009/04/23 12:48:38.4    -259    -26   -135    261    293 264.1 -33.7  34172  289.76 0854.63
2009/04/23 12:48:38.5    -209    -39    -88    213    230 259.4 -28.0  34172  289.77 0854.63
2009/04/23 12:48:38.6    -240    -99   -103    260    279 247.6 -27.2  34168  289.71 0854.63
2009/04/23 12:48:38.7    -226   -143    -82    268    280 237.6 -21.8  34176  289.83 0854.63
2009/04/23 12:48:38.8    -238   -132    -78    273    283 240.9 -20.7  34172  289.78 0854.63
2009/04/23 12:48:38.9    -147    -95    -92    176    198 237.1 -34.2  34172  289.77 0854.63
2009/04/23 12:48:39.0    -196   -125    -38    233    237 237.5  -9.3  34178  289.88 0854.63
2009/04/23 12:48:39.1    -207    -72    -59    220    228 250.7 -15.2  34178  289.87 0854.63
2009/04/23 12:48:39.2    -216   -106    -76    241    253 243.8 -17.6  34166  289.68 0854.63
2009/04/23 12:48:39.3    -213    -96    -89    234    250 245.6 -26.1  34172  289.76 0854.63
2009/04/23 12:48:39.4    -145   -220    -83    264    277 213.4 -17.6  34170  289.73 0854.63
2009/04/23 12:48:39.5    -105   -262    -48    283    288 201.9  -9.8  34172  289.78 0854.63
2009/04/23 12:48:39.6     -89   -246    -23    262    264 200.0  -5.2  34168  289.71 0854.63
2009/04/23 12:48:39.7    -117   -198     13    231    232 210.7   3.3  34172  289.79 0854.63
2009/04/23 12:48:39.8    -182   -151    -51    237    243 230.2 -12.2  34172  289.78 0854.63
2009/04/23 12:48:39.9    -139   -167    -52    218    225 219.9 -13.4  34174  289.80 0854.63
2009/04/23 12:48:40.0     -86   -198      4    217    218 203.6   1.2  34174  289.80 0854.63
2009/04/23 12:48:40.1    -186   -191    -32    267    269 224.3  -6.9  34172  289.78 0854.63
2009/04/23 12:48:40.2    -272   -197    -94    337    351 234.1 -15.7  34172  289.76 0854.62
2009/04/23 12:48:40.3    -199   -240    -23    313    314 219.7  -4.4  34166  289.66 0854.62
2009/04/23 12:48:40.4     -54   -266     -1    272    273 191.6  -0.3  34168  289.71 0854.62
2009/04/23 12:48:40.5     -61   -221     -9    230    231 195.6  -2.2  34166  289.69 0854.62
2009/04/23 12:48:40.6    -124   -339     -3    362    363 200.2  -0.6  34166  289.69 0854.62
2009/04/23 12:48:40.7    -123   -313    -42    337    340 201.6  -7.2  34168  289.71 0854.62
2009/04/23 12:48:40.8    -247   -247    -46    350    354 225.0  -7.6  34172  289.79 0854.62
2009/04/23 12:48:40.9    -163   -292    -48    335    339 209.1  -8.2  34166  289.67 0854.62
2009/04/23 12:48:41.0    -242   -303    -81    389    398 218.6 -11.8  34164  289.64 0854.62
2009/04/23 12:48:41.1    -183   -297    -51    350    354 211.7  -8.4  34166  289.67 0854.62
2009/04/23 12:48:41.2     -42   -300     24    304    306 188.0   4.6  34168  289.70 0854.62
2009/04/23 12:48:41.3     -16   -257    -33    258    261 183.6  -7.5  34170  289.73 0854.62
2009/04/23 12:48:41.4     -58   -309     12    315    316 190.7   2.3  34170  289.73 0854.62
2009/04/23 12:48:41.5    -131   -248    -73    281    291 207.9 -14.7  34162  289.59 0854.62
2009/04/23 12:48:41.6    -100   -172   -156    200    253 210.3 -46.4  34166  289.68 0854.62
2009/04/23 12:48:41.7    -106   -193    -68    221    231 208.7 -22.3  34166  289.69 0854.62
2009/04/23 12:48:41.8    -129   -204    -19    242    243 212.3  -4.6  34166  289.68 0854.62
2009/04/23 12:48:41.9     -13   -226     37    227    231 183.4   9.3  34168  289.72 0854.62
2009/04/23 12:48:42.0      68   -287    -32    296    298 166.6  -6.2  34160  289.58 0854.62
2009/04/23 12:48:42.1      51   -230    -47    236    241 167.3 -11.5  34166  289.68 0854.62
2009/04/23 12:48:42.2      23   -211    -64    213    223 173.8 -16.8  34170  289.75 0854.61
2009/04/23 12:48:42.3     -21   -152    -36    154    159 188.0 -13.2  34168  289.70 0854.61
2009/04/23 12:48:42.4     -94   -225    -23    244    246 202.7  -5.6  34166  289.68 0854.61
2009/04/23 12:48:42.5     -61   -276    -25    283    285 192.5  -5.2  34170  289.75 0854.61
2009/04/23 12:48:42.6    -123   -264     14    292    293 204.9   2.9  34168  289.70 0854.61
2009/04/23 12:48:42.7     -73   -215     11    228    229 198.7   2.8  34166  289.67 0854.61
2009/04/23 12:48:42.8     -45   -197     99    203    225 192.9  27.4  34170  289.74 0854.61
2009/04/23 12:48:42.9      -6   -274     33    275    278 181.4   6.9  34170  289.73 0854.61
2009/04/23 12:48:43.0     -54   -266     50    272    277 191.5  10.6  34168  289.70 0854.61
2009/04/23 12:48:43.1     -17   -225     42    226    230 184.4  10.6  34168  289.72 0854.61
2009/04/23 12:48:43.2       5   -232     41    233    237 178.6  10.1  34168  289.70 0854.61
2009/04/23 12:48:43.3       0   -235     42    236    240 180.2  10.1  34168  289.71 0854.61
2009/04/23 12:48:43.4      -3   -224     37    225    229 181.0   9.5  34168  289.72 0854.61
2009/04/23 12:48:43.5      11   -206     47    207    213 176.9  12.9  34168  289.70 0854.61
2009/04/23 12:48:43.6      37   -195     66    199    210 169.1  18.4  34168  289.70 0854.61
2009/04/23 12:48:43.7      42   -205     76    210    223 168.2  20.7  34170  289.74 0854.61
2009/04/23 12:48:43.8      13   -221     60    222    231 176.6  15.3  34168  289.70 0854.61
2009/04/23 12:48:43.9       0   -261     45    262    266 180.0   9.9  34168  289.71 0854.61
2009/04/23 12:48:44.0      13   -287     39    288    291 177.4   7.8  34166  289.68 0854.61
2009/04/23 12:48:44.1      30   -308     62    310    317 174.4  11.3  34170  289.73 0854.61
2009/04/23 12:48:44.2      96   -292     21    308    309 161.7   3.9  34166  289.68 0854.61
2009/04/23 12:48:44.4      74   -299    -12    309    310 166.0  -2.2  34168  289.70 0854.61
2009/04/23 12:48:44.4      52   -281     13    286    287 169.5   2.8  34166  289.68 0854.61
2009/04/23 12:48:44.5     125   -245     14    276    277 152.9   2.9  34168  289.71 0854.61
2009/04/23 12:48:44.7     196   -163      7    256    257 129.8   1.7  34168  289.71 0854.61
2009/04/23 12:48:44.7     176   -110     10    208    209 122.0   2.9  34166  289.69 0854.61
2009/04/23 12:48:44.9     182    -99     -8    208    209 118.6  -2.2  34170  289.74 0854.61
2009/04/23 12:48:44.9     215   -126     44    250    254 120.4  10.1  34170  289.75 0854.61
2009/04/23 12:48:45.1     212   -138     -1    254    255 123.1  -0.3  34168  289.71 0854.61
2009/04/23 12:48:45.2     224   -142      9    266    267 122.5   2.1  34170  289.73 0854.61
2009/04/23 12:48:45.3     210   -136     17    251    252 122.9   3.9  34168  289.71 0854.61
2009/04/23 12:48:45.4     138   -130     24    190    192 133.3   7.5  34166  289.69 0854.61
2009/04/23 12:48:45.5     115   -140     89    182    202 140.6  27.8  34168  289.70 0854.61
2009/04/23 12:48:45.6     143   -184     88    234    250 142.2  21.5  34168  289.71 0854.61
2009/04/23 12:48:45.7     135   -223     -5    261    262 148.8  -1.3  34168  289.71 0854.61
2009/04/23 12:48:45.8      86   -226     -9    243    244 159.1  -2.2  34168  289.70 0854.61
2009/04/23 12:48:45.9      46   -292     38    296    299 170.9   7.5  34170  289.73 0854.61
2009/04/23 12:48:46.0      39   -328    -12    331    332 173.2  -2.2  34168  289.72 0854.61
2009/04/23 12:48:46.1      68   -334     44    342    345 168.4   7.4  34172  289.77 0854.61
2009/04/23 12:48:46.2      40   -285    -16    288    289 171.9  -3.2  34170  289.73 0854.60
2009/04/23 12:48:46.3      10   -305     -6    306    307 178.0  -1.3  34170  289.75 0854.60
2009/04/23 12:48:46.4     -49   -320     -9    324    325 188.7  -1.7  34172  289.76 0854.60
2009/04/23 12:48:46.5     -63   -349     57    355    360 190.3   9.2  34172  289.79 0854.60
2009/04/23 12:48:46.6     -34   -329      7    331    332 186.0   1.2  34174  289.81 0854.60
2009/04/23 12:48:46.7      17   -275     51    276    281 176.4  10.6  34172  289.76 0854.60
2009/04/23 12:48:46.8      12   -274    -10    275    276 177.4  -2.2  34176  289.83 0854.60
2009/04/23 12:48:46.9    -100   -207    -86    231    246 205.9 -25.7  34172  289.76 0854.60
2009/04/23 12:48:47.0     -94   -169    -89    194    213 209.2 -31.0  34172  289.77 0854.60
2009/04/23 12:48:47.1    -112   -182    -64    214    223 211.6 -21.7  34172  289.79 0854.60
2009/04/23 12:48:47.2     -74   -188   -100    203    226 201.6 -32.2  34174  289.80 0854.60
2009/04/23 12:48:47.3     -88   -183    -75    204    217 205.6 -25.4  34174  289.82 0854.60
2009/04/23 12:48:47.4    -103   -188    -94    215    234 208.9 -29.5  34172  289.79 0854.60
2009/04/23 12:48:47.5    -151   -134   -112    203    231 228.4 -35.8  34176  289.84 0854.60
2009/04/23 12:48:47.6    -188   -113   -104    220    243 239.1 -31.6  34182  289.95 0854.60
2009/04/23 12:48:47.7    -186   -132    -20    229    230 234.5  -5.1  34178  289.89 0854.60
2009/04/23 12:48:47.8    -172   -123     41    212    217 234.3  11.1  34180  289.91 0854.60
2009/04/23 12:48:47.9    -126    -61    -45    141    148 244.2 -23.3  34180  289.91 0854.60
2009/04/23 12:48:48.0    -115    -90     -8    147    148 231.8  -3.1  34182  289.94 0854.60
2009/04/23 12:48:48.1     -46   -182     -4    188    189 194.3  -1.3  34178  289.87 0854.60
2009/04/23 12:48:48.2      -9   -259     22    260    262 182.0   5.0  34170  289.75 0854.60
2009/04/23 12:48:48.3       3   -233     41    234    238 179.1  10.1  34174  289.81 0854.60
2009/04/23 12:48:48.4     -61   -177    -17    188    189 199.2  -5.2  34168  289.72 0854.60
2009/04/23 12:48:48.5     -56   -142    -96    153    180 201.8 -39.6  34174  289.80 0854.60
2009/04/23 12:48:48.6     -21   -151    -83    153    174 188.0 -35.4  34174  289.80 0854.60
2009/04/23 12:48:48.7     -51   -178    -32    186    189 196.0  -9.8  34172  289.79 0854.60
2009/04/23 12:48:48.8     -51   -213    -33    220    223 193.6  -8.6  34172  289.79 0854.60
2009/04/23 12:48:48.9     -36   -198     -6    202    203 190.5  -1.8  34172  289.77 0854.60
2009/04/23 12:48:49.0      22   -183     13    185    186 172.9   4.2  34174  289.80 0854.60
2009/04/23 12:48:49.1      26   -173     -7    176    177 171.3  -2.3  34174  289.80 0854.60
2009/04/23 12:48:49.2      33   -146    -19    150    152 167.1  -7.3  34174  289.80 0854.60
2009/04/23 12:48:49.3       7    -90    -32     91     96 175.1 -23.3  34172  289.79 0854.60
2009/04/23 12:48:49.4     -42   -125    -42    132    138 198.7 -22.8  34172  289.79 0854.60
2009/04/23 12:48:49.5     -69   -136    -47    153    160 207.2 -22.3  34170  289.74 0854.60
2009/04/23 12:48:49.6     -48   -195    -41    201    206 194.0 -11.5  34172  289.77 0854.60
2009/04/23 12:48:49.7     -61   -220    -40    229    233 195.6 -10.1  34172  289.77 0854.60
2009/04/23 12:48:49.8     -16   -212    -27    213    215 184.5  -7.3  34166  289.67 0854.60
2009/04/23 12:48:49.9      52   -142     17    152    153 160.0   6.5  34168  289.72 0854.60
2009/04/23 12:48:50.0     124   -176     18    216    217 144.8   5.0  34170  289.74 0854.60
2009/04/23 12:48:50.1     125   -170    -46    212    218 143.7 -12.4  34168  289.72 0854.60
2009/04/23 12:48:50.2     148   -139   -103    204    228 133.3 -33.1  34170  289.74 0854.61
2009/04/23 12:48:50.3      87   -137    -96    163    189 147.4 -37.5  34172  289.77 0854.61
2009/04/23 12:48:50.4      66   -120    -58    138    149 151.1 -28.5  34172  289.79 0854.61
2009/04/23 12:48:50.5      22   -126    -24    129    132 169.8 -10.9  34170  289.74 0854.61
2009/04/23 12:48:50.6      41   -124    -31    131    135 161.7 -13.4  34170  289.75 0854.61
2009/04/23 12:48:50.7      74    -89    -40    116    122 140.4 -23.8  34174  289.80 0854.61
2009/04/23 12:48:50.8      81    -80    -58    114    127 134.6 -33.1  34172  289.79 0854.61
2009/04/23 12:48:50.9      97    -87    -97    131    163 132.2 -44.5  34172  289.79 0854.61
2009/04/23 12:48:51.0      71   -128    -82    147    168 151.1 -36.0  34172  289.79 0854.61
2009/04/23 12:48:51.1     112   -155    -98    192    215 144.2 -33.6  34172  289.79 0854.61
2009/04/23 12:48:51.2     118   -127   -118    174    210 137.0 -41.8  34170  289.74 0854.61
2009/04/23 12:48:51.3     130    -91    -74    159    175 125.1 -31.4  34174  289.80 0854.61
2009/04/23 12:48:51.4     160   -121    -48    201    207 127.1 -13.7  34172  289.77 0854.61
2009/04/23 12:48:51.5     157   -155    -60    221    230 134.7 -15.2  34170  289.74 0854.61
2009/04/23 12:48:51.6     180   -183   -125    258    286 135.5 -31.7  34172  289.78 0854.61
2009/04/23 12:48:51.7      99   -210   -138    233    270 154.6 -37.9  34172  289.76 0854.61
2009/04/23 12:48:51.8      79   -245   -135    258    291 162.0 -34.2  34168  289.71 0854.61
2009/04/23 12:48:51.9     104   -241   -180    263    318 156.6 -42.1  34170  289.73 0854.61
2009/04/23 12:48:52.0      66   -135   -150    151    212 153.7 -54.4  34168  289.72 0854.61
2009/04/23 12:48:52.1      33    -45   -152     56    161 143.9 -83.6  34176  289.85 0854.61
2009/04/23 12:48:52.2      13    -53    -90     55    105 165.7 -69.5  34178  289.87 0854.63
2009/04/23 12:48:52.3     -23   -142    -67    144    158 189.3 -31.0  34178  289.87 0854.63
2009/04/23 12:48:52.4      24   -142   -101    145    176 170.2 -43.0  34176  289.85 0854.63
2009/04/23 12:48:52.5      41   -186   -151    191    243 167.5 -46.8  34174  289.80 0854.63
2009/04/23 12:48:52.6     120   -217    -99    249    267 151.0 -27.4  34170  289.75 0854.63
2009/04/23 12:48:52.7     150   -226    -94    272    287 146.4 -24.3  34172  289.76 0854.63
2009/04/23 12:48:52.8     130   -254    -91    286    300 152.8 -22.8  34172  289.78 0854.63
2009/04/23 12:48:52.9      39   -263   -111    266    288 171.5 -28.5  34170  289.73 0854.63
2009/04/23 12:48:53.0      89   -270   -124    285    310 161.7 -29.5  34172  289.78 0854.63
2009/04/23 12:48:53.1     117   -233   -133    261    292 153.3 -33.6  34174  289.81 0854.63
2009/04/23 12:48:53.2     102   -161   -123    191    227 147.5 -40.0  34172  289.77 0854.63
2009/04/23 12:48:53.3      51   -167   -141    175    224 162.8 -47.9  34174  289.80 0854.63
2009/04/23 12:48:53.4      46   -174   -140    181    228 165.1 -46.1  34172  289.79 0854.63
2009/04/23 12:48:53.5     103   -150   -102    183    209 145.5 -35.8  34172  289.77 0854.63
2009/04/23 12:48:53.6      85   -103    -82    134    157 140.3 -38.8  34172  289.77 0854.63
2009/04/23 12:48:53.7      75    -91   -104    119    158 140.4 -50.2  34170  289.75 0854.63
2009/04/23 12:48:53.8      61   -100    -90    118    148 148.8 -46.0  34172  289.79 0854.63
2009/04/23 12:48:53.9      63   -136    -72    150    166 155.1 -31.7  34170  289.75 0854.63
2009/04/23 12:48:54.0      79   -193    -54    209    216 157.5 -14.5  34172  289.77 0854.63
2009/04/23 12:48:54.1      84   -157    -65    179    190 151.7 -24.8  34170  289.75 0854.63
2009/04/23 12:48:54.2      71   -139    -46    157    163 152.8 -21.2  34170  289.75 0854.64
2009/04/23 12:48:54.3     130   -133    -65    187    197 135.7 -24.4  34172  289.77 0854.64
2009/04/23 12:48:54.4     129   -137    -56    189    197 136.6 -21.2  34172  289.77 0854.64
2009/04/23 12:48:54.5     122   -154    -54    197    205 141.5 -15.4  34172  289.77 0854.64
2009/04/23 12:48:54.6     113   -155    -46    192    198 143.9 -13.7  34172  289.77 0854.64
2009/04/23 12:48:54.7      84   -151    -61    173    184 150.8 -19.7  34172  289.77 0854.64
2009/04/23 12:48:54.8      50   -158    -24    166    168 162.2  -8.2  34172  289.79 0854.64
2009/04/23 12:48:54.9       3   -186    -49    187    194 179.0 -14.7  34172  289.77 0854.64
2009/04/23 12:48:55.0      23   -155    -14    157    158 171.5  -5.4  34170  289.75 0854.64
2009/04/23 12:48:55.1      99   -193    -31    217    220 152.8  -8.2  34174  289.82 0854.64
2009/04/23 12:48:55.2      96   -211    -70    232    243 155.5 -17.0  34170  289.73 0854.64
2009/04/23 12:48:55.3       6   -214    -59    215    224 178.2 -15.5  34174  289.80 0854.64
2009/04/23 12:48:55.4     -19   -200    -55    201    209 185.6 -15.5  34170  289.74 0854.64
2009/04/23 12:48:55.5      -2   -131      0    132    133 180.9  -0.3  34172  289.79 0854.64
2009/04/23 12:48:55.6      -3   -191      3    192    193 181.1   1.0  34172  289.77 0854.64
2009/04/23 12:48:55.7      18   -236     33    237    240 175.6   8.0  34168  289.71 0854.64
2009/04/23 12:48:55.8      51   -238     54    244    251 167.7  12.6  34174  289.81 0854.64
2009/04/23 12:48:55.9      93   -196     16    218    219 154.5   4.4  34172  289.79 0854.64
2009/04/23 12:48:56.0      56   -188     19    197    198 163.5   5.7  34174  289.80 0854.64
2009/04/23 12:48:56.1      39   -174     21    179    181 167.3   6.7  34172  289.79 0854.64
2009/04/23 12:48:56.2     113   -196    -20    227    228 150.1  -5.2  34172  289.79 0854.63
2009/04/23 12:48:56.3     109   -222     -5    248    249 153.7  -1.3  34174  289.81 0854.63
2009/04/23 12:48:56.4      80   -270     19    282    283 163.5   3.9  34174  289.80 0854.63
2009/04/23 12:48:56.5      94   -289    -25    304    306 162.0  -4.9  34174  289.80 0854.63
2009/04/23 12:48:56.6     155   -263    -40    306    309 149.5  -7.5  34172  289.76 0854.63
2009/04/23 12:48:56.7      55   -270    107    276    296 168.4  22.5  34172  289.76 0854.63
2009/04/23 12:48:56.8      77   -279    -58    290    296 164.4 -11.3  34168  289.71 0854.63
2009/04/23 12:48:56.9      15   -246    -53    247    253 176.4 -12.2  34174  289.81 0854.63
2009/04/23 12:48:57.0     -68   -269     18    278    279 194.3   3.9  34174  289.80 0854.63
2009/04/23 12:48:57.1      92   -245    -33    262    265 159.3  -7.3  34176  289.83 0854.63
2009/04/23 12:48:57.2     107   -333    -36    350    352 162.1  -6.0  34172  289.77 0854.63
2009/04/23 12:48:57.3      85   -331    -44    342    345 165.6  -7.5  34176  289.84 0854.63
2009/04/23 12:48:57.4      46   -401    -12    404    405 173.4  -1.7  34174  289.82 0854.63
2009/04/23 12:48:57.5      46   -321    -51    325    330 171.8  -9.0  34174  289.81 0854.63
2009/04/23 12:48:57.6      50   -318    -40    322    325 171.0  -7.2  34178  289.86 0854.63
2009/04/23 12:48:57.7      61   -269    -72    276    286 167.1 -14.7  34176  289.85 0854.63
2009/04/23 12:48:57.8     -41   -267    -83    271    283 188.9 -22.1  34180  289.92 0854.63
2009/04/23 12:48:57.9     -54   -249    -87    255    269 192.4 -23.6  34178  289.88 0854.63
2009/04/23 12:48:58.0     -86   -237   -111    253    276 200.1 -29.6  34178  289.86 0854.63
2009/04/23 12:48:58.1     -61   -227   -150    236    279 195.1 -39.9  34178  289.86 0854.63
2009/04/23 12:48:58.2    -121   -204    -43    238    242 210.7 -10.3  34176  289.85 0854.63
2009/04/23 12:48:58.3    -114   -223    -48    251    256 207.2 -10.9  34178  289.88 0854.63
2009/04/23 12:48:58.4     -77   -254    -48    266    271 196.9 -10.3  34174  289.81 0854.63
2009/04/23 12:48:58.5     -57   -287    -31    293    295 191.3  -6.1  34174  289.80 0854.63
2009/04/23 12:48:58.6     -48   -207      0    213    214 193.1  -0.3  34174  289.80 0854.63
2009/04/23 12:48:58.7     -50   -189    -43    196    201 195.1 -12.4  34172  289.79 0854.63
2009/04/23 12:48:58.8     -48   -185    -38    192    196 194.5 -11.3  34172  289.77 0854.63
2009/04/23 12:48:58.9     -24   -185    -34    187    191 187.6 -10.3  34172  289.79 0854.63
2009/04/23 12:48:59.0     -36   -210     29    214    216 189.8   7.8  34172  289.79 0854.63
2009/04/23 12:48:59.1     -73   -223     87    235    250 198.3  21.0  34176  289.85 0854.63
2009/04/23 12:48:59.2     -98   -236     22    256    258 202.7   5.0  34174  289.81 0854.64
2009/04/23 12:48:59.3    -167   -229     -1    284    285 216.1  -0.3  34180  289.90 0854.64
2009/04/23 12:48:59.4    -148   -161    -27    219    221 222.5  -7.2  34176  289.84 0854.64
2009/04/23 12:48:59.5     -52   -130    -95    141    170 201.9 -41.7  34170  289.75 0854.64
2009/04/23 12:48:59.6     -59   -177    -98    187    211 198.5 -33.9  34170  289.75 0854.64
2009/04/23 12:48:59.7     -86   -210    -91    228    245 202.3 -27.4  34170  289.75 0854.64
2009/04/23 12:48:59.8     -55   -201    -81    209    224 195.4 -26.7  34172  289.79 0854.64
2009/04/23 12:48:59.9     -74   -185    -92    200    220 201.8 -31.0  34168  289.70 0854.64
2009/04/23 12:49:00.0     -45   -157    -82    164    183 196.0 -33.1  34170  289.74 0854.64
2009/04/23 12:49:00.1     -56   -140    -90    151    175 201.8 -38.4  34170  289.74 0854.64
2009/04/23 12:49:00.2     -43   -109    -96    118    152 201.8 -48.1  34170  289.75 0854.64
2009/04/23 12:49:00.3     -92    -92    -79    131    152 225.1 -38.8  34174  289.80 0854.64
2009/04/23 12:49:00.4    -127   -112    -94    170    194 228.7 -35.8  34172  289.77 0854.64
2009/04/23 12:49:00.5    -145    -84    -77    168    184 239.8 -30.8  34172  289.77 0854.64
2009/04/23 12:49:00.6    -153   -102   -118    185    219 236.3 -39.9  34168  289.70 0854.64
2009/04/23 12:49:00.7    -207    -97    -98    229    249 244.8 -29.0  34174  289.81 0854.64
2009/04/23 12:49:00.8    -169   -139    -92    219    237 230.5 -28.5  34174  289.80 0854.64
2009/04/23 12:49:00.9    -152   -139    -82    207    222 227.6 -27.4  34174  289.80 0854.64
2009/04/23 12:49:01.0    -155   -143    -64    212    221 227.3 -21.7  34174  289.82 0854.64
2009/04/23 12:49:01.1    -190   -201    -82    277    289 223.3 -16.5  34176  289.83 0854.64
2009/04/23 12:49:01.2    -183   -171    -81    251    264 226.9 -18.1  34174  289.80 0854.64
2009/04/23 12:49:01.3    -126   -182    -96    222    241 214.7 -29.3  34170  289.75 0854.64
2009/04/23 12:49:01.4    -165   -119    -98    204    226 234.3 -31.7  34172  289.77 0854.64
2009/04/23 12:49:01.5    -181   -140   -107    229    252 232.3 -31.5  34170  289.75 0854.64
2009/04/23 12:49:01.6    -178   -117   -132    214    251 236.7 -39.4  34170  289.73 0854.64
2009/04/23 12:49:01.7    -205    -94   -134    226    262 245.2 -37.9  34172  289.78 0854.64
2009/04/23 12:49:01.8    -178   -157   -123    238    267 228.4 -33.7  34168  289.71 0854.64
2009/04/23 12:49:01.9    -205   -165    -74    264    274 231.1 -20.4  34172  289.78 0854.64
2009/04/23 12:49:02.0    -224   -129    -73    259    269 240.0 -20.7  34174  289.80 0854.64
2009/04/23 12:49:02.1    -209   -114    -85    239    254 241.4 -19.6  34168  289.71 0854.64
2009/04/23 12:49:02.2    -212    -84    -79    229    242 248.3 -24.3  34172  289.78 0854.64
2009/04/23 12:49:02.3    -216    -89    -93    234    251 247.4 -27.2  34172  289.76 0854.64
2009/04/23 12:49:02.4    -190   -121   -123    226    257 237.5 -35.4  34174  289.80 0854.64
2009/04/23 12:49:02.5    -179    -84    -98    198    220 244.7 -32.6  34172  289.77 0854.64
2009/04/23 12:49:02.6    -202    -68   -122    214    246 251.4 -36.8  34172  289.76 0854.64
2009/04/23 12:49:02.7    -214    -73   -121    227    257 251.2 -34.7  34174  289.80 0854.64
2009/04/23 12:49:02.8    -179    -58   -130    189    229 251.8 -42.0  34172  289.77 0854.64
2009/04/23 12:49:02.9    -158    -32   -119    162    201 258.6 -44.3  34172  289.79 0854.64
2009/04/23 12:49:03.0    -190     -3    -93    191    212 269.0 -32.2  34170  289.75 0854.64
2009/04/23 12:49:03.1    -231     -1    -68    232    241 269.6 -21.2  34172  289.76 0854.64
2009/04/23 12:49:03.2    -217    -16    -72    218    229 265.6 -23.8  34170  289.75 0854.64
2009/04/23 12:49:03.3    -222    -18    -75    223    236 265.2 -18.6  34170  289.75 0854.64
2009/04/23 12:49:03.4    -250    -13    -68    251    261 267.0 -15.2  34176  289.83 0854.64
2009/04/23 12:49:03.5    -253    -35    -65    256    265 262.1 -14.4  34172  289.76 0854.64
2009/04/23 12:49:03.6    -245     -3    -78    246    258 269.2 -22.8  34174  289.80 0854.64
2009/04/23 12:49:03.7    -244      8   -100    245    264 271.9 -27.5  34172  289.78 0854.64
2009/04/23 12:49:03.8    -265     41   -110    269    290 278.8 -27.8  34170  289.73 0854.64
2009/04/23 12:49:03.9    -251    -27    -90    253    269 263.8 -19.7  34178  289.86 0854.64
2009/04/23 12:49:04.0    -210    -16    -86    211    227 265.6 -27.5  34176  289.85 0854.64
2009/04/23 12:49:04.1    -189      4    -78    190    205 271.3 -28.0  34176  289.85 0854.64
2009/04/23 12:49:04.2     -97      4    -31     98    103 272.6 -17.6  34176  289.85 0854.64
2009/04/23 12:49:04.3     -67    -35     -8     76     77 242.0  -6.2  34182  289.94 0854.64
2009/04/23 12:49:04.4     -11    -18    -38     22     43 210.7 -72.1  34180  289.91 0854.64
2009/04/23 12:49:04.5       0    -21    -11     22     24 180.9 -31.6  34182  289.96 0854.64
2009/04/23 12:49:04.6      -9      3     16     10     18 291.7  64.7  34182  289.96 0854.64
2009/04/23 12:49:04.7      18      6     16     19     24  71.6  45.8  34180  289.92 0854.64
2009/04/23 12:49:04.8      33     11     33     35     48  71.6  50.0  34180  289.92 0854.64
2009/04/23 12:49:04.9      37      1     26     38     46  87.4  37.6  34180  289.92 0854.64
2009/04/23 12:49:05.0      48      6     16     49     52  82.1  18.4  34180  289.91 0854.64
2009/04/23 12:49:05.1      58     38     -3     70     71  56.7  -3.1  34180  289.91 0854.64
2009/04/23 12:49:05.2      25     30    -16     40     43  39.6 -26.4  34180  289.92 0854.63
2009/04/23 12:49:05.3      27     29    -31     40     50  43.2 -47.1  34180  289.91 0854.63
2009/04/23 12:49:05.4      34     11    -47     36     59  71.4 -62.9  34182  289.94 0854.63
2009/04/23 12:49:05.5      60    -79    -83    100    129 143.0 -48.2  34176  289.85 0854.63
2009/04/23 12:49:05.6     101   -101   -113    143    182 135.0 -47.1  34176  289.84 0854.63
2009/04/23 12:49:05.7     103   -115   -105    155    187 138.1 -41.7  34176  289.84 0854.63
2009/04/23 12:49:05.8     110    -89   -167    142    219 129.1 -60.0  34172  289.79 0854.63
2009/04/23 12:49:05.9      63    -92   -148    112    185 145.7 -63.4  34176  289.84 0854.63
2009/04/23 12:49:06.0      80   -125    -65    149    162 147.4 -29.3  34172  289.79 0854.63
2009/04/23 12:49:06.1      71   -124    -49    144    153 150.1 -18.7  34170  289.75 0854.63
2009/04/23 12:49:06.2     109   -108    -72    154    170 134.9 -31.5  34172  289.79 0854.63
2009/04/23 12:49:06.3      99   -105    -96    145    173 136.8 -40.7  34174  289.80 0854.63
2009/04/23 12:49:06.4      83    -42    -77     94    121 117.1 -48.1  34174  289.80 0854.63
2009/04/23 12:49:06.5      87    -15    -97     89    131  99.7 -56.6  34174  289.82 0854.63
2009/04/23 12:49:06.6      44     -5    -84     45     95  97.0 -74.2  34176  289.84 0854.63
2009/04/23 12:49:06.7      47    -15    -56     50     75 108.6 -57.7  34174  289.80 0854.63
2009/04/23 12:49:06.8      92      0    -50     93    105  90.0 -35.2  34172  289.79 0854.63
2009/04/23 12:49:06.9     146    -17    -63    148    160  97.0 -28.7  34172  289.77 0854.63
2009/04/23 12:49:07.0     124     -1    -65    125    140  90.8 -33.7  34172  289.79 0854.63
2009/04/23 12:49:07.1     136    -31    -84    140    163 103.2 -38.4  34170  289.75 0854.63
2009/04/23 12:49:07.2     173    -21    -71    175    188  97.2 -27.5  34172  289.79 0854.63
2009/04/23 12:49:07.3     164    -32    -58    168    177 101.0 -24.0  34172  289.77 0854.63
2009/04/23 12:49:07.4     156    -51    -51    165    173 108.2 -17.3  34172  289.79 0854.63
2009/04/23 12:49:07.5     145     -2    -34    146    150  90.9 -13.3  34172  289.79 0854.63
2009/04/23 12:49:07.6     134     -4    -28    135    138  92.1 -11.9  34174  289.80 0854.63
2009/04/23 12:49:07.7      58     -4    -31     59     66  94.4 -34.7  34174  289.82 0854.63
2009/04/23 12:49:07.8      37    -24    -65     45     79 123.3 -66.5  34174  289.82 0854.63
2009/04/23 12:49:07.9      65    -13    -71     67     97 101.4 -55.6  34176  289.85 0854.63
2009/04/23 12:49:08.0     106    -16    -60    108    123  98.8 -35.8  34174  289.80 0854.63
2009/04/23 12:49:08.1     109    -51    -58    121    134 115.4 -31.7  34174  289.80 0854.63
2009/04/23 12:49:08.2     112    -52    -29    124    128 115.2 -13.4  34172  289.79 0854.63
2009/04/23 12:49:08.3     138     -8    -33    139    143  93.5 -13.4  34176  289.84 0854.63
2009/04/23 12:49:08.4     164      0    -53    165    174  90.0 -18.1  34176  289.85 0854.63
2009/04/23 12:49:08.5     125    -11    -20    126    128  95.2  -9.3  34178  289.89 0854.63
2009/04/23 12:49:08.6     166      4     -9    167    168  88.3  -3.3  34180  289.91 0854.63
2009/04/23 12:49:08.7     137     -9    -72    138    155  93.9 -34.2  34174  289.80 0854.63
2009/04/23 12:49:08.8     138      1    -64    139    153  89.2 -31.0  34178  289.87 0854.63
2009/04/23 12:49:08.9     136    -10    -22    137    139  94.4  -9.3  34194  290.14 0854.63
2009/04/23 12:49:09.0     154      0    -21    155    157  90.0  -7.7  34210  290.41 0854.63
2009/04/23 12:49:09.1     161     12     16    162    163  85.4   5.7  34212  290.45 0854.63
2009/04/23 12:49:09.2     144      5     -3    145    146  87.9  -1.3  34212  290.45 0854.65
2009/04/23 12:49:09.3      82    -22     54     86    101 105.5  35.5  34200  290.26 0854.65
2009/04/23 12:49:09.4     104     15     23    106    109  81.6  12.6  34200  290.26 0854.65
2009/04/23 12:49:09.5      74     55      4     93     94  53.6   2.9  34204  290.31 0854.65
2009/04/23 12:49:09.6      71     48    -33     87     93  55.8 -25.9  34202  290.30 0854.65
2009/04/23 12:49:09.7      99     47    -21    110    113  64.6 -10.9  34200  290.26 0854.65
2009/04/23 12:49:09.8     120     61    -44    135    143  63.0 -18.1  34196  290.18 0854.65
2009/04/23 12:49:09.9     112     52    -23    124    127  64.8 -10.9  34188  290.06 0854.65
2009/04/23 12:49:10.0     161      0     16    162    163  90.1   5.7  34192  290.11 0854.65
2009/04/23 12:49:10.1     146     -6     17    147    149  92.6   6.9  34200  290.26 0854.65
2009/04/23 12:49:10.2     136    -17     -9    138    139  97.5  -3.7  34194  290.16 0854.65
2009/04/23 12:49:10.3     128    -47    -18    137    139 110.4  -7.7  34182  289.94 0854.65
2009/04/23 12:49:10.4     129    -88    -45    157    164 124.2 -16.0  34186  290.02 0854.65
2009/04/23 12:49:10.5     120    -83    -40    147    153 124.6 -15.5  34192  290.11 0854.65
2009/04/23 12:49:10.6      86   -102    -46    134    141 139.9 -23.3  34188  290.04 0854.65
2009/04/23 12:49:10.7      93    -93    -36    132    138 135.0 -15.5  34182  289.96 0854.65
2009/04/23 12:49:10.8     149    -97    -38    179    184 123.1 -12.2  34186  290.01 0854.65
2009/04/23 12:49:11.0     103    -47    -33    114    118 114.8 -20.7  34184  289.97 0854.65
2009/04/23 12:49:11.0      47     30     53     56     77  57.5  49.0  34186  290.01 0854.65
2009/04/23 12:49:11.1      49     59     85     77    114  39.7  52.7  34192  290.11 0854.65
2009/04/23 12:49:11.2      55    117     98    130    162  25.5  40.7  34190  290.08 0854.65
2009/04/23 12:49:11.3     138    144     83    200    216  43.7  23.6  34230  290.77 0854.65
2009/04/23 12:49:11.5     162    124     39    205    209  52.5  11.0  34220  290.60 0854.65
2009/04/23 12:49:11.6     126     96     45    159    166  52.7  15.8  34234  290.84 0854.65
2009/04/23 12:49:11.7     109     74     84    132    156  55.8  35.5  34236  290.86 0854.65
2009/04/23 12:49:11.8      95     81     71    126    144  49.6  31.4  34236  290.87 0854.65
2009/04/23 12:49:11.9      88     54     77    104    129  58.5  40.1  34238  290.89 0854.65
2009/04/23 12:49:12.0      79     79     62    113    128  45.0  31.3  34230  290.75 0854.65
2009/04/23 12:49:12.1      35    116     84    122    148  16.9  37.6  34228  290.72 0854.65
2009/04/23 12:49:12.2      53    110     70    123    141  25.9  31.9  34212  290.47 0854.65
2009/04/23 12:49:12.3      63    103     73    121    141  31.6  34.0  34218  290.57 0854.65
2009/04/23 12:49:12.4      98    117     75    153    170  40.1  28.0  34216  290.52 0854.65
2009/04/23 12:49:12.5     105    127     43    166    172  39.6  14.5  34226  290.70 0854.65
2009/04/23 12:49:12.6     124     96     47    158    165  52.2  16.6  34250  291.09 0854.65
2009/04/23 12:49:12.7     158    120     70    199    211  52.7  19.4  34262  291.32 0854.65
2009/04/23 12:49:12.8     164    129     16    209    210  51.8   4.4  34258  291.25 0854.65
2009/04/23 12:49:12.9     138    119     12    183    184  49.3   3.8  34260  291.28 0854.65
2009/04/23 12:49:13.0     153     43     67    160    173  74.1  23.8  34288  291.76 0854.65
2009/04/23 12:49:13.1     131     83     41    156    162  57.6  15.0  34284  291.67 0854.65
2009/04/23 12:49:13.2     100     68     29    121    125  55.8  13.7  34278  291.59 0854.65
2009/04/23 12:49:13.3      89     73      5    116    117  50.5   2.9  34266  291.38 0854.65
2009/04/23 12:49:13.4      45     62     36     77     85  36.1  26.6  34270  291.45 0854.65
2009/04/23 12:49:13.5      36     75     58     84    102  25.9  38.6  34256  291.21 0854.65
2009/04/23 12:49:13.6      66     79     88    104    136  40.1  44.3  34238  290.89 0854.65
2009/04/23 12:49:13.7     160     70     90    175    196  66.3  29.3  34248  291.08 0854.65
2009/04/23 12:49:13.8     124    102     57    161    170  50.5  20.0  34250  291.11 0854.65
2009/04/23 12:49:13.9     121     77     53    144    153  57.5  20.9  34264  291.35 0854.65
2009/04/23 12:49:14.0     130     79     48    153    161  58.9  17.7  34242  290.98 0854.65
2009/04/23 12:49:14.1     165     91     34    189    193  61.1  10.3  34196  290.18 0854.65
2009/04/23 12:49:14.2     193     77     54    208    216  68.2  14.7  34192  290.11 0854.65
2009/04/23 12:49:14.3     207    108     26    234    236  62.5   6.5  34198  290.22 0854.65
2009/04/23 12:49:14.4     165     67     15    179    180  67.8   4.9  34210  290.43 0854.65
2009/04/23 12:49:14.5     147     91     48    173    180  58.2  15.8  34202  290.30 0854.65
2009/04/23 12:49:14.6     181     63     -7    192    193  70.7  -2.2  34208  290.38 0854.65
2009/04/23 12:49:14.7     198     30     11    201    202  81.2   3.1  34200  290.25 0854.65
2009/04/23 12:49:14.8     218     62     53    227    234  74.1  13.2  34224  290.65 0854.65
2009/04/23 12:49:14.9     236     81     35    250    253  70.9   8.0  34220  290.59 0854.65
2009/04/23 12:49:15.0     193      8     89    194    213  87.6  26.6  34222  290.64 0854.65
2009/04/23 12:49:15.1     217     13     90    218    235  86.5  23.8  34214  290.50 0854.65
2009/04/23 12:49:15.2     242     54     90    249    265  77.4  19.9  34202  290.29 0854.65
2009/04/23 12:49:15.3     199     32     71    202    215  80.8  19.4  34210  290.41 0854.65
2009/04/23 12:49:15.4     176    -12     16    177    178  93.9   5.4  34220  290.58 0854.65
2009/04/23 12:49:15.5     170    -44     17    176    177 104.8   5.7  34242  290.96 0854.65
2009/04/23 12:49:15.6     148    -55      1    158    159 110.4   0.5  34246  291.03 0854.65
2009/04/23 12:49:15.7     182    -68     48    195    201 110.6  13.9  34212  290.45 0854.65
2009/04/23 12:49:15.8     193    -54     73    201    213 105.7  20.7  34218  290.57 0854.65
2009/04/23 12:49:15.9     149    -73     59    167    177 116.2  20.2  34252  291.15 0854.65
2009/04/23 12:49:16.0     122   -101     25    159    162 129.6   9.0  34254  291.18 0854.65
2009/04/23 12:49:16.1     105    -79     41    132    139 126.9  17.4  34238  290.91 0854.65
2009/04/23 12:49:16.2     102    -97     38    142    148 133.6  15.2  34248  291.06 0854.65
2009/04/23 12:49:16.3      68    -95     42    117    124 144.4  20.0  34256  291.20 0854.65
2009/04/23 12:49:16.4      95    -88     14    130    131 132.7   6.5  34246  291.03 0854.65
2009/04/23 12:49:16.5     155    -98     -7    184    185 122.2  -2.2  34236  290.87 0854.65
2009/04/23 12:49:16.6     129    -93     -5    160    161 126.0  -2.1  34238  290.91 0854.65
2009/04/23 12:49:16.7      95   -101    -40    139    144 136.8 -21.2  34244  290.99 0854.65
2009/04/23 12:49:16.8      79    -84    -33    116    120 136.7 -20.2  34240  290.94 0854.65
2009/04/23 12:49:16.9      69    -83    -43    109    117 140.4 -26.9  34240  290.94 0854.65
2009/04/23 12:49:17.0      71   -111    -12    132    133 147.4  -5.6  34244  290.99 0854.65
2009/04/23 12:49:17.1      81   -116     -7    142    143 144.8  -3.1  34248  291.06 0854.65
2009/04/23 12:49:17.2     114   -100    -25    152    155 131.3  -9.3  34244  291.01 0854.62
2009/04/23 12:49:17.3     124   -102     -6    161    162 129.5  -2.2  34240  290.94 0854.62
2009/04/23 12:49:17.4     103    -89    -38    137    143 130.9 -15.5  34242  290.98 0854.62
2009/04/23 12:49:17.5      82    -84    -28    118    122 135.9 -13.3  34244  290.99 0854.62
2009/04/23 12:49:17.6      48    -99      3    111    112 154.1   1.8  34250  291.09 0854.62
2009/04/23 12:49:17.7      56   -104     -4    119    120 151.5  -2.2  34248  291.08 0854.62
2009/04/23 12:49:17.8      48    -93     -4    105    106 152.4  -2.2  34246  291.03 0854.62
2009/04/23 12:49:17.9      42   -100      5    109    110 156.8   2.8  34242  290.98 0854.62
2009/04/23 12:49:18.0      40    -95      8    104    105 157.3   4.9  34238  290.91 0854.62
2009/04/23 12:49:18.1      32    -91      3     97     98 160.4   1.8  34240  290.92 0854.62
2009/04/23 12:49:18.2      41    -72     33     84     90 150.1  22.0  34238  290.89 0854.62
2009/04/23 12:49:18.3      22    -92     49     95    106 166.6  29.8  34232  290.81 0854.62
2009/04/23 12:49:18.4      19   -100     53    102    114 168.9  29.8  34216  290.53 0854.62
2009/04/23 12:49:18.5       7   -113     40    114    121 176.4  19.4  34222  290.64 0854.62
2009/04/23 12:49:18.6      10   -131     58    132    144 175.5  25.2  34188  290.04 0854.62
2009/04/23 12:49:18.7      35   -129     69    134    150 164.4  29.3  34172  289.79 0854.62
2009/04/23 12:49:18.8      53   -145     62    155    166 159.9  23.0  34180  289.91 0854.62
2009/04/23 12:49:18.9      46   -123     52    132    141 159.5  23.0  34178  289.89 0854.62
2009/04/23 12:49:19.0      37   -109     41    116    123 161.3  20.0  34176  289.85 0854.62
2009/04/23 12:49:19.1       0   -121     38    122    128 180.0  17.3  34190  290.08 0854.62
2009/04/23 12:49:19.2     -12   -132     16    133    135 185.3   7.1  34218  290.57 0854.62
2009/04/23 12:49:19.3      -1   -119     -6    120    121 180.9  -3.2  34220  290.58 0854.62
2009/04/23 12:49:19.4      -1   -109     21    110    113 180.9  11.1  34196  290.19 0854.62
2009/04/23 12:49:19.5       2   -114     49    115    125 179.0  24.6  34174  289.82 0854.62
2009/04/23 12:49:19.6       5   -113     46    114    122 177.3  23.0  34172  289.79 0854.62
2009/04/23 12:49:19.7       7    -95     49     96    107 175.5  28.2  34176  289.84 0854.62
2009/04/23 12:49:19.8       2    -85     44     86     96 178.2  29.3  34176  289.84 0854.62
2009/04/23 12:49:19.9      23    -86     50     90    102 164.9  31.4  34174  289.82 0854.62
2009/04/23 12:49:20.0      22    -71     49     75     89 162.2  36.0  34176  289.84 0854.62
2009/04/23 12:49:20.1       2    -85     44     86     96 178.2  29.3  34176  289.84 0854.62
2009/04/23 12:49:20.2      -1    -78     40     79     88 180.9  28.2  34174  289.82 0854.63
2009/04/23 12:49:20.3      32    -88     72     94    118 160.0  41.6  34174  289.82 0854.63
2009/04/23 12:49:20.4      18   -104     51    106    117 170.2  27.2  34176  289.85 0854.63
2009/04/23 12:49:20.5       8   -102     42    103    111 175.5  23.1  34176  289.85 0854.63
2009/04/23 12:49:20.6      13   -105     67    106    125 172.9  35.5  34176  289.84 0854.63
2009/04/23 12:49:20.7      27   -101     61    105    121 164.8  32.9  34176  289.85 0854.63
2009/04/23 12:49:20.8      25    -92     65     96    115 164.9  36.5  34174  289.80 0854.63
2009/04/23 12:49:20.9       8    -93     50     94    106 174.7  30.8  34176  289.84 0854.63
2009/04/23 12:49:21.0      13    -90     49     92    104 171.5  30.8  34178  289.87 0854.63
2009/04/23 12:49:21.1      15    -92     49     94    106 170.2  29.8  34178  289.89 0854.63
2009/04/23 12:49:21.2      -8   -108     21    109    112 184.5  11.1  34178  289.89 0854.63
2009/04/23 12:49:21.3      -1   -100     35    101    107 181.0  19.2  34178  289.87 0854.63
2009/04/23 12:49:21.4      -7    -98     26     99    103 184.4  15.2  34178  289.87 0854.63
2009/04/23 12:49:21.5      -8   -116     31    117    122 184.4  15.2  34182  289.94 0854.63
2009/04/23 12:49:21.6      -9   -118     65    119    135 184.4  31.4  34180  289.92 0854.63
2009/04/23 12:49:21.7     -16    -99     72    101    124 189.3  39.1  34178  289.89 0854.63
2009/04/23 12:49:21.8     -21   -122     67    124    140 189.8  31.3  34178  289.87 0854.63
2009/04/23 12:49:21.9     -16   -113     86    115    143 188.1  40.1  34180  289.91 0854.63
2009/04/23 12:49:22.0       9   -102     81    103    131 174.7  42.7  34182  289.94 0854.63
2009/04/23 12:49:22.1      25   -105     68    108    127 166.6  35.5  34180  289.92 0854.63
2009/04/23 12:49:22.2      19   -124     87    126    153 171.1  37.6  34184  289.97 0854.64
2009/04/23 12:49:22.3      -7   -145     66    146    160 183.1  25.9  34178  289.87 0854.64
2009/04/23 12:49:22.4     -11   -146     75    147    165 184.4  29.3  34174  289.82 0854.64
2009/04/23 12:49:22.5     -12   -158     79    159    177 184.4  28.2  34176  289.85 0854.64
2009/04/23 12:49:22.6       0   -170     87    171    191 180.0  28.7  34178  289.87 0854.64
2009/04/23 12:49:22.7      -2   -154    112    155    191 181.0  39.5  34178  289.89 0854.64
2009/04/23 12:49:22.8     -17   -159    122    160    201 186.2  41.4  34174  289.82 0854.64
2009/04/23 12:49:22.9      16   -117     98    119    154 172.0  43.7  34176  289.85 0854.64
2009/04/23 12:49:23.0      15   -136     91    137    164 173.7  36.7  34178  289.87 0854.64
2009/04/23 12:49:23.1      19   -109    100    111    149 169.8  46.9  34176  289.85 0854.64
2009/04/23 12:49:23.2      23   -109    112    112    158 168.0  50.1  34178  289.89 0854.64
2009/04/23 12:49:23.3       7    -98    100     99    140 175.6  50.1  34180  289.91 0854.64
2009/04/23 12:49:23.4      15    -83     90     85    123 169.3  51.6  34182  289.94 0854.64
2009/04/23 12:49:23.5      13   -105     95    106    142 172.9  46.9  34184  289.99 0854.64
2009/04/23 12:49:23.6      24   -100     58    103    118 166.2  31.4  34184  289.99 0854.64
2009/04/23 12:49:23.7       7   -103     76    104    128 175.6  39.7  34184  289.97 0854.64
2009/04/23 12:49:23.8       8   -104     70    105    126 175.5  36.5  34186  290.01 0854.64
2009/04/23 12:49:23.9       7    -99     81    100    128 176.0  43.7  34182  289.94 0854.64
2009/04/23 12:49:24.0      16   -116     68    118    136 172.0  33.4  34184  289.99 0854.64
2009/04/23 12:49:24.1      11   -122     66    123    139 174.7  30.8  34186  290.01 0854.64
2009/04/23 12:49:24.2     -31   -114     74    119    140 195.2  35.5  34184  289.99 0854.65
2009/04/23 12:49:24.3     -56    -89     37    106    113 212.5  19.4  34184  289.99 0854.65
2009/04/23 12:49:24.4     -51   -106      2    118    119 205.9   1.2  34182  289.94 0854.65
2009/04/23 12:49:24.5     -23   -127     -5    130    131 190.2  -2.6  34176  289.85 0854.65
2009/04/23 12:49:24.6     -29   -123      0    127    128 193.4  -0.3  34178  289.89 0854.65
2009/04/23 12:49:24.7     -18   -104     13    106    107 189.8   7.1  34176  289.85 0854.65
2009/04/23 12:49:24.8      -4   -103     28    104    108 182.2  15.2  34178  289.89 0854.65
2009/04/23 12:49:24.9      -4    -86     29     87     92 183.1  18.9  34178  289.89 0854.65
2009/04/23 12:49:25.0       5    -67     34     68     76 175.6  28.2  34180  289.91 0854.65
2009/04/23 12:49:25.1      -7    -84     53     85    100 185.3  35.5  34186  290.02 0854.65
2009/04/23 12:49:25.2      -9    -63     44     64     77 188.9  37.6  34184  289.99 0854.65
2009/04/23 12:49:25.3      -3    -47     29     48     56 184.5  35.5  34186  290.02 0854.65
2009/04/23 12:49:25.4      -3    -46     42     47     63 184.5  47.9  34186  290.02 0854.65
2009/04/23 12:49:25.5     -15    -35     45     39     59 203.6  54.3  34188  290.04 0854.65
2009/04/23 12:49:25.6     -32    -50     58     60     83 212.5  50.0  34186  290.01 0854.65
2009/04/23 12:49:25.7     -32    -64     56     72     91 207.2  42.2  34186  290.02 0854.65
2009/04/23 12:49:25.8     -12    -73     62     75     97 189.8  43.8  34188  290.04 0854.65
2009/04/23 12:49:25.9     -18    -82     73     85    112 192.5  44.8  34188  290.04 0854.65
2009/04/23 12:49:26.0     -48    -98     82    110    137 206.3  40.7  34186  290.01 0854.65
2009/04/23 12:49:26.1     -32   -114     19    119    121 196.0   9.5  34182  289.94 0854.65
2009/04/23 12:49:26.2     -85   -134     30    159    162 212.5  10.8  34184  289.99 0854.65
2009/04/23 12:49:26.3     -52   -130     27    141    144 201.9  11.0  34182  289.96 0854.65
2009/04/23 12:49:26.4     -36   -121     16    127    129 196.5   7.5  34180  289.91 0854.65
2009/04/23 12:49:26.5     -61    -84     49    104    114 216.1  27.1  34182  289.94 0854.65
2009/04/23 12:49:26.6     -32    -60     64     69     94 208.1  48.5  34182  289.96 0854.65
2009/04/23 12:49:26.7      13    -54     54     56     77 165.7  51.1  34184  289.99 0854.65
2009/04/23 12:49:26.8      48    -45     74     66     99 133.1  53.3  34190  290.08 0854.65
2009/04/23 12:49:26.9      41    -33     33     53     62 128.6  35.5  34186  290.02 0854.65
2009/04/23 12:49:27.0       2    -36     50     37     62 175.6  60.5  34188  290.04 0854.65
2009/04/23 12:49:27.1     -25    -22     46     34     57 228.7  59.4  34188  290.04 0854.65
2009/04/23 12:49:27.2     -15    -31     45     35     57 207.2  57.5  34188  290.06 0854.65
2009/04/23 12:49:27.3     -13    -43     49     45     66 196.9  52.2  34188  290.06 0854.65
2009/04/23 12:49:27.4       0    -43     49     44     65 179.1  52.2  34188  290.04 0854.65
2009/04/23 12:49:27.5      10    -25     62     27     67 158.2  76.1  34190  290.08 0854.65
2009/04/23 12:49:27.6      27     -9     54     29     61 108.6  68.9  34192  290.11 0854.65
2009/04/23 12:49:27.7     -32     15     76     36     84 295.4  72.9  34192  290.11 0854.65
2009/04/23 12:49:27.8      -1     66     63     67     91 359.0  48.5  34192  290.11 0854.65
2009/04/23 12:49:27.9      -7      2     60      8     60 288.6  90.0  34188  290.06 0854.65
2009/04/23 12:49:28.0     -26    -69     69     74    101 200.9  47.9  34182  289.96 0854.65
2009/04/23 12:49:28.1      11    -55     87     57    104 168.4  64.1  34186  290.02 0854.65
2009/04/23 12:49:28.2      29    -46     79     55     96 147.5  62.1  34186  290.01 0854.65
2009/04/23 12:49:28.3     -11    -54     77     56     95 191.6  60.5  34186  290.02 0854.65
2009/04/23 12:49:28.4       1    -61     77     62     98 179.0  56.4  34186  290.02 0854.65
2009/04/23 12:49:28.5      36    -37     80     52     95 135.8  64.6  34188  290.06 0854.65
2009/04/23 12:49:28.6      -3   -100     91    101    135 181.8  46.9  34184  289.99 0854.65
2009/04/23 12:49:28.7     -11    -91     83     92    123 187.1  47.5  34184  289.97 0854.65
2009/04/23 12:49:28.8       0    -80     75     81    110 180.4  47.9  34186  290.02 0854.65
2009/04/23 12:49:28.9      56     -4     96     57    111  94.4  66.8  34192  290.13 0854.65
2009/04/23 12:49:29.0      18    -51     94     55    108 160.8  67.2  34186  290.01 0854.65
2009/04/23 12:49:29.1      26    -87    115     92    147 163.1  56.4  34186  290.01 0854.65
2009/04/23 12:49:29.2      -2   -106    153    107    186 181.4  61.5  34188  290.06 0854.65
2009/04/23 12:49:29.3       5    -61    136     62    149 174.7  73.1  34192  290.13 0854.65
2009/04/23 12:49:29.4     -68    -97    111    119    162 215.2  48.2  34182  289.96 0854.65
2009/04/23 12:49:29.5     -86   -135     89    161    183 212.5  31.4  34180  289.91 0854.65
2009/04/23 12:49:29.6     -36   -110    127    116    172 198.3  53.0  34182  289.94 0854.65
2009/04/23 12:49:29.7     -68   -142     56    158    168 205.9  19.6  34178  289.87 0854.65
2009/04/23 12:49:29.8     -67   -123     34    141    146 208.5  13.7  34176  289.85 0854.65
2009/04/23 12:49:29.9     -68   -136     54    153    163 206.7  19.4  34178  289.89 0854.65
2009/04/23 12:49:30.0     -27   -133     26    136    139 191.6  11.0  34182  289.94 0854.65
2009/04/23 12:49:30.1     -28   -120     61    124    138 193.3  27.3  34180  289.92 0854.65
2009/04/23 12:49:30.2     -51   -177     64    185    196 196.3  19.2  34180  289.91 0854.65
2009/04/23 12:49:30.3     -22   -169     66    171    183 187.6  22.0  34180  289.91 0854.65
2009/04/23 12:49:30.4     -47   -143    136    151    203 198.3  46.9  34178  289.89 0854.65
2009/04/23 12:49:30.5     -17   -177     84    178    196 185.6  27.1  34176  289.85 0854.65
2009/04/23 12:49:30.6     -49   -135     75    144    162 200.0  29.5  34180  289.92 0854.65
2009/04/23 12:49:30.7     -45   -113     87    122    149 201.9  39.5  34182  289.96 0854.65
2009/04/23 12:49:30.8     -74   -117     87    139    163 212.6  35.2  34180  289.91 0854.65
2009/04/23 12:49:30.9     -60   -132     92    146    172 204.5  35.5  34180  289.92 0854.65
2009/04/23 12:49:31.0     -71   -145     90    162    185 206.3  31.4  34184  289.97 0854.65
2009/04/23 12:49:31.1     -46   -141    114    149    187 198.3  41.2  34182  289.96 0854.65
2009/04/23 12:49:31.2     -49   -149    128    157    202 198.3  43.7  34186  290.02 0854.65
2009/04/23 12:49:31.3     -57   -139    141    151    206 202.3  47.9  34180  289.92 0854.65
2009/04/23 12:49:31.4     -64   -137     74    152    169 204.9  27.8  34182  289.96 0854.65
2009/04/23 12:49:31.5     -72   -145     29    163    166 206.5  10.1  34178  289.89 0854.65
2009/04/23 12:49:31.6     -63   -133     29    148    151 205.5  11.1  34180  289.92 0854.65
2009/04/23 12:49:31.7     -50   -115     80    126    149 203.7  35.5  34184  289.99 0854.65
2009/04/23 12:49:31.8     -61   -120    103    135    169 207.2  41.4  34184  289.97 0854.65
2009/04/23 12:49:31.9     -49   -104     97    116    151 205.4  43.8  34186  290.01 0854.65
2009/04/23 12:49:32.0      -5    -61    109     62    125 185.3  67.7  34186  290.01 0854.65
2009/04/23 12:49:32.1     -13    -38     54     41     67 200.0  59.4  34188  290.06 0854.65
2009/04/23 12:49:32.2      15    -15     39     22     44 134.9  67.7  34192  290.11 0854.65
2009/04/23 12:49:32.3      34      3     47     35     58  83.9  59.4  34186  290.02 0854.65
2009/04/23 12:49:32.4       2    -42    118     43    125 177.3  79.7  34190  290.08 0854.65
2009/04/23 12:49:32.5     -73   -136     83    155    175 208.1  30.6  34180  289.92 0854.65
2009/04/23 12:49:32.6     -79   -143     47    164    171 209.2  16.3  34178  289.89 0854.65
2009/04/23 12:49:32.7     -55   -154     45    164    171 199.8  15.6  34180  289.91 0854.65
2009/04/23 12:49:32.8     -56   -170     36    180    184 198.3  11.4  34182  289.96 0854.65
2009/04/23 12:49:32.9     -54   -155     51    165    173 199.4  17.3  34182  289.94 0854.65
2009/04/23 12:49:33.0     -41   -137     39    144    150 196.9  15.3  34182  289.94 0854.65
2009/04/23 12:49:33.1     -61   -104     37    121    127 210.3  17.3  34182  289.94 0854.65
2009/04/23 12:49:33.2     -30    -91     65     97    116 198.5  36.5  34184  289.97 0854.65
2009/04/23 12:49:33.4     -24    -92     49     96    107 195.1  28.2  34182  289.94 0854.65
2009/04/23 12:49:33.4      -8    -63     76     64     99 188.0  55.8  34184  289.97 0854.65
2009/04/23 12:49:33.5     -12    -88     34     89     95 188.0  21.0  34182  289.96 0854.65
2009/04/23 12:49:33.6     -13    -37     15     40     42 200.0  21.0  34182  289.94 0854.65
2009/04/23 12:49:33.7      22     -7     42     24     48 108.2  66.8  34186  290.02 0854.65
2009/04/23 12:49:33.8      16     -5     37     17     40 108.6  74.0  34192  290.11 0854.65
2009/04/23 12:49:33.9     -13    -94    102     95    139 188.0  52.2  34188  290.06 0854.65
2009/04/23 12:49:34.0     -24    -92    123     96    156 195.1  58.4  34190  290.08 0854.65
2009/04/23 12:49:34.1     -15    -24     77     29     82 212.6  78.6  34194  290.14 0854.65
2009/04/23 12:49:34.2      10      0     41     11     42  90.0  84.9  34200  290.26 0854.65
2009/04/23 12:49:34.3      17      0     31     18     35  90.0  64.7  34200  290.26 0854.65
2009/04/23 12:49:34.4       0     -7     38      8     38 175.5  89.0  34194  290.16 0854.65
2009/04/23 12:49:34.5     -31    -13     35     34     48 246.5  49.1  34192  290.13 0854.65
2009/04/23 12:49:34.6     -18     -7     29     20     35 248.3  64.6  34190  290.08 0854.65
2009/04/23 12:49:34.7     -21     -7      3     23     24 251.4   9.0  34190  290.09 0854.65
2009/04/23 12:49:34.8       0      3     -3      4      5 350.3 -56.4  34190  290.09 0854.65
2009/04/23 12:49:34.9      23     10     -9     26     27  66.5 -23.6  34190  290.09 0854.65
2009/04/23 12:49:35.0      24      9     -9     26     27  68.3 -23.6  34190  290.09 0854.65
2009/04/23 12:49:35.1       8      0    -17      9     19  85.6 -73.2  34194  290.14 0854.65
2009/04/23 12:49:35.2      24      4    -16     25     29  80.3 -39.9  34192  290.13 0854.65
2009/04/23 12:49:35.3      27      9    -13     29     31  71.4 -31.5  34192  290.11 0854.65
2009/04/23 12:49:35.4      30     -9    -17     32     36 108.2 -33.7  34196  290.19 0854.65
2009/04/23 12:49:35.5      19    -20    -34     28     44 136.6 -59.8  34192  290.13 0854.65
2009/04/23 12:49:35.6      14    -39    -59     42     72 159.1 -65.0  34188  290.06 0854.65
2009/04/23 12:49:35.7      48    -41    -34     64     72 130.4 -34.7  34190  290.09 0854.65
2009/04/23 12:49:35.8      98    -45      5    109    110 114.8   2.9  34192  290.13 0854.65
2009/04/23 12:49:35.9     108    -19     13    110    111 100.1   6.9  34188  290.06 0854.65
2009/04/23 12:49:36.0     105    -22     43    108    116 101.9  23.0  34188  290.04 0854.65
2009/04/23 12:49:36.1      83    -28     57     88    104 108.6  35.6  34188  290.04 0854.65
2009/04/23 12:49:36.2      52    -39     71     66     96 126.9  51.6  34188  290.06 0854.65
2009/04/23 12:49:36.3      13    -13     62     19     64 136.6  81.8  34190  290.09 0854.65
2009/04/23 12:49:36.4       2      7     51      8     51  18.5  90.0  34192  290.13 0854.65
2009/04/23 12:49:36.5     -22     27     40     36     53 320.4  52.2  34198  290.21 0854.65
2009/04/23 12:49:36.6     -36     74     33     83     89 333.7  22.5  34188  290.04 0854.65
2009/04/23 12:49:36.7     -51     90     28    104    108 330.1  15.3  34184  289.97 0854.65
2009/04/23 12:49:36.8     -39     79     31     89     95 333.7  19.4  34184  289.99 0854.65
2009/04/23 12:49:36.9     -20    138     -7    140    141 351.5  -3.2  34192  290.13 0854.65
2009/04/23 12:49:37.1      33    174    -47    178    185  10.7 -15.0  34192  290.11 0854.65
2009/04/23 12:49:37.1      92    167    -26    191    193  28.9  -8.0  34192  290.11 0854.65
2009/04/23 12:49:37.3     -32    224     11    227    228 351.9   2.9  34206  290.36 0854.65
2009/04/23 12:49:37.3      86    247      7    262    263  19.2   1.7  34200  290.24 0854.65
2009/04/23 12:49:37.5      14     89     96     91    132   8.9  51.6  34208  290.40 0854.65
2009/04/23 12:49:37.5      46     38     79     60     99  50.4  59.4  34214  290.50 0854.65
2009/04/23 12:49:37.7      40     24     74     47     87  59.3  64.7  34218  290.55 0854.65
2009/04/23 12:49:37.7      82      6    121     83    146  85.6  62.1  34230  290.75 0854.65
2009/04/23 12:49:37.9     -63     35     89     73    115 298.8  56.4  34234  290.82 0854.65
2009/04/23 12:49:38.0     -11     53    145     55    155 348.4  79.1  34230  290.75 0854.65
2009/04/23 12:49:38.1      33     81    171     88    192  22.3  71.1  34218  290.55 0854.65
2009/04/23 12:49:38.2      91    234    189    252    315  21.4  40.7  34202  290.29 0854.65
2009/04/23 12:49:38.3      56    167    144    177    228  18.7  43.7  34202  290.30 0854.64
2009/04/23 12:49:38.4     146    125     91    193    213  49.3  27.2  34190  290.09 0854.64
2009/04/23 12:49:38.5     254    240    181    350    394  46.7  29.4  34202  290.30 0854.64
2009/04/23 12:49:38.6     140    351    113    379    396  21.8  16.6  34232  290.81 0854.64
2009/04/23 12:49:38.7      68    223     99    234    254  17.0  24.1  34212  290.46 0854.64
2009/04/23 12:49:38.8     114    326    158    346    380  19.3  26.4  34204  290.33 0854.64
2009/04/23 12:49:38.9     121    386    210    405    456  17.4  29.4  34214  290.50 0854.64
2009/04/23 12:49:39.0      34    436    141    438    461   4.6  17.9  34220  290.58 0854.64
2009/04/23 12:49:39.1      -8    368     95    369    382 358.6  14.5  34234  290.84 0854.64
2009/04/23 12:49:39.2     -76     82    165    113    199 317.2  62.6  34236  290.87 0854.64
2009/04/23 12:49:39.3     -66   -149    109    164    196 204.1  36.7  34232  290.79 0854.64
2009/04/23 12:49:39.4      49   -240    130    246    278 168.4  30.2  34230  290.75 0854.64
2009/04/23 12:49:39.5     215   -254    164    334    372 139.7  28.1  34232  290.81 0854.64
2009/04/23 12:49:39.6     275   -139    177    309    356 116.9  32.4  34224  290.66 0854.64
2009/04/23 12:49:39.7     210     16    229    211    311  85.6  52.2  34242  290.95 0854.64
2009/04/23 12:49:39.8     218   -163    107    273    293 126.9  23.0  34234  290.82 0854.64
2009/04/23 12:49:39.9     189   -113     39    221    225 120.9  10.1  34236  290.86 0854.64
2009/04/23 12:49:40.0     180    -66     81    192    208 110.2  24.1  34238  290.89 0854.64
2009/04/23 12:49:40.1     180     -3     95    181    204  91.0  30.1  34248  291.06 0854.64
2009/04/23 12:49:40.2     112   -121     94    166    190 137.2  31.9  34230  290.75 0854.64
2009/04/23 12:49:40.3     203   -171     71    266    276 130.2  15.0  34228  290.71 0854.64
2009/04/23 12:49:40.4     268   -201    104    336    352 126.9  17.2  34210  290.43 0854.64
2009/04/23 12:49:40.5     345    -48    151    349    380  97.9  25.1  34214  290.50 0854.64
2009/04/23 12:49:40.6     321     96    -26    336    338  73.4  -4.5  34218  290.55 0854.64
2009/04/23 12:49:40.7     392     30     19    394    395  85.6   2.8  34210  290.43 0854.64
2009/04/23 12:49:40.8     332   -225    -68    402    408 124.1  -9.7  34212  290.46 0854.64
2009/04/23 12:49:40.9     341   -199      7    396    397 120.3   1.1  34208  290.37 0854.64
2009/04/23 12:49:41.0     334   -140    154    363    394 112.7  24.3  34208  290.40 0854.64
2009/04/23 12:49:41.1     392    -53    137    396    420  97.8  19.1  34196  290.19 0854.64
2009/04/23 12:49:41.2     255     -6    126    256    285  91.5  28.2  34206  290.34 0854.63
2009/04/23 12:49:41.3     134     22    174    136    220  80.3  58.2  34204  290.33 0854.63
2009/04/23 12:49:41.4     205    192    255    281    379  46.9  47.0  34214  290.49 0854.63
2009/04/23 12:49:41.5     127      0    309    128    334  90.0  76.3  34216  290.53 0854.63
2009/04/23 12:49:41.6      85    147    232    171    288  30.1  60.3  34212  290.46 0854.63
2009/04/23 12:49:41.7     -84     69    159    110    193 309.5  62.4  34218  290.55 0854.63
2009/04/23 12:49:41.8     284     62    238    291    375  77.6  43.7  34218  290.57 0854.63
2009/04/23 12:49:41.9      86    190    106    209    234  24.3  29.1  34212  290.45 0854.63
2009/04/23 12:49:42.0     324     -4    151    325    358  90.8  26.9  34210  290.42 0854.63
2009/04/23 12:49:42.1     373    -89    165    384    417 103.5  24.6  34204  290.33 0854.63
2009/04/23 12:49:42.2     351    -78    212    360    417 102.6  33.4  34204  290.33 0854.63
2009/04/23 12:49:42.3     320   -182    230    369    434 119.7  34.9  34214  290.48 0854.63
2009/04/23 12:49:42.4     241   -171    238    296    379 125.3  43.1  34210  290.42 0854.63
2009/04/23 12:49:42.5     190      9    175    191    259  87.2  47.7  34210  290.42 0854.63
2009/04/23 12:49:42.6     235    190    152    303    338  51.1  28.6  34212  290.46 0854.63
2009/04/23 12:49:42.7     268    188    200    328    384  54.9  34.3  34208  290.37 0854.63
2009/04/23 12:49:42.8     147    223    133    268    299  33.4  28.2  34210  290.41 0854.63
2009/04/23 12:49:42.9      92    160    162    185    245  30.1  45.8  34206  290.36 0854.63
2009/04/23 12:49:43.0      77    238    163    251    299  18.0  36.0  34210  290.41 0854.63
2009/04/23 12:49:43.1      26    240     47    242    247   6.2  11.1  34222  290.61 0854.63
2009/04/23 12:49:43.2      13    279     97    280    297   2.7  19.2  34214  290.48 0854.62
2009/04/23 12:49:43.3     105    287     96    306    321  20.1  17.4  34224  290.65 0854.62
2009/04/23 12:49:43.4     125    160    146    204    250  38.1  39.1  34212  290.46 0854.62
2009/04/23 12:49:43.5     -14    282     14    283    284 357.1   2.9  34214  290.49 0854.62
2009/04/23 12:49:43.6      -9    296    104    297    315 358.2  19.4  34200  290.26 0854.62
2009/04/23 12:49:43.7     -84    249     51    263    268 341.3  11.0  34204  290.32 0854.62
2009/04/23 12:49:43.8      11    168     64    169    180   4.0  21.5  34204  290.31 0854.62
2009/04/23 12:49:43.9      44    158    124    165    206  15.6  40.9  34204  290.31 0854.62
2009/04/23 12:49:44.0      12    220     90    221    238   3.1  23.1  34200  290.26 0854.62
2009/04/23 12:49:44.1       4    218     75    219    232   1.1  18.9  34200  290.26 0854.62
2009/04/23 12:49:44.2      27    191     96    193    215   8.1  28.2  34200  290.26 0854.62
2009/04/23 12:49:44.3      10    159     84    160    180   3.6  30.1  34200  290.25 0854.62
2009/04/23 12:49:44.4     -14    121    -32    122    127 353.3 -15.0  34212  290.45 0854.62
2009/04/23 12:49:44.5     -42    -79     -8     90     91 208.5  -5.2  34206  290.36 0854.62
2009/04/23 12:49:44.6     -29     89    158     94    183 341.5  66.4  34212  290.45 0854.62
2009/04/23 12:49:44.7     100    -61    139    118    182 121.5  55.4  34212  290.47 0854.62
2009/04/23 12:49:44.8     -21     33    161     40    165 327.5  86.2  34224  290.65 0854.62
2009/04/23 12:49:44.9     -20     24     89     32     94 320.3  80.7  34218  290.57 0854.62
2009/04/23 12:49:45.0      65     30    173     72    187  64.6  76.3  34220  290.60 0854.62
2009/04/23 12:49:45.1     -39    -62    108     74    130 212.5  62.6  34218  290.55 0854.62
2009/04/23 12:49:45.2    -127    -33     98    132    164 255.4  40.4  34224  290.67 0854.63
2009/04/23 12:49:45.3    -124    121     77    174    190 314.4  25.7  34222  290.64 0854.63
2009/04/23 12:49:45.4    -208   -156     29    261    263 233.2   6.5  34254  291.17 0854.63
2009/04/23 12:49:45.5      37   -218     60    222    231 170.4  15.3  34228  290.72 0854.63
2009/04/23 12:49:45.6     133    -48    191    142    238 110.0  59.8  34224  290.67 0854.63
2009/04/23 12:49:45.7     -10     45     95     47    105 347.5  71.9  34222  290.62 0854.63
2009/04/23 12:49:45.8      16    -13    135     21    136 129.5  90.0  34216  290.52 0854.63
2009/04/23 12:49:45.9      52    -86    169    101    196 148.8  66.7  34212  290.47 0854.63
2009/04/23 12:49:46.0      73    -44    142     86    166 121.5  66.0  34210  290.41 0854.63
2009/04/23 12:49:46.1      82    -77     97    113    148 133.1  44.8  34206  290.35 0854.63
2009/04/23 12:49:46.2       8     12    -24     15     28  32.6 -69.1  34212  290.45 0854.63
2009/04/23 12:49:46.3      73     58     49     94    106  51.4  29.8  34210  290.43 0854.63
2009/04/23 12:49:46.4      88     -1     85     89    123  90.8  49.0  34210  290.41 0854.63
2009/04/23 12:49:46.5      65     16     80     68    104  75.8  55.4  34210  290.41 0854.63
2009/04/23 12:49:46.6      51     68     56     86    102  37.0  36.0  34208  290.38 0854.63
2009/04/23 12:49:46.7      24    -16      9     30     32 124.2  17.3  34210  290.41 0854.63
2009/04/23 12:49:46.8      41    -42     21     59     62 135.8  20.0  34208  290.38 0854.63
2009/04/23 12:49:46.9      49    -59     21     77     80 140.3  15.3  34204  290.33 0854.63
2009/04/23 12:49:47.0     109     48    107    120    160  66.0  46.4  34204  290.31 0854.63
2009/04/23 12:49:47.1     260    165    272    308    410  57.6  46.1  34196  290.18 0854.63
2009/04/23 12:49:47.2     279    182    314    334    458  56.9  48.0  34212  290.44 0854.63
2009/04/23 12:49:47.3     238    196    216    309    377  50.5  38.5  34202  290.28 0854.63
2009/04/23 12:49:47.4     290    145    222    325    393  63.4  37.6  34210  290.42 0854.63
2009/04/23 12:49:47.5     338    272    181    435    471  51.2  24.1  34212  290.46 0854.63
2009/04/23 12:49:47.6     479    245    161    539    563  62.9  16.7  34226  290.70 0854.63
2009/04/23 12:49:47.7     363    211    150    421    446  59.8  20.3  34242  290.97 0854.63
2009/04/23 12:49:47.8     350    228     58    418    423  56.9   8.0  34234  290.82 0854.63
2009/04/23 12:49:47.9     327    308     96    450    461  46.8  12.1  34238  290.90 0854.63
2009/04/23 12:49:48.0     398    283    173    489    519  54.6  19.5  34302  291.97 0854.63
2009/04/23 12:49:48.1     374    156    163    406    437  67.3  23.0  34258  291.24 0854.63
2009/04/23 12:49:48.2     308     41    104    311    329  82.3  18.6  34248  291.05 0854.63
2009/04/23 12:49:48.3     434     99    132    446    466  77.1  16.5  34216  290.53 0854.63
2009/04/23 12:49:48.4     625    120    366    637    734  79.1  32.4  34218  290.57 0854.63
2009/04/23 12:49:48.5     470    222      8    520    521  64.7   0.9  34196  290.19 0854.63
2009/04/23 12:49:48.6     419    272    111    500    513  57.0  12.6  34202  290.27 0854.63
2009/04/23 12:49:48.7     469    342    263    581    637  53.9  26.0  34220  290.59 0854.63
2009/04/23 12:49:48.8     502    261    240    566    614  62.5  24.5  34190  290.07 0854.63
2009/04/23 12:49:48.9     595    195    284    627    688  71.9  26.0  34198  290.22 0854.63
2009/04/23 12:49:49.0     496    284    312    572    651  60.2  31.0  34224  290.67 0854.63
2009/04/23 12:49:49.1     357    467    242    589    636  37.4  23.6  34214  290.50 0854.63
2009/04/23 12:49:49.2     369    569     93    679    686  33.0   7.8  34260  291.28 0854.62
2009/04/23 12:49:49.3     382    472     12    608    609  39.0   1.2  34260  291.26 0854.62
2009/04/23 12:49:49.4     493    458    136    674    688  47.1  11.4  34224  290.65 0854.62
2009/04/23 12:49:49.5     464    337    173    574    600  54.0  16.8  34200  290.24 0854.62
2009/04/23 12:49:49.6     480    283    255    558    613  59.5  26.2  34238  290.88 0854.62
2009/04/23 12:49:49.7     440    420      8    609    610  46.3   0.8  34238  290.88 0854.62
2009/04/23 12:49:49.8     406    363    -21    545    546  48.2  -2.2  34250  291.09 0854.62
2009/04/23 12:49:49.9     325    367     14    491    492  41.5   1.7  34266  291.37 0854.62
2009/04/23 12:49:50.0     392    281    -25    483    484  54.4  -3.0  34252  291.12 0854.62
2009/04/23 12:49:50.1     467    239     44    525    528  62.8   4.9  34256  291.20 0854.62
2009/04/23 12:49:50.2     325    222     33    394    396  55.6   4.9  34250  291.10 0854.62
2009/04/23 12:49:50.3     332    405     87    524    532  39.4   9.5  34242  290.97 0854.62
2009/04/23 12:49:50.4     264    428     67    504    509  31.7   7.6  34254  291.17 0854.62
2009/04/23 12:49:50.5     259    381    132    461    480  34.2  16.0  34252  291.15 0854.62
2009/04/23 12:49:50.6     153    270     67    311    319  29.6  12.2  34258  291.22 0854.62
2009/04/23 12:49:50.7     111    263    -36    286    289  22.9  -7.3  34262  291.29 0854.62
2009/04/23 12:49:50.8     100    210    -89    233    249  25.5 -26.4  34244  291.00 0854.62
2009/04/23 12:49:50.9     183    145     46    234    239  51.6  11.1  34252  291.14 0854.62
2009/04/23 12:49:51.0     223    195     46    297    301  48.7   8.9  34240  290.92 0854.62
2009/04/23 12:49:51.1     174    141     82    225    239  50.9  20.9  34222  290.63 0854.62
2009/04/23 12:49:51.2     277    138    181    310    358  63.4  33.1  34210  290.43 0854.62
2009/04/23 12:49:51.3     325    113     74    345    353  70.7  12.1  34220  290.60 0854.62
2009/04/23 12:49:51.4     290     33     57    292    298  83.4  11.1  34214  290.49 0854.62
2009/04/23 12:49:51.5     286   -105     38    305    308 110.2   7.1  34216  290.53 0854.62
2009/04/23 12:49:51.6     357   -110     92    374    386 107.2  13.8  34214  290.49 0854.62
2009/04/23 12:49:51.7     112   -218   -100    246    265 152.8 -27.8  34204  290.31 0854.62
2009/04/23 12:49:51.8     195   -207   -108    285    304 136.8 -26.1  34198  290.20 0854.62
2009/04/23 12:49:51.9     231   -359   -212    428    477 147.2 -32.6  34176  289.85 0854.62
2009/04/23 12:49:52.0     479   -294   -183    563    593 121.5 -18.0  34186  290.00 0854.62
2009/04/23 12:49:52.1     540   -242    -26    592    593 114.2  -2.6  34204  290.31 0854.62
2009/04/23 12:49:52.2     401   -299    122    501    516 126.8  13.7  34206  290.34 0854.62
2009/04/23 12:49:52.3     182   -165    493    246    550 132.2  71.7  34208  290.40 0854.62
2009/04/23 12:49:52.4    -264    120    318    291    431 294.4  53.0  34202  290.28 0854.62
2009/04/23 12:49:52.5    -166    -35    237    170    291 258.1  61.1  34206  290.36 0854.62
2009/04/23 12:49:52.6    -380    -30    212    382    436 265.4  31.4  34198  290.21 0854.62
2009/04/23 12:49:52.7    -260   -248    251    360    438 226.3  38.3  34206  290.36 0854.62
2009/04/23 12:49:52.8    -326   -154    194    361    409 244.6  30.7  34204  290.32 0854.62
2009/04/23 12:49:52.9    -234   -278    201    364    415 220.1  31.4  34192  290.13 0854.62
2009/04/23 12:49:53.0    -245   -374    189    448    486 213.2  24.2  34188  290.05 0854.62
2009/04/23 12:49:53.1    -386   -324     28    505    506 230.0   3.3  34196  290.18 0854.62
2009/04/23 12:49:53.2    -361   -251   -129    440    458 235.2 -21.2  34176  289.85 0854.59
2009/04/23 12:49:53.3    -302   -247   -233    391    455 230.8 -37.9  34174  289.82 0854.59
2009/04/23 12:49:53.4    -430   -247   -345    497    605 240.1 -42.5  34174  289.81 0854.59
2009/04/23 12:49:53.5    -424   -192   -226    466    517 245.6 -32.1  34184  289.98 0854.59
2009/04/23 12:49:53.6    -481   -305   -391    570    691 237.6 -42.2  34174  289.81 0854.59
2009/04/23 12:49:53.7    -476   -283   -420    554    695 239.3 -45.3  34174  289.82 0854.59
2009/04/23 12:49:53.8    -482   -149   -186    505    538 252.8 -25.4  34184  289.99 0854.59
2009/04/23 12:49:53.9    -343    -17   -238    344    418 267.1 -42.4  34190  290.08 0854.59
2009/04/23 12:49:54.0    -284   -159   -151    326    359 240.7 -30.9  34192  290.10 0854.59
2009/04/23 12:49:54.1    -330   -239   -140    408    432 234.1 -18.9  34184  289.97 0854.59
2009/04/23 12:49:54.2    -457   -176   -178    490    521 248.9 -25.3  34192  290.10 0854.59
2009/04/23 12:49:54.3    -362   -211    -28    420    421 239.7  -3.9  34208  290.38 0854.59
2009/04/23 12:49:54.4    -315   -129    -25    341    342 247.7  -4.2  34196  290.18 0854.59
2009/04/23 12:49:54.5    -174   -216     14    278    279 219.0   2.9  34196  290.19 0854.59
2009/04/23 12:49:54.6    -253   -251    -86    357    368 225.2 -13.6  34194  290.16 0854.59
2009/04/23 12:49:54.7    -265   -220    -24    345    346 230.4  -4.1  34194  290.16 0854.59
2009/04/23 12:49:54.8    -240   -152    -74    285    295 237.6 -14.7  34196  290.19 0854.59
2009/04/23 12:49:54.9    -214   -159   -135    267    299 233.4 -33.5  34198  290.22 0854.59
2009/04/23 12:49:55.0    -110   -158   -118    193    226 215.0 -38.8  34198  290.23 0854.59
2009/04/23 12:49:55.1    -121   -213    -31    246    249 209.6  -7.3  34190  290.09 0854.59
2009/04/23 12:49:55.2    -114   -223   -120    251    278 207.2 -31.7  34192  290.12 0854.59
2009/04/23 12:49:55.3    -274   -245     -1    368    369 228.2  -0.3  34192  290.13 0854.59
2009/04/23 12:49:55.4    -234    -77   -103    247    267 251.8 -28.5  34190  290.09 0854.59
2009/04/23 12:49:55.5    -407      0   -121    408    425 270.0 -21.5  34180  289.90 0854.59
2009/04/23 12:49:55.6    -349   -126    -81    372    381 250.1 -12.4  34188  290.04 0854.59
2009/04/23 12:49:55.7    -460   -137    -63    481    486 253.4  -7.5  34192  290.13 0854.59
2009/04/23 12:49:55.8    -414    -97    -54    426    430 256.8  -7.3  34192  290.12 0854.59
2009/04/23 12:49:55.9    -515   -121    -87    529    537 256.8  -9.3  34190  290.09 0854.59
2009/04/23 12:49:56.0    -511    -71   -163    516    542 262.1 -17.5  34188  290.04 0854.59
2009/04/23 12:49:56.1    -442   -134   -119    463    479 253.1 -14.5  34196  290.17 0854.59
2009/04/23 12:49:56.2    -390   -215    -96    446    457 241.2 -12.2  34198  290.22 0854.59
2009/04/23 12:49:56.3    -357      5   -150    358    388 270.8 -28.3  34196  290.18 0854.59
2009/04/23 12:49:56.4    -324    -88    -94    336    350 254.7 -15.7  34184  289.99 0854.59
2009/04/23 12:49:56.5    -365    -84     39    375    378 257.0   6.0  34188  290.04 0854.59
2009/04/23 12:49:56.6    -300   -126     72    326    334 247.2  12.5  34198  290.23 0854.59
2009/04/23 12:49:56.7    -254   -138     57    290    296 241.4  11.1  34198  290.20 0854.59
2009/04/23 12:49:56.8    -108   -258     13    280    281 202.8   2.8  34198  290.20 0854.59
2009/04/23 12:49:56.9    -278    -47     35    283    286 260.3   7.2  34200  290.24 0854.59
2009/04/23 12:49:57.0    -256   -105     12    277    278 247.6   2.5  34202  290.29 0854.59
2009/04/23 12:49:57.1    -142   -288      0    322    323 206.3   0.0  34194  290.14 0854.59
2009/04/23 12:49:57.2     -92   -264    -10    280    281 199.2  -2.2  34192  290.12 0854.58
2009/04/23 12:49:57.3      -1   -281     40    282    285 180.2   8.2  34192  290.10 0854.58
2009/04/23 12:49:57.4       0   -239     -1    240    241 179.9  -0.3  34198  290.20 0854.58
2009/04/23 12:49:57.5      -5   -207     -9    208    209 181.4  -2.6  34196  290.19 0854.58
2009/04/23 12:49:57.6      55   -163    -43    173    179 161.3 -13.9  34196  290.18 0854.58
2009/04/23 12:49:57.7      43   -128     60    136    148 161.3  25.2  34192  290.11 0854.58
2009/04/23 12:49:57.8      66    -90     63    112    128 143.9  31.9  34190  290.09 0854.58
2009/04/23 12:49:57.9      18   -104     54    106    118 170.2  29.3  34188  290.06 0854.58
2009/04/23 12:49:58.0      51    -85     51    100    112 148.8  28.7  34196  290.18 0854.58
2009/04/23 12:49:58.1      62   -121     55    137    147 152.8  23.0  34194  290.14 0854.58
2009/04/23 12:49:58.2      39   -176     83    181    199 167.3  26.4  34194  290.14 0854.58
2009/04/23 12:49:58.3      78   -114    100    139    171 145.7  39.3  34192  290.11 0854.58
2009/04/23 12:49:58.4      10    -82     88     83    120 172.4  52.1  34194  290.14 0854.58
2009/04/23 12:49:58.5      58   -115     77    129    150 153.3  33.5  34196  290.19 0854.58
2009/04/23 12:49:58.6     144   -144    127    204    240 135.0  34.8  34190  290.09 0854.58
2009/04/23 12:49:58.7     107   -107     97    152    180 134.9  35.5  34190  290.08 0854.58
2009/04/23 12:49:58.8      56   -108     42    122    130 152.4  19.2  34190  290.09 0854.58
2009/04/23 12:49:58.9      48    -48     42     69     80 134.9  34.0  34196  290.18 0854.58
2009/04/23 12:49:59.0      22    -47     28     53     59 154.5  30.3  34194  290.16 0854.58
2009/04/23 12:49:59.1       0    -40     32     41     52 180.0  42.7  34196  290.18 0854.58
2009/04/23 12:49:59.2     -17    -37     23     41     47 204.5  32.4  34194  290.14 0854.59
2009/04/23 12:49:59.3     -17    -30      6     35     36 210.7  11.1  34194  290.14 0854.59
2009/04/23 12:49:59.4      -8     -8     10     12     15 225.0  47.9  34196  290.18 0854.59
2009/04/23 12:49:59.5       6      6      1      9     10  46.9  11.1  34196  290.18 0854.59
2009/04/23 12:49:59.6       3    -12      9     13     15 164.9  35.6  34196  290.19 0854.59
2009/04/23 12:49:59.7      34    -40     17     53     56 139.5  18.4  34196  290.18 0854.59
2009/04/23 12:49:59.8      64    -64     42     91    100 135.0  26.6  34194  290.14 0854.59
2009/04/23 12:49:59.9      80    -88     28    120    124 137.7  13.2  34194  290.14 0854.59
2009/04/23 12:50:00.0      67    -68    -31     96    102 135.5 -18.1  34194  290.14 0854.59
2009/04/23 12:50:00.1      93    -40    -36    102    108 113.5 -23.8  34194  290.16 0854.59
2009/04/23 12:50:00.2      93    -67      5    115    116 125.9   2.8  34196  290.18 0854.59
2009/04/23 12:50:00.3      63    -77    -16    100    102 140.4  -9.3  34194  290.16 0854.59
2009/04/23 12:50:00.4      65    -56    -52     87    101 130.9 -37.9  34196  290.18 0854.59
2009/04/23 12:50:00.5      49    -50    -47     71     85 135.9 -40.9  34196  290.18 0854.59
2009/04/23 12:50:00.6      47    -56    -28     74     79 140.3 -25.9  34192  290.13 0854.59
2009/04/23 12:50:00.7      44    -53    -12     70     72 140.3 -10.3  34190  290.09 0854.59
2009/04/23 12:50:00.8      83    -88     46    122    130 136.8  21.5  34196  290.18 0854.59
2009/04/23 12:50:00.9     135   -109     52    174    182 128.9  16.8  34186  290.02 0854.59
2009/04/23 12:50:01.0      89   -144     85    170    190 148.1  28.2  34184  289.97 0854.59
2009/04/23 12:50:01.1      51   -210    163    217    271 166.2  40.7  34186  290.02 0854.59
2009/04/23 12:50:01.2     -19   -221    129    222    256 185.1  32.7  34184  289.97 0854.60
2009/04/23 12:50:01.3     -23   -212     58    214    222 186.3  15.2  34184  289.97 0854.60
2009/04/23 12:50:01.4       0   -178    110    179    210 179.8  34.8  34184  289.97 0854.60
2009/04/23 12:50:01.5      12   -159    143    160    214 175.6  46.4  34186  290.02 0854.60
2009/04/23 12:50:01.6      21   -184    117    186    219 173.3  35.5  34186  290.01 0854.60
2009/04/23 12:50:01.7      55   -190    152    198    249 163.7  41.6  34186  290.02 0854.60
2009/04/23 12:50:01.8      54   -156    120    166    204 160.8  39.5  34186  290.02 0854.60
2009/04/23 12:50:01.9      64   -135    102    150    181 154.7  37.6  34188  290.04 0854.60
2009/04/23 12:50:02.0      77   -109     87    134    159 144.8  36.0  34186  290.02 0854.60
2009/04/23 12:50:02.1      93    -70     94    117    150 126.9  43.7  34188  290.06 0854.60
2009/04/23 12:50:02.2      50    -65     89     83    121 142.6  52.1  34190  290.09 0854.60
2009/04/23 12:50:02.3       7    -50     77     51     92 171.1  63.6  34192  290.13 0854.60
2009/04/23 12:50:02.4      74    -59     73     95    119 128.6  41.7  34192  290.11 0854.60
2009/04/23 12:50:02.5      72    -87     62    114    129 140.4  31.3  34188  290.06 0854.60
2009/04/23 12:50:02.6      96    -85     58    129    141 131.4  25.7  34188  290.04 0854.60
2009/04/23 12:50:02.7     101    -95     47    139    148 133.2  18.9  34188  290.04 0854.60
2009/04/23 12:50:02.8      81    -95     51    126    135 139.5  23.0  34186  290.02 0854.60
2009/04/23 12:50:02.9      60   -105     92    122    152 150.1  40.7  34190  290.08 0854.60
2009/04/23 12:50:03.0     -27   -122    130    125    180 192.5  51.2  34188  290.06 0854.60
2009/04/23 12:50:03.1     -52   -156     67    165    178 198.5  23.1  34186  290.02 0854.60
2009/04/23 12:50:03.2      39   -196     10    200    201 168.5   3.1  34188  290.04 0854.60
2009/04/23 12:50:03.3      47   -117     61    127    140 158.2  27.3  34188  290.06 0854.60
2009/04/23 12:50:03.4      60   -108    -16    124    126 151.0  -7.3  34190  290.08 0854.60
2009/04/23 12:50:03.5      75    -98      6    124    125 142.6   2.8  34188  290.06 0854.60
2009/04/23 12:50:03.6     -83    -88    -39    122    128 223.2 -23.3  34190  290.09 0854.60
2009/04/23 12:50:03.7     -38    -10    -25     40     47 254.9 -39.9  34192  290.13 0854.60
2009/04/23 12:50:03.8      -1    -44     52     45     68 181.8  55.4  34192  290.11 0854.60
2009/04/23 12:50:03.9      36    -77     55     86    102 155.1  35.5  34192  290.13 0854.60
2009/04/23 12:50:04.0      41    -74     71     85    110 150.6  43.8  34190  290.08 0854.60
2009/04/23 12:50:04.1     -70    -94     52    118    128 216.5  25.2  34190  290.08 0854.60
2009/04/23 12:50:04.2     -69    -61     62     93    111 228.2  36.5  34188  290.04 0854.60
2009/04/23 12:50:04.3    -115    -23     41    118    126 258.6  19.4  34190  290.09 0854.60
2009/04/23 12:50:04.4    -156     11     54    157    167 274.3  18.9  34194  290.16 0854.60
2009/04/23 12:50:04.5    -127    102     99    164    191 308.9  34.2  34192  290.13 0854.60
2009/04/23 12:50:04.7     -87     61     68    107    126 305.1  35.5  34194  290.14 0854.60
2009/04/23 12:50:04.8     -63    124     53    140    149 332.8  21.0  34196  290.19 0854.60
2009/04/23 12:50:04.9     -47    154     68    162    175 343.1  24.1  34194  290.16 0854.60
2009/04/23 12:50:05.0     -18    165     51    167    175 353.8  17.1  34196  290.18 0854.60
2009/04/23 12:50:05.1      25    122     38    125    131  11.6  17.3  34194  290.14 0854.60
2009/04/23 12:50:05.2      40     81     33     91     96  26.3  20.0  34196  290.19 0854.60
2009/04/23 12:50:05.3     -29     32     97     44    106 318.6  74.0  34198  290.23 0854.60
2009/04/23 12:50:05.4     -36     15     72     40     82 293.5  68.8  34194  290.16 0854.60
2009/04/23 12:50:05.5     -63    -13     22     65     69 257.6  19.4  34194  290.16 0854.60
2009/04/23 12:50:05.6      26     64     26     70     74  21.9  20.0  34194  290.16 0854.60
2009/04/23 12:50:05.7      84     84     57    120    132  45.0  27.1  34198  290.23 0854.60
2009/04/23 12:50:05.8      84     90     82    124    148  42.8  36.5  34198  290.23 0854.60
2009/04/23 12:50:05.9     116     64     17    133    135  61.2   7.5  34198  290.23 0854.60
2009/04/23 12:50:06.0      36    152     50    157    165  13.4  17.7  34192  290.11 0854.60
2009/04/23 12:50:06.1      60    138    104    151    183  23.6  37.8  34196  290.19 0854.60
2009/04/23 12:50:06.2      21    128    107    130    168   9.7  43.7  34196  290.19 0854.60
2009/04/23 12:50:06.3     -19     68     93     71    117 344.0  58.5  34198  290.23 0854.60
2009/04/23 12:50:06.4     -74     52    100     91    135 305.1  52.7  34202  290.28 0854.60
2009/04/23 12:50:06.5    -110      8     65    111    128 274.3  33.5  34198  290.23 0854.60
2009/04/23 12:50:06.6    -178     13     10    179    180 274.3   3.3  34198  290.21 0854.60
2009/04/23 12:50:06.7    -253    -10     22    254    255 267.6   5.0  34242  290.95 0854.60
2009/04/23 12:50:06.8    -230     44     81    235    249 280.8  19.2  34232  290.80 0854.60
2009/04/23 12:50:06.9    -213     84     18    230    231 291.7   4.6  34252  291.15 0854.60
2009/04/23 12:50:07.0    -148     80     27    169    172 298.6   9.3  34272  291.47 0854.60
2009/04/23 12:50:07.1    -182     91     76    204    217 296.6  21.3  34276  291.54 0854.60
2009/04/23 12:50:07.2    -174      0     81    175    192 270.0  27.0  34322  292.32 0854.60
2009/04/23 12:50:07.3    -152     11      4    153    154 274.3   1.8  34296  291.89 0854.60
2009/04/23 12:50:07.4     -87     27     24     92     96 287.3  14.7  34280  291.62 0854.60
2009/04/23 12:50:07.5     -36    133     87    138    163 344.9  35.5  34300  291.96 0854.60
2009/04/23 12:50:07.6     -49    104     94    116    149 334.5  43.7  34318  292.27 0854.60
2009/04/23 12:50:07.7      -6    133    108    134    172 357.3  43.5  34298  291.93 0854.60
2009/04/23 12:50:07.8     -20    204     85    206    222 354.2  23.4  34304  292.03 0854.60
2009/04/23 12:50:07.9     -82    173    106    192    219 334.6  31.4  34320  292.30 0854.60
2009/04/23 12:50:08.0    -141    145     35    203    207 315.9   9.9  34322  292.34 0854.60
2009/04/23 12:50:08.1    -124    109    -44    166    172 311.3 -15.0  34316  292.22 0854.60
2009/04/23 12:50:08.2    -118     85     -5    146    147 305.9  -2.2  34322  292.32 0854.60
2009/04/23 12:50:08.3     -81     79     11    114    115 314.0   5.9  34318  292.27 0854.60
2009/04/23 12:50:08.4     -55     68     37     88     95 321.3  24.1  34322  292.32 0854.60
2009/04/23 12:50:08.5     -48     51     40     71     81 316.8  31.9  34322  292.32 0854.60
2009/04/23 12:50:08.6     -46     15     50     49     70 288.4  49.1  34320  292.29 0854.60
2009/04/23 12:50:08.7     -29      1     47     30     55 272.6  64.7  34322  292.34 0854.60
2009/04/23 12:50:08.8     -39    -40     37     56     67 224.2  35.6  34326  292.39 0854.60
2009/04/23 12:50:08.9     -44    -51     59     68     90 220.5  45.4  34322  292.34 0854.60
2009/04/23 12:50:09.0     -31    -75     31     82     87 202.7  21.0  34322  292.32 0854.60
2009/04/23 12:50:09.1     -97     -7     18     98    100 265.6  10.6  34332  292.49 0854.60
2009/04/23 12:50:09.2     -79    -42    138     90    164 241.6  64.1  34316  292.22 0854.60
2009/04/23 12:50:09.3    -112   -135    109    176    207 219.9  35.0  34286  291.72 0854.60
2009/04/23 12:50:09.4    -112   -112     82    159    178 225.1  29.5  34288  291.74 0854.60
2009/04/23 12:50:09.5    -136   -180     63    226    235 217.0  15.8  34264  291.35 0854.60
2009/04/23 12:50:09.6    -109   -112     72    157    172 224.1  26.4  34276  291.55 0854.60
2009/04/23 12:50:09.7    -139    -99    103    171    199 234.5  33.7  34274  291.50 0854.60
2009/04/23 12:50:09.8     -80    -32    112     87    141 247.8  58.4  34252  291.15 0854.60
2009/04/23 12:50:09.9     -54    -67    124     87    151 218.7  61.5  34250  291.09 0854.60
2009/04/23 12:50:10.0     -43    -77    123     89    151 209.4  60.5  34218  290.57 0854.60
2009/04/23 12:50:10.1     -53    -63     84     83    118 220.5  50.1  34238  290.91 0854.60
2009/04/23 12:50:10.2     -32     20     52     38     64 302.4  60.5  34248  291.08 0854.61
2009/04/23 12:50:10.3     -59     13     85     61    104 282.4  60.6  34262  291.32 0854.61
2009/04/23 12:50:10.4    -111      8    112    112    158 274.4  50.1  34278  291.59 0854.61
2009/04/23 12:50:10.5    -109     13    101    110    149 277.0  47.9  34286  291.72 0854.61
2009/04/23 12:50:10.6      -1     24     89     25     92 357.3  83.9  34282  291.64 0854.61
2009/04/23 12:50:10.7     -27     31     75     42     85 319.5  68.3  34284  291.69 0854.61
2009/04/23 12:50:10.8     -19     15     82     25     85 309.5  82.8  34270  291.43 0854.61
2009/04/23 12:50:10.9     -91    -77    129    120    176 229.6  52.2  34244  291.01 0854.61
2009/04/23 12:50:11.0     -75   -167     99    184    208 204.3  30.6  34262  291.30 0854.61
2009/04/23 12:50:11.1     -79   -159     64    178    189 206.5  20.4  34264  291.33 0854.61
2009/04/23 12:50:11.2     -60   -127     36    141    146 205.3  14.3  34250  291.11 0854.61
2009/04/23 12:50:11.3     -68    -60     56     91    106 228.7  35.0  34268  291.40 0854.61
2009/04/23 12:50:11.4     -38     24     60     46     75 302.5  58.5  34286  291.71 0854.61
2009/04/23 12:50:11.5      49     67    103     84    132  36.5  56.4  34294  291.86 0854.61
2009/04/23 12:50:11.6      62     15     97     64    116  75.8  64.6  34292  291.83 0854.61
2009/04/23 12:50:11.7      68     58     87     90    125  49.1  49.9  34288  291.76 0854.61
2009/04/23 12:50:11.8      63     60     57     88    104  46.4  35.6  34282  291.64 0854.61
2009/04/23 12:50:11.9      46     83     40     96    104  29.0  23.1  34288  291.76 0854.61
2009/04/23 12:50:12.0      50    150     56    159    169  18.5  19.6  34282  291.66 0854.61
2009/04/23 12:50:12.1      46    139     12    147    148  18.3   5.0  34284  291.67 0854.61
2009/04/23 12:50:12.2      57    159     74    170    185  19.8  24.9  34282  291.64 0854.61
2009/04/23 12:50:12.3      43    132     57    140    151  18.3  23.1  34278  291.59 0854.61
2009/04/23 12:50:12.4      40    110     23    118    121  20.0  11.0  34280  291.60 0854.61
2009/04/23 12:50:12.5      16     93      4     95     96  10.2   2.9  34276  291.54 0854.61
2009/04/23 12:50:12.6      -9    115    -14    116    117 355.1  -7.3  34280  291.62 0854.61
2009/04/23 12:50:12.7     -50    149     12    158    159 341.3   4.6  34272  291.47 0854.61
2009/04/23 12:50:12.8     -52    111     24    123    126 334.6  11.0  34266  291.38 0854.61
2009/04/23 12:50:12.9     -64     49     71     81    107 307.3  45.8  34260  291.26 0854.61
2009/04/23 12:50:13.0     -81     37     14     90     92 294.4   9.0  34236  290.86 0854.61
2009/04/23 12:50:13.1     -16    -26     17     31     35 212.5  33.5  34232  290.81 0854.61
2009/04/23 12:50:13.2      -4    -56    -26     57     62 184.5 -30.6  34238  290.91 0854.61
2009/04/23 12:50:13.3      -5    -77    -43     78     89 184.4 -35.8  34248  291.06 0854.61
2009/04/23 12:50:13.4     -10   -132    -94    133    162 184.5 -43.0  34224  290.65 0854.61
2009/04/23 12:50:13.5     -64   -163    -75    176    191 201.4 -28.7  34196  290.19 0854.61
2009/04/23 12:50:13.6     -66   -120    -95    138    167 209.0 -42.2  34190  290.08 0854.61
2009/04/23 12:50:13.7     -80    -77    -98    112    148 226.0 -50.2  34190  290.09 0854.61
2009/04/23 12:50:13.8    -100    -63    -80    119    143 238.0 -41.4  34200  290.26 0854.61
2009/04/23 12:50:13.9    -109    -36    -77    116    139 251.4 -40.9  34204  290.31 0854.61
2009/04/23 12:50:14.0    -112    -47    -63    122    137 246.9 -33.7  34204  290.31 0854.61
2009/04/23 12:50:14.1    -158      0    -98    159    186 270.0 -39.4  34234  290.82 0854.61
2009/04/23 12:50:14.2    -131    -35    -32    136    140 254.9 -13.4  34240  290.94 0854.62
2009/04/23 12:50:14.3    -121    -35    -52    127    137 253.6 -27.5  34236  290.87 0854.62
2009/04/23 12:50:14.4    -162   -105    -37    194    198 237.1 -10.9  34254  291.16 0854.62
2009/04/23 12:50:14.5    -188    -75    -44    203    208 248.3 -12.4  34240  290.92 0854.62
2009/04/23 12:50:14.6    -211    -92    -70    231    241 246.4 -21.8  34192  290.10 0854.62
2009/04/23 12:50:14.7    -227   -148    -53    272    278 236.9 -11.1  34196  290.17 0854.62
2009/04/23 12:50:14.8    -211   -106      2    237    238 243.4   0.7  34206  290.34 0854.62
2009/04/23 12:50:14.9    -224    -93    -72    243    253 247.4 -21.7  34188  290.03 0854.62
2009/04/23 12:50:15.0    -247   -116    -79    273    284 244.8 -21.0  34184  289.97 0854.62
2009/04/23 12:50:15.1    -220   -139    -88    261    275 237.6 -23.6  34182  289.95 0854.62
2009/04/23 12:50:15.2    -232   -105    -78    255    266 245.6 -22.1  34182  289.93 0854.62
2009/04/23 12:50:15.3    -254    -99    -75    273    283 248.7 -20.0  34182  289.95 0854.62
2009/04/23 12:50:15.4    -253   -103    -93    274    289 247.8 -23.3  34186  290.02 0854.62
2009/04/23 12:50:15.5    -244   -111    -93    269    284 245.6 -24.3  34184  289.98 0854.62
2009/04/23 12:50:15.6    -216    -66    -97    226    245 252.9 -29.3  34186  290.00 0854.62
2009/04/23 12:50:15.7    -202   -196    -99    282    300 225.8 -19.4  34184  289.98 0854.62
2009/04/23 12:50:15.8    -229   -126    -89    262    277 241.1 -18.9  34184  289.98 0854.62
2009/04/23 12:50:15.9    -229    -75    -82    242    255 251.8 -23.6  34184  289.98 0854.62
2009/04/23 12:50:16.0    -228    -90    -88    246    261 248.3 -24.6  34186  290.02 0854.62
2009/04/23 12:50:16.1    -228    -71    -94    239    256 252.7 -27.2  34182  289.95 0854.62
2009/04/23 12:50:16.2    -204    -50   -100    211    233 256.1 -31.6  34184  289.97 0854.63
2009/04/23 12:50:16.3    -181    -72   -123    196    231 248.2 -39.9  34186  290.01 0854.63
2009/04/23 12:50:16.4    -192    -68    -66    204    214 250.5 -23.6  34184  289.99 0854.63
2009/04/23 12:50:16.5    -116   -150    -88    190    209 217.8 -31.4  34182  289.96 0854.63
2009/04/23 12:50:16.6    -138   -129   -201    190    276 226.9 -56.5  34188  290.05 0854.63
2009/04/23 12:50:16.7    -113   -118   -230    164    282 223.9 -65.5  34194  290.15 0854.63
2009/04/23 12:50:16.8    -183    -91   -143    205    249 243.4 -42.9  34192  290.12 0854.63
2009/04/23 12:50:16.9    -266   -125    -75    295    305 244.8 -14.3  34190  290.09 0854.63
2009/04/23 12:50:17.0    -292   -105    -69    311    319 250.1 -12.7  34202  290.29 0854.63
2009/04/23 12:50:17.1    -287    -30    -26    289    291 263.9  -5.2  34224  290.66 0854.63
2009/04/23 12:50:17.2    -333    -81    -80    343    353 256.3 -13.2  34214  290.50 0854.63
2009/04/23 12:50:17.3    -311   -139   -131    341    365 245.8 -26.4  34184  289.98 0854.63
2009/04/23 12:50:17.4    -299   -242   -121    386    404 231.0 -22.4  34182  289.93 0854.63
2009/04/23 12:50:17.5    -270   -244   -197    365    414 227.9 -35.2  34192  290.10 0854.63
2009/04/23 12:50:17.6    -266   -231   -168    353    390 229.1 -31.6  34194  290.16 0854.63
2009/04/23 12:50:17.7    -266   -254   -155    368    399 226.3 -28.6  34192  290.10 0854.63
2009/04/23 12:50:17.8    -263   -254   -229    366    431 226.0 -39.5  34184  289.99 0854.63
2009/04/23 12:50:17.9    -303   -282   -222    415    470 227.1 -34.7  34182  289.95 0854.63
2009/04/23 12:50:18.0    -322   -245   -188    405    446 232.7 -31.3  34194  290.14 0854.63
2009/04/23 12:50:18.1    -236   -246   -226    341    409 223.8 -40.9  34182  289.96 0854.63
2009/04/23 12:50:18.2    -294   -245   -233    383    448 230.2 -38.8  34184  289.97 0854.62
2009/04/23 12:50:18.3    -251   -228   -222    340    406 227.7 -40.7  34184  289.98 0854.62
2009/04/23 12:50:18.4    -248   -236   -182    343    388 226.5 -34.6  34184  289.99 0854.62
2009/04/23 12:50:18.5    -337   -237   -181    413    450 234.9 -29.6  34186  290.00 0854.62
2009/04/23 12:50:18.6    -336   -234   -203    410    457 235.2 -32.6  34188  290.04 0854.62
2009/04/23 12:50:18.7    -359   -213   -217    418    470 239.3 -34.0  34184  289.97 0854.62
2009/04/23 12:50:18.8    -298   -216   -225    369    432 234.1 -38.7  34180  289.92 0854.62
2009/04/23 12:50:18.9    -271   -221   -256    350    433 230.8 -44.1  34180  289.90 0854.62
2009/04/23 12:50:19.0    -234   -242   -234    337    410 224.0 -42.7  34184  289.99 0854.62
2009/04/23 12:50:19.1    -236   -177   -180    295    345 233.1 -38.7  34194  290.15 0854.62
2009/04/23 12:50:19.2    -148   -198   -157    248    293 216.7 -39.9  34202  290.29 0854.62
2009/04/23 12:50:19.3     -62   -164   -153    176    233 200.7 -50.0  34194  290.16 0854.62
2009/04/23 12:50:19.4    -102   -163   -159    193    250 211.9 -48.1  34198  290.22 0854.62
2009/04/23 12:50:19.5    -138    -92   -121    166    205 236.3 -44.1  34204  290.33 0854.62
2009/04/23 12:50:19.6     -54    -17    -85     57    102 251.8 -67.6  34200  290.26 0854.62
2009/04/23 12:50:19.7      -6    -16    -38     18     42 201.8 -77.3  34198  290.21 0854.62
2009/04/23 12:50:19.8     -28     -2      2     29     30 265.6   4.9  34200  290.25 0854.62
2009/04/23 12:50:19.9    -142    -67    -57    158    167 244.7 -24.8  34206  290.36 0854.62
2009/04/23 12:50:20.0    -125    -57   -105    138    173 245.6 -45.6  34210  290.41 0854.62
2009/04/23 12:50:20.1    -120    -87   -137    149    202 234.0 -52.1  34198  290.23 0854.62
2009/04/23 12:50:20.2     -72    -24   -140     76    159 251.6 -73.7  34190  290.09 0854.62
2009/04/23 12:50:20.3    -144    -79   -136    165    213 241.1 -48.1  34198  290.23 0854.62
2009/04/23 12:50:20.4    -135   -141   -134    196    237 223.7 -42.0  34200  290.25 0854.62
2009/04/23 12:50:20.5     -10   -117    -82    118    143 184.9 -42.4  34200  290.26 0854.62
2009/04/23 12:50:20.6     -21   -308    -98    309    325 184.0 -17.6  34202  290.27 0854.62
2009/04/23 12:50:20.7     -18   -354    -72    355    363 183.0 -11.5  34200  290.25 0854.62
2009/04/23 12:50:20.8      22   -408    -21    409    410 176.9  -3.0  34196  290.19 0854.62
2009/04/23 12:50:20.9      27   -416      5    417    418 176.3   0.8  34192  290.12 0854.62
2009/04/23 12:50:21.0      56   -369      5    374    375 171.3   0.8  34194  290.15 0854.62
2009/04/23 12:50:21.1      82   -326     13    337    338 165.9   2.3  34196  290.18 0854.62
2009/04/23 12:50:21.2     166   -222     99    278    295 143.3  20.4  34198  290.22 0854.62
2009/04/23 12:50:21.3     220   -279    134    356    380 141.8  21.5  34196  290.18 0854.62
2009/04/23 12:50:21.4     163   -317    142    357    384 152.8  23.0  34196  290.18 0854.62
2009/04/23 12:50:21.5     165   -259    130    308    334 147.5  24.3  34196  290.17 0854.62
2009/04/23 12:50:21.6     124   -263    131    291    319 154.7  25.9  34192  290.12 0854.62
2009/04/23 12:50:21.7      72   -349    125    357    378 168.2  20.1  34192  290.13 0854.62
2009/04/23 12:50:21.8      91   -305    156    319    355 163.3  27.9  34194  290.16 0854.62
2009/04/23 12:50:21.9     146   -315    132    348    372 155.1  21.8  34192  290.11 0854.62
2009/04/23 12:50:22.0     155   -296    182    335    381 152.3  30.9  34194  290.16 0854.62
2009/04/23 12:50:22.1     223   -304    138    378    402 143.8  21.0  34192  290.10 0854.62
2009/04/23 12:50:22.2     253   -273    251    373    449 137.2  37.3  34182  289.95 0854.62
2009/04/23 12:50:22.3     282   -174    164    332    370 121.8  28.2  34194  290.16 0854.62
2009/04/23 12:50:22.4     152   -297     90    334    347 152.8  15.2  34194  290.16 0854.62
2009/04/23 12:50:22.5     154   -248     67    293    301 148.1  12.9  34198  290.22 0854.62
2009/04/23 12:50:22.6      96   -175     91    200    219 151.3  26.2  34194  290.14 0854.62
2009/04/23 12:50:22.7      29    -72     65     78    101 158.1  43.8  34198  290.23 0854.62
2009/04/23 12:50:22.8       3    -86    126     87    153 177.8  62.6  34194  290.16 0854.62
2009/04/23 12:50:22.9      -4    -51    150     52    158 185.3  80.2  34196  290.19 0854.62
2009/04/23 12:50:23.0     -74     79     86    109    138 317.2  42.2  34202  290.28 0854.62
2009/04/23 12:50:23.1     -23    -34     89     42     98 214.3  73.1  34202  290.30 0854.62
2009/04/23 12:50:23.2       0   -133    151    134    201 180.4  54.0  34202  290.28 0854.61
2009/04/23 12:50:23.3     -27    -56    141     63    154 206.3  74.0  34204  290.33 0854.61
2009/04/23 12:50:23.4     -70   -151    130    167    211 204.9  42.0  34198  290.23 0854.61
2009/04/23 12:50:23.5      -5   -179    174    180    250 181.8  49.2  34198  290.23 0854.61
2009/04/23 12:50:23.6     -41   -152    151    158    218 195.1  48.5  34198  290.23 0854.61
2009/04/23 12:50:23.7       0   -182    142    183    231 180.2  41.7  34200  290.25 0854.61
2009/04/23 12:50:23.8     -54   -164     76    173    188 198.5  25.1  34192  290.13 0854.61
2009/04/23 12:50:23.9     -81   -158    126    178    218 207.2  39.1  34202  290.28 0854.61
2009/04/23 12:50:24.0    -108   -158    116    192    224 214.5  34.2  34196  290.19 0854.61
2009/04/23 12:50:24.1    -111   -217    214    245    325 207.2  45.6  34192  290.12 0854.61
2009/04/23 12:50:24.2    -163   -316    182    356    399 207.3  29.3  34198  290.21 0854.61
2009/04/23 12:50:24.3    -195   -318     54    374    379 211.5   8.3  34192  290.13 0854.61
2009/04/23 12:50:24.4    -166   -294     61    338    344 209.4  10.3  34190  290.08 0854.61
2009/04/23 12:50:24.5    -135   -201     47    243    248 213.8  11.1  34196  290.17 0854.61
2009/04/23 12:50:24.6    -186   -289    -37    344    347 212.8  -6.3  34194  290.15 0854.61
2009/04/23 12:50:24.7    -187   -398    -75    440    447 205.2  -9.8  34192  290.11 0854.61
2009/04/23 12:50:24.8    -142   -420   -124    444    462 198.7 -15.7  34190  290.07 0854.61
2009/04/23 12:50:24.9     -62   -446   -117    451    467 187.9 -14.6  34190  290.09 0854.61
2009/04/23 12:50:25.0     -90   -372   -105    383    398 193.7 -15.4  34190  290.08 0854.61
2009/04/23 12:50:25.1    -146   -313    -85    346    357 205.0 -13.8  34198  290.20 0854.61
2009/04/23 12:50:25.2    -174   -366    -34    406    408 205.5  -4.9  34194  290.16 0854.60
2009/04/23 12:50:25.3    -176   -328    -16    373    374 208.2  -2.6  34188  290.06 0854.60
2009/04/23 12:50:25.4    -144   -372     16    399    400 201.2   2.3  34190  290.08 0854.60
2009/04/23 12:50:25.5    -141   -362    -34    389    391 201.3  -5.1  34190  290.08 0854.60
2009/04/23 12:50:25.6    -129   -273    -58    302    308 205.3 -10.9  34190  290.09 0854.60
2009/04/23 12:50:25.7    -136    -92   -133    165    211 235.8 -47.9  34194  290.16 0854.60
2009/04/23 12:50:25.8    -143   -181    -96    231    250 218.3 -28.5  34190  290.07 0854.60
2009/04/23 12:50:25.9    -121   -347    -46    368    371 199.3  -7.2  34188  290.04 0854.60
2009/04/23 12:50:26.0      21   -276    -10    277    278 175.5  -2.2  34184  289.98 0854.60
2009/04/23 12:50:26.1      37   -328    152    331    364 173.5  26.4  34188  290.03 0854.60
2009/04/23 12:50:26.2      -6   -407     58    408    413 180.9   8.1  34188  290.04 0854.60
2009/04/23 12:50:26.3      -8   -461    -35    462    464 181.0  -4.4  34182  289.95 0854.60
2009/04/23 12:50:26.4     -70   -364   -116    371    388 191.0 -22.4  34186  290.01 0854.60
2009/04/23 12:50:26.5    -122   -461    -34    477    479 194.9  -4.1  34186  290.01 0854.60
2009/04/23 12:50:26.6    -126   -471    -71    488    494 195.0  -8.4  34184  289.98 0854.60
2009/04/23 12:50:26.7     -46   -382      8    385    386 187.0   1.2  34188  290.03 0854.60
2009/04/23 12:50:26.8      91   -370    -65    382    388 166.2  -9.8  34188  290.04 0854.60
2009/04/23 12:50:26.9     123   -344    -88    366    377 160.2 -13.6  34188  290.04 0854.60
2009/04/23 12:50:27.0     161   -401    -55    433    437 158.1  -7.3  34184  289.97 0854.60
2009/04/23 12:50:27.1      97   -264    213    282    353 159.7  40.9  34184  289.99 0854.60
2009/04/23 12:50:27.2     156   -307    183    345    390 153.0  30.2  34178  289.89 0854.60
2009/04/23 12:50:27.3     -33   -252     95    255    272 187.6  21.3  34182  289.93 0854.60
2009/04/23 12:50:27.4     -67   -268     51    277    282 194.0  10.6  34184  289.97 0854.60
2009/04/23 12:50:27.5     -93   -294     15    309    310 197.6   2.8  34184  289.97 0854.60
2009/04/23 12:50:27.6    -136   -251     24    286    288 208.5   4.9  34168  289.70 0854.60
2009/04/23 12:50:27.7    -201   -187    -49    275    280 227.1 -10.3  34176  289.85 0854.60
2009/04/23 12:50:27.8    -178   -158   -115    239    265 228.4 -31.7  34182  289.93 0854.60
2009/04/23 12:50:27.9    -130   -175   -160    219    271 216.7 -44.1  34180  289.90 0854.60
2009/04/23 12:50:28.0     -51   -214   -178    221    283 193.4 -47.4  34180  289.90 0854.60
2009/04/23 12:50:28.1      -9   -210   -129    211    247 182.7 -38.8  34180  289.92 0854.60
2009/04/23 12:50:28.2       7   -132    -74    133    152 176.9 -35.8  34176  289.85 0854.60
2009/04/23 12:50:28.3    -140    -83     52    163    172 239.3  17.7  34180  289.92 0854.60
2009/04/23 12:50:28.4    -256    -73    -18    267    268 254.1  -3.9  34180  289.92 0854.60
2009/04/23 12:50:28.5    -355   -279     46    452    455 231.8   5.9  34172  289.77 0854.60
2009/04/23 12:50:28.6    -215     24    198    217    293 276.6  47.1  34162  289.61 0854.60
2009/04/23 12:50:28.7    -131     35    187    136    231 285.1  60.5  34186  290.01 0854.60
2009/04/23 12:50:28.8    -245     34    -29    248    250 278.1  -6.9  34182  289.95 0854.60
2009/04/23 12:50:28.9     -29   -125    137    129    188 193.4  52.0  34182  289.96 0854.60
2009/04/23 12:50:29.0     -98   -148    157    178    237 213.6  45.9  34180  289.92 0854.60
2009/04/23 12:50:29.1     -41   -145    174    151    230 196.0  54.8  34180  289.92 0854.60
2009/04/23 12:50:29.2     -51   -214    121    220    251 193.4  31.3  34180  289.92 0854.59
2009/04/23 12:50:29.3      27   -105    182    109    212 165.3  66.2  34180  289.91 0854.59
2009/04/23 12:50:29.4      52    -86    155    101    185 148.8  64.1  34176  289.84 0854.59
2009/04/23 12:50:29.5     167    -54    187    176    256 108.2  52.1  34182  289.95 0854.59
2009/04/23 12:50:29.6     132   -138    178    192    261 136.3  47.9  34182  289.93 0854.59
2009/04/23 12:50:29.7      89    -95    112    131    172 136.8  44.8  34180  289.92 0854.59
2009/04/23 12:50:29.8      77   -151    112    170    203 153.0  36.5  34176  289.84 0854.59
2009/04/23 12:50:29.9      63    -78     68    101    121 140.8  37.4  34178  289.87 0854.59
2009/04/23 12:50:30.0       0    -22     53     23     57 180.9  75.0  34178  289.89 0854.59
2009/04/23 12:50:30.1     -63    -54     25     84     88 229.1  16.8  34180  289.92 0854.59
2009/04/23 12:50:30.2     -49   -230     48    236    241 192.0  11.6  34170  289.75 0854.59
2009/04/23 12:50:30.3       4   -193    133    194    235 178.6  37.6  34168  289.72 0854.59
2009/04/23 12:50:30.4     -25   -238    194    240    308 186.2  43.5  34172  289.78 0854.59
2009/04/23 12:50:30.5       8   -157    206    158    259 176.9  58.7  34176  289.84 0854.59
2009/04/23 12:50:30.6     -22    -50    182     55    190 203.6  82.5  34170  289.74 0854.59
2009/04/23 12:50:30.7     -13    -96    121     97    155 188.0  56.4  34172  289.79 0854.59
2009/04/23 12:50:30.8     -61    -86    136    106    172 215.2  57.9  34166  289.69 0854.59
2009/04/23 12:50:30.9      82   -108     85    136    160 142.6  35.0  34172  289.77 0854.59
2009/04/23 12:50:31.0     165   -139    102    216    238 130.2  27.2  34168  289.72 0854.59
2009/04/23 12:50:31.1     190   -144    123    239    268 127.3  29.3  34172  289.78 0854.59
2009/04/23 12:50:31.2     192    -86     88    211    228 114.2  23.6  34166  289.69 0854.58
2009/04/23 12:50:31.3     -17    -92     98     94    135 190.7  50.7  34172  289.77 0854.58
2009/04/23 12:50:31.4    -136     23    141    138    197 279.6  50.7  34174  289.80 0854.58
2009/04/23 12:50:31.5     -92     98     98    135    166 316.8  39.9  34170  289.75 0854.58
2009/04/23 12:50:31.6      29     24    140     38    145  50.5  84.8  34166  289.69 0854.58
2009/04/23 12:50:31.7      68     63    177     93    199  47.3  70.4  34172  289.77 0854.58
2009/04/23 12:50:31.8     108     36    121    114    166  71.4  51.6  34170  289.75 0854.58
2009/04/23 12:50:31.9     -62    -53     71     82    108 229.6  45.4  34174  289.80 0854.58
2009/04/23 12:50:32.0    -124    -79    145    148    207 237.6  49.8  34168  289.70 0854.58
2009/04/23 12:50:32.1    -113    164    171    200    263 325.5  44.8  34166  289.66 0854.58
2009/04/23 12:50:32.2     -33    117     80    122    145 344.0  36.0  34172  289.77 0854.58
2009/04/23 12:50:32.3      59    -22     67     64     92 110.8  51.2  34168  289.72 0854.58
2009/04/23 12:50:32.5    -137      4    207    138    248 271.7  63.4  34168  289.70 0854.58
2009/04/23 12:50:32.6    -177   -205    162    271    315 220.8  33.7  34162  289.61 0854.58
2009/04/23 12:50:32.7    -310   -188    151    363    393 238.7  23.9  34174  289.82 0854.58
2009/04/23 12:50:32.8    -416   -183    145    455    478 246.3  17.7  34178  289.89 0854.58
2009/04/23 12:50:32.9    -234    -55    189    241    306 256.8  42.0  34170  289.75 0854.58
2009/04/23 12:50:33.0    -256    111     99    280    298 293.5  19.6  34170  289.73 0854.58
2009/04/23 12:50:33.1    -264     24     32    266    268 275.2   6.9  34170  289.73 0854.58
2009/04/23 12:50:33.2    -398     22     37    399    401 273.3   5.3  34172  289.79 0854.59
2009/04/23 12:50:33.3    -231   -208    126    311    335 228.0  23.2  34166  289.68 0854.59
2009/04/23 12:50:33.4    -302   -238    145    385    411 231.8  21.8  34168  289.70 0854.59
2009/04/23 12:50:33.5    -177   -127    202    218    297 234.3  47.9  34166  289.66 0854.59
2009/04/23 12:50:33.6    -269   -170    149    319    352 237.6  27.0  34168  289.72 0854.59
2009/04/23 12:50:33.7    -456     19      7    457    458 272.5   0.9  34174  289.82 0854.59
2009/04/23 12:50:33.8    -420    -77      0    428    429 259.5   0.0  34168  289.70 0854.59
2009/04/23 12:50:33.9    -393     67    -87    399    409 279.7 -12.4  34164  289.65 0854.59
2009/04/23 12:50:34.0    -424     93    -75    435    442 282.4  -9.8  34166  289.68 0854.59
2009/04/23 12:50:34.1    -464     78    -49    471    474 279.6  -6.0  34162  289.62 0854.59
2009/04/23 12:50:34.2    -320    153    -27    355    357 295.7  -4.5  34162  289.62 0854.59
2009/04/23 12:50:34.3    -280    132     71    310    319 295.4  12.9  34168  289.71 0854.59
2009/04/23 12:50:34.4    -304     71    -36    313    316 283.3  -6.7  34164  289.64 0854.59
2009/04/23 12:50:34.5    -357     27    -83    358    368 274.4 -13.1  34160  289.57 0854.59
2009/04/23 12:50:34.6    -327    -22    -71    328    336 266.1 -12.3  34158  289.54 0854.59
2009/04/23 12:50:34.7    -334    118    -20    355    356 289.6  -3.3  34152  289.42 0854.59
2009/04/23 12:50:34.8    -446     26    -48    447    450 273.4  -6.2  34172  289.77 0854.59
2009/04/23 12:50:34.9    -248      9    -73    249    259 272.1 -21.2  34170  289.73 0854.59
2009/04/23 12:50:35.0    -176     35    -64    180    192 281.2 -19.7  34172  289.77 0854.59
2009/04/23 12:50:35.1    -111     19    -90    113    144 279.7 -47.1  34172  289.77 0854.59
2009/04/23 12:50:35.2    -245    -78    -71    258    268 252.2 -15.5  34166  289.66 0854.59
2009/04/23 12:50:35.3    -389     42    -35    392    394 276.3  -5.2  34174  289.82 0854.59
2009/04/23 12:50:35.4    -262     86    -99    276    294 288.2 -19.7  34170  289.73 0854.59
2009/04/23 12:50:35.5    -280      9   -132    281    310 271.9 -31.5  34164  289.64 0854.59
2009/04/23 12:50:35.6    -254     96   -137    272    304 290.8 -32.9  34166  289.68 0854.59
2009/04/23 12:50:35.7    -168    168    -70    239    250 315.0 -16.4  34172  289.76 0854.59
2009/04/23 12:50:35.8    -111    178     -2    210    211 328.1  -0.7  34166  289.69 0854.59
2009/04/23 12:50:35.9    -154    155     -8    219    220 315.2  -2.3  34170  289.74 0854.59
2009/04/23 12:50:36.0    -306    161     17    346    347 297.8   2.9  34174  289.82 0854.59
2009/04/23 12:50:36.1    -353     51   -127    357    380 278.3 -19.6  34164  289.64 0854.59
2009/04/23 12:50:36.2    -382   -152   -102    412    425 248.3 -13.9  34176  289.83 0854.59
2009/04/23 12:50:36.3    -362   -171    -51    401    405 244.6  -7.4  34166  289.68 0854.59
2009/04/23 12:50:36.4    -283   -177   -100    334    349 238.0 -16.7  34166  289.67 0854.59
2009/04/23 12:50:36.5    -199    -29     71    202    215 261.6  19.4  34168  289.72 0854.59
2009/04/23 12:50:36.6    -333     64      6    340    341 281.0   1.1  34166  289.67 0854.59
2009/04/23 12:50:36.7    -372     71    -10    379    380 280.8  -1.6  34178  289.86 0854.59
2009/04/23 12:50:36.8    -400     32    -47    402    405 274.6  -6.7  34170  289.75 0854.59
2009/04/23 12:50:36.9    -392     44     -9    395    396 276.5  -1.4  34164  289.64 0854.59
2009/04/23 12:50:37.0    -236    -74     -1    248    249 252.5  -0.3  34166  289.68 0854.59
2009/04/23 12:50:37.1    -353    -81    -26    363    364 257.1  -4.2  34170  289.74 0854.59
2009/04/23 12:50:37.2    -281     65     96    289    305 283.2  18.5  34170  289.73 0854.59
2009/04/23 12:50:37.3    -370    -97    194    383    429 255.3  29.2  34198  290.21 0854.59
2009/04/23 12:50:37.4    -397    -38     12    399    400 264.4   1.8  34192  290.13 0854.59
2009/04/23 12:50:37.5    -455   -233    -84    512    519 242.9  -9.4  34186  290.00 0854.59
2009/04/23 12:50:37.6    -468   -351   -181    585    613 233.1 -17.2  34162  289.59 0854.59
2009/04/23 12:50:37.7    -454   -374   -179    589    616 230.5 -16.9  34154  289.47 0854.59
2009/04/23 12:50:37.8    -618   -270   -186    675    700 246.4 -20.0  34172  289.77 0854.59
2009/04/23 12:50:37.9    -597   -193   -209    628    661 252.1 -23.7  34162  289.60 0854.59
2009/04/23 12:50:38.0    -540   -180   -195    570    602 251.6 -23.9  34172  289.76 0854.59
2009/04/23 12:50:38.1    -462   -331   -145    569    588 234.4 -14.3  34174  289.81 0854.59
2009/04/23 12:50:38.2    -465   -316   -123    563    577 235.8 -12.4  34182  289.95 0854.59
2009/04/23 12:50:38.3    -464   -365    -97    591    600 231.8  -9.3  34160  289.56 0854.59
2009/04/23 12:50:38.4    -295    -69     23    304    305 256.7   4.4  34180  289.92 0854.59
2009/04/23 12:50:38.5    -347    -33    -19    349    350 264.5  -3.2  34192  290.11 0854.59
2009/04/23 12:50:38.6    -384    -78    -49    392    396 258.5  -7.2  34172  289.76 0854.59
2009/04/23 12:50:38.7    -614   -261   -114    668    678 246.9  -9.7  34166  289.68 0854.59
2009/04/23 12:50:38.8    -374   -271   -167    462    491 234.1 -25.1  34180  289.91 0854.59
2009/04/23 12:50:38.9    -334   -413   -111    532    544 219.0 -11.8  34176  289.85 0854.59
2009/04/23 12:50:39.0    -375   -342   -202    508    546 227.6 -27.4  34166  289.67 0854.59
2009/04/23 12:50:39.1    -567   -245   -255    618    668 246.6 -28.1  34172  289.76 0854.59
2009/04/23 12:50:39.2    -457   -201   -209    500    541 246.3 -28.5  34170  289.75 0854.60
2009/04/23 12:50:39.3    -396   -252    -54    470    474 237.5  -6.6  34178  289.89 0854.60
2009/04/23 12:50:39.4    -410   -258   -150    485    508 237.9 -17.2  34170  289.73 0854.60
2009/04/23 12:50:39.5    -318   -329   -150    458    483 224.0 -18.2  34172  289.78 0854.60
2009/04/23 12:50:39.6    -239    -97   -130    259    289 247.8 -32.9  34174  289.81 0854.60
2009/04/23 12:50:39.7    -123      0   -166    124    207 270.0 -63.8  34178  289.87 0854.60
2009/04/23 12:50:39.8    -124    -17     10    126    127 262.1   5.0  34172  289.77 0854.60
2009/04/23 12:50:39.9    -304    -24     26    306    308 265.4   5.0  34176  289.85 0854.60
2009/04/23 12:50:40.0    -253    -14     45    254    259 266.7  10.1  34180  289.90 0854.60
2009/04/23 12:50:40.1    -134    -91     31    162    166 235.8  11.1  34182  289.94 0854.60
2009/04/23 12:50:40.2     120   -185     57    221    229 147.0  14.5  34174  289.82 0854.60
2009/04/23 12:50:40.3     135   -570     82    586    592 166.6   8.0  34170  289.75 0854.60
2009/04/23 12:50:40.4     191   -401   -133    445    465 154.5 -16.7  34164  289.65 0854.60
2009/04/23 12:50:40.5     238   -560    -89    609    616 156.9  -8.4  34166  289.69 0854.60
2009/04/23 12:50:40.6      72   -583   -129    588    603 172.9 -12.4  34160  289.58 0854.60
2009/04/23 12:50:40.7     -18   -464    -18    465    466 182.3  -2.2  34168  289.71 0854.60
2009/04/23 12:50:40.8     -53   -572    -26    575    576 185.3  -2.6  34168  289.71 0854.60
2009/04/23 12:50:40.9    -281   -507    -60    580    584 209.0  -5.9  34170  289.73 0854.60
2009/04/23 12:50:41.0    -170   -371     30    409    411 204.6   4.2  34172  289.78 0854.60
2009/04/23 12:50:41.1    -129   -283   -113    312    331 204.5 -25.0  34174  289.80 0854.60
2009/04/23 12:50:41.2    -119   -417   -120    434    451 196.0 -15.5  34172  289.77 0854.60
2009/04/23 12:50:41.3     -58   -356   -186    361    406 189.4 -33.7  34172  289.76 0854.60
2009/04/23 12:50:41.4      32   -298    -43    300    304 173.8  -8.2  34168  289.71 0854.60
2009/04/23 12:50:41.5     -38   -279    -88    282    295 187.8 -22.3  34172  289.78 0854.60
2009/04/23 12:50:41.6     -33   -197    -56    200    208 189.6 -15.8  34164  289.65 0854.60
2009/04/23 12:50:41.7     -42   -105    -31    114    119 201.9 -15.5  34168  289.72 0854.60
2009/04/23 12:50:41.8      77   -197    -54    212    219 158.6 -14.5  34172  289.79 0854.60
2009/04/23 12:50:41.9     105   -149    -25    183    185 144.8  -8.0  34172  289.79 0854.60
2009/04/23 12:50:42.0      97    -73    -25    122    125 126.9 -11.9  34172  289.77 0854.60
2009/04/23 12:50:42.1      72    -56     18     92     94 128.2  11.1  34170  289.74 0854.60
2009/04/23 12:50:42.2      30    -64     31     72     78 154.5  24.1  34170  289.75 0854.60
2009/04/23 12:50:42.3     -33   -100     71    106    127 198.7  37.0  34166  289.67 0854.60
2009/04/23 12:50:42.4     -15    -31    100     35    105 205.4  81.2  34180  289.91 0854.60
2009/04/23 12:50:42.5     -57    -36    108     68    127 237.6  64.7  34178  289.89 0854.60
2009/04/23 12:50:42.6    -117    -40     69    124    141 250.9  31.4  34172  289.77 0854.60
2009/04/23 12:50:42.7    -161   -100     79    190    205 238.2  23.8  34170  289.74 0854.60
2009/04/23 12:50:42.8    -166    -64     88    179    199 248.7  28.0  34174  289.80 0854.60
2009/04/23 12:50:42.9     -82    -18     70     84    109 257.6  43.8  34178  289.87 0854.60
2009/04/23 12:50:43.0    -270    -54     33    276    279 258.5   6.9  34178  289.88 0854.60
2009/04/23 12:50:43.1    -331   -105     95    348    361 252.4  15.3  34174  289.81 0854.60
2009/04/23 12:50:43.2    -333      3    111    334    353 270.6  18.4  34172  289.79 0854.61
2009/04/23 12:50:43.3    -319     24    165    320    360 274.4  29.3  34172  289.79 0854.61
2009/04/23 12:50:43.4    -275     -4    143    276    310 269.0  29.3  34168  289.70 0854.61
2009/04/23 12:50:43.5    -164    -32    154    168    227 259.0  47.7  34176  289.84 0854.61
2009/04/23 12:50:43.6    -227   -145    143    270    305 237.4  30.1  34172  289.76 0854.61
2009/04/23 12:50:43.7    -274    -76    156    285    324 254.5  30.9  34174  289.80 0854.61
2009/04/23 12:50:43.8    -231    -64    104    240    261 254.5  24.9  34172  289.78 0854.61
2009/04/23 12:50:43.9    -281     43     95    285    301 278.8  18.6  34172  289.76 0854.61
2009/04/23 12:50:44.0     -44   -281    155    285    324 188.9  30.8  34162  289.59 0854.61
2009/04/23 12:50:44.1     -35   -217    216    220    308 189.3  49.9  34172  289.78 0854.61
2009/04/23 12:50:44.2     -50   -185    206    192    281 195.4  52.2  34168  289.71 0854.61
2009/04/23 12:50:44.3      16   -328    251    329    413 177.1  41.2  34172  289.76 0854.61
2009/04/23 12:50:44.4      62   -205    229    215    314 163.1  52.0  34178  289.88 0854.61
2009/04/23 12:50:44.5      47   -230    202    235    309 168.4  44.9  34170  289.73 0854.61
2009/04/23 12:50:44.6     -24   -314    197    316    372 184.5  35.0  34170  289.74 0854.61
2009/04/23 12:50:44.7       0   -352    199    353    405 179.9  32.0  34168  289.72 0854.61
2009/04/23 12:50:44.8    -202   -425    265    471    540 205.5  31.9  34180  289.91 0854.61
2009/04/23 12:50:44.9    -180   -368    182    410    448 206.1  25.6  34180  289.90 0854.61
2009/04/23 12:50:45.0    -286   -214     83    358    368 233.1  13.1  34192  290.11 0854.61
2009/04/23 12:50:45.1    -389   -191     72    434    440 243.8   9.5  34186  290.02 0854.61
2009/04/23 12:50:45.2    -318   -290     54    431    435 227.7   7.2  34174  289.80 0854.61
2009/04/23 12:50:45.3    -303   -229    -40    380    383 232.9  -6.1  34174  289.82 0854.61
2009/04/23 12:50:45.4    -214   -149    107    261    282 235.1  23.4  34172  289.78 0854.61
2009/04/23 12:50:45.5    -279    -56    149    285    321 258.5  30.0  34182  289.95 0854.61
2009/04/23 12:50:45.6     -68   -221    147    232    274 197.2  35.5  34174  289.80 0854.61
2009/04/23 12:50:45.7    -105   -392     98    406    418 195.1  13.7  34172  289.78 0854.61
2009/04/23 12:50:45.8    -153   -360     86    392    402 203.0  12.4  34178  289.87 0854.61
2009/04/23 12:50:45.9    -215   -433      9    484    485 206.4   1.1  34182  289.95 0854.61
2009/04/23 12:50:46.0    -135   -416    -40    438    441 198.0  -5.3  34174  289.80 0854.61
2009/04/23 12:50:46.1    -121   -363    -21    383    384 198.5  -3.1  34172  289.76 0854.61
2009/04/23 12:50:46.2      82   -367     19    377    378 167.4   2.9  34172  289.77 0854.62
2009/04/23 12:50:46.3      23   -360     55    361    366 176.2   8.7  34174  289.82 0854.62
2009/04/23 12:50:46.4     -65   -343     62    350    356 190.8  10.1  34176  289.84 0854.62
2009/04/23 12:50:46.5     -98   -271     56    289    295 200.0  11.0  34178  289.86 0854.62
2009/04/23 12:50:46.6     -20   -199     84    201    217 185.8  23.8  34174  289.80 0854.62
2009/04/23 12:50:46.7    -130   -175    158    219    270 216.5  39.5  34182  289.93 0854.62
2009/04/23 12:50:46.8    -208   -172     74    271    281 230.4  15.3  34180  289.92 0854.62
2009/04/23 12:50:46.9     -84   -133    130    158    204 212.5  43.7  34178  289.87 0854.62
2009/04/23 12:50:47.0     -64    -77    104    101    144 219.7  50.2  34180  289.92 0854.62
2009/04/23 12:50:47.1    -109    -68     20    129    131 238.0   9.0  34182  289.94 0854.62
2009/04/23 12:50:47.2     -79    -64     58    103    118 230.9  31.4  34182  289.94 0854.62
2009/04/23 12:50:47.3     -69   -108     49    129    137 212.5  22.0  34178  289.87 0854.62
2009/04/23 12:50:47.4       0    -57     50     58     76 180.9  44.8  34180  289.92 0854.62
2009/04/23 12:50:47.5     -27    -45     45     53     69 211.6  43.8  34186  290.02 0854.62
2009/04/23 12:50:47.6     -61     50     27     80     85 309.5  18.9  34184  289.99 0854.62
2009/04/23 12:50:47.7     -85     62    -33    106    112 306.4 -17.6  34184  289.99 0854.62
2009/04/23 12:50:47.8      -8     89    -32     90     96 354.7 -19.7  34184  289.99 0854.62
2009/04/23 12:50:47.9      43     27     18     51     55  57.5  19.4  34190  290.09 0854.62
2009/04/23 12:50:48.0      78     22    -23     82     86  74.1 -16.0  34184  289.99 0854.62
2009/04/23 12:50:48.1      89     34      3     96     97  69.2   2.3  34184  289.97 0854.62
2009/04/23 12:50:48.2       0     -2     79      3     79 161.5  90.0  34186  290.02 0854.62
2009/04/23 12:50:48.3      17    -91     90     93    129 169.3  49.4  34188  290.04 0854.62
2009/04/23 12:50:48.4      62   -132     59    147    158 154.7  23.0  34182  289.94 0854.62
2009/04/23 12:50:48.5     143   -230    129    271    300 148.1  27.3  34174  289.80 0854.62
2009/04/23 12:50:48.6     216   -236    206    321    381 137.6  35.6  34172  289.79 0854.62
2009/04/23 12:50:48.7     207   -131     84    246    261 122.4  18.9  34176  289.83 0854.62
2009/04/23 12:50:48.8      78   -107     67    133    148 144.0  28.7  34176  289.84 0854.62
2009/04/23 12:50:48.9      43    -80     73     92    117 151.5  43.3  34176  289.85 0854.62
2009/04/23 12:50:49.0      61    -84    122    104    160 144.0  55.0  34178  289.87 0854.62
2009/04/23 12:50:49.1      57   -120     87    134    159 154.5  36.0  34178  289.89 0854.62
2009/04/23 12:50:49.2      -1   -108    205    109    232 181.0  69.6  34172  289.79 0854.62
2009/04/23 12:50:49.3      59    -48    147     77    165 129.5  70.0  34184  289.99 0854.62
2009/04/23 12:50:49.4     108   -456    325    469    570 166.6  38.1  34176  289.85 0854.62
2009/04/23 12:50:49.5     -31   -489    283    490    565 183.7  32.6  34172  289.79 0854.62
2009/04/23 12:50:49.6     -94   -457    330    467    571 191.7  38.6  34176  289.85 0854.62
2009/04/23 12:50:49.7    -149   -533    119    554    567 195.7  12.2  34180  289.90 0854.62
2009/04/23 12:50:49.8     -76   -442    137    449    470 189.8  17.0  34170  289.75 0854.62
2009/04/23 12:50:49.9    -146   -428    193    453    492 198.8  24.5  34180  289.91 0854.62
2009/04/23 12:50:50.0     -65   -345     96    352    365 190.7  15.3  34176  289.84 0854.62
2009/04/23 12:50:50.1     112   -177    128    210    245 147.7  34.4  34180  289.90 0854.62
2009/04/23 12:50:50.2     142    -62    118    156    195 113.6  41.2  34176  289.85 0854.63
2009/04/23 12:50:50.3      11    -23    114     26    116 152.8  87.5  34186  290.02 0854.63
2009/04/23 12:50:50.4      23      0     95     24     97  90.0  85.9  34186  290.01 0854.63
2009/04/23 12:50:50.5      21     97     86    100    131  12.5  45.4  34182  289.94 0854.63
2009/04/23 12:50:50.6      27    197    131    199    238   7.8  36.5  34180  289.91 0854.63
2009/04/23 12:50:50.7       8    267    157    268    310   1.8  33.4  34182  289.95 0854.63
2009/04/23 12:50:50.8      44    180    120    186    221  13.8  35.6  34184  289.97 0854.63
2009/04/23 12:50:50.9     -16    198     37    199    203 355.3  10.6  34182  289.94 0854.63
2009/04/23 12:50:51.0      -7    166     32    167    171 357.3  10.8  34182  289.94 0854.63
2009/04/23 12:50:51.1      14    124     55    125    136   6.7  25.2  34178  289.87 0854.63
2009/04/23 12:50:51.2     -64     73     56     98    112 318.6  32.4  34184  289.99 0854.63
2009/04/23 12:50:51.3    -146     48     65    154    167 288.2  24.3  34182  289.94 0854.63
2009/04/23 12:50:51.4     -79     53     71     96    119 303.7  40.1  34182  289.96 0854.63
2009/04/23 12:50:51.5     -62    -16     79     65    102 254.9  56.3  34184  289.97 0854.63
2009/04/23 12:50:51.6    -147    -79     58    168    178 241.6  19.2  34176  289.85 0854.63
2009/04/23 12:50:51.7    -194    -52    123    202    236 254.9  34.2  34176  289.85 0854.63
2009/04/23 12:50:51.8     -89   -125    152    154    216 215.6  49.9  34176  289.85 0854.63
2009/04/23 12:50:51.9    -270     16     38    271    274 273.4   8.0  34178  289.86 0854.63
2009/04/23 12:50:52.0    -226     24     87    228    244 276.2  21.7  34182  289.93 0854.63
2009/04/23 12:50:52.1    -253     80     41    266    270 287.5   8.9  34182  289.95 0854.63
2009/04/23 12:50:52.2    -301     -8      1    302    303 268.3   0.2  34180  289.92 0854.63
2009/04/23 12:50:52.3    -220    -52     49    227    233 256.7  12.2  34180  289.92 0854.63
2009/04/23 12:50:52.4    -138   -138    107    196    223 224.9  31.3  34176  289.85 0854.63
2009/04/23 12:50:52.5    -126   -245    220    276    352 207.2  42.6  34184  289.98 0854.63
2009/04/23 12:50:52.6    -257   -174    222    311    382 235.8  39.2  34184  289.99 0854.63
2009/04/23 12:50:52.7    -212   -225    195    310    366 223.3  35.3  34184  289.99 0854.63
2009/04/23 12:50:52.8    -175   -250    118    306    327 215.1  22.2  34182  289.95 0854.63
2009/04/23 12:50:52.9     -75   -300    208    310    373 194.0  37.2  34178  289.89 0854.63
2009/04/23 12:50:53.0    -198   -239    298    311    430 219.7  48.8  34188  290.04 0854.63
2009/04/23 12:50:53.1    -256   -200     21    326    327 232.0   3.8  34182  289.93 0854.63
2009/04/23 12:50:53.2    -235    -98    136    255    289 247.2  30.3  34188  290.05 0854.63
2009/04/23 12:50:53.3     -29   -164    149    167    223 190.0  46.4  34182  289.96 0854.63
2009/04/23 12:50:53.4     -43   -225    222    230    319 190.9  49.1  34180  289.92 0854.63
2009/04/23 12:50:53.5     -66   -208    216    219    307 197.8  49.9  34180  289.92 0854.63
2009/04/23 12:50:53.6     -68   -207    171    218    277 198.3  41.7  34180  289.92 0854.63
2009/04/23 12:50:53.7      21   -156    235    158    283 172.0  62.8  34186  290.02 0854.63
2009/04/23 12:50:53.8    -170   -250    157    303    341 214.3  29.5  34182  289.93 0854.63
2009/04/23 12:50:53.9    -240   -263    178    357    398 222.4  28.4  34182  289.94 0854.63
2009/04/23 12:50:54.0    -197   -254    160    322    359 217.9  28.5  34188  290.04 0854.63
2009/04/23 12:50:54.1     -52   -244    124    250    279 192.0  28.2  34180  289.92 0854.63
2009/04/23 12:50:54.2    -139   -104     61    174    185 233.1  19.4  34182  289.94 0854.64
2009/04/23 12:50:54.3    -246   -244     41    347    350 225.2   6.9  34182  289.94 0854.64
2009/04/23 12:50:54.4    -162   -276     91    321    334 210.4  15.9  34178  289.86 0854.64
2009/04/23 12:50:54.5    -172   -229    148    287    322 217.0  29.3  34176  289.85 0854.64
2009/04/23 12:50:54.6    -120   -225    156    256    299 208.1  34.4  34182  289.93 0854.64
2009/04/23 12:50:54.7    -280   -178    115    333    353 237.5  19.1  34182  289.93 0854.64
2009/04/23 12:50:54.8    -190   -197    128    274    302 223.9  27.1  34178  289.86 0854.64
2009/04/23 12:50:54.9    -392   -266      0    474    475 235.8   0.1  34200  290.25 0854.64
2009/04/23 12:50:55.0    -440   -337    -39    555    557 232.6  -4.1  34176  289.85 0854.64
2009/04/23 12:50:55.1    -171   -195     17    260    261 221.2   3.8  34172  289.76 0854.64
2009/04/23 12:50:55.2    -251   -165    100    301    318 236.7  18.5  34174  289.80 0854.64
2009/04/23 12:50:55.3    -165   -304    175    347    388 208.5  28.7  34172  289.79 0854.64
2009/04/23 12:50:55.4     -96   -354    118    367    386 195.3  17.9  34170  289.74 0854.64
2009/04/23 12:50:55.5    -151   -402    104    430    443 200.6  13.7  34168  289.70 0854.64
2009/04/23 12:50:55.6    -270   -350    104    443    456 217.6  13.2  34172  289.77 0854.64
2009/04/23 12:50:55.7    -218   -411    127    466    484 208.0  15.3  34174  289.81 0854.64
2009/04/23 12:50:55.8    -130   -299    181    327    373 203.5  31.4  34160  289.57 0854.64
2009/04/23 12:50:55.9     -71   -267    166    277    322 195.1  33.8  34170  289.75 0854.64
2009/04/23 12:50:56.0    -104   -203    131    229    263 207.1  32.4  34172  289.78 0854.64
2009/04/23 12:50:56.1    -110   -223    103    249    269 206.3  23.8  34170  289.73 0854.64
2009/04/23 12:50:56.2    -102   -182     82    209    224 209.4  22.5  34172  289.77 0854.65
2009/04/23 12:50:56.3     -62   -108     44    125    133 209.9  19.4  34172  289.77 0854.65
2009/04/23 12:50:56.4    -127   -126    -12    180    181 225.2  -4.1  34168  289.70 0854.65
2009/04/23 12:50:56.5    -136    -81    -49    159    166 239.3 -22.3  34176  289.84 0854.65
2009/04/23 12:50:56.6      -6   -108    -23    109    112 183.6 -11.9  34168  289.72 0854.65
2009/04/23 12:50:56.7     -14   -100      5    102    103 188.0   2.9  34172  289.77 0854.65
2009/04/23 12:50:56.8     -51    -32    -10     61     62 237.6  -9.3  34172  289.79 0854.65
2009/04/23 12:50:56.9     -55    -11     -2     57     58 258.5  -2.2  34174  289.80 0854.65
2009/04/23 12:50:57.0     -47    -14    -18     50     53 253.2 -23.3  34172  289.79 0854.65
2009/04/23 12:50:57.1     -34   -106    -61    112    127 197.8 -35.7  34170  289.75 0854.65
2009/04/23 12:50:57.2     -14   -156    -49    157    165 185.3 -17.6  34170  289.74 0854.65
2009/04/23 12:50:57.3    -135    -86     21    161    163 237.6   7.5  34168  289.70 0854.65
2009/04/23 12:50:57.4    -138    -73     12    157    158 242.0   4.6  34172  289.79 0854.65
2009/04/23 12:50:57.5     -50   -140    156    149    215 200.0  52.0  34174  289.80 0854.65
2009/04/23 12:50:57.6       9   -210    126    211    245 177.3  33.5  34174  289.80 0854.65
2009/04/23 12:50:57.7     -55   -212     45    220    225 194.7  11.6  34170  289.74 0854.65
2009/04/23 12:50:57.8    -133   -269     42    301    305 206.3   8.0  34176  289.83 0854.65
2009/04/23 12:50:57.9     -91   -236    154    254    297 201.2  34.2  34172  289.78 0854.65
2009/04/23 12:50:58.0    -140   -301     91    333    346 204.9  15.3  34174  289.82 0854.65
2009/04/23 12:50:58.1    -288   -288     42    408    411 225.0   6.0  34180  289.90 0854.65
2009/04/23 12:50:58.2    -306   -326    221    448    499 223.2  28.2  34178  289.86 0854.61
2009/04/23 12:50:58.3    -175   -417    220    453    503 202.8  27.7  34172  289.79 0854.61
2009/04/23 12:50:58.4    -242   -409     44    476    479 210.7   5.3  34164  289.64 0854.61
2009/04/23 12:50:58.5    -195   -365    214    414    466 208.1  29.3  34170  289.73 0854.61
2009/04/23 12:50:58.6    -160   -365    351    399    531 203.7  45.9  34172  289.76 0854.61
2009/04/23 12:50:58.7    -195   -368    285    417    505 208.0  37.6  34176  289.83 0854.61
2009/04/23 12:50:58.8    -227   -386     99    449    460 210.5  12.5  34176  289.83 0854.61
2009/04/23 12:50:58.9    -105   -437    132    450    469 193.6  16.4  34172  289.78 0854.61
2009/04/23 12:50:59.0    -143   -425     -7    449    450 198.6  -0.9  34174  289.82 0854.61
2009/04/23 12:50:59.1    -196   -470     33    510    512 202.7   3.8  34178  289.89 0854.61
2009/04/23 12:50:59.2    -299   -530     22    609    610 209.4   2.1  34178  289.86 0854.61
2009/04/23 12:50:59.3    -237   -372      0    442    443 212.5   0.1  34170  289.75 0854.61
2009/04/23 12:50:59.4    -325   -397    -27    514    515 219.3  -3.0  34172  289.78 0854.61
2009/04/23 12:50:59.5    -135   -319     -8    347    348 203.0  -1.4  34152  289.42 0854.61
2009/04/23 12:50:59.6       0   -443     59    444    448 180.1   7.6  34166  289.66 0854.61
2009/04/23 12:50:59.7      31   -409    166    411    443 175.6  23.1  34168  289.70 0854.61
2009/04/23 12:50:59.8     -90   -440    150    450    475 191.6  18.5  34166  289.69 0854.61
2009/04/23 12:50:59.9      38   -571    144    573    591 176.1  14.2  34172  289.76 0854.61
2009/04/23 12:51:00.0     -26   -574    125    575    589 182.7  12.3  34174  289.81 0854.61
2009/04/23 12:51:00.1    -109   -553     27    564    565 191.2   2.8  34166  289.68 0854.60
2009/04/23 12:51:00.3    -101   -495    -49    506    509 191.6  -5.6  34166  289.66 0854.60
2009/04/23 12:51:00.4    -120   -461    135    477    496 194.7  15.8  34176  289.84 0854.60
2009/04/23 12:51:00.5    -315   -566   -209    649    681 209.1 -23.0  34172  289.78 0854.60
2009/04/23 12:51:00.6    -390   -500     48    635    637 218.0   4.4  34154  289.48 0854.60
2009/04/23 12:51:00.7    -118   -533    203    546    582 192.5  21.3  34174  289.80 0854.60
2009/04/23 12:51:00.8    -272   -473    138    546    564 209.9  14.2  34174  289.82 0854.60
2009/04/23 12:51:00.9    -241   -506     87    561    568 205.5   8.9  34168  289.72 0854.60
2009/04/23 12:51:01.0    -237   -443    117    503    517 208.2  13.1  34176  289.84 0854.60
2009/04/23 12:51:01.1    -283   -541    124    611    624 207.7  11.5  34178  289.86 0854.60
2009/04/23 12:51:01.2    -223   -521     89    567    575 203.2   9.0  34178  289.86 0854.60
2009/04/23 12:51:01.3    -203   -470    151    513    535 203.4  16.4  34172  289.77 0854.60
2009/04/23 12:51:01.4    -204   -429    168    476    504 205.5  20.2  34176  289.84 0854.60
2009/04/23 12:51:01.5    -198   -389    117    437    453 207.0  15.0  34178  289.88 0854.60
2009/04/23 12:51:01.6    -132   -300     85    328    339 203.8  14.6  34172  289.79 0854.60
2009/04/23 12:51:01.7    -169   -332    130    373    396 207.0  19.2  34174  289.81 0854.60
2009/04/23 12:51:01.8    -193   -333     50    385    389 210.1   7.4  34174  289.82 0854.60
2009/04/23 12:51:01.9    -113   -256    -51    280    285 203.8 -10.5  34168  289.71 0854.60
2009/04/23 12:51:02.0     -63   -188     38    199    203 198.5  10.8  34180  289.91 0854.60
2009/04/23 12:51:02.1     -84   -239      4    254    255 199.4   1.0  34176  289.83 0854.60
2009/04/23 12:51:02.2     -81   -349     51    359    363 193.2   8.2  34172  289.79 0854.61
2009/04/23 12:51:02.3    -264   -395     57    476    480 213.7   6.9  34176  289.84 0854.61
2009/04/23 12:51:02.4    -290   -373     83    473    481 217.9  10.0  34178  289.86 0854.61
2009/04/23 12:51:02.5    -258   -268     48    373    377 223.9   7.4  34174  289.81 0854.61
2009/04/23 12:51:02.6    -261   -254     57    365    370 225.8   9.0  34178  289.89 0854.61
2009/04/23 12:51:02.7    -270   -234     11    358    359 229.0   1.8  34180  289.91 0854.61
2009/04/23 12:51:02.8    -336   -236     53    411    415 234.9   7.4  34180  289.90 0854.61
2009/04/23 12:51:02.9    -174   -159    117    237    264 227.6  28.2  34180  289.90 0854.61
2009/04/23 12:51:03.0    -112   -232    246    258    356 205.9  48.6  34176  289.83 0854.61
2009/04/23 12:51:03.1    -146   -266    202    304    364 208.7  36.7  34176  289.84 0854.61
2009/04/23 12:51:03.2    -148   -218    189    264    324 214.3  39.2  34180  289.92 0854.61
2009/04/23 12:51:03.3    -128   -127    212    181    278 225.3  55.4  34188  290.05 0854.61
2009/04/23 12:51:03.4    -104   -154    174    186    254 214.1  47.9  34176  289.85 0854.61
2009/04/23 12:51:03.5    -113   -113    181    160    241 225.0  54.0  34182  289.96 0854.61
2009/04/23 12:51:03.6    -109   -125    159    167    230 221.2  48.5  34180  289.92 0854.61
2009/04/23 12:51:03.7    -127   -127     93    180    202 224.9  29.3  34180  289.91 0854.61
2009/04/23 12:51:03.8    -103    -62     59    121    134 238.9  27.8  34184  289.99 0854.61
2009/04/23 12:51:03.9    -226      3    156    227    275 270.9  37.6  34186  290.00 0854.61
2009/04/23 12:51:04.0    -118    -93    138    151    204 231.8  47.7  34186  290.01 0854.61
2009/04/23 12:51:04.1     -88   -134     16    161    162 213.4   5.9  34182  289.96 0854.61
2009/04/23 12:51:04.2    -127   -107   -121    167    206 230.0 -44.1  34178  289.87 0854.62
2009/04/23 12:51:04.3     -87   -112    -46    142    149 217.9 -23.8  34174  289.82 0854.62
2009/04/23 12:51:04.4    -196   -125    105    233    255 237.5  26.2  34186  290.00 0854.62
2009/04/23 12:51:04.5    -181   -149    125    235    266 230.5  30.3  34188  290.03 0854.62
2009/04/23 12:51:04.6    -267      0     26    268    270 270.0   5.7  34188  290.05 0854.62
2009/04/23 12:51:04.7    -109    -32     65    114    131 253.2  32.4  34186  290.01 0854.62
2009/04/23 12:51:04.8       7    -67     38     68     77 173.8  31.4  34182  289.96 0854.62
2009/04/23 12:51:04.9      11    -43     31     45     54 165.7  37.6  34180  289.92 0854.62
2009/04/23 12:51:05.0      12     -8     20     15     25 122.4  60.5  34180  289.92 0854.62
2009/04/23 12:51:05.1      31      0     31     32     44  90.0  51.1  34182  289.94 0854.62
2009/04/23 12:51:05.2      42    -51     -1     67     68 140.3  -1.3  34180  289.91 0854.62
2009/04/23 12:51:05.3      59    -79     -4     99    100 143.0  -2.6  34176  289.85 0854.62
2009/04/23 12:51:05.4     105    -92      0    140    141 131.3  -0.3  34180  289.92 0854.62
2009/04/23 12:51:05.5     118    -97     13    154    155 129.5   4.9  34182  289.94 0854.62
2009/04/23 12:51:05.6      91    -85      1    125    126 133.1   0.8  34184  289.97 0854.62
2009/04/23 12:51:05.7      60    -72     15     94     96 140.3   9.5  34184  289.99 0854.62
2009/04/23 12:51:05.8      60    -33     40     69     79 118.9  32.9  34180  289.92 0854.62
2009/04/23 12:51:05.9     -16     -1     50     17     52 265.6  81.0  34182  289.94 0854.62
2009/04/23 12:51:06.0    -117    -46     32    126    131 248.3  14.3  34176  289.85 0854.62
2009/04/23 12:51:06.1    -176    -75     21    192    194 246.7   6.5  34176  289.85 0854.62
2009/04/23 12:51:06.2    -189    -21     -7    191    192 263.4  -2.2  34184  289.99 0854.62
2009/04/23 12:51:06.3    -213     16    -58    214    222 274.4 -15.2  34184  289.99 0854.62
2009/04/23 12:51:06.4    -325    -85    -88    336    348 255.3 -14.8  34190  290.08 0854.62
2009/04/23 12:51:06.5    -208   -150     43    257    261 234.1   9.5  34180  289.92 0854.62
2009/04/23 12:51:06.6    -388   -119    -72    406    413 252.9 -10.1  34176  289.83 0854.62
2009/04/23 12:51:06.7    -467    -46   -105    470    482 264.3 -12.7  34190  290.08 0854.62
2009/04/23 12:51:06.8    -322   -324   -153    457    483 224.8 -18.6  34178  289.86 0854.62
2009/04/23 12:51:06.9    -335   -293    -74    446    453 228.9  -9.5  34180  289.92 0854.62
2009/04/23 12:51:07.0    -419   -295    -61    513    517 234.8  -6.8  34166  289.69 0854.62
2009/04/23 12:51:07.1    -508   -239   -124    562    576 244.8 -12.5  34186  290.02 0854.62
2009/04/23 12:51:07.2    -443   -297   -124    534    549 236.2 -13.1  34176  289.85 0854.61
2009/04/23 12:51:07.3    -326    -98    -66    341    348 253.2 -11.0  34188  290.04 0854.61
2009/04/23 12:51:07.4    -260   -215   -136    338    364 230.3 -27.5  34182  289.93 0854.61
2009/04/23 12:51:07.5    -149   -223   -114    269    292 213.8 -28.6  34184  289.97 0854.61
2009/04/23 12:51:07.6    -234   -164    101    287    305 234.9  19.4  34180  289.92 0854.61
2009/04/23 12:51:07.7    -380   -151     82    409    418 248.3  11.3  34194  290.16 0854.61
2009/04/23 12:51:07.8    -300   -374    -75    480    486 218.7  -8.9  34182  289.96 0854.61
2009/04/23 12:51:07.9    -184   -205    139    276    309 221.9  28.7  34192  290.12 0854.61
2009/04/23 12:51:08.0    -114   -242    -33    268    271 205.4  -7.2  34186  290.00 0854.61
2009/04/23 12:51:08.1    -135   -234    -88    271    284 209.9 -23.0  34182  289.95 0854.61
2009/04/23 12:51:08.2      -2   -151     52    152    161 181.0  18.9  34182  289.94 0854.61
2009/04/23 12:51:08.3     -75   -110     40    134    140 214.2  16.8  34184  289.97 0854.61
2009/04/23 12:51:08.4     -88   -141     -6    167    168 212.1  -2.3  34192  290.11 0854.61
2009/04/23 12:51:08.5     -53   -118    -33    130    135 204.1 -14.5  34192  290.13 0854.61
2009/04/23 12:51:08.6    -101   -138     39    172    177 216.1  12.9  34190  290.08 0854.61
2009/04/23 12:51:08.7     -82   -120      7    146    147 214.3   2.9  34190  290.08 0854.61
2009/04/23 12:51:08.8    -295    -17    -16    296    297 266.6  -3.2  34200  290.26 0854.61
2009/04/23 12:51:08.9    -193    -27     69    195    206 262.0  20.4  34200  290.25 0854.61
2009/04/23 12:51:09.0    -118   -123     66    171    183 223.7  22.0  34198  290.21 0854.61
2009/04/23 12:51:09.1    -102   -160    -99    190    214 212.5 -33.9  34192  290.13 0854.61
2009/04/23 12:51:09.2     -79   -238     -7    251    252 198.5  -1.6  34176  289.85 0854.60
2009/04/23 12:51:09.3    -134   -221    -11    259    260 211.2  -2.6  34174  289.81 0854.60
2009/04/23 12:51:09.4     -17   -177    -30    178    181 185.6  -9.8  34180  289.91 0854.60
2009/04/23 12:51:09.5    -112   -151    -56    189    198 216.5 -16.6  34178  289.89 0854.60
2009/04/23 12:51:09.6     -66   -196    -23    207    209 198.7  -6.5  34178  289.87 0854.60
2009/04/23 12:51:09.7     -70   -136    -46    154    161 207.2 -16.6  34180  289.92 0854.60
2009/04/23 12:51:09.8     -92    -53    -43    107    115 239.8 -27.4  34180  289.91 0854.60
2009/04/23 12:51:09.9    -161     12    -53    162    170 274.3 -23.6  34184  289.99 0854.60
2009/04/23 12:51:10.0    -191    -28    -79    194    209 261.4 -27.5  34192  290.13 0854.60
2009/04/23 12:51:10.1    -115    -45   -142    124    188 248.3 -58.7  34186  290.01 0854.60
2009/04/23 12:51:10.2    -102    -43    -84    111    139 246.9 -45.1  34186  290.01 0854.60
2009/04/23 12:51:10.3     -87   -222    -64    239    248 201.6 -15.2  34180  289.90 0854.60
2009/04/23 12:51:10.4     -17   -226    -69    227    238 184.4 -17.0  34176  289.85 0854.60
2009/04/23 12:51:10.5      22   -265    -34    267    270 175.1  -7.3  34180  289.90 0854.60
2009/04/23 12:51:10.6     105   -220     37    244    247 154.4   8.8  34176  289.85 0854.60
2009/04/23 12:51:10.7     121   -189     70    225    236 147.4  17.3  34168  289.72 0854.60
2009/04/23 12:51:10.8      74   -134    138    154    206 151.0  46.4  34178  289.89 0854.60
2009/04/23 12:51:10.9      20     45    116     50    126  24.5  75.0  34190  290.08 0854.60
2009/04/23 12:51:11.0     -49     31     98     59    114 302.4  65.7  34192  290.11 0854.60
2009/04/23 12:51:11.1       0     34     75     35     82 359.1  73.5  34188  290.04 0854.60
2009/04/23 12:51:11.2     -65     -4     89     66    110 266.5  60.0  34188  290.04 0854.56
2009/04/23 12:51:11.3    -257    -55     78    263    275 257.8  16.6  34188  290.03 0854.56
2009/04/23 12:51:11.4    -143    -47     91    151    176 251.8  34.0  34190  290.09 0854.56
2009/04/23 12:51:11.5     -19     38     89     43     98 332.8  72.4  34190  290.09 0854.56
2009/04/23 12:51:11.6      48     -6    114     49    124  97.9  75.5  34190  290.08 0854.56
2009/04/23 12:51:11.7     -27    -77    112     82    138 199.6  60.5  34188  290.04 0854.56
2009/04/23 12:51:11.8     -17     60     81     63    102 344.0  57.9  34194  290.14 0854.56
2009/04/23 12:51:11.9       0     71     82     72    109   0.0  53.7  34186  290.02 0854.56
2009/04/23 12:51:12.0      16     73     85     75    113  12.5  53.7  34192  290.11 0854.56
2009/04/23 12:51:12.1     -21     55     52     59     78 339.1  46.4  34192  290.11 0854.56
2009/04/23 12:51:12.2     -13     -3      3     14     15 254.9  15.3  34186  290.02 0854.56
2009/04/23 12:51:12.3     -84    -48    -52     97    110 240.2 -35.2  34190  290.09 0854.56
2009/04/23 12:51:12.4    -122    -28    -94    126    157 256.7 -45.1  34188  290.06 0854.56
2009/04/23 12:51:12.5    -130     28    -63    134    148 282.4 -31.5  34182  289.94 0854.56
2009/04/23 12:51:12.6    -195     99    -88    219    236 297.0 -27.4  34176  289.85 0854.56
2009/04/23 12:51:12.7    -136    116    -82    179    196 310.4 -30.6  34172  289.77 0854.56
2009/04/23 12:51:12.8    -199    -40    -86    203    220 258.5 -28.7  34182  289.94 0854.56
2009/04/23 12:51:12.9    -182    -60    -98    192    215 251.6 -33.6  34178  289.89 0854.56
2009/04/23 12:51:13.0    -196    -74   -115    210    239 249.2 -35.4  34180  289.92 0854.56
2009/04/23 12:51:13.1    -266    -58   -137    273    305 257.7 -32.9  34188  290.05 0854.56
2009/04/23 12:51:13.2    -239   -117    -21    267    268 243.8  -4.6  34184  289.98 0854.52
2009/04/23 12:51:13.3    -307   -143    -75    339    348 245.0 -12.6  34180  289.91 0854.52
2009/04/23 12:51:13.4    -293    -60   -233    300    379 258.3 -46.1  34154  289.47 0854.52
2009/04/23 12:51:13.5    -308   -103   -239    326    404 251.4 -44.2  34158  289.54 0854.52
2009/04/23 12:51:13.6    -285   -118   -317    309    442 247.4 -55.2  34160  289.56 0854.52
2009/04/23 12:51:13.7    -429   -143   -383    453    593 251.6 -49.1  34170  289.74 0854.52
2009/04/23 12:51:13.8    -247    -80   -283    260    384 252.1 -57.1  34170  289.74 0854.52
2009/04/23 12:51:13.9    -182    -98   -190    207    280 241.6 -51.9  34174  289.81 0854.52
2009/04/23 12:51:14.0    -433   -247   -237    499    552 240.2 -31.7  34162  289.60 0854.52
2009/04/23 12:51:14.1    -586   -169   -116    611    623 253.9 -10.8  34172  289.77 0854.52
2009/04/23 12:51:14.2    -548      0    -99    549    558 270.0 -10.3  34176  289.85 0854.52
2009/04/23 12:51:14.3    -576   -177   -169    603    626 252.9 -20.3  34156  289.52 0854.52
2009/04/23 12:51:14.4    -451   -150   -266    476    545 251.6 -36.1  34162  289.60 0854.52
2009/04/23 12:51:14.5    -455   -233   -257    512    572 242.9 -33.1  34160  289.57 0854.52
2009/04/23 12:51:14.6    -351   -290   -179    456    489 230.4 -26.9  34162  289.62 0854.52
2009/04/23 12:51:14.7    -309   -243   -152    394    422 231.8 -26.7  34156  289.51 0854.52
2009/04/23 12:51:14.8    -288   -212    -94    358    371 233.6 -14.7  34164  289.65 0854.52
2009/04/23 12:51:14.9    -272    -73   -175    282    331 255.0 -39.4  34166  289.66 0854.52
2009/04/23 12:51:15.0    -305   -116    -90    327    339 249.2 -20.0  34164  289.64 0854.52
2009/04/23 12:51:15.1    -206   -206   -132    292    320 224.9 -30.3  34164  289.63 0854.52
2009/04/23 12:51:15.2    -228   -243    -99    334    349 223.2 -16.6  34160  289.57 0854.50
2009/04/23 12:51:15.3    -246   -243   -103    347    363 225.4 -16.6  34162  289.62 0854.50
2009/04/23 12:51:15.4    -270   -188    -95    330    344 235.1 -16.2  34166  289.67 0854.50
2009/04/23 12:51:15.5    -232   -179    -99    294    311 232.3 -18.7  34160  289.58 0854.50
2009/04/23 12:51:15.6    -260   -158    -79    305    316 238.7 -14.6  34162  289.59 0854.50
2009/04/23 12:51:15.7    -261   -143    -38    298    301 241.2  -7.3  34164  289.64 0854.50
2009/04/23 12:51:15.8    -231    -88    -82    248    262 249.1 -18.3  34164  289.63 0854.50
2009/04/23 12:51:15.9    -206    -62    -70    216    228 253.1 -18.1  34164  289.63 0854.50
2009/04/23 12:51:16.0    -185    -37    -77    189    204 258.5 -27.5  34164  289.65 0854.50
2009/04/23 12:51:16.1    -223     -3    -84    224    239 269.1 -25.9  34162  289.61 0854.50
2009/04/23 12:51:16.2    -251     55    -86    258    273 282.4 -18.6  34164  289.64 0854.50
2009/04/23 12:51:16.3    -264     88   -135    279    309 288.4 -31.7  34164  289.64 0854.50
2009/04/23 12:51:16.4    -279     65   -140    287    319 283.2 -32.3  34164  289.63 0854.50
2009/04/23 12:51:16.5    -308     59   -229    314    388 281.0 -44.1  34162  289.62 0854.50
2009/04/23 12:51:16.6    -278     33   -167    280    326 276.8 -38.1  34162  289.61 0854.50
2009/04/23 12:51:16.7    -220     37   -128    224    257 279.7 -36.7  34166  289.68 0854.50
2009/04/23 12:51:16.8    -220     -1   -136    221    259 269.6 -38.9  34168  289.70 0854.50
2009/04/23 12:51:16.9    -260     12   -115    261    285 272.8 -29.6  34164  289.64 0854.50
2009/04/23 12:51:17.0    -258     98   -184    276    331 290.8 -41.3  34168  289.70 0854.50
2009/04/23 12:51:17.1    -256    121   -136    284    314 295.4 -31.8  34166  289.66 0854.50
2009/04/23 12:51:17.2    -178     32   -136    181    226 280.4 -45.3  34168  289.70 0854.52
2009/04/23 12:51:17.3    -171      4   -168    172    240 271.5 -54.2  34168  289.70 0854.52
2009/04/23 12:51:17.4    -138     -8   -155    139    208 266.5 -57.9  34170  289.74 0854.52
2009/04/23 12:51:17.5    -146     10   -168    147    223 274.3 -58.7  34172  289.79 0854.52
2009/04/23 12:51:17.6    -111     17   -148    113    186 278.8 -63.1  34174  289.80 0854.52
2009/04/23 12:51:17.7    -124     -1   -133    125    182 269.2 -56.4  34174  289.80 0854.52
2009/04/23 12:51:17.8    -110     43   -160    119    199 291.7 -64.2  34172  289.77 0854.52
2009/04/23 12:51:17.9    -118    -22   -136    121    182 259.4 -58.1  34168  289.72 0854.52
2009/04/23 12:51:18.0    -189     35   -111    193    222 280.6 -37.1  34158  289.53 0854.52
2009/04/23 12:51:18.1    -233     74   -121    245    273 287.7 -32.6  34168  289.71 0854.52
2009/04/23 12:51:18.2    -242     78   -137    255    289 287.9 -35.0  34166  289.68 0854.52
2009/04/23 12:51:18.3    -282     90   -181    297    347 287.8 -38.7  34170  289.74 0854.52
2009/04/23 12:51:18.4    -263     95   -173    280    329 290.0 -39.2  34172  289.78 0854.52
2009/04/23 12:51:18.5    -250     68   -206    260    331 285.3 -46.8  34170  289.75 0854.52
2009/04/23 12:51:18.6    -200    236   -139    310    339 319.7 -30.2  34170  289.74 0854.52
2009/04/23 12:51:18.7    -151    222    -95    269    285 325.8 -24.6  34174  289.80 0854.52
2009/04/23 12:51:18.8    -102    318   -104    335    350 342.2 -22.4  34180  289.91 0854.52
2009/04/23 12:51:18.9     -56    353   -109    358    375 350.9 -17.0  34174  289.81 0854.52
2009/04/23 12:51:19.0      -8    305    -16    306    307 358.4  -3.1  34174  289.80 0854.52
2009/04/23 12:51:19.1     -47    265    -15    270    271 349.8  -3.2  34174  289.80 0854.52
2009/04/23 12:51:19.2     -35    380      6    382    383 354.7   1.0  34174  289.81 0854.53
2009/04/23 12:51:19.3     -46    323    -30    327    329 351.9  -5.4  34176  289.83 0854.53
2009/04/23 12:51:19.4     -84    243    -33    258    261 340.9  -7.3  34172  289.76 0854.53
2009/04/23 12:51:19.5    -104    308    -45    326    330 341.3  -8.0  34172  289.78 0854.53
2009/04/23 12:51:19.6    -209    326     11    388    389 327.4   1.7  34172  289.76 0854.53
2009/04/23 12:51:19.7    -220    335    -15    402    403 326.7  -2.2  34172  289.76 0854.53
2009/04/23 12:51:19.8    -128    294   -106    322    340 336.4 -18.3  34172  289.77 0854.53
2009/04/23 12:51:19.9      -3    242    -88    243    258 359.1 -25.1  34168  289.71 0854.53
2009/04/23 12:51:20.0     -60    366     36    371    373 350.7   5.7  34168  289.71 0854.53
2009/04/23 12:51:20.1    -122    374     25    394    395 341.9   3.7  34170  289.74 0854.53
2009/04/23 12:51:20.2     -94    216    -74    236    247 336.4 -22.5  34172  289.78 0854.53
2009/04/23 12:51:20.3    -159    250     53    297    302 327.5  10.1  34170  289.73 0854.53
2009/04/23 12:51:20.4    -195    301     40    360    363 327.0   6.4  34172  289.76 0854.53
2009/04/23 12:51:20.5    -249    277    -43    373    376 318.0  -6.6  34170  289.74 0854.53
2009/04/23 12:51:20.6    -238    173    -41    295    298 306.0  -8.0  34174  289.80 0854.53
2009/04/23 12:51:20.7    -242    154    -40    288    291 302.5  -8.0  34174  289.81 0854.53
2009/04/23 12:51:20.8    -242    143    -30    282    284 300.7  -6.2  34168  289.71 0854.53
2009/04/23 12:51:20.9    -298    189    114    354    373 302.4  17.9  34166  289.69 0854.53
2009/04/23 12:51:21.0    -327    -34     79    329    339 263.9  13.5  34184  289.98 0854.53
2009/04/23 12:51:21.1     -62    -69     -4     93     94 221.9  -2.6  34178  289.89 0854.53
2009/04/23 12:51:21.2      61    110     61    126    139  29.0  27.3  34186  290.01 0854.52
2009/04/23 12:51:21.3      26    189    -26    191    193   8.0  -8.0  34190  290.09 0854.52
2009/04/23 12:51:21.4    -179    151    103    235    256 310.2  25.1  34194  290.14 0854.52
2009/04/23 12:51:21.5     -20    186    -46    188    194 353.8 -13.9  34238  290.91 0854.52
2009/04/23 12:51:21.6     -91     72    -42    117    124 308.2 -24.4  34240  290.94 0854.52
2009/04/23 12:51:21.7    -139     32     43    143    150 283.3  16.8  34234  290.84 0854.52
2009/04/23 12:51:21.8    -118    115    -52    165    173 314.2 -22.8  34280  291.60 0854.52
2009/04/23 12:51:21.9    -236    177   -102    296    313 306.9 -24.3  34278  291.58 0854.52
2009/04/23 12:51:22.0    -262    183   -149    320    352 305.0 -31.3  34246  291.03 0854.52
2009/04/23 12:51:22.1    -236    179   -179    297    346 307.1 -38.5  34234  290.83 0854.52
2009/04/23 12:51:22.2      20     27   -171     34    174  36.1 -90.0  34198  290.21 0854.52
2009/04/23 12:51:22.3     103   -129   -153    166    225 141.3 -52.1  34200  290.26 0854.52
2009/04/23 12:51:22.4     -88   -167    -77    189    204 207.9 -27.5  34212  290.45 0854.52
2009/04/23 12:51:22.5      -4   -245   -118    246    272 181.0 -31.7  34226  290.70 0854.52
2009/04/23 12:51:22.6    -156   -130    -41    204    209 230.2 -11.5  34234  290.84 0854.52
2009/04/23 12:51:22.7    -165   -122     99    206    228 233.6  27.3  34270  291.45 0854.52
2009/04/23 12:51:22.8    -203   -114    127    233    265 240.7  31.0  34276  291.53 0854.52
2009/04/23 12:51:22.9    -245   -107    148    268    306 246.4  31.4  34248  291.07 0854.52
2009/04/23 12:51:23.0    -140   -151    151    207    256 222.8  39.7  34222  290.61 0854.52
2009/04/23 12:51:23.1    -191   -113    146    223    266 239.4  36.3  34234  290.83 0854.52
2009/04/23 12:51:23.2    -209   -176    194    274    335 229.8  38.8  34220  290.59 0854.52
2009/04/23 12:51:23.3    -170   -168      8    240    241 225.3   2.1  34244  290.99 0854.52
2009/04/23 12:51:23.4     -64   -211    160    221    272 196.9  39.5  34216  290.51 0854.52
2009/04/23 12:51:23.5    -186   -211    182    282    335 221.4  35.9  34200  290.26 0854.52
2009/04/23 12:51:23.6    -241   -147    229    283    364 238.5  43.4  34204  290.32 0854.52
2009/04/23 12:51:23.7    -279    -75    141    290    322 254.9  27.8  34222  290.61 0854.52
2009/04/23 12:51:23.8    -323    -77    193    333    384 256.5  32.8  34238  290.88 0854.52
2009/04/23 12:51:23.9    -320   -120    172    342    382 249.4  28.7  34220  290.59 0854.52
2009/04/23 12:51:24.0    -215   -136    150    255    295 237.6  33.4  34228  290.73 0854.52
2009/04/23 12:51:24.1    -222    -65     38    232    236 253.6   9.3  34230  290.75 0854.52
2009/04/23 12:51:24.2    -407   -175    132    444    464 246.7  16.6  34220  290.60 0854.52
2009/04/23 12:51:24.3    -426   -196    144    470    492 245.3  17.1  34224  290.66 0854.52
2009/04/23 12:51:24.4    -350   -231    148    420    445 236.6  20.1  34204  290.31 0854.52
2009/04/23 12:51:24.5    -193   -206    272    283    392 223.2  48.8  34184  289.98 0854.52
2009/04/23 12:51:24.6    -214   -241    216    323    388 221.7  36.7  34174  289.82 0854.52
2009/04/23 12:51:24.7     -85   -189    244    208    320 204.3  55.3  34178  289.88 0854.52
2009/04/23 12:51:24.8     -44   -179    178    185    256 194.0  49.0  34178  289.86 0854.52
2009/04/23 12:51:24.9     -38    -74    119     84    145 207.6  61.5  34176  289.84 0854.52
2009/04/23 12:51:25.0    -100     39    110    108    154 291.7  50.1  34186  290.02 0854.52
2009/04/23 12:51:25.1    -146    188    161    239    288 322.2  37.4  34186  290.02 0854.52
2009/04/23 12:51:25.2    -122    190    217    227    314 327.3  48.7  34188  290.03 0854.52
2009/04/23 12:51:25.3      87    186    175    206    270  25.2  44.5  34182  289.95 0854.52
2009/04/23 12:51:25.4      82    242    128    256    286  18.7  28.5  34244  290.99 0854.52
2009/04/23 12:51:25.5     136    337    144    364    391  22.1  22.9  34262  291.30 0854.52
2009/04/23 12:51:25.6     -69    365    134    372    395 349.3  20.7  34260  291.28 0854.52
2009/04/23 12:51:25.7     -66    388     61    394    399 350.2   8.8  34240  290.94 0854.52
2009/04/23 12:51:25.8      15    236     60    237    245   3.8  14.3  34252  291.14 0854.52
2009/04/23 12:51:25.9      26    166    126    169    210   8.9  40.4  34244  290.99 0854.52
2009/04/23 12:51:26.0     -69    145    149    161    219 334.5  47.9  34248  291.08 0854.52
2009/04/23 12:51:26.1    -129    259    215    290    361 333.5  40.1  34248  291.06 0854.52
2009/04/23 12:51:26.2    -122    228    183    259    317 331.9  38.7  34246  291.04 0854.54
2009/04/23 12:51:26.3      69    179    115    193    224  21.2  33.7  34234  290.82 0854.54
2009/04/23 12:51:26.4      89     73    171    116    206  50.5  62.7  34228  290.72 0854.54
2009/04/23 12:51:26.5       4    249    134    250    283   1.0  30.3  34226  290.68 0854.54
2009/04/23 12:51:26.6    -161    290     91    332    345 331.0  15.3  34240  290.94 0854.54
2009/04/23 12:51:26.8     -25    247    166    249    299 354.0  36.7  34212  290.44 0854.54
2009/04/23 12:51:26.8     -11    174    172    175    245 356.4  49.8  34216  290.52 0854.54
2009/04/23 12:51:26.9     -81      5    160     82    179 273.5  70.8  34198  290.23 0854.54
2009/04/23 12:51:27.0     142     46    178    150    232  71.8  56.1  34200  290.26 0854.54
2009/04/23 12:51:27.1     117    -74    120    139    183 122.5  45.4  34212  290.45 0854.54
2009/04/23 12:51:27.3      50     -9    124     51    134 100.6  77.0  34206  290.35 0854.54
2009/04/23 12:51:27.4     -12      8    218     15    218 302.4  90.0  34210  290.41 0854.54
2009/04/23 12:51:27.5     -18    -68    191     71    203 195.1  79.1  34216  290.52 0854.54
2009/04/23 12:51:27.6    -128   -338    163    362    397 200.8  25.8  34208  290.38 0854.54
2009/04/23 12:51:27.7    -212   -555    167    595    619 200.9  15.7  34222  290.64 0854.54
2009/04/23 12:51:27.8    -293   -581     18    651    652 206.8   1.6  34218  290.55 0854.54
2009/04/23 12:51:27.9    -322   -479     57    578    581 213.9   5.7  34200  290.25 0854.54
2009/04/23 12:51:28.0    -293   -445    197    533    568 213.4  21.4  34208  290.38 0854.54
2009/04/23 12:51:28.1    -286   -460    -21    542    543 211.9  -2.3  34210  290.43 0854.54
2009/04/23 12:51:28.2    -125   -335     76    358    367 200.6  12.0  34212  290.47 0854.55
2009/04/23 12:51:28.3      23   -394     69    395    402 176.6  10.0  34202  290.30 0854.55
2009/04/23 12:51:28.4     102   -597    106    606    616 170.3  10.0  34226  290.70 0854.55
2009/04/23 12:51:28.5     143   -428     88    452    461 161.4  11.1  34202  290.29 0854.55
2009/04/23 12:51:28.6    -248   -317    249    403    473 218.0  34.6  34206  290.34 0854.55
2009/04/23 12:51:28.7     100   -256    116    276    299 158.6  24.1  34198  290.20 0854.55
2009/04/23 12:51:28.8     133   -249    154    283    322 151.9  30.9  34184  289.98 0854.55
2009/04/23 12:51:28.9     127   -199    116    237    263 147.4  27.8  34196  290.17 0854.55
2009/04/23 12:51:29.0     133   -161    107    210    235 140.4  29.1  34186  290.02 0854.55
2009/04/23 12:51:29.1      67   -222    199    233    306 163.1  44.8  34188  290.05 0854.55
2009/04/23 12:51:29.2      66   -129    153    146    211 152.8  51.4  34186  290.01 0854.55
2009/04/23 12:51:29.3      91   -103    118    138    181 138.6  45.1  34192  290.13 0854.55
2009/04/23 12:51:29.4       0   -103    123    104    161 180.5  55.6  34194  290.14 0854.55
2009/04/23 12:51:29.5     193   -218    222    292    366 138.5  41.2  34190  290.08 0854.55
2009/04/23 12:51:29.6     -20   -267    240    268    359 184.5  46.5  34190  290.08 0854.55
2009/04/23 12:51:29.7     -54   -266    232    272    357 191.6  44.8  34194  290.16 0854.55
2009/04/23 12:51:29.8      57    -18    200     60    208 107.7  82.8  34194  290.14 0854.55
2009/04/23 12:51:29.9     -24     -7    166     26    168 253.2  90.0  34190  290.08 0854.55
2009/04/23 12:51:30.0     -28   -121    269    125    296 193.3  73.2  34186  290.02 0854.55
2009/04/23 12:51:30.1     -21   -181    299    183    350 186.7  65.6  34184  289.97 0854.55
2009/04/23 12:51:30.2      87   -156    219    179    282 150.8  56.4  34188  290.05 0854.58
2009/04/23 12:51:30.3    -101   -275    359    294    464 200.3  56.4  34192  290.11 0854.58
2009/04/23 12:51:30.4    -202   -320    326    379    499 212.2  45.1  34180  289.92 0854.58
2009/04/23 12:51:30.5    -280   -232    207    364    418 230.4  32.3  34198  290.21 0854.58
2009/04/23 12:51:30.6    -447    -10    233    448    504 268.6  29.6  34188  290.06 0854.58
2009/04/23 12:51:30.7    -242    252    138    350    376 316.1  22.9  34194  290.15 0854.58
2009/04/23 12:51:30.8    -281    101     -8    299    300 289.9  -1.6  34192  290.12 0854.58
2009/04/23 12:51:30.9    -254    398    -56    473    477 327.4  -6.8  34208  290.39 0854.58
2009/04/23 12:51:31.0    -155    472   -128    497    514 341.8 -14.5  34208  290.39 0854.58
2009/04/23 12:51:31.1    -123    168      2    209    210 323.9   0.8  34190  290.09 0854.58
2009/04/23 12:51:31.2    -257     86    -36    272    275 288.6  -7.7  34198  290.20 0854.58
2009/04/23 12:51:31.3    -198    140    -67    243    253 305.3 -15.4  34200  290.26 0854.58
2009/04/23 12:51:31.4    -143    315    -36    347    349 335.5  -6.0  34198  290.23 0854.58
2009/04/23 12:51:31.5      11    245    -67    246    256   2.6 -15.4  34200  290.24 0854.58
2009/04/23 12:51:31.6     164    179    -82    244    257  42.5 -23.3  34200  290.24 0854.58
2009/04/23 12:51:31.7     157     95    -77    184    199  58.9 -28.2  34198  290.23 0854.58
2009/04/23 12:51:31.8     117    104     19    157    159  48.2   7.2  34204  290.31 0854.58
2009/04/23 12:51:31.9      65     65     75     93    119  45.0  43.3  34202  290.30 0854.58
2009/04/23 12:51:32.0     -26     26    103     37    109 315.0  80.2  34206  290.36 0854.58
2009/04/23 12:51:32.1    -150    -30     59    154    164 258.5  21.5  34206  290.36 0854.58
2009/04/23 12:51:32.2    -204   -117    149    236    279 240.2  35.5  34208  290.39 0854.59
2009/04/23 12:51:32.3    -160   -164    117    230    258 224.3  29.2  34200  290.26 0854.59
2009/04/23 12:51:32.4    -180   -180    103    255    275 225.0  23.1  34204  290.31 0854.59
2009/04/23 12:51:32.5    -194   -153     88    248    263 231.8  20.0  34210  290.41 0854.59
2009/04/23 12:51:32.6    -151   -115     85    190    208 232.7  25.7  34206  290.36 0854.59
2009/04/23 12:51:32.7    -143    -71    130    160    206 243.4  43.7  34208  290.40 0854.59
2009/04/23 12:51:32.8    -172   -138     -1    221    222 231.1  -0.5  34210  290.43 0854.59
2009/04/23 12:51:32.9    -120    -88     14    150    151 233.6   5.4  34212  290.47 0854.59
2009/04/23 12:51:33.0     -70    -78    122    106    161 221.9  54.6  34218  290.57 0854.59
2009/04/23 12:51:33.1      57    -26    154     63    166 114.4  76.6  34224  290.65 0854.59
2009/04/23 12:51:33.2      44    134    149    142    205  18.5  51.6  34210  290.43 0854.59
2009/04/23 12:51:33.3       7     61     90     62    109   7.1  62.1  34214  290.48 0854.59
2009/04/23 12:51:33.4       4     54     60     55     81   4.5  52.7  34212  290.45 0854.59
2009/04/23 12:51:33.5      15     32     16     36     39  25.5  25.1  34210  290.43 0854.59
2009/04/23 12:51:33.6      48     21     21     53     57  66.5  22.0  34208  290.38 0854.59
2009/04/23 12:51:33.7     144     71     83    161    181  63.8  29.5  34200  290.25 0854.59
2009/04/23 12:51:33.8     254     23     87    256    271  84.7  18.9  34196  290.17 0854.59
2009/04/23 12:51:33.9     158     -9     73    159    174  93.5  26.6  34200  290.25 0854.59
2009/04/23 12:51:34.0      80     27     23     85     89  71.4  15.3  34202  290.28 0854.59
2009/04/23 12:51:34.1     -25     40     -1     48     49 327.4  -2.2  34210  290.41 0854.59
2009/04/23 12:51:34.2     -23     19     -5     31     32 309.5  -9.3  34210  290.41 0854.60
2009/04/23 12:51:34.3       1     17     50     18     53   4.5  81.2  34206  290.35 0854.60
2009/04/23 12:51:34.4      38     12     47     40     61  71.8  55.4  34202  290.30 0854.60
2009/04/23 12:51:34.5     195    194     23    276    278  45.1   4.9  34204  290.31 0854.60
2009/04/23 12:51:34.6      37      0     95     38    102  90.0  77.1  34206  290.36 0854.60
2009/04/23 12:51:34.7       0    -81    164     82    183 180.0  71.4  34208  290.40 0854.60
2009/04/23 12:51:34.8      64    -60    167     88    188 133.1  70.0  34198  290.21 0854.60
2009/04/23 12:51:34.9     254    -85    123    269    295 108.6  26.2  34230  290.76 0854.60
2009/04/23 12:51:35.0     241      7    -51    242    248  88.3 -11.9  34226  290.70 0854.60
2009/04/23 12:51:35.1     255    -20     98    256    274  94.6  22.0  34218  290.54 0854.60
2009/04/23 12:51:35.2     268     38    127    271    299  81.9  27.1  34220  290.59 0854.60
2009/04/23 12:51:35.3     242    153    212    287    356  57.8  40.0  34230  290.76 0854.60
2009/04/23 12:51:35.4     221    176    226    283    362  51.4  42.7  34256  291.20 0854.60
2009/04/23 12:51:35.5      67     61    207     91    226  47.8  74.9  34236  290.87 0854.60
2009/04/23 12:51:35.6     -32     -7    213     33    215 256.7  90.0  34228  290.74 0854.60
2009/04/23 12:51:35.7      99    -91    144    135    197 132.7  52.1  34216  290.53 0854.60
2009/04/23 12:51:35.8     201    -39    119    205    237 101.0  32.9  34206  290.36 0854.60
2009/04/23 12:51:35.9     122    -87    114    151    189 125.5  40.9  34206  290.36 0854.60
2009/04/23 12:51:36.0      69     14     82     71    108  78.6  54.8  34208  290.40 0854.60
2009/04/23 12:51:36.1     -66    -71    105     98    143 222.8  52.1  34208  290.38 0854.60
2009/04/23 12:51:36.2      16    -32    123     37    128 152.8  82.8  34208  290.38 0854.60
2009/04/23 12:51:36.3      10    -22    108     25    110 154.6  88.0  34202  290.28 0854.60
2009/04/23 12:51:36.4      15   -102    169    104    198 171.5  65.7  34196  290.18 0854.60
2009/04/23 12:51:36.5      20   -258    122    259    286 175.5  27.1  34188  290.05 0854.60
2009/04/23 12:51:36.6      43   -273    165    277    322 170.9  33.7  34190  290.07 0854.60
2009/04/23 12:51:36.7      10   -225    133    226    262 177.4  33.4  34192  290.12 0854.60
2009/04/23 12:51:36.8      72   -282    154    292    330 165.7  30.2  34192  290.10 0854.60
2009/04/23 12:51:36.9      49   -330    216    334    397 171.5  35.9  34188  290.04 0854.60
2009/04/23 12:51:37.0      61   -311    163    318    357 168.9  29.3  34184  289.98 0854.60
2009/04/23 12:51:37.1      14   -191    153    192    245 175.5  42.7  34180  289.92 0854.60
2009/04/23 12:51:37.2     114   -214    206    243    318 151.9  44.7  34190  290.07 0854.60
2009/04/23 12:51:37.3      85   -145    147    169    223 149.5  45.8  34188  290.04 0854.60
2009/04/23 12:51:37.4      87   -200    135    219    257 156.4  34.5  34190  290.09 0854.60
2009/04/23 12:51:37.5      40   -122    119    129    175 161.7  47.9  34190  290.09 0854.60
2009/04/23 12:51:37.6       6    -92    140     93    168 176.0  63.6  34192  290.11 0854.60
2009/04/23 12:51:37.7      -5    -70    103     71    125 184.4  62.6  34194  290.16 0854.60
2009/04/23 12:51:37.8     -22    -92    108     95    143 193.4  54.2  34198  290.21 0854.60
2009/04/23 12:51:37.9     -70   -125    139    144    200 209.4  49.2  34198  290.21 0854.60
2009/04/23 12:51:38.0    -115    -90    115    147    186 231.8  42.4  34196  290.19 0854.60
2009/04/23 12:51:38.1     -59   -166    179    177    251 199.8  50.1  34192  290.11 0854.60
2009/04/23 12:51:38.2     -84   -228    184    244    305 200.3  40.7  34200  290.26 0854.58
2009/04/23 12:51:38.3    -102   -184    182    211    278 209.0  45.4  34198  290.22 0854.58
2009/04/23 12:51:38.4    -133   -129    109    186    215 225.8  33.1  34204  290.31 0854.58
2009/04/23 12:51:38.5    -198   -116    103    230    252 239.6  25.7  34204  290.32 0854.58
2009/04/23 12:51:38.6    -295      0     46    296    300 270.0   9.0  34228  290.73 0854.58
2009/04/23 12:51:38.7    -175    -68     30    188    191 248.7   9.3  34222  290.64 0854.58
2009/04/23 12:51:38.8    -172     -2     44    173    179 269.2  14.3  34222  290.62 0854.58
2009/04/23 12:51:38.9    -174      1     21    175    177 270.4   6.9  34218  290.55 0854.58
2009/04/23 12:51:39.0    -144     47    109    152    187 288.2  39.5  34224  290.65 0854.58
2009/04/23 12:51:39.1    -160    127    132    205    243 308.4  35.6  34216  290.53 0854.58
2009/04/23 12:51:39.2    -216    157      2    268    269 306.0   0.5  34224  290.66 0854.58
2009/04/23 12:51:39.3    -296    163     36    339    341 298.9   6.1  34210  290.43 0854.58
2009/04/23 12:51:39.4    -307    169     23    351    352 298.8   3.8  34206  290.35 0854.58
2009/04/23 12:51:39.5    -275    104     15    295    296 290.8   2.9  34196  290.17 0854.58
2009/04/23 12:51:39.6    -220    177    -29    283    285 308.9  -6.0  34202  290.27 0854.58
2009/04/23 12:51:39.7    -210    -91     16    229    230 246.5   4.2  34216  290.52 0854.58
2009/04/23 12:51:39.8    -268     20    -34    269    272 274.4  -7.2  34198  290.20 0854.58
2009/04/23 12:51:39.9    -382    131    -78    404    412 289.0 -11.0  34206  290.36 0854.58
2009/04/23 12:51:40.0    -403    163    -79    436    444 292.1 -10.3  34206  290.34 0854.58
2009/04/23 12:51:40.1    -366     33   -110    368    384 275.2 -21.6  34182  289.96 0854.58
2009/04/23 12:51:40.2    -446    -33   -158    448    475 265.7 -24.7  34182  289.96 0854.57
2009/04/23 12:51:40.3    -425   -100   -143    437    460 256.7 -18.2  34186  290.00 0854.57
2009/04/23 12:51:40.4    -330    -21    -60    331    337 266.2 -10.3  34188  290.06 0854.57
2009/04/23 12:51:40.5    -363   -112   -165    380    414 252.8 -29.4  34182  289.94 0854.57
2009/04/23 12:51:40.6    -407   -122   -126    425    443 253.3 -21.5  34186  290.00 0854.57
2009/04/23 12:51:40.7    -249    -44   -152    253    295 259.9 -38.1  34190  290.07 0854.57
2009/04/23 12:51:40.8    -339     -8   -143    340    368 268.6 -28.6  34208  290.38 0854.57
2009/04/23 12:51:40.9    -402   -142   -132    427    447 250.5 -17.2  34220  290.60 0854.57
2009/04/23 12:51:41.0    -323   -143   -104    354    368 246.0 -21.4  34254  291.18 0854.57
2009/04/23 12:51:41.1    -286   -151    -23    324    325 242.2  -4.1  34266  291.38 0854.57
2009/04/23 12:51:41.2    -271   -123     57    298    304 245.6  11.0  34254  291.17 0854.57
2009/04/23 12:51:41.3    -295   -139    153    327    361 244.8  27.1  34238  290.89 0854.57
2009/04/23 12:51:41.4    -318   -128    135    343    368 248.1  22.7  34234  290.83 0854.57
2009/04/23 12:51:41.5    -225    -73    215    237    319 251.8  47.0  34240  290.92 0854.57
2009/04/23 12:51:41.6    -235    -39    187    239    303 260.4  42.0  34238  290.90 0854.57
2009/04/23 12:51:41.7    -277      6    187    278    335 271.3  37.2  34248  291.07 0854.57
2009/04/23 12:51:41.8    -335     44    185    338    385 277.6  31.3  34280  291.61 0854.57
2009/04/23 12:51:41.9    -202    132     86    242    257 303.3  19.6  34248  291.05 0854.57
2009/04/23 12:51:42.0    -180    132    123    224    255 306.4  31.3  34300  291.96 0854.57
2009/04/23 12:51:42.1    -143     15     45    144    151 276.1  17.4  34270  291.43 0854.57
2009/04/23 12:51:42.2    -219   -141     98    261    278 237.1  21.3  34264  291.33 0854.58
2009/04/23 12:51:42.3    -223   -120     51    254    260 241.6  11.4  34258  291.22 0854.58
2009/04/23 12:51:42.4    -122    120    -60    172    182 314.7 -24.0  34256  291.20 0854.58
2009/04/23 12:51:42.5       4    233     73    234    246   1.1  17.3  34252  291.14 0854.58
2009/04/23 12:51:42.6     -30     85     89     91    127 340.4  49.9  34248  291.08 0854.58
2009/04/23 12:51:42.7      30      8     26     32     41  74.9  43.7  34246  291.03 0854.58
2009/04/23 12:51:42.8     109     54    114    122    166  63.4  47.9  34238  290.91 0854.58
2009/04/23 12:51:42.9      62   -110    152    127    198 150.6  55.8  34252  291.15 0854.58
2009/04/23 12:51:43.0    -116    -56     44    129    137 244.2  18.9  34256  291.21 0854.58
2009/04/23 12:51:43.1     -40    -49     45     64     78 219.7  38.6  34260  291.26 0854.58
2009/04/23 12:51:43.2     108     32    160    113    195  73.2  61.5  34258  291.23 0854.58
2009/04/23 12:51:43.3      -6     87    224     88    240 356.0  77.6  34264  291.35 0854.58
2009/04/23 12:51:43.4      28     -7    165     29    167 105.1  90.0  34260  291.26 0854.58
2009/04/23 12:51:43.5     262     86    261    276    379  71.8  48.2  34258  291.22 0854.58
2009/04/23 12:51:43.6     235     80    143    249    287  71.2  32.4  34260  291.27 0854.58
2009/04/23 12:51:43.7     165     21    101    167    195  82.5  34.0  34258  291.23 0854.58
2009/04/23 12:51:43.8     222     52     91    229    246  76.8  23.0  34254  291.17 0854.58
2009/04/23 12:51:43.9     122     20     53    124    134  80.3  24.6  34252  291.15 0854.58
2009/04/23 12:51:44.0      86     30     65     92    112  70.5  39.1  34254  291.16 0854.58
2009/04/23 12:51:44.1      70     80    -36    107    112  41.0 -23.6  34260  291.26 0854.58
2009/04/23 12:51:44.2      20     82    -71     85    110  14.3 -48.2  34256  291.21 0854.62
2009/04/23 12:51:44.3     -36     79    -98     87    131 335.5 -58.6  34256  291.21 0854.62
2009/04/23 12:51:44.4     -83     59    -54    102    115 305.5 -34.7  34240  290.92 0854.62
2009/04/23 12:51:44.5     -76     48   -114     91    145 302.4 -61.9  34230  290.75 0854.62
2009/04/23 12:51:44.6    -316     -4   -148    317    349 269.2 -31.4  34156  289.50 0854.62
2009/04/23 12:51:44.7    -410    -32   -230    412    471 265.4 -36.0  34160  289.56 0854.62
2009/04/23 12:51:44.8    -412   -201    -58    459    463 244.0  -7.3  34192  290.12 0854.62
2009/04/23 12:51:44.9    -216   -214     75    305    315 225.2  13.8  34214  290.49 0854.62
2009/04/23 12:51:45.0     -81   -251    214    264    339 198.0  43.4  34206  290.36 0854.62
2009/04/23 12:51:45.1     -36   -250    207    253    326 188.2  43.6  34202  290.27 0854.62
2009/04/23 12:51:45.2      40   -182    190    187    266 167.5  50.4  34198  290.20 0854.62
2009/04/23 12:51:45.3     -46    115    128    124    178 338.1  50.9  34202  290.28 0854.62
2009/04/23 12:51:45.4       6    102    158    103    188   3.6  64.4  34194  290.14 0854.62
2009/04/23 12:51:45.5     -32    166    159    170    232 349.1  48.0  34198  290.21 0854.62
2009/04/23 12:51:45.6    -236    212    152    318    352 312.0  27.3  34238  290.88 0854.62
2009/04/23 12:51:45.7    -251     42    129    255    285 279.6  29.1  34236  290.87 0854.62
2009/04/23 12:51:45.8    -301     -4    120    302    324 269.2  22.9  34252  291.12 0854.62
2009/04/23 12:51:45.9     -65   -101    114    121    166 212.6  48.5  34230  290.75 0854.62
2009/04/23 12:51:46.0     -64    -63    155     91    179 225.4  67.0  34238  290.91 0854.62
2009/04/23 12:51:46.1    -172    -14    183    173    251 265.2  51.6  34240  290.94 0854.62
2009/04/23 12:51:46.2    -204     16    140    205    248 274.6  37.6  34242  290.95 0854.62
2009/04/23 12:51:46.3    -221     75    170    234    289 288.8  39.7  34242  290.95 0854.62
2009/04/23 12:51:46.4    -178    195     83    265    278 317.7  17.4  34250  291.09 0854.62
2009/04/23 12:51:46.5    -280    231     -3    364    365 309.5  -0.6  34280  291.61 0854.62
2009/04/23 12:51:46.6    -262    216     -6    340    341 309.5  -1.1  34228  290.71 0854.62
2009/04/23 12:51:46.7    -281    232     44    365    368 309.6   6.9  34234  290.84 0854.62
2009/04/23 12:51:46.8    -240    215     52    323    328 311.8   9.2  34196  290.19 0854.62
2009/04/23 12:51:46.9    -226    284    -83    363    373 321.5 -12.9  34170  289.74 0854.62
2009/04/23 12:51:47.0    -218    318    -58    386    391 325.5  -8.6  34158  289.55 0854.62
2009/04/23 12:51:47.1    -171    283      4    331    332 328.8   0.7  34164  289.64 0854.62
2009/04/23 12:51:47.2    -354    200    -43    407    410 299.5  -6.1  34166  289.66 0854.58
2009/04/23 12:51:47.3    -321    183    -74    370    378 299.7 -11.3  34162  289.62 0854.58
2009/04/23 12:51:47.4    -298    160    -75    339    348 298.2 -12.5  34166  289.67 0854.58
2009/04/23 12:51:47.5    -357    173   -128    397    417 295.9 -22.9  34160  289.58 0854.58
2009/04/23 12:51:47.6    -379    147   -131    407    427 291.2 -23.2  34156  289.51 0854.58
2009/04/23 12:51:47.7    -372    173   -156    411    439 295.0 -26.1  34158  289.55 0854.58
2009/04/23 12:51:47.8    -494    158   -173    519    547 287.8 -23.6  34164  289.63 0854.58
2009/04/23 12:51:47.9    -449    113   -141    464    486 284.2 -17.0  34160  289.57 0854.58
2009/04/23 12:51:48.0    -537     94   -134    546    563 280.0 -13.8  34170  289.74 0854.58
2009/04/23 12:51:48.1    -452    175    -98    485    495 291.2 -11.5  34162  289.61 0854.58
2009/04/23 12:51:48.2    -378    179    -33    419    421 295.4  -4.6  34172  289.78 0854.58
2009/04/23 12:51:48.3    -447    119    -45    463    466 284.9  -5.6  34162  289.61 0854.58
2009/04/23 12:51:48.4    -414    136    -91    436    446 288.3 -11.8  34170  289.75 0854.58
2009/04/23 12:51:48.5    -354    106     14    370    371 286.8   2.2  34168  289.72 0854.58
2009/04/23 12:51:48.6    -258    168     91    308    322 303.1  16.5  34174  289.81 0854.58
2009/04/23 12:51:48.7    -411    174   -114    447    462 293.0 -14.3  34206  290.36 0854.58
2009/04/23 12:51:48.8    -466    142     19    488    489 286.9   2.3  34198  290.23 0854.58
2009/04/23 12:51:48.9    -395     70    111    402    418 280.1  15.4  34210  290.41 0854.58
2009/04/23 12:51:49.0    -384     21     55    385    390 273.2   8.2  34218  290.54 0854.58
2009/04/23 12:51:49.1    -344   -147    203    375    426 246.8  30.8  34188  290.04 0854.58
2009/04/23 12:51:49.2      37     37    224     53    230  45.0  87.0  34164  289.63 0854.59
2009/04/23 12:51:49.3     193    297    131    355    378  33.0  21.1  34198  290.23 0854.59
2009/04/23 12:51:49.4     303    322    120    443    460  43.2  15.1  34218  290.56 0854.59
2009/04/23 12:51:49.5     276    324    145    426    451  40.4  18.8  34252  291.14 0854.59
2009/04/23 12:51:49.6     262    194    201    327    383  53.5  34.8  34256  291.20 0854.59
2009/04/23 12:51:49.7     186    162     93    247    263  48.9  21.7  34250  291.09 0854.59
2009/04/23 12:51:49.8     140    181      8    229    230  37.8   2.1  34242  290.96 0854.59
2009/04/23 12:51:49.9      61    227     82    236    250  15.1  19.2  34252  291.12 0854.59
2009/04/23 12:51:50.0     144    229    123    271    297  32.3  26.2  34252  291.14 0854.59
2009/04/23 12:51:50.1     255    161     77    302    312  57.6  14.3  34254  291.17 0854.59
2009/04/23 12:51:50.2     170    251    105    304    322  34.2  19.2  34252  291.12 0854.59
2009/04/23 12:51:50.3     152    265     36    306    309  29.8   6.9  34234  290.82 0854.59
2009/04/23 12:51:50.4     122    207      3    241    242  30.7   0.7  34238  290.90 0854.59
2009/04/23 12:51:50.5     -74    114     98    137    168 327.0  39.1  34230  290.77 0854.59
2009/04/23 12:51:50.6    -294    152    -39    332    335 297.4  -6.7  34188  290.03 0854.59
2009/04/23 12:51:50.7    -459    111    -99    473    484 283.6 -11.9  34166  289.69 0854.59
2009/04/23 12:51:50.8    -372    181    -72    414    421 296.0  -9.9  34164  289.65 0854.59
2009/04/23 12:51:50.9    -326    171    -51    369    373 297.7  -8.0  34164  289.65 0854.59
2009/04/23 12:51:51.0    -257    163    -50    305    310 302.4  -9.3  34164  289.64 0854.59
2009/04/23 12:51:51.1    -249    158    -59    296    302 302.5 -11.3  34166  289.66 0854.59
2009/04/23 12:51:51.2    -224    183    -89    290    303 309.3 -21.8  34170  289.73 0854.62
2009/04/23 12:51:51.3    -142    181    -46    231    236 321.9 -11.5  34190  290.07 0854.62
2009/04/23 12:51:51.4    -132    115    -87    176    196 311.1 -32.6  34178  289.87 0854.62
2009/04/23 12:51:51.5    -168    157    -74    231    243 313.1 -17.9  34190  290.09 0854.62
2009/04/23 12:51:51.6    -112    132    -56    174    182 319.7 -23.3  34188  290.04 0854.62
2009/04/23 12:51:51.7    -112     79   -103    138    172 305.1 -45.1  34202  290.30 0854.62
2009/04/23 12:51:51.8     -66     26    -98     72    121 291.7 -64.4  34200  290.26 0854.62
2009/04/23 12:51:51.9       0     21    -69     22     72 359.1 -85.1  34200  290.26 0854.62
2009/04/23 12:51:52.0      40      3    -97     41    105  84.8 -80.5  34198  290.23 0854.62
2009/04/23 12:51:52.1     131    -30    -70    135    152 103.3 -33.7  34192  290.11 0854.62
2009/04/23 12:51:52.2     155     -4    -52    156    164  91.7 -23.6  34198  290.21 0854.62
2009/04/23 12:51:52.3     106    -15    -46    108    117  98.0 -28.5  34196  290.19 0854.62
2009/04/23 12:51:52.4     146     53   -106    156    188  70.0 -42.0  34212  290.47 0854.62
2009/04/23 12:51:52.5     203     81    -82    219    233  68.2 -25.4  34220  290.60 0854.62
2009/04/23 12:51:52.6     258     72    -80    268    279  74.3 -21.7  34234  290.83 0854.62
2009/04/23 12:51:52.7      86    -46    -78     98    125 118.4 -47.1  34206  290.35 0854.62
2009/04/23 12:51:52.8     100    -42     39    109    115 113.1  20.0  34226  290.69 0854.62
2009/04/23 12:51:52.9      99     -2    -20    100    103  91.7 -11.3  34206  290.35 0854.62
2009/04/23 12:51:53.0      51   -120    -82    131    154 156.8 -39.9  34196  290.18 0854.62
2009/04/23 12:51:53.1      38    -87   -123     95    155 156.4 -62.9  34192  290.11 0854.62
2009/04/23 12:51:53.2       9    -25    -44     27     51 160.0 -69.1  34200  290.26 0854.63
2009/04/23 12:51:53.3      90   -134    -20    162    164 146.2  -7.2  34196  290.19 0854.63
2009/04/23 12:51:53.5     107    -64    110    125    166 121.1  45.8  34202  290.28 0854.63
2009/04/23 12:51:53.6      98     15    133    100    166  81.2  59.4  34196  290.18 0854.63
2009/04/23 12:51:53.7      -9    -27    156     29    158 198.3  90.0  34206  290.36 0854.63
2009/04/23 12:51:53.8     -18     26    153     32    156 325.7  88.8  34206  290.36 0854.63
2009/04/23 12:51:53.9     -32     34    106     47    115 316.8  74.5  34202  290.30 0854.63
2009/04/23 12:51:54.0    -179    142     55    229    236 308.4  13.7  34196  290.19 0854.63
2009/04/23 12:51:54.1    -228    168    133    284    313 306.4  26.9  34214  290.48 0854.63
2009/04/23 12:51:54.2    -109     68    121    129    176 302.0  48.0  34206  290.36 0854.63
2009/04/23 12:51:54.3     -45     -1     54     46     70 268.3  56.3  34198  290.21 0854.63
2009/04/23 12:51:54.4     -17    -37     86     41     95 205.5  72.9  34188  290.04 0854.63
2009/04/23 12:51:54.5      23      0     64     24     68  89.2  80.2  34190  290.08 0854.63
2009/04/23 12:51:54.6       0    -23     41     24     47 180.9  66.8  34184  289.97 0854.63
2009/04/23 12:51:54.7      14    -43     75     46     87 161.7  65.1  34178  289.89 0854.63
2009/04/23 12:51:54.8       6    -11     89     13     89 151.0  90.0  34182  289.96 0854.63
2009/04/23 12:51:54.9     -12     16     62     21     65 322.2  81.0  34182  289.94 0854.63
2009/04/23 12:51:55.0      -8    -63    112     64    128 188.0  67.7  34176  289.84 0854.63
2009/04/23 12:51:55.1      27    -21     68     35     76 127.8  70.8  34180  289.92 0854.63
2009/04/23 12:51:55.2      25     -2     37     26     45  96.1  62.6  34182  289.96 0854.63
2009/04/23 12:51:55.3      86    -16     70     88    112 101.0  43.7  34182  289.94 0854.64
2009/04/23 12:51:55.4      94    -60     92    112    144 122.9  43.7  34180  289.91 0854.64
2009/04/23 12:51:55.5      14    -26     62     30     68 151.0  72.9  34188  290.04 0854.64
2009/04/23 12:51:55.6     -42    -51     47     67     81 219.6  38.6  34186  290.02 0854.64
2009/04/23 12:51:55.7     -41      5     65     42     77 277.9  64.6  34198  290.21 0854.64
2009/04/23 12:51:55.8     -20    -19     75     28     80 226.7  79.2  34202  290.28 0854.64
2009/04/23 12:51:55.9     -51    -15     38     54     66 253.2  38.6  34204  290.33 0854.64
2009/04/23 12:51:56.0     -15    -45     57     48     74 199.2  56.3  34206  290.35 0854.64
2009/04/23 12:51:56.1     -42    -28     42     51     66 236.7  43.7  34204  290.31 0854.64
2009/04/23 12:51:56.2      -7    -34      6     35     36 191.6  11.0  34198  290.23 0854.64
2009/04/23 12:51:56.3      37     13     29     40     49  70.0  39.7  34202  290.30 0854.64
2009/04/23 12:51:56.4      54      4     49     55     73  85.6  47.9  34232  290.81 0854.64
2009/04/23 12:51:56.5     106    -14     83    108    136  97.9  41.7  34250  291.09 0854.64
2009/04/23 12:51:56.6     142    -43     82    149    170 106.8  31.0  34188  290.06 0854.64
2009/04/23 12:51:56.7     132    -29     73    136    154 102.4  30.8  34180  289.91 0854.64
2009/04/23 12:51:56.8     127    -55     88    139    164 113.6  35.5  34198  290.21 0854.64
2009/04/23 12:51:56.9     124    -52    104    135    170 113.1  41.7  34224  290.67 0854.64
2009/04/23 12:51:57.0     122    -65     90    139    165 118.0  35.7  34178  289.89 0854.64
2009/04/23 12:51:57.1     152    -30    105    156    188 101.4  37.0  34186  290.01 0854.64
2009/04/23 12:51:57.2     152    -45    150    159    218 106.8  48.0  34194  290.14 0854.60
2009/04/23 12:51:57.3     165    -76    123    182    219 114.8  37.4  34180  289.91 0854.60
2009/04/23 12:51:57.4     146   -125    160    193    250 130.4  43.8  34174  289.81 0854.60
2009/04/23 12:51:57.5     191    -82    146    209    254 113.3  38.6  34174  289.81 0854.60
2009/04/23 12:51:57.6     202    -55    140    210    252 105.3  36.5  34178  289.88 0854.60
2009/04/23 12:51:57.7     227    -32    154    230    276  98.1  37.3  34180  289.92 0854.60
2009/04/23 12:51:57.8     243    -56    156    250    294 103.2  35.2  34186  290.02 0854.60
2009/04/23 12:51:57.9     251    -14    200    252    321  93.3  42.4  34186  290.02 0854.60
2009/04/23 12:51:58.0     228     32    206    231    309  82.0  46.2  34186  290.00 0854.60
2009/04/23 12:51:58.1     192    -28    209    195    285  98.4  52.2  34192  290.10 0854.60
2009/04/23 12:51:58.2     227    -63    239    236    335 105.5  50.4  34186  290.00 0854.60
2009/04/23 12:51:58.3     280    -53    205    286    351 100.8  39.3  34184  289.98 0854.60
2009/04/23 12:51:58.4     290    -63    210    297    363 102.4  38.8  34190  290.08 0854.60
2009/04/23 12:51:58.5     308    -31    137    310    338  95.9  25.3  34188  290.03 0854.60
2009/04/23 12:51:58.6     250    -41    155    254    297  99.5  34.4  34184  289.97 0854.60
2009/04/23 12:51:58.7      53   -139    167    149    223 159.1  53.7  34188  290.04 0854.60
2009/04/23 12:51:58.8     102    -64    181    121    217 122.0  63.2  34192  290.13 0854.60
2009/04/23 12:51:58.9     148     -3    126    149    195  91.3  44.3  34190  290.09 0854.60
2009/04/23 12:51:59.0     203    -13    117    204    235  93.9  32.3  34186  290.02 0854.60
2009/04/23 12:51:59.1     200    -43    101    205    228 102.2  28.0  34184  289.99 0854.60
2009/04/23 12:51:59.2     161    -31     96    165    190 101.0  32.9  34186  290.01 0854.59
2009/04/23 12:51:59.3      46     -1     79     47     91  91.7  66.2  34186  290.01 0854.59
2009/04/23 12:51:59.4      -9    -28     79     30     84 198.7  79.2  34194  290.14 0854.59
2009/04/23 12:51:59.5      78   -180    158    197    252 156.4  42.8  34192  290.12 0854.59
2009/04/23 12:51:59.6      51   -108    148    120    190 154.5  56.4  34190  290.09 0854.59
2009/04/23 12:51:59.7      43    -27     98     52    110 122.5  69.8  34190  290.09 0854.59
2009/04/23 12:51:59.8     211      6    195    212    288  88.1  47.7  34186  290.00 0854.59
2009/04/23 12:51:59.9     206    -11    216    207    299  93.3  51.2  34180  289.90 0854.59
2009/04/23 12:52:00.0     237      3    189    238    303  89.2  42.7  34180  289.92 0854.59
2009/04/23 12:52:00.1     293    -13    183    294    346  92.6  35.0  34188  290.06 0854.59
2009/04/23 12:52:00.2     273    -46    191    277    336  99.7  38.0  34184  289.97 0854.59
2009/04/23 12:52:00.3     214     -3    229    215    314  90.8  52.0  34188  290.05 0854.59
2009/04/23 12:52:00.4     215    -92    241    235    336 113.3  50.8  34188  290.05 0854.59
2009/04/23 12:52:00.5     206     27    218    208    301  82.5  51.4  34188  290.03 0854.59
2009/04/23 12:52:00.6     210     42    243    215    324  78.6  54.2  34184  289.97 0854.59
2009/04/23 12:52:00.7     295    112    200    316    373  69.2  35.5  34190  290.08 0854.59
2009/04/23 12:52:00.8     303     61    144    310    341  78.5  27.0  34192  290.13 0854.59
2009/04/23 12:52:00.9     326     96    145    341    370  73.5  24.3  34212  290.47 0854.59
2009/04/23 12:52:01.0     233      3    137    234    271  89.2  33.4  34232  290.80 0854.59
2009/04/23 12:52:01.1     310     12    211    311    375  87.6  37.4  34196  290.18 0854.59
2009/04/23 12:52:01.2     257     39    165    261    308  81.2  35.5  34206  290.36 0854.57
2009/04/23 12:52:01.3     243     10    140    244    281  87.6  32.4  34222  290.61 0854.57
2009/04/23 12:52:01.4     344     35    169    346    385  84.1  27.8  34228  290.74 0854.57
2009/04/23 12:52:01.5     352     59    148    357    386  80.4  23.7  34268  291.39 0854.57
2009/04/23 12:52:01.6     458    153    185    484    518  71.5  22.0  34262  291.29 0854.57
2009/04/23 12:52:01.7     413     99    198    425    468  76.4  26.6  34274  291.52 0854.57
2009/04/23 12:52:01.8     436    195    166    478    507  65.9  19.2  34246  291.03 0854.57
2009/04/23 12:52:01.9     425    210    188    475    510  63.7  22.9  34252  291.13 0854.57
2009/04/23 12:52:02.0     397    169    227    432    488  67.0  30.0  34250  291.10 0854.57
2009/04/23 12:52:02.1     563    153    242    584    632  74.8  23.8  34246  291.03 0854.57
2009/04/23 12:52:02.2     534    232    354    583    682  66.5  34.2  34278  291.57 0854.57
2009/04/23 12:52:02.3     425    189    345    466    579  66.0  40.2  34222  290.62 0854.57
2009/04/23 12:52:02.4     623    175    139    648    664  74.3  12.2  34216  290.53 0854.57
2009/04/23 12:52:02.5     672     71    307    676    742  83.9  26.2  34216  290.52 0854.57
2009/04/23 12:52:02.6     559    -25    340    560    655  92.6  34.2  34208  290.38 0854.57
2009/04/23 12:52:02.7     499    127    305    515    598  75.7  33.4  34196  290.17 0854.57
2009/04/23 12:52:02.8     398    139    336    422    539  70.7  42.7  34198  290.20 0854.57
2009/04/23 12:52:02.9     410   -102    242    423    487 104.1  32.4  34202  290.29 0854.57
2009/04/23 12:52:03.0     521    -63     93    525    534  97.0  10.1  34200  290.24 0854.57
2009/04/23 12:52:03.1     490    -15    179    491    522  91.8  20.9  34196  290.18 0854.57
2009/04/23 12:52:03.2     327   -117    216    348    409 109.8  35.0  34202  290.27 0854.55
2009/04/23 12:52:03.3     383   -163    183    417    455 113.1  25.2  34198  290.22 0854.55
2009/04/23 12:52:03.4     386   -164     27    420    421 113.0   3.8  34206  290.34 0854.55
2009/04/23 12:52:03.5     454    148    148    478    501  71.9  17.3  34224  290.66 0854.55
2009/04/23 12:52:03.6     457    210    230    504    554  65.3  26.2  34214  290.50 0854.55
2009/04/23 12:52:03.7     434    121    212    451    498  74.3  27.1  34206  290.35 0854.55
2009/04/23 12:52:03.8     395    -10    252    396    469  91.5  35.5  34212  290.46 0854.55
2009/04/23 12:52:03.9     293    117    129    316    341  68.2  23.4  34202  290.28 0854.55
2009/04/23 12:52:04.0     329      0    225    330    399  89.9  37.6  34198  290.23 0854.55
2009/04/23 12:52:04.1     217    -88    149    235    278 112.2  35.5  34206  290.36 0854.55
2009/04/23 12:52:04.2     375   -162    197    409    453 113.4  27.3  34202  290.29 0854.55
2009/04/23 12:52:04.3     343   -126    163    366    400 110.2  25.7  34202  290.30 0854.55
2009/04/23 12:52:04.4     262    -86    141    276    309 108.2  29.2  34210  290.42 0854.55
2009/04/23 12:52:04.5     261    -40    145    265    302  98.8  31.3  34204  290.32 0854.55
2009/04/23 12:52:04.6     245    -67    100    255    273 105.3  22.3  34214  290.48 0854.55
2009/04/23 12:52:04.7     264    -54     63    270    278 101.7  13.2  34202  290.29 0854.55
2009/04/23 12:52:04.8     249    -62     26    257    259 104.1   6.0  34206  290.36 0854.55
2009/04/23 12:52:04.9     263   -108     33    285    287 112.4   6.7  34212  290.44 0854.55
2009/04/23 12:52:05.0     272     -4    153    273    312  91.0  31.7  34218  290.54 0854.55
2009/04/23 12:52:05.1     231    205    150    310    344  48.4  27.4  34242  290.98 0854.55
2009/04/23 12:52:05.2     198    198     23    281    283  45.0   4.9  34216  290.53 0854.58
2009/04/23 12:52:05.3     196    183    146    269    306  46.9  31.0  34242  290.95 0854.58
2009/04/23 12:52:05.4     155    281    144    321    351  28.9  25.7  34228  290.72 0854.58
2009/04/23 12:52:05.5     264    213    135    340    365  51.0  22.9  34238  290.91 0854.58
2009/04/23 12:52:05.6     175    208    170    273    321  40.1  35.0  34236  290.85 0854.58
2009/04/23 12:52:05.7     243    262    133    358    381  42.8  21.4  34242  290.98 0854.58
2009/04/23 12:52:05.8     268    221    100    348    363  50.5  16.0  34244  291.00 0854.58
2009/04/23 12:52:05.9     234    119     75    263    274  62.9  16.0  34238  290.88 0854.58
2009/04/23 12:52:06.0     388     84    140    398    423  77.7  19.4  34240  290.92 0854.58
2009/04/23 12:52:06.1     257    245    126    356    378  46.4  19.6  34244  291.01 0854.58
2009/04/23 12:52:06.2     304    258     63    399    405  49.7   9.0  34244  290.99 0854.58
2009/04/23 12:52:06.3     300    252    143    392    417  50.0  20.9  34240  290.92 0854.58
2009/04/23 12:52:06.4     287    270     32    395    397  46.8   4.7  34228  290.71 0854.58
2009/04/23 12:52:06.5     319    241    133    401    423  52.9  18.5  34222  290.63 0854.58
2009/04/23 12:52:06.6     281    186     22    338    339  56.5   3.8  34214  290.49 0854.58
2009/04/23 12:52:06.7     265    284     79    389    397  43.0  11.5  34208  290.37 0854.58
2009/04/23 12:52:06.8     328    328    -18    465    466  45.0  -2.2  34192  290.13 0854.58
2009/04/23 12:52:06.9     243    193    -33    311    313  51.6  -6.1  34198  290.20 0854.58
2009/04/23 12:52:07.0       1    116    -57    117    130   0.9 -31.7  34206  290.35 0854.58
2009/04/23 12:52:07.1     318      0     70    319    327  90.0  12.5  34194  290.15 0854.58
2009/04/23 12:52:07.2     245    -55     19    252    253 102.8   4.4  34188  290.03 0854.59
2009/04/23 12:52:07.3     217    -16   -128    218    252  94.4 -37.9  34186  290.00 0854.59
2009/04/23 12:52:07.4     130    -42    -65    137    151 108.2 -31.6  34190  290.08 0854.59
2009/04/23 12:52:07.5     157    -40     21    163    165 104.4   7.5  34190  290.09 0854.59
2009/04/23 12:52:07.6      20     -3     27     21     34  99.7  56.4  34196  290.19 0854.59
2009/04/23 12:52:07.7       5     46     -1     47     48   6.2  -2.2  34198  290.23 0854.59
2009/04/23 12:52:07.8      76    -40    -28     87     92 118.0 -18.1  34200  290.26 0854.59
2009/04/23 12:52:07.9     170    -64      3    182    183 110.8   1.2  34198  290.21 0854.59
2009/04/23 12:52:08.0     161     -2    -15    162    163  90.8  -5.4  34194  290.16 0854.59
2009/04/23 12:52:08.1     125      7     60    126    139  86.5  27.3  34182  289.96 0854.59
2009/04/23 12:52:08.2     158    -32    105    162    193 101.5  35.6  34188  290.06 0854.62
2009/04/23 12:52:08.3     195   -103    107    221    245 117.8  27.4  34188  290.05 0854.62
2009/04/23 12:52:08.4     201    -73    156    214    264 110.0  39.7  34184  289.97 0854.62
2009/04/23 12:52:08.5     241   -110    251    266    365 114.6  48.0  34194  290.15 0854.62
2009/04/23 12:52:08.6     266    -41    219    270    347  98.8  43.4  34198  290.20 0854.62
2009/04/23 12:52:08.7     239    -78    253    252    357 108.2  50.1  34200  290.24 0854.62
2009/04/23 12:52:08.8     189    -80    199    206    286 113.1  49.0  34202  290.27 0854.62
2009/04/23 12:52:08.9      59    -92    104    110    151 147.5  48.0  34202  290.30 0854.62
2009/04/23 12:52:09.0      64    -27    101     70    122 113.5  62.1  34202  290.28 0854.62
2009/04/23 12:52:09.1     106    -70    109    128    168 123.3  44.8  34202  290.30 0854.62
2009/04/23 12:52:09.2     118   -104     90    158    181 131.3  32.4  34202  290.28 0854.62
2009/04/23 12:52:09.3     106   -106     67    150    164 135.0  25.7  34204  290.31 0854.62
2009/04/23 12:52:09.4      96   -117     96    152    179 140.4  35.5  34204  290.31 0854.62
2009/04/23 12:52:09.5     106    -76    132    131    185 126.0  49.7  34206  290.35 0854.62
2009/04/23 12:52:09.6      95    -10    133     96    164  96.1  60.8  34204  290.33 0854.62
2009/04/23 12:52:09.7     -52    -28     88     60    106 241.1  62.6  34212  290.47 0854.62
2009/04/23 12:52:09.8     -52   -123    165    134    212 203.2  56.4  34210  290.41 0854.62
2009/04/23 12:52:09.9     -12   -139    162    140    214 185.3  54.8  34200  290.25 0854.62
2009/04/23 12:52:10.0    -118   -153    140    194    239 217.6  39.5  34206  290.36 0854.62
2009/04/23 12:52:10.1     -53   -219    142    226    266 193.8  35.5  34206  290.34 0854.62
2009/04/23 12:52:10.2     -86   -216    124    233    263 201.8  30.3  34202  290.29 0854.62
2009/04/23 12:52:10.3     -83   -228    204    243    317 200.1  44.3  34210  290.41 0854.62
2009/04/23 12:52:10.4    -109   -223    170    249    301 206.1  37.6  34204  290.32 0854.62
2009/04/23 12:52:10.5     -66   -282    103    290    307 193.3  20.2  34182  289.95 0854.62
2009/04/23 12:52:10.6     -71   -281    115    291    312 194.3  22.8  34190  290.07 0854.62
2009/04/23 12:52:10.7    -184   -195    157    269    311 223.3  33.4  34198  290.22 0854.62
2009/04/23 12:52:10.8    -219    -55     96    226    245 255.8  24.6  34204  290.32 0854.62
2009/04/23 12:52:10.9    -271    -72     77    281    292 255.0  15.3  34204  290.32 0854.62
2009/04/23 12:52:11.0    -217    -85     28    234    236 248.5   6.9  34208  290.39 0854.62
2009/04/23 12:52:11.1    -195   -100    -15    220    221 242.9  -4.1  34204  290.31 0854.62
2009/04/23 12:52:11.2    -144   -163     27    218    220 221.4   7.1  34200  290.26 0854.62
2009/04/23 12:52:11.3    -107   -234      9    258    259 204.5   2.1  34200  290.26 0854.62
2009/04/23 12:52:11.4    -143   -178     45    229    234 218.7  11.1  34202  290.30 0854.62
2009/04/23 12:52:11.5     -89    -94    -11    130    131 223.3  -5.2  34206  290.36 0854.62
2009/04/23 12:52:11.6    -190   -118    -73    224    236 238.2 -18.1  34208  290.40 0854.62
2009/04/23 12:52:11.7    -236     10    -76    237    248 272.6 -22.9  34178  289.88 0854.62
2009/04/23 12:52:11.8    -280     11    -91    281    296 272.4 -18.1  34190  290.07 0854.62
2009/04/23 12:52:11.9    -348   -269    -56    441    445 232.3  -7.3  34196  290.19 0854.62
2009/04/23 12:52:12.0    -251   -294    -91    387    398 220.5 -13.3  34194  290.16 0854.62
2009/04/23 12:52:12.1    -316   -234     36    394    396 233.5   5.3  34198  290.20 0854.62
2009/04/23 12:52:12.2    -401   -162     -9    433    434 247.9  -1.3  34164  289.65 0854.61
2009/04/23 12:52:12.3    -407   -107    -83    421    430 255.2 -11.2  34180  289.90 0854.61
2009/04/23 12:52:12.4    -311    -53    -50    316    321 260.3  -9.1  34192  290.12 0854.61
2009/04/23 12:52:12.5    -211    -55    -60    219    228 255.4 -15.5  34186  290.01 0854.61
2009/04/23 12:52:12.6    -172    -56    -17    182    183 251.8  -5.4  34188  290.04 0854.61
2009/04/23 12:52:12.7    -106   -102    -74    148    165 226.0 -33.1  34192  290.11 0854.61
2009/04/23 12:52:12.8     -86    -54    -36    102    109 237.5 -19.7  34188  290.06 0854.61
2009/04/23 12:52:12.9    -232   -138    -82    271    283 239.3 -21.7  34184  289.98 0854.61
2009/04/23 12:52:13.0    -218   -186    -33    287    289 229.5  -6.7  34186  290.02 0854.61
2009/04/23 12:52:13.1    -242   -148    -67    284    292 238.5 -13.4  34178  289.88 0854.61
2009/04/23 12:52:13.2    -188   -172    -86    255    270 227.6 -18.7  34188  290.03 0854.61
2009/04/23 12:52:13.3    -190    -98   -116    214    243 242.7 -35.4  34192  290.12 0854.61
2009/04/23 12:52:13.4     -77    -77    -71    110    130 225.0 -40.0  34194  290.16 0854.61
2009/04/23 12:52:13.5     -67    -55    -64     87    108 230.5 -44.5  34192  290.13 0854.61
2009/04/23 12:52:13.6    -107    -16    -10    109    110 261.2  -5.6  34182  289.96 0854.61
2009/04/23 12:52:13.7    -235     10    -30    236    238 272.5  -7.3  34196  290.19 0854.61
2009/04/23 12:52:13.8    -230     24    -12    232    233 276.1  -3.2  34200  290.26 0854.61
2009/04/23 12:52:13.9    -260    122    -16    288    289 295.2  -3.2  34194  290.14 0854.61
2009/04/23 12:52:14.0    -240     60    -54    248    254 284.1 -12.4  34186  290.00 0854.61
2009/04/23 12:52:14.1    -284     59    -83    291    302 281.9 -20.7  34188  290.05 0854.61
2009/04/23 12:52:14.2    -185     76     -2    201    202 292.4  -0.7  34190  290.09 0854.61
2009/04/23 12:52:14.3    -126     82    -36    151    156 303.3 -13.4  34196  290.19 0854.61
2009/04/23 12:52:14.4     -63     30    -19     70     73 295.4 -15.5  34198  290.23 0854.61
2009/04/23 12:52:14.5      32     15    -29     36     46  64.7 -47.1  34196  290.18 0854.61
2009/04/23 12:52:14.6      95    -36    -13    102    103 110.8  -7.3  34198  290.21 0854.61
2009/04/23 12:52:14.7     132      0     17    133    135  90.0   7.5  34190  290.09 0854.61
2009/04/23 12:52:14.8     158     -2     31    159    163  91.0  11.1  34192  290.11 0854.61
2009/04/23 12:52:14.9     197    -22     54    199    207  96.6  15.3  34188  290.04 0854.61
2009/04/23 12:52:15.0     164    -41     63    170    181 104.2  21.3  34184  289.99 0854.61
2009/04/23 12:52:15.1     225    -42    105    229    251 100.6  26.2  34188  290.05 0854.61
2009/04/23 12:52:15.2     137   -132     54    191    199 133.8  15.8  34184  289.97 0854.61
2009/04/23 12:52:15.3     203    -74    113    217    244 110.2  29.5  34184  289.98 0854.61
2009/04/23 12:52:15.4     197    -65    102    208    231 108.4  27.8  34186  290.02 0854.61
2009/04/23 12:52:15.5     214    -99    -34    236    239 114.8  -8.3  34190  290.07 0854.61
2009/04/23 12:52:15.6     226   -113     -1    253    254 116.6  -0.3  34188  290.03 0854.61
2009/04/23 12:52:15.7     167   -145     47    222    227 130.9  12.0  34188  290.04 0854.61
2009/04/23 12:52:15.8     141    -78     75    162    178 118.9  26.4  34186  290.01 0854.61
2009/04/23 12:52:15.9      42   -175     62    181    192 166.4  18.9  34186  290.02 0854.61
2009/04/23 12:52:16.0      43   -162     60    168    178 165.1  20.4  34186  290.02 0854.61
2009/04/23 12:52:16.1      66   -112     83    131    155 149.3  35.5  34188  290.06 0854.61
2009/04/23 12:52:16.2      47   -124     80    133    155 159.1  34.4  34188  290.04 0854.58
2009/04/23 12:52:16.3      44   -139     79    146    166 162.2  30.8  34186  290.01 0854.58
2009/04/23 12:52:16.4      36   -146     82    151    171 166.2  30.8  34178  289.89 0854.58
2009/04/23 12:52:16.5      85   -173    123    193    228 153.7  35.6  34180  289.92 0854.58
2009/04/23 12:52:16.6      98   -223    101    244    264 156.3  23.6  34178  289.88 0854.58
2009/04/23 12:52:16.7      85   -195    112    213    240 156.4  30.1  34182  289.94 0854.58
2009/04/23 12:52:16.8      97   -189     85    213    229 152.9  23.0  34180  289.92 0854.58
2009/04/23 12:52:16.9       9   -119    142    120    185 175.5  55.8  34180  289.91 0854.58
2009/04/23 12:52:17.0      87   -150    139    174    222 149.7  42.7  34184  289.97 0854.58
2009/04/23 12:52:17.1     137   -166    136    216    255 140.3  35.5  34182  289.93 0854.58
2009/04/23 12:52:17.2      71   -129    150    148    210 151.1  50.1  34180  289.91 0854.58
2009/04/23 12:52:17.3      35    -33    122     49    131 133.1  77.1  34188  290.04 0854.58
2009/04/23 12:52:17.4      12   -103    148    104    180 172.9  61.3  34182  289.94 0854.58
2009/04/23 12:52:17.5      13   -121    170    122    209 173.8  60.8  34184  289.97 0854.58
2009/04/23 12:52:17.6     -41   -135    155    142    210 197.0  52.7  34184  289.97 0854.58
2009/04/23 12:52:17.7       9   -121    126    122    175 175.5  50.9  34180  289.92 0854.58
2009/04/23 12:52:17.8      34   -167    149    171    226 168.4  45.8  34184  289.99 0854.58
2009/04/23 12:52:17.9      66   -189    157    201    255 160.6  42.0  34186  290.02 0854.58
2009/04/23 12:52:18.0     -15   -199    202    200    284 184.4  50.1  34180  289.90 0854.58
2009/04/23 12:52:18.1      74    -29    118     80    142 111.7  62.7  34186  290.01 0854.58
2009/04/23 12:52:18.2      51   -117    177    128    218 156.4  60.6  34180  289.92 0854.57
2009/04/23 12:52:18.3     125   -274    242    302    386 155.5  43.0  34182  289.94 0854.57
2009/04/23 12:52:18.4     108   -218    207    244    319 153.5  44.7  34182  289.95 0854.57
2009/04/23 12:52:18.5      -4   -303    144    304    336 180.9  27.2  34178  289.88 0854.57
2009/04/23 12:52:18.6       4   -277    257    278    378 179.0  47.8  34180  289.91 0854.57
2009/04/23 12:52:18.7     -35   -239    172    242    296 188.5  39.1  34176  289.85 0854.57
2009/04/23 12:52:18.8     -30   -189     46    192    198 189.1  13.7  34178  289.89 0854.57
2009/04/23 12:52:18.9      -8   -122     40    123    130 184.0  17.9  34178  289.87 0854.57
2009/04/23 12:52:19.0     -35      0    -28     36     45 270.0 -46.1  34182  289.96 0854.57
2009/04/23 12:52:19.1     -14     10   -123     18    124 306.0 -90.0  34184  289.97 0854.57
2009/04/23 12:52:19.2      21    -32    -82     39     90 145.7 -77.3  34184  289.99 0854.57
2009/04/23 12:52:19.3      78    -64    -59    102    117 129.5 -36.8  34180  289.91 0854.57
2009/04/23 12:52:19.5     121    -84   -116    148    188 124.6 -46.6  34180  289.91 0854.57
2009/04/23 12:52:19.5     217   -216     40    307    310 134.8   7.5  34180  289.92 0854.57
2009/04/23 12:52:19.7     160   -220     -6    273    274 143.9  -1.3  34176  289.85 0854.57
2009/04/23 12:52:19.8     145   -173     98    226    246 140.1  25.1  34182  289.93 0854.57
2009/04/23 12:52:19.9     159   -121     74    201    214 127.3  20.9  34182  289.94 0854.57
2009/04/23 12:52:20.0      83   -108    -77    137    157 142.6 -36.0  34180  289.92 0854.57
2009/04/23 12:52:20.1     132   -105    -90    169    191 128.6 -34.7  34180  289.92 0854.57
2009/04/23 12:52:20.2     149    -95    -54    177    186 122.6 -17.0  34182  289.96 0854.57
2009/04/23 12:52:20.3     167   -269    -11    317    318 148.1  -2.1  34180  289.92 0854.60
2009/04/23 12:52:20.4     116   -339    -15    359    360 161.0  -2.5  34178  289.89 0854.60
2009/04/23 12:52:20.5     198   -386     -2    434    435 152.8  -0.3  34182  289.94 0854.60
2009/04/23 12:52:20.6      91   -484    -27    493    494 169.3  -3.2  34178  289.88 0854.60
2009/04/23 12:52:20.7     104   -394   -104    408    422 165.1 -14.3  34178  289.87 0854.60
2009/04/23 12:52:20.8      72   -265    -80    275    286 164.8 -21.0  34180  289.90 0854.60
2009/04/23 12:52:20.9     112   -308     45    329    333 160.0   7.8  34178  289.86 0854.60
2009/04/23 12:52:21.0     243   -311     20    395    396 142.0   3.0  34174  289.82 0854.60
2009/04/23 12:52:21.1     168   -314    -49    357    361 151.8  -7.9  34182  289.96 0854.60
2009/04/23 12:52:21.2     176   -373    -55    413    417 154.7  -7.6  34182  289.94 0854.60
2009/04/23 12:52:21.3      98   -291    -76    308    318 161.3 -13.9  34180  289.90 0854.60
2009/04/23 12:52:21.4     125   -253    -36    283    286 153.7  -7.3  34178  289.86 0854.60
2009/04/23 12:52:21.5     166   -354     17    392    393 154.8   2.5  34172  289.79 0854.60
2009/04/23 12:52:21.6     195   -308    -51    365    369 147.7  -8.0  34166  289.69 0854.60
2009/04/23 12:52:21.7     246   -387     -1    459    460 147.6  -0.2  34168  289.70 0854.60
2009/04/23 12:52:21.8     320   -363     45    485    488 138.6   5.3  34162  289.62 0854.60
2009/04/23 12:52:21.9     312   -376    108    489    501 140.3  12.5  34172  289.76 0854.60
2009/04/23 12:52:22.0     187   -250     68    313    321 143.1  12.4  34166  289.66 0854.60
2009/04/23 12:52:22.1     125   -243     -7    274    275 152.8  -1.6  34170  289.73 0854.60
2009/04/23 12:52:22.2     102   -378   -108    392    407 164.9 -15.5  34168  289.71 0854.60
2009/04/23 12:52:22.3     167   -400    -71    434    440 157.3  -9.3  34166  289.66 0854.60
2009/04/23 12:52:22.4      86   -334    -82    345    355 165.5 -13.4  34164  289.64 0854.60
2009/04/23 12:52:22.5      13   -368    -81    369    378 177.9 -12.5  34172  289.77 0854.60
2009/04/23 12:52:22.6       7   -271    -19    272    273 178.4  -4.1  34168  289.71 0854.60
2009/04/23 12:52:22.7     131   -389     -6    411    412 161.3  -0.9  34172  289.78 0854.60
2009/04/23 12:52:22.8      50   -385    135    389    412 172.6  19.2  34170  289.73 0854.60
2009/04/23 12:52:22.9      62   -351    134    357    381 170.0  21.4  34166  289.67 0854.60
2009/04/23 12:52:23.0      -2   -346    206    347    403 180.5  33.5  34168  289.71 0854.60
2009/04/23 12:52:23.1     -41   -403     19    406    407 185.8   2.8  34172  289.78 0854.60
2009/04/23 12:52:23.2      26   -358    -59    359    364 175.8  -9.5  34174  289.81 0854.60
2009/04/23 12:52:23.3      75   -363     55    371    376 168.3   8.5  34172  289.77 0854.60
2009/04/23 12:52:23.4     110   -302     82    322    333 160.0  14.4  34164  289.64 0854.60
2009/04/23 12:52:23.5     160   -289    106    331    348 151.0  17.8  34168  289.72 0854.60
2009/04/23 12:52:23.6     143   -234    -47    275    280 148.6  -9.8  34170  289.73 0854.60
2009/04/23 12:52:23.7      47   -236    -82    241    254 168.5 -23.6  34170  289.73 0854.60
2009/04/23 12:52:23.8      49   -289    -87    294    306 170.2 -21.5  34172  289.76 0854.60
2009/04/23 12:52:23.9     116   -243    -19    270    271 154.5  -4.1  34172  289.78 0854.60
2009/04/23 12:52:24.0     160   -168    -33    233    236 136.3  -8.3  34172  289.76 0854.60
2009/04/23 12:52:24.1     234   -137    -15    272    273 120.4  -3.2  34172  289.76 0854.60
2009/04/23 12:52:24.2     163   -154    -63    225    233 133.3 -20.4  34170  289.75 0854.58
2009/04/23 12:52:24.3      86   -243     -5    258    259 160.4  -1.3  34172  289.76 0854.58
2009/04/23 12:52:24.4      68   -206      8    217    218 161.7   2.3  34170  289.75 0854.58
2009/04/23 12:52:24.5      96   -219     42    240    244 156.2  10.0  34170  289.75 0854.58
2009/04/23 12:52:24.6     145   -183    -18    234    235 141.5  -4.6  34172  289.78 0854.58
2009/04/23 12:52:24.7     140   -235     36    274    277 149.3   7.5  34170  289.75 0854.58
2009/04/23 12:52:24.8      37   -234     15    238    239 170.9   3.8  34170  289.75 0854.58
2009/04/23 12:52:24.9      25   -214     -4    216    217 173.3  -1.3  34168  289.72 0854.58
2009/04/23 12:52:25.0     -91   -239     52    257    263 201.0  11.6  34172  289.76 0854.58
2009/04/23 12:52:25.1     -93   -311    -10    325    326 196.6  -1.8  34172  289.76 0854.58
2009/04/23 12:52:25.2    -124   -294     13    320    321 202.8   2.3  34166  289.66 0854.58
2009/04/23 12:52:25.3    -106   -141     48    177    184 217.0  15.2  34168  289.72 0854.58
2009/04/23 12:52:25.4     -84   -146     66    169    181 209.9  22.5  34168  289.72 0854.58
2009/04/23 12:52:25.5     -28   -132     82    135    157 192.0  34.2  34170  289.75 0854.58
2009/04/23 12:52:25.6     -52   -145     54    155    165 200.0  19.4  34172  289.77 0854.58
2009/04/23 12:52:25.7     -72   -132     22    151    153 208.5   8.5  34172  289.79 0854.58
2009/04/23 12:52:25.8     -36   -107     59    113    127 198.7  29.3  34172  289.77 0854.58
2009/04/23 12:52:25.9       0    -90     76     91    118 179.5  44.3  34172  289.77 0854.58
2009/04/23 12:52:26.0      83    -74     70    112    132 131.8  35.5  34174  289.80 0854.58
2009/04/23 12:52:26.1      94   -177     90    201    220 151.9  25.7  34168  289.72 0854.58
2009/04/23 12:52:26.2     117   -204     66    236    246 150.1  15.6  34170  289.73 0854.57
2009/04/23 12:52:26.3      59    -88    125    107    164 146.2  55.0  34174  289.82 0854.57
2009/04/23 12:52:26.4      -8    -63     80     64    102 188.0  56.9  34178  289.89 0854.57
2009/04/23 12:52:26.5      51   -131     97    141    171 158.6  37.8  34174  289.80 0854.57
2009/04/23 12:52:26.6      47   -143    118    151    191 161.5  42.2  34170  289.74 0854.57
2009/04/23 12:52:26.7      59   -170    119    181    216 160.8  36.5  34170  289.74 0854.57
2009/04/23 12:52:26.8      75   -157    114    175    208 154.4  36.0  34168  289.70 0854.57
2009/04/23 12:52:26.9      54   -130    127    141    189 157.3  46.9  34170  289.75 0854.57
2009/04/23 12:52:27.0      32    -68    101     76    126 154.5  59.4  34174  289.82 0854.57
2009/04/23 12:52:27.1      15    -23     66     28     71 147.4  76.1  34174  289.82 0854.57
2009/04/23 12:52:27.2       0    -21     57     22     61 180.9  78.2  34174  289.80 0854.57
2009/04/23 12:52:27.3      73   -108    122    131    179 145.7  47.9  34172  289.79 0854.57
2009/04/23 12:52:27.4      97   -176    146    202    249 151.1  39.5  34174  289.81 0854.57
2009/04/23 12:52:27.5      26   -187    183    189    263 172.0  49.2  34172  289.78 0854.57
2009/04/23 12:52:27.6      77    -69    135    104    170 132.2  58.5  34232  290.79 0854.57
2009/04/23 12:52:27.7      35   -138    149    143    206 165.7  51.2  34194  290.14 0854.57
2009/04/23 12:52:27.8      15   -165    181    166    245 174.7  53.0  34180  289.92 0854.57
2009/04/23 12:52:27.9       7   -155    187    156    243 177.3  56.1  34186  290.01 0854.57
2009/04/23 12:52:28.0     -42   -174    229    179    290 193.6  58.2  34216  290.53 0854.57
2009/04/23 12:52:28.1      33     -1    170     34    173  92.6  89.1  34210  290.43 0854.57
2009/04/23 12:52:28.2     125    120    136    174    220  46.2  42.0  34196  290.19 0854.56
2009/04/23 12:52:28.3      66     42    197     79    212  57.6  77.1  34194  290.16 0854.56
2009/04/23 12:52:28.4      41     28    200     50    206  55.8  86.2  34204  290.31 0854.56
2009/04/23 12:52:28.5      13     67    109     69    129  11.6  64.7  34202  290.30 0854.56
2009/04/23 12:52:28.6      35    165    106    169    199  12.3  35.2  34202  290.28 0854.56
2009/04/23 12:52:28.7      78    192    157    208    260  22.1  40.7  34224  290.65 0854.56
2009/04/23 12:52:28.8     -58    160    181    171    249 340.0  51.6  34198  290.21 0854.56
2009/04/23 12:52:28.9      35    177    105    181    209  11.3  32.9  34252  291.13 0854.56
2009/04/23 12:52:29.0     -74    107    142    131    193 325.3  52.2  34224  290.65 0854.56
2009/04/23 12:52:29.1      32     40    120     52    130  38.7  75.0  34224  290.65 0854.56
2009/04/23 12:52:29.2      57    142    109    154    188  21.8  38.8  34322  292.34 0854.57
2009/04/23 12:52:29.3     -30     93    105     98    143 341.7  52.1  34252  291.15 0854.57
2009/04/23 12:52:29.4     -64     76    122    100    157 319.9  56.4  34222  290.64 0854.57
2009/04/23 12:52:29.5     -37     29    125     48    133 307.8  78.6  34212  290.47 0854.57
2009/04/23 12:52:29.6     -25    101    115    105    155 346.2  52.2  34268  291.42 0854.57
2009/04/23 12:52:29.7     -68    107     78    127    149 327.5  35.0  34218  290.55 0854.57
2009/04/23 12:52:29.8     -79     96     56    125    136 320.4  25.7  34222  290.64 0854.57
2009/04/23 12:52:29.9     -96    134     74    165    180 324.4  25.7  34238  290.89 0854.57
2009/04/23 12:52:30.0    -140    116     49    183    190 309.6  15.2  34226  290.70 0854.57
2009/04/23 12:52:30.1    -112    105     39    154    159 313.1  14.3  34230  290.75 0854.57
2009/04/23 12:52:30.2      -6     84     74     85    112 355.5  45.4  34220  290.58 0854.57
2009/04/23 12:52:30.3      14    104     59    106    121   8.1  31.4  34236  290.87 0854.57
2009/04/23 12:52:30.4      90     74    103    117    155  50.5  46.2  34256  291.20 0854.57
2009/04/23 12:52:30.5      21    130     73    132    150   9.3  31.4  34240  290.92 0854.57
2009/04/23 12:52:30.6      48    143     74    151    168  18.7  27.8  34234  290.82 0854.57
2009/04/23 12:52:30.7      29    139     73    143    160  12.0  29.3  34220  290.58 0854.57
2009/04/23 12:52:30.8     -94    145     -2    173    174 327.0  -0.7  34214  290.48 0854.57
2009/04/23 12:52:30.9     -69    158      6    173    174 336.2   2.1  34210  290.43 0854.57
2009/04/23 12:52:31.0     -36    111    -23    117    120 341.7 -11.5  34194  290.16 0854.57
2009/04/23 12:52:31.1     -68     22     -2     72     73 288.2  -2.2  34208  290.38 0854.57
2009/04/23 12:52:31.2     -86     24    -14     90     92 285.9  -9.3  34204  290.33 0854.59
2009/04/23 12:52:31.3    -126    -60     49    140    149 244.6  19.4  34200  290.26 0854.59
2009/04/23 12:52:31.4     -57   -116    135    130    187 206.3  51.2  34192  290.11 0854.59
2009/04/23 12:52:31.5     -67   -112    106    131    168 210.8  43.3  34196  290.19 0854.59
2009/04/23 12:52:31.6      -6    -76     93     77    120 184.5  56.3  34192  290.13 0854.59
2009/04/23 12:52:31.7      77     66     81    102    130  49.6  42.7  34198  290.21 0854.59
2009/04/23 12:52:31.8       7      2     78      8     78  71.4  90.0  34198  290.23 0854.59
2009/04/23 12:52:31.9     -59      4    108     60    123 274.4  68.8  34204  290.33 0854.59
2009/04/23 12:52:32.0     -53    -52    112     75    134 225.9  63.6  34204  290.31 0854.59
2009/04/23 12:52:32.1     -36     22     65     43     77 301.5  64.6  34206  290.35 0854.59
2009/04/23 12:52:32.2     -21    -40     65     46     79 207.2  61.5  34202  290.30 0854.59
2009/04/23 12:52:32.3      32   -103    146    109    182 162.6  59.8  34194  290.14 0854.59
2009/04/23 12:52:32.4      -2   -144    128    145    193 181.0  46.2  34204  290.33 0854.59
2009/04/23 12:52:32.5    -118    -98    136    154    205 230.4  45.9  34242  290.98 0854.59
2009/04/23 12:52:32.6    -142    -97     69    173    186 235.6  23.0  34242  290.96 0854.59
2009/04/23 12:52:32.7    -104    -91      1    139    140 228.7   0.8  34252  291.13 0854.59
2009/04/23 12:52:32.8     -65    -79     45    103    112 219.6  25.1  34260  291.28 0854.59
2009/04/23 12:52:32.9    -145    -90    -54    171    179 238.0 -22.5  34200  290.26 0854.59
2009/04/23 12:52:33.0    -106    -73    -56    129    140 235.4 -29.5  34182  289.96 0854.59
2009/04/23 12:52:33.1     -67    -70    -41     98    106 223.7 -28.0  34196  290.18 0854.59
2009/04/23 12:52:33.2     -46    -56     36     73     81 219.7  28.2  34222  290.64 0854.58
2009/04/23 12:52:33.3     -76    -57     73     95    119 233.1  41.7  34212  290.47 0854.58
2009/04/23 12:52:33.4    -129    -47     17    138    140 250.0   7.1  34244  290.99 0854.58
2009/04/23 12:52:33.5    -133    -17     31    135    139 262.5  13.1  34260  291.26 0854.58
2009/04/23 12:52:33.6    -168    -21     54    170    179 262.8  17.7  34260  291.28 0854.58
2009/04/23 12:52:33.7    -128    -34     44    133    141 255.0  18.4  34262  291.32 0854.58
2009/04/23 12:52:33.8    -100    -18     16    102    104 259.4   9.0  34258  291.23 0854.58
2009/04/23 12:52:33.9     -64    -76     40    100    107 220.1  23.0  34244  291.01 0854.58
2009/04/23 12:52:34.0     -61    -74     73     97    121 219.6  41.2  34234  290.82 0854.58
2009/04/23 12:52:34.1     -60    -94     94    112    146 212.5  43.8  34230  290.77 0854.58
2009/04/23 12:52:34.2    -116    -24     65    119    135 258.1  31.4  34242  290.96 0854.58
2009/04/23 12:52:34.3    -127   -104     54    165    174 230.5  18.4  34216  290.53 0854.58
2009/04/23 12:52:34.4    -118   -127     38    174    179 223.0  12.4  34212  290.47 0854.58
2009/04/23 12:52:34.5    -128   -119     48    175    182 227.1  15.3  34200  290.26 0854.58
2009/04/23 12:52:34.6    -125   -150     69    196    207 219.7  20.0  34186  290.01 0854.58
2009/04/23 12:52:34.7    -175   -130     62    219    228 233.4  15.8  34196  290.18 0854.58
2009/04/23 12:52:34.8    -149   -136     56    202    210 227.6  15.6  34190  290.09 0854.58
2009/04/23 12:52:34.9    -136   -176     74    223    236 217.9  18.4  34196  290.18 0854.58
2009/04/23 12:52:35.0     -93   -174     95    198    219 208.3  27.3  34186  290.01 0854.58
2009/04/23 12:52:35.1    -148    -72     54    165    174 243.8  18.4  34272  291.47 0854.58
2009/04/23 12:52:35.2    -154      7     39    155    160 272.6  14.3  34272  291.49 0854.58
2009/04/23 12:52:35.3    -127      2     40    128    135 271.3  17.4  34272  291.49 0854.58
2009/04/23 12:52:35.4     -94    -27     43     99    107 253.6  25.1  34234  290.84 0854.58
2009/04/23 12:52:35.5    -109     15     24    111    114 277.9  12.2  34242  290.98 0854.58
2009/04/23 12:52:35.6     -74     45     30     87     93 301.5  19.4  34246  291.03 0854.58
2009/04/23 12:52:35.7     -65     23     51     70     86 290.0  39.7  34248  291.06 0854.58
2009/04/23 12:52:35.8     -28     35     64     46     78 321.3  60.5  34258  291.23 0854.58
2009/04/23 12:52:35.9     -24      0     45     25     51 270.0  68.8  34258  291.25 0854.58
2009/04/23 12:52:36.0     -24     16    -12     30     32 304.2 -27.4  34260  291.26 0854.58
2009/04/23 12:52:36.1     -22     42     61     48     77 331.9  56.4  34268  291.42 0854.58
2009/04/23 12:52:36.2      -2     88    141     89    166 358.6  64.7  34294  291.84 0854.58
2009/04/23 12:52:36.3      18     34    110     39    116  29.0  81.2  34302  292.00 0854.58
2009/04/23 12:52:36.4       5      8     92     10     92  32.5  90.0  34294  291.84 0854.58
2009/04/23 12:52:36.5     -17     64     73     67     99 344.9  52.2  34282  291.64 0854.58
2009/04/23 12:52:36.6      15     -9     75     18     77 122.4  86.9  34280  291.60 0854.58
2009/04/23 12:52:36.7      10    -65    110     66    128 171.1  66.2  34282  291.64 0854.58
2009/04/23 12:52:36.8     -67    -26     58     73     93 248.3  43.3  34266  291.38 0854.58
2009/04/23 12:52:36.9     -58   -110     59    125    138 208.1  27.1  34270  291.45 0854.58
2009/04/23 12:52:37.0     -68   -143     76    159    176 205.4  27.2  34270  291.45 0854.58
2009/04/23 12:52:37.1     -14     42     81     45     92 341.3  68.8  34256  291.21 0854.58
2009/04/23 12:52:37.2      72     44    -27     85     89  58.5 -23.3  34256  291.20 0854.59
2009/04/23 12:52:37.3     266     19     51    267    272  85.9  11.0  34256  291.21 0854.59
2009/04/23 12:52:37.4     251     26    147    253    292  84.1  32.9  34320  292.30 0854.59
2009/04/23 12:52:37.5     233     31    108    236    259  82.3  26.2  34298  291.90 0854.59
2009/04/23 12:52:37.6     260    133     85    293    306  62.9  16.3  34268  291.41 0854.59
2009/04/23 12:52:37.7     299    219    134    371    395  53.8  19.9  34282  291.64 0854.59
2009/04/23 12:52:37.8     129    203     65    241    250  32.5  15.3  34288  291.73 0854.59
2009/04/23 12:52:37.9     147    124    124    193    229  49.8  35.6  34272  291.47 0854.59
2009/04/23 12:52:38.0     324      5    115    325    344  89.0  20.2  34262  291.30 0854.59
2009/04/23 12:52:38.1     119     86    185    148    236  54.1  57.3  34274  291.50 0854.59
2009/04/23 12:52:38.2     223     28    187    225    292  82.8  43.8  34262  291.31 0854.59
2009/04/23 12:52:38.3     211     -9     58    212    220  92.6  15.3  34232  290.81 0854.59
2009/04/23 12:52:38.4     161     38    189    166    251  76.5  54.3  34252  291.13 0854.59
2009/04/23 12:52:38.5     232     77    179    245    303  71.6  39.7  34266  291.38 0854.59
2009/04/23 12:52:38.6     236     28    176    238    296  83.2  39.9  34262  291.31 0854.59
2009/04/23 12:52:38.7     165     30    172    168    240  79.6  50.4  34264  291.35 0854.59
2009/04/23 12:52:38.8     268     23    130    270    299  85.0  27.3  34228  290.71 0854.59
2009/04/23 12:52:38.9     244      8     45    245    250  88.1  10.6  34210  290.42 0854.59
2009/04/23 12:52:39.0     294     37     31    297    299  82.8   6.0  34224  290.66 0854.59
2009/04/23 12:52:39.1     228     60     29    236    238  75.2   7.1  34212  290.46 0854.59
2009/04/23 12:52:39.2     275      0    119    276    300  90.0  24.9  34228  290.71 0854.59
2009/04/23 12:52:39.3     225      0    146    226    269  89.9  35.6  34226  290.70 0854.59
2009/04/23 12:52:39.4     195     60    224    205    303  72.9  52.7  34250  291.09 0854.59
2009/04/23 12:52:39.5     208     50    190    214    286  76.5  45.9  34248  291.05 0854.59
2009/04/23 12:52:39.6     223      6    204    224    302  88.3  47.1  34232  290.78 0854.59
2009/04/23 12:52:39.7     234     19     83    235    250  85.2  19.6  34234  290.82 0854.59
2009/04/23 12:52:39.8     274     44     96    278    295  80.8  19.2  34218  290.54 0854.59
2009/04/23 12:52:39.9     264     41     52    268    274  81.0  11.0  34210  290.41 0854.59
2009/04/23 12:52:40.0     233      0     50    234    240  90.0  12.2  34206  290.34 0854.59
2009/04/23 12:52:40.1     245    -11     53    246    252  92.6  12.2  34192  290.12 0854.59
2009/04/23 12:52:40.2     240     14     31    241    244  86.5   7.5  34194  290.15 0854.59
2009/04/23 12:52:40.3     229     19     -5    230    231  85.0  -1.3  34190  290.09 0854.59
2009/04/23 12:52:40.4     238     40      3    242    243  80.4   0.8  34192  290.10 0854.59
2009/04/23 12:52:40.5     275     74    135    285    315  74.9  27.2  34238  290.90 0854.59
2009/04/23 12:52:40.6     300     66    134    308    335  77.6  25.0  34258  291.22 0854.59
2009/04/23 12:52:40.7     260     52     91    266    282  78.5  18.9  34254  291.17 0854.59
2009/04/23 12:52:40.8     226     71    139    237    274  72.5  33.1  34240  290.92 0854.59
2009/04/23 12:52:40.9     220     59    127    228    260  74.9  31.4  34246  291.02 0854.59
2009/04/23 12:52:41.0     176     72    135    191    233  67.6  38.8  34230  290.77 0854.59
2009/04/23 12:52:41.1     202    -19     87    203    220  95.5  24.6  34228  290.72 0854.59
2009/04/23 12:52:41.2     200    -24     19    202    203  97.0   5.4  34208  290.40 0854.57
2009/04/23 12:52:41.3     278    -12     67    279    287  92.6  13.5  34234  290.82 0854.57
2009/04/23 12:52:41.4     219      3    114    220    247  89.1  29.5  34222  290.61 0854.57
2009/04/23 12:52:41.5     214     36    104    218    241  80.3  27.3  34240  290.92 0854.57
2009/04/23 12:52:41.6     209      0     85    210    226  90.0  23.1  34252  291.13 0854.57
2009/04/23 12:52:41.7     242     59     85    250    265  76.3  18.9  34242  290.95 0854.57
2009/04/23 12:52:41.8     215     80     60    230    238  69.4  14.7  34260  291.27 0854.57
2009/04/23 12:52:41.9     129     82     44    154    161  57.5  16.0  34246  291.03 0854.57
2009/04/23 12:52:42.0      91     71     58    116    129  51.8  28.7  34266  291.37 0854.57
2009/04/23 12:52:42.1      96    -11     90     97    132  96.6  47.9  34252  291.13 0854.57
2009/04/23 12:52:42.2     114    -12     21    115    117  96.1  10.6  34222  290.64 0854.57
2009/04/23 12:52:42.3     117    -16      6    119    120  97.9   3.3  34224  290.67 0854.57
2009/04/23 12:52:42.4     137     27     -5    140    141  78.5  -2.2  34222  290.62 0854.57
2009/04/23 12:52:42.5      99     30     -4    104    105  73.2  -2.2  34228  290.72 0854.57
2009/04/23 12:52:42.6      70     42     21     82     85  58.9  14.7  34232  290.81 0854.57
2009/04/23 12:52:42.7      45     54     -3     71     72  39.6  -3.1  34228  290.74 0854.57
2009/04/23 12:52:42.8       4     51      5     52     53   4.5   5.9  34230  290.75 0854.57
2009/04/23 12:52:42.9      -5     41     29     42     51 352.9  37.6  34228  290.72 0854.57
2009/04/23 12:52:43.0     -14     21     32     26     41 327.4  56.4  34228  290.72 0854.57
2009/04/23 12:52:43.1     -12     11     41     17     44 313.3  77.1  34230  290.77 0854.57
2009/04/23 12:52:43.2     -21     13     31     26     40 302.5  55.4  34232  290.81 0854.55
2009/04/23 12:52:43.3     -20      2     27     21     34 276.1  56.4  34236  290.86 0854.55
2009/04/23 12:52:43.4      -3    -14     27     15     30 191.6  68.8  34236  290.86 0854.55
2009/04/23 12:52:43.5      46    -66     59     81    100 144.8  39.7  34232  290.79 0854.55
2009/04/23 12:52:43.6      57   -111    123    125    175 152.8  50.2  34240  290.94 0854.55
2009/04/23 12:52:43.7      85   -158    143    180    229 151.5  42.7  34218  290.57 0854.55
2009/04/23 12:52:43.8      25   -122    138    125    186 168.4  53.3  34232  290.81 0854.55
2009/04/23 12:52:43.9     -13    -73    119     75    140 190.7  64.7  34236  290.86 0854.55
2009/04/23 12:52:44.0      11   -152    162    153    222 175.5  52.0  34248  291.08 0854.55
2009/04/23 12:52:44.1       2   -147    131    148    197 179.1  46.2  34240  290.92 0854.55
2009/04/23 12:52:44.2       4    -56    107     57    121 175.6  69.8  34210  290.41 0854.55
2009/04/23 12:52:44.3      62    -34     78     71    105 118.9  52.7  34234  290.84 0854.55
2009/04/23 12:52:44.4     108    -89    123    140    186 129.5  45.8  34256  291.21 0854.55
2009/04/23 12:52:44.5     124     25    100    127    161  78.5  42.2  34268  291.40 0854.55
2009/04/23 12:52:44.6     129    -48    148    138    202 110.4  52.1  34254  291.18 0854.55
2009/04/23 12:52:44.7     -41   -139    171    146    224 196.5  55.6  34206  290.36 0854.55
2009/04/23 12:52:44.8      80   -130    158    153    219 148.4  50.9  34190  290.08 0854.55
2009/04/23 12:52:44.9      58   -176    157    186    243 161.7  44.5  34190  290.09 0854.55
2009/04/23 12:52:45.0      40   -178    101    183    209 167.1  31.4  34188  290.06 0854.55
2009/04/23 12:52:45.1      46   -181     89    187    207 165.7  27.2  34184  289.99 0854.55
2009/04/23 12:52:45.2      68   -184     93    197    217 159.7  27.2  34184  289.99 0854.60
2009/04/23 12:52:45.3      75   -150    114    169    203 153.3  37.3  34182  289.96 0854.60
2009/04/23 12:52:45.4      39   -129     98    135    166 163.1  39.9  34186  290.02 0854.60
2009/04/23 12:52:45.5       1    -19     77     20     79 175.5  85.4  34188  290.04 0854.60
2009/04/23 12:52:45.6     -41    -12     44     43     61 253.2  50.1  34190  290.09 0854.60
2009/04/23 12:52:45.7     -55    -87     47    104    114 212.5  26.2  34182  289.94 0854.60
2009/04/23 12:52:45.8    -111    -80    -93    138    166 234.1 -41.4  34180  289.92 0854.60
2009/04/23 12:52:46.0    -197   -131    -25    237    239 236.3  -6.2  34184  289.97 0854.60
2009/04/23 12:52:46.1    -187    -72    -40    201    205 248.7 -11.3  34180  289.92 0854.60
2009/04/23 12:52:46.2    -143    -21      7    145    146 261.6   2.8  34182  289.96 0854.60
2009/04/23 12:52:46.3    -105    -80     25    133    136 232.7  10.6  34184  289.99 0854.60
2009/04/23 12:52:46.4     -70    -45      6     84     85 237.5   4.4  34188  290.06 0854.60
2009/04/23 12:52:46.5     -81    -44     38     93    100 241.1  23.1  34186  290.02 0854.60
2009/04/23 12:52:46.6     -57    -84     72    102    124 214.3  38.6  34182  289.94 0854.60
2009/04/23 12:52:46.7     -10   -138    123    139    185 184.5  46.2  34184  289.97 0854.60
2009/04/23 12:52:46.8     -23    -57    120     62    135 201.8  70.8  34188  290.04 0854.60
2009/04/23 12:52:46.9     -54    -18     76     58     95 251.4  58.5  34194  290.14 0854.60
2009/04/23 12:52:47.0     -29   -105     79    110    135 195.6  39.1  34192  290.11 0854.60
2009/04/23 12:52:47.1     -25    -33     49     42     64 217.8  54.3  34188  290.04 0854.60
2009/04/23 12:52:47.2     -69    -33     24     77     81 244.6  17.9  34186  290.02 0854.60
2009/04/23 12:52:47.3     -15     33     50     37     62 334.7  60.5  34190  290.09 0854.54
2009/04/23 12:52:47.4      -2     35     91     36     97 355.5  78.2  34190  290.09 0854.54
2009/04/23 12:52:47.5     -49    -60     88     78    117 219.7  53.7  34192  290.13 0854.54
2009/04/23 12:52:47.6     -57    -34     60     67     89 239.3  46.4  34190  290.09 0854.54
2009/04/23 12:52:47.7     -71     -4     60     72     93 266.5  44.3  34196  290.18 0854.54
2009/04/23 12:52:47.8    -148     31    138    152    205 281.9  46.9  34196  290.19 0854.54
2009/04/23 12:52:47.9    -153     95    129    181    222 301.8  39.1  34196  290.18 0854.54
2009/04/23 12:52:48.0     -48     95     68    107    126 332.8  35.5  34196  290.19 0854.54
2009/04/23 12:52:48.1      15    108     91    110    142   8.0  43.8  34214  290.48 0854.54
2009/04/23 12:52:48.2     -61     84     73    105    127 323.9  38.0  34216  290.53 0854.54
2009/04/23 12:52:48.3     -13      0     53     14     54 270.0  84.9  34226  290.70 0854.54
2009/04/23 12:52:48.4      33     26     72     43     83  51.4  66.2  34250  291.09 0854.54
2009/04/23 12:52:48.5      45     29     86     54    101  57.5  64.7  34242  290.96 0854.54
2009/04/23 12:52:48.6      80     50     43     95    104  57.6  26.2  34224  290.67 0854.54
2009/04/23 12:52:48.7      48     40     71     63     94  50.4  53.7  34260  291.26 0854.54
2009/04/23 12:52:48.8      77     18     46     80     92  76.7  32.9  34268  291.42 0854.54
2009/04/23 12:52:48.9      41     36     40     55     68  48.7  39.7  34268  291.40 0854.54
2009/04/23 12:52:49.0      85     -3    115     86    143  92.1  60.0  34280  291.62 0854.54
2009/04/23 12:52:49.1      27    -22     78     36     85 129.6  73.5  34258  291.23 0854.54
2009/04/23 12:52:49.2     -25    -40     37     48     60 211.6  41.7  34242  290.96 0854.54
2009/04/23 12:52:49.3     -19    -20     54     28     60 223.4  69.8  34250  291.09 0854.52
2009/04/23 12:52:49.4     -19     15     51     25     56 309.5  72.8  34246  291.04 0854.52
2009/04/23 12:52:49.5    -115      1     45    116    124 270.8  21.5  34246  291.04 0854.52
2009/04/23 12:52:49.6    -111      2     56    112    125 271.3  28.7  34250  291.11 0854.52
2009/04/23 12:52:49.7     -42    -28     56     51     75 235.8  52.2  34250  291.11 0854.52
2009/04/23 12:52:49.8       2     38     57     39     69   4.4  62.6  34254  291.18 0854.52
2009/04/23 12:52:49.9       0    122     61    123    137   0.0  28.2  34276  291.54 0854.52
2009/04/23 12:52:50.0      29    130     59    134    146  12.9  25.1  34276  291.55 0854.52
2009/04/23 12:52:50.1      17    175     76    176    191   5.8  24.9  34260  291.26 0854.52
2009/04/23 12:52:50.2      43    142     80    149    169  16.9  30.6  34254  291.18 0854.52
2009/04/23 12:52:50.3      15     92     77     94    121   9.8  43.7  34260  291.28 0854.52
2009/04/23 12:52:50.4     -40     40     38     57     68 315.0  35.6  34256  291.20 0854.52
2009/04/23 12:52:50.5     -49     -3     41     50     64 266.5  43.7  34216  290.53 0854.52
2009/04/23 12:52:50.6     -53     31      6     62     63 300.7   5.9  34224  290.65 0854.52
2009/04/23 12:52:50.7     -24     36     30     44     53 325.7  37.6  34202  290.30 0854.52
2009/04/23 12:52:50.8      28     33     34     44     55  40.5  42.7  34202  290.28 0854.52
2009/04/23 12:52:50.9      95    -22     65     98    117 103.3  37.0  34204  290.33 0854.52
2009/04/23 12:52:51.0     108      8     21    109    112  85.6  11.0  34196  290.19 0854.52
2009/04/23 12:52:51.1     114     30     56    119    131  75.0  27.1  34192  290.11 0854.52
2009/04/23 12:52:51.2      98    -53     89    112    143 118.4  42.7  34198  290.21 0854.52
2009/04/23 12:52:51.3      68    -90    113    113    159 143.0  50.1  34182  289.94 0854.52
2009/04/23 12:52:51.4     125    -50    140    135    194 111.8  50.9  34178  289.87 0854.52
2009/04/23 12:52:51.5     131    -22    138    133    191  99.7  51.2  34178  289.89 0854.52
2009/04/23 12:52:51.6      11    -10     79     16     80 133.3  89.6  34182  289.96 0854.52
2009/04/23 12:52:51.7     -19    -58     64     62     89 198.3  50.1  34184  289.99 0854.52
2009/04/23 12:52:51.8     -58   -123    140    137    195 205.3  50.2  34178  289.87 0854.52
2009/04/23 12:52:51.9      74     -9    113     75    135  97.0  63.6  34182  289.94 0854.52
2009/04/23 12:52:52.0     -34    -72     90     80    120 205.3  53.7  34184  289.99 0854.52
2009/04/23 12:52:52.1      78      0     76     79    109  90.0  49.0  34182  289.94 0854.52
2009/04/23 12:52:52.2      97    -23     73    100    123 103.7  39.7  34178  289.89 0854.54
2009/04/23 12:52:52.3      22    -69     98     73    122 161.7  59.4  34180  289.92 0854.54
2009/04/23 12:52:52.4     -39    -60     56     72     91 213.4  42.2  34184  289.97 0854.54
2009/04/23 12:52:52.5     -12      0     34     13     36 265.6  81.2  34186  290.01 0854.54
2009/04/23 12:52:52.6     -28    -23     33     37     49 230.5  46.9  34186  290.02 0854.54
2009/04/23 12:52:52.7     -45    -15      8     48     49 251.6  10.1  34184  289.99 0854.54
2009/04/23 12:52:52.8     -40    -28     29     50     57 234.9  33.5  34184  289.97 0854.54
2009/04/23 12:52:52.9     -46   -104     90    114    145 204.1  42.2  34180  289.91 0854.54
2009/04/23 12:52:53.0     -57    -79    -69     98    119 215.6 -43.0  34184  289.97 0854.54
2009/04/23 12:52:53.1     -17   -122    -41    124    131 188.0 -18.7  34176  289.85 0854.54
2009/04/23 12:52:53.2      24   -113    -21    116    118 168.0 -10.3  34170  289.75 0854.54
2009/04/23 12:52:53.3       0   -131    -70    132    149 180.4 -34.7  34180  289.91 0854.54
2009/04/23 12:52:53.4     -42   -110    -62    118    133 200.9 -34.2  34178  289.89 0854.54
2009/04/23 12:52:53.5     -54    -86    -80    102    129 212.1 -46.6  34174  289.82 0854.54
2009/04/23 12:52:53.6      -7   -175    -54    176    184 182.5 -22.3  34172  289.79 0854.54
2009/04/23 12:52:53.7    -156   -176      7    236    237 221.7   1.8  34170  289.75 0854.54
2009/04/23 12:52:53.8    -186    -68    -56    199    207 249.8 -15.8  34170  289.75 0854.54
2009/04/23 12:52:53.9    -176    -91    -28    199    202 242.5  -8.0  34168  289.70 0854.54
2009/04/23 12:52:54.0    -133    -27    -46    136    143 258.5 -23.3  34164  289.63 0854.54
2009/04/23 12:52:54.1    -144    -16    -53    145    154 263.4 -24.8  34166  289.69 0854.54
2009/04/23 12:52:54.2    -109    -43    -38    118    123 248.2 -23.8  34168  289.72 0854.57
2009/04/23 12:52:54.3    -163     74      3    180    181 294.4   1.0  34176  289.84 0854.57
2009/04/23 12:52:54.4    -141     44    -40    148    154 287.3 -15.2  34168  289.72 0854.57
2009/04/23 12:52:54.5    -184      9    -64    185    195 272.8 -23.8  34160  289.57 0854.57
2009/04/23 12:52:54.6    -178     59    -38    188    192 288.6 -11.6  34172  289.77 0854.57
2009/04/23 12:52:54.7    -184    153     -1    240    241 309.6  -0.3  34172  289.76 0854.57
2009/04/23 12:52:54.8     -96    102    116    141    182 316.8  43.7  34178  289.89 0854.57
2009/04/23 12:52:54.9     -84     62    112    105    153 306.4  52.1  34186  290.01 0854.57
2009/04/23 12:52:55.0     -72     72    130    103    165 315.0  57.7  34186  290.02 0854.57
2009/04/23 12:52:55.1     -59     92    113    110    157 327.4  50.9  34188  290.06 0854.57
2009/04/23 12:52:55.2     -21    101     80    104    131 348.0  41.7  34188  290.04 0854.57
2009/04/23 12:52:55.3      16     59     90     62    109  15.2  62.1  34190  290.08 0854.57
2009/04/23 12:52:55.4     -38     46     65     60     88 320.4  52.2  34190  290.08 0854.57
2009/04/23 12:52:55.5     -39    -14     56     42     70 250.0  59.4  34192  290.11 0854.57
2009/04/23 12:52:55.6     -71      0     84     72    110 270.0  55.4  34188  290.04 0854.57
2009/04/23 12:52:55.7     -74    -45     55     87    102 238.5  35.5  34180  289.92 0854.57
2009/04/23 12:52:55.8     -69    138     62    155    166 333.3  23.0  34188  290.06 0854.57
2009/04/23 12:52:55.9    -145    -39     57    151    161 255.0  21.7  34184  289.99 0854.57
2009/04/23 12:52:56.0    -100    -44    114    110    158 246.0  50.9  34174  289.80 0854.57
2009/04/23 12:52:56.1     -21    -93    116     96    150 192.9  56.3  34184  289.97 0854.57
2009/04/23 12:52:56.2     -52   -157    147    166    221 198.3  46.2  34176  289.85 0854.61
2009/04/23 12:52:56.3     -50   -209    165    215    271 193.6  41.4  34172  289.76 0854.61
2009/04/23 12:52:56.4    -117   -154    212    194    287 217.2  52.7  34170  289.75 0854.61
2009/04/23 12:52:56.5     102   -123    196    161    253 140.4  56.4  34172  289.77 0854.61
2009/04/23 12:52:56.6      36   -121    164    127    207 163.1  58.5  34166  289.69 0854.61
2009/04/23 12:52:56.7      48     31    109     58    123  57.6  69.8  34174  289.80 0854.61
2009/04/23 12:52:56.8     -61    -50    118     80    142 230.5  62.7  34170  289.74 0854.61
2009/04/23 12:52:56.9     -94   -122    106    155    187 217.8  37.6  34168  289.72 0854.61
2009/04/23 12:52:57.0     -87   -201     18    220    221 203.4   4.9  34166  289.67 0854.61
2009/04/23 12:52:57.1    -127   -175     -8    217    218 216.1  -2.2  34166  289.69 0854.61
2009/04/23 12:52:57.2    -111   -188     51    219    225 210.5  13.2  34164  289.65 0854.61
2009/04/23 12:52:57.3     -84   -313    -52    325    330 195.1  -9.1  34162  289.61 0854.61
2009/04/23 12:52:57.4     -71   -294    -92    303    317 193.6 -17.0  34164  289.64 0854.61
2009/04/23 12:52:57.5      65   -276    -82    284    295 166.6 -20.8  34166  289.68 0854.61
2009/04/23 12:52:57.6      57   -259    -34    266    269 167.5  -7.5  34166  289.66 0854.61
2009/04/23 12:52:57.7     -21   -246      3    248    249 185.1   0.7  34162  289.61 0854.61
2009/04/23 12:52:57.8     -24   -315    -37    316    319 184.4  -6.8  34164  289.63 0854.61
2009/04/23 12:52:57.9     -55   -314    -17    319    320 190.0  -3.2  34162  289.59 0854.61
2009/04/23 12:52:58.0     -98   -249   -176    268    320 201.6 -40.8  34164  289.63 0854.61
2009/04/23 12:52:58.1    -113   -213   -149    242    284 207.9 -38.9  34160  289.58 0854.61
2009/04/23 12:52:58.2    -134   -240     -5    275    276 209.2  -1.1  34164  289.64 0854.64
2009/04/23 12:52:58.3    -171   -295     -9    342    343 210.1  -1.6  34166  289.67 0854.64
2009/04/23 12:52:58.4    -106   -298    -60    317    323 199.6 -10.8  34162  289.59 0854.64
2009/04/23 12:52:58.5     -63   -287    -37    294    297 192.5  -7.2  34166  289.66 0854.64
2009/04/23 12:52:58.6     -47   -204     26    210    212 193.1   7.2  34164  289.63 0854.64
2009/04/23 12:52:58.7     -43    -97    104    107    149 204.1  49.4  34164  289.63 0854.64
2009/04/23 12:52:58.8     -57    -27    107     64    124 244.7  66.7  34170  289.74 0854.64
2009/04/23 12:52:58.9    -157    -69     63    172    183 246.0  20.7  34166  289.67 0854.64
2009/04/23 12:52:59.0    -138    -85     72    163    178 238.5  25.1  34164  289.65 0854.64
2009/04/23 12:52:59.1    -103    -62     55    121    132 238.9  26.2  34166  289.67 0854.64
2009/04/23 12:52:59.2    -123    -13     81    124    148 263.9  35.6  34164  289.65 0854.64
2009/04/23 12:52:59.3    -173     18    -20    174    176 276.1  -6.7  34166  289.67 0854.64
2009/04/23 12:52:59.4    -222     46    -49    227    233 281.9 -12.4  34168  289.70 0854.64
2009/04/23 12:52:59.5    -219     87    -34    236    239 291.7  -8.3  34164  289.63 0854.64
2009/04/23 12:52:59.6    -174    -16     31    175    178 264.5  10.3  34166  289.69 0854.64
2009/04/23 12:52:59.7    -127    -48      1    136    137 249.2   0.8  34168  289.70 0854.64
2009/04/23 12:52:59.8    -168     -8    -61    169    179 267.0 -24.8  34170  289.74 0854.64
2009/04/23 12:52:59.9    -189    -61   -127    199    236 252.1 -40.0  34170  289.74 0854.64
2009/04/23 12:53:00.0    -329    108    -32    347    349 288.3  -5.3  34170  289.74 0854.64
2009/04/23 12:53:00.1    -256     13     17    257    258 273.0   3.9  34170  289.73 0854.64
2009/04/23 12:53:00.2    -175    -49    -13    182    183 254.3  -4.1  34170  289.75 0854.65
2009/04/23 12:53:00.3    -113   -118    -74    164    179 223.9 -30.6  34166  289.67 0854.65
2009/04/23 12:53:00.4    -186     35    -52    190    198 280.8 -15.5  34162  289.62 0854.65
2009/04/23 12:53:00.5    -277    -87   -115    291    312 252.5 -27.2  34170  289.73 0854.65
2009/04/23 12:53:00.6    -263    -91    -92    279    293 250.9 -23.8  34166  289.68 0854.65
2009/04/23 12:53:00.7    -287     49   -106    292    310 279.7 -25.3  34168  289.70 0854.65
2009/04/23 12:53:00.8    -306     28   -111    308    327 275.3 -25.0  34170  289.75 0854.65
2009/04/23 12:53:00.9    -269      8   -118    270    294 271.7 -29.5  34170  289.73 0854.65
2009/04/23 12:53:01.0    -280     77   -146    291    325 285.5 -32.9  34168  289.71 0854.65
2009/04/23 12:53:01.1    -235    -17    -34    236    239 265.7  -8.3  34172  289.78 0854.65
2009/04/23 12:53:01.2    -263   -190     46    325    329 234.0   8.1  34178  289.88 0854.65
2009/04/23 12:53:01.3    -253     32   -127    256    285 277.2 -32.6  34172  289.78 0854.65
2009/04/23 12:53:01.4    -155     70    -46    171    178 294.4 -15.0  34172  289.77 0854.65
2009/04/23 12:53:01.5    -112   -109     -6    157    158 225.6  -2.2  34174  289.80 0854.65
2009/04/23 12:53:01.6    -172   -133     54    218    225 232.3  13.9  34174  289.82 0854.65
2009/04/23 12:53:01.7    -144   -186    110    236    260 217.6  27.0  34172  289.76 0854.65
2009/04/23 12:53:01.8    -156   -100   -113    186    217 237.4 -38.6  34168  289.72 0854.65
2009/04/23 12:53:01.9    -251    -42    -84    255    269 260.4 -18.3  34172  289.76 0854.65
2009/04/23 12:53:02.0    -313   -120    -93    336    349 248.9 -15.5  34170  289.74 0854.65
2009/04/23 12:53:02.1    -317    -97    -42    332    335 253.0  -7.4  34172  289.77 0854.65
2009/04/23 12:53:02.2    -332   -149    -88    364    375 245.8 -13.6  34166  289.69 0854.68
2009/04/23 12:53:02.3    -307   -165   -119    349    368 241.6 -23.8  34172  289.76 0854.68
2009/04/23 12:53:02.4    -283    139    -20    316    317 296.2  -3.7  34176  289.85 0854.68
2009/04/23 12:53:02.5    -286     58     76    292    302 281.5  14.7  34174  289.80 0854.68
2009/04/23 12:53:02.6     -77    -93    -39    122    128 219.6 -23.3  34170  289.75 0854.68
2009/04/23 12:53:02.7     -36   -213     -4    217    218 189.7  -1.3  34170  289.75 0854.68
2009/04/23 12:53:02.8     -95   -285    107    301    320 198.5  19.6  34178  289.88 0854.68
2009/04/23 12:53:02.9      19   -244    -34    245    248 175.5  -8.0  34172  289.78 0854.68
2009/04/23 12:53:03.0      12   -295    -27    296    298 177.5  -5.4  34166  289.66 0854.68
2009/04/23 12:53:03.1     -85   -380    -30    390    392 192.7  -4.5  34162  289.59 0854.68
2009/04/23 12:53:03.2    -171   -343     -2    384    385 206.6  -0.4  34162  289.62 0854.68
2009/04/23 12:53:03.3     -87   -380     12    391    392 193.0   1.8  34166  289.67 0854.68
2009/04/23 12:53:03.4     -84   -325     43    336    339 194.6   7.4  34160  289.57 0854.68
2009/04/23 12:53:03.5      64   -333    177    340    383 169.1  29.5  34168  289.71 0854.68
2009/04/23 12:53:03.6     111   -332    199    351    403 161.5  32.3  34172  289.76 0854.68
2009/04/23 12:53:03.7     139   -293    149    325    357 154.5  26.4  34172  289.77 0854.68
2009/04/23 12:53:03.8     126   -300     85    326    337 157.2  14.6  34168  289.71 0854.68
2009/04/23 12:53:03.9      87   -329    116    341    361 165.2  18.8  34166  289.69 0854.68
2009/04/23 12:53:04.0     209   -424     93    473    483 153.7  11.1  34170  289.74 0854.68
2009/04/23 12:53:04.1     180   -346     19    390    391 152.5   2.9  34160  289.57 0854.68
2009/04/23 12:53:04.2     -42   -448     42    451    454 185.4   5.4  34166  289.68 0854.70
2009/04/23 12:53:04.3     -30   -391     11    393    394 184.5   1.7  34166  289.69 0854.70
2009/04/23 12:53:04.4      40   -376     99    379    392 173.9  14.7  34168  289.72 0854.70
2009/04/23 12:53:04.5     -43   -372     62    375    381 186.7   9.4  34166  289.67 0854.70
2009/04/23 12:53:04.6     -34   -368     86    370    380 185.3  13.1  34164  289.65 0854.70
2009/04/23 12:53:04.7      92   -426    160    437    465 167.7  21.0  34168  289.72 0854.70
2009/04/23 12:53:04.8     121   -362    140    383    407 161.4  20.9  34162  289.60 0854.70
2009/04/23 12:53:04.9     102   -570    126    580    594 169.8  12.3  34166  289.66 0854.70
2009/04/23 12:53:05.0     159   -573    121    595    608 164.4  11.6  34164  289.64 0854.70
2009/04/23 12:53:05.1      36   -472    124    474    490 175.6  14.7  34160  289.57 0854.70
2009/04/23 12:53:05.2    -158   -500    191    525    558 197.5  21.0  34166  289.68 0854.70
2009/04/23 12:53:05.3    -221   -427   -143    481    501 207.4 -21.5  34164  289.64 0854.70
2009/04/23 12:53:05.4    -257   -371   -196    452    492 214.7 -29.4  34156  289.52 0854.70
2009/04/23 12:53:05.5    -288   -365   -109    465    478 218.3 -13.3  34162  289.59 0854.70
2009/04/23 12:53:05.6    -302   -415    -53    514    517 216.1  -6.0  34160  289.56 0854.70
2009/04/23 12:53:05.7    -336   -450    -95    562    570 216.7  -9.6  34158  289.53 0854.70
2009/04/23 12:53:05.8    -362   -354   -124    507    523 225.6 -13.8  34162  289.59 0854.70
2009/04/23 12:53:05.9    -301   -407     37    507    509 216.5   4.2  34160  289.57 0854.70
2009/04/23 12:53:06.0    -128   -551     17    566    567 193.1   1.8  34162  289.60 0854.70
2009/04/23 12:53:06.1    -129   -467   -115    485    499 195.5 -13.4  34158  289.54 0854.70
2009/04/23 12:53:06.2     -65   -345   -137    352    377 190.7 -26.8  34162  289.60 0854.74
2009/04/23 12:53:06.3    -247   -337   -128    419    439 216.3 -17.0  34152  289.43 0854.74
2009/04/23 12:53:06.4    -116   -418   -119    434    451 195.6 -15.4  34154  289.48 0854.74
2009/04/23 12:53:06.5    -217   -318   -202    386    435 214.3 -34.2  34162  289.61 0854.74
2009/04/23 12:53:06.6    -196   -257   -196    324    378 217.4 -38.5  34162  289.60 0854.74
2009/04/23 12:53:06.7    -154   -271   -168    312    354 209.6 -35.1  34162  289.60 0854.74
2009/04/23 12:53:06.8    -185   -185   -181    263    319 225.0 -42.2  34164  289.63 0854.74
2009/04/23 12:53:06.9    -190   -202   -196    278    340 223.2 -43.1  34164  289.64 0854.74
2009/04/23 12:53:07.0     -94   -236   -113    255    278 201.9 -29.7  34164  289.63 0854.74
2009/04/23 12:53:07.1    -104   -272   -112    292    312 200.9 -26.4  34164  289.63 0854.74
2009/04/23 12:53:07.2    -116   -251   -143    277    311 204.9 -34.0  34164  289.63 0854.74
2009/04/23 12:53:07.3     -56   -253   -123    260    287 192.5 -31.6  34166  289.66 0854.74
2009/04/23 12:53:07.4     -89   -277   -107    292    310 197.9 -25.3  34160  289.56 0854.74
2009/04/23 12:53:07.5    -133   -289    -88    319    330 204.7 -20.1  34164  289.63 0854.74
2009/04/23 12:53:07.6    -131   -330    -47    356    360 201.7  -7.6  34162  289.60 0854.74
2009/04/23 12:53:07.7    -109   -329    -24    347    348 198.5  -4.0  34164  289.65 0854.74
2009/04/23 12:53:07.8     -32   -301    -38    303    306 186.2  -7.3  34166  289.68 0854.74
2009/04/23 12:53:07.9      82   -229    -56    244    251 160.2 -12.9  34164  289.64 0854.74
2009/04/23 12:53:08.0      27   -201    -68    203    215 172.2 -18.7  34166  289.67 0854.74
2009/04/23 12:53:08.1       0   -256    -77    257    269 179.9 -16.8  34168  289.70 0854.74
2009/04/23 12:53:08.2     -53   -264    -28    270    272 191.3  -6.0  34162  289.59 0854.71
2009/04/23 12:53:08.3     -32   -193     53    196    204 189.6  15.2  34168  289.70 0854.71
2009/04/23 12:53:08.4      40   -200     17    204    205 168.7   5.0  34164  289.63 0854.71
2009/04/23 12:53:08.5     146   -159     11    216    217 137.5   3.1  34164  289.63 0854.71
2009/04/23 12:53:08.6      79   -171     17    189    190 155.3   5.2  34166  289.67 0854.71
2009/04/23 12:53:08.7      69   -155     25    170    172 155.9   8.5  34166  289.69 0854.71
2009/04/23 12:53:08.8      92   -177     18    200    201 152.4   5.2  34166  289.67 0854.71
2009/04/23 12:53:08.9      90   -166     12    190    191 151.5   3.6  34166  289.67 0854.71
2009/04/23 12:53:09.0      56   -195    -43    203    208 164.0 -12.2  34164  289.65 0854.71
2009/04/23 12:53:09.1       2   -166      0    167    168 179.1   0.0  34164  289.65 0854.71
2009/04/23 12:53:09.2      13   -122    -25    123    126 173.8 -11.5  34164  289.65 0854.71
2009/04/23 12:53:09.3      95   -128    -15    160    161 143.5  -5.4  34162  289.62 0854.71
2009/04/23 12:53:09.4     131   -256     61    288    295 152.8  12.1  34162  289.61 0854.71
2009/04/23 12:53:09.5      99   -328     83    343    353 163.2  13.7  34162  289.62 0854.71
2009/04/23 12:53:09.6     116   -349     71    368    375 161.6  11.0  34166  289.67 0854.71
2009/04/23 12:53:09.7     123   -315    118    339    360 158.6  19.2  34172  289.77 0854.71
2009/04/23 12:53:09.8     104   -260    130    281    309 158.1  27.0  34172  289.78 0854.71
2009/04/23 12:53:09.9       5   -246    151    247    289 178.6  34.4  34164  289.63 0854.71
2009/04/23 12:53:10.0     -15   -195    160    196    253 184.5  43.7  34166  289.66 0854.71
2009/04/23 12:53:10.1       7   -196    151    197    248 177.8  41.6  34168  289.72 0854.71
2009/04/23 12:53:10.2      43   -172    185    178    256 165.7  51.2  34180  289.90 0854.72
2009/04/23 12:53:10.3      47   -154    151    162    221 163.1  47.9  34174  289.82 0854.72
2009/04/23 12:53:10.4      48   -222    165    228    281 167.7  39.5  34168  289.71 0854.72
2009/04/23 12:53:10.5     131   -230    202    265    333 150.4  41.2  34170  289.73 0854.72
2009/04/23 12:53:10.6     120   -209    143    242    281 150.1  33.5  34166  289.68 0854.72
2009/04/23 12:53:10.7      75   -176    182    192    264 156.8  48.5  34162  289.61 0854.72
2009/04/23 12:53:10.8      91    -99    134    135    190 137.2  50.2  34166  289.67 0854.72
2009/04/23 12:53:10.9      82   -181    116    199    230 155.5  32.9  34164  289.63 0854.72
2009/04/23 12:53:11.0     129   -171    151    215    262 143.0  38.6  34164  289.64 0854.72
2009/04/23 12:53:11.1     102   -199    186    224    291 152.9  43.8  34168  289.70 0854.72
2009/04/23 12:53:11.2     106    -67    143    126    190 122.5  54.3  34166  289.69 0854.71
2009/04/23 12:53:11.3     153   -185    107    241    263 140.4  25.9  34164  289.64 0854.71
2009/04/23 12:53:11.4     158   -230     87    280    294 145.5  17.3  34164  289.64 0854.71
2009/04/23 12:53:11.5     138   -261    172    296    342 152.0  32.9  34160  289.58 0854.71
2009/04/23 12:53:11.6     164   -165    184    233    296 135.2  42.2  34166  289.68 0854.71
2009/04/23 12:53:11.7      80   -214    101    229    250 159.5  25.3  34168  289.70 0854.71
2009/04/23 12:53:11.8     126   -129     82    181    198 135.7  25.9  34164  289.65 0854.71
2009/04/23 12:53:11.9     138    -86     56    163    173 122.0  18.9  34168  289.70 0854.71
2009/04/23 12:53:12.0     106    -31     -3    111    112 106.4  -1.8  34168  289.70 0854.71
2009/04/23 12:53:12.1      70    -46    -21     84     87 123.3 -14.5  34170  289.75 0854.71
2009/04/23 12:53:12.2      28    -40    -74     50     89 144.8 -67.6  34168  289.70 0854.71
2009/04/23 12:53:12.3       6     13    -50     15     52  25.4 -87.2  34170  289.74 0854.71
2009/04/23 12:53:12.4     -31     31    -23     44     49 315.0 -33.7  34166  289.69 0854.71
2009/04/23 12:53:12.5     -50     50    -26     71     75 315.0 -23.3  34168  289.72 0854.71
2009/04/23 12:53:12.7      13     71    -34     73     80  10.7 -31.0  34170  289.74 0854.71
2009/04/23 12:53:12.8      31     62    -48     70     84  27.2 -42.0  34170  289.75 0854.71
2009/04/23 12:53:12.9      10     65     -2     66     67   8.9  -2.2  34170  289.74 0854.71
2009/04/23 12:53:13.0     -14     12     45     19     48 311.3  77.1  34168  289.70 0854.71
2009/04/23 12:53:13.1      -6      6     46      9     46 315.0  90.0  34170  289.75 0854.71
2009/04/23 12:53:13.2     -14     25     63     29     69 331.0  73.1  34170  289.75 0854.71
2009/04/23 12:53:13.3       0     26    109     27    112 359.1  85.9  34174  289.80 0854.71
2009/04/23 12:53:13.4      62     -9    155     63    167  98.8  76.8  34172  289.79 0854.71
2009/04/23 12:53:13.5      69      0    142     70    158  89.2  71.9  34172  289.77 0854.71
2009/04/23 12:53:13.6       6      7     89     10     89  43.2  90.0  34182  289.94 0854.71
2009/04/23 12:53:13.7      -1    -78     88     79    118 180.9  53.3  34172  289.79 0854.71
2009/04/23 12:53:13.8     -58   -125     87    138    163 204.9  35.5  34164  289.65 0854.71
2009/04/23 12:53:13.9     -89   -140     84    167    186 212.5  28.2  34168  289.70 0854.71
2009/04/23 12:53:14.0     -83   -152     88    174    194 208.5  28.7  34170  289.74 0854.71
2009/04/23 12:53:14.1     -33    -84     94     91    130 201.8  50.7  34168  289.72 0854.71
2009/04/23 12:53:14.2     -65    -81     93    105    140 218.7  45.9  34168  289.70 0854.71
2009/04/23 12:53:14.3     -87   -147     80    171    188 210.7  27.1  34166  289.67 0854.71
2009/04/23 12:53:14.4    -112   -178     82    211    226 212.3  22.5  34166  289.67 0854.71
2009/04/23 12:53:14.5    -180   -209     64    277    285 220.8  13.1  34164  289.64 0854.71
2009/04/23 12:53:14.6    -194   -165     68    256    266 229.6  15.0  34164  289.63 0854.71
2009/04/23 12:53:14.7    -162   -107     98    195    218 236.7  28.7  34166  289.69 0854.71
2009/04/23 12:53:14.8    -114    -21    104    116    155 259.4  46.9  34170  289.74 0854.71
2009/04/23 12:53:14.9    -152     45     29    159    162 286.8  10.3  34168  289.72 0854.71
2009/04/23 12:53:15.0    -179     13      3    180    181 274.3   1.2  34162  289.62 0854.71
2009/04/23 12:53:15.1    -227     -5     12    228    229 268.7   3.1  34166  289.69 0854.71
2009/04/23 12:53:15.2    -215    -21     -4    217    218 264.3  -1.2  34166  289.69 0854.71
2009/04/23 12:53:15.3    -235     69    -25    245    247 286.4  -6.0  34170  289.75 0854.71
2009/04/23 12:53:15.4    -195     42     33    200    203 282.4   9.5  34170  289.74 0854.71
2009/04/23 12:53:15.5    -196     -3     64    197    208 269.0  18.1  34168  289.72 0854.71
2009/04/23 12:53:15.6    -151     19     62    153    165 277.5  23.0  34172  289.77 0854.71
2009/04/23 12:53:15.7    -182     25     -9    184    185 278.1  -2.8  34174  289.82 0854.71
2009/04/23 12:53:15.8    -167   -154     11    228    229 227.3   2.9  34170  289.75 0854.71
2009/04/23 12:53:15.9    -350   -350    -99    496    506 225.0 -11.3  34172  289.76 0854.71
2009/04/23 12:53:16.0    -230   -298     33    377    379 217.7   5.1  34172  289.76 0854.71
2009/04/23 12:53:16.1    -329   -338   -135    472    492 224.2 -16.0  34176  289.83 0854.71
2009/04/23 12:53:16.2    -295   -426   -161    519    544 214.7 -17.3  34166  289.68 0854.71
2009/04/23 12:53:16.3    -289   -402    -19    496    497 215.7  -2.2  34166  289.67 0854.71
2009/04/23 12:53:16.4    -309   -226      1    383    384 233.8   0.2  34168  289.72 0854.71
2009/04/23 12:53:16.5    -292   -286    177    409    445 225.6  25.1  34168  289.72 0854.71
2009/04/23 12:53:16.6    -140   -326     98    356    370 203.3  15.4  34170  289.74 0854.71
2009/04/23 12:53:16.7    -266   -246    -32    363    365 227.3  -5.2  34166  289.67 0854.71
2009/04/23 12:53:16.8    -346   -326     12    476    477 226.7   1.5  34176  289.83 0854.71
2009/04/23 12:53:16.9    -122   -437    235    454    511 195.7  29.4  34162  289.62 0854.71
2009/04/23 12:53:17.0    -194   -484    -82    522    529 201.9  -9.0  34170  289.75 0854.71
2009/04/23 12:53:17.1    -126   -481    -10    498    499 194.7  -1.3  34168  289.71 0854.71
2009/04/23 12:53:17.2    -264   -557     49    617    620 205.4   4.6  34174  289.81 0854.69
2009/04/23 12:53:17.3    -350   -423    -17    550    551 219.6  -1.8  34170  289.75 0854.69
2009/04/23 12:53:17.4    -295   -332    -17    445    446 221.7  -2.2  34164  289.65 0854.69
2009/04/23 12:53:17.5    -128   -163     81    208    223 218.1  22.3  34170  289.75 0854.69
2009/04/23 12:53:17.6     -13   -181    122    182    219 184.4  37.3  34170  289.75 0854.69
2009/04/23 12:53:17.7     -79   -306    199    317    374 194.5  35.3  34172  289.79 0854.69
2009/04/23 12:53:17.8    -160   -339     88    376    387 205.3  13.3  34172  289.79 0854.69
2009/04/23 12:53:17.9    -165   -480    -28    508    509 199.1  -3.2  34166  289.66 0854.69
2009/04/23 12:53:18.0     -42   -304     86    308    320 188.0  15.7  34168  289.71 0854.69
2009/04/23 12:53:18.1     -60   -341    108    347    364 190.0  17.4  34172  289.77 0854.69
2009/04/23 12:53:18.2     -33   -391     91    393    404 184.9  13.1  34172  289.77 0854.69
2009/04/23 12:53:18.3      61   -446     80    451    459 172.2  10.1  34172  289.77 0854.69
2009/04/23 12:53:18.4     -67   -250     41    259    263 195.1   9.0  34164  289.63 0854.69
2009/04/23 12:53:18.5     -66   -185    -80    197    212 199.8 -27.5  34172  289.77 0854.69
2009/04/23 12:53:18.6     -33   -239    -86    242    256 188.0 -24.8  34172  289.78 0854.69
2009/04/23 12:53:18.7      10   -362     20    363    364 178.3   3.3  34172  289.79 0854.69
2009/04/23 12:53:18.8     -94   -510    155    519    542 190.5  16.7  34172  289.77 0854.69
2009/04/23 12:53:18.9     -67   -706     55    710    713 185.5   4.5  34172  289.76 0854.69
2009/04/23 12:53:19.0    -322   -630      2    708    709 207.1   0.2  34174  289.81 0854.69
2009/04/23 12:53:19.1    -109   -577    -97    588    596 190.7  -9.4  34170  289.73 0854.69
2009/04/23 12:53:19.2      84   -455     82    463    471 169.5  10.1  34164  289.64 0854.67
2009/04/23 12:53:19.3     128   -602    132    616    631 168.0  12.2  34168  289.70 0854.67
2009/04/23 12:53:19.4     159   -579    271    601    659 164.6  25.9  34172  289.79 0854.67
2009/04/23 12:53:19.5      89   -510    263    518    580 170.0  28.9  34164  289.63 0854.67
2009/04/23 12:53:19.6      35   -497    212    499    542 175.9  24.5  34168  289.70 0854.67
2009/04/23 12:53:19.7      48   -416    215    419    470 173.3  29.3  34172  289.77 0854.67
2009/04/23 12:53:19.8       7   -397    248    398    468 178.9  34.9  34174  289.80 0854.67
2009/04/23 12:53:19.9     -78   -501    197    508    544 188.9  22.3  34172  289.79 0854.67
2009/04/23 12:53:20.0     -96   -403    299    415    511 193.5  39.3  34172  289.78 0854.67
2009/04/23 12:53:20.1     -73   -488    242    494    550 188.6  28.2  34172  289.79 0854.67
2009/04/23 12:53:20.2      20   -523    -25    524    525 177.8  -2.8  34174  289.80 0854.67
2009/04/23 12:53:20.3     134   -386    -37    409    411 160.8  -5.2  34174  289.80 0854.67
2009/04/23 12:53:20.4       0   -259     50    260    265 180.2  11.0  34172  289.78 0854.67
2009/04/23 12:53:20.5     -87   -268    206    282    349 198.0  39.7  34174  289.82 0854.67
2009/04/23 12:53:20.6     -96   -154    135    182    226 211.9  40.1  34174  289.82 0854.67
2009/04/23 12:53:20.7     -91   -151     62    177    188 211.2  19.6  34178  289.87 0854.67
2009/04/23 12:53:20.8     -93    -57     14    110    111 238.5   7.5  34172  289.77 0854.67
2009/04/23 12:53:20.9    -199      1     39    200    204 270.4  11.1  34174  289.80 0854.67
2009/04/23 12:53:21.0    -636   -196    -55    666    669 252.8  -4.8  34174  289.82 0854.67
2009/04/23 12:53:21.1    -342   -249   -137    424    445 233.9 -23.0  34174  289.80 0854.67
2009/04/23 12:53:21.2    -519    -47   -148    522    542 264.8 -20.5  34178  289.87 0854.65
2009/04/23 12:53:21.3    -255   -255   -134    362    386 225.0 -25.5  34170  289.74 0854.65
2009/04/23 12:53:21.4    -415    -31   -115    417    433 265.7 -15.5  34164  289.63 0854.65
2009/04/23 12:53:21.5    -273   -145      1    310    311 242.0   0.2  34176  289.83 0854.65
2009/04/23 12:53:21.6    -138   -517   -107    536    547 195.0 -11.3  34174  289.80 0854.65
2009/04/23 12:53:21.7    -319   -305   -156    442    468 226.2 -24.7  34178  289.87 0854.65
2009/04/23 12:53:21.8    -496   -320   -165    591    613 237.2 -20.2  34180  289.91 0854.65
2009/04/23 12:53:21.9    -282   -246   -192    375    421 228.9 -33.6  34170  289.73 0854.65
2009/04/23 12:53:22.0      12   -397   -128    398    419 178.2 -17.9  34176  289.83 0854.65
2009/04/23 12:53:22.1     -90   -244    -79    261    273 200.3 -17.0  34168  289.70 0854.65
2009/04/23 12:53:22.2    -139   -290    -21    322    323 205.6  -3.8  34178  289.86 0854.65
2009/04/23 12:53:22.3     -85   -267    -25    281    283 197.8  -5.2  34182  289.95 0854.65
2009/04/23 12:53:22.4    -200    -97     78    223    236 244.0  20.0  34174  289.80 0854.65
2009/04/23 12:53:22.5    -334   -149    -73    366    374 245.9 -11.3  34168  289.72 0854.65
2009/04/23 12:53:22.6    -433   -101   -158    445    473 256.8 -19.6  34170  289.73 0854.65
2009/04/23 12:53:22.7    -634    -56   -125    637    650 264.9 -11.1  34160  289.57 0854.65
2009/04/23 12:53:22.8    -517   -108   -173    529    556 258.1 -23.3  34172  289.77 0854.65
2009/04/23 12:53:22.9    -641   -187   -217    668    703 253.7 -18.0  34178  289.88 0854.65
2009/04/23 12:53:23.0    -640   -157   -192    660    687 256.2 -21.0  34178  289.88 0854.65
2009/04/23 12:53:23.1    -351   -166   -138    389    412 244.6 -24.6  34180  289.90 0854.65
2009/04/23 12:53:23.2    -262    -61     -2    270    271 256.8  -0.5  34184  289.97 0854.63
2009/04/23 12:53:23.3    -399   -128   -128    420    440 252.2 -17.0  34182  289.94 0854.63
2009/04/23 12:53:23.4    -292   -170   -229    339    409 239.8 -41.8  34188  290.03 0854.63
2009/04/23 12:53:23.5    -245    -78    -61    258    266 252.3 -13.3  34180  289.92 0854.63
2009/04/23 12:53:23.6    -461    -36    -52    463    466 265.4  -6.5  34188  290.03 0854.63
2009/04/23 12:53:23.7    -274   -373   -109    463    476 216.3 -13.3  34178  289.89 0854.63
2009/04/23 12:53:23.8    -253   -255   -170    360    398 224.8 -31.5  34178  289.89 0854.63
2009/04/23 12:53:23.9    -197   -297   -176    357    398 213.6 -32.6  34172  289.77 0854.63
2009/04/23 12:53:24.0    -420     46   -166    423    454 276.3 -27.1  34144  289.31 0854.63
2009/04/23 12:53:24.1    -391   -189    101    435    447 244.1  13.1  34182  289.94 0854.63
2009/04/23 12:53:24.2    -381   -236    -49    449    452 238.3  -6.3  34178  289.87 0854.63
2009/04/23 12:53:24.3    -273   -291   -140    400    423 223.2 -24.4  34174  289.82 0854.63
2009/04/23 12:53:24.4    -238   -160    -95    288    304 236.0 -18.3  34178  289.88 0854.63
2009/04/23 12:53:24.5    -221   -133    -33    259    262 238.9  -7.3  34180  289.90 0854.63
2009/04/23 12:53:24.6    -392   -294    120    491    506 233.2  13.8  34188  290.06 0854.63
2009/04/23 12:53:24.7    -331   -394    -37    515    517 220.1  -4.1  34182  289.96 0854.63
2009/04/23 12:53:24.8    -328   -340     27    473    474 223.9   3.3  34180  289.91 0854.63
2009/04/23 12:53:24.9    -371   -370   -100    525    535 225.1 -10.8  34172  289.77 0854.63
2009/04/23 12:53:25.0     -99   -334    -23    349    350 196.5  -3.9  34178  289.86 0854.63
2009/04/23 12:53:25.1    -128   -426    -56    445    449 196.8  -7.2  34178  289.87 0854.63
2009/04/23 12:53:25.2    -113   -474    -99    488    499 193.4 -11.6  34178  289.86 0854.63
2009/04/23 12:53:25.3    -109   -450   -100    464    475 193.7 -12.3  34172  289.76 0854.63
2009/04/23 12:53:25.4     -86   -430   -123    439    456 191.4 -15.7  34176  289.83 0854.63
2009/04/23 12:53:25.5       5   -465    -24    466    467 179.3  -3.0  34172  289.76 0854.63
2009/04/23 12:53:25.6     -43   -445     25    448    449 185.6   3.2  34174  289.82 0854.63
2009/04/23 12:53:25.7     -68   -326     34    334    336 191.8   6.0  34168  289.71 0854.63
2009/04/23 12:53:25.8     -33   -268    -87    271    285 187.1 -17.9  34178  289.88 0854.63
2009/04/23 12:53:25.9     -97   -264    -61    282    289 200.3 -12.4  34176  289.85 0854.63
2009/04/23 12:53:26.0     -10   -329    -47    330    334 181.8  -8.2  34178  289.87 0854.63
2009/04/23 12:53:26.1     -14   -381    -39    382    385 182.2  -5.9  34172  289.77 0854.63
2009/04/23 12:53:26.2     -63   -466     29    471    472 187.7   3.6  34178  289.88 0854.63
2009/04/23 12:53:26.3     -88   -495      2    503    504 190.1   0.3  34172  289.78 0854.63
2009/04/23 12:53:26.4    -173   -318    -54    363    368 208.6  -8.6  34170  289.74 0854.63
2009/04/23 12:53:26.5      17   -333     -6    334    335 177.0  -1.1  34176  289.84 0854.63
2009/04/23 12:53:26.6     -77   -516    -15    522    523 188.6  -1.7  34172  289.77 0854.63
2009/04/23 12:53:26.7    -210   -238     41    318    321 221.4   7.5  34178  289.86 0854.63
2009/04/23 12:53:26.8    -125   -217     72    251    262 209.9  16.0  34176  289.83 0854.63
2009/04/23 12:53:26.9      62   -245    -10    253    254 165.7  -2.3  34178  289.86 0854.63
2009/04/23 12:53:27.0       9   -330    101    331    347 178.4  17.0  34176  289.84 0854.63
2009/04/23 12:53:27.1     -64   -249    159    258    303 194.5  34.8  34168  289.70 0854.63
2009/04/23 12:53:27.2      -2   -194    126    195    232 180.7  35.6  34178  289.87 0854.62
2009/04/23 12:53:27.3    -146   -452    179    476    508 197.9  21.5  34182  289.96 0854.62
2009/04/23 12:53:27.4     -40   -368    181    371    412 186.2  28.0  34178  289.86 0854.62
2009/04/23 12:53:27.5     219   -452    182    503    535 154.1  19.9  34178  289.87 0854.62
2009/04/23 12:53:27.6     214   -391    217    446    495 151.3  27.8  34176  289.83 0854.62
2009/04/23 12:53:27.7     150   -358     64    389    395 157.3   9.4  34178  289.89 0854.62
2009/04/23 12:53:27.8      10   -168    228    169    283 176.4  59.8  34172  289.78 0854.62
2009/04/23 12:53:27.9     157    -71    195    173    260 114.4  53.7  34182  289.93 0854.62
2009/04/23 12:53:28.0       8    -60    165     61    175 172.0  78.9  34178  289.89 0854.62
2009/04/23 12:53:28.1     107   -321    254    339    423 161.5  40.7  34176  289.84 0854.62
2009/04/23 12:53:28.2     214   -350    114    411    427 148.6  15.6  34178  289.88 0854.62
2009/04/23 12:53:28.3     195   -269    132    333    358 144.1  22.8  34172  289.79 0854.62
2009/04/23 12:53:28.4     136   -390    352    414    543 160.7  44.7  34178  289.86 0854.62
2009/04/23 12:53:28.5     -20   -440    263    441    513 182.7  33.5  34180  289.91 0854.62
2009/04/23 12:53:28.6    -108   -426    268    440    515 194.3  34.2  34176  289.83 0854.62
2009/04/23 12:53:28.7    -256   -401    193    477    514 212.6  23.2  34182  289.93 0854.62
2009/04/23 12:53:28.8    -186   -239     61    303    310 217.9  11.5  34168  289.71 0854.62
2009/04/23 12:53:28.9    -162   -253      4    301    302 212.6   0.8  34176  289.83 0854.62
2009/04/23 12:53:29.0    -271   -325    -93    424    435 219.8 -12.4  34182  289.95 0854.62
2009/04/23 12:53:29.1    -253   -415    -39    487    489 211.4  -4.6  34178  289.88 0854.62
2009/04/23 12:53:29.2    -284   -234   -125    369    390 230.5 -18.8  34182  289.93 0854.64
2009/04/23 12:53:29.3    -322    -82    -34    333    335 255.7  -5.9  34174  289.82 0854.64
2009/04/23 12:53:29.4    -369    -75    -68    377    384 258.5 -10.3  34172  289.76 0854.64
2009/04/23 12:53:29.5    -346   -207   -126    404    423 239.1 -22.4  34176  289.85 0854.64
2009/04/23 12:53:29.6    -382   -179   -142    422    446 244.9 -18.6  34176  289.83 0854.64
2009/04/23 12:53:29.7    -260   -154      6    303    304 239.4   1.2  34182  289.93 0854.64
2009/04/23 12:53:29.8    -338   -108    -11    356    357 252.2  -1.9  34178  289.86 0854.64
2009/04/23 12:53:29.9    -264   -105     14    285    286 248.2   2.9  34176  289.83 0854.64
2009/04/23 12:53:30.0    -165   -157    -12    228    229 226.4  -3.2  34174  289.82 0854.64
2009/04/23 12:53:30.1    -189   -179    -82    261    274 226.4 -17.6  34172  289.78 0854.64
2009/04/23 12:53:30.2    -198   -204    -34    285    288 224.1  -6.9  34178  289.86 0854.64
2009/04/23 12:53:30.3    -250   -221   -117    334    353 228.5 -24.6  34174  289.81 0854.64
2009/04/23 12:53:30.4    -208   -312    -49    376    380 213.7  -7.5  34174  289.82 0854.64
2009/04/23 12:53:30.5    -199   -215    -79    294    305 222.8 -15.2  34174  289.81 0854.64
2009/04/23 12:53:30.6    -200   -234   -117    309    330 220.5 -26.0  34172  289.76 0854.64
2009/04/23 12:53:30.7    -138   -176   -115    224    251 218.1 -33.7  34170  289.73 0854.64
2009/04/23 12:53:30.8    -127   -151    -74    198    211 219.9 -25.7  34176  289.85 0854.64
2009/04/23 12:53:30.9    -161   -160    -71    228    238 225.1 -22.3  34174  289.81 0854.64
2009/04/23 12:53:31.0    -223   -247     20    333    334 222.1   3.5  34176  289.84 0854.64
2009/04/23 12:53:31.1    -197   -343     -4    396    397 209.9  -0.7  34172  289.77 0854.64
2009/04/23 12:53:31.2    -279   -347     14    446    447 218.8   1.9  34174  289.82 0854.64
2009/04/23 12:53:31.3    -164   -347   -188    384    427 205.3 -32.4  34170  289.73 0854.64
2009/04/23 12:53:31.4    -154   -253   -177    297    345 211.4 -38.1  34172  289.77 0854.64
2009/04/23 12:53:31.5    -249   -304   -259    393    470 219.3 -41.0  34168  289.72 0854.64
2009/04/23 12:53:31.6    -213   -220   -297    307    427 224.1 -53.4  34172  289.76 0854.64
2009/04/23 12:53:31.7    -198   -239   -243    311    394 219.6 -46.3  34174  289.82 0854.64
2009/04/23 12:53:31.8    -374   -334   -158    502    527 228.2 -17.5  34186  290.00 0854.64
2009/04/23 12:53:31.9    -262   -278    -94    383    395 223.3 -13.9  34188  290.03 0854.64
2009/04/23 12:53:32.0    -341   -216    -85    404    413 237.6 -11.9  34184  289.99 0854.64
2009/04/23 12:53:32.1    -298   -236    -99    381    394 231.6 -14.6  34188  290.03 0854.64
2009/04/23 12:53:32.2    -313   -239    -87    395    405 232.6 -12.5  34184  289.99 0854.62
2009/04/23 12:53:32.3    -194   -165    -69    256    266 229.6 -15.2  34186  290.00 0854.62
2009/04/23 12:53:32.4    -153   -266    -32    307    309 209.9  -6.1  34180  289.92 0854.62
2009/04/23 12:53:32.5     -55   -235    113    242    267 193.3  27.1  34192  290.10 0854.62
2009/04/23 12:53:32.6    -158   -233     60    282    289 214.2  12.0  34192  290.12 0854.62
2009/04/23 12:53:32.7    -153   -179    -25    236    238 220.5  -6.1  34190  290.07 0854.62
2009/04/23 12:53:32.8     -90   -272     -8    287    288 198.5  -1.8  34186  290.02 0854.62
2009/04/23 12:53:32.9     -69   -268      4    277    278 194.5   1.0  34186  290.00 0854.62
2009/04/23 12:53:33.0      26   -302    -11    304    305 174.9  -2.2  34174  289.81 0854.62
2009/04/23 12:53:33.1      36   -452    -57    454    458 175.4  -7.2  34172  289.77 0854.62
2009/04/23 12:53:33.2      93   -339     17    352    353 164.6   2.9  34172  289.76 0854.62
2009/04/23 12:53:33.3     104   -330     41    347    350 162.5   6.8  34176  289.84 0854.62
2009/04/23 12:53:33.4      86   -254    -44    269    273 161.3  -9.3  34168  289.70 0854.62
2009/04/23 12:53:33.5     -16   -264    114    265    288 183.6  24.9  34172  289.78 0854.62
2009/04/23 12:53:33.6     182   -404    159    444    471 155.7  20.4  34174  289.80 0854.62
2009/04/23 12:53:33.7     180   -394    104    434    447 155.5  13.6  34174  289.80 0854.62
2009/04/23 12:53:33.8     187   -414     88    455    464 155.7  11.0  34172  289.78 0854.62
2009/04/23 12:53:33.9     128   -292     53    320    325 156.3   9.4  34174  289.80 0854.62
2009/04/23 12:53:34.0      72   -213     -8    225    226 161.3  -2.2  34172  289.79 0854.62
2009/04/23 12:53:34.1      35   -243     16    246    247 171.8   3.8  34168  289.71 0854.62
2009/04/23 12:53:34.2      57   -355     81    360    370 170.9  12.8  34172  289.77 0854.62
2009/04/23 12:53:34.3      71   -329     79    337    347 167.7  13.3  34172  289.79 0854.62
2009/04/23 12:53:34.4      86   -321     49    333    337 164.9   8.5  34172  289.79 0854.62
2009/04/23 12:53:34.5      61   -277     55    284    290 167.5  11.1  34172  289.78 0854.62
2009/04/23 12:53:34.6      49   -254     69    259    269 168.9  15.0  34172  289.76 0854.62
2009/04/23 12:53:34.7      24   -228     83    230    245 173.8  19.9  34174  289.81 0854.62
2009/04/23 12:53:34.8      54   -152    132    162    208 160.4  43.7  34174  289.82 0854.62
2009/04/23 12:53:34.9      23    -69    138     73    156 161.3  69.8  34176  289.85 0854.62
2009/04/23 12:53:35.0       2      7     78      8     78  18.5  90.0  34180  289.91 0854.62
2009/04/23 12:53:35.1     -25   -201    154    203    254 187.1  40.9  34174  289.80 0854.62
2009/04/23 12:53:35.2     -65   -170    144    183    232 200.9  42.2  34172  289.77 0854.62
2009/04/23 12:53:35.3      96   -173     31    198    201 151.0   9.0  34172  289.77 0854.62
2009/04/23 12:53:35.4      51   -200     48    207    213 165.7  13.1  34172  289.79 0854.62
2009/04/23 12:53:35.5      75   -223     -2    236    237 161.3  -0.7  34178  289.86 0854.62
2009/04/23 12:53:35.6     -19   -279    -32    280    282 184.0  -6.7  34174  289.81 0854.62
2009/04/23 12:53:35.7     -25   -345    -55    346    351 184.2  -9.1  34172  289.79 0854.62
2009/04/23 12:53:35.8     -59   -295    -42    301    305 191.3  -8.0  34174  289.81 0854.62
2009/04/23 12:53:35.9      54   -235     -9    242    243 167.1  -2.3  34174  289.81 0854.62
2009/04/23 12:53:36.0     166   -198     70    259    269 140.1  15.3  34172  289.78 0854.62
2009/04/23 12:53:36.1     153   -241    185    286    340 147.5  35.7  34172  289.78 0854.62
2009/04/23 12:53:36.2      74   -218    106    231    254 161.3  26.4  34174  289.80 0854.63
2009/04/23 12:53:36.3      79   -218    164    233    284 160.0  38.6  34178  289.86 0854.63
2009/04/23 12:53:36.4      92   -236     54    254    260 158.6  12.1  34176  289.83 0854.63
2009/04/23 12:53:36.5      79   -237     46    250    255 161.5  10.6  34176  289.83 0854.63
2009/04/23 12:53:36.6     148   -122     35    193    197 129.5  10.3  34168  289.70 0854.63
2009/04/23 12:53:36.7     122   -135     93    183    205 137.9  29.1  34172  289.79 0854.63
2009/04/23 12:53:36.8     167   -193    109    256    278 139.2  24.3  34176  289.83 0854.63
2009/04/23 12:53:36.9     137   -139     54    196    204 135.5  15.6  34174  289.82 0854.63
2009/04/23 12:53:37.0     176   -167    -32    243    246 133.6  -7.7  34178  289.86 0854.63
2009/04/23 12:53:37.1     171   -171    -73    242    253 135.0 -16.8  34176  289.85 0854.63
2009/04/23 12:53:37.2     237   -157    -11    285    286 123.5  -2.2  34176  289.85 0854.63
2009/04/23 12:53:37.3     178   -172    -24    248    250 134.0  -5.6  34176  289.85 0854.63
2009/04/23 12:53:37.4     134   -112    -48    175    182 129.8 -15.5  34176  289.85 0854.63
2009/04/23 12:53:37.5     174   -139     26    223    225 128.6   6.9  34176  289.84 0854.63
2009/04/23 12:53:37.6      93   -105     61    141    153 138.6  25.1  34172  289.79 0854.63
2009/04/23 12:53:37.7      74   -224    134    236    271 161.7  32.3  34174  289.80 0854.63
2009/04/23 12:53:37.8      71   -213    138    225    263 161.5  34.5  34174  289.81 0854.63
2009/04/23 12:53:37.9      89   -257     98    273    290 160.8  20.4  34174  289.80 0854.63
2009/04/23 12:53:38.0     -18   -317    110    318    337 183.4  19.2  34168  289.71 0854.63
2009/04/23 12:53:38.1     -43   -355     61    358    364 187.0   9.7  34172  289.77 0854.63
2009/04/23 12:53:38.2     -47   -274    -24    279    281 189.8  -5.1  34174  289.81 0854.63
2009/04/23 12:53:38.3     -31   -301     15    303    304 186.0   2.9  34176  289.83 0854.63
2009/04/23 12:53:38.4     -79   -302     37    313    316 194.7   6.9  34172  289.78 0854.63
2009/04/23 12:53:38.5      26   -281     44    283    287 174.6   8.9  34176  289.83 0854.63
2009/04/23 12:53:38.6     -34   -256    -77    259    270 187.6 -21.7  34176  289.83 0854.63
2009/04/23 12:53:38.7     -74   -221    -30    234    236 198.7  -7.3  34174  289.81 0854.63
2009/04/23 12:53:38.8      47   -230    -55    235    242 168.4 -13.3  34176  289.85 0854.63
2009/04/23 12:53:38.9      22   -285     -2    286    287 175.5  -0.5  34176  289.85 0854.63
2009/04/23 12:53:39.0       6   -354     80    355    365 178.9  12.8  34172  289.77 0854.63
2009/04/23 12:53:39.1     -65   -469    157    474    500 188.0  18.4  34172  289.79 0854.63
2009/04/23 12:53:39.2    -182   -382    149    424    449 205.5  20.1  34180  289.90 0854.63
2009/04/23 12:53:39.3    -265   -368     59    454    458 215.8   7.5  34174  289.80 0854.63
2009/04/23 12:53:39.4    -282   -363    -58    460    464 217.9  -7.2  34168  289.70 0854.63
2009/04/23 12:53:39.5    -221   -433   -165    487    515 207.1 -18.7  34172  289.78 0854.63
2009/04/23 12:53:39.6    -227   -467   -153    520    542 206.0 -16.4  34174  289.80 0854.63
2009/04/23 12:53:39.7    -240   -446   -150    507    529 208.3 -16.5  34176  289.84 0854.63
2009/04/23 12:53:39.8    -234   -425   -158    486    512 208.9 -18.0  34172  289.78 0854.63
2009/04/23 12:53:39.9    -269   -314   -154    414    441 220.5 -25.8  34174  289.80 0854.63
2009/04/23 12:53:40.0    -378   -359    -95    522    531 226.4 -10.4  34176  289.84 0854.63
2009/04/23 12:53:40.1    -212   -312   -138    378    402 214.2 -25.4  34172  289.77 0854.63
2009/04/23 12:53:40.3    -128   -387   -127    408    428 198.3 -17.3  34174  289.82 0854.63
2009/04/23 12:53:40.4    -203   -330   -132    388    410 211.6 -18.8  34174  289.80 0854.63
2009/04/23 12:53:40.5    -227   -306    -98    382    395 216.6 -14.5  34178  289.86 0854.63
2009/04/23 12:53:40.6    -152   -339    -95    372    385 204.2 -14.4  34170  289.74 0854.63
2009/04/23 12:53:40.7    -139   -295    -86    327    339 205.3 -14.8  34178  289.87 0854.63
2009/04/23 12:53:40.8    -110   -338   -113    356    374 198.0 -17.7  34178  289.86 0854.63
2009/04/23 12:53:40.9    -107   -323   -108    341    358 198.5 -17.6  34168  289.72 0854.63
2009/04/23 12:53:41.0       0   -354    -45    355    358 180.0  -7.3  34174  289.81 0854.63
2009/04/23 12:53:41.1       5   -363    -20    364    365 179.1  -3.3  34174  289.81 0854.63
2009/04/23 12:53:41.2     -25   -339    -43    340    343 184.3  -7.2  34168  289.72 0854.63
2009/04/23 12:53:41.3     -55   -324    -42    329    332 189.8  -7.3  34176  289.84 0854.63
2009/04/23 12:53:41.4     -50   -353    -20    357    358 188.1  -3.3  34174  289.81 0854.63
2009/04/23 12:53:41.5     -45   -344    -37    348    351 187.6  -6.1  34176  289.84 0854.63
2009/04/23 12:53:41.6     -62   -357    -30    363    365 189.9  -4.8  34172  289.76 0854.63
2009/04/23 12:53:41.7     -41   -344    -45    347    350 186.8  -7.5  34178  289.86 0854.63
2009/04/23 12:53:41.8     -58   -330    -43    336    339 190.1  -7.3  34174  289.82 0854.63
2009/04/23 12:53:41.9     -48   -304    -12    308    309 189.1  -2.2  34178  289.86 0854.63
2009/04/23 12:53:42.0      13   -323    -15    324    325 177.7  -2.7  34174  289.81 0854.63
2009/04/23 12:53:42.1     -22   -290     -8    291    292 184.5  -1.6  34174  289.81 0854.63
2009/04/23 12:53:42.2     -41   -255     13    259    260 189.1   2.9  34178  289.86 0854.63
2009/04/23 12:53:42.3      -6   -256     29    257    259 181.4   6.5  34174  289.80 0854.63
2009/04/23 12:53:42.4     -43   -234      3    238    239 190.5   0.8  34176  289.85 0854.63
2009/04/23 12:53:42.5     -40   -187      9    192    193 192.3   2.9  34174  289.82 0854.63
2009/04/23 12:53:42.6      43   -157     76    163    179 164.6  27.0  34178  289.89 0854.63
2009/04/23 12:53:42.7       5   -191    116    192    224 178.4  34.2  34174  289.82 0854.63
2009/04/23 12:53:42.8     -51   -189     27    196    198 195.2   8.0  34178  289.89 0854.63
2009/04/23 12:53:42.9     -60   -124    -45    138    146 205.9 -18.1  34174  289.80 0854.63
2009/04/23 12:53:43.0      -2   -132    -70    133    150 180.9 -34.2  34174  289.80 0854.63
2009/04/23 12:53:43.1    -185   -248      8    310    311 216.7   1.6  34164  289.64 0854.63
2009/04/23 12:53:43.2    -208   -273    121    344    365 217.4  19.4  34176  289.84 0854.63
2009/04/23 12:53:43.3    -193   -241     80    310    321 218.7  14.5  34176  289.83 0854.63
2009/04/23 12:53:43.4    -191   -297     32    354    356 212.8   5.3  34174  289.81 0854.63
2009/04/23 12:53:43.5    -126   -307    -12    332    333 202.3  -2.2  34174  289.81 0854.63
2009/04/23 12:53:43.6    -103   -284    -31    303    305 200.0  -6.0  34174  289.80 0854.63
2009/04/23 12:53:43.7    -131   -291    -15    320    321 204.3  -2.7  34172  289.78 0854.63
2009/04/23 12:53:43.8     -75   -227   -107    240    262 198.3 -29.7  34176  289.83 0854.63
2009/04/23 12:53:43.9     -81   -217    -81    232    246 200.5 -19.4  34174  289.81 0854.63
2009/04/23 12:53:44.0    -126   -234    -89    266    280 208.3 -23.6  34176  289.83 0854.63
2009/04/23 12:53:44.1     -39   -207   -120    211    242 190.7 -36.7  34174  289.81 0854.63
2009/04/23 12:53:44.2     -61   -165   -101    176    202 200.3 -37.1  34174  289.80 0854.62
2009/04/23 12:53:44.3     -87   -183    -76    203    216 205.4 -25.9  34176  289.84 0854.62
2009/04/23 12:53:44.4     -77   -231    -82    244    257 198.5 -23.3  34174  289.81 0854.62
2009/04/23 12:53:44.5    -141   -199    -56    245    252 215.4 -12.9  34172  289.78 0854.62
2009/04/23 12:53:44.6    -139   -204    -64    247    256 214.3 -14.7  34178  289.86 0854.62
2009/04/23 12:53:44.7     -74   -186    -65    201    211 201.9 -23.6  34176  289.85 0854.62
2009/04/23 12:53:44.8     -40   -150    -51    156    165 195.1 -18.3  34174  289.80 0854.62
2009/04/23 12:53:44.9     -28   -119    -13    123    124 193.4  -6.2  34176  289.85 0854.62
2009/04/23 12:53:45.0      17   -124    -72    126    145 172.0 -36.8  34178  289.87 0854.62
2009/04/23 12:53:45.1      43   -162    -23    168    170 165.1  -8.0  34172  289.77 0854.62
2009/04/23 12:53:45.2     128   -166      8    210    211 142.4   2.3  34172  289.79 0854.62
2009/04/23 12:53:45.3      91   -175     80    198    213 152.4  23.0  34178  289.89 0854.62
2009/04/23 12:53:45.4      80   -151     58    171    181 152.1  18.9  34176  289.85 0854.62
2009/04/23 12:53:45.5      60   -124     55    138    148 154.1  23.0  34178  289.87 0854.62
2009/04/23 12:53:45.6      36   -107     70    113    132 161.3  35.5  34176  289.84 0854.62
2009/04/23 12:53:45.7      -8   -102     38    103    109 184.5  20.4  34176  289.85 0854.62
2009/04/23 12:53:45.8      28    -81     35     86     92 160.4  23.0  34178  289.89 0854.62
2009/04/23 12:53:45.9      30   -117     37    121    127 165.3  17.3  34176  289.85 0854.62
2009/04/23 12:53:46.0      29   -108    -38    112    119 164.8 -18.7  34178  289.87 0854.62
2009/04/23 12:53:46.1      -1   -131    -41    132    139 180.8 -17.6  34176  289.85 0854.62
2009/04/23 12:53:46.2     -10   -144    -52    145    155 184.0 -19.7  34176  289.85 0854.63
2009/04/23 12:53:46.3       7   -150    -38    151    156 177.3 -14.3  34176  289.85 0854.63
2009/04/23 12:53:46.4      -8   -126    -42    127    133 184.0 -23.8  34180  289.91 0854.63
2009/04/23 12:53:46.5      18   -103    -13    105    106 169.8  -7.3  34178  289.87 0854.63
2009/04/23 12:53:46.6       3    -94     -6     95     96 177.8  -3.7  34178  289.87 0854.63
2009/04/23 12:53:46.7       0   -115    -10    116    117 179.5  -5.2  34178  289.87 0854.63
2009/04/23 12:53:46.8      -6   -132    -21    133    135 182.7  -9.3  34176  289.85 0854.63
2009/04/23 12:53:46.9     -16   -149    -33    150    154 186.3 -12.4  34176  289.85 0854.63
2009/04/23 12:53:47.0      17   -191    -63    192    202 174.7 -23.6  34176  289.84 0854.63
2009/04/23 12:53:47.1      15   -195    -37    196    200 175.5 -10.9  34174  289.82 0854.63
2009/04/23 12:53:47.2      31   -197    -43    200    205 170.9 -12.2  34176  289.84 0854.63
2009/04/23 12:53:47.3      42   -197     -6    202    203 167.7  -1.8  34176  289.84 0854.63
2009/04/23 12:53:47.4     -23   -174    -83    176    194 187.8 -31.5  34176  289.85 0854.63
2009/04/23 12:53:47.5     -32   -176    -52    179    186 190.5 -20.7  34176  289.84 0854.63
2009/04/23 12:53:47.6     -58   -193    -76    202    215 196.7 -26.1  34178  289.87 0854.63
2009/04/23 12:53:47.7     -30   -165    -50    168    176 190.5 -16.6  34176  289.85 0854.63
2009/04/23 12:53:47.8     -34   -106    -14    112    113 197.8  -7.3  34178  289.89 0854.63
2009/04/23 12:53:47.9     -26   -100    -47    104    114 194.7 -30.6  34178  289.87 0854.63
2009/04/23 12:53:48.0     -80   -115    -47    141    148 214.7 -23.6  34178  289.89 0854.63
2009/04/23 12:53:48.1     -51   -134      5    144    145 200.9   2.3  34178  289.87 0854.63
2009/04/23 12:53:48.2      -7    -98      7     99    100 184.5   4.4  34178  289.87 0854.64
2009/04/23 12:53:48.3      28   -108     44    112    120 165.3  23.0  34178  289.87 0854.64
2009/04/23 12:53:48.4       0   -114     49    115    125 179.5  24.6  34178  289.89 0854.64
2009/04/23 12:53:48.5     -10    -90     21     91     94 186.7  13.2  34178  289.89 0854.64
2009/04/23 12:53:48.6      -1    -73     17     74     77 180.9  13.2  34178  289.89 0854.64
2009/04/23 12:53:48.7      -1    -89     31     90     96 180.9  18.9  34178  289.87 0854.64
2009/04/23 12:53:48.8      -5   -140     68    141    156 182.2  27.3  34176  289.85 0854.64
2009/04/23 12:53:48.9      44   -139     90    147    172 162.2  34.8  34178  289.87 0854.64
2009/04/23 12:53:49.0      49   -136     41    145    151 160.0  15.8  34176  289.84 0854.64
2009/04/23 12:53:49.1      -2   -186     72    187    200 180.9  21.7  34180  289.91 0854.64
2009/04/23 12:53:49.2      36   -179     96    183    206 168.5  29.5  34178  289.89 0854.64
2009/04/23 12:53:49.3      42   -144     61    151    162 163.5  23.0  34176  289.85 0854.64
2009/04/23 12:53:49.4      43   -143     53    150    160 163.0  19.4  34178  289.89 0854.64
2009/04/23 12:53:49.5      68   -169    -23    183    185 158.2  -7.3  34178  289.89 0854.64
2009/04/23 12:53:49.6      86   -162    -25    184    186 152.1  -8.0  34178  289.89 0854.64
2009/04/23 12:53:49.7      55   -175    -37    184    188 162.6 -11.6  34176  289.85 0854.64
2009/04/23 12:53:49.8      -3   -193    -23    194    196 181.0  -6.9  34174  289.82 0854.64
2009/04/23 12:53:49.9      25   -201     -5    203    204 172.9  -1.6  34180  289.91 0854.64
2009/04/23 12:53:50.0      12   -174     14    175    176 175.8   4.9  34176  289.85 0854.64
2009/04/23 12:53:50.1     -13   -189     10    190    191 184.0   3.1  34176  289.85 0854.64
2009/04/23 12:53:50.2     -25   -176     18    178    179 188.2   5.9  34178  289.89 0854.65
2009/04/23 12:53:50.3      17   -169     16    170    171 174.0   5.7  34178  289.89 0854.65
2009/04/23 12:53:50.4      11   -177     -1    178    179 176.4  -0.5  34178  289.87 0854.65
2009/04/23 12:53:50.5      32   -160     -8    164    165 168.4  -2.8  34176  289.85 0854.65
2009/04/23 12:53:50.6      88   -154     -9    178    179 150.1  -3.1  34180  289.91 0854.65
2009/04/23 12:53:50.7      50   -137    -29    146    149 159.9 -11.5  34178  289.89 0854.65
2009/04/23 12:53:50.8      18   -119    -19    121    123 171.1  -9.3  34178  289.87 0854.65
2009/04/23 12:53:50.9       4   -127    -40    128    135 177.8 -17.6  34180  289.91 0854.65
2009/04/23 12:53:51.0       3   -117    -56    118    130 178.2 -31.6  34180  289.91 0854.65
2009/04/23 12:53:51.1       0   -114    -56    115    127 180.0 -31.7  34178  289.89 0854.65
2009/04/23 12:53:51.2      18   -124    -46    126    134 171.5 -24.8  34180  289.91 0854.65
2009/04/23 12:53:51.3      32   -126    -50    131    140 165.7 -25.9  34180  289.92 0854.65
2009/04/23 12:53:51.4      40   -133    -50    140    148 163.1 -24.8  34178  289.89 0854.65
2009/04/23 12:53:51.5      52   -170   -134    179    223 162.8 -44.8  34178  289.89 0854.65
2009/04/23 12:53:51.6      98   -109    -50    147    155 138.1 -23.3  34168  289.72 0854.65
2009/04/23 12:53:51.7     -97   -127   -120    160    200 217.4 -45.1  34178  289.89 0854.65
2009/04/23 12:53:51.8    -111   -207    -84    236    250 208.3 -24.4  34178  289.88 0854.65
2009/04/23 12:53:51.9     -45   -211    -66    216    225 192.3 -22.1  34178  289.87 0854.65
2009/04/23 12:53:52.0     -72   -170    -83    185    202 202.9 -30.1  34180  289.92 0854.65
2009/04/23 12:53:52.1    -111   -104    -74    153    169 226.9 -31.8  34176  289.85 0854.65
2009/04/23 12:53:52.2    -151    -65    -45    165    172 246.7 -15.5  34176  289.84 0854.67
2009/04/23 12:53:52.3    -196    -94    -25    218    220 244.2  -6.7  34178  289.89 0854.67
2009/04/23 12:53:52.4    -213   -181    -50    280    285 229.6 -10.3  34180  289.92 0854.67
2009/04/23 12:53:52.5    -152   -123   -105    196    222 231.1 -35.2  34180  289.92 0854.67
2009/04/23 12:53:52.6    -150    -83    -71    172    186 241.1 -28.0  34184  289.97 0854.67
2009/04/23 12:53:52.7    -187   -124    -45    225    230 236.5 -11.3  34182  289.96 0854.67
2009/04/23 12:53:52.8    -230   -104    -50    253    259 245.6 -11.3  34178  289.88 0854.67
2009/04/23 12:53:52.9    -127    -60    -28    141    144 244.6 -11.3  34176  289.85 0854.67
2009/04/23 12:53:53.0    -137      0     59    138    150 270.0  24.6  34178  289.89 0854.67
2009/04/23 12:53:53.1    -156    -11     54    157    167 265.7  18.9  34178  289.89 0854.67
2009/04/23 12:53:53.2    -177     -4      9    178    179 268.5   2.9  34184  289.99 0854.67
2009/04/23 12:53:53.3    -127      0     20    128    130 270.0   8.9  34186  290.02 0854.67
2009/04/23 12:53:53.4    -124     12     -2    125    126 275.7  -1.3  34184  289.99 0854.67
2009/04/23 12:53:53.5    -100      0     18    101    103 269.6  10.1  34186  290.01 0854.67
2009/04/23 12:53:53.6     -75     70     22    103    106 313.1  12.2  34182  289.96 0854.67
2009/04/23 12:53:53.7     -33     63     -1     72     73 331.9  -1.3  34186  290.01 0854.67
2009/04/23 12:53:53.8      -9     79     30     80     85 352.9  21.5  34184  289.97 0854.67
2009/04/23 12:53:53.9      -3     69     68     70     97 357.3  50.5  34186  290.01 0854.67
2009/04/23 12:53:54.0      -4     59     50     60     78 355.6  44.8  34184  289.97 0854.67
2009/04/23 12:53:54.1     -21     42     46     48     66 332.8  50.0  34186  290.01 0854.67
2009/04/23 12:53:54.2      -6     -2     40      7     40 251.8  90.0  34188  290.04 0854.67
2009/04/23 12:53:54.3     -51    -32     41     61     73 237.6  36.5  34190  290.08 0854.67
2009/04/23 12:53:54.4     -31    -44     57     55     79 215.2  50.7  34188  290.04 0854.67
2009/04/23 12:53:54.5     -54    -71     36     90     96 217.0  22.5  34182  289.94 0854.67
2009/04/23 12:53:54.6     -41    -86     18     96     98 205.5  10.6  34180  289.92 0854.67
2009/04/23 12:53:54.7     -15   -105    -21    107    110 188.5 -11.5  34180  289.92 0854.67
2009/04/23 12:53:54.8      -8   -119    -42    120    128 184.0 -19.6  34180  289.91 0854.67
2009/04/23 12:53:54.9      -1   -121     -6    122    123 180.9  -3.1  34182  289.94 0854.67
2009/04/23 12:53:55.0     -20   -150    -59    152    163 187.6 -26.4  34180  289.92 0854.67
2009/04/23 12:53:55.1     -45   -135    -45    143    151 198.5 -17.6  34176  289.85 0854.67
2009/04/23 12:53:55.2     -12   -198     46    199    205 183.6  13.2  34180  289.91 0854.66
2009/04/23 12:53:55.3     -25   -195     31    197    200 187.3   9.0  34178  289.89 0854.66
2009/04/23 12:53:55.4     -13   -193     58    194    203 184.0  16.8  34180  289.91 0854.66
2009/04/23 12:53:55.5     -35   -208     53    211    218 189.6  14.3  34180  289.91 0854.66
2009/04/23 12:53:55.6     -34   -245    108    248    270 188.1  25.1  34180  289.90 0854.66
2009/04/23 12:53:55.7     -17   -287    114    288    309 183.5  23.0  34176  289.85 0854.66
2009/04/23 12:53:55.8     -36   -285     98    288    305 187.3  18.9  34178  289.86 0854.66
2009/04/23 12:53:55.9    -130   -283    125    312    336 204.7  23.0  34178  289.88 0854.66
2009/04/23 12:53:56.0    -154   -192     94    247    264 218.7  21.7  34182  289.93 0854.66
2009/04/23 12:53:56.1    -115   -139    141    181    229 219.6  42.0  34178  289.89 0854.66
2009/04/23 12:53:56.2     -84      5    122     85    148 273.9  62.1  34182  289.94 0854.66
2009/04/23 12:53:56.3      52     -8    129     53    139  98.8  77.0  34180  289.91 0854.66
2009/04/23 12:53:56.4     -18   -205    182    206    274 185.1  45.9  34184  289.97 0854.66
2009/04/23 12:53:56.5     -33   -171    143    175    225 191.1  43.7  34180  289.92 0854.66
2009/04/23 12:53:56.6     -66   -164     68    178    190 202.1  22.0  34180  289.91 0854.66
2009/04/23 12:53:56.7     -57   -182     37    191    195 197.6  11.1  34182  289.94 0854.66
2009/04/23 12:53:56.8     -97   -206      6    228    229 205.3   1.6  34182  289.94 0854.66
2009/04/23 12:53:56.9    -130   -285     17    314    315 204.5   3.2  34182  289.93 0854.66
2009/04/23 12:53:57.0    -123   -214     41    248    252 209.9   9.5  34182  289.95 0854.66
2009/04/23 12:53:57.1     -25   -184     -7    186    187 187.8  -2.2  34178  289.89 0854.66
2009/04/23 12:53:57.2     -62   -153    -47    166    173 202.1 -16.0  34180  289.92 0854.64
2009/04/23 12:53:57.3     -20   -121    -24    123    126 189.8 -11.3  34182  289.96 0854.64
2009/04/23 12:53:57.4      -8   -107    -51    108    119 184.5 -31.6  34182  289.96 0854.64
2009/04/23 12:53:57.5       7    -41    -32     42     52 169.3 -47.1  34182  289.96 0854.64
2009/04/23 12:53:57.6      25    -25    -28     36     45 135.0 -46.1  34182  289.96 0854.64
2009/04/23 12:53:57.7     -26    -52     10     59     60 206.3  10.1  34180  289.91 0854.64
2009/04/23 12:53:57.8      -1    -52     14     53     55 181.8  15.3  34182  289.94 0854.64
2009/04/23 12:53:57.9      19    -57     32     61     68 161.3  29.3  34182  289.94 0854.64
2009/04/23 12:53:58.0       5    -72     76     73    105 175.6  50.7  34182  289.96 0854.64
2009/04/23 12:53:58.1       1    -35     83     36     90 177.3  75.0  34184  289.97 0854.64
2009/04/23 12:53:58.2      14    -41    115     44    123 160.8  78.6  34186  290.01 0854.64
2009/04/23 12:53:58.3     -20    -20    113     29    116 225.0  84.9  34184  289.99 0854.64
2009/04/23 12:53:58.4      -2   -156    171    157    232 181.0  52.2  34182  289.96 0854.64
2009/04/23 12:53:58.5     -38   -234    242    238    339 189.3  50.4  34182  289.93 0854.64
2009/04/23 12:53:58.6     -99   -292    190    309    362 198.7  34.6  34178  289.89 0854.64
2009/04/23 12:53:58.7    -196   -364    150    414    441 208.3  19.9  34180  289.92 0854.64
2009/04/23 12:53:58.8    -266   -352    191    442    481 217.1  24.9  34178  289.88 0854.64
2009/04/23 12:53:58.9    -195   -235     91    306    320 219.7  16.5  34178  289.88 0854.64
2009/04/23 12:53:59.0    -255   -185    110    316    334 234.0  20.0  34178  289.86 0854.64
2009/04/23 12:53:59.1    -240   -137     26    277    279 240.2   5.4  34186  290.00 0854.64
2009/04/23 12:53:59.2    -171    -96      1    197    198 240.7   0.5  34180  289.91 0854.63
2009/04/23 12:53:59.3    -130    -19     72    132    150 261.6  31.3  34186  290.02 0854.63
2009/04/23 12:53:59.4    -116     73     49    138    146 302.4  20.0  34182  289.96 0854.63
2009/04/23 12:53:59.5     -63    233      3    242    243 344.9   0.8  34180  289.92 0854.63
2009/04/23 12:53:59.6      34    207    106    210    235   9.3  28.7  34176  289.84 0854.63
2009/04/23 12:53:59.7      43    150    123    157    199  16.0  42.0  34196  290.19 0854.63
2009/04/23 12:53:59.8      51    130     97    140    170  21.4  38.0  34196  290.19 0854.63
2009/04/23 12:53:59.9      32     54    110     63    126  30.7  67.7  34188  290.06 0854.63
2009/04/23 12:54:00.0      58     23     91     63    110  68.3  62.1  34192  290.11 0854.63
2009/04/23 12:54:00.1      72     10    118     73    138  82.0  65.1  34186  290.02 0854.63
2009/04/23 12:54:00.2       1     31    107     32    111   2.7  82.8  34192  290.11 0854.63
2009/04/23 12:54:00.3     -16     86    158     88    180 349.3  68.8  34188  290.06 0854.63
2009/04/23 12:54:00.4     -37     -2    115     38    121 265.6  80.7  34192  290.11 0854.63
2009/04/23 12:54:00.5     -22     58    107     63    124 339.1  66.8  34192  290.13 0854.63
2009/04/23 12:54:00.6     -93      9     58     94    110 276.1  35.5  34190  290.08 0854.63
2009/04/23 12:54:00.7    -190      4    -60    191    201 271.3 -17.6  34164  289.65 0854.63
2009/04/23 12:54:00.8    -244     76    -71    256    266 287.3 -15.5  34160  289.58 0854.63
2009/04/23 12:54:00.9    -227     81    -31    242    244 289.7  -7.3  34168  289.71 0854.63
2009/04/23 12:54:01.0    -219     64    -82    229    244 286.4 -19.7  34158  289.53 0854.63
2009/04/23 12:54:01.1    -264     84   -148    278    314 287.7 -34.7  34162  289.61 0854.63
2009/04/23 12:54:01.2    -255     60   -206    262    333 283.3 -46.6  34162  289.61 0854.63
2009/04/23 12:54:01.3    -429    -12   -154    430    456 268.3 -25.0  34168  289.70 0854.63
2009/04/23 12:54:01.4    -362    -64    -96    368    381 259.9 -14.6  34174  289.81 0854.63
2009/04/23 12:54:01.5    -358    -42    -89    361    372 263.2 -13.9  34184  289.99 0854.63
2009/04/23 12:54:01.6    -312    -81    -89    323    336 255.4 -15.5  34180  289.91 0854.63
2009/04/23 12:54:01.7    -305   -168    -24    349    350 241.1  -4.0  34184  289.99 0854.63
2009/04/23 12:54:01.8    -321   -274     21    423    424 229.5   2.9  34184  289.99 0854.63
2009/04/23 12:54:01.9    -247   -277     19    372    373 221.8   3.0  34184  289.98 0854.63
2009/04/23 12:54:02.0    -208   -297     18    363    364 215.1   2.9  34184  289.98 0854.63
2009/04/23 12:54:02.1    -233   -279    -57    364    369 219.9  -9.0  34190  290.08 0854.63
2009/04/23 12:54:02.2    -207   -262    -96    335    349 218.3 -16.0  34182  289.94 0854.63
2009/04/23 12:54:02.3    -280   -219   -110    356    373 231.9 -17.3  34184  289.99 0854.63
2009/04/23 12:54:02.4    -305   -363   -112    475    489 220.0 -13.3  34182  289.95 0854.63
2009/04/23 12:54:02.5    -240   -322   -174    402    438 216.8 -29.5  34180  289.92 0854.63
2009/04/23 12:54:02.6    -320   -300   -103    439    452 226.9 -13.3  34184  289.97 0854.63
2009/04/23 12:54:02.7    -293   -349    -41    456    458 220.0  -5.2  34184  289.99 0854.63
2009/04/23 12:54:02.8    -282   -216   -104    356    370 232.5 -21.2  34188  290.04 0854.63
2009/04/23 12:54:02.9    -261   -299   -125    398    417 221.1 -22.5  34184  289.97 0854.63
2009/04/23 12:54:03.0    -162   -366    -62    401    406 203.9  -8.9  34186  290.02 0854.63
2009/04/23 12:54:03.1     -48   -373    -28    377    378 187.4  -4.4  34188  290.03 0854.63
2009/04/23 12:54:03.2      -8   -333    -51    334    338 181.5  -8.8  34184  289.99 0854.63
2009/04/23 12:54:03.3    -115   -378     -1    396    397 196.9  -0.3  34186  290.01 0854.63
2009/04/23 12:54:03.4     -34   -315    -45    317    321 186.2  -8.1  34190  290.07 0854.63
2009/04/23 12:54:03.5     -20   -270    -87    271    285 184.4 -17.9  34188  290.03 0854.63
2009/04/23 12:54:03.6    -117   -268      5    293    294 203.7   1.0  34190  290.09 0854.63
2009/04/23 12:54:03.7     -53   -245    -78    251    262 192.3 -22.3  34192  290.12 0854.63
2009/04/23 12:54:03.8     -89   -269   -129    284    311 198.3 -30.6  34190  290.09 0854.63
2009/04/23 12:54:03.9     -19   -236    -56    237    244 184.7 -13.4  34184  289.97 0854.63
2009/04/23 12:54:04.0     126   -390    185    410    449 162.1  26.0  34184  289.97 0854.63
2009/04/23 12:54:04.1     119   -267    131    293    320 155.9  25.7  34184  289.98 0854.63
2009/04/23 12:54:04.2     136   -145    116    199    230 136.8  32.9  34180  289.92 0854.63
2009/04/23 12:54:04.3     122   -121    154    173    231 134.8  46.2  34178  289.87 0854.63
2009/04/23 12:54:04.4     -60   -267    164    274    319 192.7  33.8  34182  289.93 0854.63
2009/04/23 12:54:04.5      31   -220     11    223    224 172.0   2.9  34184  289.97 0854.63
2009/04/23 12:54:04.6     -23   -218     42    220    225 186.3  11.0  34182  289.94 0854.63
2009/04/23 12:54:04.7      48   -169     11    176    177 164.0   3.6  34180  289.92 0854.63
2009/04/23 12:54:04.8     118   -151     86    192    210 141.9  25.9  34176  289.85 0854.63
2009/04/23 12:54:04.9      51   -218    102    224    246 166.7  26.2  34176  289.83 0854.63
2009/04/23 12:54:05.0       0   -249    123    250    278 180.2  28.2  34178  289.86 0854.63
2009/04/23 12:54:05.1      44   -219    146    224    267 168.4  36.0  34178  289.88 0854.63
2009/04/23 12:54:05.2      20   -126    156    128    201 170.7  56.4  34184  289.97 0854.63
2009/04/23 12:54:05.3      -3    -46     96     47    106 184.5  72.4  34176  289.84 0854.63
2009/04/23 12:54:05.4     -60     -3    101     61    117 266.5  66.2  34182  289.96 0854.63
2009/04/23 12:54:05.5     -94    -91     57    132    143 226.0  24.6  34182  289.96 0854.63
2009/04/23 12:54:05.6     -90    -94    144    131    194 223.7  53.0  34176  289.84 0854.63
2009/04/23 12:54:05.7     -92   -147    163    174    238 212.3  48.0  34176  289.85 0854.63
2009/04/23 12:54:05.8     -52    -95    189    109    218 208.5  67.5  34178  289.87 0854.63
2009/04/23 12:54:05.9     -42     13    171     45    176 287.7  85.2  34180  289.92 0854.63
2009/04/23 12:54:06.0     -48    -41    153     64    165 229.6  76.3  34176  289.85 0854.63
2009/04/23 12:54:06.1      16     21    144     27    146  37.8  89.6  34178  289.87 0854.63
2009/04/23 12:54:06.2     -12      8     95     15     96 302.5  90.0  34182  289.94 0854.63
2009/04/23 12:54:06.3      -4    104     84    105    134 357.3  43.3  34178  289.87 0854.63
2009/04/23 12:54:06.4      35     56    125     67    141  32.5  69.3  34180  289.91 0854.63
2009/04/23 12:54:06.5      12     97     98     98    138   7.6  50.1  34178  289.87 0854.63
2009/04/23 12:54:06.6      21    119     74    121    141  10.2  34.4  34176  289.85 0854.63
2009/04/23 12:54:06.7      28     94     27     99    103  16.9  15.3  34174  289.80 0854.63
2009/04/23 12:54:06.8     -32    169     34    173    177 349.3  11.1  34174  289.80 0854.63
2009/04/23 12:54:06.9     -84      7    124     85    150 274.8  62.6  34182  289.94 0854.63
2009/04/23 12:54:07.0     -90    -23    103     93    138 255.4  52.7  34176  289.84 0854.63
2009/04/23 12:54:07.1    -121      8     58    122    135 273.9  27.2  34172  289.77 0854.63
2009/04/23 12:54:07.2     -54     69     76     88    116 322.2  45.4  34166  289.69 0854.63
2009/04/23 12:54:07.3     -85     32     78     91    119 290.8  45.4  34172  289.77 0854.63
2009/04/23 12:54:07.4     -91     75     60    119    133 309.6  28.2  34172  289.77 0854.63
2009/04/23 12:54:07.5     -93    135    117    165    202 325.3  38.8  34172  289.77 0854.63
2009/04/23 12:54:07.6     192     57    217    201    295  73.4  52.2  34176  289.83 0854.63
2009/04/23 12:54:07.7     215     58    121    223    253  74.7  31.3  34168  289.71 0854.63
2009/04/23 12:54:07.8     117    280    172    304    349  22.7  32.1  34166  289.67 0854.63
2009/04/23 12:54:07.9      52    254     82    260    273  11.6  17.7  34180  289.92 0854.63
2009/04/23 12:54:08.1     -77    164     39    182    187 334.8  12.2  34174  289.80 0854.63
2009/04/23 12:54:08.2     -67    150     84    165    185 335.7  29.1  34172  289.77 0854.63
2009/04/23 12:54:08.3     -70    212     79    224    237 341.5  20.2  34178  289.86 0854.63
2009/04/23 12:54:08.4     -19    234     88    235    250 355.1  21.0  34182  289.95 0854.63
2009/04/23 12:54:08.5     -32    234    143    237    276 352.0  34.0  34188  290.03 0854.63
2009/04/23 12:54:08.6     -17    127    140    129    190 352.4  52.5  34190  290.08 0854.63
2009/04/23 12:54:08.7     -71    111    194    132    234 327.4  62.6  34188  290.04 0854.63
2009/04/23 12:54:08.8     -96    134    136    165    213 324.4  43.7  34188  290.06 0854.63
2009/04/23 12:54:08.9     -68     83    109    108    153 320.4  50.1  34188  290.04 0854.63
2009/04/23 12:54:09.0    -153     21     44    155    162 277.9  16.0  34184  289.97 0854.63
2009/04/23 12:54:09.1    -158     -8     53    159    168 267.0  18.4  34182  289.96 0854.63
2009/04/23 12:54:09.2    -102   -147     98    180    204 214.7  31.3  34188  290.06 0854.63
2009/04/23 12:54:09.3     -14   -172     30    173    176 184.9  10.1  34186  290.01 0854.63
2009/04/23 12:54:09.4      49   -118     25    128    131 157.3  11.1  34184  289.97 0854.63
2009/04/23 12:54:09.5     148   -122     44    193    198 129.5  12.9  34178  289.89 0854.63
2009/04/23 12:54:09.6     221   -122    164    253    301 118.9  35.6  34168  289.71 0854.63
2009/04/23 12:54:09.7      61   -139     90    152    176 156.3  33.1  34170  289.75 0854.63
2009/04/23 12:54:09.8      72   -125    190    145    239 150.1  59.0  34172  289.79 0854.63
2009/04/23 12:54:09.9     -21   -160    190    162    249 187.8  55.4  34176  289.84 0854.63
2009/04/23 12:54:10.0     -38   -191    148    195    244 191.5  41.2  34176  289.84 0854.63
2009/04/23 12:54:10.1      31   -201    146    204    250 171.1  39.1  34176  289.83 0854.63
2009/04/23 12:54:10.2      42   -114    117    122    169 159.5  49.0  34178  289.87 0854.63
2009/04/23 12:54:10.3       5    -68     18     69     72 175.6  15.2  34174  289.82 0854.63
2009/04/23 12:54:10.4      68    -22      3     72     73 108.6   2.9  34176  289.85 0854.63
2009/04/23 12:54:10.5      41    -33    -27     53     59 128.6 -33.7  34176  289.85 0854.63
2009/04/23 12:54:10.6     -28    -85      9     90     91 198.5   5.9  34172  289.77 0854.63
2009/04/23 12:54:10.7     -14    -95     -3     97     98 188.9  -2.2  34172  289.77 0854.63
2009/04/23 12:54:10.8     -36   -103    -13    110    111 199.6  -7.2  34172  289.77 0854.63
2009/04/23 12:54:10.9    -113    -53    -40    125    131 244.8 -23.3  34176  289.84 0854.63
2009/04/23 12:54:11.0    -108    -58    -38    123    128 241.6 -21.8  34176  289.84 0854.63
2009/04/23 12:54:11.1    -122    -67    -33    140    144 241.2 -13.3  34178  289.87 0854.63
2009/04/23 12:54:11.2    -156    -51     16    165    166 251.8   5.7  34176  289.85 0854.63
2009/04/23 12:54:11.3    -161   -116      1    199    200 234.3   0.5  34168  289.72 0854.64
2009/04/23 12:54:11.4    -118   -188     52    223    230 212.1  13.2  34168  289.70 0854.64
2009/04/23 12:54:11.5    -147   -243    110    285    305 211.2  22.1  34168  289.71 0854.64
2009/04/23 12:54:11.6    -123   -275     78    302    312 204.1  14.5  34170  289.75 0854.64
2009/04/23 12:54:11.7    -150   -224     25    270    272 213.8   5.4  34170  289.73 0854.64
2009/04/23 12:54:11.8    -139   -219      8    260    261 212.5   1.8  34172  289.76 0854.64
2009/04/23 12:54:11.9    -195   -173    -11    262    263 228.4  -2.6  34176  289.85 0854.64
2009/04/23 12:54:12.0    -223    -77    -72    236    247 250.9 -17.0  34174  289.81 0854.64
2009/04/23 12:54:12.1    -168   -129     18    212    213 232.5   5.0  34174  289.80 0854.64
2009/04/23 12:54:12.2    -124   -217     39    251    255 209.8   8.9  34168  289.70 0854.64
2009/04/23 12:54:12.3    -121   -277     88    303    316 203.7  16.3  34170  289.75 0854.64
2009/04/23 12:54:12.4    -120   -323     60    345    351 200.5   9.9  34168  289.72 0854.64
2009/04/23 12:54:12.5    -205   -194     -5    283    284 226.7  -1.2  34176  289.85 0854.64
2009/04/23 12:54:12.6    -171   -188    -42    255    259 222.3  -9.3  34172  289.78 0854.64
2009/04/23 12:54:12.7    -109   -217     20    243    244 206.7   4.9  34170  289.75 0854.64
2009/04/23 12:54:12.8    -217   -152     17    265    266 235.0   3.8  34172  289.76 0854.64
2009/04/23 12:54:12.9    -111   -154     23    191    193 215.8   6.9  34172  289.79 0854.64
2009/04/23 12:54:13.0     -95   -142     24    172    174 213.8   8.0  34172  289.79 0854.64
2009/04/23 12:54:13.1     -53   -132     -9    143    144 201.8  -3.7  34168  289.72 0854.64
2009/04/23 12:54:13.2     -35   -148     21    153    155 193.3   8.0  34170  289.74 0854.64
2009/04/23 12:54:13.3      16   -234     55    235    242 176.0  13.2  34170  289.75 0854.65
2009/04/23 12:54:13.4      28   -190     41    193    198 171.5  12.2  34168  289.72 0854.65
2009/04/23 12:54:13.5     -16   -172    108    173    203 185.3  35.2  34168  289.72 0854.65
2009/04/23 12:54:13.6     -53   -189     77    197    211 195.8  22.5  34170  289.75 0854.65
2009/04/23 12:54:13.7     -74   -148     32    166    170 206.7  11.1  34170  289.75 0854.65
2009/04/23 12:54:13.8     -42   -148     91    154    178 196.0  33.1  34172  289.79 0854.65
2009/04/23 12:54:13.9     -59   -125    106    139    174 205.3  41.2  34174  289.80 0854.65
2009/04/23 12:54:14.0     -17   -121    135    123    182 188.0  52.7  34172  289.77 0854.65
2009/04/23 12:54:14.1      -1    -94     95     95    134 180.9  50.1  34170  289.75 0854.65
2009/04/23 12:54:14.2       1    -78     52     79     94 179.1  35.6  34172  289.77 0854.65
2009/04/23 12:54:14.3       7    -50      2     51     52 171.1   2.9  34170  289.75 0854.65
2009/04/23 12:54:14.4     -13    -21     40     26     47 212.5  64.6  34174  289.82 0854.65
2009/04/23 12:54:14.5      -5      0     41      6     41 270.0  90.0  34176  289.84 0854.65
2009/04/23 12:54:14.6      18     10     48     21     52  59.3  75.0  34174  289.80 0854.65
2009/04/23 12:54:14.7      54      7     39     55     67  82.1  39.5  34172  289.79 0854.65
2009/04/23 12:54:14.8      41    -23     34     48     58 119.8  38.6  34174  289.80 0854.65
2009/04/23 12:54:14.9       0    -40     38     41     55 180.0  47.9  34172  289.77 0854.65
2009/04/23 12:54:15.0     -30    -60     12     68     70 206.3  10.1  34170  289.75 0854.65
2009/04/23 12:54:15.1     -37    -59     -8     70     71 212.5  -7.2  34170  289.74 0854.65
2009/04/23 12:54:15.2      11    -35     12     37     40 161.5  18.4  34170  289.74 0854.65
2009/04/23 12:54:15.3      29    -45      5     54     55 147.4   5.9  34170  289.74 0854.65
2009/04/23 12:54:15.4      -5    -66     -2     67     68 184.5  -2.2  34168  289.72 0854.65
2009/04/23 12:54:15.5     -58    -23    -30     63     69 248.3 -31.6  34170  289.75 0854.65
2009/04/23 12:54:15.6     -91    -45    -48    102    112 243.8 -31.5  34170  289.74 0854.65
2009/04/23 12:54:15.7    -103    -16    -79    105    131 260.8 -45.6  34168  289.72 0854.65
2009/04/23 12:54:15.8    -166     15   -101    167    195 275.2 -38.4  34170  289.74 0854.65
2009/04/23 12:54:15.9    -149     74     11    167    168 296.4   3.8  34172  289.79 0854.65
2009/04/23 12:54:16.0    -185     41     12    190    191 282.6   3.8  34170  289.75 0854.65
2009/04/23 12:54:16.1    -158     67     22    172    174 293.1   7.5  34170  289.74 0854.65
2009/04/23 12:54:16.2    -148      2     29    149    152 270.9  11.1  34168  289.72 0854.67
2009/04/23 12:54:16.3    -161    -37     45    166    173 257.0  15.3  34168  289.72 0854.67
2009/04/23 12:54:16.4    -160    -33    -23    164    166 258.3  -8.2  34168  289.72 0854.67
2009/04/23 12:54:16.5    -192      2    -31    193    196 270.8  -9.3  34168  289.70 0854.67
2009/04/23 12:54:16.6    -231     -7     -9    232    233 268.1  -2.2  34164  289.65 0854.67
2009/04/23 12:54:16.7    -128    -51    -57    138    149 248.2 -27.5  34156  289.52 0854.67
2009/04/23 12:54:16.8    -322    -91   -119    335    356 254.1 -19.7  34146  289.35 0854.67
2009/04/23 12:54:16.9    -254   -160    -87    301    313 237.8 -20.9  34156  289.51 0854.67
2009/04/23 12:54:17.0    -206   -135    -69    247    257 236.7 -15.8  34158  289.53 0854.67
2009/04/23 12:54:17.1    -157    -49    -53    165    174 252.7 -18.1  34154  289.48 0854.67
2009/04/23 12:54:17.2    -113   -202    -60    232    240 209.2 -14.7  34156  289.49 0854.67
2009/04/23 12:54:17.3     -24   -272    -46    274    278 185.1  -9.6  34162  289.59 0854.67
2009/04/23 12:54:17.4     -86   -260    -49    274    279 198.3 -10.3  34156  289.49 0854.67
2009/04/23 12:54:17.5    -125   -150     -5    196    197 219.6  -1.6  34162  289.62 0854.67
2009/04/23 12:54:17.6    -114   -138     22    180    182 219.6   7.2  34164  289.65 0854.67
2009/04/23 12:54:17.7    -200   -189    100    276    294 226.7  19.9  34166  289.68 0854.67
2009/04/23 12:54:17.8    -206   -261     81    333    343 218.2  13.7  34164  289.64 0854.67
2009/04/23 12:54:17.9     -69   -272      2    281    282 194.3   0.5  34152  289.42 0854.67
2009/04/23 12:54:18.0     -79   -292    -20    303    304 195.2  -3.9  34150  289.41 0854.67
2009/04/23 12:54:18.1     -96   -272     21    289    290 199.6   4.2  34152  289.42 0854.67
2009/04/23 12:54:18.2    -123   -183     30    221    224 214.1   7.8  34158  289.55 0854.65
2009/04/23 12:54:18.3    -119   -166    112    205    233 215.8  31.3  34158  289.53 0854.65
2009/04/23 12:54:18.4     -95   -255     95    273    290 200.5  19.2  34154  289.46 0854.65
2009/04/23 12:54:18.5       7   -200     89    201    219 177.8  25.3  34152  289.45 0854.65
2009/04/23 12:54:18.6     -22   -233     83    235    250 185.6  19.6  34146  289.32 0854.65
2009/04/23 12:54:18.7     -49   -191     89    198    217 194.5  25.7  34154  289.48 0854.65
2009/04/23 12:54:18.8       8   -185    110    186    216 177.5  33.5  34152  289.45 0854.65
2009/04/23 12:54:18.9     -12   -174    154    175    233 184.2  45.9  34158  289.53 0854.65
2009/04/23 12:54:19.0      31   -223    130    226    260 171.9  32.4  34158  289.53 0854.65
2009/04/23 12:54:19.1      51   -249    116    255    280 168.4  26.2  34158  289.53 0854.65
2009/04/23 12:54:19.2      23   -262    150    264    303 174.9  32.1  34158  289.54 0854.65
2009/04/23 12:54:19.3      12   -284     80    285    297 177.4  15.8  34150  289.41 0854.65
2009/04/23 12:54:19.4     -55   -274      3    280    281 191.3   0.8  34152  289.42 0854.65
2009/04/23 12:54:19.5     -65   -216     78    226    240 196.9  19.2  34154  289.47 0854.65
2009/04/23 12:54:19.6     -62   -262     58    270    277 193.4  12.1  34154  289.46 0854.65
2009/04/23 12:54:19.7     -68   -280     56    289    295 193.8  11.1  34154  289.47 0854.65
2009/04/23 12:54:19.8     -19   -277     44    278    282 184.0   9.0  34156  289.49 0854.65
2009/04/23 12:54:19.9     -35   -213     26    216    218 189.3   7.1  34154  289.48 0854.65
2009/04/23 12:54:20.0     -76   -176     45    192    198 203.4  13.2  34156  289.50 0854.65
2009/04/23 12:54:20.1     -91   -177     82    200    216 207.2  23.4  34158  289.53 0854.65
2009/04/23 12:54:20.2    -117   -176     98    212    233 213.8  27.1  34160  289.57 0854.62
2009/04/23 12:54:20.3    -125   -195     62    232    241 212.7  15.0  34164  289.64 0854.62
2009/04/23 12:54:20.4     -79   -181     69    198    210 203.8  19.2  34176  289.85 0854.62
2009/04/23 12:54:20.5    -118   -231    123    260    287 207.0  27.2  34174  289.81 0854.62
2009/04/23 12:54:20.6     -84   -210    169    227    283 201.9  40.6  34178  289.86 0854.62
2009/04/23 12:54:20.7     -75   -223    120    236    264 198.7  29.1  34174  289.81 0854.62
2009/04/23 12:54:20.8     -17   -247     85    248    263 184.0  18.9  34168  289.70 0854.62
2009/04/23 12:54:20.9     -16   -116    146    118    187 188.1  56.6  34172  289.79 0854.62
2009/04/23 12:54:21.0     -59   -183    221    193    293 198.0  54.3  34170  289.75 0854.62
2009/04/23 12:54:21.1     -60   -225    201    233    307 195.1  45.1  34168  289.71 0854.62
2009/04/23 12:54:21.2       0   -281    138    282    313 180.1  28.0  34160  289.58 0854.62
2009/04/23 12:54:21.3      84   -262     97    276    293 162.1  19.4  34154  289.47 0854.62
2009/04/23 12:54:21.4      43   -250    106    254    275 170.2  24.1  34158  289.54 0854.62
2009/04/23 12:54:21.5      79   -241     96    254    271 161.7  21.7  34158  289.54 0854.62
2009/04/23 12:54:21.6      46   -231    119    236    264 168.5  28.5  34158  289.54 0854.62
2009/04/23 12:54:21.7      48   -200    156    206    258 166.4  40.9  34158  289.54 0854.62
2009/04/23 12:54:21.8      39   -202    168    206    265 168.9  43.7  34162  289.61 0854.62
2009/04/23 12:54:21.9      33   -171    175    175    247 168.9  50.1  34162  289.60 0854.62
2009/04/23 12:54:22.0      42   -117    117    125    171 159.9  48.2  34164  289.63 0854.62
2009/04/23 12:54:22.1     112    -76     69    136    152 124.2  28.7  34164  289.63 0854.62
2009/04/23 12:54:22.2     105    -52     42    118    125 116.2  20.0  34160  289.58 0854.62
2009/04/23 12:54:22.3     140    -66     51    155    164 115.2  18.1  34162  289.60 0854.62
2009/04/23 12:54:22.4     190      9    129    191    230  87.2  37.4  34158  289.55 0854.62
2009/04/23 12:54:22.5     201    -82    154    218    266 112.2  38.6  34162  289.59 0854.62
2009/04/23 12:54:22.6      74   -132    171    152    228 150.6  54.0  34160  289.57 0854.62
2009/04/23 12:54:22.7      66     -4    105     67    124  94.3  64.6  34166  289.67 0854.62
2009/04/23 12:54:22.8      78    -47     99     92    135 121.1  52.2  34164  289.65 0854.62
2009/04/23 12:54:22.9     -61   -115    152    131    200 208.1  54.8  34162  289.62 0854.62
2009/04/23 12:54:23.0     -35    -86    163     94    188 202.3  67.5  34166  289.67 0854.62
2009/04/23 12:54:23.1     -66    -84    126    108    165 218.3  54.8  34164  289.65 0854.62
2009/04/23 12:54:23.2     -51    -92    115    106    156 209.0  52.2  34164  289.65 0854.62
2009/04/23 12:54:23.3     -64    -84     60    106    121 217.4  31.9  34164  289.65 0854.62
2009/04/23 12:54:23.4     -61    -82      4    103    104 217.0   2.3  34164  289.63 0854.62
2009/04/23 12:54:23.5     -46   -103     35    113    119 204.1  17.3  34162  289.62 0854.62
2009/04/23 12:54:23.6     -47   -199     77    205    218 193.3  21.5  34164  289.63 0854.62
2009/04/23 12:54:23.7     -93   -269    160    285    326 199.1  31.9  34168  289.70 0854.62
2009/04/23 12:54:23.8    -140   -296    103    328    344 205.3  17.5  34162  289.60 0854.62
2009/04/23 12:54:23.9     -18   -290    156    291    330 183.6  30.6  34162  289.61 0854.62
2009/04/23 12:54:24.0     -90   -296     89    310    323 196.9  16.0  34164  289.63 0854.62
2009/04/23 12:54:24.1      56   -146    107    157    189 159.1  37.6  34166  289.67 0854.62
2009/04/23 12:54:24.2     -78   -236     58    249    256 198.5  13.2  34164  289.63 0854.62
2009/04/23 12:54:24.3     -29   -152    101    155    185 191.1  36.0  34162  289.60 0854.62
2009/04/23 12:54:24.4    -113   -158    109    195    223 215.6  31.6  34164  289.63 0854.62
2009/04/23 12:54:24.5    -143    -91     29    170    173 237.5   9.9  34160  289.57 0854.62
2009/04/23 12:54:24.6     -46   -165    116    172    207 195.6  37.3  34162  289.62 0854.62
2009/04/23 12:54:24.7     -87   -235    106    251    272 200.3  24.1  34164  289.64 0854.62
2009/04/23 12:54:24.8     -81   -189     40    206    210 203.4  11.1  34164  289.63 0854.62
2009/04/23 12:54:24.9     -51   -151    109    160    193 198.7  37.3  34166  289.67 0854.62
2009/04/23 12:54:25.0     -70    -66     29     97    102 226.4  16.8  34166  289.69 0854.62
2009/04/23 12:54:25.1     -36    -18     38     41     55 242.9  47.9  34168  289.70 0854.62
2009/04/23 12:54:25.2     -49     32     82     59    101 303.3  60.6  34166  289.69 0854.62
2009/04/23 12:54:25.3    -179    -83    147    198    246 245.2  40.4  34162  289.60 0854.62
2009/04/23 12:54:25.4     -77   -100    102    127    162 217.8  43.0  34160  289.57 0854.62
2009/04/23 12:54:25.5     -87   -142    115    167    202 211.6  37.6  34168  289.72 0854.62
2009/04/23 12:54:25.6     -30   -150    150    154    214 191.6  49.4  34168  289.72 0854.62
2009/04/23 12:54:25.7      39    -97    136    105    171 158.2  58.5  34170  289.75 0854.62
2009/04/23 12:54:25.8     -22   -109    145    112    183 191.5  58.7  34174  289.80 0854.62
2009/04/23 12:54:25.9    -220   -142    115    262    286 237.1  25.2  34174  289.81 0854.62
2009/04/23 12:54:26.0    -230    -77     88    243    259 251.4  19.9  34178  289.86 0854.62
2009/04/23 12:54:26.1    -200     52    115    207    236 284.8  31.4  34172  289.79 0854.62
2009/04/23 12:54:26.2    -106     56     77    121    143 298.0  35.5  34196  290.18 0854.60
2009/04/23 12:54:26.3     -43   -227    141    232    271 190.9  34.4  34196  290.19 0854.60
2009/04/23 12:54:26.4     -49   -154    110    162    195 197.8  37.6  34184  289.99 0854.60
2009/04/23 12:54:26.5    -113   -157     16    194    195 215.8   5.0  34170  289.75 0854.60
2009/04/23 12:54:26.6     -41   -131     53    138    147 197.4  22.0  34170  289.75 0854.60
2009/04/23 12:54:26.7      27    -43    105     51    116 147.5  72.8  34184  289.99 0854.60
2009/04/23 12:54:26.8      22    -22     99     32    104 134.9  80.7  34192  290.13 0854.60
2009/04/23 12:54:26.9      66     30     92     73    117  65.6  56.9  34190  290.08 0854.60
2009/04/23 12:54:27.0      52   -120    106    131    168 156.4  43.3  34180  289.92 0854.60
2009/04/23 12:54:27.1      32   -255    189    258    319 172.7  39.9  34164  289.63 0854.60
2009/04/23 12:54:27.2      16   -425     99    426    438 177.8  13.1  34158  289.53 0854.60
2009/04/23 12:54:27.3     269   -429    196    507    543 147.9  22.3  34166  289.67 0854.60
2009/04/23 12:54:27.4     335   -408     69    529    534 140.6   7.5  34168  289.70 0854.60
2009/04/23 12:54:27.5     134   -301    131    330    355 155.9  22.8  34158  289.54 0854.60
2009/04/23 12:54:27.6     -37   -369    124    371    392 185.8  18.5  34168  289.71 0854.60
2009/04/23 12:54:27.7     -90   -347    149    359    388 194.6  23.8  34168  289.71 0854.60
2009/04/23 12:54:27.8     -28   -307    173    309    354 185.3  31.7  34168  289.71 0854.60
2009/04/23 12:54:27.9     -34   -366    160    368    401 185.4  25.1  34166  289.69 0854.60
2009/04/23 12:54:28.0    -160   -368    186    402    442 203.5  26.6  34168  289.70 0854.60
2009/04/23 12:54:28.1    -164   -495    197    522    557 198.4  21.7  34166  289.67 0854.60
2009/04/23 12:54:28.2      22   -507    180    508    539 177.5  19.5  34166  289.68 0854.60
2009/04/23 12:54:28.3      66   -628    223    632    670 173.9  20.2  34162  289.60 0854.60
2009/04/23 12:54:28.4     100   -500    115    510    523 168.7  12.8  34166  289.68 0854.60
2009/04/23 12:54:28.5      27   -433     60    434    439 176.4   7.9  34166  289.66 0854.60
2009/04/23 12:54:28.6      76   -525      2    531    532 171.7   0.2  34170  289.75 0854.60
2009/04/23 12:54:28.7      86   -544    -10    551    552 171.0  -1.1  34168  289.70 0854.60
2009/04/23 12:54:28.8      59   -520      6    524    525 173.5   0.7  34164  289.65 0854.60
2009/04/23 12:54:28.9     -43   -379     89    382    393 186.6  13.2  34168  289.71 0854.60
2009/04/23 12:54:29.0      24   -310     38    312    315 175.5   7.1  34168  289.71 0854.60
2009/04/23 12:54:29.1      95   -395     76    407    414 166.5  10.6  34166  289.68 0854.60
2009/04/23 12:54:29.2     175   -326     86    371    381 151.7  13.1  34170  289.74 0854.60
2009/04/23 12:54:29.3     188   -184    197    264    329 134.4  40.6  34160  289.56 0854.60
2009/04/23 12:54:29.4      91    -91    155    130    202 135.0  55.8  34172  289.77 0854.60
2009/04/23 12:54:29.5     -64   -126    132    142    193 207.2  48.0  34170  289.75 0854.60
2009/04/23 12:54:29.6    -137   -166     72    216    228 219.6  18.4  34166  289.67 0854.60
2009/04/23 12:54:29.7     -32   -197    168    200    261 189.3  44.3  34170  289.73 0854.60
2009/04/23 12:54:29.8    -122   -279     44    305    309 203.7   8.2  34168  289.70 0854.60
2009/04/23 12:54:29.9     -93   -291    -27    306    308 197.8  -5.1  34166  289.66 0854.60
2009/04/23 12:54:30.0    -101   -357    158    372    404 195.8  24.5  34164  289.65 0854.60
2009/04/23 12:54:30.1    -234   -332     67    407    413 215.2   9.4  34156  289.49 0854.60
2009/04/23 12:54:30.2    -105   -389    177    404    441 195.2  25.2  34152  289.44 0854.60
2009/04/23 12:54:30.3    -200   -356    158    409    438 209.4  22.1  34160  289.56 0854.60
2009/04/23 12:54:30.4    -265   -367    145    454    477 215.9  17.8  34160  289.56 0854.60
2009/04/23 12:54:30.5    -260   -468    173    536    564 209.0  17.9  34156  289.51 0854.60
2009/04/23 12:54:30.6    -128   -421    194    441    481 197.0  25.2  34166  289.69 0854.60
2009/04/23 12:54:30.7     -14   -502    211    503    545 181.6  24.1  34164  289.65 0854.60
2009/04/23 12:54:30.8       2   -395    190    396    439 179.7  27.3  34166  289.66 0854.60
2009/04/23 12:54:30.9     -25   -407    115    408    425 183.6  15.8  34164  289.63 0854.60
2009/04/23 12:54:31.0    -130   -439    108    458    471 196.5  13.3  34150  289.39 0854.60
2009/04/23 12:54:31.1    -122   -400    225    419    475 197.0  30.6  34158  289.53 0854.60
2009/04/23 12:54:31.2     -63   -333    262    340    429 190.8  41.5  34160  289.57 0854.60
2009/04/23 12:54:31.3    -108   -295    197    315    371 200.1  35.2  34152  289.45 0854.60
2009/04/23 12:54:31.4    -134   -276    185    307    358 205.9  34.0  34154  289.48 0854.60
2009/04/23 12:54:31.5     -81   -220    115    235    261 200.3  28.0  34158  289.54 0854.60
2009/04/23 12:54:31.6    -114    -37    129    121    176 251.8  52.1  34148  289.38 0854.60
2009/04/23 12:54:31.7    -325    -14    -42    326    329 267.4  -7.5  34152  289.42 0854.60
2009/04/23 12:54:31.9    -211   -211     -1    299    300 225.0  -0.3  34154  289.46 0854.60
2009/04/23 12:54:31.9    -105    -85    -35    136    141 230.9 -14.5  34156  289.50 0854.60
2009/04/23 12:54:32.1     -87    -73    -39    114    121 230.0 -19.1  34156  289.52 0854.60
2009/04/23 12:54:32.1    -104    -55      3    118    119 242.0   1.8  34160  289.57 0854.60
2009/04/23 12:54:32.3    -266    -88     39    281    284 251.6   8.0  34156  289.49 0854.60
2009/04/23 12:54:32.3    -164    -94     63    190    201 240.2  18.4  34158  289.53 0854.60
2009/04/23 12:54:32.5    -138    -34     64    143    156 255.8  25.7  34162  289.60 0854.60
2009/04/23 12:54:32.5    -250    -30     75    252    264 263.0  16.6  34164  289.63 0854.60
2009/04/23 12:54:32.7    -237   -145     44    279    283 238.5   9.0  34166  289.68 0854.60
2009/04/23 12:54:32.7     -91    -58   -119    109    161 237.5 -57.1  34160  289.58 0854.60
2009/04/23 12:54:32.9    -144    -91    -51    171    179 237.8 -16.6  34152  289.45 0854.60
2009/04/23 12:54:32.9    -298   -135     -9    328    329 245.6  -1.7  34154  289.47 0854.60
2009/04/23 12:54:33.1    -270   -117   -102    295    313 246.5 -19.1  34150  289.39 0854.60
2009/04/23 12:54:33.1    -131   -276      5    306    307 205.5   1.0  34162  289.61 0854.60
2009/04/23 12:54:33.3    -132   -199    -28    240    242 213.6  -6.9  34160  289.56 0854.60
2009/04/23 12:54:33.3       9   -206    -79    207    221 177.4 -26.4  34156  289.52 0854.60
2009/04/23 12:54:33.5     -19   -148    -94    150    177 187.6 -39.6  34156  289.52 0854.60
2009/04/23 12:54:33.5      13   -108    -98    109    146 172.9 -51.3  34150  289.40 0854.60
2009/04/23 12:54:33.7     -15   -173    -66    174    186 185.1 -26.4  34150  289.41 0854.60
2009/04/23 12:54:33.7    -211   -191    -45    285    289 227.8  -9.0  34146  289.34 0854.60
2009/04/23 12:54:33.9    -198   -173    -34    264    267 228.9  -7.3  34152  289.42 0854.60
2009/04/23 12:54:33.9    -127   -270    -16    299    300 205.2  -3.2  34152  289.42 0854.60
2009/04/23 12:54:34.1    -144   -174    -81    227    242 219.7 -19.7  34152  289.42 0854.60
2009/04/23 12:54:34.1      78   -165     15    183    184 154.7   4.9  34146  289.35 0854.60
2009/04/23 12:54:34.3     317   -127    156    342    375 111.9  26.3  34152  289.45 0854.59
2009/04/23 12:54:34.3     230     51    191    236    303  77.4  43.5  34146  289.34 0854.59
2009/04/23 12:54:34.5     196     54    237    204    312  74.5  54.9  34158  289.53 0854.59
2009/04/23 12:54:34.5     287     35    248    290    381  82.9  45.0  34162  289.60 0854.59
2009/04/23 12:54:34.7     133      3    222    134    259  88.3  66.2  34170  289.75 0854.59
2009/04/23 12:54:34.7     193    -78    200    209    289 112.2  49.0  34184  289.98 0854.59
2009/04/23 12:54:34.9     195    -77    102    210    233 111.5  27.4  34176  289.84 0854.59
2009/04/23 12:54:34.9      40   -284    156    287    326 171.9  30.8  34146  289.34 0854.59
2009/04/23 12:54:35.1     -24   -337     74    338    347 184.2  12.4  34142  289.26 0854.59
2009/04/23 12:54:35.2     -96   -282     91    299    313 198.9  17.1  34142  289.27 0854.59
2009/04/23 12:54:35.3       8   -278    140    279    312 178.2  28.5  34146  289.34 0854.59
2009/04/23 12:54:35.3     -63   -255     31    263    265 194.0   6.9  34144  289.31 0854.59
2009/04/23 12:54:35.5     -73   -134    -19    153    155 208.5  -7.3  34136  289.18 0854.59
2009/04/23 12:54:35.6    -219   -134   -146    257    295 238.5 -36.5  34134  289.14 0854.59
2009/04/23 12:54:35.7    -180    -72   -190    195    272 248.0 -53.8  34130  289.05 0854.59
2009/04/23 12:54:35.8       2    -73    -95     74    120 178.2 -62.8  34128  289.02 0854.59
2009/04/23 12:54:35.9    -136     44     28    144    147 288.2  11.1  34126  289.01 0854.59
2009/04/23 12:54:36.0    -229    -60     94    237    254 255.2  23.0  34142  289.25 0854.59
2009/04/23 12:54:36.1    -235      0    250    236    343 270.0  52.0  34138  289.20 0854.59
2009/04/23 12:54:36.2    -201   -297     73    359    367 214.2  11.5  34132  289.11 0854.59
2009/04/23 12:54:36.3    -140   -302     48    334    338 204.9   8.2  34142  289.25 0854.59
2009/04/23 12:54:36.4     -45   -200    122    206    239 192.9  33.5  34140  289.24 0854.59
2009/04/23 12:54:36.5      14    -99    156    101    185 172.0  64.6  34138  289.19 0854.59
2009/04/23 12:54:36.6    -188    -60    167    198    259 252.3  44.3  34146  289.34 0854.59
2009/04/23 12:54:36.7    -171    -34    149    175    229 258.5  44.5  34154  289.46 0854.59
2009/04/23 12:54:36.8    -145    -52     89    155    178 250.1  32.4  34156  289.52 0854.59
2009/04/23 12:54:36.9    -166    -43     62    172    182 255.2  20.4  34150  289.40 0854.59
2009/04/23 12:54:37.0     -32   -135    144    139    200 193.4  50.9  34142  289.28 0854.59
2009/04/23 12:54:37.1     -53   -130    118    141    183 202.3  44.1  34130  289.08 0854.59
2009/04/23 12:54:37.2    -125    -96    101    158    187 232.3  35.6  34132  289.11 0854.59
2009/04/23 12:54:37.3    -133      5     36    134    139 272.5  15.3  34142  289.28 0854.58
2009/04/23 12:54:37.4    -183    -30     42    186    191 260.5  12.9  34148  289.38 0854.58
2009/04/23 12:54:37.5    -247   -136     -8    283    284 241.1  -1.8  34136  289.15 0854.58
2009/04/23 12:54:37.6     -70   -203     44    216    221 199.2  11.6  34118  288.86 0854.58
2009/04/23 12:54:37.7    -157   -272     88    315    328 210.0  15.6  34132  289.10 0854.58
2009/04/23 12:54:37.8    -328   -237     62    405    410 234.1   8.8  34138  289.19 0854.58
2009/04/23 12:54:37.9    -326   -236    -15    403    404 234.0  -2.2  34128  289.04 0854.58
2009/04/23 12:54:38.0    -245   -165    128    296    322 236.0  24.9  34130  289.05 0854.58
2009/04/23 12:54:38.1    -141   -154    103    209    233 222.5  28.0  34134  289.13 0854.58
2009/04/23 12:54:38.2    -110   -104     18    152    154 226.8   6.9  34136  289.18 0854.58
2009/04/23 12:54:38.3     -44    -67     27     81     86 213.4  18.9  34138  289.21 0854.58
2009/04/23 12:54:38.4     -26    -11     43     29     51 246.5  62.6  34142  289.26 0854.58
2009/04/23 12:54:38.5     -56     -4     53     57     77 265.7  48.0  34140  289.23 0854.58
2009/04/23 12:54:38.6      10    -54     68     55     87 169.3  56.9  34138  289.21 0854.58
2009/04/23 12:54:38.7      -3      0     82      4     82 270.0  90.0  34138  289.19 0854.58
2009/04/23 12:54:38.8    -114     44    138    123    184 291.3  53.7  34138  289.19 0854.58
2009/04/23 12:54:38.9    -316     79    101    326    342 284.2  17.3  34134  289.13 0854.58
2009/04/23 12:54:39.0    -305    100     30    322    324 288.2   5.4  34144  289.29 0854.58
2009/04/23 12:54:39.1    -200    127    137    238    274 302.4  32.4  34136  289.17 0854.58
2009/04/23 12:54:39.2    -131    125    107    182    211 313.8  33.4  34138  289.19 0854.58
2009/04/23 12:54:39.3     -71     19    -35     74     81 285.1 -31.0  34136  289.18 0854.58
2009/04/23 12:54:39.4     254    -73    211    265    338 106.0  42.7  34132  289.10 0854.52
2009/04/23 12:54:39.5     176    -48    245    183    305 105.5  59.6  34146  289.32 0854.52
2009/04/23 12:54:39.6      79    -61    170    101    197 127.8  66.8  34142  289.26 0854.52
2009/04/23 12:54:39.7     -73    -46    131     87    157 237.6  63.4  34140  289.24 0854.52
2009/04/23 12:54:39.8      26    -36     57     45     72 143.9  56.4  34144  289.31 0854.52
2009/04/23 12:54:39.9     -75   -193     11    208    209 201.2   3.1  34136  289.18 0854.52
2009/04/23 12:54:40.0      18   -158    -55    160    170 173.5 -19.1  34138  289.19 0854.52
2009/04/23 12:54:40.1      66   -122    -18    139    141 151.5  -7.7  34140  289.23 0854.52
2009/04/23 12:54:40.2      64    -84    -17    106    108 142.6  -9.3  34138  289.19 0854.52
2009/04/23 12:54:40.3     104    -27    -36    108    115 104.6 -18.7  34138  289.21 0854.52
2009/04/23 12:54:40.4     138      0     -5    139    140  90.0  -2.2  34140  289.23 0854.52
2009/04/23 12:54:40.5     122     94     31    155    159  52.3  11.4  34138  289.21 0854.52
2009/04/23 12:54:40.6     206     97    116    228    255  64.7  29.1  34136  289.17 0854.52
2009/04/23 12:54:40.7     132    -34    183    137    228 104.6  59.4  34132  289.11 0854.52
2009/04/23 12:54:40.8      12     36    134     39    139  18.7  83.3  34144  289.31 0854.52
2009/04/23 12:54:40.9      78     66    100    103    143  50.0  49.4  34138  289.19 0854.52
2009/04/23 12:54:41.0      93     99     76    137    156  43.3  31.6  34136  289.18 0854.52
2009/04/23 12:54:41.1      -7   -118    143    119    186 183.6  56.3  34144  289.31 0854.52
2009/04/23 12:54:41.2    -122   -159     84    201    217 217.6  23.8  34126  288.99 0854.52
2009/04/23 12:54:41.3     -64   -194     52    205    212 198.3  14.3  34136  289.18 0854.52
2009/04/23 12:54:41.4     -45   -242     40    247    251 190.7   9.3  34132  289.10 0854.50
2009/04/23 12:54:41.5     157   -273     99    315    331 150.1  17.5  34132  289.09 0854.50
2009/04/23 12:54:41.6     171   -145    230    225    321 130.2  50.7  34132  289.10 0854.50
2009/04/23 12:54:41.7     106   -226     18    250    251 154.8   4.2  34134  289.14 0854.50
2009/04/23 12:54:41.8      69   -325     49    333    337 168.0   8.5  34130  289.08 0854.50
2009/04/23 12:54:41.9     -79   -417     79    425    433 190.7  10.6  34126  289.00 0854.50
2009/04/23 12:54:42.0    -136   -425      6    447    448 197.8   0.8  34132  289.09 0854.50
2009/04/23 12:54:42.1      39   -452    -82    454    462 175.0 -10.3  34132  289.09 0854.50
2009/04/23 12:54:42.2      94   -246     14    264    265 159.1   3.1  34128  289.03 0854.50
2009/04/23 12:54:42.3      29   -248      5    250    251 173.1   1.2  34130  289.05 0854.50
2009/04/23 12:54:42.4      99   -301     64    318    325 161.7  11.4  34134  289.12 0854.50
2009/04/23 12:54:42.5     257   -259     44    366    369 135.2   6.9  34132  289.10 0854.50
2009/04/23 12:54:42.6     238   -330    -23    408    409 144.2  -3.3  34132  289.09 0854.50
2009/04/23 12:54:42.7     245   -271    -46    366    369 138.0  -7.2  34130  289.08 0854.50
2009/04/23 12:54:42.8     237   -267   -117    358    377 138.5 -18.2  34136  289.15 0854.50
2009/04/23 12:54:42.9     286   -357   -156    458    483 141.3 -23.8  34136  289.15 0854.50
2009/04/23 12:54:43.0      71   -424   -123    431    448 170.4 -20.7  34130  289.07 0854.50
2009/04/23 12:54:43.1      82   -477     99    485    496 170.2  11.6  34130  289.08 0854.50
2009/04/23 12:54:43.2      -3   -503     44    504    507 180.4   5.1  34134  289.13 0854.50
2009/04/23 12:54:43.3     -98   -363    -75    377    385 195.2 -11.3  34136  289.15 0854.51
2009/04/23 12:54:43.4      30   -302   -107    304    323 174.2 -19.4  34136  289.15 0854.51
2009/04/23 12:54:43.5      74   -309    -17    318    319 166.4  -3.1  34136  289.15 0854.51
2009/04/23 12:54:43.6      31   -412    -98    414    426 175.7 -13.4  34132  289.09 0854.51
2009/04/23 12:54:43.7     175   -454   -134    487    505 158.8 -20.1  34136  289.15 0854.51
2009/04/23 12:54:43.8      88   -365   -133    376    399 166.3 -19.5  34126  288.99 0854.51
2009/04/23 12:54:43.9     154   -396   -135    425    447 158.7 -17.7  34136  289.17 0854.51
2009/04/23 12:54:44.0     160   -372   -112    406    422 156.7 -15.5  34134  289.12 0854.51
2009/04/23 12:54:44.1     163   -361   -139    397    421 155.7 -19.3  34138  289.19 0854.51
2009/04/23 12:54:44.2     179   -428   -138    465    486 157.3 -16.5  34138  289.20 0854.51
2009/04/23 12:54:44.3     183   -492   -115    526    539 159.5 -12.4  34134  289.14 0854.51
2009/04/23 12:54:44.4      49   -502   -156    505    529 174.4 -17.2  34136  289.18 0854.51
2009/04/23 12:54:44.5      57   -478   -165    482    510 173.2 -19.0  34134  289.12 0854.51
2009/04/23 12:54:44.6      -5   -430   -150    431    456 180.7 -24.3  34140  289.22 0854.51
2009/04/23 12:54:44.7      15   -490   -144    491    511 178.2 -21.2  34134  289.13 0854.51
2009/04/23 12:54:44.8      28   -470   -168    471    500 176.5 -24.8  34134  289.12 0854.51
2009/04/23 12:54:44.9      50   -422   -201    426    471 173.1 -31.5  34128  289.02 0854.51
2009/04/23 12:54:45.0      53   -245   -166    251    300 167.6 -40.9  34136  289.17 0854.51
2009/04/23 12:54:45.1     122   -280   -109    306    326 156.4 -19.7  34134  289.12 0854.51
2009/04/23 12:54:45.2      80   -232   -144    246    285 160.9 -37.8  34138  289.19 0854.51
2009/04/23 12:54:45.3      66   -198   -112    209    237 161.5 -34.7  34132  289.11 0854.52
2009/04/23 12:54:45.4     -47   -219    -84    225    240 192.3 -25.7  34140  289.22 0854.52
2009/04/23 12:54:45.5      29   -290    -96    292    308 174.2 -18.3  34140  289.22 0854.52
2009/04/23 12:54:45.6      -7   -183    -82    184    201 182.2 -29.7  34138  289.21 0854.52
2009/04/23 12:54:45.7    -127   -128     -3    181    182 224.9  -1.1  34136  289.18 0854.52
2009/04/23 12:54:45.8    -165    -79     15    184    185 244.2   4.9  34136  289.18 0854.52
2009/04/23 12:54:45.9    -110   -183     91    214    232 211.2  24.3  34140  289.23 0854.52
2009/04/23 12:54:46.0     -94   -322     52    336    341 196.3   8.9  34140  289.23 0854.52
2009/04/23 12:54:46.1       6   -355    180    356    398 179.0  28.9  34136  289.15 0854.52
2009/04/23 12:54:46.2      48   -382    148    386    413 172.8  22.1  34138  289.19 0854.52
2009/04/23 12:54:46.3     125   -340    119    363    383 159.8  18.2  34136  289.15 0854.52
2009/04/23 12:54:46.4     225   -261     97    345    359 139.2  15.8  34138  289.21 0854.52
2009/04/23 12:54:46.5     269   -207     77    340    349 127.6  12.8  34136  289.18 0854.52
2009/04/23 12:54:46.6     243   -264     82    359    369 137.4  12.9  34136  289.18 0854.52
2009/04/23 12:54:46.7     216   -274     57    350    355 141.7   9.3  34136  289.15 0854.52
2009/04/23 12:54:46.8     213   -285     84    357    367 143.2  13.3  34138  289.20 0854.52
2009/04/23 12:54:46.9     206   -374     59    427    432 151.1   7.9  34138  289.19 0854.52
2009/04/23 12:54:47.0     237   -381     27    449    450 148.1   3.5  34140  289.22 0854.52
2009/04/23 12:54:47.1     199   -360     43    412    415 151.0   6.0  34140  289.22 0854.52
2009/04/23 12:54:47.2     247   -304     84    393    403 140.9  12.2  34136  289.18 0854.52
2009/04/23 12:54:47.3     187   -436    122    475    491 156.7  14.4  34140  289.22 0854.57
2009/04/23 12:54:47.4     136   -407    140    430    453 161.4  18.0  34140  289.22 0854.57
2009/04/23 12:54:47.5     206   -423     27    471    472 154.0   3.3  34140  289.23 0854.57
2009/04/23 12:54:47.6     164   -363     45    399    402 155.7   6.5  34136  289.16 0854.57
2009/04/23 12:54:47.7     234   -300    154    381    410 142.0  23.1  34138  289.21 0854.57
2009/04/23 12:54:47.8     192   -299    150    356    386 147.3  24.2  34136  289.16 0854.57
2009/04/23 12:54:47.9     256   -338     81    425    433 142.9  10.8  34138  289.21 0854.57
2009/04/23 12:54:48.0     265   -424     18    500    501 148.0   2.1  34138  289.20 0854.57
2009/04/23 12:54:48.1     309   -431    -11    531    532 144.3  -1.3  34138  289.19 0854.57
2009/04/23 12:54:48.2     290   -414     80    506    513 144.9   9.0  34134  289.13 0854.57
2009/04/23 12:54:48.3     232   -435     51    494    497 151.9   5.9  34138  289.20 0854.57
2009/04/23 12:54:48.4     165   -495     77    522    528 161.5   8.5  34140  289.23 0854.57
2009/04/23 12:54:48.5     209   -537    109    577    588 158.7  10.7  34138  289.20 0854.57
2009/04/23 12:54:48.6     239   -450    119    510    524 152.0  13.2  34134  289.13 0854.57
2009/04/23 12:54:48.7     125   -523    -72    538    543 166.5  -7.7  34134  289.13 0854.57
2009/04/23 12:54:48.8      84   -542    -95    549    558 171.2  -9.9  34138  289.21 0854.57
2009/04/23 12:54:48.9     -42   -594    -86    596    603 184.1  -8.3  34140  289.22 0854.57
2009/04/23 12:54:49.0    -135   -530   -194    547    581 194.3 -19.6  34140  289.24 0854.57
2009/04/23 12:54:49.1    -139   -483   -125    503    519 196.1 -14.0  34140  289.23 0854.57
2009/04/23 12:54:49.2    -200   -560   -160    595    617 199.7 -15.1  34142  289.27 0854.57
2009/04/23 12:54:49.3    -192   -552   -190    585    615 199.2 -23.2  34140  289.22 0854.59
2009/04/23 12:54:49.4    -205   -401   -206    451    495 207.1 -30.6  34138  289.20 0854.59
2009/04/23 12:54:49.5    -258   -531   -156    591    612 205.9 -14.8  34140  289.24 0854.59
2009/04/23 12:54:49.6    -430   -607    -44    744    746 215.3  -3.4  34138  289.21 0854.59
2009/04/23 12:54:49.7    -133   -448     72    468    474 196.5   8.8  34138  289.20 0854.59
2009/04/23 12:54:49.8    -130   -263     57    294    300 206.3  11.0  34144  289.29 0854.59
2009/04/23 12:54:49.9    -140   -326    -71    355    363 203.3 -11.3  34142  289.25 0854.59
2009/04/23 12:54:50.0    -149   -432     22    458    459 199.1   2.8  34142  289.27 0854.59
2009/04/23 12:54:50.1    -325   -337    -77    469    476 223.9  -9.4  34144  289.30 0854.59
2009/04/23 12:54:50.2    -299   -295   -111    421    436 225.4 -14.8  34146  289.34 0854.59
2009/04/23 12:54:50.3    -275   -287    -91    398    409 223.8 -12.9  34142  289.27 0854.59
2009/04/23 12:54:50.4    -199   -320    -27    378    379 211.9  -4.2  34140  289.23 0854.59
2009/04/23 12:54:50.5    -210   -310    -14    375    376 214.2  -2.2  34142  289.25 0854.59
2009/04/23 12:54:50.6    -262   -232    -67    351    358 228.4 -10.8  34146  289.35 0854.59
2009/04/23 12:54:50.7    -195   -235    -86    306    317 219.7 -20.4  34148  289.37 0854.59
2009/04/23 12:54:50.8    -126   -226    -73    260    270 209.2 -20.4  34148  289.37 0854.59
2009/04/23 12:54:50.9     -96   -143    -61    173    184 214.1 -19.4  34150  289.40 0854.59
2009/04/23 12:54:51.0     -59   -199    -49    208    214 196.7 -13.4  34146  289.35 0854.59
2009/04/23 12:54:51.1     -75   -324     10    333    334 193.2   1.8  34150  289.40 0854.59
2009/04/23 12:54:51.2     -88   -355    122    366    386 194.0  18.5  34146  289.35 0854.59
2009/04/23 12:54:51.3     -44   -313    107    317    335 188.1  18.8  34146  289.33 0854.58
2009/04/23 12:54:51.4     -47   -234     59    239    247 191.6  13.9  34144  289.31 0854.58
2009/04/23 12:54:51.5     112   -279   -101    301    318 158.1 -18.7  34148  289.36 0854.58
2009/04/23 12:54:51.6      92   -308    -77    322    332 163.3 -13.6  34144  289.29 0854.58
2009/04/23 12:54:51.7      72   -315    -95    324    338 167.0 -16.4  34146  289.35 0854.58
2009/04/23 12:54:51.8      23   -302    -54    303    308 175.6 -10.1  34148  289.36 0854.58
2009/04/23 12:54:51.9      30   -271    -81    273    285 173.5 -16.5  34148  289.37 0854.58
2009/04/23 12:54:52.0      24   -306    -59    308    314 175.5 -10.9  34146  289.32 0854.58
2009/04/23 12:54:52.1      70   -281    -75    290    300 165.8 -14.5  34146  289.32 0854.58
2009/04/23 12:54:52.2     125   -363    -98    385    398 161.0 -14.4  34146  289.35 0854.58
2009/04/23 12:54:52.3     227   -361    -28    427    428 147.8  -3.8  34154  289.48 0854.58
2009/04/23 12:54:52.4     329   -385    -11    507    508 139.5  -1.3  34156  289.49 0854.58
2009/04/23 12:54:52.5     199   -402    282    449    530 153.6  35.2  34146  289.34 0854.58
2009/04/23 12:54:52.6     136   -243    277    279    393 150.8  49.9  34148  289.38 0854.58
2009/04/23 12:54:52.7     194   -184    257    268    371 133.6  48.7  34148  289.37 0854.58
2009/04/23 12:54:52.8     202   -176     49    269    274 131.1  10.3  34150  289.41 0854.58
2009/04/23 12:54:53.0     238   -258    128    352    374 137.4  20.9  34148  289.37 0854.58
2009/04/23 12:54:53.0     158   -244    106    291    309 147.0  20.9  34148  289.36 0854.58
2009/04/23 12:54:53.2     180   -212     28    279    281 139.7   5.9  34150  289.39 0854.58
2009/04/23 12:54:53.2     147   -318     18    351    352 155.2   3.0  34148  289.38 0854.58
2009/04/23 12:54:53.3     129   -253    -15    285    286 152.9  -3.2  34146  289.34 0854.58
2009/04/23 12:54:53.4     187   -199    -47    274    279 136.8  -9.8  34152  289.42 0854.60
2009/04/23 12:54:53.5     163   -229    -21    282    283 144.6  -4.4  34148  289.36 0854.60
2009/04/23 12:54:53.6     181   -223     19    288    289 141.0   3.8  34148  289.37 0854.60
2009/04/23 12:54:53.7     190   -190      8    270    271 135.0   1.8  34148  289.37 0854.60
2009/04/23 12:54:53.8     169   -211     21    271    272 141.3   4.6  34148  289.37 0854.60
2009/04/23 12:54:53.9     145   -129     67    195    207 131.6  18.9  34148  289.36 0854.60
2009/04/23 12:54:54.0     196    -78     57    212    220 111.7  15.2  34146  289.33 0854.60
2009/04/23 12:54:54.1     187   -103     98    214    235 118.8  26.2  34150  289.41 0854.60
2009/04/23 12:54:54.2     257   -104     18    278    279 112.0   3.8  34152  289.44 0854.60
2009/04/23 12:54:54.3     218   -117     21    248    249 118.4   4.9  34150  289.41 0854.60
2009/04/23 12:54:54.4     199    -35    110    203    230 100.1  31.0  34150  289.40 0854.60
2009/04/23 12:54:54.5     165    -49    140    173    222 106.8  43.5  34156  289.50 0854.60
2009/04/23 12:54:54.6     158   -123     64    201    211 128.0  17.7  34150  289.40 0854.60
2009/04/23 12:54:54.7     103   -168     66    198    209 148.4  18.4  34150  289.40 0854.60
2009/04/23 12:54:54.8      57   -150     89    161    183 159.1  31.4  34150  289.41 0854.60
2009/04/23 12:54:54.9      26   -174     89    177    198 171.3  29.1  34152  289.43 0854.60
2009/04/23 12:54:55.0     -50   -150     24    159    161 198.5   8.8  34150  289.40 0854.60
2009/04/23 12:54:55.1     -42   -201     16    206    207 192.0   4.6  34152  289.43 0854.60
2009/04/23 12:54:55.2     -26   -243     22    245    247 186.2   5.2  34154  289.47 0854.60
2009/04/23 12:54:55.3     -23   -305     80    307    318 184.5  14.6  34150  289.41 0854.60
2009/04/23 12:54:55.4     111   -246    133    270    300 155.7  28.2  34150  289.39 0854.61
2009/04/23 12:54:55.5      91   -227    111    245    268 158.1  26.2  34148  289.37 0854.61
2009/04/23 12:54:55.6     115   -214    -73    243    254 151.7 -16.8  34150  289.39 0854.61
2009/04/23 12:54:55.7     170   -169    -19    241    242 134.8  -4.6  34150  289.41 0854.61
2009/04/23 12:54:55.8      86   -149    -18    173    174 149.9  -6.0  34148  289.36 0854.61
2009/04/23 12:54:55.9      90   -191    -42    212    217 154.7 -11.3  34152  289.43 0854.61
2009/04/23 12:54:56.0     158   -175     -9    237    238 137.9  -2.2  34152  289.44 0854.61
2009/04/23 12:54:56.1     249   -169    -27    302    304 124.2  -5.2  34152  289.44 0854.61
2009/04/23 12:54:56.2     205   -203    -80    289    300 134.8 -15.5  34154  289.46 0854.61
2009/04/23 12:54:56.3     189   -132     11    231    232 124.9   2.9  34146  289.33 0854.61
2009/04/23 12:54:56.4     140   -141     71    199    211 135.2  20.2  34148  289.38 0854.61
2009/04/23 12:54:56.5     164   -139     33    216    219 130.4   8.8  34150  289.40 0854.61
2009/04/23 12:54:56.6     149   -169     53    226    233 138.6  13.2  34152  289.45 0854.61
2009/04/23 12:54:56.7      92   -164     25    189    191 150.8   7.8  34152  289.43 0854.61
2009/04/23 12:54:56.8     139    -88     17    165    166 122.4   5.9  34154  289.48 0854.61
2009/04/23 12:54:56.9     120    -43     53    128    138 110.0  23.1  34154  289.48 0854.61
2009/04/23 12:54:57.0      56    -77    102     96    140 143.9  52.1  34154  289.48 0854.61
2009/04/23 12:54:57.1      49    -38     68     63     92 127.8  52.2  34156  289.50 0854.61
2009/04/23 12:54:57.2     104    -28     65    108    126 105.1  34.0  34154  289.48 0854.61
2009/04/23 12:54:57.3     120    -69    -10    139    140 119.8  -4.1  34158  289.53 0854.60
2009/04/23 12:54:57.4     129   -108    -35    169    173 129.8 -11.9  34156  289.50 0854.60
2009/04/23 12:54:57.5      69   -108     -2    129    130 147.4  -1.2  34156  289.50 0854.60
2009/04/23 12:54:57.6     111    -52     10    123    124 115.2   4.9  34154  289.48 0854.60
2009/04/23 12:54:57.7      24   -120     58    123    135 168.4  27.1  34156  289.52 0854.60
2009/04/23 12:54:57.8       8   -166     58    167    177 177.1  19.2  34158  289.53 0854.60
2009/04/23 12:54:57.9      17   -121     53    123    133 172.0  25.1  34156  289.52 0854.60
2009/04/23 12:54:58.0      40    -96     87    105    136 157.3  43.8  34158  289.55 0854.60
2009/04/23 12:54:58.1      77    -93    115    122    167 140.4  48.2  34154  289.46 0854.60
2009/04/23 12:54:58.2     181   -133    167    225    280 126.4  40.4  34152  289.42 0854.60
2009/04/23 12:54:58.3     197   -280    210    343    402 144.8  34.4  34152  289.43 0854.60
2009/04/23 12:54:58.4     245   -374    310    448    544 146.7  38.0  34150  289.39 0854.60
2009/04/23 12:54:58.5     362   -350    250    504    562 134.0  28.2  34152  289.45 0854.60
2009/04/23 12:54:58.6     293   -282    176    407    443 133.9  25.1  34152  289.44 0854.60
2009/04/23 12:54:58.7     323   -271     99    422    434 130.0  13.2  34152  289.44 0854.60
2009/04/23 12:54:58.8     335   -191    156    386    416 119.7  23.1  34154  289.46 0854.60
2009/04/23 12:54:58.9     255    -38     19    258    259  98.6   4.2  34154  289.47 0854.60
2009/04/23 12:54:59.0     165   -150    145    224    266 132.2  35.6  34152  289.42 0854.60
2009/04/23 12:54:59.1     161    -52    126    170    211 107.9  40.1  34154  289.46 0854.60
2009/04/23 12:54:59.2     205    -40     73    210    223 101.2  19.2  34152  289.43 0854.60
2009/04/23 12:54:59.3     256     58     56    263    270  77.2  12.2  34154  289.46 0854.60
2009/04/23 12:54:59.4     220    103      3    244    245  64.9   0.7  34152  289.44 0854.60
2009/04/23 12:54:59.5     232     32     27    235    237  82.0   6.7  34154  289.47 0854.60
2009/04/23 12:54:59.6     192     75     10    207    208  68.5   2.9  34156  289.52 0854.60
2009/04/23 12:54:59.7     139     45    -18    147    149  71.8  -7.3  34156  289.50 0854.60
2009/04/23 12:54:59.8     165      2    -40    166    171  89.0 -13.7  34156  289.50 0854.60
2009/04/23 12:54:59.9     148    -11    -88    149    173  94.4 -38.1  34154  289.48 0854.60
2009/04/23 12:55:00.0     157    -29    -53    160    168 100.6 -23.6  34154  289.48 0854.60
2009/04/23 12:55:00.1     183    -26    -49    185    192  98.1 -15.0  34156  289.50 0854.60
2009/04/23 12:55:00.2     218    -16     25    219    221  94.3   6.7  34156  289.52 0854.60
2009/04/23 12:55:00.3     168    -22    -11    170    171  97.5  -3.7  34160  289.57 0854.61
2009/04/23 12:55:00.4     151   -116     40    191    196 127.5  12.0  34156  289.50 0854.61
2009/04/23 12:55:00.5     125   -196     67    233    243 147.5  16.0  34154  289.47 0854.61
2009/04/23 12:55:00.6      32   -118    117    123    169 164.9  49.0  34156  289.52 0854.61
2009/04/23 12:55:00.7     -12   -155     -6    156    157 184.5  -2.3  34160  289.58 0854.61
2009/04/23 12:55:00.8      76   -104    -83    129    153 143.9 -40.0  34160  289.57 0854.61
2009/04/23 12:55:00.9     148    -34   -108    152    186 103.2 -43.7  34156  289.52 0854.61
2009/04/23 12:55:01.0     157   -181    -69    240    250 139.0 -16.0  34160  289.56 0854.61
2009/04/23 12:55:01.1      73   -581    280    586    649 172.8  27.4  34164  289.65 0854.61
2009/04/23 12:55:01.2     136   -497    154    516    539 164.7  16.7  34150  289.40 0854.61
2009/04/23 12:55:01.3      42   -443    148    446    470 174.6  18.4  34166  289.68 0854.61
2009/04/23 12:55:01.5      28   -446    102    447    459 176.4  12.9  34160  289.56 0854.61
2009/04/23 12:55:01.6      61   -292     23    299    300 168.2   4.6  34164  289.63 0854.61
2009/04/23 12:55:01.6      59   -291     69    298    306 168.4  13.1  34158  289.53 0854.61
2009/04/23 12:55:01.8    -161   -380    110    413    428 203.0  14.9  34154  289.46 0854.61
2009/04/23 12:55:01.9    -186   -373     50    417    421 206.5   6.9  34158  289.55 0854.61
2009/04/23 12:55:02.0    -173   -346    -40    387    390 206.6  -6.0  34162  289.62 0854.61
2009/04/23 12:55:02.1    -185   -316    -72    367    375 210.4 -11.1  34162  289.62 0854.61
2009/04/23 12:55:02.2     -88   -258    -47    273    278 198.9  -9.8  34162  289.61 0854.61
2009/04/23 12:55:02.3    -116   -326    -99    347    362 199.6 -16.0  34162  289.59 0854.61
2009/04/23 12:55:02.4     -94   -214      7    235    236 203.8   1.7  34158  289.53 0854.60
2009/04/23 12:55:02.5     -55   -129    -42    141    148 203.2 -16.6  34154  289.48 0854.60
2009/04/23 12:55:02.6     124   -246    -92    276    290 153.3 -23.6  34158  289.54 0854.60
2009/04/23 12:55:02.7     183   -218    -97    285    302 139.9 -18.9  34164  289.63 0854.60
2009/04/23 12:55:02.8     274   -156    -12    316    317 119.8  -2.2  34164  289.63 0854.60
2009/04/23 12:55:02.9     358    -87    -17    369    370 103.7  -2.7  34162  289.62 0854.60
2009/04/23 12:55:03.0     291    -68    161    299    339 103.3  30.8  34158  289.54 0854.60
2009/04/23 12:55:03.1     327    -64    151    334    366 101.1  25.9  34158  289.54 0854.60
2009/04/23 12:55:03.2     261   -170    176    312    358 123.1  31.9  34162  289.59 0854.60
2009/04/23 12:55:03.3     205   -198    124    286    311 134.0  25.1  34162  289.61 0854.60
2009/04/23 12:55:03.4     239    -62    -16    247    248 104.6  -3.7  34162  289.61 0854.60
2009/04/23 12:55:03.5     208   -133    -31    247    249 122.6  -7.2  34160  289.56 0854.60
2009/04/23 12:55:03.6     165   -410    195    443    484 158.1  25.3  34138  289.20 0854.60
2009/04/23 12:55:03.7     132   -538    192    554    587 166.2  19.2  34156  289.49 0854.60
2009/04/23 12:55:03.8      56   -471    274    475    548 173.2  32.4  34158  289.55 0854.60
2009/04/23 12:55:03.9      78   -455    256    462    528 170.2  31.4  34156  289.49 0854.60
2009/04/23 12:55:04.0      32   -512    175    514    544 176.4  18.8  34160  289.57 0854.60
2009/04/23 12:55:04.1     -42   -498    150    500    523 184.9  16.7  34160  289.56 0854.60
2009/04/23 12:55:04.2    -162   -519     56    544    548 197.4   6.0  34164  289.63 0854.60
2009/04/23 12:55:04.3    -166   -498    -81    526    533 198.5  -8.8  34166  289.67 0854.60
2009/04/23 12:55:04.4     -68   -441    -89    447    456 188.8 -11.3  34164  289.63 0854.60
2009/04/23 12:55:04.5      51   -445    -33    448    450 173.4  -4.2  34158  289.53 0854.60
2009/04/23 12:55:04.6     129   -464   -138    482    502 164.4 -16.0  34164  289.64 0854.60
2009/04/23 12:55:04.7     185   -387   -147    430    454 154.4 -23.8  34166  289.66 0854.60
2009/04/23 12:55:04.8     215   -401     47    456    459 151.8   6.0  34160  289.58 0854.60
2009/04/23 12:55:04.9      26   -504     45    505    508 177.0   5.1  34162  289.62 0854.60
2009/04/23 12:55:05.0      86   -584    -13    591    592 171.6  -1.3  34164  289.64 0854.60
2009/04/23 12:55:05.1     135   -536    -30    553    554 165.8  -3.1  34158  289.55 0854.60
2009/04/23 12:55:05.2     202   -581     13    616    617 160.8   1.2  34162  289.60 0854.60
2009/04/23 12:55:05.3     272   -605     79    664    669 155.8   6.8  34154  289.48 0854.60
2009/04/23 12:55:05.4     380   -619    113    727    736 148.5   8.9  34162  289.59 0854.60
2009/04/23 12:55:05.5     275   -544     80    610    616 153.2   7.5  34158  289.54 0854.60
2009/04/23 12:55:05.6     378   -563    107    679    688 146.1   9.0  34158  289.53 0854.60
2009/04/23 12:55:05.7     439   -505    158    670    689 139.0  13.3  34148  289.38 0854.60
2009/04/23 12:55:05.8     398   -355    264    534    595 131.8  28.2  34150  289.39 0854.60
2009/04/23 12:55:05.9     354   -462    401    583    707 142.5  37.9  34144  289.29 0854.60
2009/04/23 12:55:06.0     260   -475    389    542    667 151.3  39.3  34152  289.42 0854.60
2009/04/23 12:55:06.1     180   -357    343    400    526 153.2  45.0  34154  289.47 0854.60
2009/04/23 12:55:06.2     194   -392    230    438    494 153.6  30.0  34152  289.45 0854.60
2009/04/23 12:55:06.3     233   -410    148    472    495 150.4  17.4  34152  289.42 0854.60
2009/04/23 12:55:06.4     168   -400    106    435    448 157.2  13.8  34148  289.36 0854.59
2009/04/23 12:55:06.5      65   -253    258    262    367 165.5  49.9  34148  289.38 0854.59
2009/04/23 12:55:06.6     135   -223    261    261    369 148.8  50.1  34154  289.48 0854.59
2009/04/23 12:55:06.7     196   -236    280    307    415 140.3  47.0  34154  289.48 0854.59
2009/04/23 12:55:06.8     217   -196    195    293    351 132.2  36.9  34146  289.33 0854.59
2009/04/23 12:55:06.9     203    -86    185    221    288 113.1  43.8  34152  289.42 0854.59
2009/04/23 12:55:07.0     153     28    124    156    199  79.4  42.4  34148  289.38 0854.59
2009/04/23 12:55:07.1     243      0    139    244    280  90.0  32.4  34148  289.37 0854.59
2009/04/23 12:55:07.2     245   -234     92    340    353 133.7  15.1  34152  289.42 0854.59
2009/04/23 12:55:07.3      57   -305    229    311    386 169.3  39.9  34152  289.42 0854.59
2009/04/23 12:55:07.4      19   -364    160    365    398 177.0  25.2  34152  289.43 0854.59
2009/04/23 12:55:07.5      12   -327    112    328    347 177.8  18.9  34152  289.42 0854.59
2009/04/23 12:55:07.6     212   -448    156    496    521 154.7  17.5  34150  289.40 0854.59
2009/04/23 12:55:07.7     135   -396    242    419    483 161.1  32.7  34138  289.21 0854.59
2009/04/23 12:55:07.8     211   -465    306    511    595 155.5  33.7  34152  289.44 0854.59
2009/04/23 12:55:07.9     130   -387    355    409    541 161.4  45.4  34146  289.35 0854.59
2009/04/23 12:55:08.0      30   -253    282    255    380 173.1  53.3  34158  289.55 0854.59
2009/04/23 12:55:08.1     156   -429    279    457    535 160.0  34.4  34150  289.40 0854.59
2009/04/23 12:55:08.2     153   -405    215    434    484 159.3  28.2  34146  289.34 0854.59
2009/04/23 12:55:08.3     125   -360    201    382    431 160.8  30.0  34148  289.38 0854.59
2009/04/23 12:55:08.4      41   -186    196    191    273 167.3  50.7  34152  289.42 0854.59
2009/04/23 12:55:08.5      11   -202    195    203    281 176.9  49.0  34152  289.42 0854.59
2009/04/23 12:55:08.6     200   -183    226    272    353 132.4  44.0  34152  289.45 0854.59
2009/04/23 12:55:08.7      -6   -134    205    135    245 182.7  63.6  34156  289.52 0854.59
2009/04/23 12:55:08.8       5   -260    290    261    390 178.9  53.4  34152  289.45 0854.59
2009/04/23 12:55:08.9      41    -33    148     53    157 128.6  79.7  34160  289.58 0854.59
2009/04/23 12:55:09.0      77      8    236     78    248  83.9  80.7  34158  289.55 0854.59
2009/04/23 12:55:09.1     -26    -28    169     39    173 223.4  87.3  34162  289.60 0854.59
2009/04/23 12:55:09.2      11   -290    296    291    415 177.8  50.6  34146  289.35 0854.59
2009/04/23 12:55:09.3     161   -189    188    249    312 139.5  40.8  34152  289.42 0854.59
2009/04/23 12:55:09.4     143   -280    170    315    357 152.9  30.7  34148  289.37 0854.59
2009/04/23 12:55:09.5     101   -183    278    210    348 151.0  59.2  34152  289.44 0854.59
2009/04/23 12:55:09.6      51    -78    223     94    242 146.6  76.1  34154  289.46 0854.59
2009/04/23 12:55:09.7      91   -193    111    214    241 154.7  29.3  34156  289.49 0854.59
2009/04/23 12:55:09.8      -5   -291     82    292    304 181.0  15.8  34142  289.25 0854.59
2009/04/23 12:55:09.9    -115   -377   -111    395    411 197.0 -15.8  34154  289.46 0854.59
2009/04/23 12:55:10.0    -161   -327   -116    365    384 206.2 -17.7  34148  289.38 0854.59
2009/04/23 12:55:10.1     112   -259    -80    283    295 156.6 -15.8  34152  289.44 0854.59
2009/04/23 12:55:10.2      94   -177    -62    201    210 151.9 -22.3  34152  289.43 0854.59
2009/04/23 12:55:10.3      93   -253    -96    270    287 159.7 -19.6  34152  289.42 0854.59
2009/04/23 12:55:10.4     167     28    165    170    236  80.5  49.0  34154  289.48 0854.58
2009/04/23 12:55:10.5      98   -114     98    151    180 139.5  36.0  34156  289.52 0854.58
2009/04/23 12:55:10.6      49   -110    102    121    158 155.9  44.5  34154  289.46 0854.58
2009/04/23 12:55:10.7      47    -44     87     65    108 133.1  59.4  34160  289.57 0854.58
2009/04/23 12:55:10.8     109    -84     27    138    141 127.8  11.1  34156  289.50 0854.58
2009/04/23 12:55:10.9      22    -78    134     82    157 164.4  65.7  34156  289.50 0854.58
2009/04/23 12:55:11.0      67    -55    107     87    137 129.5  56.4  34164  289.63 0854.58
2009/04/23 12:55:11.1      87   -198    112    217    244 156.2  29.3  34154  289.47 0854.58
2009/04/23 12:55:11.2      18   -256    213    257    333 175.8  43.8  34150  289.41 0854.58
2009/04/23 12:55:11.3     128   -254    178    285    336 153.3  35.0  34156  289.49 0854.58
2009/04/23 12:55:11.4     405   -292    -19    500    501 125.9  -2.3  34152  289.44 0854.58
2009/04/23 12:55:11.5     283   -393    151    485    508 144.3  17.3  34150  289.39 0854.58
2009/04/23 12:55:11.6     163   -437    121    467    483 159.5  14.6  34148  289.37 0854.58
2009/04/23 12:55:11.7      83   -325    158    336    371 165.6  27.1  34152  289.43 0854.58
2009/04/23 12:55:11.8      23   -275    118    277    301 175.1  24.3  34154  289.46 0854.58
2009/04/23 12:55:11.9     102   -233    -14    255    256 156.4  -3.1  34152  289.42 0854.58
2009/04/23 12:55:12.0     146   -441      5    465    466 161.7   0.7  34154  289.47 0854.58
2009/04/23 12:55:12.1     -27   -504     83    505    512 183.1   9.4  34160  289.57 0854.58
2009/04/23 12:55:12.2     -43   -619     69    621    625 184.0   6.4  34156  289.50 0854.58
2009/04/23 12:55:12.3     107   -370    -21    386    387 163.9  -3.1  34150  289.40 0854.58
2009/04/23 12:55:12.4      68   -172     76    185    200 158.4  23.6  34152  289.43 0854.58
2009/04/23 12:55:12.5    -141    -66     53    156    165 244.8  18.9  34154  289.46 0854.58
2009/04/23 12:55:12.6    -219     47     75    225    238 282.2  18.4  34162  289.59 0854.58
2009/04/23 12:55:12.7    -217    -34    136    220    258 261.0  34.8  34164  289.64 0854.58
2009/04/23 12:55:12.8    -227    -82     -4    242    243 250.0  -1.1  34162  289.61 0854.58
2009/04/23 12:55:12.9    -183   -201     -1    272    273 222.3  -0.3  34158  289.54 0854.58
2009/04/23 12:55:13.0    -147   -102    164    180    243 235.1  47.1  34164  289.63 0854.58
2009/04/23 12:55:13.1     -59   -120    177    134    222 206.3  59.4  34160  289.58 0854.58
2009/04/23 12:55:13.2    -114   -151    162    190    249 217.0  44.8  34158  289.55 0854.58
2009/04/23 12:55:13.3      -4   -135    138    136    193 181.8  49.9  34160  289.58 0854.58
2009/04/23 12:55:13.4      -9    -98     68     99    120 185.3  37.6  34160  289.58 0854.58
2009/04/23 12:55:13.5     -25    -63    123     68    140 201.8  68.8  34166  289.67 0854.58
2009/04/23 12:55:13.6    -228   -116    124    256    284 243.0  27.4  34158  289.53 0854.58
2009/04/23 12:55:13.7    -288   -135    110    319    338 244.8  19.1  34164  289.64 0854.58
2009/04/23 12:55:13.8    -334    -47    119    338    358 261.9  20.2  34172  289.76 0854.58
2009/04/23 12:55:13.9    -214   -141    126    257    286 236.7  27.8  34154  289.47 0854.58
2009/04/23 12:55:14.0    -198     59    205    207    291 286.8  50.0  34160  289.58 0854.58
2009/04/23 12:55:14.1     -39    -40    107     56    120 224.2  70.8  34160  289.57 0854.58
2009/04/23 12:55:14.2       3    -53    153     54    162 176.4  80.2  34164  289.65 0854.58
2009/04/23 12:55:14.3      60    -12    160     62    171 101.4  77.8  34162  289.60 0854.58
2009/04/23 12:55:14.4      86   -104    187    136    231 140.4  60.5  34164  289.63 0854.58
2009/04/23 12:55:14.5     125   -172    173    213    274 143.9  43.5  34158  289.54 0854.58
2009/04/23 12:55:14.6     223   -171    156    282    322 127.5  31.4  34156  289.49 0854.58
2009/04/23 12:55:14.7     254   -101    123    274    300 111.7  25.7  34160  289.58 0854.58
2009/04/23 12:55:14.8     227    -41    180    231    292 100.4  41.7  34160  289.58 0854.58
2009/04/23 12:55:14.9     198   -199    113    281    302 135.2  23.1  34158  289.54 0854.58
2009/04/23 12:55:15.0      72   -146     83    163    182 153.7  29.3  34162  289.62 0854.58
2009/04/23 12:55:15.1      94   -125     30    157    160 143.0  10.8  34162  289.60 0854.58
2009/04/23 12:55:15.2     204    -96    -28    226    228 115.4  -7.2  34160  289.58 0854.58
2009/04/23 12:55:15.3     239    -71     12    250    251 106.6   2.9  34160  289.56 0854.58
2009/04/23 12:55:15.4      24   -119    131    122    179 168.4  52.2  34164  289.63 0854.58
2009/04/23 12:55:15.5     -62   -224    233    233    329 195.6  50.1  34170  289.73 0854.58
2009/04/23 12:55:15.6    -297   -307     41    428    431 224.1   5.5  34166  289.68 0854.58
2009/04/23 12:55:15.7    -110     27    -65    114    131 284.2 -36.8  34152  289.45 0854.58
2009/04/23 12:55:15.8    -131    139     68    192    203 316.8  20.2  34166  289.69 0854.58
2009/04/23 12:55:15.9     -46    -43    291     64    297 226.9  88.1  34170  289.75 0854.58
2009/04/23 12:55:16.0    -234   -341    -79    414    422 214.5 -10.9  34166  289.66 0854.58
2009/04/23 12:55:16.1    -278   -420   -106    504    516 213.5 -11.9  34144  289.30 0854.58
2009/04/23 12:55:16.2    -280   -341     63    442    447 219.3   8.1  34166  289.68 0854.58
2009/04/23 12:55:16.3    -254   -218    -74    335    344 229.3 -12.5  34174  289.82 0854.58
2009/04/23 12:55:16.4    -398   -108    -62    413    418 254.8  -8.6  34168  289.72 0854.60
2009/04/23 12:55:16.5    -362    -85    -57    372    377 256.7  -8.7  34158  289.55 0854.60
2009/04/23 12:55:16.6    -179    -71     20    193    195 248.3   6.1  34168  289.72 0854.60
2009/04/23 12:55:16.7    -156   -223    140    273    306 215.0  29.3  34170  289.73 0854.60
2009/04/23 12:55:16.8    -256   -234    183    347    392 227.6  30.1  34168  289.72 0854.60
2009/04/23 12:55:16.9     -99   -114    109    152    187 221.0  39.5  34170  289.75 0854.60
2009/04/23 12:55:17.0    -105   -263    231    284    366 201.8  43.4  34170  289.74 0854.60
2009/04/23 12:55:17.1       7    -96    150     97    178 175.6  64.4  34172  289.77 0854.60
2009/04/23 12:55:17.2      50     36     98     62    115  54.0  64.7  34178  289.87 0854.60
2009/04/23 12:55:17.3     128   -136    140    187    233 136.8  40.4  34174  289.80 0854.60
2009/04/23 12:55:17.4      18   -141     69    143    158 172.4  27.8  34172  289.79 0854.60
2009/04/23 12:55:17.5      59    -63     45     87     97 137.2  29.3  34172  289.77 0854.60
2009/04/23 12:55:17.6      18     -7     49     20     52 111.7  77.1  34174  289.80 0854.60
2009/04/23 12:55:17.7      -2     13     64     14     65 348.4  89.0  34180  289.92 0854.60
2009/04/23 12:55:17.8       0    -31     90     32     95 180.9  80.7  34178  289.87 0854.60
2009/04/23 12:55:17.9     -66     -8     78     67    102 263.0  54.8  34178  289.89 0854.60
2009/04/23 12:55:18.0       9    -65    150     66    163 171.9  74.8  34178  289.89 0854.60
2009/04/23 12:55:18.1      55   -213     96    220    240 165.5  25.1  34170  289.75 0854.60
2009/04/23 12:55:18.2     -23   -260    122    262    289 185.1  27.1  34170  289.73 0854.60
2009/04/23 12:55:18.3     -29   -171    185    174    253 189.6  52.1  34176  289.84 0854.60
2009/04/23 12:55:18.4    -118   -122    159    170    232 224.1  48.0  34174  289.80 0854.62
2009/04/23 12:55:18.5     -75   -124    140    146    202 211.2  49.0  34174  289.82 0854.62
2009/04/23 12:55:18.6      50   -187    169    194    257 164.9  45.8  34176  289.83 0854.62
2009/04/23 12:55:18.7     127   -309    136    335    361 157.6  23.4  34174  289.82 0854.62
2009/04/23 12:55:18.8      93   -275    111    291    311 161.3  22.0  34172  289.76 0854.62
2009/04/23 12:55:18.9      56   -215     82    223    237 165.3  21.0  34170  289.73 0854.62
2009/04/23 12:55:19.0     -25   -141     58    144    155 190.2  23.0  34172  289.77 0854.62
2009/04/23 12:55:19.1      32   -315    178    317    363 174.2  31.6  34172  289.79 0854.62
2009/04/23 12:55:19.2      36   -285    146    288    322 172.7  28.9  34170  289.73 0854.62
2009/04/23 12:55:19.3      20   -183     85    185    203 173.8  26.4  34170  289.75 0854.62
2009/04/23 12:55:19.4      46   -165    155    172    231 164.2  46.9  34174  289.80 0854.63
2009/04/23 12:55:19.5      36   -307    115    310    330 173.3  21.1  34164  289.64 0854.63
2009/04/23 12:55:19.6      61   -382     55    387    391 170.9   8.1  34166  289.67 0854.63
2009/04/23 12:55:19.7      38   -350    124    353    374 173.7  20.2  34166  289.67 0854.63
2009/04/23 12:55:19.8     -75   -298    166    308    349 194.2  30.8  34172  289.76 0854.63
2009/04/23 12:55:19.9     116   -297    207    320    381 158.6  35.7  34172  289.76 0854.63
2009/04/23 12:55:20.0      36   -349    213    351    410 174.0  34.2  34168  289.72 0854.63
2009/04/23 12:55:20.1     -40   -262    216    266    342 188.7  43.5  34172  289.78 0854.63
2009/04/23 12:55:20.2      45   -238    162    243    292 169.1  36.5  34176  289.83 0854.63
2009/04/23 12:55:20.3      18   -232     59    233    241 175.5  14.3  34170  289.75 0854.63
2009/04/23 12:55:20.4     122   -180     94    218    237 145.7  24.9  34172  289.77 0854.63
2009/04/23 12:55:20.5     210   -122    128    243    274 120.2  29.8  34172  289.76 0854.63
2009/04/23 12:55:20.6     252   -126    153    282    320 116.6  30.9  34174  289.81 0854.63
2009/04/23 12:55:20.7      82    -48     57     96    111 120.7  33.5  34170  289.75 0854.63
2009/04/23 12:55:20.8     -29    -21     47     36     59 234.0  58.5  34176  289.84 0854.63
2009/04/23 12:55:20.9     -52      0     51     53     73 270.8  50.0  34176  289.85 0854.63
2009/04/23 12:55:21.0     -50     36    110     62    126 306.0  68.3  34178  289.89 0854.63
2009/04/23 12:55:21.1      70    -29    173     76    188 112.6  75.0  34166  289.67 0854.63
2009/04/23 12:55:21.2      -5    -71    188     72    201 184.4  78.2  34172  289.77 0854.63
2009/04/23 12:55:21.3      43   -157    184    163    245 164.6  54.2  34170  289.74 0854.63
2009/04/23 12:55:21.4      29   -208    152    211    260 171.9  39.5  34170  289.73 0854.62
2009/04/23 12:55:21.5     101   -148    130    180    222 145.5  39.5  34166  289.69 0854.62
2009/04/23 12:55:21.6      97   -180    226    205    305 151.5  53.3  34168  289.70 0854.62
2009/04/23 12:55:21.7     -46   -229    187    234    299 191.5  42.7  34166  289.66 0854.62
2009/04/23 12:55:21.8     -55   -152    136    162    211 200.0  44.3  34166  289.69 0854.62
2009/04/23 12:55:21.9     -30   -147    119    151    192 191.6  42.7  34168  289.70 0854.62
2009/04/23 12:55:22.0     -24   -169    106    171    201 188.2  34.8  34166  289.67 0854.62
2009/04/23 12:55:22.1      84   -261    130    275    304 162.1  27.1  34170  289.73 0854.62
2009/04/23 12:55:22.2     110   -198     11    227    228 151.0   2.8  34166  289.67 0854.62
2009/04/23 12:55:22.3      22   -199     -8    201    202 173.7  -2.3  34168  289.70 0854.62
2009/04/23 12:55:22.4      16   -186    -24    187    189 174.9  -7.3  34166  289.69 0854.62
2009/04/23 12:55:22.5     -31   -155    -14    159    160 191.5  -5.2  34166  289.67 0854.62
2009/04/23 12:55:22.6     -41   -168     47    173    180 193.8  15.3  34166  289.69 0854.62
2009/04/23 12:55:22.7     -59   -145     69    157    171 202.3  25.3  34170  289.74 0854.62
2009/04/23 12:55:22.8    -107   -135     51    173    181 218.3  16.6  34166  289.67 0854.62
2009/04/23 12:55:22.9     -47   -216     96    222    241 192.3  24.9  34168  289.71 0854.62
2009/04/23 12:55:23.0      52   -162     17    171    172 162.2   5.7  34170  289.75 0854.62
2009/04/23 12:55:23.1      10   -124    -44    125    132 175.1 -23.8  34166  289.67 0854.62
2009/04/23 12:55:23.2     120    -71     48    140    149 120.7  18.9  34166  289.67 0854.62
2009/04/23 12:55:23.3      77    -49    -12     92     93 122.4  -7.7  34168  289.70 0854.63
2009/04/23 12:55:23.4      15     -2    -51     16     53  97.9 -85.1  34172  289.79 0854.63
2009/04/23 12:55:23.5      48    -41    -45     64     78 130.4 -43.0  34166  289.67 0854.63
2009/04/23 12:55:23.6     126   -161   -100    205    228 141.9 -31.8  34166  289.69 0854.63
2009/04/23 12:55:23.7     109   -184    -61    215    224 149.3 -16.0  34166  289.69 0854.63
2009/04/23 12:55:23.8      74   -185     49    200    207 158.2  13.9  34166  289.67 0854.63
2009/04/23 12:55:23.9      65   -193     15    204    205 161.3   4.2  34166  289.67 0854.63
2009/04/23 12:55:24.0      28   -193     29    196    199 171.5   8.5  34168  289.72 0854.63
2009/04/23 12:55:24.1     -24   -142    -18    145    147 189.8  -7.2  34164  289.65 0854.63
2009/04/23 12:55:24.2     -76    -60   -103     97    141 231.8 -56.5  34168  289.70 0854.63
2009/04/23 12:55:24.3     -11    -43    -72     45     84 195.1 -69.1  34168  289.72 0854.63
2009/04/23 12:55:24.4       3    -14     18     15     23 164.9  54.3  34170  289.74 0854.63
2009/04/23 12:55:24.5    -123      0     43    124    132 269.6  19.4  34166  289.67 0854.63
2009/04/23 12:55:24.6     -56     30     48     64     80 298.9  40.7  34164  289.65 0854.63
2009/04/23 12:55:24.7      29     74     50     80     94  21.8  35.5  34168  289.70 0854.63
2009/04/23 12:55:24.8      73     60    112     95    146  50.5  55.8  34168  289.70 0854.63
2009/04/23 12:55:24.9      27    -41     95     50    107 146.6  69.8  34172  289.77 0854.63
2009/04/23 12:55:25.0     158    -71    112    174    206 114.4  35.6  34168  289.70 0854.63
2009/04/23 12:55:25.1     102   -140    115    174    208 143.7  36.5  34168  289.72 0854.63
2009/04/23 12:55:25.2      53   -216     84    223    238 166.0  21.5  34168  289.70 0854.63
2009/04/23 12:55:25.3      50   -212     87    218    234 166.6  22.8  34164  289.65 0854.63
2009/04/23 12:55:25.4     245    -18     66    246    255  94.4  15.2  34146  289.32 0854.63
2009/04/23 12:55:25.5      85     23    -19     89     92  74.5 -12.4  34156  289.50 0854.63
2009/04/23 12:55:25.6     103     36    -39    110    117  70.5 -19.7  34158  289.55 0854.63
2009/04/23 12:55:25.7     165      8     38    166    171  87.2  12.9  34154  289.48 0854.63
2009/04/23 12:55:25.8      49     46    115     68    133  46.8  66.7  34156  289.50 0854.63
2009/04/23 12:55:25.9      44     90     87    101    133  26.3  45.8  34162  289.62 0854.63
2009/04/23 12:55:26.0       7    219     86    220    236   2.0  22.5  34160  289.58 0854.63
2009/04/23 12:55:26.1     -22    250     26    252    254 354.9   5.9  34160  289.56 0854.63
2009/04/23 12:55:26.2     -67    203     71    214    226 341.7  18.4  34156  289.50 0854.63
2009/04/23 12:55:26.3    -156    203     40    257    261 322.4   9.0  34158  289.54 0854.63
2009/04/23 12:55:26.4    -155    165    -20    227    228 316.8  -5.2  34152  289.45 0854.63
2009/04/23 12:55:26.5    -189     75    -25    204    206 291.7  -7.2  34160  289.57 0854.63
2009/04/23 12:55:26.6    -163   -223    -86    277    290 216.1 -22.3  34154  289.47 0854.63
2009/04/23 12:55:26.7      16   -215   -203    216    296 175.6 -52.4  34156  289.49 0854.63
2009/04/23 12:55:26.8     101   -222   -203    245    318 155.5 -48.4  34154  289.46 0854.63
2009/04/23 12:55:26.9      84   -126   -189    152    242 146.2 -61.7  34146  289.35 0854.63
2009/04/23 12:55:27.0    -163   -143    -90    218    235 228.7 -28.2  34152  289.45 0854.63
2009/04/23 12:55:27.1    -292   -161     31    334    336 241.1   5.3  34156  289.50 0854.63
2009/04/23 12:55:27.2    -276   -100     14    294    295 250.1   2.8  34154  289.46 0854.63
2009/04/23 12:55:27.3    -306   -133     77    334    343 246.5  13.1  34152  289.45 0854.61
2009/04/23 12:55:27.4    -301   -120    -14    325    326 248.2  -2.6  34158  289.53 0854.61
2009/04/23 12:55:27.6    -360    -64      5    366    367 259.9   0.8  34154  289.47 0854.61
2009/04/23 12:55:27.6    -539    -35     75    541    547 266.2   7.9  34150  289.40 0854.61
2009/04/23 12:55:27.7    -458     55    -25    462    463 276.9  -3.1  34154  289.46 0854.61
2009/04/23 12:55:27.9    -464     15    -58    465    469 271.9  -7.2  34152  289.45 0854.61
2009/04/23 12:55:28.0    -410      8    -98    411    423 271.2 -13.4  34158  289.53 0854.61
2009/04/23 12:55:28.1    -508     99    -71    518    523 281.1  -7.9  34144  289.31 0854.61
2009/04/23 12:55:28.2    -287     34   -138    290    321 276.8 -31.6  34156  289.51 0854.61
2009/04/23 12:55:28.2    -251    -52   -176    257    311 258.1 -42.0  34154  289.46 0854.61
2009/04/23 12:55:28.4    -379    -12   -202    380    430 268.1 -34.7  34152  289.43 0854.61
2009/04/23 12:55:28.5    -330     73   -215    339    401 282.5 -39.9  34146  289.33 0854.61
2009/04/23 12:55:28.6    -205    319    -62    380    386 327.3  -9.3  34148  289.38 0854.61
2009/04/23 12:55:28.7    -340    141   -146    369    396 292.5 -27.2  34148  289.37 0854.61
2009/04/23 12:55:28.8    -423     59   -144    428    451 278.0 -23.6  34146  289.34 0854.61
2009/04/23 12:55:28.9    -324     87   -114    336    354 285.1 -23.8  34126  288.99 0854.61
2009/04/23 12:55:29.0    -377     -8   -122    378    397 268.7 -23.0  34154  289.47 0854.61
2009/04/23 12:55:29.1    -238   -263   -153    355    386 222.2 -29.3  34158  289.54 0854.61
2009/04/23 12:55:29.2    -302   -161   -120    343    363 242.0 -24.5  34142  289.28 0854.61
2009/04/23 12:55:29.3    -238   -155   -141    285    317 236.9 -32.8  34150  289.39 0854.61
2009/04/23 12:55:29.4    -205   -114    -51    235    241 240.9 -12.4  34160  289.58 0854.61
2009/04/23 12:55:29.5    -147   -202    -91    251    266 216.1 -25.3  34140  289.24 0854.61
2009/04/23 12:55:29.6    -281   -211    -16    352    353 233.1  -2.7  34142  289.26 0854.61
2009/04/23 12:55:29.7    -241   -269   -119    362    382 221.9 -18.3  34162  289.59 0854.61
2009/04/23 12:55:29.8    -296   -145   -241    330    408 243.8 -44.1  34152  289.42 0854.61
2009/04/23 12:55:29.9    -162   -190   -129    250    281 220.5 -33.7  34146  289.32 0854.61
2009/04/23 12:55:30.0      13   -249   -123    250    278 176.9 -32.6  34150  289.39 0854.61
2009/04/23 12:55:30.1      14   -231    -51    232    238 176.4 -12.4  34152  289.42 0854.61
2009/04/23 12:55:30.2     -13   -222    -44    223    228 183.4 -11.3  34154  289.48 0854.61
2009/04/23 12:55:30.3    -163   -215    -34    270    273 217.2  -7.3  34154  289.46 0854.61
2009/04/23 12:55:30.4    -210   -209    -87    297    310 225.1 -16.4  34160  289.56 0854.61
2009/04/23 12:55:30.5    -153   -212   -106    262    282 215.8 -27.5  34148  289.37 0854.61
2009/04/23 12:55:30.6    -279   -249   -114    375    393 228.2 -17.0  34142  289.28 0854.61
2009/04/23 12:55:30.7    -521   -162   -120    546    560 252.7 -12.4  34146  289.33 0854.61
2009/04/23 12:55:30.8    -476   -339    -55    585    588 234.5  -5.5  34144  289.30 0854.61
2009/04/23 12:55:30.9    -349   -463   -150    581    601 217.0 -14.5  34132  289.10 0854.61
2009/04/23 12:55:31.0    -318   -349   -182    473    506 222.3 -26.5  34142  289.28 0854.61
2009/04/23 12:55:31.1    -317   -437    -62    540    544 216.0  -6.6  34144  289.31 0854.61
2009/04/23 12:55:31.2    -276   -434    -56    515    519 212.4  -6.3  34140  289.23 0854.61
2009/04/23 12:55:31.3    -171   -530   -122    557    571 197.9 -12.4  34140  289.24 0854.61
2009/04/23 12:55:31.4    -139   -482    -45    502    505 196.1  -5.2  34142  289.28 0854.61
2009/04/23 12:55:31.5    -182   -401      0    441    442 204.5   0.1  34126  289.00 0854.61
2009/04/23 12:55:31.6    -225   -282   -108    361    377 218.6 -16.7  34136  289.18 0854.61
2009/04/23 12:55:31.7     -82   -298   -128    310    335 195.4 -28.1  34142  289.27 0854.61
2009/04/23 12:55:31.8       4   -237   -124    238    268 178.9 -34.2  34140  289.22 0854.61
2009/04/23 12:55:31.9     186   -217    -77    287    298 139.4 -15.0  34142  289.27 0854.61
2009/04/23 12:55:32.0      74   -261    -69    272    281 164.2 -14.3  34146  289.32 0854.61
2009/04/23 12:55:32.1     310   -128    121    336    357 112.4  20.6  34136  289.18 0854.61
2009/04/23 12:55:32.2     112   -220    -38    248    251 152.9  -8.8  34142  289.27 0854.61
2009/04/23 12:55:32.3      66   -226     77    236    249 163.7  18.1  34144  289.31 0854.61
2009/04/23 12:55:32.4      -6   -177     16    178    179 182.0   5.2  34144  289.30 0854.61
2009/04/23 12:55:32.5     109    -56    -28    123    127 117.1 -12.9  34144  289.30 0854.61
2009/04/23 12:55:32.6       3     38    113     39    119   4.5  80.7  34146  289.35 0854.61
2009/04/23 12:55:32.7    -184    -38      6    189    190 258.1   2.1  34144  289.30 0854.61
2009/04/23 12:55:32.8    -200    -15     47    201    207 265.6  13.2  34146  289.35 0854.61
2009/04/23 12:55:32.9     -97    -46     19    108    110 244.2  10.1  34150  289.41 0854.61
2009/04/23 12:55:33.0     -21     -7    -83     23     86 251.6 -88.3  34148  289.38 0854.61
2009/04/23 12:55:33.1      58    -79    -69     99    120 143.5 -43.0  34146  289.35 0854.61
2009/04/23 12:55:33.2     138     15    -51    139    148  83.4 -25.4  34146  289.33 0854.61
2009/04/23 12:55:33.3     160     40     80    166    184  75.8  27.4  34142  289.26 0854.61
2009/04/23 12:55:33.4     200     27    219    202    297  82.1  52.2  34148  289.37 0854.61
2009/04/23 12:55:33.5     108    -89    162    141    214 129.5  54.6  34152  289.45 0854.61
2009/04/23 12:55:33.6      87   -259    213    274    347 161.3  41.9  34148  289.36 0854.61
2009/04/23 12:55:33.7     121   -206    193    240    307 149.5  43.0  34148  289.37 0854.61
2009/04/23 12:55:33.8     217   -231    215    317    383 136.8  37.4  34146  289.35 0854.61
2009/04/23 12:55:33.9     201   -201    138    285    316 135.0  27.8  34144  289.29 0854.61
2009/04/23 12:55:34.0     214   -200    162    294    335 133.1  31.4  34146  289.32 0854.61
2009/04/23 12:55:34.1     204   -112    149    233    276 118.9  35.6  34152  289.42 0854.61
2009/04/23 12:55:34.2     -32   -238    106    241    263 187.8  25.1  34150  289.41 0854.61
2009/04/23 12:55:34.3       3   -199    181    200    269 179.0  46.9  34148  289.37 0854.61
2009/04/23 12:55:34.4      29   -171    -52    174    181 170.4 -21.5  34148  289.36 0854.61
2009/04/23 12:55:34.5     -11   -195    -63    196    206 183.4 -17.9  34146  289.35 0854.61
2009/04/23 12:55:34.6      20   -116    -19    118    120 170.2  -9.3  34146  289.33 0854.61
2009/04/23 12:55:34.7      15   -219    130    220    255 176.0  33.5  34150  289.41 0854.61
2009/04/23 12:55:34.8     -16   -248     96    249    266 183.8  22.1  34148  289.37 0854.61
2009/04/23 12:55:34.9      30   -243    142    245    283 172.9  32.9  34152  289.44 0854.61
2009/04/23 12:55:35.0       4   -237    172    238    293 179.0  39.7  34142  289.27 0854.61
2009/04/23 12:55:35.1       0   -241    217    242    325 180.0  46.5  34150  289.41 0854.61
2009/04/23 12:55:35.2       2   -130    189    131    229 179.0  62.1  34152  289.45 0854.61
2009/04/23 12:55:35.3      16   -143    133    144    196 173.3  47.7  34150  289.41 0854.61
2009/04/23 12:55:35.4       5   -167    124    168    208 178.2  40.1  34148  289.38 0854.61
2009/04/23 12:55:35.5     -14   -184     65    185    197 184.4  19.6  34150  289.40 0854.61
2009/04/23 12:55:35.6      76    -59     99     97    138 127.8  50.2  34152  289.43 0854.61
2009/04/23 12:55:35.7     134    -14    130    135    187  96.1  49.0  34152  289.45 0854.61
2009/04/23 12:55:35.8     152     11     98    153    181  85.6  35.6  34150  289.40 0854.61
2009/04/23 12:55:35.9     196    162     61    255    263  50.4  13.5  34162  289.59 0854.61
2009/04/23 12:55:36.0     180    167    -13    246    247  47.1  -3.2  34162  289.61 0854.61
2009/04/23 12:55:36.1      95     77      5    123    124  50.9   2.3  34164  289.65 0854.61
2009/04/23 12:55:36.2      91    -75     58    119    132 129.5  27.3  34158  289.53 0854.61
2009/04/23 12:55:36.3      47      3     94     48    105  85.6  70.8  34174  289.80 0854.61
2009/04/23 12:55:36.4       1      0     73      2     73  90.0  90.0  34184  289.99 0854.61
2009/04/23 12:55:36.5     -93    -68    104    116    155 234.1  46.9  34172  289.77 0854.61
2009/04/23 12:55:36.6    -158     31     79    162    180 281.4  27.8  34160  289.57 0854.61
2009/04/23 12:55:36.7    -184    -14     64    185    196 265.6  19.2  34156  289.50 0854.61
2009/04/23 12:55:36.8    -177    -39    102    182    208 257.6  31.6  34156  289.52 0854.61
2009/04/23 12:55:36.9    -176   -121     26    214    216 235.4   7.1  34154  289.46 0854.61
2009/04/23 12:55:37.0    -206   -128     18    243    244 238.2   4.4  34158  289.53 0854.61
2009/04/23 12:55:37.1    -201    -77      3    216    217 248.9   0.8  34162  289.62 0854.61
2009/04/23 12:55:37.2    -184    -41      6    189    190 257.4   2.1  34170  289.74 0854.61
2009/04/23 12:55:37.3     -91    -50     62    105    121 241.1  33.4  34168  289.72 0854.61
2009/04/23 12:55:37.4     -86    -84     72    121    140 225.6  33.5  34166  289.67 0854.60
2009/04/23 12:55:37.5    -188    -88     32    208    211 244.8   8.9  34168  289.72 0854.60
2009/04/23 12:55:37.6    -267   -136      4    300    301 243.0   0.8  34158  289.54 0854.60
2009/04/23 12:55:37.7    -206   -122     46    240    245 239.3  11.0  34160  289.56 0854.60
2009/04/23 12:55:37.8    -204   -157     45    258    263 232.3  10.0  34156  289.51 0854.60
2009/04/23 12:55:37.9    -175   -108      0    206    207 238.2   0.0  34158  289.53 0854.60
2009/04/23 12:55:38.0    -157   -109    -16    192    193 235.1  -4.9  34162  289.62 0854.60
2009/04/23 12:55:38.1    -147    -94     35    175    179 237.4  11.6  34166  289.69 0854.60
2009/04/23 12:55:38.2    -134   -138     -4    193    194 224.3  -1.3  34160  289.57 0854.60
2009/04/23 12:55:38.3    -223   -123     12    255    256 241.1   2.9  34164  289.64 0854.60
2009/04/23 12:55:38.4    -216    -68     18    227    228 252.5   4.6  34174  289.80 0854.60
2009/04/23 12:55:38.5    -238   -126     11    270    271 242.1   2.3  34186  290.02 0854.60
2009/04/23 12:55:38.6    -231    -41    -15    235    236 259.9  -3.7  34180  289.90 0854.60
2009/04/23 12:55:38.7    -173    -81     39    192    197 244.8  11.6  34170  289.74 0854.60
2009/04/23 12:55:38.8     -83    -54     92    100    135 236.7  47.9  34174  289.80 0854.60
2009/04/23 12:55:38.9     -76     11     43     77     88 278.8  31.4  34168  289.70 0854.60
2009/04/23 12:55:39.0     -32    -17     30     37     47 241.1  43.7  34166  289.69 0854.60
2009/04/23 12:55:39.1     -30     -8     23     32     39 254.9  39.7  34172  289.77 0854.60
2009/04/23 12:55:39.2     -49     24     40     55     68 296.2  39.7  34174  289.82 0854.60
2009/04/23 12:55:39.3    -119     10     71    120    139 274.8  33.5  34170  289.74 0854.60
2009/04/23 12:55:39.4    -159     54     28    168    171 288.8   9.5  34156  289.52 0854.58
2009/04/23 12:55:39.5    -173      0     65    174    185 269.9  21.0  34164  289.65 0854.58
2009/04/23 12:55:39.6    -142    -42     51    149    158 253.6  19.2  34174  289.82 0854.58
2009/04/23 12:55:39.7    -141    -78     79    162    180 241.1  27.8  34182  289.96 0854.58
2009/04/23 12:55:39.8    -135    -85     20    160    162 237.6   7.2  34172  289.79 0854.58
2009/04/23 12:55:39.9    -145    -21     51    147    156 261.6  19.4  34172  289.77 0854.58
2009/04/23 12:55:40.0     -98    -47     83    109    137 244.2  41.6  34166  289.67 0854.58
2009/04/23 12:55:40.1    -137   -119    158    182    241 229.1  45.6  34160  289.58 0854.58
2009/04/23 12:55:40.2    -257   -107     53    279    285 247.3  10.8  34222  290.61 0854.58
2009/04/23 12:55:40.3    -233    -76     47    246    251 251.8  11.0  34250  291.09 0854.58
2009/04/23 12:55:40.4    -249    -50    -20    255    256 258.5  -4.6  34246  291.02 0854.60
2009/04/23 12:55:40.5    -217    -74     -5    230    231 251.2  -1.3  34222  290.62 0854.60
2009/04/23 12:55:40.6    -180    -32     21    183    185 259.9   6.7  34218  290.55 0854.60
2009/04/23 12:55:40.7    -181    -34    -58    185    193 259.2 -22.8  34212  290.45 0854.60
2009/04/23 12:55:40.8    -296     52   -101    301    318 280.1 -18.6  34184  289.98 0854.60
2009/04/23 12:55:40.9    -308     35     37    311    314 276.6   6.9  34194  290.15 0854.60
2009/04/23 12:55:41.0    -333    111    -44    352    355 288.5  -7.2  34184  289.98 0854.60
2009/04/23 12:55:41.1    -389     91     -8    400    401 283.3  -1.2  34186  290.01 0854.60
2009/04/23 12:55:41.2    -346     61     71    352    360 280.0  11.4  34192  290.10 0854.60
2009/04/23 12:55:41.3    -341    113    -14    360    361 288.3  -2.2  34174  289.81 0854.60
2009/04/23 12:55:41.4    -332     92     -5    345    346 285.5  -0.9  34156  289.52 0854.60
2009/04/23 12:55:41.5    -320    104    -86    337    348 288.1 -14.4  34164  289.64 0854.60
2009/04/23 12:55:41.6    -296    107    -56    315    321 290.0 -10.1  34156  289.51 0854.60
2009/04/23 12:55:41.7    -266     67     -8    275    276 284.2  -1.8  34164  289.64 0854.60
2009/04/23 12:55:41.8    -331     -4    -25    332    333 269.3  -4.4  34182  289.94 0854.60
2009/04/23 12:55:41.9    -274    -29     -1    276    277 263.8  -0.3  34194  290.14 0854.60
2009/04/23 12:55:42.0    -210    -28    -38    212    216 262.3 -10.3  34178  289.89 0854.60
2009/04/23 12:55:42.1    -181    -39    -46    186    192 257.8 -13.9  34174  289.80 0854.60
2009/04/23 12:55:42.2    -149   -100    -35    180    184 236.0 -11.1  34178  289.89 0854.60
2009/04/23 12:55:42.3    -194    -30    -59    197    206 261.0 -16.8  34172  289.77 0854.60
2009/04/23 12:55:42.4    -198      6    -10    199    200 271.9  -3.1  34170  289.75 0854.63
2009/04/23 12:55:42.5    -234      1      5    235    236 270.4   1.2  34176  289.83 0854.63
2009/04/23 12:55:42.6    -142   -148     48    206    212 223.9  13.1  34172  289.77 0854.63
2009/04/23 12:55:42.7    -183   -172     12    252    253 226.9   2.9  34180  289.90 0854.63
2009/04/23 12:55:42.8    -101   -195     40    220    224 207.4  10.3  34170  289.75 0854.63
2009/04/23 12:55:42.9     -37   -162     50    167    175 192.9  16.8  34170  289.75 0854.63
2009/04/23 12:55:43.0      -3   -149     70    150    165 181.4  26.6  34168  289.72 0854.63
2009/04/23 12:55:43.1      -2   -169     30    170    173 180.9  10.1  34168  289.72 0854.63
2009/04/23 12:55:43.2     -14   -187     22    188    190 184.5   6.7  34166  289.67 0854.63
2009/04/23 12:55:43.3     -26   -186     -3    188    189 188.1  -1.2  34168  289.70 0854.63
2009/04/23 12:55:43.4      13   -233    -70    234    245 176.6 -16.6  34164  289.63 0854.63
2009/04/23 12:55:43.5      16   -250     -9    251    252 176.2  -2.2  34166  289.66 0854.63
2009/04/23 12:55:43.6      11   -238    -31    239    242 177.3  -7.5  34160  289.58 0854.63
2009/04/23 12:55:43.7      -3   -225    -22    226    228 181.0  -5.6  34158  289.55 0854.63
2009/04/23 12:55:43.8      -3   -222     14    223    224 180.9   3.8  34152  289.43 0854.63
2009/04/23 12:55:43.9       0   -273    -19    274    275 180.0  -4.1  34154  289.47 0854.63
2009/04/23 12:55:44.0     -58   -274      4    281    282 192.0   0.8  34152  289.42 0854.63
2009/04/23 12:55:44.1     -58   -210     43    219    224 195.6  11.1  34154  289.46 0854.63
2009/04/23 12:55:44.2     -38   -219     -4    223    224 190.0  -1.3  34154  289.46 0854.63
2009/04/23 12:55:44.3     -83   -244    -18    259    260 198.9  -4.1  34156  289.51 0854.63
2009/04/23 12:55:44.4    -100   -222     -6    244    245 204.3  -1.6  34156  289.51 0854.61
2009/04/23 12:55:44.5     -65   -197     54    208    216 198.5  14.7  34158  289.53 0854.61
2009/04/23 12:55:44.6      11   -154     55    155    164 175.6  20.0  34156  289.52 0854.61
2009/04/23 12:55:44.7      26   -175    103    177    204 171.5  33.1  34156  289.52 0854.61
2009/04/23 12:55:44.8     -23   -210     90    212    230 186.5  24.6  34160  289.57 0854.61
2009/04/23 12:55:44.9     -37   -181    120    185    220 191.6  35.7  34166  289.69 0854.61
2009/04/23 12:55:45.0      12   -183    135    184    228 176.0  39.7  34166  289.69 0854.61
2009/04/23 12:55:45.1       0   -166    134    167    214 180.0  43.0  34166  289.67 0854.61
2009/04/23 12:55:45.2     125   -151     19    197    198 140.3   5.7  34164  289.65 0854.61
2009/04/23 12:55:45.3     107   -224     32    249    252 154.5   7.5  34166  289.66 0854.61
2009/04/23 12:55:45.4      82   -243     21    257    259 161.3   4.9  34160  289.58 0854.61
2009/04/23 12:55:45.5      40   -236     47    240    245 170.3  11.1  34162  289.61 0854.61
2009/04/23 12:55:45.6      86   -242     14    257    258 160.4   3.3  34160  289.56 0854.61
2009/04/23 12:55:45.7      85   -264     18    278    279 162.2   3.8  34160  289.56 0854.61
2009/04/23 12:55:45.8      68   -253    -45    263    267 164.8  -9.8  34158  289.54 0854.61
2009/04/23 12:55:45.9       0   -276     66    277    285 180.0  13.5  34160  289.58 0854.61
2009/04/23 12:55:46.0       2   -239    152    240    284 179.3  35.5  34172  289.78 0854.61
2009/04/23 12:55:46.1     -18   -246    159    247    293 184.4  35.6  34170  289.75 0854.61
2009/04/23 12:55:46.2      54   -270    212    276    348 168.7  41.4  34164  289.64 0854.61
2009/04/23 12:55:46.3      44   -361     80    364    373 172.9  12.5  34162  289.60 0854.61
2009/04/23 12:55:46.4       7   -281     49    282    287 178.4   9.9  34166  289.66 0854.61
2009/04/23 12:55:46.5      25   -300     73    302    311 175.1  13.7  34164  289.63 0854.61
2009/04/23 12:55:46.6       0   -251    104    252    272 180.1  23.6  34166  289.66 0854.61
2009/04/23 12:55:46.7      18   -227     62    228    237 175.3  15.2  34164  289.64 0854.61
2009/04/23 12:55:46.8      -8   -165     99    166    193 182.9  34.0  34164  289.65 0854.61
2009/04/23 12:55:46.9     -29   -165    116    168    204 190.2  37.8  34168  289.70 0854.61
2009/04/23 12:55:47.0      29   -129    106    133    170 167.1  42.7  34166  289.69 0854.61
2009/04/23 12:55:47.1      23    -91     84     94    126 165.7  46.9  34168  289.70 0854.61
2009/04/23 12:55:47.2      45    -30     91     55    106 124.2  65.7  34172  289.77 0854.61
2009/04/23 12:55:47.3     156    -83    106    177    206 118.0  33.5  34166  289.69 0854.61
2009/04/23 12:55:47.4     126   -122    142    176    226 134.2  43.7  34162  289.62 0854.61
2009/04/23 12:55:47.5      87   -183    158    203    257 154.6  41.7  34160  289.56 0854.61
2009/04/23 12:55:47.6     -19   -251    153    252    294 184.5  34.0  34160  289.56 0854.61
2009/04/23 12:55:47.7      25   -247    141    249    286 174.2  32.1  34162  289.59 0854.61
2009/04/23 12:55:47.8      10   -241    154    242    286 177.4  35.5  34162  289.59 0854.61
2009/04/23 12:55:47.9       0   -271    185    272    328 179.9  37.4  34162  289.61 0854.61
2009/04/23 12:55:48.0      21   -240    202    241    314 174.9  44.3  34164  289.63 0854.61
2009/04/23 12:55:48.1       0   -240    132    241    274 179.8  31.3  34158  289.53 0854.61
2009/04/23 12:55:48.2     -26   -240    134    242    276 186.2  31.4  34160  289.58 0854.61
2009/04/23 12:55:48.3     -47   -232     81    237    251 191.6  18.9  34160  289.58 0854.61
2009/04/23 12:55:48.4     -83   -229     58    244    251 200.0  13.5  34158  289.54 0854.60
2009/04/23 12:55:48.5     -15   -167     72    168    182 185.3  24.3  34162  289.60 0854.60
2009/04/23 12:55:48.6      28   -185     20    188    190 171.3   6.1  34158  289.55 0854.60
2009/04/23 12:55:48.7      30   -184     87    187    206 170.7  27.0  34156  289.50 0854.60
2009/04/23 12:55:48.8      25   -174    113    176    209 171.8  35.6  34158  289.55 0854.60
2009/04/23 12:55:48.9      25   -189    130    191    231 172.2  37.6  34162  289.60 0854.60
2009/04/23 12:55:49.0      20   -143    121    145    188 172.0  43.8  34162  289.60 0854.60
2009/04/23 12:55:49.1       3   -124    113    125    168 178.2  46.9  34162  289.60 0854.60
2009/04/23 12:55:49.2       6   -132     60    133    145 177.4  25.7  34158  289.53 0854.60
2009/04/23 12:55:49.3      23   -147     98    149    178 171.1  36.3  34158  289.55 0854.60
2009/04/23 12:55:49.4      54   -139    113    150    187 158.6  40.7  34158  289.55 0854.60
2009/04/23 12:55:49.5      77   -106    113    132    173 143.9  45.1  34160  289.58 0854.60
2009/04/23 12:55:49.6      61    -43    115     75    137 125.1  64.1  34164  289.65 0854.60
2009/04/23 12:55:49.7      87     -3     95     88    129  92.1  52.2  34186  290.01 0854.60
2009/04/23 12:55:49.8      42    -14     75     45     87 108.6  65.7  34178  289.89 0854.60
2009/04/23 12:55:49.9       2      4     44      5     44  32.5  90.0  34178  289.87 0854.60
2009/04/23 12:55:50.0     -42   -126    150    134    201 198.7  53.7  34174  289.80 0854.60
2009/04/23 12:55:50.1     -42    -26    135     50    143 237.6  79.2  34178  289.87 0854.60
2009/04/23 12:55:50.2     -84   -101    116    132    175 219.6  45.8  34176  289.84 0854.60
2009/04/23 12:55:50.3     -88   -142    142    168    219 211.9  44.5  34170  289.74 0854.60
2009/04/23 12:55:50.4    -114   -162    140    199    243 215.2  38.5  34168  289.70 0854.60
2009/04/23 12:55:50.5     -72   -156    120    173    210 204.9  38.0  34168  289.70 0854.60
2009/04/23 12:55:50.6     -68   -152    111    167    200 204.1  37.0  34162  289.62 0854.60
2009/04/23 12:55:50.7     -82   -206     78    223    237 201.8  19.4  34160  289.58 0854.60
2009/04/23 12:55:50.8     -59   -177     95    187    209 198.5  29.1  34160  289.58 0854.60
2009/04/23 12:55:50.9     -57   -106    121    121    171 208.5  50.1  34166  289.67 0854.60
2009/04/23 12:55:51.0     -21    -21    106     30    110 225.1  84.4  34174  289.82 0854.60
2009/04/23 12:55:51.1     -35     60     74     70    101 329.3  51.6  34176  289.84 0854.60
2009/04/23 12:55:51.2     -44     53     13     70     72 320.3  11.1  34176  289.85 0854.60
2009/04/23 12:55:51.3     -63    100    149    119    190 327.5  56.9  34174  289.82 0854.60
2009/04/23 12:55:51.4     -37     58    121     69    139 327.5  68.3  34176  289.85 0854.60
2009/04/23 12:55:51.5    -197      4     97    198    220 271.3  27.8  34172  289.77 0854.60
2009/04/23 12:55:51.6    -130     10     29    131    135 274.4  12.6  34170  289.74 0854.60
2009/04/23 12:55:51.7     106   -172    221    203    300 148.4  52.5  34160  289.58 0854.60
2009/04/23 12:55:51.8      14   -172    269    173    319 175.3  64.4  34160  289.56 0854.60
2009/04/23 12:55:51.9    -126   -208    200    244    315 211.2  43.6  34162  289.61 0854.60
2009/04/23 12:55:52.0     -95   -240    141    259    294 201.6  31.3  34160  289.56 0854.60
2009/04/23 12:55:52.1     -32   -233    110    236    260 188.0  27.0  34162  289.59 0854.60
2009/04/23 12:55:52.2      41   -179    126    184    223 166.9  37.6  34166  289.69 0854.60
2009/04/23 12:55:52.3      51   -191    158    198    253 164.9  42.7  34166  289.66 0854.61
2009/04/23 12:55:52.4      62   -273    155    281    320 167.1  31.5  34162  289.59 0854.61
2009/04/23 12:55:52.5      16   -284    211    285    354 176.6  40.1  34156  289.50 0854.61
2009/04/23 12:55:52.6     199   -212    227    291    369 136.8  42.0  34156  289.52 0854.61
2009/04/23 12:55:52.7     200   -180     58    270    277 132.0  12.2  34168  289.70 0854.61
2009/04/23 12:55:52.8     228   -144     92    270    286 122.4  18.9  34168  289.70 0854.61
2009/04/23 12:55:52.9     183    -65     39    195    199 109.7  11.4  34168  289.72 0854.61
2009/04/23 12:55:53.0     157    -76     54    175    184 115.8  17.1  34168  289.70 0854.61
2009/04/23 12:55:53.1     135   -104     74    171    186 127.5  24.9  34172  289.79 0854.61
2009/04/23 12:55:53.2     128   -110     14    169    170 130.7   4.9  34178  289.87 0854.61
2009/04/23 12:55:53.3      89    -91     -5    128    129 135.5  -2.2  34176  289.85 0854.61
2009/04/23 12:55:53.4      88   -113     32    144    148 142.2  12.6  34172  289.77 0854.61
2009/04/23 12:55:53.5      97   -104     89    143    168 137.2  35.2  34170  289.75 0854.61
2009/04/23 12:55:53.6      37   -193    163    197    255 169.1  43.8  34162  289.59 0854.61
2009/04/23 12:55:53.7     -14   -212    213    213    301 184.0  50.1  34162  289.61 0854.61
2009/04/23 12:55:53.8     140   -169    124    220    252 140.3  32.1  34158  289.54 0854.61
2009/04/23 12:55:53.9      45   -206    105    212    236 167.5  28.2  34160  289.57 0854.61
2009/04/23 12:55:54.0      46   -246    202    251    322 169.3  43.0  34156  289.51 0854.61
2009/04/23 12:55:54.1     -66   -201    212    212    299 198.3  50.1  34162  289.61 0854.61
2009/04/23 12:55:54.2      55   -179    156    188    244 162.8  43.8  34160  289.58 0854.61
2009/04/23 12:55:54.4      43   -255    130    259    289 170.3  28.5  34160  289.56 0854.64
2009/04/23 12:55:54.5      16   -266     62    267    275 176.4  13.2  34162  289.59 0854.64
2009/04/23 12:55:54.6      11   -297     31    298    300 177.8   6.1  34162  289.59 0854.64
2009/04/23 12:55:54.7     -25   -344     39    345    348 184.2   6.5  34162  289.62 0854.64
2009/04/23 12:55:54.8       1   -331     99    332    347 179.8  16.6  34162  289.60 0854.64
2009/04/23 12:55:54.9      25   -264     81    266    279 174.6  17.1  34162  289.59 0854.64
2009/04/23 12:55:55.0      -6   -187     22    188    190 182.0   6.9  34162  289.62 0854.64
2009/04/23 12:55:55.1      54   -194     -4    202    203 164.4  -1.2  34162  289.62 0854.64
2009/04/23 12:55:55.2      -8   -182     16    183    184 182.7   5.2  34162  289.62 0854.64
2009/04/23 12:55:55.3     -42   -133     18    140    142 197.8   7.5  34164  289.65 0854.64
2009/04/23 12:55:55.4     -24   -135     51    138    147 190.2  20.9  34162  289.62 0854.64
2009/04/23 12:55:55.5      86   -127     10    154    155 145.8   3.8  34158  289.55 0854.64
2009/04/23 12:55:55.6       6   -130      8    131    132 177.3   3.8  34160  289.58 0854.64
2009/04/23 12:55:55.7     -12   -126     54    127    138 185.8  24.1  34162  289.62 0854.64
2009/04/23 12:55:55.8     -13   -102     40    103    110 187.6  22.5  34164  289.63 0854.64
2009/04/23 12:55:55.9       0   -108     65    109    126 180.5  33.5  34164  289.63 0854.64
2009/04/23 12:55:56.0     -15    -79     81     81    114 190.7  50.1  34164  289.63 0854.64
2009/04/23 12:55:56.1      -7    -97     97     98    137 184.5  50.0  34168  289.70 0854.64
2009/04/23 12:55:56.2     -40    -67     64     79    101 210.7  43.7  34166  289.67 0854.64
2009/04/23 12:55:56.3     -35    -83     46     91    101 203.2  28.7  34164  289.63 0854.64
2009/04/23 12:55:56.4      -4    -85     56     86    102 183.1  36.0  34160  289.58 0854.63
2009/04/23 12:55:56.5      95    -79     93    124    155 129.6  40.1  34162  289.60 0854.63
2009/04/23 12:55:56.6      88   -112     64    143    156 141.7  25.7  34158  289.53 0854.63
2009/04/23 12:55:56.7      60   -167     50    178    186 160.2  15.8  34158  289.55 0854.63
2009/04/23 12:55:56.8      19   -165     22    167    169 173.3   7.8  34160  289.57 0854.63
2009/04/23 12:55:56.9      31   -112     58    117    130 164.4  27.8  34162  289.60 0854.63
2009/04/23 12:55:57.0     -26    -78      4     83     84 198.5   2.9  34162  289.60 0854.63
2009/04/23 12:55:57.1     -52    -59    -14     79     81 221.4 -10.3  34162  289.60 0854.63
2009/04/23 12:55:57.2     -14    -40     52     43     67 200.0  56.3  34160  289.58 0854.63
2009/04/23 12:55:57.3      53    -97     58    111    125 151.0  29.8  34160  289.57 0854.63
2009/04/23 12:55:57.4      84    -79     60    116    130 133.6  29.3  34160  289.58 0854.63
2009/04/23 12:55:57.5      49    -91     80    104    131 151.9  41.7  34160  289.57 0854.63
2009/04/23 12:55:57.6      15   -141     63    142    155 173.8  25.2  34160  289.58 0854.63
2009/04/23 12:55:57.7      -8    -91     48     92    103 185.3  30.3  34158  289.53 0854.63
2009/04/23 12:55:57.8     -29    -43     24     53     58 214.3  26.2  34164  289.65 0854.63
2009/04/23 12:55:57.9     -40    -73     46     84     95 209.0  31.4  34166  289.69 0854.63
2009/04/23 12:55:58.0     -24    -54     15     60     62 204.5  14.3  34164  289.65 0854.63
2009/04/23 12:55:58.1     -10    -63     32     64     71 189.8  27.3  34162  289.60 0854.63
2009/04/23 12:55:58.2     -23    -86     79     90    119 195.1  45.8  34160  289.57 0854.63
2009/04/23 12:55:58.3     -34   -111     83    117    143 196.9  39.1  34162  289.60 0854.63
2009/04/23 12:55:58.4     -27    -65     75     71    103 202.7  51.6  34166  289.69 0854.61
2009/04/23 12:55:58.5     -44    -36     79     58     98 230.5  60.0  34166  289.69 0854.61
2009/04/23 12:55:58.6     -90    -74     49    117    126 230.5  23.6  34162  289.62 0854.61
2009/04/23 12:55:58.7     -82   -129     34    153    157 212.5  12.6  34160  289.57 0854.61
2009/04/23 12:55:58.8     -65   -150     44    164    170 203.6  15.2  34162  289.60 0854.61
2009/04/23 12:55:58.9       0   -186     37    187    191 180.0  11.4  34164  289.63 0854.61
2009/04/23 12:55:59.0     -32   -115    115    120    166 195.6  49.0  34162  289.60 0854.61
2009/04/23 12:55:59.1     -81   -152    119    173    209 208.3  37.8  34168  289.70 0854.61
2009/04/23 12:55:59.2     -29    -92    169     97    194 197.8  67.5  34170  289.74 0854.61
2009/04/23 12:55:59.3     -17    -27    114     33    118 212.5  83.9  34172  289.79 0854.61
2009/04/23 12:55:59.4     -22    -74    181     78    197 196.9  75.3  34178  289.89 0854.61
2009/04/23 12:55:59.5     -12    -72    148     74    165 189.8  71.4  34172  289.79 0854.61
2009/04/23 12:55:59.6      31    -48    114     58    127 147.5  71.4  34174  289.82 0854.61
2009/04/23 12:55:59.7     101    -27    134    105    170 105.1  57.9  34174  289.82 0854.61
2009/04/23 12:55:59.8       5    -82    162     83    182 176.4  71.1  34170  289.74 0854.61
2009/04/23 12:55:59.9     -49   -150    162    158    226 198.3  50.7  34166  289.69 0854.61
2009/04/23 12:56:00.0     -50   -151    114    160    196 198.3  39.3  34166  289.67 0854.61
2009/04/23 12:56:00.1     -11   -148     73    149    165 184.4  28.0  34164  289.65 0854.61
2009/04/23 12:56:00.2     108   -186     52    216    223 149.7  13.7  34168  289.70 0854.61
2009/04/23 12:56:00.3     170   -170     20    241    242 135.0   4.9  34164  289.63 0854.61
2009/04/23 12:56:00.4     195    -99     36    219    223 117.1   9.5  34156  289.50 0854.59
2009/04/23 12:56:00.5     103   -106     98    148    177 135.9  36.7  34162  289.62 0854.59
2009/04/23 12:56:00.6      60   -171     35    182    186 160.6  11.1  34160  289.58 0854.59
2009/04/23 12:56:00.7      58   -154     65    165    177 159.3  22.8  34160  289.58 0854.59
2009/04/23 12:56:00.8      48   -174     37    181    185 164.4  11.6  34158  289.55 0854.59
2009/04/23 12:56:00.9      24   -171     13    173    174 171.8   4.6  34158  289.55 0854.59
2009/04/23 12:56:01.0      22   -155     -1    157    158 171.9  -0.7  34158  289.53 0854.59
2009/04/23 12:56:01.1      11   -145    -48    146    153 175.5 -23.8  34158  289.55 0854.59
2009/04/23 12:56:01.2      18   -174    -49    175    182 174.0 -15.8  34158  289.55 0854.59
2009/04/23 12:56:01.3      25   -159    -21    162    164 170.9  -7.7  34158  289.55 0854.59
2009/04/23 12:56:01.4      15   -136      6    137    138 173.3   2.8  34158  289.53 0854.58
2009/04/23 12:56:01.5      22   -111     17    114    116 168.4   8.5  34158  289.55 0854.58
2009/04/23 12:56:01.6      37    -98     12    105    106 159.1   6.9  34160  289.58 0854.58
2009/04/23 12:56:01.7      34   -103      6    109    110 161.3   3.3  34160  289.58 0854.58
2009/04/23 12:56:01.8      20    -98     -3    101    102 168.4  -2.2  34160  289.57 0854.58
2009/04/23 12:56:01.9      53    -75      0     92     93 144.8  -0.3  34160  289.57 0854.58
2009/04/23 12:56:02.0      64    -72    -14     97     99 138.1  -8.2  34158  289.55 0854.58
2009/04/23 12:56:02.1      25    -67     -3     72     73 159.1  -3.1  34160  289.57 0854.58
2009/04/23 12:56:02.2       0    -95    -12     96     97 180.5  -7.3  34162  289.60 0854.58
2009/04/23 12:56:02.3     -14    -99    -27    101    105 188.0 -15.4  34158  289.55 0854.58
2009/04/23 12:56:02.4      -9   -106     -8    107    108 185.3  -4.6  34158  289.55 0854.58
2009/04/23 12:56:02.5      -9    -91    -32     92     97 185.8 -23.3  34160  289.57 0854.58
2009/04/23 12:56:02.6     -11   -118    -33    119    123 185.3 -20.2  34160  289.57 0854.58
2009/04/23 12:56:02.7     -24   -176     -8    178    179 187.8  -2.8  34156  289.52 0854.58
2009/04/23 12:56:02.8      -8   -164    -22    165    167 182.9  -7.7  34158  289.53 0854.58
2009/04/23 12:56:02.9       8   -135     -4    136    137 176.4  -1.8  34158  289.53 0854.58
2009/04/23 12:56:03.0       9   -126     44    127    135 175.5  19.4  34152  289.45 0854.58
2009/04/23 12:56:03.1     -15    -92     66     94    114 189.3  38.6  34152  289.43 0854.58
2009/04/23 12:56:03.2     -24   -117     -4    120    121 191.6  -2.2  34152  289.45 0854.58
2009/04/23 12:56:03.3     -17    -91     45     93    103 191.1  27.3  34156  289.50 0854.58
2009/04/23 12:56:03.4     -29    -90     66     95    115 197.8  38.0  34156  289.50 0854.56
2009/04/23 12:56:03.5     -17    -77     98     79    125 192.5  56.9  34156  289.50 0854.56
2009/04/23 12:56:03.6     -38    -80    105     89    137 205.9  55.4  34156  289.52 0854.56
2009/04/23 12:56:03.7     -99    -85     91    131    159 229.1  38.4  34156  289.50 0854.56
2009/04/23 12:56:03.8     -56   -167     60    177    188 198.5  18.9  34156  289.50 0854.56
2009/04/23 12:56:03.9     -23   -226     11    228    229 186.0   2.9  34152  289.43 0854.56
2009/04/23 12:56:04.0       0   -251     12    252    253 180.0   2.9  34158  289.53 0854.56
2009/04/23 12:56:04.1       5   -306     67    307    315 178.9  12.4  34154  289.46 0854.56
2009/04/23 12:56:04.2     -17   -271     24    272    274 183.6   5.2  34160  289.58 0854.56
2009/04/23 12:56:04.3     -59   -301     14    307    308 191.1   2.8  34156  289.49 0854.56
2009/04/23 12:56:04.4     -33   -261     21    264    265 187.2   4.6  34158  289.54 0854.56
2009/04/23 12:56:04.5      39   -201     95    205    225 168.9  27.1  34156  289.52 0854.56
2009/04/23 12:56:04.6      71   -161     51    177    185 156.2  16.3  34158  289.53 0854.56
2009/04/23 12:56:04.7      36    -87     69     95    117 157.7  39.7  34158  289.53 0854.56
2009/04/23 12:56:04.8      -8   -104     65    105    123 184.5  35.5  34156  289.52 0854.56
2009/04/23 12:56:04.9     -95   -115     -9    150    151 219.6  -3.7  34156  289.50 0854.56
2009/04/23 12:56:05.0    -125   -141    -20    189    191 221.4  -6.2  34154  289.46 0854.56
2009/04/23 12:56:05.1    -134   -118      9    179    180 228.7   2.9  34154  289.48 0854.56
2009/04/23 12:56:05.2     -39   -207     80    211    225 190.7  21.5  34158  289.53 0854.56
2009/04/23 12:56:05.3     -36   -213     27    217    219 189.7   7.1  34156  289.50 0854.56
2009/04/23 12:56:05.4     -17   -222     91    223    240 184.4  23.4  34158  289.53 0854.56
2009/04/23 12:56:05.5      -2   -167     71    168    182 180.9  24.1  34158  289.55 0854.56
2009/04/23 12:56:05.6      23   -198     51    200    207 173.1  14.5  34156  289.50 0854.56
2009/04/23 12:56:05.7      21   -155    122    157    198 172.0  41.7  34156  289.52 0854.56
2009/04/23 12:56:05.8      -3   -218    119    219    249 180.9  30.8  34156  289.49 0854.56
2009/04/23 12:56:05.9     -39   -192    123    197    232 191.6  35.5  34156  289.52 0854.56
2009/04/23 12:56:06.0     -47   -181    152    188    241 194.7  43.3  34158  289.53 0854.56
2009/04/23 12:56:06.1     -54   -176    173    185    253 197.2  48.0  34160  289.56 0854.56
2009/04/23 12:56:06.2     -99   -167    156    195    249 210.7  42.8  34158  289.53 0854.56
2009/04/23 12:56:06.3      -7   -162    147    163    219 182.5  46.9  34158  289.55 0854.56
2009/04/23 12:56:06.4       0   -188    165    189    250 179.8  45.8  34158  289.55 0854.56
2009/04/23 12:56:06.5      -9   -117    156    118    195 184.5  59.0  34162  289.62 0854.56
2009/04/23 12:56:06.6     -40   -155    152    161    221 194.7  48.0  34156  289.50 0854.56
2009/04/23 12:56:06.7       9    -67    119     68    137 171.9  68.3  34164  289.65 0854.56
2009/04/23 12:56:06.8     -21   -123    158    125    201 189.8  57.7  34162  289.62 0854.56
2009/04/23 12:56:06.9     -79   -133    128    155    201 210.8  43.7  34158  289.53 0854.56
2009/04/23 12:56:07.0     -59   -116    126    131    181 207.1  49.0  34156  289.52 0854.56
2009/04/23 12:56:07.1     -48   -148    141    156    210 198.3  46.6  34158  289.53 0854.56
2009/04/23 12:56:07.2     -74   -174    140    190    236 203.2  40.4  34156  289.52 0854.56
2009/04/23 12:56:07.3     -71   -169    162    184    245 202.9  45.8  34158  289.53 0854.56
2009/04/23 12:56:07.4    -116   -161    153    199    251 216.0  41.7  34158  289.53 0854.56
2009/04/23 12:56:07.5    -128    -98     77    162    179 232.7  27.2  34158  289.55 0854.56
2009/04/23 12:56:07.6    -104   -157     35    189    193 213.6  10.6  34156  289.52 0854.56
2009/04/23 12:56:07.7     -78   -172     34    190    194 204.5  10.3  34158  289.53 0854.56
2009/04/23 12:56:07.8    -110   -115     39    160    165 223.9  13.7  34158  289.55 0854.56
2009/04/23 12:56:07.9    -114    -55     34    127    132 244.2  15.3  34158  289.53 0854.56
2009/04/23 12:56:08.0      -2    -34     79     35     86 184.4  75.0  34160  289.58 0854.56
2009/04/23 12:56:08.1     -38   -115     96    122    155 198.3  42.7  34158  289.53 0854.56
2009/04/23 12:56:08.2     -61    -84     73    104    127 216.1  38.0  34156  289.50 0854.56
2009/04/23 12:56:08.3     -33    -50     99     60    115 213.4  65.1  34160  289.57 0854.56
2009/04/23 12:56:08.4     -60    -87    131    107    169 214.7  56.4  34162  289.62 0854.56
2009/04/23 12:56:08.5     -55    -89    126    105    164 211.6  56.1  34162  289.60 0854.56
2009/04/23 12:56:08.6     -24   -111    138    114    178 192.5  56.4  34164  289.63 0854.56
2009/04/23 12:56:08.7      -1    -80     86     81    118 180.9  52.1  34166  289.67 0854.56
2009/04/23 12:56:08.8     -72    -75     72    105    127 223.7  37.6  34168  289.70 0854.56
2009/04/23 12:56:08.9     -48   -124     61    134    147 201.4  26.6  34164  289.65 0854.56
2009/04/23 12:56:09.0     -47   -125    103    134    169 200.9  41.4  34162  289.60 0854.56
2009/04/23 12:56:09.1     -30   -118    106    122    161 194.3  45.6  34164  289.63 0854.56
2009/04/23 12:56:09.2     -28   -118     61    122    136 193.4  28.2  34158  289.55 0854.56
2009/04/23 12:56:09.3      -9   -218     59    219    227 182.5  15.2  34160  289.57 0854.56
2009/04/23 12:56:09.4      16   -212     78    213    226 175.5  21.0  34154  289.48 0854.53
2009/04/23 12:56:09.5      42   -310    124    313    336 172.2  22.9  34156  289.52 0854.53
2009/04/23 12:56:09.6      53   -322    115    327    347 170.7  19.4  34158  289.55 0854.53
2009/04/23 12:56:09.7      38   -312    110    315    333 172.9  20.0  34162  289.59 0854.53
2009/04/23 12:56:09.8      33   -309     63    311    318 173.8  11.6  34158  289.53 0854.53
2009/04/23 12:56:09.9      63   -308    111    315    333 168.4  20.2  34160  289.56 0854.53
2009/04/23 12:56:10.0      67   -324    133    332    357 168.2  23.0  34158  289.55 0854.53
2009/04/23 12:56:10.1      96   -298    113    314    334 162.2  19.9  34158  289.53 0854.53
2009/04/23 12:56:10.2      30   -310     81    312    323 174.4  14.7  34156  289.51 0854.53
2009/04/23 12:56:10.3      43   -279     84    283    296 171.1  16.6  34158  289.54 0854.53
2009/04/23 12:56:10.4      73   -134    117    153    192 151.5  41.2  34158  289.53 0854.53
2009/04/23 12:56:10.5     -51   -164    101    172    199 197.4  33.1  34160  289.58 0854.53
2009/04/23 12:56:10.6     -12   -108     82    109    136 186.7  40.7  34162  289.60 0854.53
2009/04/23 12:56:10.7       8   -114    127    115    171 175.6  53.3  34160  289.58 0854.53
2009/04/23 12:56:10.8     -33   -196    127    199    236 189.8  35.6  34164  289.63 0854.53
2009/04/23 12:56:10.9      -5   -168    161    169    233 181.8  48.7  34164  289.63 0854.53
2009/04/23 12:56:11.0     -55   -171     97    180    204 197.8  30.8  34170  289.75 0854.53
2009/04/23 12:56:11.1       0   -165     67    166    179 180.2  23.0  34164  289.65 0854.53
2009/04/23 12:56:11.2      32   -176     65    179    190 169.5  20.4  34156  289.52 0854.53
2009/04/23 12:56:11.3     -32   -173     70    176    189 190.5  23.0  34158  289.55 0854.53
2009/04/23 12:56:11.4     -44   -212    112    217    244 191.8  29.3  34160  289.58 0854.53
2009/04/23 12:56:11.5     -63   -240     72    249    260 194.7  16.3  34164  289.63 0854.53
2009/04/23 12:56:11.6     -12   -211     83    212    227 183.4  22.8  34162  289.60 0854.53
2009/04/23 12:56:11.7     -43   -223     97    228    247 190.9  24.3  34164  289.63 0854.53
2009/04/23 12:56:11.8     -15   -237     94    238    255 183.8  23.0  34158  289.53 0854.53
2009/04/23 12:56:11.9     -42   -249     69    253    263 189.6  15.3  34162  289.61 0854.53
2009/04/23 12:56:12.0     -52   -286     72    291    300 190.5  13.9  34162  289.61 0854.53
2009/04/23 12:56:12.1     -62   -282     40    289    292 192.5   8.0  34164  289.64 0854.53
2009/04/23 12:56:12.2      -8   -227     90    228    245 182.2  23.0  34162  289.59 0854.53
2009/04/23 12:56:12.3     -38   -337     88    340    352 186.6  14.5  34162  289.60 0854.53
2009/04/23 12:56:12.4     -80   -352    113    362    380 192.9  17.4  34164  289.65 0854.53
2009/04/23 12:56:12.5     -66   -301    142    309    340 192.5  26.4  34162  289.59 0854.53
2009/04/23 12:56:12.6     -33   -242    147    245    285 187.8  33.7  34162  289.59 0854.53
2009/04/23 12:56:12.7     -42   -248    141    252    288 189.8  31.4  34162  289.59 0854.53
2009/04/23 12:56:12.8     -92   -284    166    299    341 198.0  31.5  34158  289.55 0854.53
2009/04/23 12:56:12.9     -93   -274    170    290    336 198.9  33.0  34162  289.59 0854.53
2009/04/23 12:56:13.0     -65   -307    115    314    334 192.0  21.0  34164  289.64 0854.53
2009/04/23 12:56:13.1     -48   -318     89    322    335 188.7  15.6  34166  289.67 0854.53
2009/04/23 12:56:13.2     -64   -314     50    321    325 191.6   8.9  34166  289.68 0854.53
2009/04/23 12:56:13.3     -79   -310      2    320    321 194.3   0.5  34158  289.53 0854.53
2009/04/23 12:56:13.4     -67   -214    124    225    256 197.4  31.4  34154  289.47 0854.53
2009/04/23 12:56:13.5     -51   -183     93    191    212 195.6  27.8  34156  289.52 0854.53
2009/04/23 12:56:13.6     -36   -188     98    192    215 190.9  29.2  34158  289.53 0854.53
2009/04/23 12:56:13.7     -60   -183    123    193    228 198.3  35.6  34160  289.57 0854.53
2009/04/23 12:56:13.8     -73   -162     62    178    189 204.3  19.2  34156  289.52 0854.53
2009/04/23 12:56:13.9    -118   -217     98    248    266 208.5  23.0  34158  289.54 0854.53
2009/04/23 12:56:14.0    -163   -183     39    246    250 221.7   9.0  34160  289.58 0854.53
2009/04/23 12:56:14.1    -161   -160      3    228    229 225.1   1.0  34158  289.55 0854.53
2009/04/23 12:56:14.2     -60    -95      5    113    114 212.6   2.8  34160  289.58 0854.53
2009/04/23 12:56:14.3     -83   -100     96    131    162 219.6  39.9  34162  289.62 0854.53
2009/04/23 12:56:14.4     -68   -109    101    129    163 212.1  42.0  34160  289.57 0854.53
2009/04/23 12:56:14.5     -84   -145    113    168    202 210.3  37.0  34164  289.65 0854.53
2009/04/23 12:56:14.6     -88    -79     97    119    153 228.2  43.7  34168  289.70 0854.53
2009/04/23 12:56:14.7    -123    -88      2    152    153 234.5   0.8  34160  289.57 0854.53
2009/04/23 12:56:14.8    -133   -140     14    194    195 223.4   4.4  34168  289.70 0854.53
2009/04/23 12:56:14.9    -161    -78      5    180    181 244.0   1.8  34160  289.58 0854.53
2009/04/23 12:56:15.0    -163    -87     50    185    192 241.8  15.3  34166  289.67 0854.53
2009/04/23 12:56:15.1    -178   -108     17    209    210 238.7   4.9  34160  289.57 0854.53
2009/04/23 12:56:15.2    -129    -56     27    141    144 246.5  11.0  34164  289.63 0854.53
2009/04/23 12:56:15.3    -175     -8     67    176    188 267.2  21.7  34176  289.84 0854.53
2009/04/23 12:56:15.4    -210     -6     35    211    214 268.3   9.5  34176  289.84 0854.52
2009/04/23 12:56:15.5    -188    -14     73    189    202 265.6  22.0  34166  289.67 0854.52
2009/04/23 12:56:15.6    -130    -38     50    136    144 253.6  20.9  34164  289.63 0854.52
2009/04/23 12:56:15.7     -83    -78    101    115    153 226.9  45.9  34164  289.65 0854.52
2009/04/23 12:56:15.8     -59   -225     98    233    252 194.7  24.1  34164  289.63 0854.52
2009/04/23 12:56:15.9       4   -311     40    312    315 179.1   7.4  34158  289.53 0854.52
2009/04/23 12:56:16.0     -87   -241     42    257    261 200.0   9.3  34156  289.51 0854.52
2009/04/23 12:56:16.1     -45   -200    125    206    240 192.9  34.4  34152  289.45 0854.52
2009/04/23 12:56:16.2     -37   -289     79    292    303 187.3  15.3  34158  289.54 0854.52
2009/04/23 12:56:16.3     -23   -296     81    297    308 184.5  15.3  34158  289.54 0854.52
2009/04/23 12:56:16.4     -65   -331      7    338    339 191.2   1.2  34162  289.60 0854.52
2009/04/23 12:56:16.5      74   -232     60    244    252 162.2  13.9  34158  289.53 0854.52
2009/04/23 12:56:16.6      -6   -180    166    181    245 182.0  47.1  34160  289.57 0854.52
2009/04/23 12:56:16.7     -35   -159    155    164    225 192.7  48.0  34162  289.62 0854.52
2009/04/23 12:56:16.8     -32   -134    141    138    197 193.8  50.7  34164  289.65 0854.52
2009/04/23 12:56:16.9     -22   -130    169    132    214 189.7  58.2  34164  289.63 0854.52
2009/04/23 12:56:17.0      33   -239    149    242    284 172.0  34.5  34162  289.59 0854.52
2009/04/23 12:56:17.1       0   -208    153    209    259 180.0  39.7  34162  289.59 0854.52
2009/04/23 12:56:17.2      -4   -226    140    227    266 181.1  34.8  34164  289.64 0854.52
2009/04/23 12:56:17.3      52   -278    125    283    309 169.3  25.3  34158  289.53 0854.52
2009/04/23 12:56:17.4      85   -249     95    264    281 161.1  19.9  34158  289.54 0854.51
2009/04/23 12:56:17.5      61   -181    128    192    230 161.3  36.5  34160  289.58 0854.51
2009/04/23 12:56:17.6      85   -341    100    352    367 166.0  15.9  34162  289.60 0854.51
2009/04/23 12:56:17.7      79   -389     81    398    407 168.4  11.6  34158  289.53 0854.51
2009/04/23 12:56:17.8      81   -325     79    335    345 166.0  13.3  34154  289.48 0854.51
2009/04/23 12:56:17.9     155   -315     21    352    353 153.8   3.5  34158  289.55 0854.51
2009/04/23 12:56:18.0     124   -300     30    325    327 157.5   5.4  34154  289.47 0854.51
2009/04/23 12:56:18.1     126   -266     34    295    298 154.5   6.7  34152  289.42 0854.51
2009/04/23 12:56:18.2     126   -212     32    247    250 149.2   7.5  34156  289.51 0854.51
2009/04/23 12:56:18.3     157   -235     66    283    291 146.2  13.1  34156  289.49 0854.51
2009/04/23 12:56:18.4     102   -210    118    234    262 154.1  29.1  34152  289.44 0854.51
2009/04/23 12:56:18.5      96   -187    147    211    257 152.8  38.5  34154  289.46 0854.51
2009/04/23 12:56:18.6     118   -185    131    220    256 147.5  33.5  34152  289.44 0854.51
2009/04/23 12:56:18.7      81   -215     92    230    247 159.3  23.0  34152  289.44 0854.51
2009/04/23 12:56:18.8      73   -192     90    206    224 159.1  25.2  34150  289.41 0854.51
2009/04/23 12:56:18.9      52   -182     91    190    210 164.0  27.3  34154  289.48 0854.51
2009/04/23 12:56:19.0      93   -168     89    193    212 151.0  26.6  34154  289.46 0854.51
2009/04/23 12:56:19.1      88   -138     78    164    181 147.4  27.2  34152  289.43 0854.51
2009/04/23 12:56:19.2      83    -91     97    124    157 137.7  42.2  34154  289.46 0854.51
2009/04/23 12:56:19.3      83    -72     80    111    136 130.9  39.5  34156  289.50 0854.51
2009/04/23 12:56:19.4      67    -74     72    101    124 137.7  39.1  34156  289.50 0854.49
2009/04/23 12:56:19.5      40    -77     46     88     99 152.4  30.3  34156  289.52 0854.49
2009/04/23 12:56:19.6       1    -65     23     66     70 179.1  19.4  34158  289.55 0854.49
2009/04/23 12:56:19.7      32    -90    -11     96     97 160.4  -6.7  34154  289.46 0854.49
2009/04/23 12:56:19.8      63    -59    -47     87     98 133.6 -35.7  34154  289.48 0854.49
2009/04/23 12:56:19.9      92    -49    -29    105    110 118.0 -15.5  34152  289.45 0854.49
2009/04/23 12:56:20.0      83    -51    -32     98    103 121.5 -23.8  34152  289.45 0854.49
2009/04/23 12:56:20.1      60    -28    -33     67     74 115.4 -31.7  34154  289.48 0854.49
2009/04/23 12:56:20.2      50    -22    -34     55     64 114.4 -39.9  34154  289.46 0854.49
2009/04/23 12:56:20.3      66    -22    -38     70     79 109.1 -35.2  34158  289.53 0854.49
2009/04/23 12:56:20.4      74    -25    -42     79     89 108.6 -34.7  34158  289.53 0854.49
2009/04/23 12:56:20.5      32      0    -35     33     48  90.0 -54.5  34160  289.58 0854.49
2009/04/23 12:56:20.6      38      2    -29     39     48  85.6 -45.1  34160  289.58 0854.49
2009/04/23 12:56:20.7      32     13    -22     35     41  66.5 -39.9  34162  289.62 0854.49
2009/04/23 12:56:20.8       9     27    -22     29     36  20.0 -46.1  34160  289.57 0854.49
2009/04/23 12:56:20.9      36     15    -19     40     44  67.4 -30.6  34158  289.55 0854.49
2009/04/23 12:56:21.1      23      0    -24     24     33  90.0 -54.5  34158  289.53 0854.49
2009/04/23 12:56:21.1      40    -19     -4     45     46 116.2  -5.2  34162  289.60 0854.49
2009/04/23 12:56:21.3      44    -28      6     53     54 122.4   6.9  34160  289.57 0854.49
2009/04/23 12:56:21.4      31    -26     13     41     44 130.4  18.4  34158  289.55 0854.50
2009/04/23 12:56:21.5      26     -7     33     27     42 105.1  55.4  34158  289.53 0854.50
2009/04/23 12:56:21.5      26      0     40     27     48  90.0  63.6  34156  289.52 0854.50
2009/04/23 12:56:21.7      37    -14     49     40     63 111.7  56.4  34160  289.57 0854.50
2009/04/23 12:56:21.8      67    -24     50     72     87 110.0  38.0  34166  289.69 0854.50
2009/04/23 12:56:21.9      44      0     57     45     72  90.8  56.4  34172  289.77 0854.50
2009/04/23 12:56:22.0      39     52     45     66     79  37.0  37.6  34166  289.67 0854.50
2009/04/23 12:56:22.1      61     52     53     81     96  49.6  35.6  34158  289.53 0854.50
2009/04/23 12:56:22.2      85     31     90     91    127  69.6  50.0  34158  289.53 0854.50
2009/04/23 12:56:22.3      41     43     92     60    109  44.2  64.6  34158  289.53 0854.50
2009/04/23 12:56:22.4      65     52     98     84    129  51.4  55.4  34156  289.50 0854.50
2009/04/23 12:56:22.5      57     54    102     79    129  46.9  58.5  34156  289.50 0854.50
2009/04/23 12:56:22.6      94     19     57     97    112  78.1  33.5  34156  289.52 0854.50
2009/04/23 12:56:22.7      56     15     46     59     74  74.9  42.7  34160  289.58 0854.50
2009/04/23 12:56:22.8      55     22     25     60     65  68.3  23.0  34160  289.57 0854.50
2009/04/23 12:56:22.9      49      7      7     50     51  81.2   8.0  34160  289.57 0854.50
2009/04/23 12:56:23.0      50     16     -4     53     54  71.6  -5.2  34158  289.55 0854.50
2009/04/23 12:56:23.1      44     20    -23     49     54  65.6 -31.5  34166  289.69 0854.50
2009/04/23 12:56:23.2      37    -44    -55     58     79 140.3 -53.4  34184  289.99 0854.50
2009/04/23 12:56:23.3      64    -26    -47     70     84 111.8 -40.9  34190  290.08 0854.50
2009/04/23 12:56:23.4      54    -22    -37     59     69 112.6 -39.9  34184  289.97 0854.50
2009/04/23 12:56:23.5      -7    -38    -16     39     42 191.6 -27.4  34176  289.85 0854.50
2009/04/23 12:56:23.6     -55    -36     30     67     73 236.7  26.2  34176  289.85 0854.50
2009/04/23 12:56:23.7     -28    -18     42     34     54 237.6  56.4  34170  289.75 0854.50
2009/04/23 12:56:23.8     -66    -48     18     82     85 234.1  12.6  34176  289.85 0854.50
2009/04/23 12:56:23.9     -63    -66     37     92     99 223.7  23.0  34166  289.69 0854.50
2009/04/23 12:56:24.0     -36    -58     35     69     77 211.6  28.2  34160  289.57 0854.50
2009/04/23 12:56:24.1       0    -45     44     46     63 180.9  50.0  34162  289.60 0854.50
2009/04/23 12:56:24.2      10    -53     43     55     69 168.5  42.7  34166  289.67 0854.50
2009/04/23 12:56:24.3      44    -78     17     90     92 150.1  11.0  34166  289.69 0854.50
2009/04/23 12:56:24.4      39    -72     -3     82     83 151.5  -2.2  34166  289.69 0854.52
2009/04/23 12:56:24.5      45    -56     -9     73     74 141.3  -7.2  34170  289.74 0854.52
2009/04/23 12:56:24.6      14    -65     -8     67     68 167.5  -7.2  34162  289.60 0854.52
2009/04/23 12:56:24.7      26    -72     -3     77     78 160.0  -2.2  34162  289.62 0854.52
2009/04/23 12:56:24.8      24    -71      3     75     76 161.3   2.9  34166  289.67 0854.52
2009/04/23 12:56:24.9       0    -93     32     94    100 179.5  19.2  34162  289.60 0854.52
2009/04/23 12:56:25.0       5    -93     39     94    101 176.9  23.1  34158  289.55 0854.52
2009/04/23 12:56:25.1       1   -112     50    113    123 179.1  25.1  34158  289.53 0854.52
2009/04/23 12:56:25.2       0   -114     56    115    127 180.0  27.3  34154  289.48 0854.52
2009/04/23 12:56:25.3      -1   -120     52    121    131 180.9  25.1  34154  289.48 0854.52
2009/04/23 12:56:25.4      18   -130     66    132    147 171.9  28.2  34156  289.50 0854.52
2009/04/23 12:56:25.5      41   -121     54    128    138 161.3  24.1  34160  289.57 0854.52
2009/04/23 12:56:25.6      46   -111     66    121    137 157.3  31.3  34160  289.58 0854.52
2009/04/23 12:56:25.7      49   -139     68    148    162 160.4  26.2  34160  289.58 0854.52
2009/04/23 12:56:25.8      19   -139     33    141    145 172.0  13.2  34160  289.57 0854.52
2009/04/23 12:56:25.9      39   -128     68    134    150 163.1  29.2  34162  289.60 0854.52
2009/04/23 12:56:26.0      36   -127     83    133    156 164.0  35.0  34160  289.57 0854.52
2009/04/23 12:56:26.1     -13   -119    135    120    180 186.7  53.7  34160  289.57 0854.52
2009/04/23 12:56:26.2     -23   -111    106    114    155 192.0  47.9  34162  289.60 0854.52
2009/04/23 12:56:26.3     -28   -117    107    121    161 193.8  46.4  34162  289.60 0854.52
2009/04/23 12:56:26.4      -1   -110     95    111    146 180.9  45.4  34162  289.60 0854.51
2009/04/23 12:56:26.5      -1    -98     98     99    139 180.9  50.0  34162  289.62 0854.51
2009/04/23 12:56:26.6      -6   -140     98    141    171 182.7  38.0  34162  289.60 0854.51
2009/04/23 12:56:26.7     -13   -127    121    128    176 186.2  48.2  34162  289.60 0854.51
2009/04/23 12:56:26.8       6   -107    141    108    177 176.4  58.7  34164  289.63 0854.51
2009/04/23 12:56:26.9     -64   -210    164    220    274 197.0  40.6  34162  289.59 0854.51
2009/04/23 12:56:27.0    -105   -183    101    212    234 209.9  27.2  34160  289.57 0854.51
2009/04/23 12:56:27.1    -108   -182     52    212    219 210.8  13.9  34160  289.58 0854.51
2009/04/23 12:56:27.2    -124   -202     30    238    240 211.6   7.2  34160  289.58 0854.51
2009/04/23 12:56:27.3    -112   -194     19    225    226 210.1   4.9  34158  289.55 0854.51
2009/04/23 12:56:27.4    -143   -195     38    243    247 216.3   8.9  34162  289.59 0854.51
2009/04/23 12:56:27.5    -158   -180     28    240    242 221.2   6.9  34160  289.58 0854.51
2009/04/23 12:56:27.6    -157   -167      0    230    231 223.3   0.0  34162  289.60 0854.51
2009/04/23 12:56:27.7    -123   -192     -6    229    230 212.7  -1.6  34164  289.63 0854.51
2009/04/23 12:56:27.8     -62   -226    -11    235    236 195.4  -2.8  34164  289.63 0854.51
2009/04/23 12:56:27.9    -144   -218      0    262    263 213.4   0.0  34164  289.64 0854.51
2009/04/23 12:56:28.0     -58   -295      9    301    302 191.1   1.8  34168  289.70 0854.51
2009/04/23 12:56:28.1     -91   -378     91    389    400 193.7  13.2  34176  289.84 0854.51
2009/04/23 12:56:28.2    -171   -352     68    392    398 205.9   9.9  34168  289.72 0854.51
2009/04/23 12:56:28.3     -79   -382    177    391    429 191.7  26.2  34168  289.72 0854.51
2009/04/23 12:56:28.4     -88   -432    190    442    481 191.6  24.8  34178  289.86 0854.49
2009/04/23 12:56:28.5      -3   -376    123    377    397 180.6  18.2  34162  289.60 0854.49
2009/04/23 12:56:28.6      78   -352      5    361    362 167.5   0.9  34164  289.64 0854.49
2009/04/23 12:56:28.7      24   -351    105    352    368 176.0  16.6  34170  289.74 0854.49
2009/04/23 12:56:28.8     -30   -366     89    368    379 184.8  13.7  34178  289.86 0854.49
2009/04/23 12:56:28.9     -52   -349     68    353    360 188.5  11.0  34182  289.94 0854.49
2009/04/23 12:56:29.0     -68   -379    175    386    423 190.3  26.2  34192  290.11 0854.49
2009/04/23 12:56:29.1    -112   -294     68    315    323 200.9  12.3  34170  289.73 0854.49
2009/04/23 12:56:29.2     -54   -267    133    273    303 191.6  27.4  34186  290.02 0854.49
2009/04/23 12:56:29.3     -75   -346    138    355    380 192.3  22.4  34168  289.72 0854.49
2009/04/23 12:56:29.4    -110   -307    107    327    345 199.8  18.1  34166  289.69 0854.49
2009/04/23 12:56:29.5     -56   -235     44    242    246 193.6  10.3  34170  289.73 0854.49
2009/04/23 12:56:29.6      13   -305     43    306    310 177.4   8.0  34166  289.68 0854.49
2009/04/23 12:56:29.7      49   -298     82    303    314 170.7  15.2  34170  289.73 0854.49
2009/04/23 12:56:29.8     156   -244     99    290    307 147.4  18.9  34168  289.70 0854.49
2009/04/23 12:56:29.9     197   -188     87    273    287 133.6  17.7  34162  289.59 0854.49
2009/04/23 12:56:30.0     221   -168     64    278    286 127.3  13.1  34160  289.58 0854.49
2009/04/23 12:56:30.1     133   -180    135    224    261 143.5  34.2  34156  289.49 0854.49
2009/04/23 12:56:30.2     112   -280    147    302    335 158.2  27.8  34160  289.58 0854.49
2009/04/23 12:56:30.3      61   -242    171    250    302 165.7  37.6  34164  289.63 0854.49
2009/04/23 12:56:30.4       4   -200    207    201    288 178.6  50.7  34164  289.64 0854.50
2009/04/23 12:56:30.5     -62   -185    178    196    264 198.5  47.0  34168  289.71 0854.50
2009/04/23 12:56:30.6     -94   -245      5    263    264 201.0   1.2  34162  289.59 0854.50
2009/04/23 12:56:30.7     -85   -301    -34    313    315 195.8  -6.3  34174  289.80 0854.50
2009/04/23 12:56:30.8    -140   -314    -35    344    346 204.1  -5.9  34170  289.74 0854.50
2009/04/23 12:56:30.9    -191   -308     19    363    364 211.9   3.1  34174  289.81 0854.50
2009/04/23 12:56:31.0     -56   -267      8    274    275 192.0   1.8  34180  289.92 0854.50
2009/04/23 12:56:31.1    -126   -205     15    241    242 211.6   3.6  34168  289.71 0854.50
2009/04/23 12:56:31.2    -152   -175     17    232    233 221.0   4.2  34168  289.71 0854.50
2009/04/23 12:56:31.3    -144   -174     21    226    228 219.6   5.4  34166  289.67 0854.50
2009/04/23 12:56:31.4    -141   -131     28    193    196 227.1   8.5  34166  289.67 0854.50
2009/04/23 12:56:31.5    -112   -150     30    188    191 216.7   9.3  34166  289.69 0854.50
2009/04/23 12:56:31.6    -145   -199    -17    247    248 216.1  -4.1  34164  289.63 0854.50
2009/04/23 12:56:31.7    -141   -193    -21    240    241 216.1  -5.2  34164  289.63 0854.50
2009/04/23 12:56:31.8    -150   -160     19    220    221 223.3   5.0  34164  289.65 0854.50
2009/04/23 12:56:31.9     -86   -180     11    200    201 205.5   3.3  34166  289.67 0854.50
2009/04/23 12:56:32.0     -54   -177      1    186    187 197.2   0.5  34168  289.70 0854.50
2009/04/23 12:56:32.1     -79   -189     -8    205    206 202.7  -2.2  34164  289.63 0854.50
2009/04/23 12:56:32.2     -40   -149    -19    155    157 195.1  -7.2  34162  289.62 0854.50
2009/04/23 12:56:32.3     -42   -126     31    133    137 198.5  13.1  34162  289.60 0854.50
2009/04/23 12:56:32.4     -30   -150     53    154    164 191.6  19.2  34164  289.63 0854.49
2009/04/23 12:56:32.5     -20   -201     15    203    204 185.8   4.2  34156  289.50 0854.49
2009/04/23 12:56:32.6      16   -165    -16    166    167 174.4  -5.6  34152  289.45 0854.49
2009/04/23 12:56:32.7     -71   -210    -54    222    229 198.7 -13.7  34152  289.43 0854.49
2009/04/23 12:56:32.8     -79   -237    -13    250    251 198.5  -3.2  34154  289.47 0854.49
2009/04/23 12:56:32.9    -143   -264    -59    301    307 208.5 -11.1  34154  289.47 0854.49
2009/04/23 12:56:33.0    -152   -196    -19    249    250 217.9  -4.4  34152  289.42 0854.49
2009/04/23 12:56:33.1     -91   -192   -119    213    243 205.5 -36.3  34156  289.49 0854.49
2009/04/23 12:56:33.2    -177   -225   -163    287    330 218.1 -36.7  34148  289.37 0854.49
2009/04/23 12:56:33.3    -131   -193   -165    234    286 214.3 -43.0  34138  289.19 0854.49
2009/04/23 12:56:33.4     -47   -198   -133    204    243 193.4 -40.4  34146  289.33 0854.49
2009/04/23 12:56:33.5     -35   -254   -107    257    278 188.0 -28.5  34146  289.32 0854.49
2009/04/23 12:56:33.6     -16   -196    -98    197    220 184.7 -32.6  34142  289.28 0854.49
2009/04/23 12:56:33.7     -13   -173    -61    174    185 184.4 -19.6  34146  289.35 0854.49
2009/04/23 12:56:33.8     -19   -124    -46    126    134 188.9 -24.8  34144  289.31 0854.49
2009/04/23 12:56:33.9    -129   -146    -41    196    201 221.4 -11.9  34146  289.35 0854.49
2009/04/23 12:56:34.0    -167   -113    -64    202    212 235.8 -17.6  34138  289.21 0854.49
2009/04/23 12:56:34.1    -179   -110    -63    211    220 238.5 -21.7  34144  289.31 0854.49
2009/04/23 12:56:34.2    -222     10    -74    223    234 272.8 -23.6  34148  289.36 0854.49
2009/04/23 12:56:34.3    -200    -44    -88    205    223 257.4 -29.0  34154  289.48 0854.49
2009/04/23 12:56:34.4    -108   -104    -64    151    164 226.0 -28.5  34150  289.41 0854.55
2009/04/23 12:56:34.5     -51   -115    -45    126    134 204.1 -19.7  34152  289.45 0854.55
2009/04/23 12:56:34.6     -12    -95    -47     96    106 187.6 -32.2  34148  289.38 0854.55
2009/04/23 12:56:34.7     -21    -78    -44     81     92 195.6 -35.2  34146  289.35 0854.55
2009/04/23 12:56:34.8     -39    -44    -45     60     75 221.4 -44.1  34150  289.40 0854.55
2009/04/23 12:56:34.9     -24    -27    -16     37     40 221.4 -29.5  34148  289.38 0854.55
2009/04/23 12:56:35.0       1    -24    -18     25     30 177.3 -44.1  34150  289.40 0854.55
2009/04/23 12:56:35.1       0     10      0     11     12   4.5  -1.3  34152  289.45 0854.55
2009/04/23 12:56:35.2      -1    -10     24     11     26 188.0  75.0  34154  289.48 0854.55
2009/04/23 12:56:35.3       8    -25     34     27     43 161.3  57.5  34152  289.45 0854.55
2009/04/23 12:56:35.4      45    -34     15     57     60 127.8  15.3  34150  289.41 0854.55
2009/04/23 12:56:35.5      56    -30     17     64     67 118.9  15.3  34148  289.38 0854.55
2009/04/23 12:56:35.6      40    -10     23     42     47 105.1  31.4  34150  289.41 0854.55
2009/04/23 12:56:35.7      14      3     22     15     26  74.9  64.6  34152  289.45 0854.55
2009/04/23 12:56:35.8      34      0      6     35     36  90.0  11.1  34154  289.46 0854.55
2009/04/23 12:56:35.9      40     25      0     48     49  57.6  -0.3  34154  289.48 0854.55
2009/04/23 12:56:36.0      37     32     61     50     78  48.7  56.4  34156  289.50 0854.55
2009/04/23 12:56:36.1      68      8     52     69     86  83.0  40.7  34154  289.46 0854.55
2009/04/23 12:56:36.2      51     46     40     69     79  47.8  32.9  34154  289.46 0854.55
2009/04/23 12:56:36.3      74     22     52     78     93  73.2  36.5  34148  289.36 0854.55
2009/04/23 12:56:36.4      64    -17     33     67     74 105.1  27.3  34150  289.41 0854.55
2009/04/23 12:56:36.5      32     -2      5     33     34  94.4   9.0  34150  289.41 0854.55
2009/04/23 12:56:36.6      31      3    -12     32     34  83.9 -23.3  34150  289.41 0854.55
2009/04/23 12:56:36.7      16    -18    -24     25     34 138.6 -56.4  34152  289.43 0854.55
2009/04/23 12:56:36.8      14    -22    -19     27     33 147.5 -44.1  34150  289.41 0854.55
2009/04/23 12:56:36.9      13    -22     -7     26     27 149.3 -15.5  34152  289.43 0854.55
2009/04/23 12:56:37.0       8    -20     16     22     27 156.4  39.7  34148  289.38 0854.55
2009/04/23 12:56:37.1      36      2     10     37     39  85.6  16.3  34152  289.43 0854.55
2009/04/23 12:56:37.2      36    -12     -3     39     40 108.6  -5.2  34152  289.43 0854.55
2009/04/23 12:56:37.3       0     26    -41     27     49 359.1 -68.0  34152  289.45 0854.55
2009/04/23 12:56:37.4     -11     27   -101     30    105 338.2 -87.2  34156  289.50 0854.55
2009/04/23 12:56:37.5      37     12    -96     39    103  71.8 -81.5  34158  289.53 0854.55
2009/04/23 12:56:37.6      33    -23   -121     41    127 124.2 -85.6  34158  289.53 0854.55
2009/04/23 12:56:37.7      -9      2   -129     10    129 285.1 -90.0  34154  289.48 0854.55
2009/04/23 12:56:37.8     -84    -45   -200     96    221 241.6 -77.2  34148  289.38 0854.55
2009/04/23 12:56:37.9      60     73   -157     95    183  39.7 -70.1  34152  289.43 0854.55
2009/04/23 12:56:38.0      42    -29   -158     52    166 125.1 -85.1  34156  289.50 0854.55
2009/04/23 12:56:38.1      21    -86   -225     89    241 165.7 -81.8  34154  289.48 0854.55
2009/04/23 12:56:38.2     -33    -45   -220     56    227 216.1 -90.0  34152  289.45 0854.55
2009/04/23 12:56:38.3      27     17   -216     33    218  57.5 -90.0  34152  289.45 0854.55
2009/04/23 12:56:38.4    -240    -11   -210    241    319 267.2 -50.0  34148  289.36 0854.56
2009/04/23 12:56:38.5     -85    -38   -196     94    217 246.0 -77.2  34152  289.43 0854.56
2009/04/23 12:56:38.6     -80    -62   -194    102    219 232.2 -74.4  34156  289.52 0854.56
2009/04/23 12:56:38.7    -107    -63   -257    125    285 239.3 -77.1  34160  289.58 0854.56
2009/04/23 12:56:38.8       1    -17    -93     18     94 175.5 -90.0  34162  289.60 0854.56
2009/04/23 12:56:38.9      66     13   -105     68    125  78.6 -69.0  34160  289.57 0854.56
2009/04/23 12:56:39.0     103    -63   -121    121    171 121.5 -54.5  34156  289.50 0854.56
2009/04/23 12:56:39.1      96     74   -104    122    160  52.2 -49.5  34168  289.72 0854.56
2009/04/23 12:56:39.2     163     63   -100    176    202  68.7 -36.8  34172  289.77 0854.56
2009/04/23 12:56:39.3     181     35   -138    185    230  78.8 -44.8  34178  289.89 0854.56
2009/04/23 12:56:39.4     152    -41    -98    158    185 105.1 -39.6  34180  289.91 0854.56
2009/04/23 12:56:39.5     177     35    -68    181    193  78.6 -25.7  34176  289.84 0854.56
2009/04/23 12:56:39.6     183     14    -36    184    188  85.6 -11.3  34172  289.77 0854.56
2009/04/23 12:56:39.7      78    150    -43    170    176  27.4 -14.3  34180  289.92 0854.56
2009/04/23 12:56:39.8      -8    119   -107    120    160 356.0 -50.8  34172  289.77 0854.56
2009/04/23 12:56:39.9     -82     52      2     98     99 302.4   1.2  34176  289.85 0854.56
2009/04/23 12:56:40.0     -66   -139    -19    154    156 205.5  -7.3  34176  289.84 0854.56
2009/04/23 12:56:40.1       0   -195     24    196    198 180.2   7.2  34174  289.80 0854.56
2009/04/23 12:56:40.2      -8   -130    -47    131    140 183.6 -19.7  34172  289.79 0854.56
2009/04/23 12:56:40.3     128    -65     -8    144    145 117.0  -3.2  34166  289.69 0854.56
2009/04/23 12:56:40.4     292     86      6    305    306  73.6   1.2  34166  289.68 0854.58
2009/04/23 12:56:40.5     287    125    100    314    330  66.5  17.7  34168  289.71 0854.58
2009/04/23 12:56:40.6     275    130    184    305    356  64.6  33.8  34158  289.55 0854.58
2009/04/23 12:56:40.7     307    164    228    349    416  61.9  36.3  34164  289.65 0854.58
2009/04/23 12:56:40.8     298    225    209    374    428  53.0  31.6  34158  289.53 0854.58
2009/04/23 12:56:40.9     253    202    255    324    412  51.4  42.2  34152  289.42 0854.58
2009/04/23 12:56:41.0     131    106    259    169    309  50.9  64.4  34154  289.47 0854.58
2009/04/23 12:56:41.1     112    146    336    185    383  37.6  68.9  34182  289.93 0854.58
2009/04/23 12:56:41.2      52     50    153     73    169  45.9  72.8  34178  289.89 0854.58
2009/04/23 12:56:41.3      12     12    129     18    130  45.0  90.0  34172  289.77 0854.58
2009/04/23 12:56:41.4     141    -16    142    142    200  96.6  50.1  34182  289.94 0854.58
2009/04/23 12:56:41.5     115    -89    135    146    198 127.8  47.9  34180  289.91 0854.58
2009/04/23 12:56:41.6     173   -121    105    212    236 125.1  28.2  34172  289.79 0854.58
2009/04/23 12:56:41.7     116   -152     61    192    202 142.6  17.7  34172  289.79 0854.58
2009/04/23 12:56:41.8     140   -115     75    182    196 129.3  23.6  34166  289.67 0854.58
2009/04/23 12:56:41.9     125   -210    115    245    270 149.3  27.1  34170  289.73 0854.58
2009/04/23 12:56:42.0     174   -125    161    215    268 125.7  40.7  34172  289.78 0854.58
2009/04/23 12:56:42.1     111   -228    106    254    275 153.9  24.1  34166  289.68 0854.58
2009/04/23 12:56:42.2     117   -156    127    196    233 143.0  35.6  34164  289.63 0854.58
2009/04/23 12:56:42.3      91   -176    142    199    244 152.6  38.8  34156  289.50 0854.58
2009/04/23 12:56:42.4     117   -155    153    195    247 142.8  42.2  34162  289.62 0854.57
2009/04/23 12:56:42.5     103   -218    173    242    297 154.7  39.3  34166  289.66 0854.57
2009/04/23 12:56:42.6      95    -81    115    126    170 130.4  47.1  34166  289.67 0854.57
2009/04/23 12:56:42.7      38   -123     93    129    159 162.6  39.3  34168  289.70 0854.57
2009/04/23 12:56:42.8      71   -227     73    238    250 162.6  17.1  34164  289.64 0854.57
2009/04/23 12:56:42.9     136   -188    215    233    317 144.0  47.6  34162  289.59 0854.57
2009/04/23 12:56:43.0      14   -329      5    330    331 177.4   0.9  34158  289.54 0854.57
2009/04/23 12:56:43.1     224   -271     18    352    353 140.4   3.0  34162  289.62 0854.57
2009/04/23 12:56:43.2     170   -160     32    234    237 133.2   7.8  34156  289.51 0854.57
2009/04/23 12:56:43.3     153   -153    115    217    245 135.0  30.2  34164  289.63 0854.57
2009/04/23 12:56:43.4     211   -185     98    281    298 131.3  19.4  34158  289.54 0854.56
2009/04/23 12:56:43.5      74   -259    129    270    299 164.0  27.3  34174  289.81 0854.56
2009/04/23 12:56:43.6      27   -331     68    333    341 175.3  11.6  34168  289.71 0854.56
2009/04/23 12:56:43.7     -35   -346    111    348    366 185.9  17.8  34168  289.71 0854.56
2009/04/23 12:56:43.8     -36   -334    158    337    372 186.2  27.1  34168  289.72 0854.56
2009/04/23 12:56:43.9     -58   -441    168    445    475 187.6  21.6  34170  289.73 0854.56
2009/04/23 12:56:44.0     -23   -423    168    424    456 183.1  23.0  34166  289.68 0854.56
2009/04/23 12:56:44.1     -59   -381     97    386    399 188.8  14.2  34170  289.74 0854.56
2009/04/23 12:56:44.2     -14   -343     94    344    357 182.5  15.3  34166  289.67 0854.56
2009/04/23 12:56:44.3     -23   -324    167    325    365 184.2  29.3  34166  289.67 0854.56
2009/04/23 12:56:44.4     -54   -380    118    384    402 188.1  17.1  34166  289.69 0854.56
2009/04/23 12:56:44.5     -32   -368     74    370    378 185.1  11.4  34170  289.74 0854.56
2009/04/23 12:56:44.6      -3   -357     35    358    360 180.5   5.7  34174  289.82 0854.56
2009/04/23 12:56:44.7     -21   -364     87    365    376 183.4  13.5  34168  289.72 0854.56
2009/04/23 12:56:44.8     -11   -375     59    376    381 181.7   9.0  34168  289.71 0854.56
2009/04/23 12:56:44.9     -31   -350    109    352    369 185.1  17.2  34166  289.67 0854.56
2009/04/23 12:56:45.0     -13   -300    136    301    330 182.6  26.0  34162  289.61 0854.56
2009/04/23 12:56:45.1      14   -315    130    316    341 177.3  23.7  34162  289.59 0854.56
2009/04/23 12:56:45.2      40   -273    134    277    307 171.5  27.3  34160  289.56 0854.56
2009/04/23 12:56:45.3      33   -308    149    310    343 173.8  27.3  34166  289.69 0854.56
2009/04/23 12:56:45.4      51   -277    164    282    326 169.4  32.9  34168  289.70 0854.53
2009/04/23 12:56:45.5      19   -320    114    321    341 176.5  19.6  34164  289.64 0854.53
2009/04/23 12:56:45.6       3   -366     74    367    375 179.4  11.5  34160  289.57 0854.53
2009/04/23 12:56:45.7     -99   -352     78    366    375 195.8  12.0  34154  289.48 0854.53
2009/04/23 12:56:45.8    -172   -311     -1    356    357 209.0  -0.3  34158  289.55 0854.53
2009/04/23 12:56:45.9    -184   -360    127    405    425 207.1  17.5  34158  289.53 0854.53
2009/04/23 12:56:46.0    -205   -281     -2    349    350 216.1  -0.4  34152  289.43 0854.53
2009/04/23 12:56:46.1    -221   -207    -44    304    308 226.9  -8.3  34162  289.61 0854.53
2009/04/23 12:56:46.2    -300   -310    -39    432    434 224.0  -5.2  34148  289.38 0854.53
2009/04/23 12:56:46.3    -136   -239    142    276    310 209.6  29.3  34162  289.59 0854.53
2009/04/23 12:56:46.4    -152   -319    103    354    369 205.5  16.3  34164  289.64 0854.53
2009/04/23 12:56:46.5    -149   -380    101    409    422 201.5  13.9  34160  289.58 0854.53
2009/04/23 12:56:46.6    -123   -308    122    332    353 201.9  21.1  34160  289.57 0854.53
2009/04/23 12:56:46.7    -109   -280     90    301    315 201.4  16.6  34160  289.58 0854.53
2009/04/23 12:56:46.8    -149   -295     86    331    343 206.8  14.7  34162  289.59 0854.53
2009/04/23 12:56:46.9    -110   -329    106    348    365 198.6  17.0  34166  289.69 0854.53
2009/04/23 12:56:47.0    -123   -327    126    350    371 200.6  20.6  34162  289.60 0854.53
2009/04/23 12:56:47.1    -200   -288     21    351    352 214.8   3.5  34164  289.64 0854.53
2009/04/23 12:56:47.2    -166   -269     24    317    318 211.7   4.4  34162  289.61 0854.53
2009/04/23 12:56:47.3    -161   -266     15    311    312 211.2   2.8  34164  289.63 0854.49
2009/04/23 12:56:47.4    -171   -258     15    310    311 213.6   2.9  34164  289.63 0854.49
2009/04/23 12:56:47.5    -159   -250     14    297    298 212.6   2.8  34164  289.63 0854.49
2009/04/23 12:56:47.6    -170   -205     13    267    268 219.6   2.8  34166  289.68 0854.49
2009/04/23 12:56:47.7    -147   -245     -5    286    287 211.0  -1.2  34164  289.63 0854.49
2009/04/23 12:56:47.8    -123   -265     67    293    301 204.9  12.9  34166  289.66 0854.49
2009/04/23 12:56:47.9     -90   -285     53    300    305 197.6  10.1  34168  289.71 0854.49
2009/04/23 12:56:48.1    -123   -148    -68    193    205 219.7 -19.4  34164  289.63 0854.49
2009/04/23 12:56:48.2    -138   -164    -35    215    218 220.1  -9.3  34164  289.65 0854.49
2009/04/23 12:56:48.3    -127   -186     -4    226    227 214.5  -1.3  34166  289.67 0854.49
2009/04/23 12:56:48.4    -122   -165    -14    206    207 216.5  -3.9  34162  289.62 0854.49
2009/04/23 12:56:48.5    -140   -120    -48    185    192 229.3 -14.7  34168  289.70 0854.49
2009/04/23 12:56:48.6     -63   -133    -44    148    155 205.3 -16.6  34166  289.69 0854.49
2009/04/23 12:56:48.7    -106   -125    -37    165    170 220.3 -12.6  34168  289.72 0854.49
2009/04/23 12:56:48.8    -103   -146    -19    179    181 215.2  -6.2  34166  289.69 0854.49
2009/04/23 12:56:48.9    -113   -205     33    235    238 209.0   8.0  34162  289.61 0854.49
2009/04/23 12:56:49.0    -158   -190     30    248    250 219.6   7.1  34166  289.68 0854.49
2009/04/23 12:56:49.1    -165   -181    -58    246    253 222.3 -13.4  34170  289.73 0854.49
2009/04/23 12:56:49.2    -164   -238    -15    290    291 214.5  -3.1  34166  289.66 0854.49
2009/04/23 12:56:49.3    -126   -160    -48    204    210 218.3 -13.3  34162  289.62 0854.49
2009/04/23 12:56:49.4    -158   -103      9    189    190 236.9   2.9  34158  289.53 0854.49
2009/04/23 12:56:49.5    -146   -152    -67    211    222 223.9 -17.6  34158  289.53 0854.49
2009/04/23 12:56:49.6    -136   -138    -73    195    208 224.5 -25.7  34164  289.65 0854.49
2009/04/23 12:56:49.7    -110    -88    -43    142    148 231.4 -21.7  34168  289.70 0854.49
2009/04/23 12:56:49.8     -87    -41    -46     97    107 244.8 -31.5  34168  289.70 0854.49
2009/04/23 12:56:49.9     -35   -106    -21    112    115 198.7 -10.9  34166  289.69 0854.49
2009/04/23 12:56:50.0      -4    -99      4    100    101 182.7   2.8  34164  289.65 0854.49
2009/04/23 12:56:50.1     -17    -73     54     76     93 193.4  39.1  34170  289.74 0854.49
2009/04/23 12:56:50.2     -34    -62     27     71     75 208.9  21.0  34166  289.69 0854.49
2009/04/23 12:56:50.3     -78   -138    -13    159    160 209.4  -4.9  34162  289.62 0854.49
2009/04/23 12:56:50.4    -123   -148     -4    193    194 219.7  -1.3  34162  289.60 0854.49
2009/04/23 12:56:50.5     -69   -244     30    254    256 195.8   6.9  34164  289.64 0854.49
2009/04/23 12:56:50.6    -103   -257    -26    277    279 201.9  -5.4  34160  289.58 0854.49
2009/04/23 12:56:50.7    -154   -218      9    268    269 215.2   2.1  34164  289.64 0854.49
2009/04/23 12:56:50.8    -194   -171    -14    259    260 228.6  -3.2  34156  289.49 0854.49
2009/04/23 12:56:50.9    -171   -145    -28    225    227 229.8  -7.3  34164  289.63 0854.49
2009/04/23 12:56:51.0    -208    -80    -82    223    237 248.9 -25.4  34138  289.20 0854.49
2009/04/23 12:56:51.1     -66    -88    -56    111    124 217.0 -33.6  34140  289.24 0854.49
2009/04/23 12:56:51.2      10   -137    -48    138    147 175.6 -19.1  34150  289.40 0854.49
2009/04/23 12:56:51.3      48   -242     18    247    248 168.7   4.2  34166  289.68 0854.49
2009/04/23 12:56:51.4      -5   -199     39    200    204 181.6  11.1  34160  289.58 0854.51
2009/04/23 12:56:51.5     -53   -161    -26    170    173 198.5  -8.8  34160  289.58 0854.51
2009/04/23 12:56:51.6     -52   -180      0    188    189 196.3   0.2  34158  289.53 0854.51
2009/04/23 12:56:51.7     -62   -205     -4    215    216 196.9  -1.3  34156  289.52 0854.51
2009/04/23 12:56:51.8    -111   -307    -57    327    332 200.0  -9.9  34150  289.40 0854.51
2009/04/23 12:56:51.9    -253   -190    -88    317    330 233.2 -15.5  34154  289.46 0854.51
2009/04/23 12:56:52.0    -280   -169    -90    328    340 238.9 -20.0  34146  289.32 0854.51
2009/04/23 12:56:52.1    -233   -192    -83    303    315 230.5 -15.4  34146  289.32 0854.51
2009/04/23 12:56:52.2    -211   -204    -81    294    306 226.0 -15.5  34150  289.39 0854.51
2009/04/23 12:56:52.3    -122   -273    -71    300    309 204.1 -13.4  34156  289.49 0854.51
2009/04/23 12:56:52.4     -32   -215    -11    218    219 188.5  -3.1  34156  289.52 0854.51
2009/04/23 12:56:52.5    -197   -314    -42    371    374 212.1  -6.6  34146  289.35 0854.51
2009/04/23 12:56:52.6    -220   -321   -109    390    406 214.5 -15.7  34146  289.35 0854.51
2009/04/23 12:56:52.7    -129   -323     -8    349    350 201.9  -1.4  34152  289.43 0854.51
2009/04/23 12:56:52.8    -210   -276    -64    347    353 217.3 -10.5  34148  289.38 0854.51
2009/04/23 12:56:52.9    -171   -269    -66    320    327 212.5 -11.8  34148  289.37 0854.51
2009/04/23 12:56:53.0    -187   -198   -102    273    291 223.3 -25.4  34146  289.34 0854.51
2009/04/23 12:56:53.1    -113   -143    -58    183    191 218.5 -22.8  34146  289.35 0854.51
2009/04/23 12:56:53.2     -56   -101   -103    116    155 209.4 -50.3  34146  289.33 0854.51
2009/04/23 12:56:53.3     -92    -52   -117    106    157 240.2 -57.7  34148  289.36 0854.51
2009/04/23 12:56:53.4     -16   -118    -91    120    150 188.0 -45.6  34148  289.38 0854.53
2009/04/23 12:56:53.5       1   -110   -112    111    157 179.1 -54.5  34148  289.38 0854.53
2009/04/23 12:56:53.6      22    -86    -93     89    128 165.3 -55.6  34150  289.41 0854.53
2009/04/23 12:56:53.7     -16    -85    -90     87    125 190.7 -54.6  34148  289.36 0854.53
2009/04/23 12:56:53.8      20    -77    -42     80     90 164.9 -34.2  34150  289.41 0854.53
2009/04/23 12:56:53.9      26    -92    -76     96    122 164.0 -47.1  34150  289.40 0854.53
2009/04/23 12:56:54.0      29   -109    -91    113    145 164.9 -48.1  34150  289.41 0854.53
2009/04/23 12:56:54.1       2    -35    -99     36    105 175.6 -84.6  34152  289.43 0854.53
2009/04/23 12:56:54.2       6   -128    -88    129    156 177.3 -41.8  34152  289.43 0854.53
2009/04/23 12:56:54.3       9   -147    -41    148    154 176.4 -15.5  34154  289.46 0854.53
2009/04/23 12:56:54.4      81   -117    -34    143    148 145.3 -13.4  34150  289.41 0854.53
2009/04/23 12:56:54.5     131    -89     13    159    160 124.2   4.9  34150  289.41 0854.53
2009/04/23 12:56:54.6     111   -111      8    158    159 135.0   3.1  34156  289.52 0854.53
2009/04/23 12:56:54.7     141   -129     -3    192    193 132.4  -1.2  34154  289.48 0854.53
2009/04/23 12:56:54.8     158   -123     44    201    206 128.0  12.6  34158  289.53 0854.53
2009/04/23 12:56:54.9     157   -113     34    194    198 126.0  10.1  34150  289.41 0854.53
2009/04/23 12:56:55.0     151   -122      9    195    196 128.9   2.9  34150  289.40 0854.53
2009/04/23 12:56:55.1     161   -156     27    225    227 134.2   6.9  34152  289.45 0854.53
2009/04/23 12:56:55.2     142   -170     89    222    239 140.1  23.0  34150  289.39 0854.53
2009/04/23 12:56:55.3      67   -122    102    140    173 151.0  39.7  34154  289.46 0854.53
2009/04/23 12:56:55.4      63   -191     52    202    209 161.7  14.7  34150  289.40 0854.53
2009/04/23 12:56:55.5      71   -228    -13    240    241 162.6  -3.1  34148  289.37 0854.53
2009/04/23 12:56:55.6      63   -206     -8    216    217 163.0  -2.2  34148  289.36 0854.53
2009/04/23 12:56:55.7     113   -186     -4    218    219 148.6  -1.1  34148  289.38 0854.53
2009/04/23 12:56:55.8      50   -201     40    208    212 166.0  11.0  34150  289.40 0854.53
2009/04/23 12:56:55.9      44   -216     42    221    225 168.4  10.8  34152  289.43 0854.53
2009/04/23 12:56:56.0      84   -200    -14    218    219 157.1  -3.7  34148  289.36 0854.53
2009/04/23 12:56:56.1      89   -132     26    160    163 146.2   9.5  34154  289.48 0854.53
2009/04/23 12:56:56.2      24   -118     57    121    133 168.5  27.2  34158  289.53 0854.53
2009/04/23 12:56:56.3      55   -139     54    150    159 158.2  20.4  34154  289.46 0854.53
2009/04/23 12:56:56.4      78   -112     49    137    145 145.3  20.0  34154  289.46 0854.53
2009/04/23 12:56:56.5      71    -62     41     95    103 131.3  24.6  34154  289.46 0854.53
2009/04/23 12:56:56.6      83    -28     53     88    102 108.6  34.0  34154  289.48 0854.53
2009/04/23 12:56:56.7     100    -14     27    102    106  98.0  15.3  34156  289.52 0854.53
2009/04/23 12:56:56.8      79     -8     46     80     92  96.1  32.9  34154  289.48 0854.53
2009/04/23 12:56:56.9     128     15     79    129    151  83.0  35.0  34162  289.60 0854.53
2009/04/23 12:56:57.0     111     -8    115    112    160  94.3  50.7  34168  289.70 0854.53
2009/04/23 12:56:57.1      82     31    140     88    165  69.2  64.7  34164  289.65 0854.53
2009/04/23 12:56:57.2      34     11    125     36    130  71.8  83.3  34164  289.63 0854.53
2009/04/23 12:56:57.3     -66     -8     51     67     84 263.0  41.2  34168  289.70 0854.53
2009/04/23 12:56:57.4       9    -48      7     49     50 169.3   9.0  34166  289.67 0854.54
2009/04/23 12:56:57.5      55    -95     38    111    118 149.7  18.9  34160  289.58 0854.54
2009/04/23 12:56:57.6     102    -26     37    106    113 104.6  19.4  34158  289.55 0854.54
2009/04/23 12:56:57.7     111     12    -14    112    113  83.4  -7.2  34158  289.53 0854.54
2009/04/23 12:56:57.8     131     16     47    132    140  83.0  20.0  34158  289.53 0854.54
2009/04/23 12:56:57.9     147     11    115    148    187  85.6  42.2  34154  289.48 0854.54
2009/04/23 12:56:58.0     147      0    138    148    202  90.4  48.0  34154  289.46 0854.54
2009/04/23 12:56:58.1     215     15     -8    216    217  85.9  -2.3  34152  289.43 0854.54
2009/04/23 12:56:58.2     173    -22     21    175    177  97.5   6.9  34150  289.40 0854.54
2009/04/23 12:56:58.3     165     -3     77    166    182  91.3  26.6  34152  289.43 0854.54
2009/04/23 12:56:58.4     180     17    104    181    208  84.3  32.7  34152  289.43 0854.54
2009/04/23 12:56:58.5     187     15     78    188    203  85.2  23.6  34150  289.41 0854.54
2009/04/23 12:56:58.6     142      3     40    143    149  88.7  15.8  34152  289.45 0854.54
2009/04/23 12:56:58.7     127     17     82    129    152  82.1  35.5  34154  289.48 0854.54
2009/04/23 12:56:58.8     112     37     89    119    148  71.4  40.7  34156  289.52 0854.54
2009/04/23 12:56:58.9      91     17    102     93    138  79.0  52.2  34158  289.53 0854.54
2009/04/23 12:56:59.0      70      1    109     71    130  89.1  64.1  34164  289.63 0854.54
2009/04/23 12:56:59.1     125     54    150    137    203  66.5  52.7  34156  289.52 0854.54
2009/04/23 12:56:59.2     197     15    121    198    232  85.6  34.8  34154  289.46 0854.54
2009/04/23 12:56:59.3     170    -31     55    173    182 100.4  17.7  34154  289.48 0854.54
2009/04/23 12:56:59.4     206     33    -66    209    219  80.8 -22.5  34150  289.40 0854.55
2009/04/23 12:56:59.5     155     31    -38    159    164  78.5 -13.7  34160  289.57 0854.55
2009/04/23 12:56:59.6      45    -55    -29     72     77 140.3 -27.4  34156  289.50 0854.55
2009/04/23 12:56:59.7     -13    -13    -21     19     28 223.4 -54.5  34162  289.60 0854.55
2009/04/23 12:56:59.8     -21    -15     -3     26     27 234.0  -7.2  34166  289.69 0854.55
2009/04/23 12:56:59.9     -44    -24     -2     51     52 241.1  -2.2  34166  289.69 0854.55
2009/04/23 12:57:00.0       8    -30     26     32     41 164.9  43.7  34166  289.69 0854.55
2009/04/23 12:57:00.1      72    -61     48     95    106 130.4  28.7  34162  289.60 0854.55
2009/04/23 12:57:00.2      53    -49     69     73    100 133.2  48.0  34166  289.67 0854.55
2009/04/23 12:57:00.3      22    -14     42     27     49 122.5  64.7  34176  289.84 0854.55
2009/04/23 12:57:00.4      82     -3     80     83    115  92.6  49.4  34170  289.74 0854.55
2009/04/23 12:57:00.5       8     -8     70     12     71 133.1  90.0  34176  289.85 0854.55
2009/04/23 12:57:00.6      59    -21     43     63     76 110.0  36.5  34170  289.74 0854.55
2009/04/23 12:57:00.7     111    -44     64    120    136 111.7  30.3  34160  289.57 0854.55
2009/04/23 12:57:00.8     143    -38     57    149    159 105.0  21.7  34158  289.55 0854.55
2009/04/23 12:57:00.9     126    -36     65    132    147 105.9  27.3  34158  289.55 0854.55
2009/04/23 12:57:01.0     196     27    104    198    223  82.1  30.1  34194  290.16 0854.55
2009/04/23 12:57:01.1     269    107    103    290    307  68.3  20.2  34238  290.88 0854.55
2009/04/23 12:57:01.2     215     75    145    228    270  70.7  35.5  34214  290.49 0854.55
2009/04/23 12:57:01.3     282     57    145    288    322  78.5  28.6  34174  289.81 0854.55
2009/04/23 12:57:01.4     314    103    139    331    359  71.7  24.2  34166  289.69 0854.55
2009/04/23 12:57:01.5     283     65    140    291    322  77.0  27.4  34174  289.81 0854.55
2009/04/23 12:57:01.6     215     66    155    225    273  72.9  37.8  34172  289.76 0854.55
2009/04/23 12:57:01.7     211     25    239    213    320  83.2  53.7  34170  289.75 0854.55
2009/04/23 12:57:01.8     279    -49    149    284    320 100.1  30.0  34168  289.70 0854.55
2009/04/23 12:57:01.9     319      9    128    320    344  88.3  23.0  34162  289.60 0854.55
2009/04/23 12:57:02.0     293     54     25    299    301  79.4   4.9  34162  289.59 0854.55
2009/04/23 12:57:02.1     256     67     31    265    267  75.2   6.7  34166  289.68 0854.55
2009/04/23 12:57:02.2     208     82     52    224    231  68.5  13.2  34164  289.63 0854.55
2009/04/23 12:57:02.3     214     78     62    228    237  70.0  15.2  34164  289.63 0854.55
2009/04/23 12:57:02.4     199     67     67    211    222  71.4  17.7  34174  289.80 0854.55
2009/04/23 12:57:02.5     256    111     44    280    284  66.5   9.0  34178  289.86 0854.55
2009/04/23 12:57:02.6     205     89     80    224    237  66.5  20.4  34186  290.02 0854.55
2009/04/23 12:57:02.7     196     15     39    197    201  85.6  11.4  34170  289.75 0854.55
2009/04/23 12:57:02.8     167     27     46    170    177  80.8  15.2  34162  289.62 0854.55
2009/04/23 12:57:02.9     144    -12    103    145    177  94.8  39.1  34162  289.62 0854.55
2009/04/23 12:57:03.0     151    -89     82    176    194 120.7  27.1  34164  289.65 0854.55
2009/04/23 12:57:03.1     121    -85     48    148    156 125.1  17.9  34162  289.60 0854.55
2009/04/23 12:57:03.2     106   -111     42    154    160 136.3  15.6  34164  289.65 0854.55
2009/04/23 12:57:03.3      30    -93     89     98    132 161.7  47.5  34166  289.67 0854.55
2009/04/23 12:57:03.4     -23    -79    105     83    133 196.5  57.5  34170  289.75 0854.56
2009/04/23 12:57:03.5      -5   -123    146    124    191 182.7  55.6  34166  289.69 0854.56
2009/04/23 12:57:03.6     -72   -158    142    174    224 204.7  43.7  34170  289.74 0854.56
2009/04/23 12:57:03.7     -72   -170    155    185    241 202.9  44.5  34174  289.82 0854.56
2009/04/23 12:57:03.8    -125   -228    153    261    302 208.7  33.4  34176  289.85 0854.56
2009/04/23 12:57:03.9    -175   -211    106    275    294 219.7  22.1  34160  289.58 0854.56
2009/04/23 12:57:04.0    -269   -223     26    350    351 230.4   4.4  34168  289.71 0854.56
2009/04/23 12:57:04.1    -263   -262      2    372    373 225.2   0.4  34154  289.47 0854.56
2009/04/23 12:57:04.2    -249   -258     34    359    361 223.9   5.4  34158  289.55 0854.56
2009/04/23 12:57:04.3    -280   -175      0    331    332 238.0   0.1  34162  289.62 0854.56
2009/04/23 12:57:04.4    -317   -127   -109    342    358 248.1 -22.6  34192  290.10 0854.57
2009/04/23 12:57:04.5    -355   -111   -174    373    411 252.6 -31.4  34166  289.67 0854.57
2009/04/23 12:57:04.6    -456     23   -182    457    491 273.0 -27.4  34182  289.95 0854.57
2009/04/23 12:57:04.7    -539    180   -158    569    591 288.5 -15.5  34182  289.95 0854.57
2009/04/23 12:57:04.8    -375     12   -118    376    395 271.9 -17.5  34172  289.76 0854.57
2009/04/23 12:57:04.9    -301    -32    -40    303    306 263.8  -7.7  34176  289.85 0854.57
2009/04/23 12:57:05.0    -423   -140   -115    446    461 251.7 -14.5  34154  289.48 0854.57
2009/04/23 12:57:05.1    -411    -51   -101    415    428 262.9 -13.7  34164  289.63 0854.57
2009/04/23 12:57:05.2    -539   -146   -110    559    570 254.9 -11.2  34158  289.53 0854.57
2009/04/23 12:57:05.3    -553    -72   -208    558    595 262.5 -25.8  34156  289.49 0854.57
2009/04/23 12:57:05.4    -490     10   -215    491    536 271.3 -29.5  34154  289.46 0854.57
2009/04/23 12:57:05.5    -530     -3   -267    531    594 269.6 -33.2  34154  289.46 0854.57
2009/04/23 12:57:05.6    -521    -11   -159    522    546 268.7 -17.0  34152  289.43 0854.57
2009/04/23 12:57:05.7    -518     -7   -168    519    546 269.2 -17.9  34154  289.46 0854.57
2009/04/23 12:57:05.8    -452      7   -183    453    488 271.0 -27.6  34156  289.52 0854.57
2009/04/23 12:57:05.9    -373     28   -206    374    426 274.4 -35.7  34156  289.49 0854.57
2009/04/23 12:57:06.0    -372     47   -186    375    418 277.2 -32.6  34158  289.53 0854.57
2009/04/23 12:57:06.1    -436   -157   -239    464    521 250.1 -33.7  34156  289.49 0854.57
2009/04/23 12:57:06.2    -374   -313   -217    488    534 230.1 -30.0  34160  289.57 0854.57
2009/04/23 12:57:06.3    -483   -153    -60    507    511 252.4  -6.8  34166  289.69 0854.57
2009/04/23 12:57:06.4    -349   -370   -137    509    528 223.3 -15.1  34156  289.51 0854.57
2009/04/23 12:57:06.5    -320   -370    -16    490    491 220.9  -1.9  34162  289.59 0854.57
2009/04/23 12:57:06.6    -344   -199     54    398    402 240.0   7.8  34164  289.64 0854.57
2009/04/23 12:57:06.7    -361   -111     61    378    383 252.9   9.2  34172  289.77 0854.57
2009/04/23 12:57:06.8    -371   -224   -137    434    456 238.8 -17.6  34158  289.53 0854.57
2009/04/23 12:57:06.9    -324   -166   -132    365    388 242.8 -25.1  34172  289.77 0854.57
2009/04/23 12:57:07.0    -175   -275    -49    327    331 212.5  -8.6  34172  289.79 0854.57
2009/04/23 12:57:07.1    -189   -228   -120    297    320 219.6 -27.6  34162  289.61 0854.57
2009/04/23 12:57:07.2    -216   -123    -86    249    263 240.2 -23.8  34174  289.80 0854.57
2009/04/23 12:57:07.3    -215   -264    -50    341    345 219.1  -8.4  34174  289.81 0854.57
2009/04/23 12:57:07.4    -228   -308    -77    384    392 216.5 -11.3  34168  289.72 0854.57
2009/04/23 12:57:07.5    -283   -304    -98    416    428 223.0 -13.3  34158  289.53 0854.57
2009/04/23 12:57:07.6    -270   -344    -63    438    443 218.1  -8.2  34164  289.63 0854.57
2009/04/23 12:57:07.7    -313   -269   -113    413    429 229.3 -15.4  34158  289.55 0854.57
2009/04/23 12:57:07.8    -251   -303   -124    394    414 219.6 -17.5  34158  289.53 0854.57
2009/04/23 12:57:07.9    -315   -273    -95    418    429 229.1 -12.9  34158  289.53 0854.57
2009/04/23 12:57:08.0    -298   -249   -124    389    408 230.1 -22.9  34158  289.55 0854.57
2009/04/23 12:57:08.1    -244   -262   -147    359    387 222.9 -27.8  34154  289.48 0854.57
2009/04/23 12:57:08.2    -307   -334   -141    454    475 222.6 -22.2  34166  289.66 0854.57
2009/04/23 12:57:08.3    -263   -215   -139    340    367 230.7 -27.9  34152  289.43 0854.57
2009/04/23 12:57:08.4    -232   -231    -92    328    341 225.2 -15.8  34162  289.60 0854.56
2009/04/23 12:57:08.5    -252   -359   -138    439    460 215.1 -22.5  34168  289.70 0854.56
2009/04/23 12:57:08.6    -125   -387   -117    407    424 197.9 -16.0  34174  289.80 0854.56
2009/04/23 12:57:08.7    -422   -338   -156    541    563 231.3 -20.8  34164  289.63 0854.56
2009/04/23 12:57:08.8    -384   -242   -159    454    482 237.8 -19.3  34160  289.57 0854.56
2009/04/23 12:57:08.9    -319   -244   -140    402    425 232.6 -24.3  34166  289.68 0854.56
2009/04/23 12:57:09.0    -310   -273   -147    414    439 228.6 -24.7  34166  289.68 0854.56
2009/04/23 12:57:09.1    -205   -185   -111    277    298 228.0 -27.4  34164  289.64 0854.56
2009/04/23 12:57:09.2    -214   -227    -53    313    318 223.3  -9.6  34166  289.68 0854.56
2009/04/23 12:57:09.3    -185   -144    -29    235    237 232.0  -7.2  34174  289.81 0854.56
2009/04/23 12:57:09.4    -192   -153    -47    246    251 231.4 -10.9  34174  289.81 0854.56
2009/04/23 12:57:09.5    -211   -164   -154    268    309 232.2 -36.8  34170  289.75 0854.56
2009/04/23 12:57:09.6    -176    -21    -77    178    193 263.0 -29.0  34170  289.74 0854.56
2009/04/23 12:57:09.7    -287    -74   -170    297    342 255.4 -36.8  34162  289.59 0854.56
2009/04/23 12:57:09.8    -251   -132    -89    284    297 242.1 -22.3  34172  289.78 0854.56
2009/04/23 12:57:09.9    -181   -100     -8    207    208 241.1  -2.2  34184  289.99 0854.56
2009/04/23 12:57:10.0     -75    -98    -53    124    134 217.8 -29.0  34182  289.96 0854.56
2009/04/23 12:57:10.1     -81   -127    -67    151    165 212.5 -29.7  34184  289.99 0854.56
2009/04/23 12:57:10.2     -20   -187    -59    189    197 186.2 -22.3  34162  289.62 0854.56
2009/04/23 12:57:10.3     -31   -239    -66    242    252 187.6 -15.4  34168  289.70 0854.56
2009/04/23 12:57:10.4    -101   -160    -65    190    202 212.3 -19.1  34172  289.79 0854.55
2009/04/23 12:57:10.5     -21   -113    -34    116    120 190.7 -21.2  34172  289.77 0854.55
2009/04/23 12:57:10.6    -150   -183    -68    237    246 219.4 -20.7  34176  289.85 0854.55
2009/04/23 12:57:10.7     -50   -149    -67    158    171 198.7 -28.7  34176  289.84 0854.55
2009/04/23 12:57:10.8      63   -242    -18    251    252 165.3  -4.1  34172  289.78 0854.55
2009/04/23 12:57:10.9     -31   -287     62    289    296 186.2  12.1  34170  289.73 0854.55
2009/04/23 12:57:11.0     -24   -317     10    319    320 184.5   1.9  34168  289.71 0854.55
2009/04/23 12:57:11.1      72   -357     20    365    366 168.6   3.3  34170  289.74 0854.55
2009/04/23 12:57:11.2      86   -376     12    386    387 167.1   1.9  34170  289.74 0854.55
2009/04/23 12:57:11.3     -49   -355    -14    359    360 187.9  -2.2  34160  289.57 0854.55
2009/04/23 12:57:11.4     -91   -330    -87    343    355 195.5 -14.3  34164  289.65 0854.55
2009/04/23 12:57:11.5     -34   -368   -106    370    386 185.3 -16.0  34162  289.62 0854.55
2009/04/23 12:57:11.6      64   -320      8    327    328 168.6   1.5  34164  289.64 0854.55
2009/04/23 12:57:11.7      65   -310    -21    317    318 168.0  -3.9  34160  289.58 0854.55
2009/04/23 12:57:11.8      42   -272      3    276    277 171.1   0.7  34162  289.61 0854.55
2009/04/23 12:57:11.9      55   -317    -49    322    326 170.0  -8.8  34162  289.61 0854.55
2009/04/23 12:57:12.0      61   -246    -69    254    264 166.0 -15.2  34162  289.59 0854.55
2009/04/23 12:57:12.1      19   -281    -84    282    295 176.0 -16.6  34162  289.59 0854.55
2009/04/23 12:57:12.2      52   -258    -73    264    275 168.5 -15.5  34160  289.56 0854.55
2009/04/23 12:57:12.3      80   -270    -30    282    284 163.5  -6.2  34164  289.64 0854.55
2009/04/23 12:57:12.4     118   -238    -25    266    268 153.5  -5.4  34160  289.58 0854.55
2009/04/23 12:57:12.5     177   -213    -76    278    289 140.3 -15.4  34162  289.59 0854.55
2009/04/23 12:57:12.6     153   -235    -36    281    284 146.8  -7.5  34162  289.61 0854.55
2009/04/23 12:57:12.7     232   -242     -2    336    337 136.2  -0.5  34158  289.54 0854.55
2009/04/23 12:57:12.8     249   -222     44    334    337 131.8   7.6  34160  289.57 0854.55
2009/04/23 12:57:12.9     166   -280     92    326    339 149.3  15.9  34156  289.50 0854.55
2009/04/23 12:57:13.0     206   -286      5    353    354 144.2   0.8  34154  289.48 0854.55
2009/04/23 12:57:13.1     158   -281      4    323    324 150.6   0.8  34156  289.49 0854.55
2009/04/23 12:57:13.2      94   -267     35    284    287 160.6   7.1  34158  289.53 0854.55
2009/04/23 12:57:13.3      74   -268      2    279    280 164.4   0.5  34158  289.54 0854.55
2009/04/23 12:57:13.4     108   -284     14    305    306 159.1   2.8  34158  289.53 0854.55
2009/04/23 12:57:13.5     122   -366     -7    387    388 161.5  -1.2  34154  289.48 0854.55
2009/04/23 12:57:13.6     141   -298     52    330    335 154.7   9.0  34158  289.55 0854.55
2009/04/23 12:57:13.7     130   -255     47    287    291 152.9   9.5  34160  289.58 0854.55
2009/04/23 12:57:13.8     104   -260     73    281    291 158.2  14.7  34162  289.59 0854.55
2009/04/23 12:57:13.9      59   -218     96    226    245 164.8  24.6  34166  289.66 0854.55
2009/04/23 12:57:14.0      60   -263    115    270    293 167.1  24.3  34162  289.59 0854.55
2009/04/23 12:57:14.1      12   -164    122    165    205 175.5  39.9  34158  289.55 0854.55
2009/04/23 12:57:14.2      56    -15    131     59    143 105.1  74.5  34164  289.65 0854.55
2009/04/23 12:57:14.3     156    -21    151    158    218  98.0  48.5  34164  289.63 0854.56
2009/04/23 12:57:14.4      10      5    100     12    100  64.7  90.0  34168  289.72 0854.56
2009/04/23 12:57:14.5     138    -68    179    154    236 116.2  55.0  34162  289.60 0854.56
2009/04/23 12:57:14.6     126   -147    173    194    259 139.5  46.4  34164  289.63 0854.56
2009/04/23 12:57:14.7       8   -269    161    270    314 178.2  33.5  34154  289.47 0854.56
2009/04/23 12:57:14.8      11   -256    141    257    293 177.4  31.3  34158  289.54 0854.56
2009/04/23 12:57:14.9      59   -203    145    212    256 163.7  37.6  34164  289.64 0854.56
2009/04/23 12:57:15.0      22   -145    115    147    186 171.1  42.4  34162  289.62 0854.56
2009/04/23 12:57:15.1     -75    -80     71    111    131 223.2  35.6  34158  289.53 0854.56
2009/04/23 12:57:15.2     -35   -107    107    113    155 198.3  48.7  34164  289.63 0854.56
2009/04/23 12:57:15.3     113   -126     94    170    194 137.9  31.4  34160  289.58 0854.56
2009/04/23 12:57:15.4     165    -66    133    178    222 112.0  40.1  34160  289.57 0854.56
2009/04/23 12:57:15.5     133   -106    155    171    230 128.6  47.1  34164  289.63 0854.56
2009/04/23 12:57:15.6      35    -43    107     56    120 140.4  70.8  34166  289.67 0854.56
2009/04/23 12:57:15.8     112   -112    121    159    199 135.0  41.4  34164  289.63 0854.56
2009/04/23 12:57:15.9     174   -151    105    231    253 131.1  26.2  34162  289.61 0854.56
2009/04/23 12:57:16.0     113    -98    149    150    211 130.9  50.0  34162  289.62 0854.56
2009/04/23 12:57:16.1     -21     13     98     26    101 302.4  84.9  34170  289.75 0854.56
2009/04/23 12:57:16.2      10    -20     78     23     81 152.8  83.3  34164  289.65 0854.56
2009/04/23 12:57:16.3     -61     -8    110     62    126 262.1  68.3  34170  289.74 0854.56
2009/04/23 12:57:16.4     -78    -61    123    100    158 231.8  56.9  34168  289.70 0854.57
2009/04/23 12:57:16.5     -99    -20    108    101    147 258.6  52.2  34164  289.65 0854.57
2009/04/23 12:57:16.6     -87     28     60     92    109 288.2  35.6  34164  289.65 0854.57
2009/04/23 12:57:16.7     -82    -38     32     91     97 245.2  19.4  34164  289.63 0854.57
2009/04/23 12:57:16.8     -62   -110    123    127    176 209.4  49.0  34166  289.69 0854.57
2009/04/23 12:57:16.9     -87    -54    124    103    161 238.0  56.1  34168  289.72 0854.57
2009/04/23 12:57:17.0     -56   -169    134    179    223 198.5  40.4  34162  289.62 0854.57
2009/04/23 12:57:17.1      58   -104     93    120    151 151.0  41.7  34158  289.55 0854.57
2009/04/23 12:57:17.2      38   -112     80    119    143 161.3  37.0  34162  289.62 0854.57
2009/04/23 12:57:17.3      64   -135    102    150    181 154.7  37.6  34166  289.67 0854.57
2009/04/23 12:57:17.4      21    -39    117     45    125 151.0  78.2  34166  289.69 0854.57
2009/04/23 12:57:17.5     -18    -29     69     35     77 212.6  71.9  34170  289.74 0854.57
2009/04/23 12:57:17.6      51     36     78     63    100  54.9  56.9  34170  289.74 0854.57
2009/04/23 12:57:17.7      40    -17    116     44    124 113.5  79.1  34164  289.65 0854.57
2009/04/23 12:57:17.8      61    -30    128     69    145 116.2  68.9  34164  289.65 0854.57
2009/04/23 12:57:17.9      63      5     87     64    108  84.8  60.0  34170  289.75 0854.57
2009/04/23 12:57:18.0     -41    -19    130     46    137 244.7  79.7  34174  289.82 0854.57
2009/04/23 12:57:18.1      -5    -66    147     67    161 184.5  74.0  34168  289.72 0854.57
2009/04/23 12:57:18.2      32    -88     73     94    119 159.5  41.7  34164  289.65 0854.57
2009/04/23 12:57:18.3      49   -124      1    134    135 158.2   0.7  34164  289.63 0854.57
2009/04/23 12:57:18.4      60   -171     35    182    186 160.6  11.1  34162  289.62 0854.58
2009/04/23 12:57:18.5     -44   -133     92    141    168 198.5  36.0  34162  289.62 0854.58
2009/04/23 12:57:18.6     -49   -167     61    175    186 196.3  19.2  34164  289.63 0854.58
2009/04/23 12:57:18.7     -41   -168     59    174    184 193.8  18.9  34166  289.67 0854.58
2009/04/23 12:57:18.8    -115   -208     98    239    258 209.0  23.4  34168  289.71 0854.58
2009/04/23 12:57:18.9    -105   -134     68    171    184 218.3  22.8  34164  289.65 0854.58
2009/04/23 12:57:19.0    -107    -68     43    127    135 237.6  18.9  34168  289.72 0854.58
2009/04/23 12:57:19.1    -158    -37     40    163    168 256.7  13.9  34168  289.72 0854.58
2009/04/23 12:57:19.2    -140   -158     89    212    229 221.5  24.1  34164  289.63 0854.58
2009/04/23 12:57:19.3    -153   -153     87    217    233 225.1  23.0  34168  289.72 0854.58
2009/04/23 12:57:19.4    -107   -130     58    169    179 219.6  19.2  34174  289.80 0854.58
2009/04/23 12:57:19.5    -199   -212     57    291    297 223.2  11.1  34174  289.80 0854.58
2009/04/23 12:57:19.6    -158   -197     74    253    264 218.8  16.3  34174  289.81 0854.58
2009/04/23 12:57:19.7    -225   -155     50    274    279 235.4  10.3  34168  289.70 0854.58
2009/04/23 12:57:19.8    -276   -110    -42    298    302 248.3  -8.0  34176  289.85 0854.58
2009/04/23 12:57:19.9    -265   -141    -14    301    302 242.0  -2.8  34176  289.83 0854.58
2009/04/23 12:57:20.0    -188   -153      5    243    244 230.9   1.2  34174  289.80 0854.58
2009/04/23 12:57:20.1    -176   -112     89    209    227 237.6  24.6  34166  289.67 0854.58
2009/04/23 12:57:20.2    -216   -104    128    240    272 244.2  30.3  34174  289.80 0854.58
2009/04/23 12:57:20.3    -184   -108     76    214    227 239.6  20.4  34170  289.75 0854.58
2009/04/23 12:57:20.4    -191   -129     -9    231    232 236.0  -2.2  34174  289.82 0854.58
2009/04/23 12:57:20.5    -179    -28     22    182    184 261.0   6.9  34178  289.87 0854.58
2009/04/23 12:57:20.6    -229     26    106    231    254 276.6  26.4  34172  289.76 0854.58
2009/04/23 12:57:20.7    -229     53    107    236    259 283.0  26.2  34170  289.73 0854.58
2009/04/23 12:57:20.8    -196    100     53    221    228 297.1  13.5  34170  289.75 0854.58
2009/04/23 12:57:20.9    -165    105     35    196    200 302.4  10.1  34168  289.70 0854.58
2009/04/23 12:57:21.0    -192     54     24    200    202 285.9   7.1  34168  289.72 0854.58
2009/04/23 12:57:21.1    -191     21     28    193    196 276.4   8.2  34166  289.69 0854.58
2009/04/23 12:57:21.2    -192     -5    -16    193    194 268.5  -4.9  34168  289.72 0854.58
2009/04/23 12:57:21.3    -118   -117     -6    167    168 225.3  -2.2  34170  289.74 0854.58
2009/04/23 12:57:21.4    -159   -127    123    204    238 231.4  34.0  34164  289.65 0854.58
2009/04/23 12:57:21.5    -149   -169    121    226    256 221.5  30.6  34162  289.61 0854.58
2009/04/23 12:57:21.6    -122   -160    127    202    238 217.2  35.2  34166  289.67 0854.58
2009/04/23 12:57:21.7    -196   -207    139    286    317 223.4  27.9  34176  289.83 0854.58
2009/04/23 12:57:21.8    -160   -152     35    221    224 226.4   9.0  34176  289.84 0854.58
2009/04/23 12:57:21.9    -128   -136    120    188    223 223.3  35.6  34164  289.65 0854.58
2009/04/23 12:57:22.0     -38   -132    175    138    222 196.0  57.9  34168  289.70 0854.58
2009/04/23 12:57:22.1     -73   -144    151    162    221 207.1  47.9  34166  289.67 0854.58
2009/04/23 12:57:22.2      -8   -114    133    115    175 184.5  54.8  34168  289.70 0854.58
2009/04/23 12:57:22.3     -73   -171    150    187    239 203.2  42.8  34164  289.65 0854.58
2009/04/23 12:57:22.4     -60   -202    109    211    237 196.5  29.5  34162  289.62 0854.58
2009/04/23 12:57:22.5     -29   -226    116    228    255 187.3  29.1  34170  289.73 0854.58
2009/04/23 12:57:22.6     -54   -287    103    293    310 190.7  20.0  34164  289.63 0854.58
2009/04/23 12:57:22.7     -39   -278     84    281    294 188.0  16.8  34166  289.66 0854.58
2009/04/23 12:57:22.8       0   -242     55    243    250 180.0  12.9  34166  289.66 0854.58
2009/04/23 12:57:22.9      -3   -281     39    282    285 180.7   8.0  34160  289.58 0854.58
2009/04/23 12:57:23.0       0   -254     -5    255    256 180.0  -1.3  34164  289.63 0854.58
2009/04/23 12:57:23.1     -59   -286     -3    293    294 191.8  -0.7  34164  289.63 0854.58
2009/04/23 12:57:23.2      62   -283     67    290    298 167.5  13.1  34166  289.66 0854.58
2009/04/23 12:57:23.3      29   -236    110    238    262 172.9  26.4  34166  289.66 0854.58
2009/04/23 12:57:23.4      27   -235    138    237    274 173.3  32.7  34168  289.71 0854.58
2009/04/23 12:57:23.5      52   -213    129    220    255 166.2  33.1  34170  289.73 0854.58
2009/04/23 12:57:23.6      -8   -189     51    190    197 182.5  15.3  34168  289.70 0854.58
2009/04/23 12:57:23.7      41   -178     14    183    184 166.9   4.4  34168  289.70 0854.58
2009/04/23 12:57:23.8      59   -230     21    238    239 165.5   5.2  34166  289.68 0854.58
2009/04/23 12:57:23.9      36   -238    -30    241    243 171.3  -7.2  34166  289.68 0854.58
2009/04/23 12:57:24.0     -15   -243      7    244    245 183.6   1.8  34170  289.75 0854.58
2009/04/23 12:57:24.1     -41   -262     -5    266    267 188.9  -1.2  34172  289.76 0854.58
2009/04/23 12:57:24.2     -25   -264     18    266    267 185.6   3.9  34174  289.80 0854.58
2009/04/23 12:57:24.3     -31   -251     -9    253    254 187.1  -2.2  34172  289.76 0854.58
2009/04/23 12:57:24.4     -47   -198    -13    204    205 193.4  -3.7  34172  289.79 0854.58
2009/04/23 12:57:24.5     -63   -144    -15    158    159 203.6  -5.6  34176  289.84 0854.58
2009/04/23 12:57:24.6     -43   -110     -4    119    120 201.4  -2.2  34180  289.91 0854.58
2009/04/23 12:57:24.7     -79   -101    -35    129    134 218.3 -15.4  34174  289.82 0854.58
2009/04/23 12:57:24.8    -120    -96    -48    154    161 231.4 -22.3  34180  289.91 0854.58
2009/04/23 12:57:24.9    -165    -83    -51    185    193 243.1 -15.5  34174  289.82 0854.58
2009/04/23 12:57:25.0    -128   -106    -12    167    168 230.2  -4.4  34176  289.84 0854.58
2009/04/23 12:57:25.1     -78    -27     40     83     92 250.5  27.2  34176  289.85 0854.58
2009/04/23 12:57:25.2       4     -3     73      6     73 129.5  90.0  34180  289.91 0854.58
2009/04/23 12:57:25.3      37    -24     73     45     85 123.3  65.1  34180  289.92 0854.58
2009/04/23 12:57:25.4      83    -15     60     85    104 100.6  38.6  34180  289.92 0854.57
2009/04/23 12:57:25.5      28      3     69     29     74  82.1  76.1  34178  289.89 0854.57
2009/04/23 12:57:25.6      -9      1     64     10     64 281.5  90.0  34184  289.99 0854.57
2009/04/23 12:57:25.7     -42    -41    102     59    117 225.9  67.7  34184  289.99 0854.57
2009/04/23 12:57:25.8     -54    -67     89     87    124 218.7  50.1  34178  289.87 0854.57
2009/04/23 12:57:25.9    -103   -132    144    168    221 218.1  45.1  34164  289.63 0854.57
2009/04/23 12:57:26.0    -108    -92    113    143    182 229.6  42.7  34170  289.74 0854.57
2009/04/23 12:57:26.1    -112    -76     91    136    163 235.9  36.7  34166  289.67 0854.57
2009/04/23 12:57:26.2    -217    -71     18    229    230 251.8   4.6  34164  289.63 0854.57
2009/04/23 12:57:26.3    -223    -38     19    227    228 260.3   5.0  34166  289.67 0854.57
2009/04/23 12:57:26.4    -104     -1    104    105    147 269.2  50.0  34164  289.65 0854.57
2009/04/23 12:57:26.5     -89    -59     62    108    124 236.3  32.9  34166  289.67 0854.57
2009/04/23 12:57:26.6    -134    -56     68    146    161 247.4  26.6  34166  289.69 0854.57
2009/04/23 12:57:26.7    -154    -31     90    158    181 258.5  32.4  34166  289.69 0854.57
2009/04/23 12:57:26.8    -174      5     98    175    200 271.7  31.6  34170  289.75 0854.57
2009/04/23 12:57:26.9    -167   -216    129    274    302 217.8  27.1  34176  289.85 0854.57
2009/04/23 12:57:27.0    -108   -250    117    273    297 203.4  24.6  34168  289.71 0854.57
2009/04/23 12:57:27.1     -99   -188     79    213    227 207.9  21.3  34170  289.74 0854.57
2009/04/23 12:57:27.2    -127   -165     88    209    226 217.8  24.1  34176  289.84 0854.57
2009/04/23 12:57:27.3    -165   -155     61    227    236 226.9  15.2  34174  289.80 0854.57
2009/04/23 12:57:27.4    -154   -146     94    213    232 226.7  25.2  34172  289.77 0854.56
2009/04/23 12:57:27.5    -182   -198     41    270    274 222.5   8.8  34166  289.68 0854.56
2009/04/23 12:57:27.6    -194   -199     38    279    282 224.3   7.8  34166  289.66 0854.56
2009/04/23 12:57:27.7    -216   -154      3    266    267 234.5   0.8  34168  289.71 0854.56
2009/04/23 12:57:27.8    -132    -55     97    144    173 247.4  36.7  34164  289.65 0854.56
2009/04/23 12:57:27.9    -166    -10    109    167    199 266.5  36.3  34170  289.74 0854.56
2009/04/23 12:57:28.0    -197     -4    102    198    222 268.7  29.3  34172  289.79 0854.56
2009/04/23 12:57:28.1     -93    -65     95    114    148 234.9  43.8  34176  289.84 0854.56
2009/04/23 12:57:28.2    -106   -128    112    167    201 219.6  37.3  34170  289.75 0854.56
2009/04/23 12:57:28.3    -108   -167     91    200    219 213.0  26.2  34170  289.75 0854.56
2009/04/23 12:57:28.4    -112   -110    118    158    197 225.6  40.4  34172  289.79 0854.56
2009/04/23 12:57:28.5    -122    -77    162    145    217 237.6  53.5  34172  289.79 0854.56
2009/04/23 12:57:28.6    -100    -74    174    125    214 233.6  60.8  34176  289.85 0854.56
2009/04/23 12:57:28.7    -163   -118    168    202    262 234.1  43.8  34176  289.85 0854.56
2009/04/23 12:57:28.8    -182   -108    162    212    266 239.3  41.4  34178  289.88 0854.56
2009/04/23 12:57:28.9    -155    -76    155    173    232 243.8  46.6  34176  289.85 0854.56
2009/04/23 12:57:29.0    -151     -7    127    152    198 267.0  44.3  34174  289.82 0854.56
2009/04/23 12:57:29.1     -87     10     86     88    123 276.6  50.0  34170  289.75 0854.56
2009/04/23 12:57:29.2      54   -106    130    120    176 152.8  52.2  34174  289.80 0854.56
2009/04/23 12:57:29.3      64    -85    120    107    160 142.6  53.7  34178  289.87 0854.56
2009/04/23 12:57:29.4       4   -274    158    275    317 179.1  32.6  34174  289.80 0854.57
2009/04/23 12:57:29.5      49   -245    175    250    305 168.5  38.5  34172  289.76 0854.57
2009/04/23 12:57:29.6      48   -255    159    260    304 169.3  34.4  34174  289.81 0854.57
2009/04/23 12:57:29.7     175   -274    132    326    351 147.5  23.2  34168  289.72 0854.57
2009/04/23 12:57:29.8     239   -413    -18    478    479 149.9  -2.2  34160  289.57 0854.57
2009/04/23 12:57:29.9     152   -415    -64    443    448 159.8  -8.3  34166  289.68 0854.57
2009/04/23 12:57:30.0     122   -323   -123    346    368 159.3 -19.6  34166  289.69 0854.57
2009/04/23 12:57:30.1      90   -400   -117    411    427 167.3 -20.7  34164  289.65 0854.57
2009/04/23 12:57:30.2      50   -338    -94    342    355 171.5 -15.4  34166  289.67 0854.57
2009/04/23 12:57:30.3       6   -341    -43    342    345 178.9  -7.2  34168  289.71 0854.57
2009/04/23 12:57:30.4       9   -355     53    356    360 178.5   8.5  34170  289.74 0854.57
2009/04/23 12:57:30.5     -15   -419     27    420    421 182.1   3.7  34172  289.78 0854.57
2009/04/23 12:57:30.6     -17   -384     74    385    393 182.6  11.0  34172  289.76 0854.57
2009/04/23 12:57:30.7     -77   -336    -29    345    347 192.9  -4.8  34168  289.72 0854.57
2009/04/23 12:57:30.8     -44   -414    -84    417    426 186.1 -11.5  34166  289.66 0854.57
2009/04/23 12:57:30.9     -63   -282    -78    290    301 192.7 -15.2  34166  289.66 0854.57
2009/04/23 12:57:31.0     -58   -341    -36    346    348 189.7  -6.1  34166  289.67 0854.57
2009/04/23 12:57:31.1       0   -416    -11    417    418 180.1  -1.6  34158  289.55 0854.57
2009/04/23 12:57:31.2      92   -410     61    421    426 167.3   8.3  34154  289.46 0854.57
2009/04/23 12:57:31.3     160   -422    -24    452    453 159.2  -3.1  34136  289.17 0854.57
2009/04/23 12:57:31.4     170   -437    -51    469    472 158.7  -6.3  34132  289.10 0854.58
2009/04/23 12:57:31.5     159   -418    -24    448    449 159.1  -3.1  34142  289.26 0854.58
2009/04/23 12:57:31.6     161   -429      1    459    460 159.4   0.2  34138  289.19 0854.58
2009/04/23 12:57:31.7     108   -512     44    524    527 168.0   4.9  34144  289.31 0854.58
2009/04/23 12:57:31.8     146   -526    -65    547    551 164.4  -6.8  34148  289.38 0854.58
2009/04/23 12:57:31.9      45   -487      0    490    491 174.7   0.0  34142  289.28 0854.58
2009/04/23 12:57:32.0     101   -473     50    484    487 167.9   5.9  34140  289.23 0854.58
2009/04/23 12:57:32.1     118   -463     17    478    479 165.7   2.1  34150  289.40 0854.58
2009/04/23 12:57:32.2     134   -418     -5    440    441 162.2  -0.7  34152  289.44 0854.58
2009/04/23 12:57:32.3     132   -377     22    400    401 160.7   3.2  34156  289.52 0854.58
2009/04/23 12:57:32.4      49   -357    -32    361    363 172.2  -5.2  34150  289.40 0854.58
2009/04/23 12:57:32.5       2   -314   -127    315    339 179.5 -27.5  34156  289.52 0854.58
2009/04/23 12:57:32.6       0   -275    -86    276    289 180.0 -22.5  34152  289.44 0854.58
2009/04/23 12:57:32.7      14   -260   -136    261    294 176.9 -33.9  34154  289.47 0854.58
2009/04/23 12:57:32.8      21   -289   -170    290    336 175.8 -37.4  34156  289.49 0854.58
2009/04/23 12:57:32.9     -12   -336   -131    337    361 182.1 -26.9  34160  289.57 0854.58
2009/04/23 12:57:33.0      83   -251   -127    265    293 161.5 -31.7  34160  289.58 0854.58
2009/04/23 12:57:33.1     -86   -148    -90    172    194 210.1 -34.5  34162  289.60 0854.58
2009/04/23 12:57:33.2     -79   -245    -52    258    264 198.0 -11.6  34164  289.64 0854.58
2009/04/23 12:57:33.3     -42   -125    -89    132    159 198.7 -41.7  34164  289.65 0854.58
2009/04/23 12:57:33.4       7    -99   -148    100    178 175.5 -67.2  34164  289.65 0854.58
2009/04/23 12:57:33.5     137   -129    -59    189    197 133.3 -22.3  34162  289.60 0854.58
2009/04/23 12:57:33.6     174   -179     13    250    251 135.9   3.1  34158  289.54 0854.58
2009/04/23 12:57:33.7      62   -185    137    196    239 161.3  38.5  34166  289.69 0854.58
2009/04/23 12:57:33.8      43   -224    172    229    286 169.1  40.7  34162  289.61 0854.58
2009/04/23 12:57:33.9      44   -229    137    234    271 169.1  33.4  34160  289.58 0854.58
2009/04/23 12:57:34.0       8   -132     98    133    165 176.4  39.9  34160  289.58 0854.58
2009/04/23 12:57:34.1      62   -131    136    145    198 154.7  48.0  34160  289.57 0854.58
2009/04/23 12:57:34.2      67   -209    169    220    277 162.2  41.6  34158  289.53 0854.58
2009/04/23 12:57:34.3     -39   -278    169    281    327 188.0  34.0  34164  289.64 0854.58
2009/04/23 12:57:34.4     -58   -219    162    227    278 195.1  39.1  34164  289.64 0854.58
2009/04/23 12:57:34.5     -46   -163    150    170    226 195.8  45.9  34162  289.62 0854.58
2009/04/23 12:57:34.6     -18   -173    107    174    204 186.0  34.8  34168  289.70 0854.58
2009/04/23 12:57:34.7     -16   -139    146    140    202 186.7  51.2  34166  289.69 0854.58
2009/04/23 12:57:34.8      -1   -170    103    171    199 180.4  33.7  34164  289.65 0854.58
2009/04/23 12:57:34.9      59   -107    110    123    165 151.0  46.6  34166  289.69 0854.58
2009/04/23 12:57:35.0     104   -158     93    190    211 146.6  27.8  34162  289.62 0854.58
2009/04/23 12:57:35.1      46   -158     98    165    191 163.7  33.7  34164  289.65 0854.58
2009/04/23 12:57:35.2      54   -149    121    159    199 160.0  41.4  34162  289.62 0854.58
2009/04/23 12:57:35.3      70   -184     69    198    210 159.1  19.4  34162  289.62 0854.58
2009/04/23 12:57:35.4      39   -203    106    207    232 169.1  29.3  34160  289.58 0854.58
2009/04/23 12:57:35.5     114    -83    115    142    182 126.0  43.5  34164  289.63 0854.58
2009/04/23 12:57:35.6     165   -161     -2    231    232 134.2  -0.7  34158  289.55 0854.58
2009/04/23 12:57:35.7     128   -310     18    336    337 157.5   3.1  34162  289.62 0854.58
2009/04/23 12:57:35.8      82   -245     91    259    275 161.5  19.4  34162  289.59 0854.58
2009/04/23 12:57:35.9      97   -318     93    333    346 163.0  15.7  34158  289.54 0854.58
2009/04/23 12:57:36.0      35   -361     43    363    366 174.3   6.9  34164  289.64 0854.58
2009/04/23 12:57:36.1      59   -359     47    364    368 170.6   7.5  34166  289.69 0854.58
2009/04/23 12:57:36.2      32   -290     98    292    309 173.5  18.6  34170  289.75 0854.58
2009/04/23 12:57:36.3      55   -263     76    269    280 168.0  15.8  34168  289.71 0854.58
2009/04/23 12:57:36.4      51   -221    110    227    252 166.9  27.4  34164  289.63 0854.58
2009/04/23 12:57:36.5     -15   -200    148    201    249 184.5  40.1  34164  289.63 0854.58
2009/04/23 12:57:36.6     -50   -204    132    211    248 193.8  35.2  34168  289.71 0854.58
2009/04/23 12:57:36.7     -71   -231     99    242    261 197.2  23.1  34168  289.71 0854.58
2009/04/23 12:57:36.8     -66   -218     54    228    235 196.9  13.5  34176  289.83 0854.58
2009/04/23 12:57:36.9     -56   -273     90    279    294 191.8  17.9  34170  289.73 0854.58
2009/04/23 12:57:37.0     -83   -274     55    287    293 197.0  11.0  34168  289.71 0854.58
2009/04/23 12:57:37.1     -89   -292     32    306    308 196.9   6.0  34164  289.64 0854.58
2009/04/23 12:57:37.2     -44   -160     45    167    174 195.6  15.3  34168  289.70 0854.58
2009/04/23 12:57:37.3    -101   -101    -51    144    153 225.1 -19.6  34166  289.67 0854.58
2009/04/23 12:57:37.4     -91   -142    -46    169    176 212.7 -15.2  34170  289.75 0854.58
2009/04/23 12:57:37.5     -87   -192    -16    211    212 204.5  -4.6  34170  289.74 0854.58
2009/04/23 12:57:37.6     -38   -189    -10    193    194 191.5  -3.1  34170  289.74 0854.58
2009/04/23 12:57:37.7     -68   -151    -56    166    175 204.3 -23.3  34168  289.70 0854.58
2009/04/23 12:57:37.8    -121    -70    -57    141    152 239.8 -27.4  34170  289.74 0854.58
2009/04/23 12:57:37.9    -126    -63    -49    141    149 243.4 -23.3  34168  289.72 0854.58
2009/04/23 12:57:38.0     -54    -23    -20     59     62 246.5 -23.6  34166  289.69 0854.58
2009/04/23 12:57:38.1      -1     24     -9     25     26 357.3 -23.3  34168  289.72 0854.58
2009/04/23 12:57:38.2      26     25    -63     37     73  46.7 -71.2  34168  289.70 0854.58
2009/04/23 12:57:38.3     -10     87    -85     88    122 353.3 -53.8  34168  289.70 0854.58
2009/04/23 12:57:38.4      35    132    -17    137    139  15.1  -7.3  34168  289.72 0854.58
2009/04/23 12:57:38.5      32    120    -26    125    128  15.1 -11.9  34168  289.72 0854.58
2009/04/23 12:57:38.6      52    129    -45    140    147  21.8 -23.8  34172  289.79 0854.58
2009/04/23 12:57:38.7      65    117    -29    134    138  29.0 -12.4  34166  289.69 0854.58
2009/04/23 12:57:38.8      52    104      2    117    118  26.7   1.2  34166  289.69 0854.58
2009/04/23 12:57:38.9      20    112    -36    114    119  10.2 -22.8  34156  289.50 0854.58
2009/04/23 12:57:39.0      66     68    -96     95    135  44.1 -54.1  34150  289.41 0854.58
2009/04/23 12:57:39.1      96     76    -63    123    138  51.8 -33.7  34158  289.53 0854.58
2009/04/23 12:57:39.2      59    108    -45    124    131  28.5 -24.8  34160  289.57 0854.58
2009/04/23 12:57:39.3      40    112    -60    120    134  20.0 -33.1  34158  289.53 0854.58
2009/04/23 12:57:39.4      44     96    -32    106    110  24.9 -21.7  34152  289.45 0854.57
2009/04/23 12:57:39.5     102     48    -44    113    121  64.6 -26.9  34150  289.40 0854.57
2009/04/23 12:57:39.6     103     60    -41    120    128  59.8 -19.1  34152  289.43 0854.57
2009/04/23 12:57:39.7     165    100    -29    194    197  58.7  -8.6  34160  289.58 0854.57
2009/04/23 12:57:39.8     201     26    -21    203    205  82.5  -6.0  34176  289.85 0854.57
2009/04/23 12:57:39.9     155     71     96    171    196  65.4  31.4  34180  289.92 0854.57
2009/04/23 12:57:40.0     111    102    121    151    193  47.3  43.3  34176  289.84 0854.57
2009/04/23 12:57:40.1       5    121    118    122    169   2.7  49.4  34176  289.85 0854.57
2009/04/23 12:57:40.2       0    143    116    144    184 359.6  43.3  34168  289.72 0854.57
2009/04/23 12:57:40.3     -26    145    114    148    186 349.8  42.0  34160  289.58 0854.57
2009/04/23 12:57:40.4     -74    181    114    196    226 337.5  33.1  34160  289.58 0854.57
2009/04/23 12:57:40.5      -9    125    110    126    167 355.6  45.6  34160  289.58 0854.57
2009/04/23 12:57:40.6     -74    171     60    187    197 336.4  17.9  34152  289.45 0854.57
2009/04/23 12:57:40.7    -118    174     -8    211    212 325.7  -2.2  34150  289.40 0854.57
2009/04/23 12:57:40.8    -180    127    -33    221    224 305.3  -8.6  34152  289.43 0854.57
2009/04/23 12:57:40.9    -203    125     -9    239    240 301.8  -2.2  34152  289.42 0854.57
2009/04/23 12:57:41.0    -156     85    -53    178    186 298.6 -16.6  34150  289.41 0854.57
2009/04/23 12:57:41.1    -127     -3    -83    128    152 268.3 -40.0  34166  289.69 0854.57
2009/04/23 12:57:41.2     -70      7    -68     71     98 276.1 -53.8  34164  289.63 0854.57
2009/04/23 12:57:41.3     -84    -90    -92    124    154 223.2 -44.1  34170  289.74 0854.57
2009/04/23 12:57:41.4    -138    -50    -93    147    173 250.0 -39.9  34172  289.79 0854.57
2009/04/23 12:57:41.5    -170    -91   -162    194    252 241.8 -48.2  34176  289.85 0854.57
2009/04/23 12:57:41.6    -187   -113   -131    219    255 238.7 -37.9  34174  289.81 0854.57
2009/04/23 12:57:41.7    -233   -163    -99    285    301 234.9 -24.0  34174  289.80 0854.57
2009/04/23 12:57:41.8    -218   -147    -90    264    278 235.9 -23.8  34174  289.80 0854.57
2009/04/23 12:57:41.9    -141   -218    -54    260    266 213.0 -11.9  34178  289.88 0854.57
2009/04/23 12:57:42.0    -122   -194    -91    230    247 212.1 -27.2  34174  289.80 0854.57
2009/04/23 12:57:42.1    -121   -205    -86    239    254 210.5 -24.8  34172  289.76 0854.57
2009/04/23 12:57:42.2    -216    -16   -219    217    308 265.7 -54.5  34168  289.71 0854.57
2009/04/23 12:57:42.3    -294    -37   -271    297    402 262.8 -51.4  34168  289.72 0854.57
2009/04/23 12:57:42.4    -232    -86   -216    248    328 249.6 -49.9  34170  289.73 0854.57
2009/04/23 12:57:42.5    -151    -41   -230    157    278 254.9 -67.0  34170  289.73 0854.57
2009/04/23 12:57:42.6     -95    -14   -170     97    195 261.2 -72.1  34166  289.69 0854.57
2009/04/23 12:57:42.7     -32     -3   -141     33    144 263.9 -90.0  34164  289.65 0854.57
2009/04/23 12:57:42.8      40   -102   -131    110    171 158.2 -60.2  34168  289.72 0854.57
2009/04/23 12:57:42.9     -28   -187    -96    190    212 188.5 -33.5  34170  289.74 0854.57
2009/04/23 12:57:43.0     -15    -47    -19     50     53 198.3 -24.4  34178  289.87 0854.57
2009/04/23 12:57:43.1     -67   -179    -39    192    196 200.7 -11.5  34178  289.89 0854.57
2009/04/23 12:57:43.2    -130   -228     67    263    272 209.6  14.3  34176  289.85 0854.57
2009/04/23 12:57:43.4    -106   -261     39    282    285 202.1   8.0  34184  289.97 0854.56
2009/04/23 12:57:43.4     -31   -124    105    128    165 194.3  43.5  34180  289.92 0854.56
2009/04/23 12:57:43.5      -8      3    100      9    100 295.3  90.0  34190  290.08 0854.56
2009/04/23 12:57:43.7      -1    -72     70     73    101 180.9  48.5  34186  290.01 0854.56
2009/04/23 12:57:43.8    -102   -144      9    177    178 215.2   3.1  34178  289.87 0854.56
2009/04/23 12:57:43.9    -144    -27    103    147    179 259.4  38.6  34170  289.75 0854.56
2009/04/23 12:57:44.0    -147   -208    196    255    321 215.2  41.3  34176  289.83 0854.56
2009/04/23 12:57:44.1     -78   -324    134    334    359 193.6  23.0  34174  289.81 0854.56
2009/04/23 12:57:44.2     -74   -332    106    341    358 192.6  17.3  34174  289.82 0854.56
2009/04/23 12:57:44.3    -119   -332     19    353    354 199.8   3.1  34172  289.79 0854.56
2009/04/23 12:57:44.4    -140   -312     18    342    343 204.2   3.0  34166  289.67 0854.56
2009/04/23 12:57:44.5    -109   -397    -22    412    413 195.4  -3.2  34166  289.68 0854.56
2009/04/23 12:57:44.6    -105   -304    155    322    357 199.2  27.4  34166  289.67 0854.56
2009/04/23 12:57:44.7    -189   -208    171    282    329 222.3  34.2  34168  289.70 0854.56
2009/04/23 12:57:44.8    -255   -248     37    356    358 225.8   6.0  34166  289.67 0854.56
2009/04/23 12:57:44.9    -160   -305    -54    345    350 207.7  -8.9  34172  289.79 0854.56
2009/04/23 12:57:45.0    -221   -347    -63    412    417 212.6  -8.7  34166  289.68 0854.56
2009/04/23 12:57:45.1    -197   -238     -6    310    311 219.6  -1.2  34166  289.68 0854.56
2009/04/23 12:57:45.2    -327   -200    -85    384    394 238.5 -12.6  34168  289.71 0854.56
2009/04/23 12:57:45.3    -393   -191    -17    438    439 244.0  -2.2  34168  289.70 0854.56
2009/04/23 12:57:45.4    -501    -70    -97    507    517 262.0 -10.9  34170  289.74 0854.57
2009/04/23 12:57:45.5    -345    -33     32    347    349 264.4   5.4  34168  289.72 0854.57
2009/04/23 12:57:45.6    -134   -173     77    219    233 217.8  19.4  34164  289.65 0854.57
2009/04/23 12:57:45.7    -218   -401    188    457    494 208.5  23.6  34172  289.76 0854.57
2009/04/23 12:57:45.8    -146   -406    106    432    445 199.8  13.8  34168  289.70 0854.57
2009/04/23 12:57:45.9     -38   -413     27    415    416 185.4   3.7  34160  289.56 0854.57
2009/04/23 12:57:46.0      27   -412     10    413    414 176.2   1.5  34170  289.75 0854.57
2009/04/23 12:57:46.1      38   -409     68    411    417 174.6   9.4  34172  289.78 0854.57
2009/04/23 12:57:46.2      54   -504      3    508    509 173.8   0.4  34172  289.78 0854.57
2009/04/23 12:57:46.3     -21   -462    -18    463    464 182.7  -2.2  34170  289.75 0854.57
2009/04/23 12:57:46.4     -45   -327    -34    331    333 187.9  -5.9  34172  289.77 0854.58
2009/04/23 12:57:46.5       4   -306      9    307    308 179.1   1.8  34172  289.76 0854.58
2009/04/23 12:57:46.6     -37   -361    -73    364    372 186.0 -11.3  34170  289.74 0854.58
2009/04/23 12:57:46.7      41   -480   -147    482    505 175.0 -17.0  34168  289.71 0854.58
2009/04/23 12:57:46.8      57   -411    -91    416    426 172.0 -12.4  34174  289.80 0854.58
2009/04/23 12:57:46.9      69   -341     -7    349    350 168.4  -1.2  34168  289.71 0854.58
2009/04/23 12:57:47.0     189   -380    137    425    447 153.5  17.9  34172  289.77 0854.58
2009/04/23 12:57:47.1     310   -542    -18    625    626 150.3  -1.7  34154  289.48 0854.58
2009/04/23 12:57:47.2     187   -513     22    547    548 160.0   2.3  34146  289.35 0854.58
2009/04/23 12:57:47.3     260   -497    127    562    577 152.4  12.8  34154  289.47 0854.58
2009/04/23 12:57:47.4     226   -496    175    545    573 155.5  17.8  34154  289.46 0854.58
2009/04/23 12:57:47.5     274   -499    133    570    586 151.2  13.1  34160  289.58 0854.58
2009/04/23 12:57:47.6     180   -527    142    558    576 161.1  14.3  34152  289.42 0854.58
2009/04/23 12:57:47.7     136   -611    254    627    676 167.4  23.4  34166  289.66 0854.58
2009/04/23 12:57:47.8      58   -752    100    755    762 175.5   7.6  34162  289.60 0854.58
2009/04/23 12:57:47.9     -72   -798      1    802    803 185.2   0.1  34156  289.49 0854.58
2009/04/23 12:57:48.0      17   -807   -102    808    815 178.7  -7.2  34162  289.60 0854.58
2009/04/23 12:57:48.1      97   -807    -85    813    818 173.1  -6.0  34162  289.60 0854.58
2009/04/23 12:57:48.2      58   -750     23    753    754 175.5   1.8  34164  289.63 0854.58
2009/04/23 12:57:48.3      99   -772     -8    779    780 172.7  -0.6  34162  289.59 0854.58
2009/04/23 12:57:48.4     164   -718    -78    737    742 167.1  -6.1  34160  289.58 0854.59
2009/04/23 12:57:48.5     253   -594     -8    646    647 156.9  -0.7  34156  289.52 0854.59
2009/04/23 12:57:48.6     207   -608     80    643    648 161.2   7.1  34162  289.62 0854.59
2009/04/23 12:57:48.7     174   -582    130    608    622 163.3  12.1  34162  289.60 0854.59
2009/04/23 12:57:48.8     139   -398     33    422    424 160.7   4.6  34158  289.55 0854.59
2009/04/23 12:57:48.9      34   -445   -129    447    466 175.6 -16.1  34164  289.63 0854.59
2009/04/23 12:57:49.0      49   -586   -151    589    609 175.2 -14.4  34162  289.61 0854.59
2009/04/23 12:57:49.1     121   -571   -122    584    597 168.0 -11.9  34158  289.54 0854.59
2009/04/23 12:57:49.2     133   -598    -59    613    617 167.4  -5.6  34162  289.59 0854.59
2009/04/23 12:57:49.3     173   -585      8    611    612 163.5   0.8  34162  289.59 0854.59
2009/04/23 12:57:49.4     145   -589    -23    607    608 166.1  -2.2  34162  289.59 0854.59
2009/04/23 12:57:49.5      97   -526     37    535    537 169.5   4.0  34160  289.57 0854.59
2009/04/23 12:57:49.6     105   -496     57    508    512 168.0   6.5  34162  289.59 0854.59
2009/04/23 12:57:49.7      82   -482     67    489    494 170.3   7.8  34162  289.61 0854.59
2009/04/23 12:57:49.8      59   -443     86    447    456 172.4  11.0  34162  289.61 0854.59
2009/04/23 12:57:49.9      39   -516    107    518    530 175.7  11.7  34164  289.63 0854.59
2009/04/23 12:57:50.0     -35   -457     41    459    461 184.5   5.2  34158  289.55 0854.59
2009/04/23 12:57:50.1      -6   -386     40    387    390 181.0   6.0  34162  289.59 0854.59
2009/04/23 12:57:50.2     -36   -493     37    495    497 184.2   4.3  34160  289.57 0854.59
2009/04/23 12:57:50.3     -53   -500     35    503    505 186.1   4.0  34166  289.67 0854.59
2009/04/23 12:57:50.4     -38   -490     50    492    495 184.5   5.9  34162  289.62 0854.60
2009/04/23 12:57:50.5     -79   -501     83    508    515 189.0   9.3  34162  289.62 0854.60
2009/04/23 12:57:50.6     -69   -485     64    490    495 188.1   7.5  34162  289.62 0854.60
2009/04/23 12:57:50.7     -47   -507     10    510    511 185.3   1.2  34162  289.61 0854.60
2009/04/23 12:57:50.8     -61   -523     29    527    528 186.7   3.2  34164  289.65 0854.60
2009/04/23 12:57:50.9     -81   -413    -13    421    422 191.1  -1.9  34162  289.60 0854.60
2009/04/23 12:57:51.0      67   -483    117    488    502 172.0  13.5  34162  289.61 0854.60
2009/04/23 12:57:51.1     -21   -413     80    414    422 183.0  11.0  34166  289.66 0854.60
2009/04/23 12:57:51.2      41   -479     53    481    485 175.0   6.4  34162  289.61 0854.60
2009/04/23 12:57:51.3      82   -476      2    484    485 170.2   0.3  34162  289.62 0854.60
2009/04/23 12:57:51.4      81   -505    -36    512    514 170.9  -4.1  34164  289.64 0854.60
2009/04/23 12:57:51.5     141   -419     63    443    448 161.3   8.1  34166  289.66 0854.60
2009/04/23 12:57:51.6     133   -372    -18    396    397 160.3  -2.7  34162  289.62 0854.60
2009/04/23 12:57:51.7     185   -355     55    401    405 152.5   7.9  34164  289.65 0854.60
2009/04/23 12:57:51.8     118   -351     86    371    381 161.3  13.1  34162  289.59 0854.60
2009/04/23 12:57:51.9      44   -361     99    364    378 172.9  15.2  34166  289.67 0854.60
2009/04/23 12:57:52.0     -64   -395    -95    401    413 189.2 -13.4  34160  289.58 0854.60
2009/04/23 12:57:52.1    -131   -309   -115    336    355 203.0 -23.9  34160  289.57 0854.60
2009/04/23 12:57:52.2     -19   -355    -98    356    370 183.2 -15.5  34146  289.33 0854.60
2009/04/23 12:57:52.3       7   -479      2    480    481 179.1   0.3  34160  289.56 0854.60
2009/04/23 12:57:52.4      49   -432    -56    435    439 173.5  -7.4  34158  289.55 0854.60
2009/04/23 12:57:52.5      22   -503    -11    504    505 177.4  -1.3  34162  289.59 0854.60
2009/04/23 12:57:52.6      20   -500    -54    501    505 177.7  -6.2  34158  289.54 0854.60
2009/04/23 12:57:52.7      69   -521    -42    526    528 172.4  -4.6  34162  289.60 0854.60
2009/04/23 12:57:52.8      15   -511     24    512    513 178.2   2.8  34150  289.40 0854.60
2009/04/23 12:57:52.9      68   -381     19    388    389 169.9   2.9  34164  289.64 0854.60
2009/04/23 12:57:53.0      49   -486    132    489    507 174.2  15.2  34166  289.66 0854.60
2009/04/23 12:57:53.1     173   -446     45    479    482 158.7   5.4  34166  289.69 0854.60
2009/04/23 12:57:53.2     209   -430     59    479    483 154.1   7.1  34164  289.64 0854.60
2009/04/23 12:57:53.3     149   -443     58    468    472 161.4   7.1  34162  289.62 0854.60
2009/04/23 12:57:53.4     -66   -444    -89    449    458 188.5 -11.2  34156  289.49 0854.60
2009/04/23 12:57:53.5     -88   -413   -108    423    437 192.1 -14.4  34162  289.60 0854.60
2009/04/23 12:57:53.6      20   -421   -146    422    446 177.2 -24.3  34164  289.65 0854.60
2009/04/23 12:57:53.7      48   -474   -131    477    494 174.2 -20.1  34166  289.66 0854.60
2009/04/23 12:57:53.8     -23   -356   -138    357    382 183.7 -26.7  34162  289.62 0854.60
2009/04/23 12:57:53.9     -29   -351   -153    353    384 184.9 -29.5  34164  289.64 0854.60
2009/04/23 12:57:54.0       8   -350   -111    351    369 178.6 -17.6  34164  289.64 0854.60
2009/04/23 12:57:54.1      -6   -399   -140    400    423 181.0 -24.4  34164  289.65 0854.60
2009/04/23 12:57:54.2      58   -417    -92    422    433 172.0 -12.4  34166  289.68 0854.60
2009/04/23 12:57:54.3      93   -412   -107    423    437 167.2 -14.3  34170  289.73 0854.60
2009/04/23 12:57:54.4      72   -463   -126    469    486 171.1 -15.1  34168  289.71 0854.60
2009/04/23 12:57:54.5      34   -431    -80    433    441 175.4 -10.5  34170  289.75 0854.60
2009/04/23 12:57:54.6      64   -449   -107    454    467 171.9 -13.3  34170  289.75 0854.60
2009/04/23 12:57:54.7     119   -455   -130    471    489 165.3 -15.5  34172  289.76 0854.60
2009/04/23 12:57:54.8      98   -417    -84    429    438 166.8 -11.1  34172  289.78 0854.60
2009/04/23 12:57:54.9      85   -417    -16    426    427 168.4  -2.2  34172  289.78 0854.60
2009/04/23 12:57:55.0      59   -446     -2    450    451 172.4  -0.4  34166  289.66 0854.60
2009/04/23 12:57:55.1     124   -383      0    403    404 162.1   0.0  34168  289.72 0854.60
2009/04/23 12:57:55.2      99   -328     21    343    344 163.1   3.5  34170  289.74 0854.60
2009/04/23 12:57:55.3      64   -368     31    374    376 170.1   4.9  34168  289.72 0854.60
2009/04/23 12:57:55.4      66   -366     37    372    374 169.8   5.7  34168  289.71 0854.60
2009/04/23 12:57:55.5      27   -348     60    350    356 175.5   9.7  34166  289.67 0854.60
2009/04/23 12:57:55.6     -23   -391     76    392    400 183.4  11.0  34168  289.72 0854.60
2009/04/23 12:57:55.7     -14   -424     87    425    435 182.0  11.6  34174  289.80 0854.60
2009/04/23 12:57:55.8     -17   -409    104    410    424 182.5  14.3  34174  289.82 0854.60
2009/04/23 12:57:55.9     -34   -460     71    462    468 184.2   8.8  34176  289.83 0854.60
2009/04/23 12:57:56.0     -31   -453     22    455    456 184.0   2.8  34170  289.73 0854.60
2009/04/23 12:57:56.1     -34   -434     37    436    438 184.5   4.9  34166  289.66 0854.60
2009/04/23 12:57:56.2     -63   -425    -20    430    431 188.5  -2.7  34166  289.66 0854.60
2009/04/23 12:57:56.3     -24   -525     -8    526    527 182.7  -0.9  34166  289.67 0854.60
2009/04/23 12:57:56.4     -27   -499    113    500    513 183.1  12.8  34170  289.74 0854.59
2009/04/23 12:57:56.5    -156   -470    -10    496    497 198.4  -1.3  34162  289.59 0854.59
2009/04/23 12:57:56.6    -178   -380    -38    420    422 205.2  -5.2  34158  289.55 0854.59
2009/04/23 12:57:56.7     -33   -394    -36    396    398 184.9  -5.3  34166  289.69 0854.59
2009/04/23 12:57:56.8      20   -377     18    378    379 176.9   2.8  34172  289.76 0854.59
2009/04/23 12:57:56.9     -36   -306    -12    309    310 186.9  -2.2  34168  289.70 0854.59
2009/04/23 12:57:57.0      32   -323    -54    325    330 174.3  -9.5  34170  289.73 0854.59
2009/04/23 12:57:57.1     -77   -268   -108    279    299 196.0 -26.5  34166  289.66 0854.59
2009/04/23 12:57:57.2    -119   -176    -84    213    228 214.3 -27.2  34162  289.60 0854.59
2009/04/23 12:57:57.3    -126   -185    -54    225    232 214.3 -13.7  34162  289.60 0854.59
2009/04/23 12:57:57.4     -80   -135    -50    157    164 210.7 -23.0  34158  289.55 0854.59
2009/04/23 12:57:57.5    -151   -160    -91    221    239 223.3 -28.0  34160  289.58 0854.59
2009/04/23 12:57:57.6    -132   -239    -77    274    285 209.0 -15.8  34156  289.49 0854.59
2009/04/23 12:57:57.7     -63   -154      0    167    168 202.3   0.0  34158  289.53 0854.59
2009/04/23 12:57:57.8      -2   -337    119    338    358 180.5  20.2  34168  289.71 0854.59
2009/04/23 12:57:57.9     -23   -314     92    315    329 184.2  16.3  34168  289.71 0854.59
2009/04/23 12:57:58.0    -137   -218     16    258    259 212.1   3.6  34166  289.68 0854.59
2009/04/23 12:57:58.1    -129   -219     40    255    259 210.5   8.9  34166  289.68 0854.59
2009/04/23 12:57:58.2    -120   -222      7    253    254 208.5   1.7  34168  289.70 0854.59
2009/04/23 12:57:58.3     -84   -328     22    339    340 194.4   3.7  34172  289.77 0854.59
2009/04/23 12:57:58.4     -23   -305     26    307    309 184.5   4.9  34170  289.73 0854.56
2009/04/23 12:57:58.5       0   -379     40    380    383 179.9   6.1  34166  289.67 0854.56
2009/04/23 12:57:58.6     -27   -350      0    352    353 184.5   0.1  34168  289.71 0854.56
2009/04/23 12:57:58.7     -23   -358     20    359    360 183.8   3.2  34166  289.67 0854.56
2009/04/23 12:57:58.8      -8   -347     -7    348    349 181.4  -1.3  34168  289.72 0854.56
2009/04/23 12:57:58.9      48   -350    -40    354    357 172.1  -6.6  34168  289.71 0854.56
2009/04/23 12:57:59.0      63   -313    -50    320    324 168.5  -8.9  34166  289.66 0854.56
2009/04/23 12:57:59.1      75   -297    -56    307    313 165.7 -10.4  34166  289.68 0854.56
2009/04/23 12:57:59.2      -4   -230    -76    231    244 181.1 -18.3  34168  289.70 0854.56
2009/04/23 12:57:59.3     -12   -254    -90    255    270 182.9 -24.4  34168  289.71 0854.56
2009/04/23 12:57:59.4     -25   -247   -100    249    268 185.8 -27.4  34168  289.70 0854.56
2009/04/23 12:57:59.5      72   -241   -156    252    296 163.3 -39.2  34168  289.70 0854.56
2009/04/23 12:57:59.6      27   -224   -163    226    278 172.9 -43.9  34166  289.68 0854.56
2009/04/23 12:57:59.7      11   -238    -80    239    252 177.3 -23.6  34164  289.64 0854.56
2009/04/23 12:57:59.8     -17   -243    -53    244    250 184.0 -12.4  34158  289.54 0854.56
2009/04/23 12:57:59.9     -15   -239    -50    240    246 183.6 -11.9  34160  289.58 0854.56
2009/04/23 12:58:00.0      35   -206    -56    210    218 170.2 -15.0  34162  289.62 0854.56
2009/04/23 12:58:00.1       9   -233     11    234    235 177.8   2.9  34166  289.68 0854.56
2009/04/23 12:58:00.2       3   -205     18    206    207 179.1   5.2  34168  289.70 0854.56
2009/04/23 12:58:00.3     -75   -235     55    247    254 197.8  12.6  34166  289.66 0854.56
2009/04/23 12:58:00.4    -139   -250     21    287    288 209.0   4.2  34162  289.61 0854.55
2009/04/23 12:58:00.5    -148   -230    -60    274    281 212.7 -12.4  34160  289.58 0854.55
2009/04/23 12:58:00.6    -126   -218    -27    253    255 210.1  -6.2  34162  289.61 0854.55
2009/04/23 12:58:00.7    -153   -173    -33    232    235 221.4  -8.2  34164  289.64 0854.55
2009/04/23 12:58:00.8    -180   -114    -69    214    225 237.5 -17.9  34166  289.67 0854.55
2009/04/23 12:58:00.9    -175   -273   -169    325    366 212.6 -33.9  34164  289.65 0854.55
2009/04/23 12:58:01.0     -33   -404    -52    406    410 184.8  -7.3  34158  289.55 0854.55
2009/04/23 12:58:01.1     -44   -440     22    443    444 185.8   2.9  34164  289.63 0854.55
2009/04/23 12:58:01.2      27   -440     37    441    443 176.4   4.9  34170  289.73 0854.55
2009/04/23 12:58:01.3      12   -465      0    466    467 178.5   0.0  34170  289.74 0854.55
2009/04/23 12:58:01.4      21   -438     -2    439    440 177.2  -0.3  34166  289.66 0854.55
2009/04/23 12:58:01.5      19   -427     29    428    429 177.4   3.9  34162  289.61 0854.55
2009/04/23 12:58:01.6      16   -476    111    477    490 178.0  13.1  34166  289.69 0854.55
2009/04/23 12:58:01.7      44   -522     73    525    531 175.1   8.0  34168  289.70 0854.55
2009/04/23 12:58:01.8      59   -535     28    539    540 173.7   3.0  34154  289.48 0854.55
2009/04/23 12:58:01.9      21   -467    -31    468    470 177.4  -3.8  34152  289.45 0854.55
2009/04/23 12:58:02.0    -112   -371   -115    388    405 196.9 -16.5  34158  289.54 0854.55
2009/04/23 12:58:02.1    -101   -429    -92    441    451 193.3 -11.8  34150  289.41 0854.55
2009/04/23 12:58:02.2     -12   -412     -9    413    414 181.8  -1.3  34160  289.56 0854.55
2009/04/23 12:58:02.3     -35   -464     73    466    472 184.4   9.0  34152  289.45 0854.55
2009/04/23 12:58:02.4     -96   -432     75    443    450 192.6   9.7  34154  289.46 0854.52
2009/04/23 12:58:02.5     -81   -396   -125    405    424 191.7 -17.2  34156  289.49 0854.52
2009/04/23 12:58:02.6     -10   -429    -68    430    436 181.4  -9.0  34150  289.41 0854.52
2009/04/23 12:58:02.7       2   -406    -66    407    413 179.7  -9.3  34150  289.39 0854.52
2009/04/23 12:58:02.8      62   -410    -53    415    419 171.3  -7.3  34146  289.34 0854.52
2009/04/23 12:58:02.9      19   -403    -22    404    405 177.2  -3.1  34148  289.38 0854.52
2009/04/23 12:58:03.0      19   -361     -7    362    363 177.0  -1.2  34146  289.35 0854.52
2009/04/23 12:58:03.1       6   -358    -18    359    360 178.9  -3.0  34146  289.32 0854.52
2009/04/23 12:58:03.2      41   -368      0    371    372 173.5   0.1  34146  289.33 0854.52
2009/04/23 12:58:03.3      48   -403      5    406    407 173.1   0.8  34148  289.36 0854.52
2009/04/23 12:58:03.4      77   -384    -28    392    393 168.6  -4.1  34146  289.35 0854.52
2009/04/23 12:58:03.5      58   -397    -27    402    403 171.7  -3.9  34146  289.33 0854.52
2009/04/23 12:58:03.6      73   -391    -56    398    403 169.3  -8.1  34146  289.35 0854.52
2009/04/23 12:58:03.7      85   -361    -48    371    375 166.7  -7.4  34148  289.37 0854.52
2009/04/23 12:58:03.8      80   -322    -42    332    335 166.0  -7.2  34148  289.37 0854.52
2009/04/23 12:58:03.9      85   -314      0    326    327 164.7   0.1  34144  289.31 0854.52
2009/04/23 12:58:04.0      88   -324     -9    336    337 164.7  -1.6  34146  289.32 0854.52
2009/04/23 12:58:04.1      77   -331     -2    340    341 166.9  -0.5  34150  289.40 0854.52
2009/04/23 12:58:04.2      62   -346      4    352    353 169.8   0.7  34152  289.45 0854.52
2009/04/23 12:58:04.3      39   -366    -46    369    372 173.8  -7.2  34154  289.48 0854.52
2009/04/23 12:58:04.4      72   -378    -56    385    390 169.2  -8.4  34156  289.50 0854.52
2009/04/23 12:58:04.5      79   -389    -61    398    403 168.4  -8.8  34154  289.48 0854.52
2009/04/23 12:58:04.6      42   -304    -61    308    315 172.0 -11.2  34152  289.44 0854.52
2009/04/23 12:58:04.7      -4   -269     33    270    273 180.9   7.1  34152  289.44 0854.52
2009/04/23 12:58:04.8      34   -316     41    318    321 173.7   7.5  34156  289.49 0854.52
2009/04/23 12:58:04.9      39   -305     43    308    312 172.7   8.0  34152  289.42 0854.52
2009/04/23 12:58:05.0      82   -286     61    298    305 164.0  11.6  34152  289.44 0854.52
2009/04/23 12:58:05.1      88   -309     67    322    329 164.0  11.8  34152  289.44 0854.52
2009/04/23 12:58:05.2      95   -331     92    345    358 164.0  15.0  34152  289.43 0854.52
2009/04/23 12:58:05.3       1   -320    135    321    348 179.8  24.1  34154  289.47 0854.52
2009/04/23 12:58:05.4     -38   -364    107    367    383 186.1  16.3  34156  289.50 0854.52
2009/04/23 12:58:05.5      43   -342     99    345    360 172.8  16.0  34154  289.48 0854.52
2009/04/23 12:58:05.6      47   -320     48    324    328 171.5   8.5  34152  289.44 0854.52
2009/04/23 12:58:05.7      60   -421     28    426    427 171.8   3.8  34154  289.48 0854.52
2009/04/23 12:58:05.8      54   -487     45    491    494 173.7   5.3  34160  289.57 0854.52
2009/04/23 12:58:05.9      36   -485     -7    487    488 175.7  -0.9  34158  289.54 0854.52
2009/04/23 12:58:06.0      18   -443      0    444    445 177.7   0.0  34150  289.39 0854.52
2009/04/23 12:58:06.1      17   -399     41    400    403 177.5   5.9  34154  289.48 0854.52
2009/04/23 12:58:06.2      20   -358     86    359    370 176.8  13.5  34156  289.50 0854.52
2009/04/23 12:58:06.3      69   -340     43    348    351 168.4   7.1  34158  289.55 0854.52
2009/04/23 12:58:06.4     134   -359    109    384    400 159.4  15.9  34162  289.59 0854.52
2009/04/23 12:58:06.5     185   -389     21    431    432 154.5   2.9  34160  289.58 0854.52
2009/04/23 12:58:06.6     178   -382     39    422    424 155.0   5.3  34162  289.61 0854.52
2009/04/23 12:58:06.7      91   -354     76    366    374 165.5  11.8  34162  289.62 0854.52
2009/04/23 12:58:06.8      39   -260     82    264    277 171.3  17.3  34164  289.64 0854.52
2009/04/23 12:58:06.9      87   -249    -14    264    265 160.6  -3.1  34162  289.59 0854.52
2009/04/23 12:58:07.0      57   -337    -13    342    343 170.4  -2.2  34160  289.57 0854.52
2009/04/23 12:58:07.1      77   -333    -22    342    343 166.9  -3.7  34162  289.62 0854.52
2009/04/23 12:58:07.2     114   -341     82    360    370 161.5  12.9  34162  289.60 0854.52
2009/04/23 12:58:07.3     155   -360     57    392    397 156.7   8.3  34162  289.59 0854.52
2009/04/23 12:58:07.4     186   -323     70    373    380 150.0  10.7  34158  289.54 0854.52
2009/04/23 12:58:07.5     178   -271     17    325    326 146.6   3.1  34158  289.54 0854.52
2009/04/23 12:58:07.6     163   -255    -21    303    304 147.4  -4.1  34160  289.58 0854.52
2009/04/23 12:58:07.7     211   -272    -37    345    348 142.2  -6.2  34158  289.55 0854.52
2009/04/23 12:58:07.8     188   -213    -11    285    286 138.5  -2.2  34160  289.58 0854.52
2009/04/23 12:58:07.9     115   -201    -16    232    233 150.1  -4.1  34160  289.58 0854.52
2009/04/23 12:58:08.0      59   -167     47    178    185 160.4  15.0  34156  289.50 0854.52
2009/04/23 12:58:08.1     -32   -138     46    142    150 193.3  17.9  34158  289.53 0854.52
2009/04/23 12:58:08.2      -9   -140     61    141    153 184.0  25.1  34160  289.57 0854.52
2009/04/23 12:58:08.3     -24   -202    106    204    229 186.9  29.5  34160  289.57 0854.52
2009/04/23 12:58:08.4     -64   -249    114    258    282 194.5  25.2  34162  289.61 0854.52
2009/04/23 12:58:08.5     -79   -260     53    272    278 196.9  11.1  34160  289.56 0854.52
2009/04/23 12:58:08.6    -109   -255    -10    278    279 203.2  -2.2  34162  289.59 0854.52
2009/04/23 12:58:08.7    -105   -243    -94    265    282 203.4 -19.6  34160  289.56 0854.52
2009/04/23 12:58:08.8    -137   -315   -131    344    368 203.6 -26.1  34164  289.65 0854.52
2009/04/23 12:58:08.9    -135   -374   -136    398    421 200.0 -18.9  34170  289.75 0854.52
2009/04/23 12:58:09.0    -262   -422   -131    497    514 211.9 -14.8  34166  289.66 0854.52
2009/04/23 12:58:09.1    -401   -356   -139    537    555 228.4 -14.5  34170  289.75 0854.52
2009/04/23 12:58:09.2    -510   -353   -184    621    648 235.3 -16.5  34166  289.69 0854.52
2009/04/23 12:58:09.3    -402   -366   -114    544    556 227.7 -11.9  34162  289.62 0854.53
2009/04/23 12:58:09.4    -369   -288    -11    469    470 232.0  -1.4  34162  289.59 0854.53
2009/04/23 12:58:09.5    -452   -393   -179    600    627 229.0 -16.6  34166  289.67 0854.53
2009/04/23 12:58:09.7    -370   -340   -181    503    534 227.4 -25.1  34164  289.63 0854.53
2009/04/23 12:58:09.7    -291   -293   -213    413    464 224.8 -33.7  34162  289.61 0854.53
2009/04/23 12:58:09.8    -331   -305    -71    451    457 227.4  -9.0  34166  289.68 0854.53
2009/04/23 12:58:10.0    -390   -263   -176    471    502 235.9 -25.9  34166  289.66 0854.53
2009/04/23 12:58:10.0    -351   -257   -212    436    484 233.8 -32.2  34170  289.73 0854.53
2009/04/23 12:58:10.1    -291   -252   -183    385    426 229.1 -31.7  34164  289.65 0854.53
2009/04/23 12:58:10.3    -320   -174   -189    365    411 241.5 -33.9  34166  289.67 0854.53
2009/04/23 12:58:10.4    -356   -117   -148    375    403 251.7 -27.1  34166  289.67 0854.53
2009/04/23 12:58:10.5    -264   -130   -194    295    353 243.8 -40.9  34168  289.71 0854.53
2009/04/23 12:58:10.6    -232    -70   -148    243    284 253.2 -38.6  34170  289.73 0854.53
2009/04/23 12:58:10.7    -253   -103   -154    274    314 247.8 -36.1  34168  289.71 0854.53
2009/04/23 12:58:10.8    -211    -55   -159    219    270 255.4 -43.9  34170  289.73 0854.53
2009/04/23 12:58:10.9    -230    -37   -169    234    288 260.8 -43.9  34168  289.70 0854.53
2009/04/23 12:58:11.0    -375    -32   -127    377    397 265.0 -23.6  34172  289.76 0854.53
2009/04/23 12:58:11.1    -411    -86   -147    421    445 258.1 -24.4  34170  289.75 0854.53
2009/04/23 12:58:11.2    -465   -129   -163    483    511 254.5 -18.7  34170  289.73 0854.53
2009/04/23 12:58:11.3    -574   -138   -164    591    613 256.5 -20.2  34170  289.75 0854.53
2009/04/23 12:58:11.4    -531    -23   -254    532    589 267.5 -31.7  34166  289.66 0854.54
2009/04/23 12:58:11.5    -489      7   -245    490    547 270.9 -32.9  34168  289.72 0854.54
2009/04/23 12:58:11.6    -568      4   -214    569    607 270.5 -26.0  34162  289.61 0854.54
2009/04/23 12:58:11.7    -579      0   -201    580    613 270.0 -24.3  34166  289.66 0854.54
2009/04/23 12:58:11.8    -450    -53   -247    454    516 263.2 -35.3  34170  289.73 0854.54
2009/04/23 12:58:11.9    -440     99   -138    452    472 282.8 -21.9  34170  289.73 0854.54
2009/04/23 12:58:12.0    -464    -48   -185    467    502 264.1 -27.3  34170  289.73 0854.54
2009/04/23 12:58:12.1    -500    -41   -258    502    564 265.2 -33.7  34166  289.68 0854.54
2009/04/23 12:58:12.2    -381   -162   -186    415    454 246.9 -30.2  34168  289.72 0854.54
2009/04/23 12:58:12.3    -373    -28   -270    374    461 265.7 -43.9  34176  289.83 0854.54
2009/04/23 12:58:12.4    -276    -50   -155    281    320 259.6 -35.9  34172  289.76 0854.54
2009/04/23 12:58:12.5    -175    -91    -87    198    216 242.5 -29.5  34174  289.82 0854.54
2009/04/23 12:58:12.6    -328   -224    -73    398    405 235.6 -10.5  34170  289.73 0854.54
2009/04/23 12:58:12.7    -253   -395   -129    470    488 212.6 -15.4  34170  289.74 0854.54
2009/04/23 12:58:12.8     -95   -348   -127    361    382 195.3 -24.5  34172  289.77 0854.54
2009/04/23 12:58:12.9     -75   -397    -68    405    411 190.7  -9.6  34170  289.73 0854.54
2009/04/23 12:58:13.0    -261   -215     45    339    342 230.5   7.6  34178  289.86 0854.54
2009/04/23 12:58:13.1    -247   -273    -14    369    370 222.2  -2.2  34172  289.76 0854.54
2009/04/23 12:58:13.2    -220   -245    -42    330    333 221.9  -7.3  34172  289.79 0854.54
2009/04/23 12:58:13.3    -240   -112    -68    266    275 244.9 -14.4  34182  289.95 0854.54
2009/04/23 12:58:13.4     -92   -230    -23    248    250 201.8  -5.4  34170  289.73 0854.55
2009/04/23 12:58:13.5     -70   -229    -15    240    241 197.2  -3.7  34168  289.70 0854.55
2009/04/23 12:58:13.6     -43   -195    -14    200    201 192.5  -4.1  34168  289.72 0854.55
2009/04/23 12:58:13.7     -56   -200    -61    208    216 195.8 -21.0  34166  289.69 0854.55
2009/04/23 12:58:13.8     -47   -169      8    176    177 195.8   2.9  34164  289.63 0854.55
2009/04/23 12:58:13.9       7   -153     67    154    167 177.3  24.9  34168  289.72 0854.55
2009/04/23 12:58:14.0      54   -136     40    147    153 158.2  15.3  34170  289.74 0854.55
2009/04/23 12:58:14.1      96    -66    -15    117    118 124.6  -7.3  34170  289.74 0854.55
2009/04/23 12:58:14.2     144     13    -48    145    152  84.8 -23.8  34172  289.77 0854.55
2009/04/23 12:58:14.3     136     32    -86    140    164  76.7 -39.2  34170  289.75 0854.55
2009/04/23 12:58:14.4     259     12     74    260    271  87.2  16.0  34162  289.61 0854.55
2009/04/23 12:58:14.5     174    119    158    211    263  55.6  40.6  34174  289.81 0854.55
2009/04/23 12:58:14.6     224    101    122    246    274  65.6  28.2  34170  289.75 0854.55
2009/04/23 12:58:14.7      94     60    122    112    165  57.5  52.5  34180  289.91 0854.55
2009/04/23 12:58:14.8     -19     -1     41     20     45 265.6  71.9  34184  289.97 0854.55
2009/04/23 12:58:14.9       7    -24     21     26     33 163.1  43.7  34182  289.96 0854.55
2009/04/23 12:58:15.0      32     29     11     44     46  47.8  14.3  34184  289.99 0854.55
2009/04/23 12:58:15.1     130    -26    109    133    171 101.4  43.7  34176  289.84 0854.55
2009/04/23 12:58:15.2     181      0     74    182    196  90.0  23.4  34176  289.85 0854.55
2009/04/23 12:58:15.3     133   -104    129    170    213 128.0  41.2  34182  289.96 0854.55
2009/04/23 12:58:15.4      19   -188    217    189    287 174.2  54.3  34184  289.98 0854.53
2009/04/23 12:58:15.5      77   -228    182    241    302 161.3  40.7  34182  289.93 0854.53
2009/04/23 12:58:15.6      57   -243    127    250    280 166.6  29.2  34184  289.98 0854.53
2009/04/23 12:58:15.7      83   -306    123    318    340 164.9  22.3  34182  289.94 0854.53
2009/04/23 12:58:15.8      86   -276     62    290    297 162.6  12.2  34174  289.81 0854.53
2009/04/23 12:58:15.9      81   -306     68    317    325 165.1  12.1  34170  289.75 0854.53
2009/04/23 12:58:16.0      23   -316     56    317    323 175.8  10.1  34168  289.71 0854.53
2009/04/23 12:58:16.1      92   -342     46    355    358 164.9   7.4  34166  289.69 0854.53
2009/04/23 12:58:16.2     147   -413     -2    439    440 160.3  -0.4  34168  289.70 0854.53
2009/04/23 12:58:16.3     120   -433     78    450    457 164.5   9.9  34168  289.72 0854.53
2009/04/23 12:58:16.4     142   -394    -69    420    426 160.1  -9.4  34170  289.73 0854.53
2009/04/23 12:58:16.5     195   -430    -34    473    475 155.6  -4.1  34168  289.71 0854.53
2009/04/23 12:58:16.6     127   -486    -55    503    507 165.3  -6.3  34170  289.73 0854.53
2009/04/23 12:58:16.7     209   -352    -47    410    413 149.3  -6.6  34168  289.70 0854.53
2009/04/23 12:58:16.8     135   -404    -56    427    431 161.5  -7.5  34170  289.73 0854.53
2009/04/23 12:58:16.9     198   -435    -44    478    481 155.5  -5.3  34166  289.66 0854.53
2009/04/23 12:58:17.0     167   -489    -20    518    519 161.1  -2.2  34170  289.73 0854.53
2009/04/23 12:58:17.1     208   -521    -36    562    564 158.2  -3.7  34170  289.75 0854.53
2009/04/23 12:58:17.2     170   -385    -58    421    425 156.2  -7.9  34174  289.80 0854.53
2009/04/23 12:58:17.3      95   -205     17    227    228 155.1   4.4  34178  289.89 0854.53
2009/04/23 12:58:17.4     -83   -215     21    231    233 201.2   5.4  34170  289.75 0854.53
2009/04/23 12:58:17.5     -63   -178     73    190    203 199.6  21.7  34172  289.77 0854.53
2009/04/23 12:58:17.6    -338   -476    283    584    648 215.4  27.8  34172  289.76 0854.53
2009/04/23 12:58:17.7     -14   -399    314    400    508 182.0  42.1  34166  289.69 0854.53
2009/04/23 12:58:17.8     112   -283    212    305    371 158.4  38.3  34170  289.74 0854.53
2009/04/23 12:58:17.9      87   -257    188    272    330 161.3  37.9  34172  289.76 0854.53
2009/04/23 12:58:18.0      67   -287    187    295    349 166.7  35.5  34172  289.77 0854.53
2009/04/23 12:58:18.1     116   -246    210    273    344 154.7  41.5  34170  289.75 0854.53
2009/04/23 12:58:18.2     102   -297    151    315    349 161.1  27.3  34170  289.74 0854.53
2009/04/23 12:58:18.3      24   -316    192    318    371 175.5  34.0  34172  289.77 0854.53
2009/04/23 12:58:18.4      33   -303    142    305    336 173.8  26.6  34172  289.78 0854.53
2009/04/23 12:58:18.5     111   -410    145    425    450 164.9  18.9  34166  289.68 0854.53
2009/04/23 12:58:18.6      44   -304     54    308    313 171.8  10.0  34172  289.78 0854.53
2009/04/23 12:58:18.7     -14   -255     44    256    260 183.1   9.9  34176  289.85 0854.53
2009/04/23 12:58:18.8      29   -237     47    239    244 172.9  11.1  34172  289.78 0854.53
2009/04/23 12:58:18.9      32   -222     44    225    230 171.8  11.1  34182  289.96 0854.53
2009/04/23 12:58:19.0      25   -248    100    250    269 174.2  23.0  34180  289.92 0854.53
2009/04/23 12:58:19.1       3   -214    181    215    281 179.1  44.5  34186  290.00 0854.53
2009/04/23 12:58:19.2     -73   -291    180    301    350 194.2  33.8  34188  290.04 0854.53
2009/04/23 12:58:19.3     -31   -266    217    268    344 186.7  43.4  34174  289.81 0854.53
2009/04/23 12:58:19.4      10   -134    209    135    248 175.5  64.4  34174  289.82 0854.53
2009/04/23 12:58:19.5      91    -80    191    122    226 131.3  64.6  34180  289.92 0854.53
2009/04/23 12:58:19.6      51   -226    177    232    291 167.1  41.2  34176  289.85 0854.53
2009/04/23 12:58:19.7      20   -169    146    171    224 173.1  44.5  34176  289.84 0854.53
2009/04/23 12:58:19.8       2   -138     95    139    168 179.0  37.6  34176  289.85 0854.53
2009/04/23 12:58:19.9     -82   -174     45    193    199 205.4  13.2  34172  289.79 0854.53
2009/04/23 12:58:20.0     -33   -144    103    148    180 193.3  38.4  34174  289.82 0854.53
2009/04/23 12:58:20.1     -61   -258    131    266    296 193.4  28.0  34172  289.78 0854.53
2009/04/23 12:58:20.2     -71   -320    114    328    348 192.6  19.2  34172  289.79 0854.53
2009/04/23 12:58:20.3     -18   -372    109    373    389 182.9  16.4  34168  289.72 0854.53
2009/04/23 12:58:20.4     -31   -409    184    411    450 184.4  25.7  34176  289.83 0854.53
2009/04/23 12:58:20.5     -15   -434    179    435    470 182.0  23.7  34172  289.77 0854.53
2009/04/23 12:58:20.6     100   -392    211    405    456 165.6  29.6  34170  289.73 0854.53
2009/04/23 12:58:20.7     -29   -387     83    389    398 184.4  12.1  34172  289.77 0854.53
2009/04/23 12:58:20.8     -50   -396    142    400    424 187.2  20.3  34174  289.82 0854.53
2009/04/23 12:58:20.9    -122   -402    164    421    451 197.0  22.5  34170  289.73 0854.53
2009/04/23 12:58:21.0      21   -396    137    397    421 176.9  19.1  34168  289.70 0854.53
2009/04/23 12:58:21.1    -104   -401    220    415    469 194.6  30.2  34166  289.68 0854.53
2009/04/23 12:58:21.2     151   -359    205    390    440 157.2  30.0  34172  289.77 0854.53
2009/04/23 12:58:21.3      66   -426    271    432    509 171.1  35.1  34168  289.71 0854.53
2009/04/23 12:58:21.4      88   -466    127    475    492 169.3  15.0  34174  289.81 0854.53
2009/04/23 12:58:21.5     127   -520    179    536    566 166.2  18.5  34172  289.79 0854.53
2009/04/23 12:58:21.6     109   -512    122    524    538 167.9  13.1  34170  289.75 0854.53
2009/04/23 12:58:21.7     166   -455     74    485    491 160.0   8.7  34170  289.73 0854.53
2009/04/23 12:58:21.8      17   -381    194    382    428 177.4  29.2  34170  289.73 0854.53
2009/04/23 12:58:21.9      46   -290    243    294    381 170.9  43.7  34168  289.72 0854.53
2009/04/23 12:58:22.0      -4   -261    214    262    338 181.0  43.5  34166  289.66 0854.53
2009/04/23 12:58:22.1      -6   -363    183    364    407 181.0  28.6  34168  289.71 0854.53
2009/04/23 12:58:22.2     -12   -378    154    379    409 181.9  23.1  34168  289.71 0854.53
2009/04/23 12:58:22.3     -39   -361     19    364    365 186.2   3.0  34172  289.77 0854.53
2009/04/23 12:58:22.4      -4   -417    -35    418    420 180.6  -4.8  34162  289.60 0854.53
2009/04/23 12:58:22.5    -146   -456     19    479    480 197.8   2.3  34168  289.71 0854.53
2009/04/23 12:58:22.6     -57   -406    -32    411    413 188.1  -4.6  34172  289.78 0854.53
2009/04/23 12:58:22.7      -6   -399     41    400    403 181.0   6.0  34172  289.77 0854.53
2009/04/23 12:58:22.8      90   -440     29    450    451 168.4   3.7  34176  289.85 0854.53
2009/04/23 12:58:22.9      98   -441     57    452    456 167.4   7.2  34176  289.83 0854.53
2009/04/23 12:58:23.0     117   -405     99    422    434 163.9  13.2  34172  289.78 0854.53
2009/04/23 12:58:23.1      93   -359    195    371    419 165.4  30.2  34170  289.73 0854.53
2009/04/23 12:58:23.2      95   -429    118    440    456 167.5  15.0  34172  289.78 0854.53
2009/04/23 12:58:23.3     -15   -439    135    440    461 182.0  17.1  34174  289.80 0854.53
2009/04/23 12:58:23.4      18   -459    162    460    488 177.7  19.4  34170  289.73 0854.55
2009/04/23 12:58:23.5      -4   -453    158    454    481 180.6  19.2  34172  289.76 0854.55
2009/04/23 12:58:23.6     -20   -448    192    449    488 182.6  24.6  34172  289.76 0854.55
2009/04/23 12:58:23.7    -200   -338     47    393    396 210.6   6.9  34164  289.65 0854.55
2009/04/23 12:58:23.8    -127   -393     52    413    417 197.9   7.2  34166  289.68 0854.55
2009/04/23 12:58:23.9     -79   -325     40    335    338 193.7   6.9  34168  289.71 0854.55
2009/04/23 12:58:24.0     -19   -323    -98    324    338 183.5 -21.7  34172  289.76 0854.55
2009/04/23 12:58:24.1     101   -529    -43    539    541 169.2  -4.6  34162  289.60 0854.55
2009/04/23 12:58:24.2     -52   -667    -43    670    672 184.5  -3.7  34164  289.65 0854.55
2009/04/23 12:58:24.3    -101   -435    114    447    462 193.2  14.3  34158  289.55 0854.55
2009/04/23 12:58:24.4    -176   -683     35    706    707 194.5   2.9  34152  289.42 0854.55
2009/04/23 12:58:24.5    -305   -610   -151    683    700 206.6 -12.5  34164  289.65 0854.55
2009/04/23 12:58:24.6    -148   -565   -118    584    596 194.7 -11.5  34162  289.59 0854.55
2009/04/23 12:58:24.7    -197   -648    -87    678    684 197.0  -7.4  34162  289.61 0854.55
2009/04/23 12:58:24.8    -155   -652   -124    671    683 193.4 -10.5  34164  289.63 0854.55
2009/04/23 12:58:24.9     -94   -698   -182    705    729 187.7 -14.5  34166  289.67 0854.55
2009/04/23 12:58:25.0    -110   -776   -159    784    800 188.1 -11.5  34166  289.68 0854.55
2009/04/23 12:58:25.1    -204   -752   -149    780    795 195.2 -10.8  34166  289.68 0854.55
2009/04/23 12:58:25.2    -230   -691   -245    729    770 198.4 -18.6  34150  289.40 0854.55
2009/04/23 12:58:25.3    -276   -747   -154    797    812 200.3 -11.0  34158  289.55 0854.55
2009/04/23 12:58:25.4    -372   -682   -100    777    784 208.6  -7.4  34164  289.64 0854.54
2009/04/23 12:58:25.5    -496   -646    -88    815    820 217.5  -6.2  34162  289.60 0854.54
2009/04/23 12:58:25.6    -383   -569   -162    687    706 214.0 -13.3  34162  289.61 0854.54
2009/04/23 12:58:25.7    -368   -563    -59    673    676 213.2  -5.1  34164  289.65 0854.54
2009/04/23 12:58:25.8    -397   -527    -62    661    665 217.0  -5.4  34166  289.66 0854.54
2009/04/23 12:58:25.9    -365   -613      8    714    715 210.8   0.7  34168  289.71 0854.54
2009/04/23 12:58:26.0    -262   -659     64    710    713 201.7   5.2  34162  289.61 0854.54
2009/04/23 12:58:26.1    -222   -624    -49    663    665 199.6  -4.2  34160  289.56 0854.54
2009/04/23 12:58:26.2    -234   -519   -120    570    583 204.3 -11.9  34160  289.58 0854.54
2009/04/23 12:58:26.3    -379   -450    -96    589    597 220.1  -9.3  34162  289.61 0854.54
2009/04/23 12:58:26.4    -258   -418    -10    492    493 211.7  -1.3  34162  289.61 0854.54
2009/04/23 12:58:26.5    -220   -530    -83    574    581 202.6  -8.2  34162  289.61 0854.54
2009/04/23 12:58:26.6    -215   -509    -94    553    561 202.9  -9.7  34160  289.58 0854.54
2009/04/23 12:58:26.7    -139   -493    -54    513    516 195.8  -6.1  34162  289.61 0854.54
2009/04/23 12:58:26.8    -193   -650   -160    679    698 196.5 -13.3  34164  289.63 0854.54
2009/04/23 12:58:26.9    -194   -662   -238    690    731 196.4 -19.1  34164  289.64 0854.54
2009/04/23 12:58:27.0    -205   -643    -96    675    682 197.7  -8.1  34166  289.66 0854.54
2009/04/23 12:58:27.1       6   -639    -77    640    645 179.4  -6.9  34164  289.65 0854.54
2009/04/23 12:58:27.2       8   -667   -226    668    706 179.3 -18.7  34166  289.66 0854.54
2009/04/23 12:58:27.3       8   -590   -186    591    620 179.2 -17.5  34162  289.59 0854.54
2009/04/23 12:58:27.4      46   -533   -208    536    574 175.0 -26.7  34164  289.63 0854.54
2009/04/23 12:58:27.5     151   -447   -155    473    498 161.3 -18.2  34152  289.45 0854.54
2009/04/23 12:58:27.6     176   -423    -82    459    467 157.4 -10.2  34164  289.65 0854.54
2009/04/23 12:58:27.7     181   -498   -147    531    552 160.0 -15.5  34168  289.70 0854.54
2009/04/23 12:58:27.8     262   -386    -30    467    468 145.8  -3.7  34162  289.59 0854.54
2009/04/23 12:58:27.9     187   -450    -90    488    497 157.4 -10.5  34164  289.64 0854.54
2009/04/23 12:58:28.0     149   -452    -78    477    484 161.7  -9.3  34162  289.62 0854.54
2009/04/23 12:58:28.1     181   -409    -51    448    451 156.1  -6.6  34164  289.65 0854.54
2009/04/23 12:58:28.2     223   -361     24    425    426 148.3   3.2  34164  289.63 0854.54
2009/04/23 12:58:28.3     164   -339     46    377    380 154.1   7.1  34162  289.59 0854.54
2009/04/23 12:58:28.4     120   -357     38    377    379 161.4   5.8  34166  289.67 0854.51
2009/04/23 12:58:28.5     124   -289     52    315    320 156.8   9.5  34168  289.70 0854.51
2009/04/23 12:58:28.6      33   -265     22    268    270 172.9   4.9  34162  289.61 0854.51
2009/04/23 12:58:28.7      45   -270    133    274    304 170.4  27.3  34166  289.68 0854.51
2009/04/23 12:58:28.8      74   -338    128    347    369 167.6  21.0  34164  289.65 0854.51
2009/04/23 12:58:28.9      24   -568    221    569    610 177.5  22.4  34160  289.58 0854.51
2009/04/23 12:58:29.0    -153   -571     77    592    597 195.1   7.4  34164  289.63 0854.51
2009/04/23 12:58:29.1    -130   -664    -64    677    681 191.1  -5.5  34168  289.70 0854.51
2009/04/23 12:58:29.2     -65   -600    -12    604    605 186.2  -1.2  34162  289.59 0854.51
2009/04/23 12:58:29.3    -570   -389   -155    691    709 235.7 -12.7  34166  289.67 0854.51
2009/04/23 12:58:29.4    -614   -335   -209    700    730 241.4 -21.5  34156  289.52 0854.51
2009/04/23 12:58:29.5    -555   -186   -233    586    630 251.4 -27.3  34156  289.52 0854.51
2009/04/23 12:58:29.6    -474   -247     43    535    537 242.5   4.7  34166  289.68 0854.51
2009/04/23 12:58:29.7    -437   -317    -11    541    542 234.0  -1.3  34166  289.68 0854.51
2009/04/23 12:58:29.8    -440   -279    -48    522    525 237.6  -5.3  34166  289.67 0854.51
2009/04/23 12:58:29.9    -353   -303    -84    466    474 229.4 -10.2  34158  289.54 0854.51
2009/04/23 12:58:30.0    -306   -102    -55    323    328 251.4  -9.8  34162  289.61 0854.51
2009/04/23 12:58:30.1    -214   -171     -1    274    275 231.4  -0.3  34160  289.56 0854.51
2009/04/23 12:58:30.2    -527   -113   -162    540    563 257.8 -21.7  34166  289.68 0854.51
2009/04/23 12:58:30.3    -579   -160   -256    601    653 254.5 -28.9  34166  289.69 0854.51
2009/04/23 12:58:30.4    -565   -360   -217    671    705 237.5 -23.0  34164  289.65 0854.48
2009/04/23 12:58:30.5    -561   -297   -215    635    671 242.1 -18.7  34172  289.78 0854.48
2009/04/23 12:58:30.6    -676   -322   -255    749    792 244.5 -18.8  34174  289.81 0854.48
2009/04/23 12:58:30.7    -535   -431   -302    688    751 231.2 -29.6  34172  289.78 0854.48
2009/04/23 12:58:30.8    -568   -289   -287    638    699 243.0 -30.2  34170  289.73 0854.48
2009/04/23 12:58:30.9    -639   -366   -249    737    777 240.2 -23.7  34166  289.68 0854.48
2009/04/23 12:58:31.0    -642   -382   -280    747    797 239.3 -25.9  34170  289.73 0854.48
2009/04/23 12:58:31.1    -419   -426   -312    598    674 224.5 -34.0  34162  289.60 0854.48
2009/04/23 12:58:31.2    -219   -384   -277    443    522 209.7 -39.5  34166  289.66 0854.48
2009/04/23 12:58:31.3    -399   -184   -232    440    497 245.3 -34.5  34166  289.67 0854.48
2009/04/23 12:58:31.4    -575    -70   -207    580    615 263.0 -24.8  34166  289.69 0854.48
2009/04/23 12:58:31.5    -551     17   -266    552    612 271.8 -31.8  34172  289.78 0854.48
2009/04/23 12:58:31.6    -503    -28   -240    504    558 266.7 -31.7  34162  289.62 0854.48
2009/04/23 12:58:31.7    -511    -75   -213    517    559 261.6 -28.2  34168  289.70 0854.48
2009/04/23 12:58:31.8    -475    -89   -156    484    509 259.4 -17.9  34166  289.69 0854.48
2009/04/23 12:58:31.9    -439   -135   -159    460    486 252.9 -24.0  34162  289.62 0854.48
2009/04/23 12:58:32.0    -449    -63   -130    454    472 262.0 -20.7  34166  289.69 0854.48
2009/04/23 12:58:32.1    -357    -99   -167    371    406 254.4 -30.4  34164  289.65 0854.48
2009/04/23 12:58:32.2    -361   -118   -114    380    396 251.8 -21.7  34162  289.59 0854.48
2009/04/23 12:58:32.3    -277   -101   -194    295    353 250.0 -40.9  34166  289.67 0854.48
2009/04/23 12:58:32.4    -339   -173   -177    381    420 242.9 -31.3  34166  289.66 0854.47
2009/04/23 12:58:32.5    -388   -133   -188    411    451 251.0 -30.7  34168  289.72 0854.47
2009/04/23 12:58:32.6    -509    -44   -169    511    538 265.0 -23.7  34170  289.74 0854.47
2009/04/23 12:58:32.7    -555     55   -211    558    596 275.7 -26.0  34168  289.71 0854.47
2009/04/23 12:58:32.8    -404    -21   -123    405    424 267.0 -17.0  34170  289.75 0854.47
2009/04/23 12:58:32.9    -374   -271   -146    462    485 234.1 -17.5  34172  289.76 0854.47
2009/04/23 12:58:33.0    -213   -299     -3    368    369 215.5  -0.5  34168  289.72 0854.47
2009/04/23 12:58:33.1    -139   -333    -37    362    364 202.7  -5.9  34168  289.72 0854.47
2009/04/23 12:58:33.2    -124   -258     -6    287    288 205.6  -1.3  34172  289.78 0854.47
2009/04/23 12:58:33.3    -111   -281      2    303    304 201.6   0.5  34174  289.80 0854.47
2009/04/23 12:58:33.4     -96   -228      9    248    249 202.8   2.1  34170  289.73 0854.47
2009/04/23 12:58:33.5     -44   -242     56    247    254 190.5  12.9  34170  289.73 0854.47
2009/04/23 12:58:33.6     -26   -406     20    407    408 183.7   2.9  34170  289.75 0854.47
2009/04/23 12:58:33.7     -38   -447    -19    449    450 184.9  -2.5  34168  289.72 0854.47
2009/04/23 12:58:33.8      76   -374    -21    382    383 168.4  -3.3  34172  289.76 0854.47
2009/04/23 12:58:33.9     -23   -501   -134    502    520 182.7 -15.0  34158  289.54 0854.47
2009/04/23 12:58:34.0       0   -380    -83    381    391 180.0 -12.4  34166  289.69 0854.47
2009/04/23 12:58:34.1     -56   -410      5    414    415 187.9   0.8  34170  289.73 0854.47
2009/04/23 12:58:34.2       0   -342     40    343    346 180.0   6.8  34168  289.72 0854.47
2009/04/23 12:58:34.3       7   -338    140    339    366 178.8  23.7  34172  289.76 0854.47
2009/04/23 12:58:34.4      -3   -327    125    328    351 180.6  21.7  34170  289.74 0854.47
2009/04/23 12:58:34.5     -42   -328    182    331    377 187.4  31.3  34164  289.65 0854.47
2009/04/23 12:58:34.6      51   -198    199    205    285 165.5  49.2  34168  289.71 0854.47
2009/04/23 12:58:34.7     104   -138    114    173    207 143.0  36.3  34170  289.75 0854.47
2009/04/23 12:58:34.8      20   -272    114    273    295 175.6  24.1  34172  289.76 0854.47
2009/04/23 12:58:34.9     171   -269    228    320    392 147.5  39.1  34168  289.72 0854.47
2009/04/23 12:58:35.0     207   -328    247    389    460 147.7  35.5  34172  289.78 0854.47
2009/04/23 12:58:35.1     331   -240    252    409    480 126.0  34.6  34170  289.75 0854.47
2009/04/23 12:58:35.2      84   -490    197    498    535 170.2  22.9  34170  289.74 0854.47
2009/04/23 12:58:35.3      13   -428    245    429    494 178.2  32.3  34170  289.74 0854.47
2009/04/23 12:58:35.4      -9   -337    251    338    421 181.6  40.2  34172  289.76 0854.47
2009/04/23 12:58:35.5     -51   -371    355    375    516 187.9  48.4  34172  289.76 0854.47
2009/04/23 12:58:35.6    -162   -387    341    420    541 202.8  43.3  34166  289.67 0854.47
2009/04/23 12:58:35.7    -239   -561    213    610    647 203.1  19.3  34170  289.74 0854.47
2009/04/23 12:58:35.8    -379   -684    -56    783    785 209.0  -4.1  34170  289.74 0854.47
2009/04/23 12:58:36.0    -319   -563     -8    648    649 209.5  -0.7  34176  289.84 0854.47
2009/04/23 12:58:36.1    -169   -557    -85    583    590 196.9  -8.4  34168  289.71 0854.47
2009/04/23 12:58:36.1    -445   -374   -114    582    594 230.0 -11.1  34174  289.80 0854.47
2009/04/23 12:58:36.3    -245   -244    -99    347    360 225.1 -20.7  34164  289.64 0854.47
2009/04/23 12:58:36.3    -164   -570   -115    594    606 196.1 -11.0  34166  289.68 0854.47
2009/04/23 12:58:36.5    -437   -632   -134    769    781 214.7  -9.9  34170  289.73 0854.47
2009/04/23 12:58:36.6    -318   -663   -114    736    745 205.6  -8.8  34174  289.80 0854.47
2009/04/23 12:58:36.7    -548   -454   -205    712    742 230.4 -16.1  34168  289.71 0854.47
2009/04/23 12:58:36.8    -521   -483   -178    711    733 227.2 -14.1  34168  289.72 0854.47
2009/04/23 12:58:36.9    -442   -508   -229    674    711 221.0 -23.8  34168  289.72 0854.47
2009/04/23 12:58:37.0    -356   -554   -215    659    693 212.8 -23.3  34172  289.78 0854.47
2009/04/23 12:58:37.1    -308   -495   -164    583    606 211.9 -15.8  34154  289.47 0854.47
2009/04/23 12:58:37.2    -426   -179   -180    463    496 247.2 -26.8  34172  289.76 0854.47
2009/04/23 12:58:37.3    -515   -242     -2    570    571 244.8  -0.3  34164  289.63 0854.47
2009/04/23 12:58:37.4    -216    -99    -66    238    248 245.4 -15.5  34178  289.86 0854.47
2009/04/23 12:58:37.5    -174    -99    -61    201    210 240.5 -22.1  34174  289.82 0854.47
2009/04/23 12:58:37.6    -226    -13   -142    227    267 266.5 -39.9  34166  289.68 0854.47
2009/04/23 12:58:37.7      -5   -298    -38    299    302 181.0  -7.3  34170  289.73 0854.47
2009/04/23 12:58:37.8     -29   -144    -43    148    154 191.6 -21.2  34170  289.74 0854.47
2009/04/23 12:58:37.9       0    -47    -17     48     52 180.9 -19.7  34170  289.75 0854.47
2009/04/23 12:58:38.0      -3    -12   -141     13    141 195.1 -90.0  34172  289.79 0854.47
2009/04/23 12:58:38.1     -61    157    -21    169    171 338.6  -7.3  34168  289.70 0854.47
2009/04/23 12:58:38.2       7   -161    -21    162    164 177.3  -7.7  34174  289.80 0854.47
2009/04/23 12:58:38.3      36   -286    -37    289    292 172.8  -7.3  34174  289.80 0854.47
2009/04/23 12:58:38.4     -73   -222     -4    234    235 198.3  -1.2  34170  289.73 0854.47
2009/04/23 12:58:38.5      97   -175     19    201    202 151.0   5.4  34170  289.75 0854.47
2009/04/23 12:58:38.6     159   -267    -23    311    312 149.3  -4.4  34174  289.81 0854.47
2009/04/23 12:58:38.7      70   -261    -14    271    272 164.9  -3.1  34174  289.81 0854.47
2009/04/23 12:58:38.8     -41   -297   -108    301    320 188.0 -19.8  34172  289.76 0854.47
2009/04/23 12:58:38.9       4   -315      6    316    317 179.1   1.2  34172  289.78 0854.47
2009/04/23 12:58:39.0     -50   -247    -26    253    255 191.6  -6.1  34174  289.80 0854.47
2009/04/23 12:58:39.1     -53   -205     26    212    214 194.5   7.1  34172  289.79 0854.47
2009/04/23 12:58:39.2    -103   -131    -54    167    175 218.3 -23.6  34174  289.80 0854.47
2009/04/23 12:58:39.3      32   -114     32    119    124 164.0  15.2  34172  289.77 0854.47
2009/04/23 12:58:39.4    -179    -55    -24    188    190 252.9  -7.5  34178  289.89 0854.47
2009/04/23 12:58:39.5    -214   -252    -22    331    332 220.4  -3.9  34178  289.89 0854.47
2009/04/23 12:58:39.6    -311   -334    -92    457    467 222.9 -11.5  34166  289.66 0854.47
2009/04/23 12:58:39.7    -456   -458   -208    647    679 224.9 -22.9  34176  289.83 0854.47
2009/04/23 12:58:39.8    -542   -536   -262    763    806 225.3 -24.0  34170  289.74 0854.47
2009/04/23 12:58:39.9    -367   -422   -305    560    637 221.0 -35.3  34164  289.64 0854.47
2009/04/23 12:58:40.0    -463   -613   -216    769    798 217.1 -20.3  34166  289.68 0854.47
2009/04/23 12:58:40.1    -446   -693   -260    825    865 212.8 -22.4  34168  289.71 0854.47
2009/04/23 12:58:40.2    -217   -652   -118    688    699 198.4  -9.8  34170  289.73 0854.47
2009/04/23 12:58:40.3    -123   -368    -78    389    397 198.5 -11.3  34164  289.65 0854.47
2009/04/23 12:58:40.4    -120   -477   -239    492    546 194.2 -32.2  34172  289.79 0854.49
2009/04/23 12:58:40.5    -165   -532    -54    558    561 197.3  -5.6  34170  289.74 0854.49
2009/04/23 12:58:40.6    -158   -636    -66    656    660 194.0  -5.8  34170  289.75 0854.49
2009/04/23 12:58:40.7    -281   -288   -135    403    426 224.2 -18.6  34174  289.82 0854.49
2009/04/23 12:58:40.8     -45   -483   -102    486    497 185.3 -11.9  34168  289.71 0854.49
2009/04/23 12:58:40.9    -308   -422    -50    523    526 216.1  -5.5  34170  289.74 0854.49
2009/04/23 12:58:41.0    -260   -467     55    535    538 209.1   6.0  34166  289.68 0854.49
2009/04/23 12:58:41.1    -345   -384    -20    517    518 221.9  -2.3  34170  289.74 0854.49
2009/04/23 12:58:41.2     -94   -500     91    509    518 190.7  10.2  34156  289.49 0854.49
2009/04/23 12:58:41.3    -264   -490    126    557    572 208.4  12.8  34160  289.58 0854.49
2009/04/23 12:58:41.4    -314   -435     21    537    538 215.9   2.3  34168  289.72 0854.49
2009/04/23 12:58:41.5    -368   -616     54    718    720 210.9   4.3  34170  289.74 0854.49
2009/04/23 12:58:41.6    -160   -716     35    734    735 192.6   2.8  34178  289.87 0854.49
2009/04/23 12:58:41.7    -280   -747    -16    799    800 200.6  -1.2  34170  289.74 0854.49
2009/04/23 12:58:41.8     -64   -644     68    648    652 185.7   6.1  34168  289.72 0854.49
2009/04/23 12:58:41.9    -121   -665     95    676    683 190.4   8.0  34160  289.58 0854.49
2009/04/23 12:58:42.0    -120   -651    266    662    713 190.5  23.1  34164  289.64 0854.49
2009/04/23 12:58:42.1    -127   -531    315    547    631 193.5  32.6  34174  289.80 0854.49
2009/04/23 12:58:42.2     -38   -516    250    518    575 184.2  27.7  34172  289.79 0854.49
2009/04/23 12:58:42.3     106   -673    223    682    718 171.0  18.1  34168  289.72 0854.49
2009/04/23 12:58:42.4     165   -744    120    763    773 167.5   9.0  34168  289.70 0854.52
2009/04/23 12:58:42.5     191   -713     24    739    740 165.0   1.9  34168  289.72 0854.52
2009/04/23 12:58:42.6     173   -682    -27    704    705 165.7  -2.2  34172  289.76 0854.52
2009/04/23 12:58:42.7     179   -514    -53    545    548 160.8  -5.6  34176  289.84 0854.52
2009/04/23 12:58:42.8     240   -439    -87    501    509 151.3  -9.9  34172  289.78 0854.52
2009/04/23 12:58:42.9     198   -333    -69    388    395 149.3 -10.1  34164  289.64 0854.52
2009/04/23 12:58:43.0     204   -377    -16    429    430 151.5  -2.2  34168  289.70 0854.52
2009/04/23 12:58:43.1     262   -294     34    394    396 138.3   5.0  34160  289.57 0854.52
2009/04/23 12:58:43.2     175   -343    153    386    415 152.9  23.0  34174  289.82 0854.52
2009/04/23 12:58:43.3      19   -313    -32    314    316 176.4  -6.0  34168  289.70 0854.52
2009/04/23 12:58:43.4     114   -344    143    363    390 161.6  22.7  34168  289.72 0854.52
2009/04/23 12:58:43.5      88   -414    232    424    483 167.9  31.0  34166  289.67 0854.52
2009/04/23 12:58:43.6     160   -335    115    372    390 154.4  17.2  34170  289.74 0854.52
2009/04/23 12:58:43.7     120   -225    144    256    293 151.9  31.4  34168  289.71 0854.52
2009/04/23 12:58:43.8      91   -251    155    268    309 160.0  32.7  34172  289.78 0854.52
2009/04/23 12:58:43.9      92   -126    149    157    216 143.9  48.2  34172  289.79 0854.52
2009/04/23 12:58:44.0    -101    -97    144    141    201 226.0  50.4  34172  289.77 0854.52
2009/04/23 12:58:44.1    -199    -15    212    200    291 265.6  52.0  34162  289.61 0854.52
2009/04/23 12:58:44.2     -50     16    203     53    209 287.7  85.4  34172  289.79 0854.52
2009/04/23 12:58:44.3      42    106    309    115    329  21.8  78.9  34170  289.75 0854.52
2009/04/23 12:58:44.4     -37    -72    175     81    192 207.2  73.2  34174  289.80 0854.54
2009/04/23 12:58:44.5      -8   -113    269    114    292 184.5  76.0  34166  289.68 0854.54
2009/04/23 12:58:44.6       2      7    217      8    217  18.5  90.0  34174  289.80 0854.54
2009/04/23 12:58:44.7     -56   -194    297    203    359 196.3  62.6  34172  289.76 0854.54
2009/04/23 12:58:44.8      11     12    243     17    243  43.2  90.0  34174  289.82 0854.54
2009/04/23 12:58:44.9     -23     71    179     75    194 341.7  76.3  34176  289.85 0854.54
2009/04/23 12:58:45.0      13    -68    214     70    225 169.3  80.7  34172  289.79 0854.54
2009/04/23 12:58:45.1      10    -77    240     78    252 172.0  81.0  34172  289.79 0854.54
2009/04/23 12:58:45.2      14   -181    263    182    319 175.5  62.2  34168  289.70 0854.54
2009/04/23 12:58:45.3     -56     49    190     75    204 311.3  77.6  34174  289.80 0854.54
2009/04/23 12:58:45.4     -33     24    158     41    163 306.0  85.4  34178  289.87 0854.54
2009/04/23 12:58:45.5     109     35    205    115    235  71.8  68.5  34174  289.80 0854.54
2009/04/23 12:58:45.6     106    -47    213    116    242 114.0  69.1  34174  289.82 0854.54
2009/04/23 12:58:45.7    -102    -19    247    104    268 259.0  76.1  34166  289.69 0854.54
2009/04/23 12:58:45.8     -70   -254    297    264    397 195.4  53.9  34172  289.76 0854.54
2009/04/23 12:58:45.9     -41   -203    115    208    237 191.6  31.4  34172  289.77 0854.54
2009/04/23 12:58:46.0    -293     40    117    296    318 277.9  22.7  34146  289.34 0854.54
2009/04/23 12:58:46.1    -286   -177     16    337    338 238.2   2.8  34172  289.77 0854.54
2009/04/23 12:58:46.2    -156     76    215    174    276 296.0  56.9  34170  289.75 0854.54
2009/04/23 12:58:46.3     -51   -317     84    322    333 189.2  14.6  34164  289.65 0854.54
2009/04/23 12:58:46.4     -62   -360    232    366    433 189.9  35.5  34166  289.68 0854.54
2009/04/23 12:58:46.5    -117   -371    348    390    522 197.5  46.3  34170  289.73 0854.54
2009/04/23 12:58:46.6    -128   -422    160    442    471 196.9  19.9  34168  289.72 0854.54
2009/04/23 12:58:46.7    -135   -234    122    271    297 209.9  25.9  34168  289.70 0854.54
2009/04/23 12:58:46.8    -164   -163     45    232    237 225.1  11.1  34170  289.73 0854.54
2009/04/23 12:58:46.9    -251   -155    -93    296    311 238.2 -17.5  34160  289.58 0854.54
2009/04/23 12:58:47.0    -132   -237    104    272    291 209.2  22.0  34168  289.71 0854.54
2009/04/23 12:58:47.1    -124   -488     56    504    508 194.3   6.4  34164  289.64 0854.54
2009/04/23 12:58:47.2      64   -639    150    643    661 174.2  13.1  34166  289.67 0854.54
2009/04/23 12:58:47.3     268   -531     29    596    597 153.2   2.8  34168  289.71 0854.54
2009/04/23 12:58:47.4     369   -368     60    522    526 134.9   6.6  34158  289.53 0854.54
2009/04/23 12:58:47.5     207   -222    -16    304    305 137.0  -3.1  34168  289.70 0854.54
2009/04/23 12:58:47.6     -19   -249     43    250    254 184.4   9.9  34172  289.76 0854.54
2009/04/23 12:58:47.7     -77   -211     48    225    231 200.1  12.0  34170  289.74 0854.54
2009/04/23 12:58:47.8     -32   -253    120    256    282 187.2  27.1  34168  289.71 0854.54
2009/04/23 12:58:47.9     113   -230    184    257    316 153.7  39.1  34172  289.78 0854.54
2009/04/23 12:58:48.0     -26   -385     32    386    388 183.9   4.9  34158  289.55 0854.54
2009/04/23 12:58:48.1     -18   -128    -83    130    154 188.0 -39.9  34166  289.69 0854.54
2009/04/23 12:58:48.2      77   -129     14    151    152 149.3   5.4  34172  289.79 0854.54
2009/04/23 12:58:48.3     -20   -273     71    274    284 184.4  14.5  34166  289.68 0854.54
2009/04/23 12:58:48.4    -143   -170    145    223    265 220.1  36.0  34170  289.75 0854.54
2009/04/23 12:58:48.5      -8   -111    153    112    189 184.5  60.5  34166  289.69 0854.54
2009/04/23 12:58:48.6      80   -152    187    173    254 152.1  52.2  34170  289.75 0854.54
2009/04/23 12:58:48.7      11   -507     64    508    513 178.7   7.2  34168  289.71 0854.54
2009/04/23 12:58:48.8    -161   -443    -78    472    479 200.0  -9.4  34168  289.71 0854.54
2009/04/23 12:58:48.9    -218   -438   -162    490    517 206.5 -18.3  34168  289.71 0854.54
2009/04/23 12:58:49.0    -246   -553    162    606    628 204.0  15.0  34164  289.64 0854.54
2009/04/23 12:58:49.1    -480   -256      8    545    546 241.9   0.9  34172  289.77 0854.54
2009/04/23 12:58:49.2    -393    -14    -28    394    395 267.9  -4.1  34174  289.81 0854.54
2009/04/23 12:58:49.3    -291   -129    -91    319    331 246.0 -20.7  34174  289.81 0854.54
2009/04/23 12:58:49.4     124   -179   -167    218    274 145.3 -46.0  34174  289.81 0854.54
2009/04/23 12:58:49.5     -20   -263    -85    264    278 184.5 -17.9  34168  289.70 0854.54
2009/04/23 12:58:49.6      82   -237     44    251    255 160.8  10.1  34162  289.59 0854.54
2009/04/23 12:58:49.7    -279   -178    -97    332    345 237.5 -21.1  34172  289.76 0854.54
2009/04/23 12:58:49.8    -171   -137   -120    220    250 231.4 -35.4  34174  289.80 0854.54
2009/04/23 12:58:49.9     -67   -141   -180    157    238 205.4 -59.0  34164  289.65 0854.54
2009/04/23 12:58:50.0    -220    108   -259    246    357 296.2 -56.0  34170  289.75 0854.54
2009/04/23 12:58:50.1      44     27   -112     52    123  58.5 -77.9  34172  289.79 0854.54
2009/04/23 12:58:50.2    -177    -41   -112    182    213 256.7 -39.4  34172  289.79 0854.54
2009/04/23 12:58:50.3     -29   -154   -105    157    188 190.7 -41.1  34176  289.85 0854.54
2009/04/23 12:58:50.4     106    -82    -37    135    141 127.8 -15.5  34178  289.89 0854.54
2009/04/23 12:58:50.5      53   -341   -177    346    388 171.2 -33.6  34172  289.76 0854.54
2009/04/23 12:58:50.6      49   -341   -200    345    398 171.8 -37.2  34172  289.77 0854.54
2009/04/23 12:58:50.7     -29   -396    -25    398    399 184.3  -3.7  34166  289.67 0854.54
2009/04/23 12:58:50.8     -63   -386    -86    392    402 189.4 -12.4  34168  289.71 0854.54
2009/04/23 12:58:50.9       4   -262   -151    263    303 179.0 -36.8  34172  289.78 0854.54
2009/04/23 12:58:51.0     130   -128     41    183    188 134.7  12.6  34166  289.69 0854.54
2009/04/23 12:58:51.1      43   -205    -26    210    212 168.0  -7.2  34166  289.69 0854.54
2009/04/23 12:58:51.2      66   -352    -59    359    364 169.4  -9.5  34168  289.72 0854.54
2009/04/23 12:58:51.3      17   -300   -133    301    329 176.6 -30.0  34170  289.73 0854.54
2009/04/23 12:58:51.4      75   -284   -204    294    357 165.1 -42.7  34172  289.76 0854.53
2009/04/23 12:58:51.5     176   -336   -328    380    501 152.4 -49.6  34164  289.64 0854.53
2009/04/23 12:58:51.6     180   -486   -134    519    537 159.7 -14.5  34168  289.70 0854.53
2009/04/23 12:58:51.7      74   -475   -162    481    508 171.1 -18.7  34170  289.74 0854.53
2009/04/23 12:58:51.8     154   -478   -130    503    520 162.1 -14.5  34166  289.67 0854.53
2009/04/23 12:58:51.9     105   -642   -155    651    670 170.7 -13.4  34172  289.77 0854.53
2009/04/23 12:58:52.0     206   -523   -111    563    574 158.5 -11.2  34170  289.75 0854.53
2009/04/23 12:58:52.1     284   -284   -144    402    428 135.0 -19.8  34168  289.72 0854.53
2009/04/23 12:58:52.2     330   -288   -150    439    465 131.1 -18.9  34164  289.65 0854.53
2009/04/23 12:58:52.3     265   -278     12    385    386 136.3   1.9  34168  289.71 0854.53
2009/04/23 12:58:52.4     183   -318     16    367    368 150.1   2.5  34168  289.72 0854.53
2009/04/23 12:58:52.5     207   -292     44    359    362 144.7   7.1  34170  289.74 0854.53
2009/04/23 12:58:52.6     295   -285    144    411    436 134.0  19.4  34168  289.72 0854.53
2009/04/23 12:58:52.7     304   -370    137    479    499 140.6  16.0  34168  289.71 0854.53
2009/04/23 12:58:52.8     223   -335     31    403    405 146.3   4.5  34168  289.72 0854.53
2009/04/23 12:58:52.9     284   -303     38    416    418 136.8   5.3  34170  289.75 0854.53
2009/04/23 12:58:53.0      95   -298    126    313    337 162.2  23.0  34166  289.67 0854.53
2009/04/23 12:58:53.1     140   -115    212    182    279 129.5  55.0  34172  289.76 0854.53
2009/04/23 12:58:53.2     195    -87    200    214    292 114.2  47.9  34170  289.73 0854.53
2009/04/23 12:58:53.3     149   -278    234    316    393 151.7  40.4  34164  289.65 0854.53
2009/04/23 12:58:53.4      39   -406    213    409    461 174.4  29.5  34170  289.73 0854.52
2009/04/23 12:58:53.5     -28   -361    245    363    437 184.5  37.4  34170  289.75 0854.52
2009/04/23 12:58:53.6     -66   -301    277    309    414 192.4  46.6  34168  289.72 0854.52
2009/04/23 12:58:53.7      -6   -196    297    197    356 181.8  63.4  34174  289.81 0854.52
2009/04/23 12:58:53.8     -54   -342    279    347    445 189.1  42.9  34172  289.78 0854.52
2009/04/23 12:58:53.9     -21   -467    231    468    521 182.7  28.2  34172  289.79 0854.52
2009/04/23 12:58:54.0     -17   -444    221    445    496 182.3  28.4  34172  289.76 0854.52
2009/04/23 12:58:54.1    -167   -473    228    502    551 199.5  26.2  34170  289.74 0854.52
2009/04/23 12:58:54.2    -155   -531    122    554    568 196.3  12.5  34166  289.68 0854.52
2009/04/23 12:58:54.3     -60   -372    242    377    447 189.2  35.6  34172  289.77 0854.52
2009/04/23 12:58:54.4    -138   -385    255    410    482 199.8  34.9  34170  289.73 0854.52
2009/04/23 12:58:54.5    -161   -261    259    307    401 211.6  44.4  34168  289.72 0854.52
2009/04/23 12:58:54.6       5   -304    250    305    394 179.0  43.6  34172  289.76 0854.52
2009/04/23 12:58:54.7      14   -311    204    312    372 177.4  36.4  34174  289.82 0854.52
2009/04/23 12:58:54.8     -36   -250    210    253    328 188.2  43.8  34174  289.81 0854.52
2009/04/23 12:58:54.9      -2   -241    146    242    282 180.5  34.0  34172  289.76 0854.52
2009/04/23 12:58:55.0     -42   -325    183    328    375 187.4  31.5  34172  289.77 0854.52
2009/04/23 12:58:55.1     -86   -301    207    314    376 196.0  36.5  34170  289.74 0854.52
2009/04/23 12:58:55.2    -104   -264    123    285    310 201.6  25.1  34174  289.81 0854.52
2009/04/23 12:58:55.3      24   -338    117    339    359 175.9  19.2  34172  289.79 0854.52
2009/04/23 12:58:55.4     -28   -333   -112    335    354 184.8 -18.6  34172  289.76 0854.55
2009/04/23 12:58:55.5      -4   -308     15    309    310 180.9   2.8  34174  289.81 0854.55
2009/04/23 12:58:55.6      77   -378     82    386    395 168.4  12.0  34172  289.79 0854.55
2009/04/23 12:58:55.7       4   -490    146    491    513 179.5  16.6  34178  289.86 0854.55
2009/04/23 12:58:55.8       7   -475    115    476    490 179.1  13.7  34178  289.89 0854.55
2009/04/23 12:58:55.9      43   -318    211    321    384 172.2  36.4  34166  289.67 0854.55
2009/04/23 12:58:56.0      61   -183    274    194    335 161.5  61.3  34174  289.81 0854.55
2009/04/23 12:58:56.1       2   -297    223    298    372 179.5  40.6  34176  289.84 0854.55
2009/04/23 12:58:56.2       0   -509     43    510    512 179.9   4.9  34180  289.91 0854.55
2009/04/23 12:58:56.3    -101   -399     -8    412    413 194.3  -1.2  34178  289.87 0854.55
2009/04/23 12:58:56.4    -214   -591     -4    629    630 200.0  -0.4  34186  290.01 0854.55
2009/04/23 12:58:56.5    -140   -550    197    568    602 194.3  19.2  34174  289.81 0854.55
2009/04/23 12:58:56.6    -269   -421     74    500    506 212.6   8.5  34186  290.01 0854.55
2009/04/23 12:58:56.7    -403   -342    -47    529    532 229.7  -5.1  34184  289.99 0854.55
2009/04/23 12:58:56.8      35   -333    194    335    387 173.9  32.8  34174  289.81 0854.55
2009/04/23 12:58:56.9       7   -100    159    101    188 176.0  64.7  34172  289.79 0854.55
2009/04/23 12:58:57.0      13   -149     40    150    156 174.7  15.2  34176  289.85 0854.55
2009/04/23 12:58:57.1     135   -156    174    207    270 139.2  44.1  34176  289.85 0854.55
2009/04/23 12:58:57.2     156   -139    200    210    290 131.8  49.0  34176  289.85 0854.55
2009/04/23 12:58:57.3     153    -51    122    162    202 108.6  40.7  34180  289.91 0854.55
2009/04/23 12:58:57.4     182    -56     41    191    196 107.3  12.2  34182  289.94 0854.56
2009/04/23 12:58:57.5      78   -196     13    212    213 158.2   3.6  34182  289.96 0854.56
2009/04/23 12:58:57.6     142    -74    -62    161    172 117.5 -26.1  34182  289.96 0854.56
2009/04/23 12:58:57.7      92   -111   -104    145    178 140.4 -43.7  34182  289.94 0854.56
2009/04/23 12:58:57.8       0   -126   -119    127    174 180.0 -52.9  34182  289.96 0854.56
2009/04/23 12:58:57.9     -44   -170    -84    176    195 194.7 -31.7  34182  289.94 0854.56
2009/04/23 12:58:58.0     -17   -158    -50    159    167 186.2 -17.6  34182  289.94 0854.56
2009/04/23 12:58:58.1     -86   -190     -8    209    210 204.5  -2.2  34182  289.96 0854.56
2009/04/23 12:58:58.2      98   -118     66    154    167 140.4  24.6  34180  289.91 0854.56
2009/04/23 12:58:58.3     105    -87    168    137    216 129.5  56.4  34184  289.97 0854.56
2009/04/23 12:58:58.4      51    -61    128     80    150 140.4  64.7  34180  289.92 0854.56
2009/04/23 12:58:58.5     130    -61    122    144    188 115.4  44.3  34182  289.94 0854.56
2009/04/23 12:58:58.6     173   -101     47    201    207 120.4  13.2  34180  289.92 0854.56
2009/04/23 12:58:58.7     132   -148     69    199    211 138.3  19.2  34180  289.92 0854.56
2009/04/23 12:58:58.8      68   -269     93    278    294 165.8  18.5  34178  289.88 0854.56
2009/04/23 12:58:58.9      38   -419    134    421    442 174.8  17.7  34166  289.68 0854.56
2009/04/23 12:58:59.0      28   -358    287    360    460 175.5  42.7  34176  289.83 0854.56
2009/04/23 12:58:59.1      54   -420    188    424    463 172.7  25.6  34174  289.80 0854.56
2009/04/23 12:58:59.2     -73   -399    126    406    426 190.5  17.3  34180  289.90 0854.56
2009/04/23 12:58:59.3      77   -533    110    539    551 171.8  11.6  34172  289.77 0854.56
2009/04/23 12:58:59.4    -112   -467    238    481    536 193.6  28.2  34172  289.78 0854.55
2009/04/23 12:58:59.5      57   -489    147    493    515 173.3  16.7  34172  289.79 0854.55
2009/04/23 12:58:59.6      13   -680    235    681    721 178.9  19.1  34180  289.91 0854.55
2009/04/23 12:58:59.7     -40   -544    289    546    617 184.2  30.2  34172  289.78 0854.55
2009/04/23 12:58:59.8     162   -444    166    473    501 159.9  20.0  34178  289.86 0854.55
2009/04/23 12:58:59.9     239   -416    299    481    566 150.1  34.9  34178  289.87 0854.55
2009/04/23 12:59:00.0     246   -374    346    448    566 146.6  41.6  34178  289.87 0854.55
2009/04/23 12:59:00.1     334   -208    302    394    496 122.0  41.3  34182  289.93 0854.55
2009/04/23 12:59:00.2     289   -250    216    383    439 130.8  32.0  34180  289.90 0854.55
2009/04/23 12:59:00.3     265   -217    139    343    370 129.3  23.1  34182  289.93 0854.55
2009/04/23 12:59:00.4     114   -344   -110    363    380 161.5 -16.9  34182  289.94 0854.55
2009/04/23 12:59:00.5      74   -324      2    333    334 167.0   0.5  34178  289.86 0854.55
2009/04/23 12:59:00.6      80   -563    145    569    588 171.9  14.3  34182  289.93 0854.55
2009/04/23 12:59:00.7     194   -531    148    566    586 159.9  14.7  34178  289.86 0854.55
2009/04/23 12:59:00.8     132   -556     86    572    579 166.6   8.6  34180  289.91 0854.55
2009/04/23 12:59:00.9     -25   -632    -24    633    634 182.3  -2.2  34180  289.91 0854.55
2009/04/23 12:59:01.0    -137   -591    -33    607    608 193.1  -3.1  34178  289.88 0854.55
2009/04/23 12:59:01.1     -95   -680    -52    687    689 188.0  -4.4  34176  289.83 0854.55
2009/04/23 12:59:01.2    -107   -423    197    437    479 194.3  26.0  34182  289.93 0854.55
2009/04/23 12:59:01.3     -51   -472     97    475    486 186.2  11.6  34182  289.95 0854.55
2009/04/23 12:59:01.4     -72   -523    127    528    544 187.9  13.6  34176  289.85 0854.51
2009/04/23 12:59:01.5     -92   -415     87    426    436 192.6  11.6  34178  289.88 0854.51
2009/04/23 12:59:01.6       4   -292     63    293    300 179.1  12.2  34178  289.86 0854.51
2009/04/23 12:59:01.7     -45   -356    112    359    377 187.3  17.3  34176  289.84 0854.51
2009/04/23 12:59:01.8    -135   -402    149    425    451 198.6  19.3  34182  289.94 0854.51
2009/04/23 12:59:01.9    -238   -227     90    330    343 226.3  15.3  34182  289.94 0854.51
2009/04/23 12:59:02.0    -178   -246     39    304    307 216.0   7.5  34180  289.92 0854.51
2009/04/23 12:59:02.1     -34   -366    127    368    390 185.3  19.1  34182  289.93 0854.51
2009/04/23 12:59:02.2      18   -397     89    398    408 177.4  12.6  34178  289.87 0854.51
2009/04/23 12:59:02.3      13   -419    141    420    444 178.2  18.6  34182  289.94 0854.51
2009/04/23 12:59:02.4     114   -432    158    447    475 165.1  19.5  34184  289.98 0854.51
2009/04/23 12:59:02.6     174   -512    146    541    561 161.2  15.2  34182  289.94 0854.51
2009/04/23 12:59:02.6     219   -427    182    480    513 152.8  21.8  34182  289.93 0854.51
2009/04/23 12:59:02.7     264   -388    217    470    517 145.8  26.6  34180  289.91 0854.51
2009/04/23 12:59:02.9     323   -396    192    512    546 140.8  21.5  34180  289.92 0854.51
2009/04/23 12:59:03.0     295   -379    299    481    566 142.1  34.9  34170  289.75 0854.51
2009/04/23 12:59:03.1     355   -302    282    467    545 130.4  34.0  34176  289.84 0854.51
2009/04/23 12:59:03.2     308   -251    254    398    472 129.2  35.6  34178  289.88 0854.51
2009/04/23 12:59:03.3     316   -197    238    373    442 122.0  35.6  34182  289.94 0854.51
2009/04/23 12:59:03.4     237   -262    151    354    384 137.9  24.6  34182  289.93 0854.50
2009/04/23 12:59:03.5     240   -240    101    340    355 134.9  16.7  34178  289.87 0854.50
2009/04/23 12:59:03.6     253   -226    114    340    359 131.8  18.6  34178  289.87 0854.50
2009/04/23 12:59:03.7     287   -237    141    373    398 129.5  21.7  34178  289.89 0854.50
2009/04/23 12:59:03.8     268   -201    158    335    370 126.9  27.1  34182  289.93 0854.50
2009/04/23 12:59:03.9     168   -113    195    203    281 124.0  49.0  34182  289.93 0854.50
2009/04/23 12:59:04.0     179    -56    202    188    275 107.5  52.2  34180  289.90 0854.50
2009/04/23 12:59:04.1     212    -56    187    220    288 105.0  44.8  34180  289.92 0854.50
2009/04/23 12:59:04.2     198   -143    205    245    319 126.0  44.3  34180  289.92 0854.50
2009/04/23 12:59:04.3     172   -162    131    237    270 133.2  31.4  34178  289.86 0854.50
2009/04/23 12:59:04.4     149    -21     89    151    175  98.0  33.7  34182  289.94 0854.50
2009/04/23 12:59:04.5      -2      2    106      3    106 315.0  90.0  34182  289.96 0854.50
2009/04/23 12:59:04.6     103    -62    193    121    227 121.1  64.7  34182  289.94 0854.50
2009/04/23 12:59:04.7     -54      4    115     55    127 274.4  72.9  34186  290.01 0854.50
2009/04/23 12:59:04.8      50    -48    109     70    129 134.1  64.6  34182  289.96 0854.50
2009/04/23 12:59:04.9       8    -63     75     64     98 172.0  55.4  34184  289.97 0854.50
2009/04/23 12:59:05.0      37      2     64     38     74  85.7  64.7  34182  289.96 0854.50
2009/04/23 12:59:05.1     -10    -30     70     32     76 200.0  73.1  34184  289.99 0854.50
2009/04/23 12:59:05.2      15    -26     42     31     52 149.3  59.4  34182  289.96 0854.50
2009/04/23 12:59:05.3     -16     49     31     52     60 341.5  33.5  34184  289.99 0854.50
2009/04/23 12:59:05.4     -36     12     45     38     58 288.6  55.4  34184  289.97 0854.51
2009/04/23 12:59:05.5      64    -64    136     91    163 135.0  63.4  34182  289.94 0854.51
2009/04/23 12:59:05.6     172    -94    183    197    268 118.6  47.9  34184  289.97 0854.51
2009/04/23 12:59:05.7     151    -91    139    177    225 121.3  42.4  34182  289.96 0854.51
2009/04/23 12:59:05.8      34    -73    143     81    164 154.5  67.7  34182  289.94 0854.51
2009/04/23 12:59:05.9       3   -223    193    224    295 179.0  45.1  34184  289.97 0854.51
2009/04/23 12:59:06.0     -30   -216    202    219    297 188.0  47.9  34186  290.00 0854.51
2009/04/23 12:59:06.1     -34   -228    176    231    290 188.5  41.4  34182  289.93 0854.51
2009/04/23 12:59:06.2     -23   -210    124    212    245 186.5  33.1  34182  289.95 0854.51
2009/04/23 12:59:06.3      16    -75    112     77    135 167.5  62.6  34188  290.06 0854.51
2009/04/23 12:59:06.4     179   -113    166    212    269 122.4  42.2  34186  290.00 0854.51
2009/04/23 12:59:06.5     249   -113    198    274    338 114.4  39.5  34182  289.93 0854.51
2009/04/23 12:59:06.6     120    -85    152    148    212 125.5  50.4  34186  290.02 0854.51
2009/04/23 12:59:06.7     194   -143     97    242    260 126.4  23.0  34184  289.97 0854.51
2009/04/23 12:59:06.8      60   -240    139    248    284 166.0  31.4  34184  289.97 0854.51
2009/04/23 12:59:06.9      66   -186    129    198    236 160.4  36.3  34182  289.94 0854.51
2009/04/23 12:59:07.0      66   -141     53    156    165 154.7  18.9  34182  289.94 0854.51
2009/04/23 12:59:07.1     107    -94     95    143    171 131.4  36.7  34186  290.02 0854.51
2009/04/23 12:59:07.2     123      1    133    124    181  89.2  52.2  34184  289.97 0854.51
2009/04/23 12:59:07.3     146     44     14    153    154  73.2   5.4  34180  289.91 0854.51
2009/04/23 12:59:07.4     226     -9     48    227    233  92.4  12.0  34182  289.94 0854.52
2009/04/23 12:59:07.5     265     36    118    268    292  82.1  25.2  34182  289.93 0854.52
2009/04/23 12:59:07.6     294    -28    139    296    327  95.5  27.1  34180  289.90 0854.52
2009/04/23 12:59:07.7     231     -3    174    232    290  90.9  40.7  34184  289.98 0854.52
2009/04/23 12:59:07.8     187    -54    120    195    228 106.2  34.8  34180  289.92 0854.52
2009/04/23 12:59:07.9     183    -68    128    196    234 110.4  35.7  34184  289.97 0854.52
2009/04/23 12:59:08.0     200    -31    111    203    231  98.8  31.3  34182  289.94 0854.52
2009/04/23 12:59:08.1     164    -49     42    172    178 106.8  13.7  34182  289.96 0854.52
2009/04/23 12:59:08.2     125   -119      7    173    174 133.6   2.5  34184  289.97 0854.52
2009/04/23 12:59:08.3     219   -251    -32    334    336 138.9  -5.6  34178  289.87 0854.52
2009/04/23 12:59:08.4     173   -215     28    277    279 141.2   5.9  34180  289.92 0854.52
2009/04/23 12:59:08.5      75   -227     58    240    247 161.7  13.7  34182  289.95 0854.52
2009/04/23 12:59:08.6      82   -174      5    193    194 154.8   1.6  34182  289.96 0854.52
2009/04/23 12:59:08.7     167   -205   -113    265    288 140.8 -29.0  34186  290.00 0854.52
2009/04/23 12:59:08.8     106   -193    -65    221    230 151.3 -21.7  34180  289.92 0854.52
2009/04/23 12:59:08.9      59   -174     15    185    186 161.1   4.9  34182  289.96 0854.52
2009/04/23 12:59:09.0       3   -227    105    228    251 179.0  26.4  34180  289.92 0854.52
2009/04/23 12:59:09.1      33   -270      4    273    274 172.9   1.0  34178  289.88 0854.52
2009/04/23 12:59:09.2      53   -241     12    247    248 167.5   2.9  34182  289.93 0854.52
2009/04/23 12:59:09.3     -25   -363    118    364    383 184.0  18.0  34178  289.89 0854.52
2009/04/23 12:59:09.4     -63   -443    137    448    469 188.1  17.0  34180  289.92 0854.53
2009/04/23 12:59:09.5    -141   -380    156    406    434 200.5  22.1  34178  289.88 0854.53
2009/04/23 12:59:09.6      -3   -222    122    223    254 180.9  31.3  34178  289.88 0854.53
2009/04/23 12:59:09.7      33   -176    118    180    215 169.3  36.3  34186  290.01 0854.53
2009/04/23 12:59:09.8      77   -145     90    165    187 152.1  31.0  34182  289.94 0854.53
2009/04/23 12:59:09.9     142   -192     74    240    252 143.5  17.3  34180  289.90 0854.53
2009/04/23 12:59:10.0     128   -328     39    353    356 158.6   6.4  34178  289.89 0854.53
2009/04/23 12:59:10.1     208   -250    165    326    365 140.3  29.1  34178  289.89 0854.53
2009/04/23 12:59:10.2     245   -202    224    318    388 129.5  38.6  34182  289.96 0854.53
2009/04/23 12:59:10.3     249   -234    247    343    422 133.2  39.5  34184  289.98 0854.53
2009/04/23 12:59:10.4     200   -113    234    230    328 119.5  50.4  34182  289.93 0854.52
2009/04/23 12:59:10.5     250      7    164    251    299  88.3  36.0  34188  290.03 0854.52
2009/04/23 12:59:10.6     222    -31    152    225    271  98.0  37.0  34184  289.98 0854.52
2009/04/23 12:59:10.7     326     -3     94    327    341  90.6  16.0  34182  289.96 0854.52
2009/04/23 12:59:10.8     327   -135     10    354    355 112.5   1.7  34188  290.03 0854.52
2009/04/23 12:59:10.9     299   -113     85    320    332 110.8  14.9  34182  289.93 0854.52
2009/04/23 12:59:11.0     207   -206    192    293    350 134.9  36.2  34184  289.98 0854.52
2009/04/23 12:59:11.1     189   -341    121    391    410 151.0  17.2  34180  289.90 0854.52
2009/04/23 12:59:11.2     253   -309     49    400    404 140.7   7.1  34180  289.91 0854.52
2009/04/23 12:59:11.3     305   -266     73    405    412 131.1  10.2  34184  289.99 0854.52
2009/04/23 12:59:11.4     246   -266     71    363    371 137.2  11.1  34174  289.82 0854.52
2009/04/23 12:59:11.5      94   -281     41    297    301 161.5   8.0  34182  289.93 0854.52
2009/04/23 12:59:11.6     236   -177     63    296    303 126.9  12.0  34174  289.80 0854.52
2009/04/23 12:59:11.7      97   -210    100    232    252 155.1  24.9  34178  289.88 0854.52
2009/04/23 12:59:11.8      90   -290     98    304    320 162.6  17.9  34182  289.95 0854.52
2009/04/23 12:59:11.9      12   -274    170    275    323 177.3  34.8  34178  289.88 0854.52
2009/04/23 12:59:12.0      39   -231    220    235    321 170.4  48.0  34180  289.90 0854.52
2009/04/23 12:59:12.1     150   -331    286    364    462 155.6  42.2  34172  289.78 0854.52
2009/04/23 12:59:12.2     210   -223    151    307    342 136.7  28.0  34178  289.86 0854.52
2009/04/23 12:59:12.3     197   -217    102    294    312 137.7  19.2  34178  289.88 0854.52
2009/04/23 12:59:12.4     126   -236    168    268    316 151.9  35.1  34170  289.75 0854.52
2009/04/23 12:59:12.5      91   -319    244    332    412 164.0  39.9  34182  289.93 0854.52
2009/04/23 12:59:12.6      59   -339    200    345    398 170.1  32.8  34182  289.93 0854.52
2009/04/23 12:59:12.7     215   -208     97    300    316 134.0  17.9  34178  289.88 0854.52
2009/04/23 12:59:12.8     190   -190     84    270    283 135.0  17.3  34176  289.85 0854.52
2009/04/23 12:59:12.9      91   -273    161    288    329 161.5  31.7  34178  289.88 0854.52
2009/04/23 12:59:13.0      94   -293    209    308    372 162.2  37.4  34182  289.93 0854.52
2009/04/23 12:59:13.1     142   -276    136    311    339 152.8  25.1  34180  289.91 0854.52
2009/04/23 12:59:13.2     124   -235     60    266    273 152.1  12.9  34180  289.92 0854.52
2009/04/23 12:59:13.3     190   -241    148    308    341 141.7  27.3  34182  289.94 0854.52
2009/04/23 12:59:13.4     138   -293    172    325    367 154.7  30.1  34182  289.93 0854.52
2009/04/23 12:59:13.5      91   -284    157    299    337 162.2  30.1  34182  289.93 0854.52
2009/04/23 12:59:13.6     120   -268    218    294    366 155.9  40.2  34178  289.89 0854.52
2009/04/23 12:59:13.7      66   -247    195    256    321 164.9  41.1  34178  289.86 0854.52
2009/04/23 12:59:13.8     127   -270    188    299    353 154.7  35.2  34182  289.96 0854.52
2009/04/23 12:59:13.9      60   -296    214    303    370 168.4  38.7  34174  289.82 0854.52
2009/04/23 12:59:14.0      -8   -254    298    255    392 182.0  55.3  34182  289.94 0854.52
2009/04/23 12:59:14.1      52    -73    150     91    175 144.4  65.7  34178  289.89 0854.52
2009/04/23 12:59:14.2      82   -171    134    190    232 154.4  38.6  34182  289.94 0854.52
2009/04/23 12:59:14.3      82   -218    162    234    284 159.3  38.0  34182  289.93 0854.52
2009/04/23 12:59:14.4      64   -189    181    200    269 161.3  46.9  34184  289.97 0854.53
2009/04/23 12:59:14.5      41   -112    130    120    176 160.0  52.2  34184  289.99 0854.53
2009/04/23 12:59:14.6      63   -185    107    196    223 161.1  31.3  34180  289.91 0854.53
2009/04/23 12:59:14.7     138   -124    139    186    232 132.0  40.1  34182  289.94 0854.53
2009/04/23 12:59:14.8     105   -129    141    167    218 141.0  44.3  34184  289.97 0854.53
2009/04/23 12:59:14.9      66    -17     88     69    111 105.1  57.5  34182  289.94 0854.53
2009/04/23 12:59:15.0     183     22    152    185    239  83.0  43.7  34180  289.92 0854.53
2009/04/23 12:59:15.1     268     20    230    269    353  85.6  45.0  34178  289.89 0854.53
2009/04/23 12:59:15.2     263     55    264    269    376  78.1  49.7  34186  290.01 0854.53
2009/04/23 12:59:15.3     229    113    115    256    280  63.8  25.7  34194  290.14 0854.53
2009/04/23 12:59:15.4     210    156     51    262    268  53.4  11.1  34218  290.56 0854.53
2009/04/23 12:59:15.5     145    119     13    188    189  50.5   4.2  34230  290.75 0854.53
2009/04/23 12:59:15.6     138    144     74    200    213  43.9  21.0  34236  290.87 0854.53
2009/04/23 12:59:15.7     140    130    108    192    220  47.1  31.6  34240  290.94 0854.53
2009/04/23 12:59:15.8     225    167     80    281    293  53.4  16.0  34306  292.04 0854.53
2009/04/23 12:59:15.9     168    134    131    215    251  51.4  34.4  34280  291.61 0854.53
2009/04/23 12:59:16.0     194     99    100    218    239  62.9  26.2  34270  291.43 0854.53
2009/04/23 12:59:16.1     200     77     73    215    228  68.9  18.9  34284  291.69 0854.53
2009/04/23 12:59:16.2     166      5     94    167    191  88.1  31.6  34228  290.74 0854.53
2009/04/23 12:59:16.3     166     -4     55    167    176  91.7  18.4  34198  290.21 0854.53
2009/04/23 12:59:16.4     205      2     74    206    218  89.4  20.7  34192  290.13 0854.53
2009/04/23 12:59:16.5     218      9     36    219    222  87.4   9.3  34222  290.62 0854.53
2009/04/23 12:59:16.6     171      0      7    172    173  90.0   2.3  34266  291.37 0854.53
2009/04/23 12:59:16.7      99    -63     45    118    126 122.5  21.5  34268  291.40 0854.53
2009/04/23 12:59:16.8      81    -12     97     82    127  98.8  55.4  34222  290.64 0854.53
2009/04/23 12:59:16.9      55    -18     89     59    106 108.6  63.6  34206  290.36 0854.53
2009/04/23 12:59:17.0      56    -35     76     67    101 122.4  53.7  34196  290.19 0854.53
2009/04/23 12:59:17.1     123    -24    115    126    170 101.0  47.1  34182  289.96 0854.53
2009/04/23 12:59:17.2     171    -30    110    174    205 100.1  35.5  34182  289.94 0854.53
2009/04/23 12:59:17.3     126    -36    137    132    190 105.9  50.9  34180  289.92 0854.53
2009/04/23 12:59:17.4     131    -44     90    139    165 108.6  35.7  34182  289.94 0854.53
2009/04/23 12:59:17.5     108    -58     72    123    142 118.4  32.9  34182  289.94 0854.53
2009/04/23 12:59:17.6      80    -62     66    102    121 127.8  36.0  34184  289.97 0854.53
2009/04/23 12:59:17.7      69    -75     57    103    117 137.2  31.4  34184  289.99 0854.53
2009/04/23 12:59:17.8      19    -93     81     95    124 168.4  45.4  34184  289.97 0854.53
2009/04/23 12:59:17.9       2    -85     98     86    130 178.6  54.3  34184  289.97 0854.53
2009/04/23 12:59:18.0       7    -85     90     86    124 175.1  50.7  34184  289.97 0854.53
2009/04/23 12:59:18.1       4   -102     45    103    112 177.8  25.1  34184  289.99 0854.53
2009/04/23 12:59:18.2     -14   -102     41    104    111 188.0  22.5  34184  289.99 0854.53
2009/04/23 12:59:18.3      -7    -69     32     70     76 186.2  27.1  34182  289.94 0854.53
2009/04/23 12:59:18.4      27    -54     82     61    102 152.8  60.0  34182  289.96 0854.54
2009/04/23 12:59:18.5      -4   -102    100    103    143 182.2  49.4  34184  289.99 0854.54
2009/04/23 12:59:18.6     -27   -102     82    106    134 195.1  41.7  34182  289.96 0854.54
2009/04/23 12:59:18.7     -69   -108     68    129    145 212.5  30.3  34182  289.96 0854.54
2009/04/23 12:59:18.8     -42    -97     67    106    125 203.6  35.5  34184  289.97 0854.54
2009/04/23 12:59:18.9     -51   -127     43    137    144 201.9  17.4  34184  289.97 0854.54
2009/04/23 12:59:19.0      -1   -121     38    122    128 180.9  17.4  34184  289.97 0854.54
2009/04/23 12:59:19.1     -35   -175     85    179    198 191.5  27.3  34180  289.92 0854.54
2009/04/23 12:59:19.2    -137   -239     98    276    294 209.8  19.6  34180  289.90 0854.54
2009/04/23 12:59:19.3     -93   -164    127    189    227 209.6  37.3  34182  289.94 0854.54
2009/04/23 12:59:19.4    -116    -96    106    151    184 230.5  38.6  34184  289.97 0854.54
2009/04/23 12:59:19.5     -75    -91    103    119    157 219.6  45.6  34180  289.91 0854.54
2009/04/23 12:59:19.6    -102    -96    125    141    188 226.9  46.4  34184  289.99 0854.54
2009/04/23 12:59:19.7     -67    -81    119    106    159 219.7  53.5  34184  289.99 0854.54
2009/04/23 12:59:19.8     -60    -16     78     63    100 254.9  56.9  34192  290.11 0854.54
2009/04/23 12:59:19.9      31    -54    107     63    124 150.1  66.8  34188  290.04 0854.54
2009/04/23 12:59:20.0     165    -91    115    189    221 119.1  34.4  34182  289.96 0854.54
2009/04/23 12:59:20.1     139     10     90    140    166  85.6  35.7  34188  290.04 0854.54
2009/04/23 12:59:20.2      17      7    127     19    128  68.3  90.0  34190  290.09 0854.54
2009/04/23 12:59:20.3     136    -21    106    138    174  98.8  41.4  34182  289.96 0854.54
2009/04/23 12:59:20.4     162    -41    165    168    235 104.4  49.8  34186  290.01 0854.55
2009/04/23 12:59:20.5       0    -11    111     12    111 180.9  90.0  34188  290.04 0854.55
2009/04/23 12:59:20.6     -50    -44    139     67    154 228.7  72.8  34188  290.04 0854.55
2009/04/23 12:59:20.7     -45    -95    141    106    176 205.3  59.4  34186  290.02 0854.55
2009/04/23 12:59:20.8    -141    -10     67    142    157 265.6  27.0  34182  289.94 0854.55
2009/04/23 12:59:20.9    -159   -114     60    196    206 234.3  17.1  34186  290.01 0854.55
2009/04/23 12:59:21.0    -123   -127     -6    177    178 224.1  -2.2  34182  289.96 0854.55
2009/04/23 12:59:21.1     -68   -174    177    187    257 201.4  48.2  34184  289.98 0854.55
2009/04/23 12:59:21.2    -126   -163    158    207    260 217.6  41.2  34186  290.02 0854.55
2009/04/23 12:59:21.3    -117   -175    213    211    299 213.8  50.1  34180  289.90 0854.55
2009/04/23 12:59:21.4    -123   -254    175    283    332 205.9  34.8  34186  290.02 0854.55
2009/04/23 12:59:21.5     -72   -219    180    231    292 198.3  41.7  34184  289.98 0854.55
2009/04/23 12:59:21.6     -81   -176    164    194    254 204.7  44.5  34184  289.97 0854.55
2009/04/23 12:59:21.7     -18   -133    145    135    198 188.0  52.2  34184  289.99 0854.55
2009/04/23 12:59:21.8      -6    -66    142     67    157 185.3  73.2  34186  290.02 0854.55
2009/04/23 12:59:21.9      -8    -63     92     64    112 188.0  61.5  34190  290.08 0854.55
2009/04/23 12:59:22.0     -13    -81     75     83    111 189.3  47.5  34184  289.99 0854.55
2009/04/23 12:59:22.1     -17    -90     81     92    122 191.1  45.9  34186  290.02 0854.55
2009/04/23 12:59:22.2     -25    -84     34     88     94 196.5  21.5  34186  290.02 0854.55
2009/04/23 12:59:22.3     -36    -65     22     75     79 209.0  16.3  34184  289.97 0854.55
2009/04/23 12:59:22.4     -38    -46      3     60     61 219.6   2.9  34188  290.04 0854.54
2009/04/23 12:59:22.5       0    -15      7     16     17 179.1  23.0  34186  290.02 0854.54
2009/04/23 12:59:22.6      26    -50     36     57     67 151.9  35.5  34186  290.02 0854.54
2009/04/23 12:59:22.7      34    -76     46     84     95 155.5  31.4  34186  290.02 0854.54
2009/04/23 12:59:22.8       7    -45     49     46     67 171.1  52.1  34188  290.04 0854.54
2009/04/23 12:59:22.9       6    -16     24     18     30 158.2  58.5  34194  290.16 0854.54
2009/04/23 12:59:23.0      19    -40     39     45     59 154.6  45.8  34190  290.08 0854.54
2009/04/23 12:59:23.1      51    -78     70     94    117 146.6  40.1  34186  290.01 0854.54
2009/04/23 12:59:23.2      80   -118     64    143    156 145.8  25.7  34190  290.08 0854.54
2009/04/23 12:59:23.3      48   -194    111    200    228 166.0  31.4  34184  289.99 0854.54
2009/04/23 12:59:23.4       0   -177    142    178    227 180.2  43.0  34188  290.04 0854.54
2009/04/23 12:59:23.5     -43   -198    164    203    260 192.3  43.3  34188  290.03 0854.54
2009/04/23 12:59:23.6     -51   -221    175    227    286 193.1  41.6  34188  290.05 0854.54
2009/04/23 12:59:23.7     -64   -162    123    175    213 201.6  38.4  34188  290.04 0854.54
2009/04/23 12:59:23.8     -29   -124    138    128    188 193.4  52.2  34190  290.08 0854.54
2009/04/23 12:59:23.9     -10   -113    104    114    154 185.3  47.9  34190  290.09 0854.54
2009/04/23 12:59:24.0       0   -134     81    135    157 180.4  34.0  34192  290.11 0854.54
2009/04/23 12:59:24.1     -66   -118    123    136    183 209.4  47.1  34188  290.04 0854.54
2009/04/23 12:59:24.2    -142   -126    105    190    217 228.4  31.4  34194  290.16 0854.54
2009/04/23 12:59:24.3    -187    -84     93    206    226 245.8  26.2  34202  290.30 0854.54
2009/04/23 12:59:24.4     -97   -116    137    152    204 219.7  46.6  34186  290.01 0854.52
2009/04/23 12:59:24.5     -21   -125    178    127    218 189.8  60.8  34186  290.02 0854.52
2009/04/23 12:59:24.6    -208    -51    103    215    238 256.1  27.4  34200  290.25 0854.52
2009/04/23 12:59:24.7    -290     92     38    305    308 287.7   7.2  34226  290.68 0854.52
2009/04/23 12:59:24.8    -225    -26    -35    227    230 263.4  -8.8  34216  290.52 0854.52
2009/04/23 12:59:24.9    -152    -63     54    165    174 247.4  18.1  34190  290.08 0854.52
2009/04/23 12:59:25.0    -101    -73    159    125    202 234.1  58.2  34198  290.21 0854.52
2009/04/23 12:59:25.1    -193      0    125    194    230 270.0  35.6  34190  290.09 0854.52
2009/04/23 12:59:25.2    -161    -57    152    172    229 250.3  45.9  34198  290.21 0854.52
2009/04/23 12:59:25.3    -136    -47     58    144    155 250.9  23.0  34224  290.67 0854.52
2009/04/23 12:59:25.4     -93    -78     49    122    131 230.0  23.0  34234  290.82 0854.52
2009/04/23 12:59:25.5     -44   -115    103    124    161 200.9  44.1  34198  290.21 0854.52
2009/04/23 12:59:25.6      34   -102     76    108    132 161.3  38.6  34194  290.14 0854.52
2009/04/23 12:59:25.7      94     -7     68     95    116  94.4  39.1  34196  290.18 0854.52
2009/04/23 12:59:25.8      46    -97     50    108    119 154.5  27.1  34192  290.13 0854.52
2009/04/23 12:59:25.9      39   -137    107    143    178 164.0  40.4  34194  290.14 0854.52
2009/04/23 12:59:26.0      31   -157    108    161    193 168.9  36.7  34196  290.18 0854.52
2009/04/23 12:59:26.1      95   -144     62    173    183 146.4  20.2  34194  290.14 0854.52
2009/04/23 12:59:26.2     159   -162     71    228    240 135.5  17.4  34192  290.12 0854.52
2009/04/23 12:59:26.3     169   -137    126    218    251 129.1  32.9  34198  290.22 0854.52
2009/04/23 12:59:26.4     204   -135     90    245    261 123.5  20.9  34204  290.32 0854.52
2009/04/23 12:59:26.5     196   -120     85    230    245 121.5  21.0  34216  290.51 0854.52
2009/04/23 12:59:26.6     189   -167     68    253    263 131.4  15.2  34198  290.20 0854.52
2009/04/23 12:59:26.7     159   -180     62    241    249 138.5  14.5  34196  290.17 0854.52
2009/04/23 12:59:26.8     135   -165     43    214    219 140.6  11.4  34194  290.16 0854.52
2009/04/23 12:59:26.9     193   -148    -31    244    247 127.5  -7.3  34198  290.22 0854.52
2009/04/23 12:59:27.0     200   -107     62    227    236 118.2  15.3  34186  290.02 0854.52
2009/04/23 12:59:27.1      -6   -116     40    117    124 183.1  18.9  34186  290.02 0854.52
2009/04/23 12:59:27.2     -39   -175     67    180    192 192.7  21.3  34188  290.06 0854.52
2009/04/23 12:59:27.3     -79   -170    189    188    266 204.9  50.1  34188  290.03 0854.52
2009/04/23 12:59:27.4     -52   -193    243    201    315 195.2  56.2  34182  289.95 0854.52
2009/04/23 12:59:27.5     -38   -247    -28    251    253 188.9  -6.5  34180  289.92 0854.52
2009/04/23 12:59:27.6      58   -284    -15    291    292 168.4  -3.1  34188  290.03 0854.52
2009/04/23 12:59:27.7     -11   -233    -42    234    238 182.9 -10.3  34182  289.93 0854.52
2009/04/23 12:59:27.8     -72   -212    -68    225    236 198.9 -16.8  34186  290.01 0854.52
2009/04/23 12:59:27.9      13   -304    -87    305    318 177.5 -15.9  34184  289.98 0854.52
2009/04/23 12:59:28.0      83   -271    -33    284    286 163.0  -6.7  34190  290.09 0854.52
2009/04/23 12:59:28.1      75   -248     -5    260    261 163.1  -1.3  34186  290.00 0854.52
2009/04/23 12:59:28.2      56   -277    -33    283    285 168.4  -6.7  34188  290.03 0854.52
2009/04/23 12:59:28.3      63   -292    -49    299    304 167.7  -9.4  34190  290.07 0854.52
2009/04/23 12:59:28.4      24   -218    -62    220    229 173.5 -15.8  34188  290.04 0854.50
2009/04/23 12:59:28.5     108   -200    -74    228    239 151.7 -23.0  34196  290.17 0854.50
2009/04/23 12:59:28.6      14   -234    -52    235    241 176.4 -12.6  34190  290.09 0854.50
2009/04/23 12:59:28.7     110   -198    -69    227    238 150.8 -17.0  34196  290.19 0854.50
2009/04/23 12:59:28.8     149   -282   -129    320    345 152.1 -27.5  34194  290.15 0854.50
2009/04/23 12:59:28.9      35   -230    -78    233    246 171.3 -18.6  34192  290.12 0854.50
2009/04/23 12:59:29.1      70   -347    -81    354    364 168.6 -12.9  34194  290.16 0854.50
2009/04/23 12:59:29.2      92   -423    -74    433    440 167.7  -9.8  34192  290.12 0854.50
2009/04/23 12:59:29.3     191   -438    -56    479    483 156.4  -6.7  34182  289.93 0854.50
2009/04/23 12:59:29.4     166   -402     23    436    437 157.5   3.1  34184  289.97 0854.50
2009/04/23 12:59:29.5      84   -337     47    348    352 166.0   7.8  34182  289.93 0854.50
2009/04/23 12:59:29.6      59   -425    124    430    448 172.0  16.1  34186  290.02 0854.50
2009/04/23 12:59:29.7      35   -427    110    429    443 175.3  14.4  34188  290.05 0854.50
2009/04/23 12:59:29.8      56   -394    150    399    426 171.9  21.5  34192  290.11 0854.50
2009/04/23 12:59:29.9      70   -442    290    448    533 170.9  35.9  34188  290.05 0854.50
2009/04/23 12:59:30.0      42   -453    230    456    510 174.7  28.9  34184  289.98 0854.50
2009/04/23 12:59:30.1       1   -406    173    407    442 179.8  24.5  34182  289.95 0854.50
2009/04/23 12:59:30.2     -18   -396    104    397    411 182.7  14.7  34182  289.94 0854.50
2009/04/23 12:59:30.3      32   -368     -5    370    371 175.0  -0.9  34188  290.03 0854.50
2009/04/23 12:59:30.4      56   -310   -108    316    335 169.7 -18.9  34182  289.95 0854.47
2009/04/23 12:59:30.5      49   -215   -188    221    290 167.1 -49.2  34190  290.07 0854.47
2009/04/23 12:59:30.6      58   -221   -183    229    293 165.3 -47.2  34188  290.05 0854.47
2009/04/23 12:59:30.7     112   -237   -187    263    322 154.7 -43.4  34190  290.09 0854.47
2009/04/23 12:59:30.8      69   -268   -118    277    301 165.5 -28.7  34186  290.02 0854.47
2009/04/23 12:59:30.9      88   -228    -75    245    256 158.8 -22.1  34182  289.95 0854.47
2009/04/23 12:59:31.0      34   -188    -57    192    200 169.8 -21.7  34182  289.94 0854.47
2009/04/23 12:59:31.1      46   -101    -22    111    114 155.5 -11.3  34186  290.02 0854.47
2009/04/23 12:59:31.2     143    -85      2    167    168 120.7   1.0  34188  290.06 0854.47
2009/04/23 12:59:31.3     144    -24     23    147    149  99.7   9.0  34188  290.04 0854.47
2009/04/23 12:59:31.4     141    -42    -68    148    162 106.8 -30.6  34190  290.08 0854.47
2009/04/23 12:59:31.5     163    -53    -42    172    178 108.2 -13.9  34188  290.06 0854.47
2009/04/23 12:59:31.6     217    -77     -9    231    232 109.5  -2.2  34188  290.06 0854.47
2009/04/23 12:59:31.7     225    -31      7    228    229  97.9   1.8  34184  289.97 0854.47
2009/04/23 12:59:31.8     236     -3     24    237    239  90.8   5.9  34188  290.03 0854.47
2009/04/23 12:59:31.9     168   -179     85    246    261 136.8  19.2  34174  289.81 0854.47
2009/04/23 12:59:32.0     285   -128     64    313    320 114.2  11.6  34178  289.88 0854.47
2009/04/23 12:59:32.1     239   -130    126    273    300 118.6  26.4  34174  289.81 0854.47
2009/04/23 12:59:32.2     229   -104    199    252    321 114.4  42.2  34176  289.83 0854.47
2009/04/23 12:59:32.3     328    -97    171    343    383 106.5  28.4  34174  289.82 0854.47
2009/04/23 12:59:32.4     365   -177    200    406    452 115.9  28.2  34176  289.83 0854.45
2009/04/23 12:59:32.5     308   -345    178    463    496 138.2  22.1  34178  289.89 0854.45
2009/04/23 12:59:32.6     257   -199    115    326    345 127.8  20.1  34182  289.94 0854.45
2009/04/23 12:59:32.7     248   -165    -96    299    315 123.7 -17.9  34184  289.97 0854.45
2009/04/23 12:59:32.8     313   -129    -23    339    340 112.5  -3.9  34184  289.99 0854.45
2009/04/23 12:59:32.9     167   -234     81    288    300 144.4  15.8  34176  289.83 0854.45
2009/04/23 12:59:33.0     216   -185     -8    285    286 130.5  -1.6  34176  289.85 0854.45
2009/04/23 12:59:33.1     432   -274      8    512    513 122.4   0.9  34174  289.81 0854.45
2009/04/23 12:59:33.2     388   -412    151    567    587 136.7  15.0  34152  289.42 0854.45
2009/04/23 12:59:33.3     335   -350    108    485    498 136.3  12.6  34174  289.81 0854.45
2009/04/23 12:59:33.4     153   -398    174    427    461 159.0  23.4  34172  289.77 0854.46
2009/04/23 12:59:33.5     -38   -571    252    573    625 183.9  25.2  34162  289.59 0854.46
2009/04/23 12:59:33.6     -76   -469     92    476    485 189.2  11.0  34166  289.66 0854.46
2009/04/23 12:59:33.7     -10   -374    -61    375    381 181.6  -9.3  34172  289.76 0854.46
2009/04/23 12:59:33.8     -87   -374    131    384    407 193.1  18.9  34180  289.91 0854.46
2009/04/23 12:59:33.9     -18   -239    -74    240    251 184.5 -22.5  34180  289.92 0854.46
2009/04/23 12:59:34.0     -31   -217    -25    220    222 188.2  -6.5  34182  289.94 0854.46
2009/04/23 12:59:34.1     -70   -175     -7    189    190 201.8  -2.2  34180  289.92 0854.46
2009/04/23 12:59:34.2     -29   -369    106    371    387 184.6  16.0  34174  289.82 0854.46
2009/04/23 12:59:34.3     -47   -436    126    439    457 186.3  16.0  34170  289.73 0854.46
2009/04/23 12:59:34.4    -123   -216    -17    249    250 209.8  -3.9  34178  289.86 0854.46
2009/04/23 12:59:34.5     -86   -341    -50    352    356 194.3  -8.2  34178  289.87 0854.46
2009/04/23 12:59:34.6      25   -404     19    405    406 176.4   2.8  34180  289.92 0854.46
2009/04/23 12:59:34.7      97   -408    -45    420    423 166.6  -6.2  34176  289.83 0854.46
2009/04/23 12:59:34.8     144   -335   -109    365    382 156.7 -16.7  34176  289.84 0854.46
2009/04/23 12:59:34.9     100   -177   -207    204    290 150.4 -54.6  34180  289.92 0854.46
2009/04/23 12:59:35.0     237    -97   -170    257    308 112.2 -40.9  34168  289.70 0854.46
2009/04/23 12:59:35.1     240    -18    -72    241    252  94.4 -16.6  34174  289.81 0854.46
2009/04/23 12:59:35.2     206     67    -30    217    220  71.8  -8.0  34180  289.92 0854.46
2009/04/23 12:59:35.3     152     88     40    176    181  60.0  12.9  34178  289.87 0854.46
2009/04/23 12:59:35.4     110    100    120    149    191  47.8  43.5  34180  289.91 0854.47
2009/04/23 12:59:35.5      64     40    162     76    178  57.6  73.1  34184  289.97 0854.47
2009/04/23 12:59:35.6      -8    -26    108     28    111 196.9  84.9  34190  290.08 0854.47
2009/04/23 12:59:35.7    -110   -275    105    297    315 201.8  20.3  34168  289.71 0854.47
2009/04/23 12:59:35.8      74    -69    147    102    178 133.1  61.8  34176  289.85 0854.47
2009/04/23 12:59:35.9     -23    -69    191     73    204 198.7  78.4  34184  289.99 0854.47
2009/04/23 12:59:36.0      21    -20    183     30    185 133.1  90.0  34172  289.79 0854.47
2009/04/23 12:59:36.1      60   -239    208    247    322 165.7  44.3  34176  289.85 0854.47
2009/04/23 12:59:36.2     -38   -216    270    220    348 190.0  56.5  34176  289.85 0854.47
2009/04/23 12:59:36.3     -79   -249    164    262    309 197.6  35.5  34178  289.86 0854.47
2009/04/23 12:59:36.4     -79   -198    114    214    242 201.9  30.3  34180  289.92 0854.47
2009/04/23 12:59:36.5     -55   -166    -35    176    180 198.5 -11.3  34178  289.87 0854.47
2009/04/23 12:59:36.6     -55   -122    -31    135    139 204.5 -12.9  34176  289.84 0854.47
2009/04/23 12:59:36.7      54   -130     -3    142    143 157.3  -1.3  34178  289.87 0854.47
2009/04/23 12:59:36.8     168   -165    -30    236    238 134.4  -7.3  34178  289.88 0854.47
2009/04/23 12:59:36.9     206   -169     -3    267    268 129.5  -0.7  34176  289.83 0854.47
2009/04/23 12:59:37.0     273   -366    -10    457    458 143.3  -1.3  34170  289.75 0854.47
2009/04/23 12:59:37.1     411   -473    123    627    640 139.0  11.1  34168  289.72 0854.47
2009/04/23 12:59:37.2     356   -438     79    565    571 140.9   8.0  34176  289.83 0854.47
2009/04/23 12:59:37.3     290   -398    -15    493    494 143.9  -1.8  34168  289.71 0854.47
2009/04/23 12:59:37.4     113   -469    -38    483    485 166.4  -4.6  34170  289.74 0854.49
2009/04/23 12:59:37.5     233   -418    -37    479    481 150.8  -4.5  34166  289.69 0854.49
2009/04/23 12:59:37.6     278   -394     67    483    488 144.8   8.0  34170  289.74 0854.49
2009/04/23 12:59:37.7     219   -375     37    435    437 149.8   5.0  34168  289.70 0854.49
2009/04/23 12:59:37.8     198   -259    -29    327    329 142.6  -5.1  34174  289.80 0854.49
2009/04/23 12:59:37.9     134   -361     29    386    388 159.6   4.3  34170  289.74 0854.49
2009/04/23 12:59:38.0     129   -362     90    385    396 160.3  13.2  34172  289.76 0854.49
2009/04/23 12:59:38.1     -60   -274    251    281    376 192.5  46.5  34172  289.79 0854.49
2009/04/23 12:59:38.2      55   -317    256    322    411 170.0  42.7  34174  289.81 0854.49
2009/04/23 12:59:38.3     210   -394    179    447    481 151.9  23.0  34176  289.84 0854.49
2009/04/23 12:59:38.4      64   -429    173    434    467 171.4  23.0  34178  289.87 0854.49
2009/04/23 12:59:38.5     -56   -361    215    366    424 188.8  33.1  34172  289.77 0854.49
2009/04/23 12:59:38.6    -124   -459    104    476    488 195.2  12.4  34170  289.73 0854.49
2009/04/23 12:59:38.7      -7   -322     23    323    324 181.4   4.2  34172  289.76 0854.49
2009/04/23 12:59:38.8      28   -369    135    371    394 175.5  20.9  34178  289.87 0854.49
2009/04/23 12:59:38.9       0   -317    131    318    343 180.1  23.6  34176  289.84 0854.49
2009/04/23 12:59:39.0     -23   -420    104    421    434 183.2  13.9  34174  289.82 0854.49
2009/04/23 12:59:39.1     -42   -519    105    521    532 184.7  11.4  34176  289.84 0854.49
2009/04/23 12:59:39.2     -24   -360    168    361    398 183.9  26.6  34168  289.71 0854.49
2009/04/23 12:59:39.3     145   -312   -134    345    370 155.1 -26.6  34174  289.81 0854.49
2009/04/23 12:59:39.4     182   -543   -231    573    617 161.4 -27.5  34178  289.86 0854.51
2009/04/23 12:59:39.5     174   -422   -154    457    483 157.6 -18.7  34174  289.81 0854.51
2009/04/23 12:59:39.6     146   -431   -138    456    477 161.2 -16.9  34176  289.83 0854.51
2009/04/23 12:59:39.7     158   -361    -79    395    403 156.4 -11.3  34178  289.86 0854.51
2009/04/23 12:59:39.8      63   -388   -128    394    415 170.7 -18.1  34182  289.94 0854.51
2009/04/23 12:59:39.9     148   -386   -140    414    438 159.0 -18.7  34178  289.87 0854.51
2009/04/23 12:59:40.0     206   -372      0    426    427 151.0   0.1  34172  289.78 0854.51
2009/04/23 12:59:40.1     195   -390     -8    437    438 153.4  -1.2  34172  289.77 0854.51
2009/04/23 12:59:40.2     -53   -258      5    264    265 191.8   1.2  34174  289.81 0854.51
2009/04/23 12:59:40.3      54   -250    -51    256    262 167.6 -11.3  34172  289.76 0854.51
2009/04/23 12:59:40.4     169   -255    -24    307    309 146.4  -4.6  34176  289.83 0854.51
2009/04/23 12:59:40.5     337   -497    -17    601    602 145.8  -1.7  34174  289.80 0854.51
2009/04/23 12:59:40.6      76   -376   -126    384    405 168.6 -18.2  34178  289.87 0854.51
2009/04/23 12:59:40.7      40   -350    -51    353    357 173.4  -8.2  34178  289.87 0854.51
2009/04/23 12:59:40.8     176   -394     24    432    433 155.9   3.3  34180  289.92 0854.51
2009/04/23 12:59:40.9     219   -342     82    407    416 147.4  11.5  34178  289.87 0854.51
2009/04/23 12:59:41.0     250   -379     76    455    462 146.6   9.5  34176  289.85 0854.51
2009/04/23 12:59:41.1     152   -488     50    512    515 162.7   5.7  34176  289.84 0854.51
2009/04/23 12:59:41.2     -34   -503    139    505    524 183.9  15.4  34176  289.83 0854.51
2009/04/23 12:59:41.3     -29   -539    129    540    556 183.1  13.5  34178  289.87 0854.51
2009/04/23 12:59:41.4     -10   -346     64    347    353 181.7  10.6  34180  289.91 0854.50
2009/04/23 12:59:41.5      66   -402    -56    408    412 170.6  -7.9  34180  289.90 0854.50
2009/04/23 12:59:41.6       5   -529   -107    530    541 179.4 -11.5  34178  289.89 0854.50
2009/04/23 12:59:41.7      87   -569   -110    576    587 171.3 -10.9  34174  289.81 0854.50
2009/04/23 12:59:41.8     193   -498    -88    535    543 158.8  -9.3  34174  289.82 0854.50
2009/04/23 12:59:41.9     105   -563   -112    573    585 169.4 -11.1  34180  289.91 0854.50
2009/04/23 12:59:42.0      26   -582    -83    583    590 177.4  -8.1  34176  289.85 0854.50
2009/04/23 12:59:42.1     -40   -518   -106    520    532 184.5 -11.6  34178  289.87 0854.50
2009/04/23 12:59:42.2     -43   -509   -141    511    531 184.9 -15.5  34182  289.94 0854.50
2009/04/23 12:59:42.3      71   -477   -176    483    514 171.5 -25.3  34180  289.91 0854.50
2009/04/23 12:59:42.4     102   -500   -171    511    540 168.4 -18.6  34178  289.87 0854.50
2009/04/23 12:59:42.5     105   -482   -130    494    511 167.6 -14.8  34180  289.91 0854.50
2009/04/23 12:59:42.6      -1   -406   -125    407    425 180.3 -22.2  34180  289.92 0854.50
2009/04/23 12:59:42.7      75   -365   -137    373    397 168.3 -25.4  34178  289.87 0854.50
2009/04/23 12:59:42.8      25   -420   -113    421    436 176.5 -15.1  34176  289.83 0854.50
2009/04/23 12:59:42.9       0   -465    -71    466    472 179.9  -8.7  34180  289.91 0854.50
2009/04/23 12:59:43.0     -22   -455   -136    456    476 182.8 -16.6  34178  289.89 0854.50
2009/04/23 12:59:43.1     -34   -569   -138    571    588 183.5 -13.6  34182  289.93 0854.50
2009/04/23 12:59:43.2      -7   -575    -89    576    583 180.7  -8.8  34176  289.85 0854.50
2009/04/23 12:59:43.3     -79   -543    -70    549    554 188.4  -7.3  34180  289.92 0854.50
2009/04/23 12:59:43.4    -152   -533    -41    555    557 195.9  -4.2  34180  289.92 0854.48
2009/04/23 12:59:43.5    -198   -577    -70    611    616 199.0  -6.6  34180  289.91 0854.48
2009/04/23 12:59:43.6    -124   -560    -83    574    581 192.5  -8.3  34178  289.88 0854.48
2009/04/23 12:59:43.7     -48   -501   -120    504    519 185.6 -13.4  34182  289.95 0854.48
2009/04/23 12:59:43.8    -181   -322   -121    370    390 209.4 -18.1  34180  289.91 0854.48
2009/04/23 12:59:43.9    -203   -491    -29    532    533 202.5  -3.1  34180  289.90 0854.48
2009/04/23 12:59:44.0    -201   -527    -61    565    569 200.9  -6.2  34176  289.84 0854.48
2009/04/23 12:59:44.1    -125   -435    -43    453    456 196.1  -5.5  34180  289.92 0854.48
2009/04/23 12:59:44.2     -96   -357    -38    370    373 195.2  -6.0  34186  290.01 0854.48
2009/04/23 12:59:44.3    -173   -236    -82    293    304 216.3 -20.2  34184  289.98 0854.48
2009/04/23 12:59:44.4     -89   -199     16    218    219 204.1   4.4  34188  290.06 0854.48
2009/04/23 12:59:44.5    -106   -221     -3    246    247 205.6  -0.7  34184  289.97 0854.48
2009/04/23 12:59:44.6    -159   -150     36    219    222 226.7   9.3  34180  289.92 0854.48
2009/04/23 12:59:44.7     -91   -223    -22    242    244 202.3  -5.2  34182  289.93 0854.48
2009/04/23 12:59:44.8     -91   -298      9    312    313 197.0   1.8  34182  289.95 0854.48
2009/04/23 12:59:44.9     -77   -262      5    274    275 196.5   1.2  34172  289.76 0854.48
2009/04/23 12:59:45.0      76   -223     69    236    246 161.1  16.3  34180  289.90 0854.48
2009/04/23 12:59:45.1      82   -243     14    257    258 161.3   3.1  34182  289.95 0854.48
2009/04/23 12:59:45.2      53   -201    -11    209    210 165.1  -3.1  34182  289.96 0854.48
2009/04/23 12:59:45.3      84   -201    -22    218    220 157.3  -6.0  34180  289.92 0854.48
2009/04/23 12:59:45.4     175   -192     31    260    262 137.7   6.9  34186  290.02 0854.50
2009/04/23 12:59:45.5     146   -187     65    238    247 142.2  15.3  34186  290.00 0854.50
2009/04/23 12:59:45.6     184   -196     44    270    274 136.8   9.3  34186  290.02 0854.50
2009/04/23 12:59:45.7     102   -235     91    257    272 156.4  20.0  34184  289.97 0854.50
2009/04/23 12:59:45.8     138   -185    105    231    253 143.3  26.2  34184  289.97 0854.50
2009/04/23 12:59:45.9     263   -157    127    307    332 120.9  23.7  34186  290.00 0854.50
2009/04/23 12:59:46.0     229   -264    189    350    397 139.0  30.7  34184  289.98 0854.50
2009/04/23 12:59:46.1     189   -203     81    278    290 137.0  16.4  34186  290.02 0854.50
2009/04/23 12:59:46.2     131   -166     81    212    226 141.7  22.0  34182  289.94 0854.50
2009/04/23 12:59:46.3     153   -226     77    274    285 145.9  15.8  34182  289.95 0854.50
2009/04/23 12:59:46.4     108   -260    104    282    300 157.3  21.0  34180  289.92 0854.50
2009/04/23 12:59:46.5     158   -304    199    343    396 152.5  32.8  34180  289.91 0854.50
2009/04/23 12:59:46.6     187   -256    141    318    347 143.9  25.7  34180  289.91 0854.50
2009/04/23 12:59:46.7     181   -288     97    341    355 147.8  15.9  34178  289.89 0854.50
2009/04/23 12:59:46.8     150   -276    190    315    367 151.5  34.0  34182  289.94 0854.50
2009/04/23 12:59:46.9     188   -208    203    281    346 137.9  39.5  34182  289.93 0854.50
2009/04/23 12:59:47.0     129   -242    198    275    338 151.9  39.5  34178  289.88 0854.50
2009/04/23 12:59:47.1     227   -269    189    353    400 139.8  30.3  34182  289.93 0854.50
2009/04/23 12:59:47.2     191   -231    193    300    356 140.4  35.7  34182  289.93 0854.50
2009/04/23 12:59:47.3      66   -236    187    246    309 164.2  41.2  34186  290.00 0854.50
2009/04/23 12:59:47.4     122   -102    159    160    225 130.0  50.2  34186  290.02 0854.51
2009/04/23 12:59:47.5      81    -42    104     92    138 117.5  53.7  34186  290.01 0854.51
2009/04/23 12:59:47.6     142    -90    115    169    204 122.5  37.6  34184  289.99 0854.51
2009/04/23 12:59:47.7      51   -116    131    127    182 156.3  50.9  34186  290.02 0854.51
2009/04/23 12:59:47.8      16     37    111     41    118  23.6  79.1  34188  290.06 0854.51
2009/04/23 12:59:47.9     -25      8    138     27    140 288.6  89.1  34192  290.13 0854.51
2009/04/23 12:59:48.0      -1     15    104     16    105 355.6  90.0  34198  290.21 0854.51
2009/04/23 12:59:48.1     -26    -35     82     44     93 217.0  69.8  34190  290.09 0854.51
2009/04/23 12:59:48.2      -5    -35     56     36     66 188.0  64.6  34190  290.08 0854.51
2009/04/23 12:59:48.3     -36     12     82     39     90 288.6  72.9  34188  290.04 0854.51
2009/04/23 12:59:48.4      23     16     95     29     99  55.8  82.3  34200  290.25 0854.51
2009/04/23 12:59:48.5      13     49     95     51    107  15.1  69.8  34194  290.14 0854.51
2009/04/23 12:59:48.6      23     73    112     77    135  17.8  62.6  34194  290.16 0854.51
2009/04/23 12:59:48.7      75     97    126    123    176  37.8  50.7  34190  290.09 0854.51
2009/04/23 12:59:48.8      58     23    126     63    140  68.3  71.9  34190  290.09 0854.51
2009/04/23 12:59:48.9       6     17     67     19     69  18.7  83.9  34198  290.21 0854.51
2009/04/23 12:59:49.0       2      2     40      3     40  45.0  90.0  34192  290.11 0854.51
2009/04/23 12:59:49.1     -80     83     -1    116    117 315.9  -0.7  34186  290.01 0854.51
2009/04/23 12:59:49.2    -111     96     55    147    156 310.9  21.5  34188  290.06 0854.51
2009/04/23 12:59:49.3     -89     44    112    100    150 296.2  53.7  34194  290.16 0854.51
2009/04/23 12:59:49.4     -58     27    122     65    138 295.4  69.3  34196  290.18 0854.50
2009/04/23 12:59:49.5     -90     55     92    106    140 301.5  45.8  34196  290.18 0854.50
2009/04/23 12:59:49.6     -43     69     28     82     87 328.4  19.4  34190  290.09 0854.50
2009/04/23 12:59:49.7     -27     -9     13     29     31 251.4  27.1  34192  290.11 0854.50
2009/04/23 12:59:49.8      70   -110     95    131    161 147.4  39.7  34184  289.99 0854.50
2009/04/23 12:59:49.9      37    -78    138     87    163 154.6  64.7  34190  290.09 0854.50
2009/04/23 12:59:50.0      82   -145    141    167    218 150.4  44.3  34188  290.06 0854.50
2009/04/23 12:59:50.1     100   -175    148    202    250 150.1  39.9  34192  290.12 0854.50
2009/04/23 12:59:50.2      27   -135    150    138    203 168.4  52.2  34192  290.13 0854.50
2009/04/23 12:59:50.3     141   -170    129    222    256 140.3  32.7  34190  290.09 0854.50
2009/04/23 12:59:50.4     150   -124    130    195    234 129.5  36.7  34188  290.06 0854.50
2009/04/23 12:59:50.5      55   -116    139    129    189 154.5  52.2  34194  290.14 0854.50
2009/04/23 12:59:50.6      59   -156    141    167    218 159.3  44.3  34192  290.11 0854.50
2009/04/23 12:59:50.7     112   -162    139    198    241 145.3  38.5  34188  290.04 0854.50
2009/04/23 12:59:50.8     172   -215    187    276    333 141.3  37.6  34188  290.05 0854.50
2009/04/23 12:59:50.9     -12    -21    158     25    159 209.0  90.0  34192  290.13 0854.50
2009/04/23 12:59:51.0      -5     41    178     42    182 352.9  86.7  34198  290.21 0854.50
2009/04/23 12:59:51.1       0    -71    209     72    221 180.0  81.0  34194  290.16 0854.50
2009/04/23 12:59:51.2      99     30    169    104    198  73.2  65.7  34194  290.14 0854.50
2009/04/23 12:59:51.3     113     15    211    115    240  82.1  69.1  34194  290.14 0854.50
2009/04/23 12:59:51.4     -23     13    141     27    143 298.9  89.6  34202  290.28 0854.49
2009/04/23 12:59:51.5     -31     61    140     69    156 332.8  72.8  34208  290.38 0854.49
2009/04/23 12:59:51.6      10     32    144     34    147  18.7  86.9  34210  290.41 0854.49
2009/04/23 12:59:51.7       8     59    131     60    144   8.0  73.5  34212  290.47 0854.49
2009/04/23 12:59:51.8      51     42    132     67    148  50.5  71.4  34198  290.23 0854.49
2009/04/23 12:59:51.9      35   -176    168    180    246 168.7  47.9  34192  290.11 0854.49
2009/04/23 12:59:52.0      59   -246    165    254    302 166.4  35.7  34194  290.14 0854.49
2009/04/23 12:59:52.1      12   -260    145    261    298 177.3  31.4  34194  290.14 0854.49
2009/04/23 12:59:52.2      44   -221    118    226    254 168.7  29.8  34198  290.22 0854.49
2009/04/23 12:59:52.3      58   -245    142    252    289 166.6  31.9  34198  290.22 0854.49
2009/04/23 12:59:52.4      90   -298     70    312    320 163.1  12.8  34192  290.12 0854.49
2009/04/23 12:59:52.5     229   -273     43    357    360 139.9   6.9  34188  290.06 0854.49
2009/04/23 12:59:52.6     264   -246    111    362    379 133.0  17.2  34190  290.08 0854.49
2009/04/23 12:59:52.7     233   -259     84    349    360 138.0  13.6  34190  290.08 0854.49
2009/04/23 12:59:52.8     185   -285    225    341    408 147.0  36.5  34190  290.08 0854.49
2009/04/23 12:59:52.9     140   -265    203    300    362 152.1  37.4  34194  290.15 0854.49
2009/04/23 12:59:53.0     141   -248    172    286    333 150.4  33.8  34190  290.09 0854.49
2009/04/23 12:59:53.1      73   -202    173    216    276 160.0  42.8  34198  290.20 0854.49
2009/04/23 12:59:53.2     169   -181    148    248    288 137.0  33.5  34192  290.12 0854.49
2009/04/23 12:59:53.3      96   -184    157    208    260 152.4  40.7  34192  290.10 0854.49
2009/04/23 12:59:53.4     112   -237    148    263    301 154.7  31.6  34196  290.17 0854.48
2009/04/23 12:59:53.5     191   -247    215    313    379 142.4  37.7  34192  290.10 0854.48
2009/04/23 12:59:53.6     147   -304    214    338    400 154.1  35.5  34194  290.15 0854.48
2009/04/23 12:59:53.7     164   -306    240    348    422 151.9  37.9  34192  290.13 0854.48
2009/04/23 12:59:53.8     158   -311    174    350    390 153.0  28.4  34196  290.18 0854.48
2009/04/23 12:59:53.9     167   -293    113    338    357 150.4  18.5  34192  290.13 0854.48
2009/04/23 12:59:54.0     143   -197    103    244    264 144.0  24.2  34194  290.14 0854.48
2009/04/23 12:59:54.1      97   -220     90    241    257 156.2  21.5  34198  290.22 0854.48
2009/04/23 12:59:54.2      53   -268    110    274    295 168.7  23.1  34198  290.20 0854.48
2009/04/23 12:59:54.3      21   -277    101    278    295 175.6  20.9  34198  290.22 0854.48
2009/04/23 12:59:54.4     -19   -249     95    250    267 184.5  22.0  34198  290.22 0854.50
2009/04/23 12:59:54.5      21   -208    100    210    232 174.2  27.3  34200  290.26 0854.50
2009/04/23 12:59:54.6      41   -186    141    191    237 167.5  40.1  34200  290.25 0854.50
2009/04/23 12:59:54.7      77   -142    155    162    224 151.5  48.7  34206  290.35 0854.50
2009/04/23 12:59:54.8      36    -75    147     84    169 154.1  67.7  34208  290.40 0854.50
2009/04/23 12:59:54.9      60   -193    166    203    262 162.6  43.7  34198  290.20 0854.50
2009/04/23 12:59:55.0     116   -195    214    227    311 149.3  48.4  34206  290.34 0854.50
2009/04/23 12:59:55.1     106   -241    157    264    307 156.2  33.5  34200  290.24 0854.50
2009/04/23 12:59:55.2     114   -241    116    267    291 154.5  25.1  34200  290.26 0854.50
2009/04/23 12:59:55.3      42   -206    113    211    239 168.4  30.3  34200  290.26 0854.50
2009/04/23 12:59:55.4      49   -176    163    183    245 164.2  46.2  34200  290.26 0854.50
2009/04/23 12:59:55.5       7    -93    152     94    178 175.5  65.1  34202  290.30 0854.50
2009/04/23 12:59:55.6      33    -40     97     53    110 140.4  68.9  34208  290.40 0854.50
2009/04/23 12:59:55.8     106    -77    112    132    173 126.0  44.8  34206  290.36 0854.50
2009/04/23 12:59:55.9      73   -152    145    169    222 154.4  45.4  34204  290.31 0854.50
2009/04/23 12:59:56.0      74   -132    124    152    196 150.6  43.7  34204  290.31 0854.50
2009/04/23 12:59:56.1     119   -104    124    159    201 131.3  41.7  34204  290.33 0854.50
2009/04/23 12:59:56.2      87   -137    124    163    204 147.5  41.2  34204  290.33 0854.50
2009/04/23 12:59:56.3      15   -183    147    184    235 175.1  42.7  34204  290.33 0854.50
2009/04/23 12:59:56.4      25   -243    179    245    303 174.0  39.7  34206  290.34 0854.50
2009/04/23 12:59:56.5     -16   -221    141    222    262 184.4  35.5  34208  290.39 0854.46
2009/04/23 12:59:56.6      72    -52    127     90    155 126.0  61.1  34202  290.30 0854.46
2009/04/23 12:59:56.7     -10   -139    154    140    208 184.5  53.0  34202  290.30 0854.46
2009/04/23 12:59:56.8      14    -89    169     91    191 170.7  69.1  34204  290.33 0854.46
2009/04/23 12:59:56.9      -8   -102    147    103    179 184.5  61.5  34202  290.30 0854.46
2009/04/23 12:59:57.0    -153   -173    163    232    283 221.4  38.5  34224  290.65 0854.46
2009/04/23 12:59:57.1    -104   -203    217    229    315 207.1  48.4  34202  290.27 0854.46
2009/04/23 12:59:57.2    -128   -214    152    250    292 211.0  34.4  34218  290.56 0854.46
2009/04/23 12:59:57.3    -117   -229    123    258    285 207.2  27.2  34210  290.41 0854.46
2009/04/23 12:59:57.4     -43   -229     86    234    249 190.7  21.0  34208  290.37 0854.46
2009/04/23 12:59:57.5     -14   -182    135    183    227 184.5  39.9  34198  290.21 0854.46
2009/04/23 12:59:57.6     -77   -160    149    178    232 205.9  43.8  34198  290.21 0854.46
2009/04/23 12:59:57.7    -120   -123    137    172    219 224.3  42.7  34200  290.25 0854.46
2009/04/23 12:59:57.8     -79   -109     99    135    167 216.0  39.9  34200  290.26 0854.46
2009/04/23 12:59:57.9     -62   -168    122    180    217 200.5  37.6  34196  290.19 0854.46
2009/04/23 12:59:58.0     -58   -161    136    172    219 199.8  42.4  34200  290.26 0854.46
2009/04/23 12:59:58.1     -84   -194    123    212    245 203.6  32.7  34200  290.26 0854.46
2009/04/23 12:59:58.2     -92   -167    102    191    216 209.0  30.3  34202  290.30 0854.46
2009/04/23 12:59:58.3    -127   -127     80    180    196 224.9  25.3  34198  290.23 0854.46
2009/04/23 12:59:58.4    -113    -94     69    148    163 230.4  26.4  34202  290.30 0854.45
2009/04/23 12:59:58.5     -93   -105     74    141    159 221.4  29.8  34208  290.38 0854.45
2009/04/23 12:59:58.6     -99    -72     55    123    134 234.0  25.7  34210  290.41 0854.45
2009/04/23 12:59:58.7     -85    -47     49     98    109 241.1  28.2  34214  290.48 0854.45
2009/04/23 12:59:58.8    -109     55     91    123    153 296.6  39.7  34208  290.40 0854.45
2009/04/23 12:59:58.9    -142     47    108    150    184 288.4  39.5  34212  290.45 0854.45
2009/04/23 12:59:59.0    -160     19     99    162    189 277.0  34.4  34212  290.47 0854.45
2009/04/23 12:59:59.1     -98     45    107    109    152 294.8  50.0  34216  290.52 0854.45
2009/04/23 12:59:59.2     -71      9     67     72     98 277.9  47.9  34210  290.41 0854.45
2009/04/23 12:59:59.3     -16      0     49     17     51 270.0  81.2  34212  290.47 0854.45
2009/04/23 12:59:59.4     -54     50     57     74     93 313.1  42.2  34208  290.40 0854.45
2009/04/23 12:59:59.5     -61     98     27    116    120 327.9  13.2  34204  290.33 0854.45
2009/04/23 12:59:59.6     -56    129     54    141    150 336.4  22.0  34210  290.41 0854.45
2009/04/23 12:59:59.7     -62    104     56    122    134 329.3  27.1  34206  290.35 0854.45
2009/04/23 12:59:59.8     -93     57    -14    110    111 301.5  -7.3  34212  290.45 0854.45
